<?xml version='1.0' encoding='UTF-8'?><gpx version="1.1" creator="JPX - https://github.com/jenetics/jpx" xmlns="http://www.topografix.com/GPX/1/1"><trk><trkseg><trkpt lat="42.1911545" lon="14.220593"><ele>568.0</ele><time>2026-05-01T13:14:23.58Z</time></trkpt><trkpt lat="42.1912314" lon="14.2206044"><ele>568.0</ele><time>2026-05-01T13:14:28.035Z</time></trkpt><trkpt lat="42.1911233" lon="14.2205917"><ele>568.0</ele><time>2026-05-01T13:17:20.99Z</time></trkpt><trkpt lat="42.191035" lon="14.2206083"><ele>568.0</ele><time>2026-05-01T13:17:22.991Z</time></trkpt><trkpt lat="42.1909183" lon="14.220615"><ele>568.0</ele><time>2026-05-01T13:17:24.991Z</time></trkpt><trkpt lat="42.1907883" lon="14.2206067"><ele>568.0</ele><time>2026-05-01T13:17:26.99Z</time></trkpt><trkpt lat="42.1907117" lon="14.2205883"><ele>568.0</ele><time>2026-05-01T13:17:27.991Z</time></trkpt><trkpt lat="42.1906433" lon="14.220575"><ele>568.0</ele><time>2026-05-01T13:17:28.99Z</time></trkpt><trkpt lat="42.1905283" lon="14.22053"><ele>568.0</ele><time>2026-05-01T13:17:30.99Z</time></trkpt><trkpt lat="42.1904217" lon="14.2204733"><ele>568.0</ele><time>2026-05-01T13:17:32.991Z</time></trkpt><trkpt lat="42.1903433" lon="14.220435"><ele>568.4285714285714</ele><time>2026-05-01T13:17:34.991Z</time></trkpt><trkpt lat="42.1902833" lon="14.2204"><ele>568.8571428571428</ele><time>2026-05-01T13:17:36.99Z</time></trkpt><trkpt lat="42.190225" lon="14.2203667"><ele>569.2857142857142</ele><time>2026-05-01T13:17:38.991Z</time></trkpt><trkpt lat="42.1901617" lon="14.22033"><ele>569.7142857142857</ele><time>2026-05-01T13:17:40.991Z</time></trkpt><trkpt lat="42.1901217" lon="14.2202633"><ele>570.1428571428571</ele><time>2026-05-01T13:17:43.991Z</time></trkpt><trkpt lat="42.1901033" lon="14.2201783"><ele>570.5714285714286</ele><time>2026-05-01T13:17:45.991Z</time></trkpt><trkpt lat="42.1900767" lon="14.2200867"><ele>571.0</ele><time>2026-05-01T13:17:47.991Z</time></trkpt><trkpt lat="42.1900283" lon="14.2200283"><ele>571.0</ele><time>2026-05-01T13:17:49.991Z</time></trkpt><trkpt lat="42.1899567" lon="14.220035"><ele>571.0</ele><time>2026-05-01T13:17:51.991Z</time></trkpt><trkpt lat="42.1898833" lon="14.220035"><ele>571.0</ele><time>2026-05-01T13:17:53.991Z</time></trkpt><trkpt lat="42.1898233" lon="14.22"><ele>571.0</ele><time>2026-05-01T13:17:56.99Z</time></trkpt><trkpt lat="42.1898783" lon="14.2199467"><ele>571.0</ele><time>2026-05-01T13:17:59.989Z</time></trkpt><trkpt lat="42.189945" lon="14.21994"><ele>571.0</ele><time>2026-05-01T13:18:00.99Z</time></trkpt><trkpt lat="42.1900133" lon="14.21993"><ele>571.0</ele><time>2026-05-01T13:18:01.989Z</time></trkpt><trkpt lat="42.1900833" lon="14.2199117"><ele>571.0</ele><time>2026-05-01T13:18:02.989Z</time></trkpt><trkpt lat="42.1901633" lon="14.2198817"><ele>571.0</ele><time>2026-05-01T13:18:03.989Z</time></trkpt><trkpt lat="42.1902517" lon="14.21985"><ele>571.0</ele><time>2026-05-01T13:18:04.99Z</time></trkpt><trkpt lat="42.1903317" lon="14.219805"><ele>571.0</ele><time>2026-05-01T13:18:05.989Z</time></trkpt><trkpt lat="42.1904083" lon="14.219765"><ele>571.0</ele><time>2026-05-01T13:18:06.99Z</time></trkpt><trkpt lat="42.1904767" lon="14.2197317"><ele>571.0</ele><time>2026-05-01T13:18:07.99Z</time></trkpt><trkpt lat="42.1905567" lon="14.2197033"><ele>568.4</ele><time>2026-05-01T13:18:08.99Z</time></trkpt><trkpt lat="42.19064" lon="14.21968"><ele>565.8</ele><time>2026-05-01T13:18:09.989Z</time></trkpt><trkpt lat="42.1907283" lon="14.21967"><ele>563.1999999999999</ele><time>2026-05-01T13:18:10.99Z</time></trkpt><trkpt lat="42.1908333" lon="14.2196767"><ele>560.6</ele><time>2026-05-01T13:18:11.99Z</time></trkpt><trkpt lat="42.1909283" lon="14.2196783"><ele>558.0</ele><time>2026-05-01T13:18:12.99Z</time></trkpt><trkpt lat="42.1910183" lon="14.2196767"><ele>557.1666666666666</ele><time>2026-05-01T13:18:13.99Z</time></trkpt><trkpt lat="42.1910967" lon="14.2196883"><ele>556.3333333333334</ele><time>2026-05-01T13:18:14.989Z</time></trkpt><trkpt lat="42.191175" lon="14.2197"><ele>555.5</ele><time>2026-05-01T13:18:15.99Z</time></trkpt><trkpt lat="42.19125" lon="14.2197067"><ele>554.6666666666667</ele><time>2026-05-01T13:18:16.99Z</time></trkpt><trkpt lat="42.1913333" lon="14.2197183"><ele>553.8333333333334</ele><time>2026-05-01T13:18:17.989Z</time></trkpt><trkpt lat="42.191425" lon="14.2197317"><ele>553.0</ele><time>2026-05-01T13:18:18.99Z</time></trkpt><trkpt lat="42.191535" lon="14.2197483"><ele>552.1999999999999</ele><time>2026-05-01T13:18:19.989Z</time></trkpt><trkpt lat="42.1916517" lon="14.21975"><ele>551.4</ele><time>2026-05-01T13:18:20.989Z</time></trkpt><trkpt lat="42.1917633" lon="14.2197583"><ele>550.5999999999999</ele><time>2026-05-01T13:18:21.99Z</time></trkpt><trkpt lat="42.191875" lon="14.2197667"><ele>549.8</ele><time>2026-05-01T13:18:22.99Z</time></trkpt><trkpt lat="42.1919783" lon="14.2197717"><ele>549.0</ele><time>2026-05-01T13:18:23.99Z</time></trkpt><trkpt lat="42.1920817" lon="14.2197817"><ele>549.0</ele><time>2026-05-01T13:18:24.99Z</time></trkpt><trkpt lat="42.1921783" lon="14.2197883"><ele>549.0</ele><time>2026-05-01T13:18:25.99Z</time></trkpt><trkpt lat="42.1922733" lon="14.21981"><ele>549.0</ele><time>2026-05-01T13:18:26.99Z</time></trkpt><trkpt lat="42.1923667" lon="14.2198383"><ele>549.0</ele><time>2026-05-01T13:18:27.99Z</time></trkpt><trkpt lat="42.19246" lon="14.2198733"><ele>549.0</ele><time>2026-05-01T13:18:28.989Z</time></trkpt><trkpt lat="42.19256" lon="14.21992"><ele>551.2</ele><time>2026-05-01T13:18:29.989Z</time></trkpt><trkpt lat="42.1926567" lon="14.219965"><ele>553.4</ele><time>2026-05-01T13:18:30.99Z</time></trkpt><trkpt lat="42.19275" lon="14.2200317"><ele>555.6</ele><time>2026-05-01T13:18:31.99Z</time></trkpt><trkpt lat="42.1928333" lon="14.2201083"><ele>557.8</ele><time>2026-05-01T13:18:32.989Z</time></trkpt><trkpt lat="42.1929067" lon="14.22018"><ele>560.0</ele><time>2026-05-01T13:18:33.99Z</time></trkpt><trkpt lat="42.1929667" lon="14.2202383"><ele>560.0</ele><time>2026-05-01T13:18:34.989Z</time></trkpt><trkpt lat="42.1930183" lon="14.2202933"><ele>560.0</ele><time>2026-05-01T13:18:35.99Z</time></trkpt><trkpt lat="42.1930933" lon="14.2203133"><ele>560.0</ele><time>2026-05-01T13:18:37.99Z</time></trkpt><trkpt lat="42.1932167" lon="14.2202467"><ele>560.0</ele><time>2026-05-01T13:22:28.989Z</time></trkpt><trkpt lat="42.1932517" lon="14.2203417"><ele>560.0</ele><time>2026-05-01T13:26:03.986Z</time></trkpt><trkpt lat="42.1932767" lon="14.2204283"><ele>560.0</ele><time>2026-05-01T13:26:08.987Z</time></trkpt><trkpt lat="42.193355" lon="14.2205033"><ele>558.0</ele><time>2026-05-01T13:26:10.986Z</time></trkpt><trkpt lat="42.193415" lon="14.2205317"><ele>556.0</ele><time>2026-05-01T13:26:11.987Z</time></trkpt><trkpt lat="42.1935267" lon="14.2205617"><ele>554.0</ele><time>2026-05-01T13:26:13.986Z</time></trkpt><trkpt lat="42.193645" lon="14.2205933"><ele>552.0</ele><time>2026-05-01T13:26:15.987Z</time></trkpt><trkpt lat="42.1937633" lon="14.2206083"><ele>550.0</ele><time>2026-05-01T13:26:17.987Z</time></trkpt><trkpt lat="42.19386" lon="14.220565"><ele>550.0</ele><time>2026-05-01T13:26:19.987Z</time></trkpt><trkpt lat="42.1939033" lon="14.2204517"><ele>550.0</ele><time>2026-05-01T13:26:21.987Z</time></trkpt><trkpt lat="42.1938783" lon="14.2203683"><ele>550.0</ele><time>2026-05-01T13:26:23.987Z</time></trkpt><trkpt lat="42.1937783" lon="14.2203083"><ele>550.0</ele><time>2026-05-01T13:26:56.986Z</time></trkpt><trkpt lat="42.1937133" lon="14.2202667"><ele>550.0</ele><time>2026-05-01T13:26:57.986Z</time></trkpt><trkpt lat="42.1936433" lon="14.2202267"><ele>550.0</ele><time>2026-05-01T13:26:58.987Z</time></trkpt><trkpt lat="42.193575" lon="14.22019"><ele>550.0</ele><time>2026-05-01T13:26:59.986Z</time></trkpt><trkpt lat="42.19351" lon="14.2201583"><ele>550.0</ele><time>2026-05-01T13:27:00.987Z</time></trkpt><trkpt lat="42.1934067" lon="14.220105"><ele>550.0</ele><time>2026-05-01T13:27:02.986Z</time></trkpt><trkpt lat="42.1933267" lon="14.2200483"><ele>550.0</ele><time>2026-05-01T13:27:04.987Z</time></trkpt><trkpt lat="42.1933533" lon="14.2199683"><ele>550.0</ele><time>2026-05-01T13:27:08.987Z</time></trkpt><trkpt lat="42.19343" lon="14.2200283"><ele>550.0</ele><time>2026-05-01T13:27:10.987Z</time></trkpt><trkpt lat="42.1934883" lon="14.2200783"><ele>550.0</ele><time>2026-05-01T13:27:11.987Z</time></trkpt><trkpt lat="42.19355" lon="14.2201183"><ele>550.0</ele><time>2026-05-01T13:27:12.986Z</time></trkpt><trkpt lat="42.1936083" lon="14.2201567"><ele>550.0</ele><time>2026-05-01T13:27:13.986Z</time></trkpt><trkpt lat="42.1936717" lon="14.2201883"><ele>550.0</ele><time>2026-05-01T13:27:14.986Z</time></trkpt><trkpt lat="42.193735" lon="14.2202183"><ele>550.0</ele><time>2026-05-01T13:27:15.987Z</time></trkpt><trkpt lat="42.1938433" lon="14.220265"><ele>550.0</ele><time>2026-05-01T13:27:17.987Z</time></trkpt><trkpt lat="42.19393" lon="14.2203717"><ele>550.0</ele><time>2026-05-01T13:27:19.986Z</time></trkpt><trkpt lat="42.1939817" lon="14.2205133"><ele>550.0</ele><time>2026-05-01T13:27:21.986Z</time></trkpt><trkpt lat="42.1940017" lon="14.2205967"><ele>550.0</ele><time>2026-05-01T13:27:22.987Z</time></trkpt><trkpt lat="42.1940133" lon="14.2206983"><ele>550.0</ele><time>2026-05-01T13:27:23.987Z</time></trkpt><trkpt lat="42.194025" lon="14.2208083"><ele>550.0</ele><time>2026-05-01T13:27:24.986Z</time></trkpt><trkpt lat="42.1940333" lon="14.2209383"><ele>550.0</ele><time>2026-05-01T13:27:25.987Z</time></trkpt><trkpt lat="42.194035" lon="14.22109"><ele>546.0</ele><time>2026-05-01T13:27:26.987Z</time></trkpt><trkpt lat="42.1940317" lon="14.221245"><ele>542.0</ele><time>2026-05-01T13:27:27.986Z</time></trkpt><trkpt lat="42.1940267" lon="14.2214083"><ele>538.0</ele><time>2026-05-01T13:27:28.987Z</time></trkpt><trkpt lat="42.1940333" lon="14.2215617"><ele>534.0</ele><time>2026-05-01T13:27:29.987Z</time></trkpt><trkpt lat="42.1940317" lon="14.22175"><ele>532.75</ele><time>2026-05-01T13:27:30.986Z</time></trkpt><trkpt lat="42.1940317" lon="14.2219367"><ele>531.5</ele><time>2026-05-01T13:27:31.987Z</time></trkpt><trkpt lat="42.19403" lon="14.2221183"><ele>530.25</ele><time>2026-05-01T13:27:32.986Z</time></trkpt><trkpt lat="42.19403" lon="14.2222867"><ele>529.0</ele><time>2026-05-01T13:27:33.987Z</time></trkpt><trkpt lat="42.194025" lon="14.2224533"><ele>527.25</ele><time>2026-05-01T13:27:34.986Z</time></trkpt><trkpt lat="42.1940267" lon="14.2226217"><ele>525.5</ele><time>2026-05-01T13:27:35.987Z</time></trkpt><trkpt lat="42.19404" lon="14.222785"><ele>523.75</ele><time>2026-05-01T13:27:36.986Z</time></trkpt><trkpt lat="42.1940533" lon="14.2229467"><ele>522.0</ele><time>2026-05-01T13:27:37.987Z</time></trkpt><trkpt lat="42.194065" lon="14.223115"><ele>520.8000000000001</ele><time>2026-05-01T13:27:38.986Z</time></trkpt><trkpt lat="42.19408" lon="14.22328"><ele>519.6</ele><time>2026-05-01T13:27:39.987Z</time></trkpt><trkpt lat="42.194095" lon="14.22344"><ele>518.4000000000001</ele><time>2026-05-01T13:27:40.987Z</time></trkpt><trkpt lat="42.1941083" lon="14.22358"><ele>517.2</ele><time>2026-05-01T13:27:41.987Z</time></trkpt><trkpt lat="42.1941167" lon="14.2236933"><ele>516.0</ele><time>2026-05-01T13:27:42.987Z</time></trkpt><trkpt lat="42.19413" lon="14.22379"><ele>516.0</ele><time>2026-05-01T13:27:43.987Z</time></trkpt><trkpt lat="42.1941933" lon="14.2239333"><ele>516.0</ele><time>2026-05-01T13:27:45.987Z</time></trkpt><trkpt lat="42.1942817" lon="14.223935"><ele>516.0</ele><time>2026-05-01T13:27:47.987Z</time></trkpt><trkpt lat="42.19435" lon="14.2238833"><ele>516.0</ele><time>2026-05-01T13:27:48.987Z</time></trkpt><trkpt lat="42.1944267" lon="14.223805"><ele>516.0</ele><time>2026-05-01T13:27:49.986Z</time></trkpt><trkpt lat="42.1945133" lon="14.2237217"><ele>516.0</ele><time>2026-05-01T13:27:50.986Z</time></trkpt><trkpt lat="42.1946" lon="14.22365"><ele>516.0</ele><time>2026-05-01T13:27:51.987Z</time></trkpt><trkpt lat="42.194685" lon="14.223575"><ele>516.0</ele><time>2026-05-01T13:27:52.986Z</time></trkpt><trkpt lat="42.1947733" lon="14.223485"><ele>516.0</ele><time>2026-05-01T13:27:53.987Z</time></trkpt><trkpt lat="42.194855" lon="14.2234217"><ele>516.0</ele><time>2026-05-01T13:27:54.987Z</time></trkpt><trkpt lat="42.194935" lon="14.22336"><ele>514.8</ele><time>2026-05-01T13:27:55.987Z</time></trkpt><trkpt lat="42.19501" lon="14.2233067"><ele>513.6</ele><time>2026-05-01T13:27:56.986Z</time></trkpt><trkpt lat="42.195085" lon="14.2232283"><ele>512.4</ele><time>2026-05-01T13:27:57.987Z</time></trkpt><trkpt lat="42.1951617" lon="14.2231417"><ele>511.2</ele><time>2026-05-01T13:27:58.987Z</time></trkpt><trkpt lat="42.1952517" lon="14.22304"><ele>510.0</ele><time>2026-05-01T13:27:59.987Z</time></trkpt><trkpt lat="42.1953317" lon="14.222925"><ele>510.0</ele><time>2026-05-01T13:28:00.987Z</time></trkpt><trkpt lat="42.19541" lon="14.22281"><ele>510.0</ele><time>2026-05-01T13:28:01.987Z</time></trkpt><trkpt lat="42.1954933" lon="14.2227"><ele>510.0</ele><time>2026-05-01T13:28:02.987Z</time></trkpt><trkpt lat="42.19556" lon="14.222595"><ele>510.0</ele><time>2026-05-01T13:28:03.987Z</time></trkpt><trkpt lat="42.1956167" lon="14.222475"><ele>510.0</ele><time>2026-05-01T13:28:04.986Z</time></trkpt><trkpt lat="42.1956633" lon="14.2223483"><ele>508.6</ele><time>2026-05-01T13:28:05.987Z</time></trkpt><trkpt lat="42.1956983" lon="14.2222267"><ele>507.2</ele><time>2026-05-01T13:28:06.986Z</time></trkpt><trkpt lat="42.1957283" lon="14.222105"><ele>505.79999999999995</ele><time>2026-05-01T13:28:07.986Z</time></trkpt><trkpt lat="42.1957567" lon="14.221975"><ele>504.4</ele><time>2026-05-01T13:28:08.987Z</time></trkpt><trkpt lat="42.19578" lon="14.2218417"><ele>503.0</ele><time>2026-05-01T13:28:09.987Z</time></trkpt><trkpt lat="42.1957967" lon="14.221705"><ele>503.0</ele><time>2026-05-01T13:28:10.987Z</time></trkpt><trkpt lat="42.1958133" lon="14.2215633"><ele>503.0</ele><time>2026-05-01T13:28:11.987Z</time></trkpt><trkpt lat="42.1958233" lon="14.2214133"><ele>503.0</ele><time>2026-05-01T13:28:12.987Z</time></trkpt><trkpt lat="42.1958183" lon="14.22125"><ele>503.0</ele><time>2026-05-01T13:28:13.987Z</time></trkpt><trkpt lat="42.19581" lon="14.2210783"><ele>503.5</ele><time>2026-05-01T13:28:14.987Z</time></trkpt><trkpt lat="42.1958" lon="14.2209067"><ele>504.0</ele><time>2026-05-01T13:28:15.987Z</time></trkpt><trkpt lat="42.1957967" lon="14.2207367"><ele>504.5</ele><time>2026-05-01T13:28:16.987Z</time></trkpt><trkpt lat="42.195795" lon="14.2205767"><ele>505.0</ele><time>2026-05-01T13:28:17.987Z</time></trkpt><trkpt lat="42.1958" lon="14.2204217"><ele>505.5</ele><time>2026-05-01T13:28:18.987Z</time></trkpt><trkpt lat="42.1958317" lon="14.220265"><ele>506.0</ele><time>2026-05-01T13:28:19.987Z</time></trkpt><trkpt lat="42.1958667" lon="14.2201133"><ele>506.5</ele><time>2026-05-01T13:28:20.986Z</time></trkpt><trkpt lat="42.1959117" lon="14.219975"><ele>507.0</ele><time>2026-05-01T13:28:21.987Z</time></trkpt><trkpt lat="42.1959683" lon="14.2198433"><ele>507.20000000000005</ele><time>2026-05-01T13:28:22.987Z</time></trkpt><trkpt lat="42.19604" lon="14.219725"><ele>507.40000000000003</ele><time>2026-05-01T13:28:23.987Z</time></trkpt><trkpt lat="42.1961333" lon="14.219635"><ele>507.59999999999997</ele><time>2026-05-01T13:28:24.987Z</time></trkpt><trkpt lat="42.1962167" lon="14.2195533"><ele>507.79999999999995</ele><time>2026-05-01T13:28:25.987Z</time></trkpt><trkpt lat="42.1962967" lon="14.2194883"><ele>508.0</ele><time>2026-05-01T13:28:26.987Z</time></trkpt><trkpt lat="42.1963683" lon="14.2194217"><ele>508.0</ele><time>2026-05-01T13:28:27.986Z</time></trkpt><trkpt lat="42.19644" lon="14.219365"><ele>508.0</ele><time>2026-05-01T13:28:28.987Z</time></trkpt><trkpt lat="42.1965133" lon="14.2193183"><ele>508.0</ele><time>2026-05-01T13:28:29.987Z</time></trkpt><trkpt lat="42.196575" lon="14.2192717"><ele>508.0</ele><time>2026-05-01T13:28:30.987Z</time></trkpt><trkpt lat="42.1966367" lon="14.219245"><ele>508.0</ele><time>2026-05-01T13:28:31.987Z</time></trkpt><trkpt lat="42.1967033" lon="14.219235"><ele>508.0</ele><time>2026-05-01T13:28:32.987Z</time></trkpt><trkpt lat="42.19677" lon="14.219235"><ele>508.0</ele><time>2026-05-01T13:28:33.986Z</time></trkpt><trkpt lat="42.196835" lon="14.21921"><ele>507.14285714285717</ele><time>2026-05-01T13:28:34.987Z</time></trkpt><trkpt lat="42.1968967" lon="14.2191667"><ele>506.2857142857142</ele><time>2026-05-01T13:28:35.985Z</time></trkpt><trkpt lat="42.19696" lon="14.2191233"><ele>505.4285714285714</ele><time>2026-05-01T13:28:36.986Z</time></trkpt><trkpt lat="42.197025" lon="14.2191017"><ele>504.57142857142856</ele><time>2026-05-01T13:28:37.986Z</time></trkpt><trkpt lat="42.1970983" lon="14.219095"><ele>503.71428571428567</ele><time>2026-05-01T13:28:38.985Z</time></trkpt><trkpt lat="42.197175" lon="14.21909"><ele>502.8571428571428</ele><time>2026-05-01T13:28:39.986Z</time></trkpt><trkpt lat="42.1972583" lon="14.219075"><ele>501.99999999999994</ele><time>2026-05-01T13:28:40.986Z</time></trkpt><trkpt lat="42.1973383" lon="14.2190633"><ele>501.40000000000003</ele><time>2026-05-01T13:28:41.985Z</time></trkpt><trkpt lat="42.1974233" lon="14.219045"><ele>500.80000000000007</ele><time>2026-05-01T13:28:42.986Z</time></trkpt><trkpt lat="42.19752" lon="14.2190133"><ele>500.2</ele><time>2026-05-01T13:28:43.986Z</time></trkpt><trkpt lat="42.1976433" lon="14.2189867"><ele>499.6</ele><time>2026-05-01T13:28:44.986Z</time></trkpt><trkpt lat="42.19777" lon="14.218965"><ele>499.0</ele><time>2026-05-01T13:28:45.986Z</time></trkpt><trkpt lat="42.1978933" lon="14.2189467"><ele>498.0</ele><time>2026-05-01T13:28:46.986Z</time></trkpt><trkpt lat="42.19801" lon="14.2189333"><ele>497.0</ele><time>2026-05-01T13:28:47.986Z</time></trkpt><trkpt lat="42.1981283" lon="14.218915"><ele>496.0</ele><time>2026-05-01T13:28:48.985Z</time></trkpt><trkpt lat="42.1982433" lon="14.2188783"><ele>495.0</ele><time>2026-05-01T13:28:49.986Z</time></trkpt><trkpt lat="42.1983467" lon="14.21883"><ele>494.25</ele><time>2026-05-01T13:28:50.986Z</time></trkpt><trkpt lat="42.1984567" lon="14.2188017"><ele>493.5</ele><time>2026-05-01T13:28:51.986Z</time></trkpt><trkpt lat="42.1985767" lon="14.2187533"><ele>492.75</ele><time>2026-05-01T13:28:52.986Z</time></trkpt><trkpt lat="42.198695" lon="14.21871"><ele>492.0</ele><time>2026-05-01T13:28:53.986Z</time></trkpt><trkpt lat="42.1988117" lon="14.2186633"><ele>492.0</ele><time>2026-05-01T13:28:54.985Z</time></trkpt><trkpt lat="42.1989267" lon="14.2186017"><ele>492.0</ele><time>2026-05-01T13:28:55.986Z</time></trkpt><trkpt lat="42.1990533" lon="14.2185667"><ele>492.0</ele><time>2026-05-01T13:28:56.985Z</time></trkpt><trkpt lat="42.1991717" lon="14.2185083"><ele>492.0</ele><time>2026-05-01T13:28:57.986Z</time></trkpt><trkpt lat="42.1992983" lon="14.2184633"><ele>490.75</ele><time>2026-05-01T13:28:58.985Z</time></trkpt><trkpt lat="42.199425" lon="14.21842"><ele>489.5</ele><time>2026-05-01T13:28:59.986Z</time></trkpt><trkpt lat="42.1995517" lon="14.2183667"><ele>488.25</ele><time>2026-05-01T13:29:00.985Z</time></trkpt><trkpt lat="42.1996733" lon="14.2183167"><ele>487.0</ele><time>2026-05-01T13:29:01.986Z</time></trkpt><trkpt lat="42.1997967" lon="14.218275"><ele>486.0</ele><time>2026-05-01T13:29:02.985Z</time></trkpt><trkpt lat="42.19991" lon="14.21825"><ele>485.00000000000006</ele><time>2026-05-01T13:29:03.985Z</time></trkpt><trkpt lat="42.20002" lon="14.2182367"><ele>484.00000000000006</ele><time>2026-05-01T13:29:04.986Z</time></trkpt><trkpt lat="42.2001217" lon="14.2182367"><ele>483.0</ele><time>2026-05-01T13:29:05.986Z</time></trkpt><trkpt lat="42.200225" lon="14.2182383"><ele>482.0</ele><time>2026-05-01T13:29:06.986Z</time></trkpt><trkpt lat="42.2003383" lon="14.21824"><ele>482.0</ele><time>2026-05-01T13:29:07.986Z</time></trkpt><trkpt lat="42.2004517" lon="14.218245"><ele>482.0</ele><time>2026-05-01T13:29:08.986Z</time></trkpt><trkpt lat="42.2005667" lon="14.21825"><ele>482.0</ele><time>2026-05-01T13:29:09.986Z</time></trkpt><trkpt lat="42.2006817" lon="14.2182633"><ele>482.0</ele><time>2026-05-01T13:29:10.985Z</time></trkpt><trkpt lat="42.2008017" lon="14.2182817"><ele>481.0</ele><time>2026-05-01T13:29:11.986Z</time></trkpt><trkpt lat="42.2009167" lon="14.218305"><ele>480.0</ele><time>2026-05-01T13:29:12.985Z</time></trkpt><trkpt lat="42.2010317" lon="14.2183333"><ele>479.0</ele><time>2026-05-01T13:29:13.986Z</time></trkpt><trkpt lat="42.20116" lon="14.2183833"><ele>478.0</ele><time>2026-05-01T13:29:14.986Z</time></trkpt><trkpt lat="42.2012817" lon="14.2184383"><ele>478.0</ele><time>2026-05-01T13:29:15.986Z</time></trkpt><trkpt lat="42.2014083" lon="14.2184967"><ele>478.0</ele><time>2026-05-01T13:29:16.986Z</time></trkpt><trkpt lat="42.20152" lon="14.2185517"><ele>478.0</ele><time>2026-05-01T13:29:17.986Z</time></trkpt><trkpt lat="42.2016183" lon="14.2186033"><ele>478.0</ele><time>2026-05-01T13:29:18.986Z</time></trkpt><trkpt lat="42.2017033" lon="14.2186667"><ele>477.6666666666667</ele><time>2026-05-01T13:29:19.986Z</time></trkpt><trkpt lat="42.2017783" lon="14.21872"><ele>477.33333333333337</ele><time>2026-05-01T13:29:20.986Z</time></trkpt><trkpt lat="42.2018417" lon="14.2187667"><ele>477.0</ele><time>2026-05-01T13:29:21.986Z</time></trkpt><trkpt lat="42.2019067" lon="14.2188217"><ele>476.66666666666663</ele><time>2026-05-01T13:29:22.986Z</time></trkpt><trkpt lat="42.2019733" lon="14.2188883"><ele>476.3333333333333</ele><time>2026-05-01T13:29:23.986Z</time></trkpt><trkpt lat="42.2020433" lon="14.218965"><ele>476.0</ele><time>2026-05-01T13:29:24.986Z</time></trkpt><trkpt lat="42.2021117" lon="14.2190483"><ele>475.99999999999994</ele><time>2026-05-01T13:29:25.986Z</time></trkpt><trkpt lat="42.2021783" lon="14.2191433"><ele>476.0</ele><time>2026-05-01T13:29:26.986Z</time></trkpt><trkpt lat="42.2022417" lon="14.2192483"><ele>476.0</ele><time>2026-05-01T13:29:27.986Z</time></trkpt><trkpt lat="42.2022883" lon="14.2193467"><ele>476.0</ele><time>2026-05-01T13:29:28.986Z</time></trkpt><trkpt lat="42.20233" lon="14.2194383"><ele>475.99999999999994</ele><time>2026-05-01T13:29:29.985Z</time></trkpt><trkpt lat="42.2023683" lon="14.2195317"><ele>476.0</ele><time>2026-05-01T13:29:30.986Z</time></trkpt><trkpt lat="42.20242" lon="14.2196433"><ele>473.66666666666663</ele><time>2026-05-01T13:29:32.986Z</time></trkpt><trkpt lat="42.202475" lon="14.2196933"><ele>471.3333333333333</ele><time>2026-05-01T13:29:34.985Z</time></trkpt><trkpt lat="42.2025417" lon="14.2196833"><ele>469.0</ele><time>2026-05-01T13:29:36.986Z</time></trkpt><trkpt lat="42.202605" lon="14.2195933"><ele>466.66666666666663</ele><time>2026-05-01T13:29:38.986Z</time></trkpt><trkpt lat="42.20259" lon="14.2194667"><ele>464.3333333333333</ele><time>2026-05-01T13:29:40.986Z</time></trkpt><trkpt lat="42.20255" lon="14.2193967"><ele>462.0</ele><time>2026-05-01T13:29:41.986Z</time></trkpt><trkpt lat="42.2024983" lon="14.2193283"><ele>462.0</ele><time>2026-05-01T13:29:42.986Z</time></trkpt><trkpt lat="42.2024417" lon="14.2192617"><ele>462.0</ele><time>2026-05-01T13:29:43.986Z</time></trkpt><trkpt lat="42.20238" lon="14.2191967"><ele>462.0</ele><time>2026-05-01T13:29:44.985Z</time></trkpt><trkpt lat="42.2023283" lon="14.21914"><ele>462.0</ele><time>2026-05-01T13:29:45.985Z</time></trkpt><trkpt lat="42.202275" lon="14.2190817"><ele>462.0</ele><time>2026-05-01T13:29:46.986Z</time></trkpt><trkpt lat="42.2022183" lon="14.2190267"><ele>462.0</ele><time>2026-05-01T13:29:47.986Z</time></trkpt><trkpt lat="42.202155" lon="14.21897"><ele>462.0</ele><time>2026-05-01T13:29:48.986Z</time></trkpt><trkpt lat="42.202075" lon="14.218905"><ele>463.0</ele><time>2026-05-01T13:29:49.986Z</time></trkpt><trkpt lat="42.2019833" lon="14.2188267"><ele>464.00000000000006</ele><time>2026-05-01T13:29:50.986Z</time></trkpt><trkpt lat="42.2018833" lon="14.2187467"><ele>465.00000000000006</ele><time>2026-05-01T13:29:51.985Z</time></trkpt><trkpt lat="42.20178" lon="14.2186683"><ele>466.0</ele><time>2026-05-01T13:29:52.986Z</time></trkpt><trkpt lat="42.2016883" lon="14.2186033"><ele>467.0</ele><time>2026-05-01T13:29:53.986Z</time></trkpt><trkpt lat="42.201585" lon="14.2185533"><ele>469.20000000000005</ele><time>2026-05-01T13:29:54.986Z</time></trkpt><trkpt lat="42.20149" lon="14.2184867"><ele>471.40000000000003</ele><time>2026-05-01T13:29:55.986Z</time></trkpt><trkpt lat="42.20139" lon="14.2184333"><ele>473.59999999999997</ele><time>2026-05-01T13:29:56.986Z</time></trkpt><trkpt lat="42.2012867" lon="14.2183833"><ele>475.79999999999995</ele><time>2026-05-01T13:29:57.986Z</time></trkpt><trkpt lat="42.2011833" lon="14.2183383"><ele>478.0</ele><time>2026-05-01T13:29:58.986Z</time></trkpt><trkpt lat="42.2010867" lon="14.2183"><ele>478.00000000000006</ele><time>2026-05-01T13:29:59.986Z</time></trkpt><trkpt lat="42.2009917" lon="14.21827"><ele>478.0</ele><time>2026-05-01T13:30:00.986Z</time></trkpt><trkpt lat="42.2009067" lon="14.21825"><ele>478.0</ele><time>2026-05-01T13:30:01.986Z</time></trkpt><trkpt lat="42.20082" lon="14.2182383"><ele>478.0</ele><time>2026-05-01T13:30:02.986Z</time></trkpt><trkpt lat="42.2007383" lon="14.218225"><ele>478.00000000000006</ele><time>2026-05-01T13:30:03.985Z</time></trkpt><trkpt lat="42.2006633" lon="14.2182183"><ele>478.0</ele><time>2026-05-01T13:30:04.985Z</time></trkpt><trkpt lat="42.2005917" lon="14.2181617"><ele>478.00000000000006</ele><time>2026-05-01T13:30:06.986Z</time></trkpt><trkpt lat="42.2006633" lon="14.2180933"><ele>478.0</ele><time>2026-05-01T13:30:09.986Z</time></trkpt><trkpt lat="42.2007283" lon="14.218085"><ele>478.0</ele><time>2026-05-01T13:30:10.985Z</time></trkpt><trkpt lat="42.200805" lon="14.21808"><ele>478.0</ele><time>2026-05-01T13:30:11.986Z</time></trkpt><trkpt lat="42.2009" lon="14.218075"><ele>478.00000000000006</ele><time>2026-05-01T13:30:12.985Z</time></trkpt><trkpt lat="42.201" lon="14.218055"><ele>478.0</ele><time>2026-05-01T13:30:13.986Z</time></trkpt><trkpt lat="42.2011167" lon="14.2180283"><ele>477.25</ele><time>2026-05-01T13:30:14.985Z</time></trkpt><trkpt lat="42.2012367" lon="14.2180067"><ele>476.5</ele><time>2026-05-01T13:30:15.986Z</time></trkpt><trkpt lat="42.201355" lon="14.2179917"><ele>475.75</ele><time>2026-05-01T13:30:16.986Z</time></trkpt><trkpt lat="42.20147" lon="14.2179767"><ele>475.0</ele><time>2026-05-01T13:30:17.986Z</time></trkpt><trkpt lat="42.2015833" lon="14.2179667"><ele>474.25</ele><time>2026-05-01T13:30:18.985Z</time></trkpt><trkpt lat="42.2016917" lon="14.21797"><ele>473.5</ele><time>2026-05-01T13:30:19.986Z</time></trkpt><trkpt lat="42.201805" lon="14.2179783"><ele>472.75</ele><time>2026-05-01T13:30:20.986Z</time></trkpt><trkpt lat="42.2019133" lon="14.2179967"><ele>472.0</ele><time>2026-05-01T13:30:21.986Z</time></trkpt><trkpt lat="42.2020367" lon="14.2180317"><ele>472.0</ele><time>2026-05-01T13:30:22.985Z</time></trkpt><trkpt lat="42.2021683" lon="14.21806"><ele>472.0</ele><time>2026-05-01T13:30:23.986Z</time></trkpt><trkpt lat="42.2023167" lon="14.2180733"><ele>472.0</ele><time>2026-05-01T13:30:24.985Z</time></trkpt><trkpt lat="42.20245" lon="14.218095"><ele>472.0</ele><time>2026-05-01T13:30:25.985Z</time></trkpt><trkpt lat="42.20257" lon="14.21809"><ele>471.40000000000003</ele><time>2026-05-01T13:30:26.986Z</time></trkpt><trkpt lat="42.2026833" lon="14.2180767"><ele>470.80000000000007</ele><time>2026-05-01T13:30:27.986Z</time></trkpt><trkpt lat="42.202795" lon="14.2180533"><ele>470.2</ele><time>2026-05-01T13:30:28.986Z</time></trkpt><trkpt lat="42.2029033" lon="14.2180383"><ele>469.6</ele><time>2026-05-01T13:30:29.986Z</time></trkpt><trkpt lat="42.203005" lon="14.2180217"><ele>469.0</ele><time>2026-05-01T13:30:30.985Z</time></trkpt><trkpt lat="42.2031" lon="14.218"><ele>467.2</ele><time>2026-05-01T13:30:31.986Z</time></trkpt><trkpt lat="42.20319" lon="14.2179483"><ele>465.4</ele><time>2026-05-01T13:30:32.986Z</time></trkpt><trkpt lat="42.2032733" lon="14.2178667"><ele>463.6</ele><time>2026-05-01T13:30:33.986Z</time></trkpt><trkpt lat="42.20337" lon="14.217775"><ele>461.8</ele><time>2026-05-01T13:30:34.985Z</time></trkpt><trkpt lat="42.2034717" lon="14.217685"><ele>460.0</ele><time>2026-05-01T13:30:35.985Z</time></trkpt><trkpt lat="42.2035783" lon="14.2175867"><ele>460.0</ele><time>2026-05-01T13:30:36.986Z</time></trkpt><trkpt lat="42.2036867" lon="14.2174967"><ele>460.0</ele><time>2026-05-01T13:30:37.986Z</time></trkpt><trkpt lat="42.2037783" lon="14.217415"><ele>460.0</ele><time>2026-05-01T13:30:38.986Z</time></trkpt><trkpt lat="42.2038633" lon="14.2173467"><ele>460.0</ele><time>2026-05-01T13:30:39.985Z</time></trkpt><trkpt lat="42.2039417" lon="14.2173"><ele>460.0</ele><time>2026-05-01T13:30:40.985Z</time></trkpt><trkpt lat="42.2040267" lon="14.2172883"><ele>460.6</ele><time>2026-05-01T13:30:41.986Z</time></trkpt><trkpt lat="42.2041217" lon="14.2173017"><ele>461.2</ele><time>2026-05-01T13:30:42.986Z</time></trkpt><trkpt lat="42.20421" lon="14.2173133"><ele>461.79999999999995</ele><time>2026-05-01T13:30:43.986Z</time></trkpt><trkpt lat="42.2043017" lon="14.2173067"><ele>462.4</ele><time>2026-05-01T13:30:44.985Z</time></trkpt><trkpt lat="42.2043967" lon="14.21729"><ele>463.0</ele><time>2026-05-01T13:30:45.986Z</time></trkpt><trkpt lat="42.2045017" lon="14.2172667"><ele>463.00000000000006</ele><time>2026-05-01T13:30:46.985Z</time></trkpt><trkpt lat="42.20461" lon="14.2172333"><ele>463.0</ele><time>2026-05-01T13:30:47.986Z</time></trkpt><trkpt lat="42.2047067" lon="14.217195"><ele>463.0</ele><time>2026-05-01T13:30:48.985Z</time></trkpt><trkpt lat="42.204785" lon="14.2171683"><ele>463.0</ele><time>2026-05-01T13:30:49.986Z</time></trkpt><trkpt lat="42.2048483" lon="14.2171417"><ele>463.00000000000006</ele><time>2026-05-01T13:30:50.986Z</time></trkpt><trkpt lat="42.20491" lon="14.21712"><ele>463.0</ele><time>2026-05-01T13:30:51.986Z</time></trkpt><trkpt lat="42.2049717" lon="14.21709"><ele>462.33333333333337</ele><time>2026-05-01T13:30:52.985Z</time></trkpt><trkpt lat="42.2050367" lon="14.2170583"><ele>461.6666666666667</ele><time>2026-05-01T13:30:53.986Z</time></trkpt><trkpt lat="42.2051017" lon="14.217025"><ele>461.0</ele><time>2026-05-01T13:30:54.985Z</time></trkpt><trkpt lat="42.2051733" lon="14.2169983"><ele>460.33333333333337</ele><time>2026-05-01T13:30:55.986Z</time></trkpt><trkpt lat="42.2052533" lon="14.2169667"><ele>459.6666666666667</ele><time>2026-05-01T13:30:56.986Z</time></trkpt><trkpt lat="42.2053383" lon="14.216945"><ele>459.0</ele><time>2026-05-01T13:30:57.985Z</time></trkpt><trkpt lat="42.2054283" lon="14.2169233"><ele>459.0</ele><time>2026-05-01T13:30:58.986Z</time></trkpt><trkpt lat="42.20552" lon="14.2169"><ele>459.0</ele><time>2026-05-01T13:30:59.986Z</time></trkpt><trkpt lat="42.20561" lon="14.2168683"><ele>459.0</ele><time>2026-05-01T13:31:00.986Z</time></trkpt><trkpt lat="42.2056867" lon="14.2168483"><ele>459.0</ele><time>2026-05-01T13:31:01.985Z</time></trkpt><trkpt lat="42.2058033" lon="14.2168117"><ele>459.0</ele><time>2026-05-01T13:31:03.986Z</time></trkpt><trkpt lat="42.2058917" lon="14.216765"><ele>457.3333333333333</ele><time>2026-05-01T13:31:05.986Z</time></trkpt><trkpt lat="42.206" lon="14.21671"><ele>455.66666666666663</ele><time>2026-05-01T13:31:07.986Z</time></trkpt><trkpt lat="42.206065" lon="14.2166833"><ele>454.0</ele><time>2026-05-01T13:31:08.986Z</time></trkpt><trkpt lat="42.2061367" lon="14.2166617"><ele>452.3333333333333</ele><time>2026-05-01T13:31:09.986Z</time></trkpt><trkpt lat="42.206205" lon="14.2166517"><ele>450.66666666666663</ele><time>2026-05-01T13:31:10.986Z</time></trkpt><trkpt lat="42.2062767" lon="14.2166417"><ele>449.0</ele><time>2026-05-01T13:31:11.985Z</time></trkpt><trkpt lat="42.2063917" lon="14.2166383"><ele>448.99999999999994</ele><time>2026-05-01T13:31:13.986Z</time></trkpt><trkpt lat="42.2064583" lon="14.2166517"><ele>449.0</ele><time>2026-05-01T13:31:15.986Z</time></trkpt><trkpt lat="42.206345" lon="14.2166417"><ele>449.0</ele><time>2026-05-01T13:31:22.985Z</time></trkpt><trkpt lat="42.2062733" lon="14.2166517"><ele>449.0</ele><time>2026-05-01T13:31:23.985Z</time></trkpt><trkpt lat="42.2061917" lon="14.21667"><ele>448.99999999999994</ele><time>2026-05-01T13:31:24.985Z</time></trkpt><trkpt lat="42.2060917" lon="14.2167033"><ele>449.0</ele><time>2026-05-01T13:31:25.985Z</time></trkpt><trkpt lat="42.2059883" lon="14.2167433"><ele>448.99999999999994</ele><time>2026-05-01T13:31:26.985Z</time></trkpt><trkpt lat="42.2058933" lon="14.2167867"><ele>449.0</ele><time>2026-05-01T13:31:27.984Z</time></trkpt><trkpt lat="42.20581" lon="14.2168233"><ele>449.0</ele><time>2026-05-01T13:31:28.985Z</time></trkpt><trkpt lat="42.2057333" lon="14.2168583"><ele>449.0</ele><time>2026-05-01T13:31:29.985Z</time></trkpt><trkpt lat="42.2056683" lon="14.2168767"><ele>448.99999999999994</ele><time>2026-05-01T13:31:30.985Z</time></trkpt><trkpt lat="42.2055883" lon="14.216905"><ele>449.0</ele><time>2026-05-01T13:31:32.985Z</time></trkpt><trkpt lat="42.2055717" lon="14.2169983"><ele>448.99999999999994</ele><time>2026-05-01T13:31:35.985Z</time></trkpt><trkpt lat="42.2056333" lon="14.2171283"><ele>449.0</ele><time>2026-05-01T13:31:37.985Z</time></trkpt><trkpt lat="42.2056683" lon="14.2172083"><ele>449.0</ele><time>2026-05-01T13:31:38.985Z</time></trkpt><trkpt lat="42.2057033" lon="14.21729"><ele>449.0</ele><time>2026-05-01T13:31:39.985Z</time></trkpt><trkpt lat="42.2057717" lon="14.2174283"><ele>448.99999999999994</ele><time>2026-05-01T13:31:41.984Z</time></trkpt><trkpt lat="42.205805" lon="14.2175017"><ele>449.0</ele><time>2026-05-01T13:31:42.985Z</time></trkpt><trkpt lat="42.205845" lon="14.2175733"><ele>448.16666666666663</ele><time>2026-05-01T13:31:43.985Z</time></trkpt><trkpt lat="42.2058817" lon="14.217655"><ele>447.3333333333333</ele><time>2026-05-01T13:31:44.985Z</time></trkpt><trkpt lat="42.205925" lon="14.2177567"><ele>446.5</ele><time>2026-05-01T13:31:45.985Z</time></trkpt><trkpt lat="42.2059767" lon="14.2178633"><ele>445.66666666666663</ele><time>2026-05-01T13:31:46.985Z</time></trkpt><trkpt lat="42.206025" lon="14.2179733"><ele>444.8333333333333</ele><time>2026-05-01T13:31:47.984Z</time></trkpt><trkpt lat="42.206075" lon="14.218075"><ele>444.0</ele><time>2026-05-01T13:31:48.985Z</time></trkpt><trkpt lat="42.2061317" lon="14.218155"><ele>443.0</ele><time>2026-05-01T13:31:49.985Z</time></trkpt><trkpt lat="42.20619" lon="14.2182317"><ele>442.0</ele><time>2026-05-01T13:31:50.985Z</time></trkpt><trkpt lat="42.206255" lon="14.2183083"><ele>441.0</ele><time>2026-05-01T13:31:51.985Z</time></trkpt><trkpt lat="42.20633" lon="14.218375"><ele>440.0</ele><time>2026-05-01T13:31:52.985Z</time></trkpt><trkpt lat="42.206415" lon="14.218435"><ele>439.0</ele><time>2026-05-01T13:31:53.985Z</time></trkpt><trkpt lat="42.2064983" lon="14.2184933"><ele>438.0</ele><time>2026-05-01T13:31:54.985Z</time></trkpt><trkpt lat="42.2065767" lon="14.2185483"><ele>436.8333333333333</ele><time>2026-05-01T13:31:55.985Z</time></trkpt><trkpt lat="42.2066483" lon="14.2186017"><ele>435.66666666666663</ele><time>2026-05-01T13:31:56.984Z</time></trkpt><trkpt lat="42.2067033" lon="14.2186733"><ele>434.5</ele><time>2026-05-01T13:31:57.985Z</time></trkpt><trkpt lat="42.2067483" lon="14.2187583"><ele>433.3333333333333</ele><time>2026-05-01T13:31:58.985Z</time></trkpt><trkpt lat="42.2067967" lon="14.2188583"><ele>432.16666666666663</ele><time>2026-05-01T13:31:59.985Z</time></trkpt><trkpt lat="42.206845" lon="14.2189533"><ele>431.0</ele><time>2026-05-01T13:32:00.985Z</time></trkpt><trkpt lat="42.2068967" lon="14.2190567"><ele>430.4</ele><time>2026-05-01T13:32:01.985Z</time></trkpt><trkpt lat="42.20695" lon="14.2191683"><ele>429.8</ele><time>2026-05-01T13:32:02.985Z</time></trkpt><trkpt lat="42.2069933" lon="14.21929"><ele>429.19999999999993</ele><time>2026-05-01T13:32:03.985Z</time></trkpt><trkpt lat="42.2070433" lon="14.2194067"><ele>428.59999999999997</ele><time>2026-05-01T13:32:04.984Z</time></trkpt><trkpt lat="42.2070917" lon="14.2195167"><ele>428.0</ele><time>2026-05-01T13:32:05.985Z</time></trkpt><trkpt lat="42.2071333" lon="14.21962"><ele>427.99999999999994</ele><time>2026-05-01T13:32:06.985Z</time></trkpt><trkpt lat="42.2071783" lon="14.21972"><ele>428.0</ele><time>2026-05-01T13:32:07.985Z</time></trkpt><trkpt lat="42.2072367" lon="14.2198067"><ele>428.0</ele><time>2026-05-01T13:32:08.985Z</time></trkpt><trkpt lat="42.207305" lon="14.219875"><ele>428.0</ele><time>2026-05-01T13:32:09.985Z</time></trkpt><trkpt lat="42.2073667" lon="14.2199367"><ele>427.99999999999994</ele><time>2026-05-01T13:32:10.984Z</time></trkpt><trkpt lat="42.2074317" lon="14.2199633"><ele>428.0</ele><time>2026-05-01T13:32:11.984Z</time></trkpt><trkpt lat="42.20754" lon="14.2199783"><ele>426.3333333333333</ele><time>2026-05-01T13:32:13.985Z</time></trkpt><trkpt lat="42.2076083" lon="14.2199783"><ele>424.66666666666663</ele><time>2026-05-01T13:32:14.985Z</time></trkpt><trkpt lat="42.2077033" lon="14.2199867"><ele>423.0</ele><time>2026-05-01T13:32:16.985Z</time></trkpt><trkpt lat="42.2077733" lon="14.220015"><ele>421.33333333333337</ele><time>2026-05-01T13:32:18.985Z</time></trkpt><trkpt lat="42.2078017" lon="14.220115"><ele>419.6666666666667</ele><time>2026-05-01T13:32:21.984Z</time></trkpt><trkpt lat="42.2078417" lon="14.220195"><ele>418.0</ele><time>2026-05-01T13:32:28.985Z</time></trkpt><trkpt lat="42.20797" lon="14.2201817"><ele>418.00000000000006</ele><time>2026-05-01T13:32:45.984Z</time></trkpt><trkpt lat="42.2080567" lon="14.22021"><ele>418.0</ele><time>2026-05-01T13:32:48.985Z</time></trkpt><trkpt lat="42.2081033" lon="14.2203017"><ele>418.0</ele><time>2026-05-01T13:32:50.985Z</time></trkpt><trkpt lat="42.2081417" lon="14.22038"><ele>418.0</ele><time>2026-05-01T13:32:52.985Z</time></trkpt><trkpt lat="42.20822" lon="14.2203767"><ele>418.00000000000006</ele><time>2026-05-01T13:32:55.985Z</time></trkpt><trkpt lat="42.208315" lon="14.2203383"><ele>418.0</ele><time>2026-05-01T13:32:57.985Z</time></trkpt><trkpt lat="42.2084183" lon="14.22029"><ele>416.0</ele><time>2026-05-01T13:32:59.985Z</time></trkpt><trkpt lat="42.208515" lon="14.220225"><ele>414.0</ele><time>2026-05-01T13:33:01.984Z</time></trkpt><trkpt lat="42.2086017" lon="14.2201433"><ele>412.0</ele><time>2026-05-01T13:33:03.985Z</time></trkpt><trkpt lat="42.20867" lon="14.2200617"><ele>410.0</ele><time>2026-05-01T13:33:05.985Z</time></trkpt><trkpt lat="42.2087433" lon="14.2199983"><ele>408.0</ele><time>2026-05-01T13:33:07.985Z</time></trkpt><trkpt lat="42.2088167" lon="14.2199367"><ele>408.0</ele><time>2026-05-01T13:33:09.984Z</time></trkpt><trkpt lat="42.2089117" lon="14.2199217"><ele>408.0</ele><time>2026-05-01T13:33:11.985Z</time></trkpt><trkpt lat="42.209005" lon="14.219925"><ele>408.0</ele><time>2026-05-01T13:33:13.984Z</time></trkpt><trkpt lat="42.2091067" lon="14.219965"><ele>408.0</ele><time>2026-05-01T13:33:15.985Z</time></trkpt><trkpt lat="42.20921" lon="14.22001"><ele>408.0</ele><time>2026-05-01T13:33:17.984Z</time></trkpt><trkpt lat="42.2093067" lon="14.2200417"><ele>405.79999999999995</ele><time>2026-05-01T13:33:19.985Z</time></trkpt><trkpt lat="42.209395" lon="14.22006"><ele>403.6</ele><time>2026-05-01T13:33:21.984Z</time></trkpt><trkpt lat="42.20948" lon="14.2200667"><ele>401.4</ele><time>2026-05-01T13:33:23.985Z</time></trkpt><trkpt lat="42.20957" lon="14.2200117"><ele>399.20000000000005</ele><time>2026-05-01T13:33:25.985Z</time></trkpt><trkpt lat="42.2096483" lon="14.2198983"><ele>397.0</ele><time>2026-05-01T13:33:27.985Z</time></trkpt><trkpt lat="42.2097133" lon="14.2197583"><ele>397.0</ele><time>2026-05-01T13:33:29.984Z</time></trkpt><trkpt lat="42.2097483" lon="14.219605"><ele>397.0</ele><time>2026-05-01T13:33:31.985Z</time></trkpt><trkpt lat="42.2097533" lon="14.219465"><ele>397.0</ele><time>2026-05-01T13:33:33.985Z</time></trkpt><trkpt lat="42.20978" lon="14.219365"><ele>397.0</ele><time>2026-05-01T13:33:36.985Z</time></trkpt><trkpt lat="42.209845" lon="14.2194183"><ele>397.0</ele><time>2026-05-01T13:33:40.985Z</time></trkpt><trkpt lat="42.2098417" lon="14.219595"><ele>397.0</ele><time>2026-05-01T13:33:42.984Z</time></trkpt><trkpt lat="42.2098383" lon="14.2196983"><ele>397.0</ele><time>2026-05-01T13:33:43.985Z</time></trkpt><trkpt lat="42.2098417" lon="14.2198083"><ele>397.0</ele><time>2026-05-01T13:33:44.984Z</time></trkpt><trkpt lat="42.2098333" lon="14.2199333"><ele>397.0</ele><time>2026-05-01T13:33:45.984Z</time></trkpt><trkpt lat="42.209825" lon="14.220085"><ele>397.0</ele><time>2026-05-01T13:33:46.985Z</time></trkpt><trkpt lat="42.2098083" lon="14.2202483"><ele>397.0</ele><time>2026-05-01T13:33:47.985Z</time></trkpt><trkpt lat="42.2098083" lon="14.2204"><ele>397.0</ele><time>2026-05-01T13:33:48.984Z</time></trkpt><trkpt lat="42.2098167" lon="14.2205333"><ele>397.0</ele><time>2026-05-01T13:33:49.984Z</time></trkpt><trkpt lat="42.2098167" lon="14.2206233"><ele>397.0</ele><time>2026-05-01T13:33:50.985Z</time></trkpt><trkpt lat="42.209855" lon="14.2207483"><ele>397.0</ele><time>2026-05-01T13:33:52.985Z</time></trkpt><trkpt lat="42.209935" lon="14.2207967"><ele>395.83333333333337</ele><time>2026-05-01T13:33:55.985Z</time></trkpt><trkpt lat="42.2100167" lon="14.2207567"><ele>394.6666666666667</ele><time>2026-05-01T13:33:57.985Z</time></trkpt><trkpt lat="42.2101033" lon="14.2207317"><ele>393.5</ele><time>2026-05-01T13:33:59.984Z</time></trkpt><trkpt lat="42.2101767" lon="14.2207233"><ele>392.33333333333337</ele><time>2026-05-01T13:34:01.985Z</time></trkpt><trkpt lat="42.210245" lon="14.2207167"><ele>391.1666666666667</ele><time>2026-05-01T13:34:03.985Z</time></trkpt><trkpt lat="42.2103283" lon="14.2207417"><ele>390.0</ele><time>2026-05-01T13:34:06.985Z</time></trkpt><trkpt lat="42.2103817" lon="14.2208233"><ele>390.0</ele><time>2026-05-01T13:34:08.984Z</time></trkpt><trkpt lat="42.2104433" lon="14.22087"><ele>390.0</ele><time>2026-05-01T13:34:10.985Z</time></trkpt><trkpt lat="42.2105333" lon="14.2208617"><ele>390.0</ele><time>2026-05-01T13:34:12.985Z</time></trkpt><trkpt lat="42.2106" lon="14.220855"><ele>390.0</ele><time>2026-05-01T13:34:13.983Z</time></trkpt><trkpt lat="42.2106667" lon="14.22084"><ele>390.0</ele><time>2026-05-01T13:34:14.984Z</time></trkpt><trkpt lat="42.21078" lon="14.2208183"><ele>390.0</ele><time>2026-05-01T13:34:16.984Z</time></trkpt><trkpt lat="42.2108917" lon="14.2207883"><ele>388.5</ele><time>2026-05-01T13:34:18.984Z</time></trkpt><trkpt lat="42.2110033" lon="14.2207683"><ele>387.0</ele><time>2026-05-01T13:34:20.983Z</time></trkpt><trkpt lat="42.2111183" lon="14.220745"><ele>385.5</ele><time>2026-05-01T13:34:22.984Z</time></trkpt><trkpt lat="42.2112317" lon="14.22072"><ele>384.0</ele><time>2026-05-01T13:34:24.984Z</time></trkpt><trkpt lat="42.2113383" lon="14.2206967"><ele>384.0</ele><time>2026-05-01T13:34:26.983Z</time></trkpt><trkpt lat="42.2114467" lon="14.2206733"><ele>384.0</ele><time>2026-05-01T13:34:28.984Z</time></trkpt><trkpt lat="42.211545" lon="14.2206333"><ele>384.0</ele><time>2026-05-01T13:34:30.984Z</time></trkpt><trkpt lat="42.2116517" lon="14.22061"><ele>384.0</ele><time>2026-05-01T13:34:32.983Z</time></trkpt><trkpt lat="42.21175" lon="14.2205917"><ele>384.0</ele><time>2026-05-01T13:34:34.984Z</time></trkpt><trkpt lat="42.2118433" lon="14.220555"><ele>381.2</ele><time>2026-05-01T13:34:36.983Z</time></trkpt><trkpt lat="42.211905" lon="14.2205283"><ele>378.4</ele><time>2026-05-01T13:34:38.984Z</time></trkpt><trkpt lat="42.21197" lon="14.2204633"><ele>375.6</ele><time>2026-05-01T13:34:41.983Z</time></trkpt><trkpt lat="42.2120483" lon="14.2203117"><ele>372.8</ele><time>2026-05-01T13:34:55.984Z</time></trkpt><trkpt lat="42.2121483" lon="14.220245"><ele>370.0</ele><time>2026-05-01T13:35:23.984Z</time></trkpt><trkpt lat="42.212215" lon="14.2202233"><ele>370.0</ele><time>2026-05-01T13:35:26.984Z</time></trkpt><trkpt lat="42.21228" lon="14.220245"><ele>370.0</ele><time>2026-05-01T13:35:31.984Z</time></trkpt><trkpt lat="42.2122767" lon="14.22038"><ele>370.0</ele><time>2026-05-01T13:36:23.984Z</time></trkpt><trkpt lat="42.21228" lon="14.2204967"><ele>370.0</ele><time>2026-05-01T13:36:25.984Z</time></trkpt><trkpt lat="42.21231" lon="14.2206533"><ele>370.0</ele><time>2026-05-01T13:36:27.983Z</time></trkpt><trkpt lat="42.212345" lon="14.2207767"><ele>370.4</ele><time>2026-05-01T13:36:29.984Z</time></trkpt><trkpt lat="42.2124883" lon="14.2207433"><ele>370.8</ele><time>2026-05-01T13:36:38.984Z</time></trkpt><trkpt lat="42.2125767" lon="14.220705"><ele>371.20000000000005</ele><time>2026-05-01T13:36:40.984Z</time></trkpt><trkpt lat="42.2126533" lon="14.2206717"><ele>371.6</ele><time>2026-05-01T13:36:42.984Z</time></trkpt><trkpt lat="42.21273" lon="14.2206283"><ele>372.0</ele><time>2026-05-01T13:36:44.984Z</time></trkpt><trkpt lat="42.2128017" lon="14.22061"><ele>372.0</ele><time>2026-05-01T13:36:47.983Z</time></trkpt><trkpt lat="42.21288" lon="14.2205533"><ele>372.0</ele><time>2026-05-01T13:36:55.983Z</time></trkpt><trkpt lat="42.212955" lon="14.2205017"><ele>372.0</ele><time>2026-05-01T13:36:57.984Z</time></trkpt><trkpt lat="42.213025" lon="14.2204517"><ele>372.0</ele><time>2026-05-01T13:36:59.984Z</time></trkpt><trkpt lat="42.2131117" lon="14.2203833"><ele>372.0</ele><time>2026-05-01T13:37:06.983Z</time></trkpt><trkpt lat="42.213165" lon="14.22032"><ele>372.0</ele><time>2026-05-01T13:37:08.983Z</time></trkpt><trkpt lat="42.2132333" lon="14.22024"><ele>372.8</ele><time>2026-05-01T13:37:10.982Z</time></trkpt><trkpt lat="42.2133283" lon="14.2201767"><ele>373.6</ele><time>2026-05-01T13:37:12.983Z</time></trkpt><trkpt lat="42.21342" lon="14.2201017"><ele>374.40000000000003</ele><time>2026-05-01T13:37:14.983Z</time></trkpt><trkpt lat="42.213495" lon="14.22002"><ele>375.20000000000005</ele><time>2026-05-01T13:37:16.983Z</time></trkpt><trkpt lat="42.213575" lon="14.21994"><ele>376.0</ele><time>2026-05-01T13:37:18.983Z</time></trkpt><trkpt lat="42.213665" lon="14.21986"><ele>374.5</ele><time>2026-05-01T13:37:20.983Z</time></trkpt><trkpt lat="42.2137433" lon="14.219775"><ele>373.0</ele><time>2026-05-01T13:37:22.983Z</time></trkpt><trkpt lat="42.213815" lon="14.2197"><ele>371.5</ele><time>2026-05-01T13:37:24.983Z</time></trkpt><trkpt lat="42.2138883" lon="14.2196233"><ele>370.0</ele><time>2026-05-01T13:37:26.983Z</time></trkpt><trkpt lat="42.2139467" lon="14.2195633"><ele>368.5</ele><time>2026-05-01T13:37:28.982Z</time></trkpt><trkpt lat="42.2140017" lon="14.21949"><ele>367.0</ele><time>2026-05-01T13:37:30.982Z</time></trkpt><trkpt lat="42.2140517" lon="14.219405"><ele>367.0</ele><time>2026-05-01T13:37:32.983Z</time></trkpt><trkpt lat="42.2140967" lon="14.2193083"><ele>367.0</ele><time>2026-05-01T13:37:34.983Z</time></trkpt><trkpt lat="42.21414" lon="14.21923"><ele>367.0</ele><time>2026-05-01T13:37:36.983Z</time></trkpt><trkpt lat="42.214175" lon="14.2191417"><ele>367.0</ele><time>2026-05-01T13:37:38.983Z</time></trkpt><trkpt lat="42.2142183" lon="14.2190567"><ele>367.0</ele><time>2026-05-01T13:37:40.983Z</time></trkpt><trkpt lat="42.2142617" lon="14.2189833"><ele>367.0</ele><time>2026-05-01T13:37:42.982Z</time></trkpt><trkpt lat="42.2143083" lon="14.2189067"><ele>364.0</ele><time>2026-05-01T13:37:44.982Z</time></trkpt><trkpt lat="42.21439" lon="14.218825"><ele>361.0</ele><time>2026-05-01T13:37:46.983Z</time></trkpt><trkpt lat="42.2144967" lon="14.2187383"><ele>358.0</ele><time>2026-05-01T13:37:48.983Z</time></trkpt><trkpt lat="42.2145567" lon="14.218675"><ele>355.0</ele><time>2026-05-01T13:37:49.983Z</time></trkpt><trkpt lat="42.2146117" lon="14.2186183"><ele>352.0</ele><time>2026-05-01T13:37:50.983Z</time></trkpt><trkpt lat="42.2146967" lon="14.2185067"><ele>352.0</ele><time>2026-05-01T13:37:52.982Z</time></trkpt><trkpt lat="42.214775" lon="14.2184167"><ele>352.0</ele><time>2026-05-01T13:37:54.983Z</time></trkpt><trkpt lat="42.21484" lon="14.2183317"><ele>352.0</ele><time>2026-05-01T13:37:56.982Z</time></trkpt><trkpt lat="42.2149" lon="14.2182483"><ele>352.0</ele><time>2026-05-01T13:37:58.983Z</time></trkpt><trkpt lat="42.2149917" lon="14.2181467"><ele>352.0</ele><time>2026-05-01T13:38:00.982Z</time></trkpt><trkpt lat="42.2150417" lon="14.2180917"><ele>351.20000000000005</ele><time>2026-05-01T13:38:01.983Z</time></trkpt><trkpt lat="42.2151433" lon="14.21801"><ele>350.4</ele><time>2026-05-01T13:38:03.983Z</time></trkpt><trkpt lat="42.21526" lon="14.2179383"><ele>349.6</ele><time>2026-05-01T13:38:05.983Z</time></trkpt><trkpt lat="42.21532" lon="14.217905"><ele>348.79999999999995</ele><time>2026-05-01T13:38:06.983Z</time></trkpt><trkpt lat="42.2153767" lon="14.2178667"><ele>348.0</ele><time>2026-05-01T13:38:07.983Z</time></trkpt><trkpt lat="42.2154883" lon="14.2177867"><ele>348.0</ele><time>2026-05-01T13:38:09.983Z</time></trkpt><trkpt lat="42.2155783" lon="14.2176933"><ele>348.0</ele><time>2026-05-01T13:38:11.982Z</time></trkpt><trkpt lat="42.2156517" lon="14.2176183"><ele>348.0</ele><time>2026-05-01T13:38:13.983Z</time></trkpt><trkpt lat="42.2157233" lon="14.2175467"><ele>348.0</ele><time>2026-05-01T13:38:15.983Z</time></trkpt><trkpt lat="42.2157917" lon="14.2174767"><ele>348.0</ele><time>2026-05-01T13:38:17.983Z</time></trkpt><trkpt lat="42.2158567" lon="14.2174067"><ele>348.6666666666667</ele><time>2026-05-01T13:38:19.983Z</time></trkpt><trkpt lat="42.2159333" lon="14.2173283"><ele>349.3333333333333</ele><time>2026-05-01T13:38:21.983Z</time></trkpt><trkpt lat="42.2160033" lon="14.2172633"><ele>350.0</ele><time>2026-05-01T13:38:23.983Z</time></trkpt><trkpt lat="42.21607" lon="14.2172033"><ele>350.66666666666663</ele><time>2026-05-01T13:38:25.982Z</time></trkpt><trkpt lat="42.216135" lon="14.2171367"><ele>351.3333333333333</ele><time>2026-05-01T13:38:27.982Z</time></trkpt><trkpt lat="42.2162067" lon="14.2170633"><ele>352.0</ele><time>2026-05-01T13:38:29.983Z</time></trkpt><trkpt lat="42.21628" lon="14.2170067"><ele>350.0</ele><time>2026-05-01T13:38:31.983Z</time></trkpt><trkpt lat="42.2163767" lon="14.21693"><ele>348.0</ele><time>2026-05-01T13:38:33.983Z</time></trkpt><trkpt lat="42.2164667" lon="14.216865"><ele>346.0</ele><time>2026-05-01T13:38:35.983Z</time></trkpt><trkpt lat="42.21655" lon="14.2168233"><ele>344.0</ele><time>2026-05-01T13:38:37.983Z</time></trkpt><trkpt lat="42.21663" lon="14.2167783"><ele>342.0</ele><time>2026-05-01T13:38:39.983Z</time></trkpt><trkpt lat="42.216705" lon="14.2167383"><ele>342.0</ele><time>2026-05-01T13:38:41.983Z</time></trkpt><trkpt lat="42.2167767" lon="14.216695"><ele>342.0</ele><time>2026-05-01T13:38:43.983Z</time></trkpt><trkpt lat="42.2168517" lon="14.2166467"><ele>342.0</ele><time>2026-05-01T13:38:45.983Z</time></trkpt><trkpt lat="42.2169217" lon="14.2165833"><ele>342.0</ele><time>2026-05-01T13:38:47.983Z</time></trkpt><trkpt lat="42.2170083" lon="14.216525"><ele>342.0</ele><time>2026-05-01T13:38:49.983Z</time></trkpt><trkpt lat="42.2171" lon="14.2164717"><ele>342.0</ele><time>2026-05-01T13:38:51.983Z</time></trkpt><trkpt lat="42.2171833" lon="14.2164217"><ele>341.20000000000005</ele><time>2026-05-01T13:38:53.983Z</time></trkpt><trkpt lat="42.2172783" lon="14.216355"><ele>340.4</ele><time>2026-05-01T13:38:55.983Z</time></trkpt><trkpt lat="42.2173917" lon="14.2162967"><ele>339.6</ele><time>2026-05-01T13:38:57.983Z</time></trkpt><trkpt lat="42.21749" lon="14.2162717"><ele>338.79999999999995</ele><time>2026-05-01T13:38:59.983Z</time></trkpt><trkpt lat="42.21757" lon="14.2163233"><ele>338.0</ele><time>2026-05-01T13:39:01.983Z</time></trkpt><trkpt lat="42.21762" lon="14.2164333"><ele>339.2</ele><time>2026-05-01T13:39:03.983Z</time></trkpt><trkpt lat="42.21767" lon="14.216545"><ele>340.4</ele><time>2026-05-01T13:39:05.983Z</time></trkpt><trkpt lat="42.217715" lon="14.2166367"><ele>341.59999999999997</ele><time>2026-05-01T13:39:07.983Z</time></trkpt><trkpt lat="42.217615" lon="14.2167383"><ele>342.79999999999995</ele><time>2026-05-01T13:39:12.983Z</time></trkpt><trkpt lat="42.2175167" lon="14.216795"><ele>344.0</ele><time>2026-05-01T13:39:14.983Z</time></trkpt><trkpt lat="42.2174733" lon="14.2168667"><ele>344.0</ele><time>2026-05-01T13:39:16.983Z</time></trkpt><trkpt lat="42.2175683" lon="14.2169217"><ele>344.0</ele><time>2026-05-01T13:39:19.982Z</time></trkpt><trkpt lat="42.2176333" lon="14.216925"><ele>344.0</ele><time>2026-05-01T13:39:20.983Z</time></trkpt><trkpt lat="42.2176983" lon="14.2169133"><ele>344.0</ele><time>2026-05-01T13:39:21.983Z</time></trkpt><trkpt lat="42.2177633" lon="14.216885"><ele>344.0</ele><time>2026-05-01T13:39:22.983Z</time></trkpt><trkpt lat="42.2178867" lon="14.2168783"><ele>344.0</ele><time>2026-05-01T13:39:24.983Z</time></trkpt><trkpt lat="42.21799" lon="14.2169133"><ele>344.0</ele><time>2026-05-01T13:39:26.983Z</time></trkpt><trkpt lat="42.21805" lon="14.216965"><ele>344.0</ele><time>2026-05-01T13:39:27.983Z</time></trkpt><trkpt lat="42.218115" lon="14.2170417"><ele>344.0</ele><time>2026-05-01T13:39:28.982Z</time></trkpt><trkpt lat="42.2181867" lon="14.2171183"><ele>344.0</ele><time>2026-05-01T13:39:29.982Z</time></trkpt><trkpt lat="42.21826" lon="14.21719"><ele>344.0</ele><time>2026-05-01T13:39:30.983Z</time></trkpt><trkpt lat="42.2183333" lon="14.217255"><ele>344.0</ele><time>2026-05-01T13:39:31.983Z</time></trkpt><trkpt lat="42.2184133" lon="14.2173133"><ele>347.1666666666667</ele><time>2026-05-01T13:39:32.982Z</time></trkpt><trkpt lat="42.218495" lon="14.217365"><ele>350.33333333333337</ele><time>2026-05-01T13:39:33.982Z</time></trkpt><trkpt lat="42.2185683" lon="14.2174183"><ele>353.5</ele><time>2026-05-01T13:39:34.982Z</time></trkpt><trkpt lat="42.21866" lon="14.2174983"><ele>356.6666666666667</ele><time>2026-05-01T13:39:36.983Z</time></trkpt><trkpt lat="42.21873" lon="14.217515"><ele>359.8333333333333</ele><time>2026-05-01T13:39:39.983Z</time></trkpt><trkpt lat="42.218665" lon="14.217435"><ele>363.0</ele><time>2026-05-01T13:39:49.983Z</time></trkpt><trkpt lat="42.2186017" lon="14.2173833"><ele>363.0</ele><time>2026-05-01T13:39:51.982Z</time></trkpt><trkpt lat="42.2185417" lon="14.2173283"><ele>363.0</ele><time>2026-05-01T13:39:53.982Z</time></trkpt><trkpt lat="42.2184733" lon="14.217285"><ele>363.0</ele><time>2026-05-01T13:39:56.982Z</time></trkpt><trkpt lat="42.2184017" lon="14.2172217"><ele>363.0</ele><time>2026-05-01T13:40:07.982Z</time></trkpt><trkpt lat="42.21841" lon="14.2170917"><ele>363.0</ele><time>2026-05-01T13:40:09.981Z</time></trkpt><trkpt lat="42.21844" lon="14.217015"><ele>363.0</ele><time>2026-05-01T13:40:10.981Z</time></trkpt><trkpt lat="42.2184917" lon="14.216935"><ele>359.79999999999995</ele><time>2026-05-01T13:40:11.981Z</time></trkpt><trkpt lat="42.218565" lon="14.216845"><ele>356.6</ele><time>2026-05-01T13:40:12.982Z</time></trkpt><trkpt lat="42.2186483" lon="14.216755"><ele>353.4</ele><time>2026-05-01T13:40:13.982Z</time></trkpt><trkpt lat="42.2187367" lon="14.2166667"><ele>350.20000000000005</ele><time>2026-05-01T13:40:14.982Z</time></trkpt><trkpt lat="42.2188267" lon="14.2165817"><ele>347.0</ele><time>2026-05-01T13:40:15.982Z</time></trkpt><trkpt lat="42.2189167" lon="14.2164933"><ele>345.8</ele><time>2026-05-01T13:40:16.982Z</time></trkpt><trkpt lat="42.219" lon="14.216395"><ele>344.6</ele><time>2026-05-01T13:40:17.982Z</time></trkpt><trkpt lat="42.2190783" lon="14.216295"><ele>343.40000000000003</ele><time>2026-05-01T13:40:18.982Z</time></trkpt><trkpt lat="42.219155" lon="14.216195"><ele>342.20000000000005</ele><time>2026-05-01T13:40:19.982Z</time></trkpt><trkpt lat="42.2192283" lon="14.2160883"><ele>341.0</ele><time>2026-05-01T13:40:20.982Z</time></trkpt><trkpt lat="42.2192967" lon="14.2159767"><ele>341.0</ele><time>2026-05-01T13:40:21.981Z</time></trkpt><trkpt lat="42.2193483" lon="14.2158567"><ele>341.0</ele><time>2026-05-01T13:40:22.982Z</time></trkpt><trkpt lat="42.2193967" lon="14.215725"><ele>341.0</ele><time>2026-05-01T13:40:23.982Z</time></trkpt><trkpt lat="42.2194417" lon="14.2155867"><ele>341.0</ele><time>2026-05-01T13:40:24.981Z</time></trkpt><trkpt lat="42.21949" lon="14.2154433"><ele>341.0</ele><time>2026-05-01T13:40:25.982Z</time></trkpt><trkpt lat="42.21954" lon="14.2152967"><ele>338.5</ele><time>2026-05-01T13:40:26.982Z</time></trkpt><trkpt lat="42.2196" lon="14.2151533"><ele>336.0</ele><time>2026-05-01T13:40:27.982Z</time></trkpt><trkpt lat="42.2196717" lon="14.2150117"><ele>333.5</ele><time>2026-05-01T13:40:28.982Z</time></trkpt><trkpt lat="42.2197417" lon="14.2148717"><ele>331.0</ele><time>2026-05-01T13:40:29.982Z</time></trkpt><trkpt lat="42.2198183" lon="14.2147217"><ele>330.20000000000005</ele><time>2026-05-01T13:40:30.982Z</time></trkpt><trkpt lat="42.21989" lon="14.2145717"><ele>329.40000000000003</ele><time>2026-05-01T13:40:31.982Z</time></trkpt><trkpt lat="42.21995" lon="14.214425"><ele>328.6</ele><time>2026-05-01T13:40:32.982Z</time></trkpt><trkpt lat="42.2199933" lon="14.2143083"><ele>327.8</ele><time>2026-05-01T13:40:33.982Z</time></trkpt><trkpt lat="42.2200233" lon="14.2142183"><ele>327.0</ele><time>2026-05-01T13:40:34.981Z</time></trkpt><trkpt lat="42.2200467" lon="14.2140767"><ele>326.6666666666667</ele><time>2026-05-01T13:40:36.982Z</time></trkpt><trkpt lat="42.2200283" lon="14.2139717"><ele>326.3333333333333</ele><time>2026-05-01T13:40:38.981Z</time></trkpt><trkpt lat="42.2199733" lon="14.2138633"><ele>326.0</ele><time>2026-05-01T13:40:49.982Z</time></trkpt><trkpt lat="42.2199067" lon="14.21374"><ele>325.66666666666663</ele><time>2026-05-01T13:40:51.981Z</time></trkpt><trkpt lat="42.2198533" lon="14.2136683"><ele>325.3333333333333</ele><time>2026-05-01T13:40:52.982Z</time></trkpt><trkpt lat="42.2198" lon="14.2136117"><ele>325.0</ele><time>2026-05-01T13:40:53.982Z</time></trkpt><trkpt lat="42.219735" lon="14.2135683"><ele>325.0</ele><time>2026-05-01T13:40:54.982Z</time></trkpt><trkpt lat="42.21966" lon="14.2135417"><ele>325.0</ele><time>2026-05-01T13:40:55.981Z</time></trkpt><trkpt lat="42.2195867" lon="14.2135267"><ele>325.0</ele><time>2026-05-01T13:40:56.982Z</time></trkpt><trkpt lat="42.2195183" lon="14.2135167"><ele>325.0</ele><time>2026-05-01T13:40:57.982Z</time></trkpt><trkpt lat="42.2193983" lon="14.2134983"><ele>325.0</ele><time>2026-05-01T13:40:59.981Z</time></trkpt><trkpt lat="42.2192767" lon="14.2134917"><ele>325.0</ele><time>2026-05-01T13:41:01.982Z</time></trkpt><trkpt lat="42.21921" lon="14.2134867"><ele>325.0</ele><time>2026-05-01T13:41:02.982Z</time></trkpt><trkpt lat="42.2190883" lon="14.21351"><ele>325.0</ele><time>2026-05-01T13:41:04.982Z</time></trkpt><trkpt lat="42.21912" lon="14.213585"><ele>325.0</ele><time>2026-05-01T13:41:07.982Z</time></trkpt><trkpt lat="42.219245" lon="14.2135567"><ele>325.0</ele><time>2026-05-01T13:41:10.982Z</time></trkpt><trkpt lat="42.2194133" lon="14.2135633"><ele>325.0</ele><time>2026-05-01T13:41:11.982Z</time></trkpt><trkpt lat="42.2195433" lon="14.2135883"><ele>325.0</ele><time>2026-05-01T13:41:12.981Z</time></trkpt><trkpt lat="42.2196733" lon="14.213625"><ele>325.0</ele><time>2026-05-01T13:41:13.982Z</time></trkpt><trkpt lat="42.2197933" lon="14.2136883"><ele>325.0</ele><time>2026-05-01T13:41:14.982Z</time></trkpt><trkpt lat="42.21987" lon="14.21379"><ele>325.3333333333333</ele><time>2026-05-01T13:41:15.982Z</time></trkpt><trkpt lat="42.2199083" lon="14.213885"><ele>325.66666666666663</ele><time>2026-05-01T13:41:16.981Z</time></trkpt><trkpt lat="42.2199483" lon="14.2140117"><ele>326.0</ele><time>2026-05-01T13:41:18.981Z</time></trkpt><trkpt lat="42.2200083" lon="14.214045"><ele>326.3333333333333</ele><time>2026-05-01T13:41:20.982Z</time></trkpt><trkpt lat="42.2201017" lon="14.2139617"><ele>326.6666666666667</ele><time>2026-05-01T13:41:22.982Z</time></trkpt><trkpt lat="42.2201333" lon="14.2138833"><ele>327.0</ele><time>2026-05-01T13:41:23.982Z</time></trkpt><trkpt lat="42.2201617" lon="14.2137817"><ele>326.0</ele><time>2026-05-01T13:41:25.982Z</time></trkpt><trkpt lat="42.2201167" lon="14.2136983"><ele>325.0</ele><time>2026-05-01T13:41:30.981Z</time></trkpt><trkpt lat="42.2199967" lon="14.2136317"><ele>324.0</ele><time>2026-05-01T13:41:32.982Z</time></trkpt><trkpt lat="42.219925" lon="14.2135983"><ele>323.0</ele><time>2026-05-01T13:41:33.982Z</time></trkpt><trkpt lat="42.2198767" lon="14.21352"><ele>322.0</ele><time>2026-05-01T13:41:35.982Z</time></trkpt><trkpt lat="42.2198917" lon="14.2134017"><ele>321.0</ele><time>2026-05-01T13:41:37.981Z</time></trkpt><trkpt lat="42.2199717" lon="14.213265"><ele>321.0</ele><time>2026-05-01T13:41:39.982Z</time></trkpt><trkpt lat="42.220025" lon="14.2131817"><ele>321.0</ele><time>2026-05-01T13:41:40.981Z</time></trkpt><trkpt lat="42.2200783" lon="14.2131017"><ele>321.0</ele><time>2026-05-01T13:41:41.981Z</time></trkpt><trkpt lat="42.2201267" lon="14.2130283"><ele>321.0</ele><time>2026-05-01T13:41:42.982Z</time></trkpt><trkpt lat="42.2201883" lon="14.21295"><ele>321.0</ele><time>2026-05-01T13:41:43.982Z</time></trkpt><trkpt lat="42.2202467" lon="14.2128767"><ele>321.0</ele><time>2026-05-01T13:41:44.982Z</time></trkpt><trkpt lat="42.220315" lon="14.2127983"><ele>321.20000000000005</ele><time>2026-05-01T13:41:45.982Z</time></trkpt><trkpt lat="42.2203867" lon="14.21272"><ele>321.40000000000003</ele><time>2026-05-01T13:41:46.981Z</time></trkpt><trkpt lat="42.22046" lon="14.2126367"><ele>321.6</ele><time>2026-05-01T13:41:47.982Z</time></trkpt><trkpt lat="42.2205433" lon="14.2125333"><ele>321.8</ele><time>2026-05-01T13:41:48.982Z</time></trkpt><trkpt lat="42.2206317" lon="14.212425"><ele>322.0</ele><time>2026-05-01T13:41:49.982Z</time></trkpt><trkpt lat="42.2207183" lon="14.2123017"><ele>321.5</ele><time>2026-05-01T13:41:50.982Z</time></trkpt><trkpt lat="42.2208017" lon="14.2121883"><ele>321.0</ele><time>2026-05-01T13:41:51.982Z</time></trkpt><trkpt lat="42.22089" lon="14.2120733"><ele>320.5</ele><time>2026-05-01T13:41:52.982Z</time></trkpt><trkpt lat="42.2209933" lon="14.2119583"><ele>320.0</ele><time>2026-05-01T13:41:53.981Z</time></trkpt><trkpt lat="42.2211033" lon="14.211855"><ele>320.0</ele><time>2026-05-01T13:41:54.982Z</time></trkpt><trkpt lat="42.2212233" lon="14.2117733"><ele>320.0</ele><time>2026-05-01T13:41:55.982Z</time></trkpt><trkpt lat="42.2213383" lon="14.2116917"><ele>320.0</ele><time>2026-05-01T13:41:56.982Z</time></trkpt><trkpt lat="42.2214633" lon="14.21161"><ele>320.0</ele><time>2026-05-01T13:41:57.982Z</time></trkpt><trkpt lat="42.2215817" lon="14.21154"><ele>318.5</ele><time>2026-05-01T13:41:58.982Z</time></trkpt><trkpt lat="42.2217083" lon="14.211475"><ele>317.0</ele><time>2026-05-01T13:41:59.982Z</time></trkpt><trkpt lat="42.2218117" lon="14.2113967"><ele>315.5</ele><time>2026-05-01T13:42:00.982Z</time></trkpt><trkpt lat="42.2219083" lon="14.2113333"><ele>314.0</ele><time>2026-05-01T13:42:01.982Z</time></trkpt><trkpt lat="42.222" lon="14.211275"><ele>314.0</ele><time>2026-05-01T13:42:02.981Z</time></trkpt><trkpt lat="42.222075" lon="14.2112433"><ele>314.0</ele><time>2026-05-01T13:42:03.982Z</time></trkpt><trkpt lat="42.2221717" lon="14.2112167"><ele>314.0</ele><time>2026-05-01T13:42:04.982Z</time></trkpt><trkpt lat="42.2222767" lon="14.2111867"><ele>314.0</ele><time>2026-05-01T13:42:05.982Z</time></trkpt><trkpt lat="42.2223917" lon="14.2111483"><ele>314.0</ele><time>2026-05-01T13:42:06.981Z</time></trkpt><trkpt lat="42.222495" lon="14.2110983"><ele>313.2</ele><time>2026-05-01T13:42:07.981Z</time></trkpt><trkpt lat="42.2225883" lon="14.2110383"><ele>312.4</ele><time>2026-05-01T13:42:08.982Z</time></trkpt><trkpt lat="42.22268" lon="14.2109783"><ele>311.6</ele><time>2026-05-01T13:42:09.982Z</time></trkpt><trkpt lat="42.22276" lon="14.2109167"><ele>310.8</ele><time>2026-05-01T13:42:10.982Z</time></trkpt><trkpt lat="42.222835" lon="14.2108567"><ele>310.0</ele><time>2026-05-01T13:42:11.982Z</time></trkpt><trkpt lat="42.22291" lon="14.210795"><ele>310.0</ele><time>2026-05-01T13:42:12.982Z</time></trkpt><trkpt lat="42.2229783" lon="14.2107317"><ele>310.0</ele><time>2026-05-01T13:42:13.981Z</time></trkpt><trkpt lat="42.22304" lon="14.2106717"><ele>310.0</ele><time>2026-05-01T13:42:14.982Z</time></trkpt><trkpt lat="42.223095" lon="14.2106167"><ele>310.0</ele><time>2026-05-01T13:42:15.982Z</time></trkpt><trkpt lat="42.2231533" lon="14.2105617"><ele>310.0</ele><time>2026-05-01T13:42:16.982Z</time></trkpt><trkpt lat="42.2231983" lon="14.2105017"><ele>310.0</ele><time>2026-05-01T13:42:17.982Z</time></trkpt><trkpt lat="42.223255" lon="14.210435"><ele>310.0</ele><time>2026-05-01T13:42:18.982Z</time></trkpt><trkpt lat="42.22332" lon="14.210355"><ele>309.8</ele><time>2026-05-01T13:42:19.981Z</time></trkpt><trkpt lat="42.2233883" lon="14.210265"><ele>309.6</ele><time>2026-05-01T13:42:20.982Z</time></trkpt><trkpt lat="42.2234583" lon="14.2101767"><ele>309.4</ele><time>2026-05-01T13:42:21.981Z</time></trkpt><trkpt lat="42.2235283" lon="14.2100867"><ele>309.2</ele><time>2026-05-01T13:42:22.982Z</time></trkpt><trkpt lat="42.2236067" lon="14.2100033"><ele>309.0</ele><time>2026-05-01T13:42:23.982Z</time></trkpt><trkpt lat="42.2236817" lon="14.209935"><ele>309.0</ele><time>2026-05-01T13:42:24.982Z</time></trkpt><trkpt lat="42.2237583" lon="14.2098817"><ele>309.0</ele><time>2026-05-01T13:42:25.981Z</time></trkpt><trkpt lat="42.2238333" lon="14.209855"><ele>309.0</ele><time>2026-05-01T13:42:26.982Z</time></trkpt><trkpt lat="42.2239117" lon="14.2098567"><ele>309.0</ele><time>2026-05-01T13:42:27.982Z</time></trkpt><trkpt lat="42.2240067" lon="14.2098617"><ele>309.0</ele><time>2026-05-01T13:42:28.981Z</time></trkpt><trkpt lat="42.2241083" lon="14.20989"><ele>309.0</ele><time>2026-05-01T13:42:29.981Z</time></trkpt><trkpt lat="42.2242017" lon="14.2099017"><ele>309.0</ele><time>2026-05-01T13:42:30.981Z</time></trkpt><trkpt lat="42.2242767" lon="14.2098817"><ele>309.0</ele><time>2026-05-01T13:42:31.981Z</time></trkpt><trkpt lat="42.2243483" lon="14.2098333"><ele>309.0</ele><time>2026-05-01T13:42:32.982Z</time></trkpt><trkpt lat="42.224425" lon="14.2097633"><ele>309.0</ele><time>2026-05-01T13:42:33.981Z</time></trkpt><trkpt lat="42.2244883" lon="14.2096683"><ele>309.0</ele><time>2026-05-01T13:42:34.981Z</time></trkpt><trkpt lat="42.2245567" lon="14.20958"><ele>309.0</ele><time>2026-05-01T13:42:35.982Z</time></trkpt><trkpt lat="42.224625" lon="14.2094933"><ele>309.3333333333333</ele><time>2026-05-01T13:42:36.982Z</time></trkpt><trkpt lat="42.2246933" lon="14.2094083"><ele>309.6666666666667</ele><time>2026-05-01T13:42:37.982Z</time></trkpt><trkpt lat="42.2247633" lon="14.2093267"><ele>310.0</ele><time>2026-05-01T13:42:38.982Z</time></trkpt><trkpt lat="42.2248333" lon="14.2092633"><ele>310.33333333333337</ele><time>2026-05-01T13:42:39.982Z</time></trkpt><trkpt lat="42.22491" lon="14.2092133"><ele>310.6666666666667</ele><time>2026-05-01T13:42:40.982Z</time></trkpt><trkpt lat="42.225" lon="14.209175"><ele>311.0</ele><time>2026-05-01T13:42:41.98Z</time></trkpt><trkpt lat="42.225095" lon="14.2091683"><ele>310.0</ele><time>2026-05-01T13:42:42.981Z</time></trkpt><trkpt lat="42.2251983" lon="14.20914"><ele>309.0</ele><time>2026-05-01T13:42:43.981Z</time></trkpt><trkpt lat="42.2253067" lon="14.2090833"><ele>308.0</ele><time>2026-05-01T13:42:44.981Z</time></trkpt><trkpt lat="42.22543" lon="14.2090133"><ele>307.0</ele><time>2026-05-01T13:42:45.981Z</time></trkpt><trkpt lat="42.2255517" lon="14.2089467"><ele>306.2</ele><time>2026-05-01T13:42:46.981Z</time></trkpt><trkpt lat="42.22566" lon="14.2088867"><ele>305.4</ele><time>2026-05-01T13:42:47.981Z</time></trkpt><trkpt lat="42.2257783" lon="14.2088483"><ele>304.6</ele><time>2026-05-01T13:42:48.981Z</time></trkpt><trkpt lat="42.2258867" lon="14.208805"><ele>303.8</ele><time>2026-05-01T13:42:49.98Z</time></trkpt><trkpt lat="42.2259833" lon="14.2087883"><ele>303.0</ele><time>2026-05-01T13:42:50.981Z</time></trkpt><trkpt lat="42.22607" lon="14.2087633"><ele>303.0</ele><time>2026-05-01T13:42:51.981Z</time></trkpt><trkpt lat="42.2261383" lon="14.2087233"><ele>303.0</ele><time>2026-05-01T13:42:52.981Z</time></trkpt><trkpt lat="42.226195" lon="14.2086733"><ele>303.0</ele><time>2026-05-01T13:42:53.981Z</time></trkpt><trkpt lat="42.2262367" lon="14.2085983"><ele>303.0</ele><time>2026-05-01T13:42:54.981Z</time></trkpt><trkpt lat="42.2262733" lon="14.2084967"><ele>303.0</ele><time>2026-05-01T13:42:55.98Z</time></trkpt><trkpt lat="42.2263183" lon="14.2083833"><ele>303.0</ele><time>2026-05-01T13:42:56.981Z</time></trkpt><trkpt lat="42.2263583" lon="14.2082533"><ele>302.6</ele><time>2026-05-01T13:42:57.981Z</time></trkpt><trkpt lat="42.2264067" lon="14.2081233"><ele>302.20000000000005</ele><time>2026-05-01T13:42:58.98Z</time></trkpt><trkpt lat="42.2264483" lon="14.20801"><ele>301.8</ele><time>2026-05-01T13:42:59.981Z</time></trkpt><trkpt lat="42.2264867" lon="14.2079033"><ele>301.40000000000003</ele><time>2026-05-01T13:43:00.981Z</time></trkpt><trkpt lat="42.2265217" lon="14.207805"><ele>301.0</ele><time>2026-05-01T13:43:01.981Z</time></trkpt><trkpt lat="42.226555" lon="14.207705"><ele>300.6</ele><time>2026-05-01T13:43:02.981Z</time></trkpt><trkpt lat="42.2266" lon="14.207625"><ele>300.20000000000005</ele><time>2026-05-01T13:43:03.981Z</time></trkpt><trkpt lat="42.22665" lon="14.207545"><ele>299.79999999999995</ele><time>2026-05-01T13:43:04.98Z</time></trkpt><trkpt lat="42.2267167" lon="14.2074783"><ele>299.4</ele><time>2026-05-01T13:43:05.98Z</time></trkpt><trkpt lat="42.226805" lon="14.207405"><ele>299.0</ele><time>2026-05-01T13:43:06.98Z</time></trkpt><trkpt lat="42.22692" lon="14.2073417"><ele>298.8</ele><time>2026-05-01T13:43:07.981Z</time></trkpt><trkpt lat="42.2270233" lon="14.2072817"><ele>298.59999999999997</ele><time>2026-05-01T13:43:08.981Z</time></trkpt><trkpt lat="42.2271317" lon="14.2072183"><ele>298.4</ele><time>2026-05-01T13:43:09.981Z</time></trkpt><trkpt lat="42.2272317" lon="14.20714"><ele>298.2</ele><time>2026-05-01T13:43:10.981Z</time></trkpt><trkpt lat="42.22732" lon="14.2070783"><ele>298.0</ele><time>2026-05-01T13:43:11.981Z</time></trkpt><trkpt lat="42.2273967" lon="14.20703"><ele>297.2</ele><time>2026-05-01T13:43:12.98Z</time></trkpt><trkpt lat="42.227475" lon="14.2069633"><ele>296.4</ele><time>2026-05-01T13:43:13.981Z</time></trkpt><trkpt lat="42.2275383" lon="14.2068733"><ele>295.59999999999997</ele><time>2026-05-01T13:43:14.981Z</time></trkpt><trkpt lat="42.227585" lon="14.206775"><ele>294.8</ele><time>2026-05-01T13:43:15.981Z</time></trkpt><trkpt lat="42.2276233" lon="14.206665"><ele>294.0</ele><time>2026-05-01T13:43:16.98Z</time></trkpt><trkpt lat="42.2276583" lon="14.2065367"><ele>293.4</ele><time>2026-05-01T13:43:17.981Z</time></trkpt><trkpt lat="42.2276933" lon="14.2064067"><ele>292.79999999999995</ele><time>2026-05-01T13:43:18.981Z</time></trkpt><trkpt lat="42.227735" lon="14.2062667"><ele>292.20000000000005</ele><time>2026-05-01T13:43:19.98Z</time></trkpt><trkpt lat="42.2277783" lon="14.2061483"><ele>291.6</ele><time>2026-05-01T13:43:20.98Z</time></trkpt><trkpt lat="42.2278117" lon="14.2060517"><ele>291.0</ele><time>2026-05-01T13:43:21.981Z</time></trkpt><trkpt lat="42.22783" lon="14.205965"><ele>291.0</ele><time>2026-05-01T13:43:22.981Z</time></trkpt><trkpt lat="42.2278317" lon="14.2058767"><ele>291.0</ele><time>2026-05-01T13:43:23.98Z</time></trkpt><trkpt lat="42.22781" lon="14.2057867"><ele>291.0</ele><time>2026-05-01T13:43:24.98Z</time></trkpt><trkpt lat="42.2277733" lon="14.2056967"><ele>291.0</ele><time>2026-05-01T13:43:25.981Z</time></trkpt><trkpt lat="42.2277233" lon="14.2055933"><ele>291.0</ele><time>2026-05-01T13:43:26.981Z</time></trkpt><trkpt lat="42.2276967" lon="14.2054917"><ele>291.0</ele><time>2026-05-01T13:43:27.981Z</time></trkpt><trkpt lat="42.2276883" lon="14.2053967"><ele>290.8333333333333</ele><time>2026-05-01T13:43:28.981Z</time></trkpt><trkpt lat="42.2277" lon="14.2053017"><ele>290.6666666666667</ele><time>2026-05-01T13:43:29.981Z</time></trkpt><trkpt lat="42.2277183" lon="14.205215"><ele>290.5</ele><time>2026-05-01T13:43:30.981Z</time></trkpt><trkpt lat="42.22775" lon="14.2051317"><ele>290.33333333333337</ele><time>2026-05-01T13:43:31.981Z</time></trkpt><trkpt lat="42.2278383" lon="14.2050133"><ele>290.1666666666667</ele><time>2026-05-01T13:43:33.981Z</time></trkpt><trkpt lat="42.2279033" lon="14.2049667"><ele>290.0</ele><time>2026-05-01T13:43:34.981Z</time></trkpt><trkpt lat="42.2279817" lon="14.2049333"><ele>290.0</ele><time>2026-05-01T13:43:35.98Z</time></trkpt><trkpt lat="42.2280767" lon="14.2048917"><ele>290.0</ele><time>2026-05-01T13:43:36.981Z</time></trkpt><trkpt lat="42.2281583" lon="14.2048517"><ele>290.0</ele><time>2026-05-01T13:43:37.98Z</time></trkpt><trkpt lat="42.228225" lon="14.20479"><ele>290.0</ele><time>2026-05-01T13:43:38.98Z</time></trkpt><trkpt lat="42.2282817" lon="14.204705"><ele>290.0</ele><time>2026-05-01T13:43:39.981Z</time></trkpt><trkpt lat="42.2283417" lon="14.2046033"><ele>290.0</ele><time>2026-05-01T13:43:40.981Z</time></trkpt><trkpt lat="42.2283933" lon="14.2044917"><ele>290.0</ele><time>2026-05-01T13:43:41.981Z</time></trkpt><trkpt lat="42.228435" lon="14.204385"><ele>290.0</ele><time>2026-05-01T13:43:42.98Z</time></trkpt><trkpt lat="42.228485" lon="14.20428"><ele>290.0</ele><time>2026-05-01T13:43:43.98Z</time></trkpt><trkpt lat="42.228535" lon="14.2041917"><ele>290.0</ele><time>2026-05-01T13:43:44.981Z</time></trkpt><trkpt lat="42.22859" lon="14.2041133"><ele>290.0</ele><time>2026-05-01T13:43:45.98Z</time></trkpt><trkpt lat="42.2286667" lon="14.2040417"><ele>290.0</ele><time>2026-05-01T13:43:46.981Z</time></trkpt><trkpt lat="42.2287517" lon="14.2039833"><ele>289.6666666666667</ele><time>2026-05-01T13:43:47.981Z</time></trkpt><trkpt lat="42.2288367" lon="14.2039383"><ele>289.33333333333337</ele><time>2026-05-01T13:43:48.981Z</time></trkpt><trkpt lat="42.22891" lon="14.203905"><ele>289.0</ele><time>2026-05-01T13:43:49.98Z</time></trkpt><trkpt lat="42.228985" lon="14.2038633"><ele>288.6666666666667</ele><time>2026-05-01T13:43:50.98Z</time></trkpt><trkpt lat="42.2290683" lon="14.2038133"><ele>288.3333333333333</ele><time>2026-05-01T13:43:51.981Z</time></trkpt><trkpt lat="42.229155" lon="14.2037583"><ele>288.0</ele><time>2026-05-01T13:43:52.981Z</time></trkpt><trkpt lat="42.2292383" lon="14.2036933"><ele>288.0</ele><time>2026-05-01T13:43:53.98Z</time></trkpt><trkpt lat="42.2293167" lon="14.2036283"><ele>288.0</ele><time>2026-05-01T13:43:54.981Z</time></trkpt><trkpt lat="42.2293933" lon="14.203565"><ele>288.0</ele><time>2026-05-01T13:43:55.981Z</time></trkpt><trkpt lat="42.2294633" lon="14.2034817"><ele>288.0</ele><time>2026-05-01T13:43:56.981Z</time></trkpt><trkpt lat="42.2295217" lon="14.2033833"><ele>288.0</ele><time>2026-05-01T13:43:57.981Z</time></trkpt><trkpt lat="42.2295633" lon="14.2032767"><ele>287.2</ele><time>2026-05-01T13:43:58.981Z</time></trkpt><trkpt lat="42.2295833" lon="14.203155"><ele>286.4</ele><time>2026-05-01T13:43:59.981Z</time></trkpt><trkpt lat="42.22959" lon="14.2030167"><ele>285.59999999999997</ele><time>2026-05-01T13:44:00.981Z</time></trkpt><trkpt lat="42.2296" lon="14.2028733"><ele>284.8</ele><time>2026-05-01T13:44:01.981Z</time></trkpt><trkpt lat="42.2296167" lon="14.202725"><ele>284.0</ele><time>2026-05-01T13:44:02.981Z</time></trkpt><trkpt lat="42.22964" lon="14.2025867"><ele>284.0</ele><time>2026-05-01T13:44:03.981Z</time></trkpt><trkpt lat="42.2296783" lon="14.2024583"><ele>284.0</ele><time>2026-05-01T13:44:04.981Z</time></trkpt><trkpt lat="42.229735" lon="14.202335"><ele>284.0</ele><time>2026-05-01T13:44:05.981Z</time></trkpt><trkpt lat="42.2298" lon="14.2022067"><ele>284.0</ele><time>2026-05-01T13:44:06.981Z</time></trkpt><trkpt lat="42.229875" lon="14.20209"><ele>284.0</ele><time>2026-05-01T13:44:07.98Z</time></trkpt><trkpt lat="42.2299483" lon="14.2019883"><ele>283.75</ele><time>2026-05-01T13:44:08.981Z</time></trkpt><trkpt lat="42.2300233" lon="14.2018983"><ele>283.5</ele><time>2026-05-01T13:44:09.981Z</time></trkpt><trkpt lat="42.23012" lon="14.2018133"><ele>283.25</ele><time>2026-05-01T13:44:10.981Z</time></trkpt><trkpt lat="42.2302267" lon="14.2017283"><ele>283.0</ele><time>2026-05-01T13:44:11.981Z</time></trkpt><trkpt lat="42.230335" lon="14.20165"><ele>283.0</ele><time>2026-05-01T13:44:12.98Z</time></trkpt><trkpt lat="42.2304417" lon="14.2015833"><ele>283.0</ele><time>2026-05-01T13:44:13.98Z</time></trkpt><trkpt lat="42.2305433" lon="14.20149"><ele>283.0</ele><time>2026-05-01T13:44:14.981Z</time></trkpt><trkpt lat="42.2306433" lon="14.20136"><ele>283.0</ele><time>2026-05-01T13:44:15.981Z</time></trkpt><trkpt lat="42.2307383" lon="14.2012233"><ele>282.75</ele><time>2026-05-01T13:44:16.981Z</time></trkpt><trkpt lat="42.2308117" lon="14.2010883"><ele>282.5</ele><time>2026-05-01T13:44:17.98Z</time></trkpt><trkpt lat="42.2308717" lon="14.2009483"><ele>282.25</ele><time>2026-05-01T13:44:18.981Z</time></trkpt><trkpt lat="42.2309267" lon="14.2008183"><ele>282.0</ele><time>2026-05-01T13:44:19.981Z</time></trkpt><trkpt lat="42.230995" lon="14.2006917"><ele>280.75</ele><time>2026-05-01T13:44:20.98Z</time></trkpt><trkpt lat="42.2310817" lon="14.20059"><ele>279.5</ele><time>2026-05-01T13:44:21.981Z</time></trkpt><trkpt lat="42.23118" lon="14.2004867"><ele>278.25</ele><time>2026-05-01T13:44:22.981Z</time></trkpt><trkpt lat="42.2312867" lon="14.2003783"><ele>277.0</ele><time>2026-05-01T13:44:23.981Z</time></trkpt><trkpt lat="42.23138" lon="14.20027"><ele>277.0</ele><time>2026-05-01T13:44:24.98Z</time></trkpt><trkpt lat="42.2314683" lon="14.2001517"><ele>277.0</ele><time>2026-05-01T13:44:25.98Z</time></trkpt><trkpt lat="42.2315483" lon="14.20004"><ele>277.0</ele><time>2026-05-01T13:44:26.981Z</time></trkpt><trkpt lat="42.23163" lon="14.19993"><ele>277.0</ele><time>2026-05-01T13:44:27.981Z</time></trkpt><trkpt lat="42.2317017" lon="14.1998267"><ele>276.8333333333333</ele><time>2026-05-01T13:44:28.98Z</time></trkpt><trkpt lat="42.2317733" lon="14.19973"><ele>276.66666666666663</ele><time>2026-05-01T13:44:29.98Z</time></trkpt><trkpt lat="42.231835" lon="14.199665"><ele>276.5</ele><time>2026-05-01T13:44:30.981Z</time></trkpt><trkpt lat="42.2318883" lon="14.1996083"><ele>276.3333333333333</ele><time>2026-05-01T13:44:31.98Z</time></trkpt><trkpt lat="42.231965" lon="14.19951"><ele>276.1666666666667</ele><time>2026-05-01T13:44:33.98Z</time></trkpt><trkpt lat="42.2320033" lon="14.1994333"><ele>276.0</ele><time>2026-05-01T13:44:35.981Z</time></trkpt><trkpt lat="42.2320367" lon="14.1993333"><ele>276.0</ele><time>2026-05-01T13:44:37.98Z</time></trkpt><trkpt lat="42.23207" lon="14.19926"><ele>276.0</ele><time>2026-05-01T13:44:38.98Z</time></trkpt><trkpt lat="42.2321133" lon="14.19918"><ele>276.0</ele><time>2026-05-01T13:44:39.98Z</time></trkpt><trkpt lat="42.2321667" lon="14.1990983"><ele>276.0</ele><time>2026-05-01T13:44:40.98Z</time></trkpt><trkpt lat="42.232225" lon="14.19901"><ele>276.0</ele><time>2026-05-01T13:44:41.981Z</time></trkpt><trkpt lat="42.232285" lon="14.1989233"><ele>276.0</ele><time>2026-05-01T13:44:42.981Z</time></trkpt><trkpt lat="42.2323433" lon="14.1988317"><ele>275.3333333333333</ele><time>2026-05-01T13:44:43.981Z</time></trkpt><trkpt lat="42.2324" lon="14.1987433"><ele>274.6666666666667</ele><time>2026-05-01T13:44:44.98Z</time></trkpt><trkpt lat="42.2324483" lon="14.19866"><ele>274.0</ele><time>2026-05-01T13:44:45.981Z</time></trkpt><trkpt lat="42.2325033" lon="14.19858"><ele>273.33333333333337</ele><time>2026-05-01T13:44:46.981Z</time></trkpt><trkpt lat="42.2325533" lon="14.1985117"><ele>272.6666666666667</ele><time>2026-05-01T13:44:47.981Z</time></trkpt><trkpt lat="42.23261" lon="14.1984317"><ele>272.0</ele><time>2026-05-01T13:44:48.98Z</time></trkpt><trkpt lat="42.2326733" lon="14.19834"><ele>272.0</ele><time>2026-05-01T13:44:49.981Z</time></trkpt><trkpt lat="42.2327417" lon="14.19825"><ele>272.0</ele><time>2026-05-01T13:44:50.98Z</time></trkpt><trkpt lat="42.2327917" lon="14.1981667"><ele>272.0</ele><time>2026-05-01T13:44:51.981Z</time></trkpt><trkpt lat="42.2328283" lon="14.1980933"><ele>272.0</ele><time>2026-05-01T13:44:52.981Z</time></trkpt><trkpt lat="42.2328683" lon="14.1979833"><ele>272.0</ele><time>2026-05-01T13:44:54.981Z</time></trkpt><trkpt lat="42.2328983" lon="14.1978883"><ele>272.0</ele><time>2026-05-01T13:44:57.981Z</time></trkpt><trkpt lat="42.2329733" lon="14.1978267"><ele>271.1666666666667</ele><time>2026-05-01T13:45:00.98Z</time></trkpt><trkpt lat="42.2330383" lon="14.19781"><ele>270.33333333333337</ele><time>2026-05-01T13:45:02.981Z</time></trkpt><trkpt lat="42.233105" lon="14.1977983"><ele>269.5</ele><time>2026-05-01T13:45:04.981Z</time></trkpt><trkpt lat="42.23318" lon="14.1977617"><ele>268.6666666666667</ele><time>2026-05-01T13:45:07.981Z</time></trkpt><trkpt lat="42.2332667" lon="14.1976983"><ele>267.8333333333333</ele><time>2026-05-01T13:45:10.981Z</time></trkpt><trkpt lat="42.2333467" lon="14.1976117"><ele>267.0</ele><time>2026-05-01T13:45:12.981Z</time></trkpt><trkpt lat="42.23346" lon="14.1975267"><ele>267.00000000000006</ele><time>2026-05-01T13:45:14.981Z</time></trkpt><trkpt lat="42.2335283" lon="14.1974817"><ele>267.0</ele><time>2026-05-01T13:45:15.981Z</time></trkpt><trkpt lat="42.2335983" lon="14.1974367"><ele>267.0</ele><time>2026-05-01T13:45:16.981Z</time></trkpt><trkpt lat="42.2336467" lon="14.1973683"><ele>267.0</ele><time>2026-05-01T13:45:17.981Z</time></trkpt><trkpt lat="42.233685" lon="14.1972983"><ele>267.0</ele><time>2026-05-01T13:45:18.981Z</time></trkpt><trkpt lat="42.2337217" lon="14.1972067"><ele>267.00000000000006</ele><time>2026-05-01T13:45:19.981Z</time></trkpt><trkpt lat="42.2337567" lon="14.1971133"><ele>267.0</ele><time>2026-05-01T13:45:20.98Z</time></trkpt><trkpt lat="42.2337917" lon="14.19702"><ele>267.0</ele><time>2026-05-01T13:45:21.98Z</time></trkpt><trkpt lat="42.23384" lon="14.196925"><ele>267.0</ele><time>2026-05-01T13:45:22.98Z</time></trkpt><trkpt lat="42.233885" lon="14.1968333"><ele>267.0</ele><time>2026-05-01T13:45:23.981Z</time></trkpt><trkpt lat="42.2339233" lon="14.1967467"><ele>267.0</ele><time>2026-05-01T13:45:24.98Z</time></trkpt><trkpt lat="42.2339567" lon="14.1966533"><ele>267.0</ele><time>2026-05-01T13:45:25.981Z</time></trkpt><trkpt lat="42.233985" lon="14.19655"><ele>267.0</ele><time>2026-05-01T13:45:26.98Z</time></trkpt><trkpt lat="42.2340217" lon="14.1964433"><ele>266.8333333333333</ele><time>2026-05-01T13:45:27.98Z</time></trkpt><trkpt lat="42.234065" lon="14.1963283"><ele>266.6666666666667</ele><time>2026-05-01T13:45:28.981Z</time></trkpt><trkpt lat="42.234115" lon="14.1962367"><ele>266.5</ele><time>2026-05-01T13:45:29.981Z</time></trkpt><trkpt lat="42.2341617" lon="14.1961433"><ele>266.33333333333337</ele><time>2026-05-01T13:45:30.981Z</time></trkpt><trkpt lat="42.23421" lon="14.19604"><ele>266.1666666666667</ele><time>2026-05-01T13:45:31.981Z</time></trkpt><trkpt lat="42.2342583" lon="14.1959433"><ele>266.0</ele><time>2026-05-01T13:45:32.981Z</time></trkpt><trkpt lat="42.2343017" lon="14.1958417"><ele>266.0</ele><time>2026-05-01T13:45:33.981Z</time></trkpt><trkpt lat="42.2343533" lon="14.1957533"><ele>266.0</ele><time>2026-05-01T13:45:34.98Z</time></trkpt><trkpt lat="42.2344067" lon="14.195665"><ele>266.0</ele><time>2026-05-01T13:45:35.98Z</time></trkpt><trkpt lat="42.2344683" lon="14.19558"><ele>266.0</ele><time>2026-05-01T13:45:36.981Z</time></trkpt><trkpt lat="42.23453" lon="14.1954983"><ele>266.0</ele><time>2026-05-01T13:45:37.981Z</time></trkpt><trkpt lat="42.2345883" lon="14.195415"><ele>266.0</ele><time>2026-05-01T13:45:38.981Z</time></trkpt><trkpt lat="42.23465" lon="14.195335"><ele>266.0</ele><time>2026-05-01T13:45:39.98Z</time></trkpt><trkpt lat="42.234705" lon="14.1952733"><ele>266.0</ele><time>2026-05-01T13:45:40.981Z</time></trkpt><trkpt lat="42.234765" lon="14.1952083"><ele>266.0</ele><time>2026-05-01T13:45:41.98Z</time></trkpt><trkpt lat="42.2348383" lon="14.1951383"><ele>266.0</ele><time>2026-05-01T13:45:42.981Z</time></trkpt><trkpt lat="42.2349167" lon="14.1950767"><ele>266.0</ele><time>2026-05-01T13:45:43.981Z</time></trkpt><trkpt lat="42.2349833" lon="14.1950017"><ele>266.0</ele><time>2026-05-01T13:45:44.979Z</time></trkpt><trkpt lat="42.2350583" lon="14.1949167"><ele>265.8</ele><time>2026-05-01T13:45:45.98Z</time></trkpt><trkpt lat="42.23514" lon="14.194825"><ele>265.6</ele><time>2026-05-01T13:45:46.98Z</time></trkpt><trkpt lat="42.2352283" lon="14.1947283"><ele>265.4</ele><time>2026-05-01T13:45:47.98Z</time></trkpt><trkpt lat="42.2353033" lon="14.1946483"><ele>265.2</ele><time>2026-05-01T13:45:48.98Z</time></trkpt><trkpt lat="42.2353783" lon="14.1945733"><ele>265.0</ele><time>2026-05-01T13:45:49.979Z</time></trkpt><trkpt lat="42.2354467" lon="14.1945117"><ele>265.0</ele><time>2026-05-01T13:45:50.98Z</time></trkpt><trkpt lat="42.2354983" lon="14.19446"><ele>265.0</ele><time>2026-05-01T13:45:51.98Z</time></trkpt><trkpt lat="42.2355683" lon="14.1944083"><ele>265.0</ele><time>2026-05-01T13:45:52.98Z</time></trkpt><trkpt lat="42.2356517" lon="14.1943533"><ele>265.0</ele><time>2026-05-01T13:45:53.98Z</time></trkpt><trkpt lat="42.235745" lon="14.1943083"><ele>265.0</ele><time>2026-05-01T13:45:54.98Z</time></trkpt><trkpt lat="42.23582" lon="14.1942767"><ele>265.0</ele><time>2026-05-01T13:45:55.98Z</time></trkpt><trkpt lat="42.2358967" lon="14.194225"><ele>265.0</ele><time>2026-05-01T13:45:56.979Z</time></trkpt><trkpt lat="42.2359617" lon="14.1941467"><ele>265.0</ele><time>2026-05-01T13:45:57.98Z</time></trkpt><trkpt lat="42.2360383" lon="14.194035"><ele>265.0</ele><time>2026-05-01T13:45:58.98Z</time></trkpt><trkpt lat="42.2361" lon="14.1938983"><ele>265.0</ele><time>2026-05-01T13:45:59.98Z</time></trkpt><trkpt lat="42.2361633" lon="14.1937267"><ele>264.25</ele><time>2026-05-01T13:46:00.98Z</time></trkpt><trkpt lat="42.2362317" lon="14.1935417"><ele>263.5</ele><time>2026-05-01T13:46:01.98Z</time></trkpt><trkpt lat="42.2362883" lon="14.1933633"><ele>262.75</ele><time>2026-05-01T13:46:02.98Z</time></trkpt><trkpt lat="42.2363417" lon="14.1931983"><ele>262.0</ele><time>2026-05-01T13:46:03.979Z</time></trkpt><trkpt lat="42.2363767" lon="14.1930417"><ele>262.2</ele><time>2026-05-01T13:46:04.979Z</time></trkpt><trkpt lat="42.2364033" lon="14.1928983"><ele>262.4</ele><time>2026-05-01T13:46:05.98Z</time></trkpt><trkpt lat="42.2364383" lon="14.1927683"><ele>262.6</ele><time>2026-05-01T13:46:06.979Z</time></trkpt><trkpt lat="42.2364683" lon="14.1926317"><ele>262.8</ele><time>2026-05-01T13:46:07.98Z</time></trkpt><trkpt lat="42.2365117" lon="14.1924833"><ele>263.0</ele><time>2026-05-01T13:46:08.98Z</time></trkpt><trkpt lat="42.236565" lon="14.192335"><ele>261.5</ele><time>2026-05-01T13:46:09.979Z</time></trkpt><trkpt lat="42.2366117" lon="14.1921883"><ele>260.0</ele><time>2026-05-01T13:46:10.98Z</time></trkpt><trkpt lat="42.2366583" lon="14.1920467"><ele>258.5</ele><time>2026-05-01T13:46:11.98Z</time></trkpt><trkpt lat="42.2367083" lon="14.191915"><ele>257.0</ele><time>2026-05-01T13:46:12.979Z</time></trkpt><trkpt lat="42.2367683" lon="14.1917717"><ele>257.0</ele><time>2026-05-01T13:46:13.98Z</time></trkpt><trkpt lat="42.2368383" lon="14.1916317"><ele>257.0</ele><time>2026-05-01T13:46:14.979Z</time></trkpt><trkpt lat="42.2369167" lon="14.1915"><ele>257.0</ele><time>2026-05-01T13:46:15.98Z</time></trkpt><trkpt lat="42.237005" lon="14.1913783"><ele>257.0</ele><time>2026-05-01T13:46:16.98Z</time></trkpt><trkpt lat="42.2370833" lon="14.191265"><ele>256.2</ele><time>2026-05-01T13:46:17.979Z</time></trkpt><trkpt lat="42.2371433" lon="14.191145"><ele>255.39999999999998</ele><time>2026-05-01T13:46:18.98Z</time></trkpt><trkpt lat="42.23719" lon="14.1910117"><ele>254.60000000000002</ele><time>2026-05-01T13:46:19.979Z</time></trkpt><trkpt lat="42.2372267" lon="14.19087"><ele>253.8</ele><time>2026-05-01T13:46:20.979Z</time></trkpt><trkpt lat="42.2372733" lon="14.1907283"><ele>253.0</ele><time>2026-05-01T13:46:21.98Z</time></trkpt><trkpt lat="42.2373217" lon="14.1905967"><ele>253.0</ele><time>2026-05-01T13:46:22.979Z</time></trkpt><trkpt lat="42.2373767" lon="14.1904883"><ele>253.0</ele><time>2026-05-01T13:46:23.979Z</time></trkpt><trkpt lat="42.2374383" lon="14.19039"><ele>253.0</ele><time>2026-05-01T13:46:24.98Z</time></trkpt><trkpt lat="42.2375183" lon="14.1903067"><ele>253.0</ele><time>2026-05-01T13:46:25.98Z</time></trkpt><trkpt lat="42.2376" lon="14.1902233"><ele>253.0</ele><time>2026-05-01T13:46:26.98Z</time></trkpt><trkpt lat="42.2376767" lon="14.190135"><ele>253.0</ele><time>2026-05-01T13:46:27.98Z</time></trkpt><trkpt lat="42.2377417" lon="14.190035"><ele>253.0</ele><time>2026-05-01T13:46:28.98Z</time></trkpt><trkpt lat="42.2377933" lon="14.1899267"><ele>253.0</ele><time>2026-05-01T13:46:29.98Z</time></trkpt><trkpt lat="42.2378417" lon="14.1898067"><ele>253.0</ele><time>2026-05-01T13:46:30.979Z</time></trkpt><trkpt lat="42.237885" lon="14.18967"><ele>253.0</ele><time>2026-05-01T13:46:31.98Z</time></trkpt><trkpt lat="42.23792" lon="14.1895317"><ele>251.75</ele><time>2026-05-01T13:46:32.979Z</time></trkpt><trkpt lat="42.2379333" lon="14.18938"><ele>250.5</ele><time>2026-05-01T13:46:33.98Z</time></trkpt><trkpt lat="42.2379483" lon="14.1892117"><ele>249.25</ele><time>2026-05-01T13:46:34.98Z</time></trkpt><trkpt lat="42.2379567" lon="14.1890533"><ele>248.0</ele><time>2026-05-01T13:46:35.979Z</time></trkpt><trkpt lat="42.23795" lon="14.1889033"><ele>247.4</ele><time>2026-05-01T13:46:36.98Z</time></trkpt><trkpt lat="42.237945" lon="14.188765"><ele>246.8</ele><time>2026-05-01T13:46:37.979Z</time></trkpt><trkpt lat="42.2379517" lon="14.1886417"><ele>246.2</ele><time>2026-05-01T13:46:38.98Z</time></trkpt><trkpt lat="42.2379867" lon="14.1885267"><ele>245.6</ele><time>2026-05-01T13:46:39.979Z</time></trkpt><trkpt lat="42.23804" lon="14.1884067"><ele>245.0</ele><time>2026-05-01T13:46:40.979Z</time></trkpt><trkpt lat="42.2381033" lon="14.1882933"><ele>244.66666666666669</ele><time>2026-05-01T13:46:41.98Z</time></trkpt><trkpt lat="42.2381783" lon="14.1882017"><ele>244.33333333333334</ele><time>2026-05-01T13:46:42.98Z</time></trkpt><trkpt lat="42.23825" lon="14.18812"><ele>244.0</ele><time>2026-05-01T13:46:43.98Z</time></trkpt><trkpt lat="42.2383083" lon="14.188035"><ele>243.66666666666669</ele><time>2026-05-01T13:46:44.979Z</time></trkpt><trkpt lat="42.2383567" lon="14.187955"><ele>243.33333333333334</ele><time>2026-05-01T13:46:45.979Z</time></trkpt><trkpt lat="42.2383817" lon="14.187875"><ele>243.0</ele><time>2026-05-01T13:46:46.979Z</time></trkpt><trkpt lat="42.2383833" lon="14.1877"><ele>243.0</ele><time>2026-05-01T13:46:48.98Z</time></trkpt><trkpt lat="42.2383833" lon="14.1876017"><ele>243.0</ele><time>2026-05-01T13:46:49.98Z</time></trkpt><trkpt lat="42.2383933" lon="14.18751"><ele>243.0</ele><time>2026-05-01T13:46:50.979Z</time></trkpt><trkpt lat="42.2384567" lon="14.18739"><ele>243.0</ele><time>2026-05-01T13:46:52.98Z</time></trkpt><trkpt lat="42.2385117" lon="14.1873467"><ele>243.0</ele><time>2026-05-01T13:46:53.98Z</time></trkpt><trkpt lat="42.2385817" lon="14.1873033"><ele>243.0</ele><time>2026-05-01T13:46:54.979Z</time></trkpt><trkpt lat="42.2386667" lon="14.1872783"><ele>243.66666666666666</ele><time>2026-05-01T13:46:55.98Z</time></trkpt><trkpt lat="42.2387583" lon="14.1872617"><ele>244.33333333333331</ele><time>2026-05-01T13:46:56.979Z</time></trkpt><trkpt lat="42.238845" lon="14.18724"><ele>245.0</ele><time>2026-05-01T13:46:57.98Z</time></trkpt><trkpt lat="42.23893" lon="14.1872067"><ele>245.66666666666666</ele><time>2026-05-01T13:46:58.98Z</time></trkpt><trkpt lat="42.2389983" lon="14.18716"><ele>246.33333333333331</ele><time>2026-05-01T13:46:59.98Z</time></trkpt><trkpt lat="42.239045" lon="14.18707"><ele>247.0</ele><time>2026-05-01T13:47:00.979Z</time></trkpt><trkpt lat="42.239085" lon="14.1869767"><ele>247.39999999999998</ele><time>2026-05-01T13:47:01.98Z</time></trkpt><trkpt lat="42.2391183" lon="14.1868717"><ele>247.79999999999998</ele><time>2026-05-01T13:47:02.98Z</time></trkpt><trkpt lat="42.239155" lon="14.1867667"><ele>248.2</ele><time>2026-05-01T13:47:03.979Z</time></trkpt><trkpt lat="42.2392" lon="14.186665"><ele>248.6</ele><time>2026-05-01T13:47:04.979Z</time></trkpt><trkpt lat="42.2392317" lon="14.1865767"><ele>249.0</ele><time>2026-05-01T13:47:05.98Z</time></trkpt><trkpt lat="42.2393" lon="14.186405"><ele>250.0</ele><time>2026-05-01T13:47:07.98Z</time></trkpt><trkpt lat="42.2393417" lon="14.18632"><ele>251.0</ele><time>2026-05-01T13:47:08.98Z</time></trkpt><trkpt lat="42.2393917" lon="14.1862383"><ele>252.0</ele><time>2026-05-01T13:47:09.98Z</time></trkpt><trkpt lat="42.2394467" lon="14.1861533"><ele>253.0</ele><time>2026-05-01T13:47:10.98Z</time></trkpt><trkpt lat="42.2395133" lon="14.18609"><ele>254.0</ele><time>2026-05-01T13:47:11.979Z</time></trkpt><trkpt lat="42.23958" lon="14.1860117"><ele>255.0</ele><time>2026-05-01T13:47:12.98Z</time></trkpt><trkpt lat="42.2396483" lon="14.1859317"><ele>255.0</ele><time>2026-05-01T13:47:13.98Z</time></trkpt><trkpt lat="42.239715" lon="14.1858367"><ele>255.0</ele><time>2026-05-01T13:47:14.98Z</time></trkpt><trkpt lat="42.2397767" lon="14.1857333"><ele>255.0</ele><time>2026-05-01T13:47:15.98Z</time></trkpt><trkpt lat="42.239835" lon="14.1856267"><ele>255.0</ele><time>2026-05-01T13:47:16.98Z</time></trkpt><trkpt lat="42.2398867" lon="14.185515"><ele>255.0</ele><time>2026-05-01T13:47:17.98Z</time></trkpt><trkpt lat="42.2399417" lon="14.185405"><ele>254.6</ele><time>2026-05-01T13:47:18.98Z</time></trkpt><trkpt lat="42.240015" lon="14.1852933"><ele>254.2</ele><time>2026-05-01T13:47:19.979Z</time></trkpt><trkpt lat="42.2400967" lon="14.1851983"><ele>253.8</ele><time>2026-05-01T13:47:20.98Z</time></trkpt><trkpt lat="42.240175" lon="14.1851033"><ele>253.4</ele><time>2026-05-01T13:47:21.98Z</time></trkpt><trkpt lat="42.240245" lon="14.1850233"><ele>253.0</ele><time>2026-05-01T13:47:22.98Z</time></trkpt><trkpt lat="42.2403183" lon="14.1849467"><ele>252.99999999999997</ele><time>2026-05-01T13:47:23.98Z</time></trkpt><trkpt lat="42.2403867" lon="14.1848667"><ele>253.0</ele><time>2026-05-01T13:47:24.98Z</time></trkpt><trkpt lat="42.2404517" lon="14.1848"><ele>253.0</ele><time>2026-05-01T13:47:25.98Z</time></trkpt><trkpt lat="42.240505" lon="14.1847517"><ele>253.0</ele><time>2026-05-01T13:47:26.98Z</time></trkpt><trkpt lat="42.24059" lon="14.1846917"><ele>252.99999999999997</ele><time>2026-05-01T13:47:28.98Z</time></trkpt><trkpt lat="42.2406883" lon="14.184735"><ele>253.0</ele><time>2026-05-01T13:47:30.98Z</time></trkpt><trkpt lat="42.2407883" lon="14.1848017"><ele>252.99999999999997</ele><time>2026-05-01T13:47:32.98Z</time></trkpt><trkpt lat="42.2408467" lon="14.1848417"><ele>253.0</ele><time>2026-05-01T13:47:33.98Z</time></trkpt><trkpt lat="42.240915" lon="14.1848867"><ele>253.0</ele><time>2026-05-01T13:47:34.98Z</time></trkpt><trkpt lat="42.2409917" lon="14.1849433"><ele>253.0</ele><time>2026-05-01T13:47:35.98Z</time></trkpt><trkpt lat="42.2410783" lon="14.1849983"><ele>252.99999999999997</ele><time>2026-05-01T13:47:36.979Z</time></trkpt><trkpt lat="42.2411733" lon="14.185055"><ele>253.0</ele><time>2026-05-01T13:47:37.98Z</time></trkpt><trkpt lat="42.2412683" lon="14.185105"><ele>252.33333333333331</ele><time>2026-05-01T13:47:38.98Z</time></trkpt><trkpt lat="42.24135" lon="14.1851433"><ele>251.66666666666666</ele><time>2026-05-01T13:47:39.98Z</time></trkpt><trkpt lat="42.2414267" lon="14.1851733"><ele>251.0</ele><time>2026-05-01T13:47:40.979Z</time></trkpt><trkpt lat="42.24151" lon="14.18518"><ele>250.33333333333331</ele><time>2026-05-01T13:47:41.98Z</time></trkpt><trkpt lat="42.2416017" lon="14.1851683"><ele>249.66666666666666</ele><time>2026-05-01T13:47:42.98Z</time></trkpt><trkpt lat="42.2416833" lon="14.1851183"><ele>249.0</ele><time>2026-05-01T13:47:43.98Z</time></trkpt><trkpt lat="42.2417533" lon="14.1850583"><ele>248.39999999999998</ele><time>2026-05-01T13:47:44.98Z</time></trkpt><trkpt lat="42.2418217" lon="14.18496"><ele>247.79999999999998</ele><time>2026-05-01T13:47:45.98Z</time></trkpt><trkpt lat="42.2418817" lon="14.184865"><ele>247.20000000000002</ele><time>2026-05-01T13:47:46.98Z</time></trkpt><trkpt lat="42.241945" lon="14.184755"><ele>246.60000000000002</ele><time>2026-05-01T13:47:47.979Z</time></trkpt><trkpt lat="42.2419917" lon="14.1846317"><ele>246.0</ele><time>2026-05-01T13:47:48.98Z</time></trkpt><trkpt lat="42.2420183" lon="14.1845"><ele>246.0</ele><time>2026-05-01T13:47:49.98Z</time></trkpt><trkpt lat="42.242045" lon="14.1843617"><ele>246.00000000000003</ele><time>2026-05-01T13:47:50.98Z</time></trkpt><trkpt lat="42.2420533" lon="14.1842117"><ele>246.00000000000003</ele><time>2026-05-01T13:47:51.98Z</time></trkpt><trkpt lat="42.2420583" lon="14.184075"><ele>246.0</ele><time>2026-05-01T13:47:52.979Z</time></trkpt><trkpt lat="42.2420783" lon="14.1839533"><ele>246.0</ele><time>2026-05-01T13:47:53.98Z</time></trkpt><trkpt lat="42.242115" lon="14.1838533"><ele>246.0</ele><time>2026-05-01T13:47:54.979Z</time></trkpt><trkpt lat="42.2421683" lon="14.183745"><ele>246.00000000000003</ele><time>2026-05-01T13:47:55.98Z</time></trkpt><trkpt lat="42.2422317" lon="14.1836317"><ele>246.00000000000003</ele><time>2026-05-01T13:47:56.98Z</time></trkpt><trkpt lat="42.24229" lon="14.1835183"><ele>246.0</ele><time>2026-05-01T13:47:57.98Z</time></trkpt><trkpt lat="42.2423567" lon="14.1834267"><ele>246.0</ele><time>2026-05-01T13:47:58.979Z</time></trkpt><trkpt lat="42.2424283" lon="14.1833683"><ele>246.20000000000002</ele><time>2026-05-01T13:47:59.98Z</time></trkpt><trkpt lat="42.242495" lon="14.18334"><ele>246.40000000000003</ele><time>2026-05-01T13:48:00.98Z</time></trkpt><trkpt lat="42.2425717" lon="14.1833083"><ele>246.6</ele><time>2026-05-01T13:48:01.98Z</time></trkpt><trkpt lat="42.2426733" lon="14.1833183"><ele>246.8</ele><time>2026-05-01T13:48:02.979Z</time></trkpt><trkpt lat="42.24278" lon="14.1833483"><ele>247.0</ele><time>2026-05-01T13:48:03.98Z</time></trkpt><trkpt lat="42.2428817" lon="14.1833883"><ele>246.99999999999997</ele><time>2026-05-01T13:48:04.98Z</time></trkpt><trkpt lat="42.2429667" lon="14.1834117"><ele>247.0</ele><time>2026-05-01T13:48:05.98Z</time></trkpt><trkpt lat="42.2430433" lon="14.18343"><ele>247.0</ele><time>2026-05-01T13:48:06.98Z</time></trkpt><trkpt lat="42.243115" lon="14.18344"><ele>247.0</ele><time>2026-05-01T13:48:07.979Z</time></trkpt><trkpt lat="42.2431817" lon="14.1834417"><ele>246.99999999999997</ele><time>2026-05-01T13:48:08.98Z</time></trkpt><trkpt lat="42.2432783" lon="14.1834133"><ele>247.0</ele><time>2026-05-01T13:48:10.98Z</time></trkpt><trkpt lat="42.2433367" lon="14.1833167"><ele>246.99999999999997</ele><time>2026-05-01T13:48:12.98Z</time></trkpt><trkpt lat="42.2433417" lon="14.1832133"><ele>247.0</ele><time>2026-05-01T13:48:16.98Z</time></trkpt><trkpt lat="42.2432567" lon="14.183145"><ele>247.0</ele><time>2026-05-01T13:48:18.98Z</time></trkpt><trkpt lat="42.243195" lon="14.183105"><ele>247.0</ele><time>2026-05-01T13:48:19.98Z</time></trkpt><trkpt lat="42.2431083" lon="14.1830633"><ele>246.99999999999997</ele><time>2026-05-01T13:48:20.98Z</time></trkpt><trkpt lat="42.243005" lon="14.1830067"><ele>247.0</ele><time>2026-05-01T13:48:21.98Z</time></trkpt><trkpt lat="42.2428817" lon="14.1829367"><ele>247.5</ele><time>2026-05-01T13:48:22.979Z</time></trkpt><trkpt lat="42.2427567" lon="14.1828617"><ele>248.0</ele><time>2026-05-01T13:48:23.98Z</time></trkpt><trkpt lat="42.2426417" lon="14.1827717"><ele>248.5</ele><time>2026-05-01T13:48:24.98Z</time></trkpt><trkpt lat="42.2425433" lon="14.182685"><ele>249.0</ele><time>2026-05-01T13:48:25.98Z</time></trkpt><trkpt lat="42.2424633" lon="14.1826033"><ele>249.0</ele><time>2026-05-01T13:48:26.979Z</time></trkpt><trkpt lat="42.24241" lon="14.182535"><ele>248.99999999999997</ele><time>2026-05-01T13:48:27.98Z</time></trkpt><trkpt lat="42.2423567" lon="14.18243"><ele>248.99999999999997</ele><time>2026-05-01T13:48:29.98Z</time></trkpt><trkpt lat="42.2424017" lon="14.18232"><ele>249.0</ele><time>2026-05-01T13:48:31.98Z</time></trkpt><trkpt lat="42.242535" lon="14.1822583"><ele>249.0</ele><time>2026-05-01T13:48:33.979Z</time></trkpt><trkpt lat="42.2426183" lon="14.18223"><ele>249.39999999999998</ele><time>2026-05-01T13:48:34.98Z</time></trkpt><trkpt lat="42.2427" lon="14.18219"><ele>249.79999999999998</ele><time>2026-05-01T13:48:35.979Z</time></trkpt><trkpt lat="42.242785" lon="14.1821483"><ele>250.20000000000002</ele><time>2026-05-01T13:48:36.98Z</time></trkpt><trkpt lat="42.2428733" lon="14.1821017"><ele>250.60000000000002</ele><time>2026-05-01T13:48:37.98Z</time></trkpt><trkpt lat="42.2429583" lon="14.1820467"><ele>251.0</ele><time>2026-05-01T13:48:38.98Z</time></trkpt><trkpt lat="42.2430483" lon="14.18199"><ele>250.0</ele><time>2026-05-01T13:48:39.98Z</time></trkpt><trkpt lat="42.2431367" lon="14.1819417"><ele>249.00000000000003</ele><time>2026-05-01T13:48:40.98Z</time></trkpt><trkpt lat="42.2432233" lon="14.1819083"><ele>248.00000000000003</ele><time>2026-05-01T13:48:41.979Z</time></trkpt><trkpt lat="42.24331" lon="14.181865"><ele>247.0</ele><time>2026-05-01T13:48:42.98Z</time></trkpt><trkpt lat="42.2434033" lon="14.1818033"><ele>246.0</ele><time>2026-05-01T13:48:43.979Z</time></trkpt><trkpt lat="42.2435067" lon="14.18174"><ele>246.0</ele><time>2026-05-01T13:48:44.98Z</time></trkpt><trkpt lat="42.243615" lon="14.18169"><ele>246.0</ele><time>2026-05-01T13:48:45.98Z</time></trkpt><trkpt lat="42.2437233" lon="14.18163"><ele>246.0</ele><time>2026-05-01T13:48:46.98Z</time></trkpt><trkpt lat="42.2438367" lon="14.181575"><ele>246.0</ele><time>2026-05-01T13:48:47.98Z</time></trkpt><trkpt lat="42.2439417" lon="14.181515"><ele>245.0</ele><time>2026-05-01T13:48:48.98Z</time></trkpt><trkpt lat="42.24405" lon="14.18146"><ele>244.00000000000003</ele><time>2026-05-01T13:48:49.98Z</time></trkpt><trkpt lat="42.24415" lon="14.1814067"><ele>243.00000000000003</ele><time>2026-05-01T13:48:50.98Z</time></trkpt><trkpt lat="42.24425" lon="14.1813533"><ele>242.0</ele><time>2026-05-01T13:48:51.98Z</time></trkpt><trkpt lat="42.2443483" lon="14.18129"><ele>241.0</ele><time>2026-05-01T13:48:52.98Z</time></trkpt><trkpt lat="42.2444417" lon="14.1812333"><ele>240.99999999999997</ele><time>2026-05-01T13:48:53.98Z</time></trkpt><trkpt lat="42.244535" lon="14.1811717"><ele>241.0</ele><time>2026-05-01T13:48:54.979Z</time></trkpt><trkpt lat="42.2446183" lon="14.1811133"><ele>241.0</ele><time>2026-05-01T13:48:55.98Z</time></trkpt><trkpt lat="42.2446983" lon="14.18107"><ele>241.0</ele><time>2026-05-01T13:48:56.98Z</time></trkpt><trkpt lat="42.2447733" lon="14.1810383"><ele>240.99999999999997</ele><time>2026-05-01T13:48:57.98Z</time></trkpt><trkpt lat="42.2448367" lon="14.18103"><ele>241.0</ele><time>2026-05-01T13:48:58.979Z</time></trkpt><trkpt lat="42.2449017" lon="14.1810367"><ele>240.4</ele><time>2026-05-01T13:48:59.979Z</time></trkpt><trkpt lat="42.2450283" lon="14.1810933"><ele>239.8</ele><time>2026-05-01T13:49:01.979Z</time></trkpt><trkpt lat="42.245105" lon="14.1811567"><ele>239.20000000000002</ele><time>2026-05-01T13:49:02.979Z</time></trkpt><trkpt lat="42.2451933" lon="14.1812433"><ele>238.60000000000002</ele><time>2026-05-01T13:49:03.979Z</time></trkpt><trkpt lat="42.2452867" lon="14.18133"><ele>238.0</ele><time>2026-05-01T13:49:04.979Z</time></trkpt><trkpt lat="42.245385" lon="14.1814067"><ele>238.0</ele><time>2026-05-01T13:49:05.979Z</time></trkpt><trkpt lat="42.2454883" lon="14.18147"><ele>238.0</ele><time>2026-05-01T13:49:06.979Z</time></trkpt><trkpt lat="42.2455883" lon="14.1815067"><ele>238.0</ele><time>2026-05-01T13:49:07.979Z</time></trkpt><trkpt lat="42.2456917" lon="14.1815467"><ele>238.0</ele><time>2026-05-01T13:49:08.979Z</time></trkpt><trkpt lat="42.245785" lon="14.1816067"><ele>238.0</ele><time>2026-05-01T13:49:09.978Z</time></trkpt><trkpt lat="42.2458783" lon="14.1816883"><ele>237.75</ele><time>2026-05-01T13:49:10.979Z</time></trkpt><trkpt lat="42.2459717" lon="14.1817717"><ele>237.5</ele><time>2026-05-01T13:49:11.979Z</time></trkpt><trkpt lat="42.24607" lon="14.1818383"><ele>237.25</ele><time>2026-05-01T13:49:12.978Z</time></trkpt><trkpt lat="42.2461733" lon="14.18188"><ele>237.0</ele><time>2026-05-01T13:49:13.979Z</time></trkpt><trkpt lat="42.2462933" lon="14.1819"><ele>237.0</ele><time>2026-05-01T13:49:14.978Z</time></trkpt><trkpt lat="42.2464233" lon="14.1818883"><ele>237.0</ele><time>2026-05-01T13:49:15.979Z</time></trkpt><trkpt lat="42.2465483" lon="14.1818883"><ele>237.0</ele><time>2026-05-01T13:49:16.979Z</time></trkpt><trkpt lat="42.2466617" lon="14.181895"><ele>237.0</ele><time>2026-05-01T13:49:17.978Z</time></trkpt><trkpt lat="42.2467633" lon="14.1818967"><ele>236.0</ele><time>2026-05-01T13:49:18.979Z</time></trkpt><trkpt lat="42.246865" lon="14.1819283"><ele>235.0</ele><time>2026-05-01T13:49:19.979Z</time></trkpt><trkpt lat="42.24697" lon="14.1819767"><ele>234.0</ele><time>2026-05-01T13:49:20.979Z</time></trkpt><trkpt lat="42.2470683" lon="14.1820367"><ele>233.0</ele><time>2026-05-01T13:49:21.979Z</time></trkpt><trkpt lat="42.2471583" lon="14.18211"><ele>232.0</ele><time>2026-05-01T13:49:22.979Z</time></trkpt><trkpt lat="42.2472367" lon="14.1821883"><ele>231.99999999999997</ele><time>2026-05-01T13:49:23.979Z</time></trkpt><trkpt lat="42.247295" lon="14.18229"><ele>232.0</ele><time>2026-05-01T13:49:24.979Z</time></trkpt><trkpt lat="42.2473433" lon="14.18239"><ele>232.0</ele><time>2026-05-01T13:49:25.978Z</time></trkpt><trkpt lat="42.2473817" lon="14.1824933"><ele>232.0</ele><time>2026-05-01T13:49:26.978Z</time></trkpt><trkpt lat="42.2474183" lon="14.1825833"><ele>231.99999999999997</ele><time>2026-05-01T13:49:27.979Z</time></trkpt><trkpt lat="42.24744" lon="14.1826683"><ele>232.0</ele><time>2026-05-01T13:49:28.978Z</time></trkpt><trkpt lat="42.2475133" lon="14.1828067"><ele>232.0</ele><time>2026-05-01T13:49:30.979Z</time></trkpt><trkpt lat="42.2475683" lon="14.1828733"><ele>232.0</ele><time>2026-05-01T13:49:31.979Z</time></trkpt><trkpt lat="42.2476283" lon="14.182925"><ele>232.0</ele><time>2026-05-01T13:49:32.978Z</time></trkpt><trkpt lat="42.2476833" lon="14.18297"><ele>232.0</ele><time>2026-05-01T13:49:33.979Z</time></trkpt><trkpt lat="42.2477867" lon="14.183045"><ele>232.0</ele><time>2026-05-01T13:49:35.978Z</time></trkpt><trkpt lat="42.2478967" lon="14.1831467"><ele>232.33333333333331</ele><time>2026-05-01T13:49:37.979Z</time></trkpt><trkpt lat="42.247945" lon="14.1832183"><ele>232.66666666666666</ele><time>2026-05-01T13:49:38.978Z</time></trkpt><trkpt lat="42.2479867" lon="14.1832967"><ele>233.0</ele><time>2026-05-01T13:49:39.979Z</time></trkpt><trkpt lat="42.2480233" lon="14.1833817"><ele>233.33333333333331</ele><time>2026-05-01T13:49:40.979Z</time></trkpt><trkpt lat="42.2480567" lon="14.183465"><ele>233.66666666666666</ele><time>2026-05-01T13:49:41.979Z</time></trkpt><trkpt lat="42.2480967" lon="14.1836217"><ele>234.0</ele><time>2026-05-01T13:49:43.979Z</time></trkpt><trkpt lat="42.2480983" lon="14.18371"><ele>234.0</ele><time>2026-05-01T13:49:44.979Z</time></trkpt><trkpt lat="42.2480667" lon="14.1838583"><ele>233.99999999999997</ele><time>2026-05-01T13:49:46.979Z</time></trkpt><trkpt lat="42.2480417" lon="14.1839517"><ele>233.99999999999997</ele><time>2026-05-01T13:49:48.978Z</time></trkpt><trkpt lat="42.2481133" lon="14.1839333"><ele>234.0</ele><time>2026-05-01T13:49:53.979Z</time></trkpt><trkpt lat="42.2481883" lon="14.1837867"><ele>234.0</ele><time>2026-05-01T13:49:55.978Z</time></trkpt><trkpt lat="42.2482217" lon="14.1837033"><ele>232.66666666666666</ele><time>2026-05-01T13:49:56.979Z</time></trkpt><trkpt lat="42.2482817" lon="14.1835717"><ele>231.33333333333331</ele><time>2026-05-01T13:49:58.979Z</time></trkpt><trkpt lat="42.2483217" lon="14.1834983"><ele>230.0</ele><time>2026-05-01T13:50:00.978Z</time></trkpt><trkpt lat="42.2483583" lon="14.1834283"><ele>228.66666666666666</ele><time>2026-05-01T13:50:02.978Z</time></trkpt><trkpt lat="42.2484" lon="14.1833617"><ele>227.33333333333331</ele><time>2026-05-01T13:50:04.979Z</time></trkpt><trkpt lat="42.24847" lon="14.1832817"><ele>226.0</ele><time>2026-05-01T13:50:07.979Z</time></trkpt><trkpt lat="42.248445" lon="14.1831983"><ele>225.99999999999997</ele><time>2026-05-01T13:50:10.978Z</time></trkpt><trkpt lat="42.2483733" lon="14.1832583"><ele>226.0</ele><time>2026-05-01T13:50:12.979Z</time></trkpt><trkpt lat="42.24833" lon="14.1833317"><ele>226.0</ele><time>2026-05-01T13:50:13.979Z</time></trkpt><trkpt lat="42.2482867" lon="14.1834333"><ele>226.0</ele><time>2026-05-01T13:50:14.979Z</time></trkpt><trkpt lat="42.2482467" lon="14.18355"><ele>225.99999999999997</ele><time>2026-05-01T13:50:15.978Z</time></trkpt><trkpt lat="42.2482017" lon="14.1836817"><ele>226.0</ele><time>2026-05-01T13:50:16.979Z</time></trkpt><trkpt lat="42.2481533" lon="14.183805"><ele>226.33333333333331</ele><time>2026-05-01T13:50:17.979Z</time></trkpt><trkpt lat="42.2481033" lon="14.1839133"><ele>226.66666666666666</ele><time>2026-05-01T13:50:18.979Z</time></trkpt><trkpt lat="42.24805" lon="14.1840133"><ele>227.0</ele><time>2026-05-01T13:50:19.978Z</time></trkpt><trkpt lat="42.248" lon="14.18411"><ele>227.33333333333331</ele><time>2026-05-01T13:50:20.979Z</time></trkpt><trkpt lat="42.2479617" lon="14.18418"><ele>227.66666666666666</ele><time>2026-05-01T13:50:21.979Z</time></trkpt><trkpt lat="42.2478933" lon="14.18424"><ele>228.0</ele><time>2026-05-01T13:50:24.978Z</time></trkpt><trkpt lat="42.2478283" lon="14.1843283"><ele>228.0</ele><time>2026-05-01T13:50:27.978Z</time></trkpt><trkpt lat="42.24793" lon="14.1842917"><ele>228.0</ele><time>2026-05-01T13:50:32.978Z</time></trkpt><trkpt lat="42.248005" lon="14.184165"><ele>228.0</ele><time>2026-05-01T13:50:34.979Z</time></trkpt><trkpt lat="42.247965" lon="14.1840567"><ele>228.0</ele><time>2026-05-01T13:50:36.978Z</time></trkpt><trkpt lat="42.24787" lon="14.184105"><ele>228.0</ele><time>2026-05-01T13:50:38.979Z</time></trkpt><trkpt lat="42.24777" lon="14.1841817"><ele>228.0</ele><time>2026-05-01T13:50:40.979Z</time></trkpt><trkpt lat="42.247675" lon="14.184175"><ele>228.0</ele><time>2026-05-01T13:50:42.978Z</time></trkpt><trkpt lat="42.24758" lon="14.1840633"><ele>228.0</ele><time>2026-05-01T13:50:44.979Z</time></trkpt><trkpt lat="42.24753" lon="14.1839883"><ele>228.0</ele><time>2026-05-01T13:50:45.979Z</time></trkpt><trkpt lat="42.2474817" lon="14.1839233"><ele>228.0</ele><time>2026-05-01T13:50:46.979Z</time></trkpt><trkpt lat="42.247415" lon="14.1838433"><ele>228.0</ele><time>2026-05-01T13:50:48.979Z</time></trkpt><trkpt lat="42.2473867" lon="14.1837417"><ele>228.0</ele><time>2026-05-01T13:50:58.978Z</time></trkpt><trkpt lat="42.2474283" lon="14.183855"><ele>228.0</ele><time>2026-05-01T13:51:44.978Z</time></trkpt><trkpt lat="42.2475267" lon="14.1839617"><ele>228.0</ele><time>2026-05-01T13:51:46.978Z</time></trkpt><trkpt lat="42.2475833" lon="14.1840283"><ele>228.0</ele><time>2026-05-01T13:51:47.979Z</time></trkpt><trkpt lat="42.2476367" lon="14.1840917"><ele>228.0</ele><time>2026-05-01T13:51:48.979Z</time></trkpt><trkpt lat="42.2476883" lon="14.1841483"><ele>228.0</ele><time>2026-05-01T13:51:49.979Z</time></trkpt><trkpt lat="42.2477883" lon="14.1841967"><ele>228.0</ele><time>2026-05-01T13:51:51.979Z</time></trkpt><trkpt lat="42.2479" lon="14.184145"><ele>228.0</ele><time>2026-05-01T13:51:53.979Z</time></trkpt><trkpt lat="42.24796" lon="14.184115"><ele>228.0</ele><time>2026-05-01T13:51:55.978Z</time></trkpt><trkpt lat="42.2479433" lon="14.18421"><ele>228.0</ele><time>2026-05-01T13:51:58.978Z</time></trkpt><trkpt lat="42.2478467" lon="14.1843117"><ele>228.0</ele><time>2026-05-01T13:52:00.978Z</time></trkpt><trkpt lat="42.2477867" lon="14.18435"><ele>228.0</ele><time>2026-05-01T13:52:01.979Z</time></trkpt><trkpt lat="42.247715" lon="14.184375"><ele>228.0</ele><time>2026-05-01T13:52:02.979Z</time></trkpt><trkpt lat="42.247635" lon="14.1843867"><ele>228.0</ele><time>2026-05-01T13:52:03.979Z</time></trkpt><trkpt lat="42.2475667" lon="14.1843883"><ele>228.0</ele><time>2026-05-01T13:52:04.978Z</time></trkpt><trkpt lat="42.2474767" lon="14.1843783"><ele>228.0</ele><time>2026-05-01T13:52:06.979Z</time></trkpt><trkpt lat="42.2474083" lon="14.18441"><ele>228.0</ele><time>2026-05-01T13:52:08.979Z</time></trkpt><trkpt lat="42.2474017" lon="14.1844967"><ele>228.0</ele><time>2026-05-01T13:52:10.978Z</time></trkpt><trkpt lat="42.24748" lon="14.184595"><ele>228.0</ele><time>2026-05-01T13:52:12.977Z</time></trkpt><trkpt lat="42.2475683" lon="14.18471"><ele>228.0</ele><time>2026-05-01T13:52:14.978Z</time></trkpt><trkpt lat="42.2476167" lon="14.184775"><ele>228.0</ele><time>2026-05-01T13:52:15.978Z</time></trkpt><trkpt lat="42.2476567" lon="14.18486"><ele>228.0</ele><time>2026-05-01T13:52:16.977Z</time></trkpt><trkpt lat="42.24769" lon="14.184955"><ele>226.60000000000002</ele><time>2026-05-01T13:52:17.978Z</time></trkpt><trkpt lat="42.24772" lon="14.185075"><ele>225.20000000000002</ele><time>2026-05-01T13:52:18.977Z</time></trkpt><trkpt lat="42.247745" lon="14.18521"><ele>223.8</ele><time>2026-05-01T13:52:19.977Z</time></trkpt><trkpt lat="42.2477683" lon="14.185365"><ele>222.4</ele><time>2026-05-01T13:52:20.978Z</time></trkpt><trkpt lat="42.2478167" lon="14.185515"><ele>221.0</ele><time>2026-05-01T13:52:21.978Z</time></trkpt><trkpt lat="42.2478733" lon="14.1856583"><ele>221.0</ele><time>2026-05-01T13:52:22.978Z</time></trkpt><trkpt lat="42.2479283" lon="14.1857917"><ele>221.00000000000003</ele><time>2026-05-01T13:52:23.978Z</time></trkpt><trkpt lat="42.24799" lon="14.185925"><ele>221.00000000000003</ele><time>2026-05-01T13:52:24.978Z</time></trkpt><trkpt lat="42.2480533" lon="14.1860517"><ele>221.0</ele><time>2026-05-01T13:52:25.978Z</time></trkpt><trkpt lat="42.2481183" lon="14.1861617"><ele>221.0</ele><time>2026-05-01T13:52:26.978Z</time></trkpt><trkpt lat="42.248195" lon="14.1862583"><ele>222.25</ele><time>2026-05-01T13:52:27.977Z</time></trkpt><trkpt lat="42.2482917" lon="14.1863283"><ele>223.5</ele><time>2026-05-01T13:52:28.978Z</time></trkpt><trkpt lat="42.2483967" lon="14.1863867"><ele>224.75</ele><time>2026-05-01T13:52:29.978Z</time></trkpt><trkpt lat="42.2485133" lon="14.186435"><ele>226.0</ele><time>2026-05-01T13:52:30.978Z</time></trkpt><trkpt lat="42.2486233" lon="14.186475"><ele>225.0</ele><time>2026-05-01T13:52:31.978Z</time></trkpt><trkpt lat="42.2487233" lon="14.1865267"><ele>224.00000000000003</ele><time>2026-05-01T13:52:32.977Z</time></trkpt><trkpt lat="42.2488217" lon="14.1865583"><ele>223.00000000000003</ele><time>2026-05-01T13:52:33.978Z</time></trkpt><trkpt lat="42.2489167" lon="14.186565"><ele>222.0</ele><time>2026-05-01T13:52:34.978Z</time></trkpt><trkpt lat="42.2490133" lon="14.1865667"><ele>221.0</ele><time>2026-05-01T13:52:35.978Z</time></trkpt><trkpt lat="42.2490917" lon="14.186565"><ele>221.0</ele><time>2026-05-01T13:52:36.978Z</time></trkpt><trkpt lat="42.2491867" lon="14.18658"><ele>221.00000000000003</ele><time>2026-05-01T13:52:38.978Z</time></trkpt><trkpt lat="42.249215" lon="14.1866833"><ele>221.00000000000003</ele><time>2026-05-01T13:52:40.978Z</time></trkpt><trkpt lat="42.249205" lon="14.1867817"><ele>221.0</ele><time>2026-05-01T13:52:41.978Z</time></trkpt><trkpt lat="42.2491867" lon="14.1869183"><ele>221.0</ele><time>2026-05-01T13:52:42.978Z</time></trkpt><trkpt lat="42.249165" lon="14.1870733"><ele>221.0</ele><time>2026-05-01T13:52:43.978Z</time></trkpt><trkpt lat="42.2491517" lon="14.18725"><ele>221.0</ele><time>2026-05-01T13:52:44.978Z</time></trkpt><trkpt lat="42.2491367" lon="14.1874217"><ele>221.0</ele><time>2026-05-01T13:52:45.978Z</time></trkpt><trkpt lat="42.2491183" lon="14.187585"><ele>221.0</ele><time>2026-05-01T13:52:46.977Z</time></trkpt><trkpt lat="42.2491033" lon="14.1877433"><ele>221.20000000000002</ele><time>2026-05-01T13:52:47.978Z</time></trkpt><trkpt lat="42.2490733" lon="14.1878983"><ele>221.40000000000003</ele><time>2026-05-01T13:52:48.978Z</time></trkpt><trkpt lat="42.24904" lon="14.18805"><ele>221.6</ele><time>2026-05-01T13:52:49.978Z</time></trkpt><trkpt lat="42.2490033" lon="14.1881617"><ele>221.8</ele><time>2026-05-01T13:52:50.978Z</time></trkpt><trkpt lat="42.2489733" lon="14.18827"><ele>222.0</ele><time>2026-05-01T13:52:51.978Z</time></trkpt><trkpt lat="42.248965" lon="14.1883717"><ele>222.0</ele><time>2026-05-01T13:52:52.978Z</time></trkpt><trkpt lat="42.2489833" lon="14.188465"><ele>222.0</ele><time>2026-05-01T13:52:53.978Z</time></trkpt><trkpt lat="42.2490283" lon="14.1885367"><ele>222.0</ele><time>2026-05-01T13:52:54.978Z</time></trkpt><trkpt lat="42.2490967" lon="14.1885817"><ele>222.0</ele><time>2026-05-01T13:52:55.978Z</time></trkpt><trkpt lat="42.2491967" lon="14.18861"><ele>222.0</ele><time>2026-05-01T13:52:56.978Z</time></trkpt><trkpt lat="42.2493117" lon="14.1886333"><ele>222.0</ele><time>2026-05-01T13:52:57.978Z</time></trkpt><trkpt lat="42.2494583" lon="14.1886567"><ele>222.0</ele><time>2026-05-01T13:52:58.978Z</time></trkpt><trkpt lat="42.249615" lon="14.188695"><ele>222.0</ele><time>2026-05-01T13:52:59.978Z</time></trkpt><trkpt lat="42.24975" lon="14.1887517"><ele>222.0</ele><time>2026-05-01T13:53:00.977Z</time></trkpt><trkpt lat="42.2498917" lon="14.1888417"><ele>221.33333333333331</ele><time>2026-05-01T13:53:01.978Z</time></trkpt><trkpt lat="42.2500267" lon="14.1889517"><ele>220.66666666666666</ele><time>2026-05-01T13:53:02.978Z</time></trkpt><trkpt lat="42.2501733" lon="14.1890483"><ele>220.0</ele><time>2026-05-01T13:53:03.978Z</time></trkpt><trkpt lat="42.25032" lon="14.1891367"><ele>221.25</ele><time>2026-05-01T13:53:04.977Z</time></trkpt><trkpt lat="42.250455" lon="14.1892183"><ele>222.5</ele><time>2026-05-01T13:53:05.977Z</time></trkpt><trkpt lat="42.250585" lon="14.18927"><ele>223.75</ele><time>2026-05-01T13:53:06.978Z</time></trkpt><trkpt lat="42.2507167" lon="14.1892883"><ele>225.0</ele><time>2026-05-01T13:53:07.978Z</time></trkpt><trkpt lat="42.2508483" lon="14.189245"><ele>225.0</ele><time>2026-05-01T13:53:08.978Z</time></trkpt><trkpt lat="42.250995" lon="14.1891683"><ele>225.0</ele><time>2026-05-01T13:53:09.978Z</time></trkpt><trkpt lat="42.2511267" lon="14.18906"><ele>225.0</ele><time>2026-05-01T13:53:10.978Z</time></trkpt><trkpt lat="42.25125" lon="14.188935"><ele>224.75</ele><time>2026-05-01T13:53:11.978Z</time></trkpt><trkpt lat="42.2513717" lon="14.1888267"><ele>224.5</ele><time>2026-05-01T13:53:12.978Z</time></trkpt><trkpt lat="42.2514817" lon="14.1887333"><ele>224.25</ele><time>2026-05-01T13:53:13.978Z</time></trkpt><trkpt lat="42.2515733" lon="14.18866"><ele>224.0</ele><time>2026-05-01T13:53:14.978Z</time></trkpt><trkpt lat="42.2516533" lon="14.1886017"><ele>224.0</ele><time>2026-05-01T13:53:15.978Z</time></trkpt><trkpt lat="42.2517083" lon="14.1885583"><ele>223.99999999999997</ele><time>2026-05-01T13:53:16.978Z</time></trkpt><trkpt lat="42.2517517" lon="14.188455"><ele>223.99999999999997</ele><time>2026-05-01T13:53:18.977Z</time></trkpt><trkpt lat="42.2517317" lon="14.1883083"><ele>224.0</ele><time>2026-05-01T13:53:20.978Z</time></trkpt><trkpt lat="42.2517367" lon="14.18815"><ele>224.0</ele><time>2026-05-01T13:53:22.978Z</time></trkpt><trkpt lat="42.2517733" lon="14.1880633"><ele>223.50000000000003</ele><time>2026-05-01T13:53:23.978Z</time></trkpt><trkpt lat="42.2518133" lon="14.1879683"><ele>223.0</ele><time>2026-05-01T13:53:24.978Z</time></trkpt><trkpt lat="42.2518667" lon="14.187875"><ele>222.5</ele><time>2026-05-01T13:53:25.978Z</time></trkpt><trkpt lat="42.251935" lon="14.1877967"><ele>222.0</ele><time>2026-05-01T13:53:26.978Z</time></trkpt><trkpt lat="42.2520033" lon="14.187725"><ele>221.50000000000003</ele><time>2026-05-01T13:53:27.978Z</time></trkpt><trkpt lat="42.25207" lon="14.1876533"><ele>221.0</ele><time>2026-05-01T13:53:28.977Z</time></trkpt><trkpt lat="42.25213" lon="14.187575"><ele>221.0</ele><time>2026-05-01T13:53:29.978Z</time></trkpt><trkpt lat="42.2521783" lon="14.1874833"><ele>221.00000000000003</ele><time>2026-05-01T13:53:30.978Z</time></trkpt><trkpt lat="42.2522133" lon="14.1873717"><ele>221.00000000000003</ele><time>2026-05-01T13:53:31.978Z</time></trkpt><trkpt lat="42.2522317" lon="14.1872733"><ele>221.0</ele><time>2026-05-01T13:53:32.977Z</time></trkpt><trkpt lat="42.25224" lon="14.1871283"><ele>221.0</ele><time>2026-05-01T13:53:34.978Z</time></trkpt><trkpt lat="42.2523167" lon="14.1870217"><ele>220.83333333333334</ele><time>2026-05-01T13:53:46.978Z</time></trkpt><trkpt lat="42.2523717" lon="14.18697"><ele>220.66666666666669</ele><time>2026-05-01T13:53:49.977Z</time></trkpt><trkpt lat="42.2524" lon="14.1868783"><ele>220.5</ele><time>2026-05-01T13:53:51.978Z</time></trkpt><trkpt lat="42.2524483" lon="14.1867583"><ele>220.33333333333331</ele><time>2026-05-01T13:53:53.978Z</time></trkpt><trkpt lat="42.2525217" lon="14.1866133"><ele>220.16666666666666</ele><time>2026-05-01T13:53:55.977Z</time></trkpt><trkpt lat="42.2525633" lon="14.186545"><ele>220.0</ele><time>2026-05-01T13:53:56.977Z</time></trkpt><trkpt lat="42.2526117" lon="14.18647"><ele>218.8</ele><time>2026-05-01T13:53:57.978Z</time></trkpt><trkpt lat="42.252645" lon="14.1863933"><ele>217.6</ele><time>2026-05-01T13:53:58.978Z</time></trkpt><trkpt lat="42.25268" lon="14.1863217"><ele>216.39999999999998</ele><time>2026-05-01T13:53:59.978Z</time></trkpt><trkpt lat="42.25274" lon="14.1861917"><ele>215.2</ele><time>2026-05-01T13:54:01.978Z</time></trkpt><trkpt lat="42.2528033" lon="14.1860683"><ele>214.0</ele><time>2026-05-01T13:54:03.978Z</time></trkpt><trkpt lat="42.2528667" lon="14.1859417"><ele>214.0</ele><time>2026-05-01T13:54:05.978Z</time></trkpt><trkpt lat="42.2529317" lon="14.1858067"><ele>213.99999999999997</ele><time>2026-05-01T13:54:07.978Z</time></trkpt><trkpt lat="42.25299" lon="14.185675"><ele>213.99999999999997</ele><time>2026-05-01T13:54:09.978Z</time></trkpt><trkpt lat="42.2530333" lon="14.185555"><ele>214.0</ele><time>2026-05-01T13:54:11.977Z</time></trkpt><trkpt lat="42.25307" lon="14.1854633"><ele>214.0</ele><time>2026-05-01T13:54:13.978Z</time></trkpt><trkpt lat="42.25315" lon="14.18545"><ele>214.14285714285717</ele><time>2026-05-01T13:54:16.978Z</time></trkpt><trkpt lat="42.2532083" lon="14.1855067"><ele>214.28571428571428</ele><time>2026-05-01T13:54:18.977Z</time></trkpt><trkpt lat="42.2532733" lon="14.1855583"><ele>214.42857142857144</ele><time>2026-05-01T13:54:20.978Z</time></trkpt><trkpt lat="42.25334" lon="14.185605"><ele>214.57142857142858</ele><time>2026-05-01T13:54:22.978Z</time></trkpt><trkpt lat="42.2534067" lon="14.1856183"><ele>214.71428571428572</ele><time>2026-05-01T13:54:24.977Z</time></trkpt><trkpt lat="42.2534733" lon="14.1856483"><ele>214.85714285714286</ele><time>2026-05-01T13:54:26.978Z</time></trkpt><trkpt lat="42.2535367" lon="14.18568"><ele>215.0</ele><time>2026-05-01T13:54:28.977Z</time></trkpt><trkpt lat="42.253625" lon="14.18574"><ele>215.00000000000003</ele><time>2026-05-01T13:54:30.977Z</time></trkpt><trkpt lat="42.2536733" lon="14.1858133"><ele>215.0</ele><time>2026-05-01T13:54:32.978Z</time></trkpt><trkpt lat="42.2536967" lon="14.18591"><ele>215.0</ele><time>2026-05-01T13:54:34.978Z</time></trkpt><trkpt lat="42.2537067" lon="14.1860417"><ele>215.0</ele><time>2026-05-01T13:54:36.978Z</time></trkpt><trkpt lat="42.253755" lon="14.186135"><ele>215.00000000000003</ele><time>2026-05-01T13:54:38.978Z</time></trkpt><trkpt lat="42.2538483" lon="14.1861567"><ele>215.0</ele><time>2026-05-01T13:54:41.977Z</time></trkpt><trkpt lat="42.2539183" lon="14.186175"><ele>213.7142857142857</ele><time>2026-05-01T13:54:43.977Z</time></trkpt><trkpt lat="42.2539717" lon="14.1862283"><ele>212.42857142857144</ele><time>2026-05-01T13:54:45.978Z</time></trkpt><trkpt lat="42.2540283" lon="14.18629"><ele>211.14285714285714</ele><time>2026-05-01T13:54:47.978Z</time></trkpt><trkpt lat="42.254095" lon="14.18633"><ele>209.85714285714283</ele><time>2026-05-01T13:54:49.978Z</time></trkpt><trkpt lat="42.2541633" lon="14.1863267"><ele>208.57142857142856</ele><time>2026-05-01T13:54:52.978Z</time></trkpt><trkpt lat="42.2541583" lon="14.1862133"><ele>207.28571428571428</ele><time>2026-05-01T13:55:02.978Z</time></trkpt><trkpt lat="42.25418" lon="14.1861317"><ele>206.0</ele><time>2026-05-01T13:55:04.978Z</time></trkpt><trkpt lat="42.254235" lon="14.1860467"><ele>206.00000000000003</ele><time>2026-05-01T13:55:06.977Z</time></trkpt><trkpt lat="42.2542867" lon="14.1859867"><ele>206.0</ele><time>2026-05-01T13:55:08.977Z</time></trkpt><trkpt lat="42.2543667" lon="14.18599"><ele>206.0</ele><time>2026-05-01T13:55:11.977Z</time></trkpt><trkpt lat="42.254435" lon="14.186045"><ele>206.0</ele><time>2026-05-01T13:55:13.976Z</time></trkpt><trkpt lat="42.2545067" lon="14.1860967"><ele>206.00000000000003</ele><time>2026-05-01T13:55:15.976Z</time></trkpt><trkpt lat="42.25462" lon="14.186155"><ele>206.0</ele><time>2026-05-01T13:55:17.977Z</time></trkpt><trkpt lat="42.2546883" lon="14.186205"><ele>206.00000000000003</ele><time>2026-05-01T13:55:18.977Z</time></trkpt><trkpt lat="42.25475" lon="14.1862517"><ele>206.0</ele><time>2026-05-01T13:55:19.977Z</time></trkpt><trkpt lat="42.2548467" lon="14.1863317"><ele>206.0</ele><time>2026-05-01T13:55:21.977Z</time></trkpt><trkpt lat="42.254895" lon="14.186395"><ele>206.0</ele><time>2026-05-01T13:55:23.977Z</time></trkpt><trkpt lat="42.25496" lon="14.1864167"><ele>206.00000000000003</ele><time>2026-05-01T14:01:30.975Z</time></trkpt><trkpt lat="42.25489" lon="14.1863767"><ele>206.0</ele><time>2026-05-01T14:03:10.974Z</time></trkpt><trkpt lat="42.25483" lon="14.1863333"><ele>206.00000000000003</ele><time>2026-05-01T14:03:12.974Z</time></trkpt><trkpt lat="42.2547417" lon="14.186255"><ele>206.0</ele><time>2026-05-01T14:03:14.974Z</time></trkpt><trkpt lat="42.2546867" lon="14.1862133"><ele>206.0</ele><time>2026-05-01T14:03:15.974Z</time></trkpt><trkpt lat="42.2546283" lon="14.18618"><ele>206.0</ele><time>2026-05-01T14:03:16.974Z</time></trkpt><trkpt lat="42.2545283" lon="14.186125"><ele>206.00000000000003</ele><time>2026-05-01T14:03:18.974Z</time></trkpt><trkpt lat="42.2544383" lon="14.186075"><ele>206.0</ele><time>2026-05-01T14:03:20.974Z</time></trkpt><trkpt lat="42.254375" lon="14.1860317"><ele>206.00000000000003</ele><time>2026-05-01T14:03:22.974Z</time></trkpt><trkpt lat="42.254295" lon="14.1859933"><ele>206.0</ele><time>2026-05-01T14:03:25.974Z</time></trkpt><trkpt lat="42.2542133" lon="14.18606"><ele>206.0</ele><time>2026-05-01T14:03:28.974Z</time></trkpt><trkpt lat="42.2541583" lon="14.1861583"><ele>206.0</ele><time>2026-05-01T14:03:30.974Z</time></trkpt><trkpt lat="42.2541633" lon="14.1862533"><ele>206.00000000000003</ele><time>2026-05-01T14:03:32.974Z</time></trkpt><trkpt lat="42.2541333" lon="14.18633"><ele>206.0</ele><time>2026-05-01T14:03:45.974Z</time></trkpt><trkpt lat="42.2540517" lon="14.1862633"><ele>206.0</ele><time>2026-05-01T14:03:47.974Z</time></trkpt><trkpt lat="42.253965" lon="14.1861817"><ele>206.0</ele><time>2026-05-01T14:03:49.974Z</time></trkpt><trkpt lat="42.2538533" lon="14.1861483"><ele>206.0</ele><time>2026-05-01T14:03:51.973Z</time></trkpt><trkpt lat="42.253755" lon="14.186175"><ele>206.0</ele><time>2026-05-01T14:03:53.973Z</time></trkpt><trkpt lat="42.2537017" lon="14.1861267"><ele>206.0</ele><time>2026-05-01T14:03:56.974Z</time></trkpt><trkpt lat="42.253715" lon="14.1859817"><ele>206.50000000000003</ele><time>2026-05-01T14:04:09.974Z</time></trkpt><trkpt lat="42.2536983" lon="14.185865"><ele>207.0</ele><time>2026-05-01T14:04:11.974Z</time></trkpt><trkpt lat="42.2536483" lon="14.185805"><ele>207.5</ele><time>2026-05-01T14:04:13.974Z</time></trkpt><trkpt lat="42.2535783" lon="14.185765"><ele>208.0</ele><time>2026-05-01T14:04:15.974Z</time></trkpt><trkpt lat="42.2535117" lon="14.1857233"><ele>208.50000000000003</ele><time>2026-05-01T14:04:17.974Z</time></trkpt><trkpt lat="42.25344" lon="14.1856817"><ele>209.0</ele><time>2026-05-01T14:04:19.973Z</time></trkpt><trkpt lat="42.2533683" lon="14.185625"><ele>209.0</ele><time>2026-05-01T14:04:21.974Z</time></trkpt><trkpt lat="42.2532967" lon="14.18557"><ele>209.0</ele><time>2026-05-01T14:04:23.974Z</time></trkpt><trkpt lat="42.25321" lon="14.1855017"><ele>209.0</ele><time>2026-05-01T14:04:25.973Z</time></trkpt><trkpt lat="42.253135" lon="14.1854717"><ele>209.0</ele><time>2026-05-01T14:04:27.974Z</time></trkpt><trkpt lat="42.2530567" lon="14.1855333"><ele>209.0</ele><time>2026-05-01T14:04:30.974Z</time></trkpt><trkpt lat="42.25301" lon="14.18565"><ele>210.0</ele><time>2026-05-01T14:04:32.974Z</time></trkpt><trkpt lat="42.252945" lon="14.1857883"><ele>211.0</ele><time>2026-05-01T14:04:34.974Z</time></trkpt><trkpt lat="42.252875" lon="14.1859267"><ele>211.99999999999997</ele><time>2026-05-01T14:04:36.973Z</time></trkpt><trkpt lat="42.2527967" lon="14.1860683"><ele>213.0</ele><time>2026-05-01T14:04:38.974Z</time></trkpt><trkpt lat="42.25276" lon="14.186145"><ele>214.0</ele><time>2026-05-01T14:04:39.974Z</time></trkpt><trkpt lat="42.2527167" lon="14.18623"><ele>213.99999999999997</ele><time>2026-05-01T14:04:40.973Z</time></trkpt><trkpt lat="42.2526833" lon="14.186315"><ele>214.0</ele><time>2026-05-01T14:04:41.974Z</time></trkpt><trkpt lat="42.2526467" lon="14.1864083"><ele>214.0</ele><time>2026-05-01T14:04:42.973Z</time></trkpt><trkpt lat="42.2526083" lon="14.186495"><ele>214.0</ele><time>2026-05-01T14:04:43.973Z</time></trkpt><trkpt lat="42.2525667" lon="14.1865817"><ele>213.99999999999997</ele><time>2026-05-01T14:04:44.974Z</time></trkpt><trkpt lat="42.252525" lon="14.1866667"><ele>214.0</ele><time>2026-05-01T14:04:45.974Z</time></trkpt><trkpt lat="42.2524783" lon="14.1867567"><ele>214.49999999999997</ele><time>2026-05-01T14:04:46.974Z</time></trkpt><trkpt lat="42.2524333" lon="14.1868383"><ele>215.0</ele><time>2026-05-01T14:04:47.974Z</time></trkpt><trkpt lat="42.252395" lon="14.18691"><ele>215.5</ele><time>2026-05-01T14:04:48.974Z</time></trkpt><trkpt lat="42.2523633" lon="14.187005"><ele>216.0</ele><time>2026-05-01T14:04:50.974Z</time></trkpt><trkpt lat="42.25229" lon="14.18703"><ele>216.49999999999997</ele><time>2026-05-01T14:04:53.974Z</time></trkpt><trkpt lat="42.2522217" lon="14.1871117"><ele>217.0</ele><time>2026-05-01T14:04:55.974Z</time></trkpt><trkpt lat="42.2522017" lon="14.1871967"><ele>216.99999999999997</ele><time>2026-05-01T14:04:56.974Z</time></trkpt><trkpt lat="42.2521967" lon="14.187305"><ele>217.0</ele><time>2026-05-01T14:04:57.973Z</time></trkpt><trkpt lat="42.2521883" lon="14.1874083"><ele>217.0</ele><time>2026-05-01T14:04:58.974Z</time></trkpt><trkpt lat="42.2521667" lon="14.1875067"><ele>217.0</ele><time>2026-05-01T14:04:59.973Z</time></trkpt><trkpt lat="42.2521233" lon="14.1875867"><ele>216.99999999999997</ele><time>2026-05-01T14:05:00.974Z</time></trkpt><trkpt lat="42.2520667" lon="14.18766"><ele>217.0</ele><time>2026-05-01T14:05:01.974Z</time></trkpt><trkpt lat="42.251995" lon="14.18773"><ele>217.8</ele><time>2026-05-01T14:05:02.973Z</time></trkpt><trkpt lat="42.25192" lon="14.1878017"><ele>218.6</ele><time>2026-05-01T14:05:03.974Z</time></trkpt><trkpt lat="42.251855" lon="14.187885"><ele>219.40000000000003</ele><time>2026-05-01T14:05:04.973Z</time></trkpt><trkpt lat="42.2517967" lon="14.1879717"><ele>220.20000000000002</ele><time>2026-05-01T14:05:05.974Z</time></trkpt><trkpt lat="42.2517517" lon="14.188055"><ele>221.0</ele><time>2026-05-01T14:05:06.974Z</time></trkpt><trkpt lat="42.2517217" lon="14.1882183"><ele>220.60000000000002</ele><time>2026-05-01T14:05:08.973Z</time></trkpt><trkpt lat="42.2517133" lon="14.188305"><ele>220.20000000000002</ele><time>2026-05-01T14:05:09.973Z</time></trkpt><trkpt lat="42.2517117" lon="14.18845"><ele>219.79999999999998</ele><time>2026-05-01T14:05:11.974Z</time></trkpt><trkpt lat="42.2516683" lon="14.188535"><ele>219.39999999999998</ele><time>2026-05-01T14:05:23.974Z</time></trkpt><trkpt lat="42.2515533" lon="14.1886367"><ele>219.0</ele><time>2026-05-01T14:05:25.974Z</time></trkpt><trkpt lat="42.251455" lon="14.188715"><ele>219.0</ele><time>2026-05-01T14:05:26.974Z</time></trkpt><trkpt lat="42.2513317" lon="14.18882"><ele>219.0</ele><time>2026-05-01T14:05:27.974Z</time></trkpt><trkpt lat="42.2511867" lon="14.18894"><ele>219.0</ele><time>2026-05-01T14:05:28.974Z</time></trkpt><trkpt lat="42.251045" lon="14.1890533"><ele>220.5</ele><time>2026-05-01T14:05:29.973Z</time></trkpt><trkpt lat="42.2509267" lon="14.1891433"><ele>222.0</ele><time>2026-05-01T14:05:30.973Z</time></trkpt><trkpt lat="42.2508083" lon="14.18921"><ele>223.5</ele><time>2026-05-01T14:05:31.974Z</time></trkpt><trkpt lat="42.2506817" lon="14.1892317"><ele>225.0</ele><time>2026-05-01T14:05:32.973Z</time></trkpt><trkpt lat="42.250555" lon="14.1892183"><ele>225.66666666666669</ele><time>2026-05-01T14:05:33.972Z</time></trkpt><trkpt lat="42.250415" lon="14.1891583"><ele>226.33333333333334</ele><time>2026-05-01T14:05:34.972Z</time></trkpt><trkpt lat="42.2502817" lon="14.1890583"><ele>227.0</ele><time>2026-05-01T14:05:35.972Z</time></trkpt><trkpt lat="42.25015" lon="14.18896"><ele>225.75</ele><time>2026-05-01T14:05:36.972Z</time></trkpt><trkpt lat="42.250035" lon="14.1888767"><ele>224.5</ele><time>2026-05-01T14:05:37.973Z</time></trkpt><trkpt lat="42.249925" lon="14.1888067"><ele>223.25</ele><time>2026-05-01T14:05:38.973Z</time></trkpt><trkpt lat="42.2498217" lon="14.188745"><ele>222.0</ele><time>2026-05-01T14:05:39.973Z</time></trkpt><trkpt lat="42.2497267" lon="14.188695"><ele>222.0</ele><time>2026-05-01T14:05:40.973Z</time></trkpt><trkpt lat="42.249645" lon="14.1886583"><ele>222.0</ele><time>2026-05-01T14:05:41.973Z</time></trkpt><trkpt lat="42.249575" lon="14.1886317"><ele>222.0</ele><time>2026-05-01T14:05:42.973Z</time></trkpt><trkpt lat="42.249455" lon="14.18856"><ele>222.0</ele><time>2026-05-01T14:05:44.973Z</time></trkpt><trkpt lat="42.249395" lon="14.1885067"><ele>222.0</ele><time>2026-05-01T14:05:45.973Z</time></trkpt><trkpt lat="42.2493383" lon="14.18845"><ele>222.0</ele><time>2026-05-01T14:05:46.973Z</time></trkpt><trkpt lat="42.2492817" lon="14.18837"><ele>222.0</ele><time>2026-05-01T14:05:47.973Z</time></trkpt><trkpt lat="42.2492217" lon="14.1882717"><ele>222.0</ele><time>2026-05-01T14:05:48.973Z</time></trkpt><trkpt lat="42.2491783" lon="14.18815"><ele>222.0</ele><time>2026-05-01T14:05:49.973Z</time></trkpt><trkpt lat="42.2491517" lon="14.188"><ele>222.0</ele><time>2026-05-01T14:05:50.973Z</time></trkpt><trkpt lat="42.2491567" lon="14.1878533"><ele>222.0</ele><time>2026-05-01T14:05:51.973Z</time></trkpt><trkpt lat="42.2491567" lon="14.1877"><ele>221.8</ele><time>2026-05-01T14:05:52.973Z</time></trkpt><trkpt lat="42.24916" lon="14.18756"><ele>221.6</ele><time>2026-05-01T14:05:53.973Z</time></trkpt><trkpt lat="42.2491633" lon="14.1874383"><ele>221.40000000000003</ele><time>2026-05-01T14:05:54.973Z</time></trkpt><trkpt lat="42.2491683" lon="14.1873283"><ele>221.20000000000002</ele><time>2026-05-01T14:05:55.973Z</time></trkpt><trkpt lat="42.2491733" lon="14.1872167"><ele>221.0</ele><time>2026-05-01T14:05:56.972Z</time></trkpt><trkpt lat="42.2491867" lon="14.1870817"><ele>221.0</ele><time>2026-05-01T14:05:57.973Z</time></trkpt><trkpt lat="42.2491917" lon="14.1869517"><ele>221.00000000000003</ele><time>2026-05-01T14:05:58.973Z</time></trkpt><trkpt lat="42.2491967" lon="14.1868283"><ele>221.00000000000003</ele><time>2026-05-01T14:05:59.972Z</time></trkpt><trkpt lat="42.2492083" lon="14.1867217"><ele>221.0</ele><time>2026-05-01T14:06:00.972Z</time></trkpt><trkpt lat="42.2492317" lon="14.1865767"><ele>221.0</ele><time>2026-05-01T14:06:02.973Z</time></trkpt><trkpt lat="42.2492433" lon="14.1864617"><ele>221.4</ele><time>2026-05-01T14:06:16.973Z</time></trkpt><trkpt lat="42.2492683" lon="14.1863083"><ele>221.8</ele><time>2026-05-01T14:06:18.972Z</time></trkpt><trkpt lat="42.2493383" lon="14.1861317"><ele>222.20000000000002</ele><time>2026-05-01T14:06:20.973Z</time></trkpt><trkpt lat="42.2493933" lon="14.18607"><ele>222.60000000000002</ele><time>2026-05-01T14:06:21.973Z</time></trkpt><trkpt lat="42.249455" lon="14.1860333"><ele>223.0</ele><time>2026-05-01T14:06:22.973Z</time></trkpt><trkpt lat="42.249545" lon="14.1860467"><ele>223.0</ele><time>2026-05-01T14:06:23.972Z</time></trkpt><trkpt lat="42.2496467" lon="14.1860983"><ele>223.0</ele><time>2026-05-01T14:06:24.972Z</time></trkpt><trkpt lat="42.2497617" lon="14.1861533"><ele>223.0</ele><time>2026-05-01T14:06:25.973Z</time></trkpt><trkpt lat="42.2498683" lon="14.186205"><ele>223.0</ele><time>2026-05-01T14:06:26.973Z</time></trkpt><trkpt lat="42.249965" lon="14.18625"><ele>223.0</ele><time>2026-05-01T14:06:27.973Z</time></trkpt><trkpt lat="42.2500483" lon="14.186265"><ele>221.4</ele><time>2026-05-01T14:06:28.973Z</time></trkpt><trkpt lat="42.2501317" lon="14.1862667"><ele>219.8</ele><time>2026-05-01T14:06:29.973Z</time></trkpt><trkpt lat="42.2501983" lon="14.1862017"><ele>218.2</ele><time>2026-05-01T14:06:30.973Z</time></trkpt><trkpt lat="42.250255" lon="14.1860967"><ele>216.6</ele><time>2026-05-01T14:06:31.973Z</time></trkpt><trkpt lat="42.2503133" lon="14.1859667"><ele>215.0</ele><time>2026-05-01T14:06:32.972Z</time></trkpt><trkpt lat="42.2503467" lon="14.1857933"><ele>214.25</ele><time>2026-05-01T14:06:33.973Z</time></trkpt><trkpt lat="42.2503617" lon="14.18562"><ele>213.5</ele><time>2026-05-01T14:06:34.973Z</time></trkpt><trkpt lat="42.250355" lon="14.1854667"><ele>212.75</ele><time>2026-05-01T14:06:35.972Z</time></trkpt><trkpt lat="42.2503317" lon="14.1853283"><ele>212.0</ele><time>2026-05-01T14:06:36.973Z</time></trkpt><trkpt lat="42.2502933" lon="14.1851767"><ele>212.0</ele><time>2026-05-01T14:06:37.973Z</time></trkpt><trkpt lat="42.2502433" lon="14.1850283"><ele>212.0</ele><time>2026-05-01T14:06:38.973Z</time></trkpt><trkpt lat="42.25017" lon="14.1848883"><ele>212.0</ele><time>2026-05-01T14:06:39.972Z</time></trkpt><trkpt lat="42.2500883" lon="14.1847733"><ele>212.0</ele><time>2026-05-01T14:06:40.973Z</time></trkpt><trkpt lat="42.2499817" lon="14.18467"><ele>211.75</ele><time>2026-05-01T14:06:41.973Z</time></trkpt><trkpt lat="42.249865" lon="14.1845717"><ele>211.5</ele><time>2026-05-01T14:06:42.973Z</time></trkpt><trkpt lat="42.2497417" lon="14.1844767"><ele>211.25</ele><time>2026-05-01T14:06:43.972Z</time></trkpt><trkpt lat="42.249615" lon="14.18439"><ele>211.0</ele><time>2026-05-01T14:06:44.973Z</time></trkpt><trkpt lat="42.2495067" lon="14.1842917"><ele>212.0</ele><time>2026-05-01T14:06:45.973Z</time></trkpt><trkpt lat="42.2494183" lon="14.1841667"><ele>213.0</ele><time>2026-05-01T14:06:46.972Z</time></trkpt><trkpt lat="42.24936" lon="14.1840183"><ele>214.0</ele><time>2026-05-01T14:06:47.973Z</time></trkpt><trkpt lat="42.2493067" lon="14.18388"><ele>215.0</ele><time>2026-05-01T14:06:48.972Z</time></trkpt><trkpt lat="42.2492633" lon="14.1837683"><ele>215.66666666666669</ele><time>2026-05-01T14:06:49.973Z</time></trkpt><trkpt lat="42.2492417" lon="14.1836783"><ele>216.33333333333334</ele><time>2026-05-01T14:06:50.972Z</time></trkpt><trkpt lat="42.24923" lon="14.1835433"><ele>217.0</ele><time>2026-05-01T14:06:52.972Z</time></trkpt><trkpt lat="42.2493067" lon="14.18343"><ele>217.66666666666669</ele><time>2026-05-01T14:06:54.972Z</time></trkpt><trkpt lat="42.2493617" lon="14.1833833"><ele>218.33333333333334</ele><time>2026-05-01T14:06:55.973Z</time></trkpt><trkpt lat="42.24942" lon="14.1833317"><ele>219.0</ele><time>2026-05-01T14:06:56.973Z</time></trkpt><trkpt lat="42.2494817" lon="14.1832683"><ele>219.0</ele><time>2026-05-01T14:06:57.973Z</time></trkpt><trkpt lat="42.249545" lon="14.1831967"><ele>218.99999999999997</ele><time>2026-05-01T14:06:58.972Z</time></trkpt><trkpt lat="42.249615" lon="14.1831017"><ele>218.99999999999997</ele><time>2026-05-01T14:06:59.973Z</time></trkpt><trkpt lat="42.2496817" lon="14.1829983"><ele>219.0</ele><time>2026-05-01T14:07:00.972Z</time></trkpt><trkpt lat="42.2497467" lon="14.1828933"><ele>219.0</ele><time>2026-05-01T14:07:01.973Z</time></trkpt><trkpt lat="42.2498" lon="14.1827767"><ele>218.75</ele><time>2026-05-01T14:07:02.973Z</time></trkpt><trkpt lat="42.2498783" lon="14.182625"><ele>218.5</ele><time>2026-05-01T14:07:03.973Z</time></trkpt><trkpt lat="42.249955" lon="14.1824633"><ele>218.25</ele><time>2026-05-01T14:07:04.973Z</time></trkpt><trkpt lat="42.250035" lon="14.1823117"><ele>218.0</ele><time>2026-05-01T14:07:05.973Z</time></trkpt><trkpt lat="42.2501033" lon="14.1821733"><ele>219.25</ele><time>2026-05-01T14:07:06.973Z</time></trkpt><trkpt lat="42.2501733" lon="14.18205"><ele>220.5</ele><time>2026-05-01T14:07:07.973Z</time></trkpt><trkpt lat="42.250245" lon="14.1819367"><ele>221.75</ele><time>2026-05-01T14:07:08.973Z</time></trkpt><trkpt lat="42.25033" lon="14.1818417"><ele>223.0</ele><time>2026-05-01T14:07:09.973Z</time></trkpt><trkpt lat="42.2504383" lon="14.1817533"><ele>223.0</ele><time>2026-05-01T14:07:10.973Z</time></trkpt><trkpt lat="42.250585" lon="14.18167"><ele>223.0</ele><time>2026-05-01T14:07:11.973Z</time></trkpt><trkpt lat="42.2507333" lon="14.1815933"><ele>223.0</ele><time>2026-05-01T14:07:12.973Z</time></trkpt><trkpt lat="42.2509017" lon="14.1815117"><ele>222.66666666666666</ele><time>2026-05-01T14:07:13.973Z</time></trkpt><trkpt lat="42.2510717" lon="14.18143"><ele>222.33333333333331</ele><time>2026-05-01T14:07:14.973Z</time></trkpt><trkpt lat="42.251235" lon="14.1813483"><ele>222.0</ele><time>2026-05-01T14:07:15.973Z</time></trkpt><trkpt lat="42.2513817" lon="14.1812767"><ele>222.39999999999998</ele><time>2026-05-01T14:07:16.973Z</time></trkpt><trkpt lat="42.2514983" lon="14.1812267"><ele>222.79999999999998</ele><time>2026-05-01T14:07:17.973Z</time></trkpt><trkpt lat="42.25157" lon="14.1811983"><ele>223.2</ele><time>2026-05-01T14:07:18.973Z</time></trkpt><trkpt lat="42.2516367" lon="14.1812233"><ele>223.6</ele><time>2026-05-01T14:07:20.973Z</time></trkpt><trkpt lat="42.2516833" lon="14.1813067"><ele>224.0</ele><time>2026-05-01T14:07:22.973Z</time></trkpt><trkpt lat="42.251785" lon="14.18139"><ele>224.00000000000003</ele><time>2026-05-01T14:07:24.972Z</time></trkpt><trkpt lat="42.25185" lon="14.1814467"><ele>224.0</ele><time>2026-05-01T14:07:25.973Z</time></trkpt><trkpt lat="42.2519167" lon="14.1815167"><ele>224.0</ele><time>2026-05-01T14:07:26.972Z</time></trkpt><trkpt lat="42.2519817" lon="14.181595"><ele>224.0</ele><time>2026-05-01T14:07:27.973Z</time></trkpt><trkpt lat="42.2520483" lon="14.1816767"><ele>224.00000000000003</ele><time>2026-05-01T14:07:28.973Z</time></trkpt><trkpt lat="42.252115" lon="14.181745"><ele>224.0</ele><time>2026-05-01T14:07:29.973Z</time></trkpt><trkpt lat="42.2521983" lon="14.18181"><ele>221.79999999999998</ele><time>2026-05-01T14:07:30.973Z</time></trkpt><trkpt lat="42.252295" lon="14.1818567"><ele>219.59999999999997</ele><time>2026-05-01T14:07:31.972Z</time></trkpt><trkpt lat="42.2523983" lon="14.181885"><ele>217.4</ele><time>2026-05-01T14:07:32.973Z</time></trkpt><trkpt lat="42.2525133" lon="14.1819"><ele>215.2</ele><time>2026-05-01T14:07:33.973Z</time></trkpt><trkpt lat="42.2526267" lon="14.1818883"><ele>213.0</ele><time>2026-05-01T14:07:34.973Z</time></trkpt><trkpt lat="42.2527517" lon="14.181865"><ele>213.0</ele><time>2026-05-01T14:07:35.973Z</time></trkpt><trkpt lat="42.2528883" lon="14.1818317"><ele>213.0</ele><time>2026-05-01T14:07:36.972Z</time></trkpt><trkpt lat="42.2530283" lon="14.1818017"><ele>213.0</ele><time>2026-05-01T14:07:37.972Z</time></trkpt><trkpt lat="42.2531667" lon="14.1817783"><ele>213.0</ele><time>2026-05-01T14:07:38.973Z</time></trkpt><trkpt lat="42.2532883" lon="14.1817717"><ele>214.2</ele><time>2026-05-01T14:07:39.973Z</time></trkpt><trkpt lat="42.2534033" lon="14.1817717"><ele>215.4</ele><time>2026-05-01T14:07:40.973Z</time></trkpt><trkpt lat="42.2535083" lon="14.1817767"><ele>216.59999999999997</ele><time>2026-05-01T14:07:41.972Z</time></trkpt><trkpt lat="42.2536017" lon="14.18181"><ele>217.79999999999998</ele><time>2026-05-01T14:07:42.972Z</time></trkpt><trkpt lat="42.2537033" lon="14.1818683"><ele>219.0</ele><time>2026-05-01T14:07:43.973Z</time></trkpt><trkpt lat="42.2538017" lon="14.1819667"><ele>219.0</ele><time>2026-05-01T14:07:44.972Z</time></trkpt><trkpt lat="42.2539033" lon="14.18208"><ele>219.0</ele><time>2026-05-01T14:07:45.972Z</time></trkpt><trkpt lat="42.2540267" lon="14.1821817"><ele>219.0</ele><time>2026-05-01T14:07:46.973Z</time></trkpt><trkpt lat="42.25415" lon="14.182285"><ele>219.0</ele><time>2026-05-01T14:07:47.973Z</time></trkpt><trkpt lat="42.2542667" lon="14.182385"><ele>219.25</ele><time>2026-05-01T14:07:48.973Z</time></trkpt><trkpt lat="42.2543767" lon="14.1824717"><ele>219.5</ele><time>2026-05-01T14:07:49.973Z</time></trkpt><trkpt lat="42.2544867" lon="14.1825533"><ele>219.75</ele><time>2026-05-01T14:07:50.973Z</time></trkpt><trkpt lat="42.25459" lon="14.1826333"><ele>220.0</ele><time>2026-05-01T14:07:51.972Z</time></trkpt><trkpt lat="42.25468" lon="14.1827183"><ele>220.0</ele><time>2026-05-01T14:07:52.972Z</time></trkpt><trkpt lat="42.254765" lon="14.18283"><ele>220.0</ele><time>2026-05-01T14:07:53.973Z</time></trkpt><trkpt lat="42.2548567" lon="14.18296"><ele>220.0</ele><time>2026-05-01T14:07:54.973Z</time></trkpt><trkpt lat="42.2549533" lon="14.1831017"><ele>220.0</ele><time>2026-05-01T14:07:55.973Z</time></trkpt><trkpt lat="42.2550667" lon="14.1832583"><ele>220.25</ele><time>2026-05-01T14:07:56.973Z</time></trkpt><trkpt lat="42.2551767" lon="14.1834067"><ele>220.5</ele><time>2026-05-01T14:07:57.973Z</time></trkpt><trkpt lat="42.255285" lon="14.1835467"><ele>220.75</ele><time>2026-05-01T14:07:58.973Z</time></trkpt><trkpt lat="42.2553867" lon="14.1836817"><ele>221.0</ele><time>2026-05-01T14:07:59.973Z</time></trkpt><trkpt lat="42.2554933" lon="14.1838217"><ele>221.0</ele><time>2026-05-01T14:08:00.973Z</time></trkpt><trkpt lat="42.2555983" lon="14.183975"><ele>221.0</ele><time>2026-05-01T14:08:01.973Z</time></trkpt><trkpt lat="42.2556933" lon="14.1841383"><ele>221.0</ele><time>2026-05-01T14:08:02.973Z</time></trkpt><trkpt lat="42.2557783" lon="14.1842817"><ele>221.0</ele><time>2026-05-01T14:08:03.972Z</time></trkpt><trkpt lat="42.2558583" lon="14.1844017"><ele>221.0</ele><time>2026-05-01T14:08:04.972Z</time></trkpt><trkpt lat="42.2559433" lon="14.1845067"><ele>221.0</ele><time>2026-05-01T14:08:05.973Z</time></trkpt><trkpt lat="42.25604" lon="14.1846"><ele>221.0</ele><time>2026-05-01T14:08:06.972Z</time></trkpt><trkpt lat="42.25615" lon="14.184675"><ele>221.0</ele><time>2026-05-01T14:08:07.973Z</time></trkpt><trkpt lat="42.25626" lon="14.184745"><ele>221.0</ele><time>2026-05-01T14:08:08.973Z</time></trkpt><trkpt lat="42.2563583" lon="14.1848167"><ele>221.00000000000003</ele><time>2026-05-01T14:08:09.971Z</time></trkpt><trkpt lat="42.2564383" lon="14.1848883"><ele>221.00000000000003</ele><time>2026-05-01T14:08:10.972Z</time></trkpt><trkpt lat="42.256505" lon="14.1849517"><ele>221.0</ele><time>2026-05-01T14:08:11.972Z</time></trkpt><trkpt lat="42.2565617" lon="14.185005"><ele>221.0</ele><time>2026-05-01T14:08:12.972Z</time></trkpt><trkpt lat="42.2566383" lon="14.18508"><ele>221.00000000000003</ele><time>2026-05-01T14:08:14.972Z</time></trkpt><trkpt lat="42.2567033" lon="14.1850083"><ele>221.0</ele><time>2026-05-01T14:08:32.972Z</time></trkpt><trkpt lat="42.256765" lon="14.1849117"><ele>221.0</ele><time>2026-05-01T14:08:34.971Z</time></trkpt><trkpt lat="42.2568117" lon="14.1848467"><ele>221.0</ele><time>2026-05-01T14:08:35.972Z</time></trkpt><trkpt lat="42.256875" lon="14.18476"><ele>221.00000000000003</ele><time>2026-05-01T14:08:36.972Z</time></trkpt><trkpt lat="42.2569367" lon="14.1846817"><ele>221.0</ele><time>2026-05-01T14:08:37.972Z</time></trkpt><trkpt lat="42.256995" lon="14.1846283"><ele>222.20000000000002</ele><time>2026-05-01T14:08:38.971Z</time></trkpt><trkpt lat="42.25706" lon="14.18458"><ele>223.40000000000003</ele><time>2026-05-01T14:08:39.972Z</time></trkpt><trkpt lat="42.2571233" lon="14.1845367"><ele>224.6</ele><time>2026-05-01T14:08:40.972Z</time></trkpt><trkpt lat="42.2572267" lon="14.1844617"><ele>225.8</ele><time>2026-05-01T14:08:42.971Z</time></trkpt><trkpt lat="42.2573317" lon="14.1843517"><ele>227.0</ele><time>2026-05-01T14:08:44.971Z</time></trkpt><trkpt lat="42.25739" lon="14.1842933"><ele>227.39999999999998</ele><time>2026-05-01T14:08:45.971Z</time></trkpt><trkpt lat="42.2574717" lon="14.184195"><ele>227.79999999999998</ele><time>2026-05-01T14:08:47.972Z</time></trkpt><trkpt lat="42.2575283" lon="14.18409"><ele>228.2</ele><time>2026-05-01T14:08:49.972Z</time></trkpt><trkpt lat="42.257565" lon="14.1839483"><ele>228.6</ele><time>2026-05-01T14:08:51.972Z</time></trkpt><trkpt lat="42.257585" lon="14.18378"><ele>229.0</ele><time>2026-05-01T14:08:53.971Z</time></trkpt><trkpt lat="42.2575783" lon="14.1836867"><ele>229.99999999999997</ele><time>2026-05-01T14:08:54.972Z</time></trkpt><trkpt lat="42.2575717" lon="14.1836"><ele>231.0</ele><time>2026-05-01T14:08:55.972Z</time></trkpt><trkpt lat="42.257545" lon="14.1834283"><ele>232.0</ele><time>2026-05-01T14:08:57.972Z</time></trkpt><trkpt lat="42.2575233" lon="14.1833317"><ele>233.0</ele><time>2026-05-01T14:08:58.971Z</time></trkpt><trkpt lat="42.2575" lon="14.1832167"><ele>233.99999999999997</ele><time>2026-05-01T14:08:59.972Z</time></trkpt><trkpt lat="42.257485" lon="14.1831117"><ele>235.0</ele><time>2026-05-01T14:09:00.972Z</time></trkpt><trkpt lat="42.2574617" lon="14.18298"><ele>237.2</ele><time>2026-05-01T14:09:02.972Z</time></trkpt><trkpt lat="42.2574217" lon="14.1828733"><ele>239.4</ele><time>2026-05-01T14:09:04.971Z</time></trkpt><trkpt lat="42.2573383" lon="14.1827783"><ele>241.60000000000002</ele><time>2026-05-01T14:09:06.972Z</time></trkpt><trkpt lat="42.2572267" lon="14.1827133"><ele>243.8</ele><time>2026-05-01T14:09:08.972Z</time></trkpt><trkpt lat="42.257125" lon="14.1826683"><ele>246.0</ele><time>2026-05-01T14:09:10.972Z</time></trkpt><trkpt lat="42.2570633" lon="14.1826067"><ele>246.33333333333334</ele><time>2026-05-01T14:09:12.972Z</time></trkpt><trkpt lat="42.257065" lon="14.1825183"><ele>246.66666666666669</ele><time>2026-05-01T14:09:14.972Z</time></trkpt><trkpt lat="42.2570767" lon="14.1823817"><ele>247.0</ele><time>2026-05-01T14:09:16.972Z</time></trkpt><trkpt lat="42.2570917" lon="14.1822617"><ele>247.33333333333334</ele><time>2026-05-01T14:09:18.971Z</time></trkpt><trkpt lat="42.257125" lon="14.1821783"><ele>247.66666666666669</ele><time>2026-05-01T14:09:20.971Z</time></trkpt><trkpt lat="42.2572" lon="14.1820867"><ele>248.0</ele><time>2026-05-01T14:09:22.972Z</time></trkpt><trkpt lat="42.2572433" lon="14.1820217"><ele>249.16666666666669</ele><time>2026-05-01T14:09:23.972Z</time></trkpt><trkpt lat="42.257285" lon="14.18194"><ele>250.33333333333334</ele><time>2026-05-01T14:09:24.972Z</time></trkpt><trkpt lat="42.2573217" lon="14.1818433"><ele>251.5</ele><time>2026-05-01T14:09:25.971Z</time></trkpt><trkpt lat="42.2573583" lon="14.1817483"><ele>252.66666666666669</ele><time>2026-05-01T14:09:26.972Z</time></trkpt><trkpt lat="42.2573917" lon="14.1816283"><ele>253.83333333333334</ele><time>2026-05-01T14:09:27.972Z</time></trkpt><trkpt lat="42.2574183" lon="14.1815217"><ele>255.0</ele><time>2026-05-01T14:09:28.972Z</time></trkpt><trkpt lat="42.2574367" lon="14.18143"><ele>256.8</ele><time>2026-05-01T14:09:29.972Z</time></trkpt><trkpt lat="42.25747" lon="14.18131"><ele>258.6</ele><time>2026-05-01T14:09:31.972Z</time></trkpt><trkpt lat="42.2575333" lon="14.1812"><ele>260.4</ele><time>2026-05-01T14:09:33.972Z</time></trkpt><trkpt lat="42.2576017" lon="14.1810783"><ele>262.2</ele><time>2026-05-01T14:09:35.972Z</time></trkpt><trkpt lat="42.2576667" lon="14.1809433"><ele>264.0</ele><time>2026-05-01T14:09:37.971Z</time></trkpt><trkpt lat="42.257705" lon="14.1808733"><ele>264.0</ele><time>2026-05-01T14:09:38.971Z</time></trkpt><trkpt lat="42.2577633" lon="14.18076"><ele>264.0</ele><time>2026-05-01T14:09:40.972Z</time></trkpt><trkpt lat="42.257805" lon="14.1806133"><ele>264.0</ele><time>2026-05-01T14:09:42.972Z</time></trkpt><trkpt lat="42.257835" lon="14.180525"><ele>264.0</ele><time>2026-05-01T14:09:43.972Z</time></trkpt><trkpt lat="42.25786" lon="14.180425"><ele>264.0</ele><time>2026-05-01T14:09:44.972Z</time></trkpt><trkpt lat="42.257875" lon="14.18031"><ele>266.59999999999997</ele><time>2026-05-01T14:09:45.972Z</time></trkpt><trkpt lat="42.2578917" lon="14.1801733"><ele>269.2</ele><time>2026-05-01T14:09:46.972Z</time></trkpt><trkpt lat="42.2579017" lon="14.1800183"><ele>271.79999999999995</ele><time>2026-05-01T14:09:47.972Z</time></trkpt><trkpt lat="42.2579117" lon="14.1798783"><ele>274.4</ele><time>2026-05-01T14:09:48.972Z</time></trkpt><trkpt lat="42.2579183" lon="14.1797633"><ele>277.0</ele><time>2026-05-01T14:09:49.972Z</time></trkpt><trkpt lat="42.257915" lon="14.17964"><ele>278.57142857142856</ele><time>2026-05-01T14:09:50.972Z</time></trkpt><trkpt lat="42.2579083" lon="14.1795383"><ele>280.1428571428571</ele><time>2026-05-01T14:09:51.972Z</time></trkpt><trkpt lat="42.2579067" lon="14.1794433"><ele>281.7142857142857</ele><time>2026-05-01T14:09:52.972Z</time></trkpt><trkpt lat="42.257915" lon="14.1793467"><ele>283.2857142857143</ele><time>2026-05-01T14:09:53.972Z</time></trkpt><trkpt lat="42.2579317" lon="14.1792467"><ele>284.8571428571429</ele><time>2026-05-01T14:09:54.972Z</time></trkpt><trkpt lat="42.2579383" lon="14.1791567"><ele>286.42857142857144</ele><time>2026-05-01T14:09:55.971Z</time></trkpt><trkpt lat="42.2579467" lon="14.1790667"><ele>288.0</ele><time>2026-05-01T14:09:56.972Z</time></trkpt><trkpt lat="42.257955" lon="14.1789733"><ele>289.6666666666667</ele><time>2026-05-01T14:09:57.971Z</time></trkpt><trkpt lat="42.2579783" lon="14.1788817"><ele>291.3333333333333</ele><time>2026-05-01T14:09:58.972Z</time></trkpt><trkpt lat="42.258005" lon="14.178795"><ele>293.0</ele><time>2026-05-01T14:09:59.972Z</time></trkpt><trkpt lat="42.2580367" lon="14.178615"><ele>294.66666666666663</ele><time>2026-05-01T14:10:01.972Z</time></trkpt><trkpt lat="42.2580483" lon="14.1785267"><ele>296.3333333333333</ele><time>2026-05-01T14:10:02.972Z</time></trkpt><trkpt lat="42.2580583" lon="14.1784233"><ele>298.0</ele><time>2026-05-01T14:10:03.972Z</time></trkpt><trkpt lat="42.25807" lon="14.1783383"><ele>298.0</ele><time>2026-05-01T14:10:04.972Z</time></trkpt><trkpt lat="42.25809" lon="14.1782533"><ele>298.0</ele><time>2026-05-01T14:10:05.971Z</time></trkpt><trkpt lat="42.2580967" lon="14.1781433"><ele>298.0</ele><time>2026-05-01T14:10:07.971Z</time></trkpt><trkpt lat="42.2581" lon="14.1780483"><ele>298.0</ele><time>2026-05-01T14:10:09.971Z</time></trkpt><trkpt lat="42.258095" lon="14.1779567"><ele>298.0</ele><time>2026-05-01T14:10:11.972Z</time></trkpt><trkpt lat="42.2580567" lon="14.1778767"><ele>298.0</ele><time>2026-05-01T14:10:13.972Z</time></trkpt><trkpt lat="42.2579667" lon="14.1778117"><ele>299.4</ele><time>2026-05-01T14:10:15.971Z</time></trkpt><trkpt lat="42.25788" lon="14.1777283"><ele>300.8</ele><time>2026-05-01T14:10:17.972Z</time></trkpt><trkpt lat="42.25776" lon="14.177725"><ele>302.2</ele><time>2026-05-01T14:10:19.971Z</time></trkpt><trkpt lat="42.2576933" lon="14.1777383"><ele>303.6</ele><time>2026-05-01T14:10:20.972Z</time></trkpt><trkpt lat="42.25763" lon="14.1777433"><ele>305.0</ele><time>2026-05-01T14:10:21.972Z</time></trkpt><trkpt lat="42.2575167" lon="14.1777117"><ele>305.0</ele><time>2026-05-01T14:10:23.972Z</time></trkpt><trkpt lat="42.257385" lon="14.17773"><ele>305.0</ele><time>2026-05-01T14:10:25.971Z</time></trkpt><trkpt lat="42.257305" lon="14.177765"><ele>305.0</ele><time>2026-05-01T14:10:26.972Z</time></trkpt><trkpt lat="42.2572417" lon="14.1778083"><ele>305.0</ele><time>2026-05-01T14:10:27.972Z</time></trkpt><trkpt lat="42.2571633" lon="14.1778917"><ele>305.0</ele><time>2026-05-01T14:10:29.972Z</time></trkpt><trkpt lat="42.2571067" lon="14.17796"><ele>307.2</ele><time>2026-05-01T14:10:32.972Z</time></trkpt><trkpt lat="42.257045" lon="14.1779233"><ele>309.4</ele><time>2026-05-01T14:10:35.972Z</time></trkpt><trkpt lat="42.25706" lon="14.1777867"><ele>311.6</ele><time>2026-05-01T14:10:38.972Z</time></trkpt><trkpt lat="42.25709" lon="14.1776283"><ele>313.8</ele><time>2026-05-01T14:10:40.972Z</time></trkpt><trkpt lat="42.257105" lon="14.1775417"><ele>316.0</ele><time>2026-05-01T14:10:41.972Z</time></trkpt><trkpt lat="42.2571517" lon="14.17739"><ele>315.75</ele><time>2026-05-01T14:10:43.971Z</time></trkpt><trkpt lat="42.2572217" lon="14.1772517"><ele>315.5</ele><time>2026-05-01T14:10:45.972Z</time></trkpt><trkpt lat="42.2573" lon="14.17711"><ele>315.25</ele><time>2026-05-01T14:10:47.972Z</time></trkpt><trkpt lat="42.2573683" lon="14.1769567"><ele>315.0</ele><time>2026-05-01T14:10:49.972Z</time></trkpt><trkpt lat="42.2574017" lon="14.17687"><ele>315.0</ele><time>2026-05-01T14:10:50.972Z</time></trkpt><trkpt lat="42.2574317" lon="14.1767817"><ele>315.0</ele><time>2026-05-01T14:10:51.972Z</time></trkpt><trkpt lat="42.25746" lon="14.1766817"><ele>315.0</ele><time>2026-05-01T14:10:52.972Z</time></trkpt><trkpt lat="42.2574867" lon="14.1765817"><ele>315.0</ele><time>2026-05-01T14:10:53.971Z</time></trkpt><trkpt lat="42.2575133" lon="14.1764967"><ele>315.0</ele><time>2026-05-01T14:10:54.972Z</time></trkpt><trkpt lat="42.2575517" lon="14.1763717"><ele>315.0</ele><time>2026-05-01T14:10:56.97Z</time></trkpt><trkpt lat="42.2575583" lon="14.1762583"><ele>316.5</ele><time>2026-05-01T14:10:59.971Z</time></trkpt><trkpt lat="42.25751" lon="14.1761783"><ele>318.0</ele><time>2026-05-01T14:11:01.971Z</time></trkpt><trkpt lat="42.2574333" lon="14.17607"><ele>319.5</ele><time>2026-05-01T14:11:03.971Z</time></trkpt><trkpt lat="42.2573867" lon="14.1760033"><ele>321.0</ele><time>2026-05-01T14:11:04.971Z</time></trkpt><trkpt lat="42.2573383" lon="14.175935"><ele>322.5</ele><time>2026-05-01T14:11:05.97Z</time></trkpt><trkpt lat="42.2572883" lon="14.175875"><ele>324.0</ele><time>2026-05-01T14:11:06.97Z</time></trkpt><trkpt lat="42.2572333" lon="14.1757567"><ele>325.0</ele><time>2026-05-01T14:11:08.97Z</time></trkpt><trkpt lat="42.2572017" lon="14.1756383"><ele>326.0</ele><time>2026-05-01T14:11:10.971Z</time></trkpt><trkpt lat="42.2571733" lon="14.1755167"><ele>327.0</ele><time>2026-05-01T14:11:12.971Z</time></trkpt><trkpt lat="42.257165" lon="14.1753917"><ele>328.0</ele><time>2026-05-01T14:11:14.971Z</time></trkpt><trkpt lat="42.2571917" lon="14.175255"><ele>329.0</ele><time>2026-05-01T14:11:16.971Z</time></trkpt><trkpt lat="42.2572417" lon="14.175085"><ele>329.0</ele><time>2026-05-01T14:11:18.971Z</time></trkpt><trkpt lat="42.2572733" lon="14.1749817"><ele>329.0</ele><time>2026-05-01T14:11:19.97Z</time></trkpt><trkpt lat="42.25732" lon="14.17488"><ele>329.0</ele><time>2026-05-01T14:11:20.97Z</time></trkpt><trkpt lat="42.25737" lon="14.1747617"><ele>329.0</ele><time>2026-05-01T14:11:21.971Z</time></trkpt><trkpt lat="42.2574133" lon="14.17464"><ele>329.0</ele><time>2026-05-01T14:11:22.97Z</time></trkpt><trkpt lat="42.257465" lon="14.1745133"><ele>331.5</ele><time>2026-05-01T14:11:23.971Z</time></trkpt><trkpt lat="42.25752" lon="14.1743883"><ele>334.0</ele><time>2026-05-01T14:11:24.97Z</time></trkpt><trkpt lat="42.2575767" lon="14.1742567"><ele>336.5</ele><time>2026-05-01T14:11:25.97Z</time></trkpt><trkpt lat="42.257635" lon="14.1741183"><ele>339.0</ele><time>2026-05-01T14:11:26.97Z</time></trkpt><trkpt lat="42.2577017" lon="14.1739817"><ele>340.75</ele><time>2026-05-01T14:11:27.971Z</time></trkpt><trkpt lat="42.2577733" lon="14.1738433"><ele>342.5</ele><time>2026-05-01T14:11:28.971Z</time></trkpt><trkpt lat="42.2578533" lon="14.1737117"><ele>344.25</ele><time>2026-05-01T14:11:29.971Z</time></trkpt><trkpt lat="42.25794" lon="14.173575"><ele>346.0</ele><time>2026-05-01T14:11:30.971Z</time></trkpt><trkpt lat="42.2580317" lon="14.1734267"><ele>345.5</ele><time>2026-05-01T14:11:31.971Z</time></trkpt><trkpt lat="42.2581317" lon="14.173295"><ele>345.0</ele><time>2026-05-01T14:11:32.971Z</time></trkpt><trkpt lat="42.258255" lon="14.173195"><ele>344.5</ele><time>2026-05-01T14:11:33.971Z</time></trkpt><trkpt lat="42.2583483" lon="14.17311"><ele>344.0</ele><time>2026-05-01T14:11:34.971Z</time></trkpt><trkpt lat="42.2584433" lon="14.1730417"><ele>347.25</ele><time>2026-05-01T14:11:35.97Z</time></trkpt><trkpt lat="42.2585467" lon="14.1730033"><ele>350.5</ele><time>2026-05-01T14:11:36.971Z</time></trkpt><trkpt lat="42.2586667" lon="14.1730067"><ele>353.75</ele><time>2026-05-01T14:11:37.971Z</time></trkpt><trkpt lat="42.2587983" lon="14.173005"><ele>357.0</ele><time>2026-05-01T14:11:38.971Z</time></trkpt><trkpt lat="42.2589483" lon="14.17301"><ele>358.0</ele><time>2026-05-01T14:11:39.971Z</time></trkpt><trkpt lat="42.2590983" lon="14.17302"><ele>359.0</ele><time>2026-05-01T14:11:40.97Z</time></trkpt><trkpt lat="42.2592617" lon="14.1730317"><ele>360.0</ele><time>2026-05-01T14:11:41.97Z</time></trkpt><trkpt lat="42.259425" lon="14.1730333"><ele>360.0</ele><time>2026-05-01T14:11:42.971Z</time></trkpt><trkpt lat="42.259575" lon="14.1730517"><ele>360.0</ele><time>2026-05-01T14:11:43.971Z</time></trkpt><trkpt lat="42.2597067" lon="14.173075"><ele>360.0</ele><time>2026-05-01T14:11:44.971Z</time></trkpt><trkpt lat="42.25982" lon="14.17311"><ele>360.0</ele><time>2026-05-01T14:11:45.971Z</time></trkpt><trkpt lat="42.2599383" lon="14.1731683"><ele>357.5</ele><time>2026-05-01T14:11:46.971Z</time></trkpt><trkpt lat="42.26005" lon="14.1732533"><ele>355.0</ele><time>2026-05-01T14:11:47.971Z</time></trkpt><trkpt lat="42.2601567" lon="14.1733483"><ele>352.5</ele><time>2026-05-01T14:11:48.971Z</time></trkpt><trkpt lat="42.2602517" lon="14.1734417"><ele>350.0</ele><time>2026-05-01T14:11:49.97Z</time></trkpt><trkpt lat="42.2603283" lon="14.1735367"><ele>350.0</ele><time>2026-05-01T14:11:50.97Z</time></trkpt><trkpt lat="42.260395" lon="14.1736283"><ele>350.0</ele><time>2026-05-01T14:11:51.97Z</time></trkpt><trkpt lat="42.2604533" lon="14.173685"><ele>350.0</ele><time>2026-05-01T14:11:52.971Z</time></trkpt><trkpt lat="42.2605317" lon="14.1737583"><ele>350.0</ele><time>2026-05-01T14:11:54.971Z</time></trkpt><trkpt lat="42.26059" lon="14.1738067"><ele>350.0</ele><time>2026-05-01T14:11:57.971Z</time></trkpt><trkpt lat="42.26057" lon="14.173725"><ele>350.0</ele><time>2026-05-01T14:12:03.971Z</time></trkpt><trkpt lat="42.2604783" lon="14.1736633"><ele>350.0</ele><time>2026-05-01T14:12:44.971Z</time></trkpt><trkpt lat="42.2603733" lon="14.1735633"><ele>350.0</ele><time>2026-05-01T14:12:46.97Z</time></trkpt><trkpt lat="42.2603033" lon="14.1734983"><ele>350.0</ele><time>2026-05-01T14:12:47.971Z</time></trkpt><trkpt lat="42.2602267" lon="14.17343"><ele>350.0</ele><time>2026-05-01T14:12:48.97Z</time></trkpt><trkpt lat="42.2601517" lon="14.173355"><ele>350.0</ele><time>2026-05-01T14:12:49.97Z</time></trkpt><trkpt lat="42.2600783" lon="14.17329"><ele>350.0</ele><time>2026-05-01T14:12:50.97Z</time></trkpt><trkpt lat="42.2600133" lon="14.1732283"><ele>350.0</ele><time>2026-05-01T14:12:51.971Z</time></trkpt><trkpt lat="42.2599333" lon="14.1731733"><ele>350.0</ele><time>2026-05-01T14:12:52.971Z</time></trkpt><trkpt lat="42.2598533" lon="14.17312"><ele>350.0</ele><time>2026-05-01T14:12:53.97Z</time></trkpt><trkpt lat="42.2597617" lon="14.173085"><ele>350.0</ele><time>2026-05-01T14:12:54.971Z</time></trkpt><trkpt lat="42.25966" lon="14.1730683"><ele>352.0</ele><time>2026-05-01T14:12:55.971Z</time></trkpt><trkpt lat="42.259545" lon="14.173065"><ele>354.0</ele><time>2026-05-01T14:12:56.971Z</time></trkpt><trkpt lat="42.259435" lon="14.1730617"><ele>356.0</ele><time>2026-05-01T14:12:57.971Z</time></trkpt><trkpt lat="42.25933" lon="14.1730567"><ele>358.0</ele><time>2026-05-01T14:12:58.97Z</time></trkpt><trkpt lat="42.2592367" lon="14.17304"><ele>360.0</ele><time>2026-05-01T14:12:59.97Z</time></trkpt><trkpt lat="42.2591483" lon="14.17303"><ele>360.0</ele><time>2026-05-01T14:13:00.97Z</time></trkpt><trkpt lat="42.2590567" lon="14.1730233"><ele>360.0</ele><time>2026-05-01T14:13:01.971Z</time></trkpt><trkpt lat="42.2589683" lon="14.1730167"><ele>360.0</ele><time>2026-05-01T14:13:02.971Z</time></trkpt><trkpt lat="42.2588833" lon="14.1730117"><ele>360.0</ele><time>2026-05-01T14:13:03.971Z</time></trkpt><trkpt lat="42.2588017" lon="14.17301"><ele>360.0</ele><time>2026-05-01T14:13:04.971Z</time></trkpt><trkpt lat="42.258725" lon="14.1730083"><ele>360.0</ele><time>2026-05-01T14:13:05.971Z</time></trkpt><trkpt lat="42.2586517" lon="14.173005"><ele>359.5</ele><time>2026-05-01T14:13:06.97Z</time></trkpt><trkpt lat="42.2585883" lon="14.173005"><ele>359.0</ele><time>2026-05-01T14:13:07.971Z</time></trkpt><trkpt lat="42.2584733" lon="14.1730117"><ele>358.5</ele><time>2026-05-01T14:13:09.97Z</time></trkpt><trkpt lat="42.258415" lon="14.1729717"><ele>358.0</ele><time>2026-05-01T14:13:11.97Z</time></trkpt><trkpt lat="42.258445" lon="14.172875"><ele>357.5</ele><time>2026-05-01T14:13:13.971Z</time></trkpt><trkpt lat="42.2584917" lon="14.172815"><ele>357.0</ele><time>2026-05-01T14:13:14.971Z</time></trkpt><trkpt lat="42.2585617" lon="14.1727217"><ele>357.0</ele><time>2026-05-01T14:13:15.971Z</time></trkpt><trkpt lat="42.258645" lon="14.1726083"><ele>357.0</ele><time>2026-05-01T14:13:16.97Z</time></trkpt><trkpt lat="42.2587333" lon="14.1724983"><ele>357.0</ele><time>2026-05-01T14:13:17.971Z</time></trkpt><trkpt lat="42.2588333" lon="14.172375"><ele>357.0</ele><time>2026-05-01T14:13:18.97Z</time></trkpt><trkpt lat="42.2589233" lon="14.1722567"><ele>360.20000000000005</ele><time>2026-05-01T14:13:19.971Z</time></trkpt><trkpt lat="42.2590033" lon="14.1721633"><ele>363.4</ele><time>2026-05-01T14:13:20.971Z</time></trkpt><trkpt lat="42.2590767" lon="14.1720883"><ele>366.6</ele><time>2026-05-01T14:13:21.971Z</time></trkpt><trkpt lat="42.25915" lon="14.1720133"><ele>369.79999999999995</ele><time>2026-05-01T14:13:22.971Z</time></trkpt><trkpt lat="42.2592267" lon="14.1719317"><ele>373.0</ele><time>2026-05-01T14:13:23.971Z</time></trkpt><trkpt lat="42.2593033" lon="14.1718483"><ele>373.0</ele><time>2026-05-01T14:13:24.971Z</time></trkpt><trkpt lat="42.2593717" lon="14.1717783"><ele>373.0</ele><time>2026-05-01T14:13:25.971Z</time></trkpt><trkpt lat="42.2594317" lon="14.1716967"><ele>373.0</ele><time>2026-05-01T14:13:26.971Z</time></trkpt><trkpt lat="42.2594883" lon="14.17161"><ele>373.0</ele><time>2026-05-01T14:13:27.971Z</time></trkpt><trkpt lat="42.2595317" lon="14.1715017"><ele>373.0</ele><time>2026-05-01T14:13:28.971Z</time></trkpt><trkpt lat="42.25957" lon="14.1714133"><ele>373.0</ele><time>2026-05-01T14:13:29.97Z</time></trkpt><trkpt lat="42.2596" lon="14.1713383"><ele>372.4</ele><time>2026-05-01T14:13:30.971Z</time></trkpt><trkpt lat="42.2596517" lon="14.1712283"><ele>371.79999999999995</ele><time>2026-05-01T14:13:32.971Z</time></trkpt><trkpt lat="42.259735" lon="14.17111"><ele>371.2</ele><time>2026-05-01T14:13:34.97Z</time></trkpt><trkpt lat="42.259805" lon="14.171045"><ele>370.6</ele><time>2026-05-01T14:13:35.971Z</time></trkpt><trkpt lat="42.2598917" lon="14.17096"><ele>370.0</ele><time>2026-05-01T14:13:36.971Z</time></trkpt><trkpt lat="42.2599867" lon="14.17088"><ele>370.0</ele><time>2026-05-01T14:13:37.971Z</time></trkpt><trkpt lat="42.2600767" lon="14.1707983"><ele>370.0</ele><time>2026-05-01T14:13:38.97Z</time></trkpt><trkpt lat="42.2601683" lon="14.1707133"><ele>370.0</ele><time>2026-05-01T14:13:39.97Z</time></trkpt><trkpt lat="42.2602617" lon="14.1706267"><ele>370.0</ele><time>2026-05-01T14:13:40.97Z</time></trkpt><trkpt lat="42.26035" lon="14.1705433"><ele>370.0</ele><time>2026-05-01T14:13:41.97Z</time></trkpt><trkpt lat="42.2604367" lon="14.1704583"><ele>369.4</ele><time>2026-05-01T14:13:42.971Z</time></trkpt><trkpt lat="42.2605217" lon="14.1703717"><ele>368.8</ele><time>2026-05-01T14:13:43.971Z</time></trkpt><trkpt lat="42.260605" lon="14.1702783"><ele>368.20000000000005</ele><time>2026-05-01T14:13:44.971Z</time></trkpt><trkpt lat="42.2606833" lon="14.17019"><ele>367.6</ele><time>2026-05-01T14:13:45.97Z</time></trkpt><trkpt lat="42.260755" lon="14.1700967"><ele>367.0</ele><time>2026-05-01T14:13:46.971Z</time></trkpt><trkpt lat="42.2608257" lon="14.1700042"><ele>364.6</ele><time>2026-05-01T14:13:47.971Z</time></trkpt><trkpt lat="42.2608859" lon="14.1699213"><ele>362.20000000000005</ele><time>2026-05-01T14:13:48.971Z</time></trkpt><trkpt lat="42.2609309" lon="14.1698578"><ele>359.8</ele><time>2026-05-01T14:13:49.971Z</time></trkpt><trkpt lat="42.2609808" lon="14.1697476"><ele>357.4</ele><time>2026-05-01T14:13:51.97Z</time></trkpt><trkpt lat="42.2609985" lon="14.1696118"><ele>355.0</ele><time>2026-05-01T14:13:53.97Z</time></trkpt><trkpt lat="42.2610088" lon="14.1694737"><ele>353.8333333333333</ele><time>2026-05-01T14:13:55.97Z</time></trkpt><trkpt lat="42.2610106" lon="14.1693645"><ele>352.66666666666663</ele><time>2026-05-01T14:13:57.97Z</time></trkpt><trkpt lat="42.2610206" lon="14.1692782"><ele>351.5</ele><time>2026-05-01T14:13:59.969Z</time></trkpt><trkpt lat="42.2610346" lon="14.1691878"><ele>350.3333333333333</ele><time>2026-05-01T14:14:01.97Z</time></trkpt><trkpt lat="42.2610409" lon="14.1690601"><ele>349.1666666666667</ele><time>2026-05-01T14:14:03.969Z</time></trkpt><trkpt lat="42.2610185" lon="14.1689044"><ele>348.0</ele><time>2026-05-01T14:14:05.97Z</time></trkpt><trkpt lat="42.2610079" lon="14.1688195"><ele>347.1666666666667</ele><time>2026-05-01T14:14:06.97Z</time></trkpt><trkpt lat="42.2610005" lon="14.1687311"><ele>346.3333333333333</ele><time>2026-05-01T14:14:07.97Z</time></trkpt><trkpt lat="42.2610033" lon="14.168645"><ele>345.5</ele><time>2026-05-01T14:14:08.969Z</time></trkpt><trkpt lat="42.2610133" lon="14.16855"><ele>344.66666666666663</ele><time>2026-05-01T14:14:09.97Z</time></trkpt><trkpt lat="42.2610283" lon="14.1684417"><ele>343.8333333333333</ele><time>2026-05-01T14:14:10.97Z</time></trkpt><trkpt lat="42.26106" lon="14.1683317"><ele>343.0</ele><time>2026-05-01T14:14:11.97Z</time></trkpt><trkpt lat="42.261095" lon="14.1682133"><ele>341.5</ele><time>2026-05-01T14:14:12.97Z</time></trkpt><trkpt lat="42.2611233" lon="14.1681083"><ele>340.0</ele><time>2026-05-01T14:14:13.97Z</time></trkpt><trkpt lat="42.2611417" lon="14.1680033"><ele>338.5</ele><time>2026-05-01T14:14:14.97Z</time></trkpt><trkpt lat="42.2611583" lon="14.167895"><ele>337.0</ele><time>2026-05-01T14:14:15.969Z</time></trkpt><trkpt lat="42.2611633" lon="14.1677817"><ele>335.5</ele><time>2026-05-01T14:14:16.97Z</time></trkpt><trkpt lat="42.261165" lon="14.1676567"><ele>334.0</ele><time>2026-05-01T14:14:17.969Z</time></trkpt><trkpt lat="42.261165" lon="14.1675317"><ele>334.0</ele><time>2026-05-01T14:14:18.97Z</time></trkpt><trkpt lat="42.2611617" lon="14.1674083"><ele>334.0</ele><time>2026-05-01T14:14:19.97Z</time></trkpt><trkpt lat="42.261155" lon="14.1673"><ele>334.0</ele><time>2026-05-01T14:14:20.97Z</time></trkpt><trkpt lat="42.26115" lon="14.167205"><ele>334.0</ele><time>2026-05-01T14:14:21.97Z</time></trkpt><trkpt lat="42.261155" lon="14.16705"><ele>334.0</ele><time>2026-05-01T14:14:23.969Z</time></trkpt><trkpt lat="42.26124" lon="14.1669717"><ele>331.0</ele><time>2026-05-01T14:14:25.969Z</time></trkpt><trkpt lat="42.2613417" lon="14.1669917"><ele>328.0</ele><time>2026-05-01T14:14:27.969Z</time></trkpt><trkpt lat="42.2614483" lon="14.16708"><ele>325.0</ele><time>2026-05-01T14:14:29.97Z</time></trkpt><trkpt lat="42.2615033" lon="14.1671317"><ele>322.0</ele><time>2026-05-01T14:14:30.97Z</time></trkpt><trkpt lat="42.26157" lon="14.167185"><ele>319.0</ele><time>2026-05-01T14:14:31.969Z</time></trkpt><trkpt lat="42.261635" lon="14.1672483"><ele>318.66666666666663</ele><time>2026-05-01T14:14:32.97Z</time></trkpt><trkpt lat="42.2616917" lon="14.16731"><ele>318.3333333333333</ele><time>2026-05-01T14:14:33.97Z</time></trkpt><trkpt lat="42.261745" lon="14.16737"><ele>318.0</ele><time>2026-05-01T14:14:34.97Z</time></trkpt><trkpt lat="42.2617967" lon="14.167425"><ele>317.6666666666667</ele><time>2026-05-01T14:14:35.97Z</time></trkpt><trkpt lat="42.2618417" lon="14.16749"><ele>317.33333333333337</ele><time>2026-05-01T14:14:36.97Z</time></trkpt><trkpt lat="42.2619283" lon="14.1676217"><ele>317.0</ele><time>2026-05-01T14:14:38.97Z</time></trkpt><trkpt lat="42.261975" lon="14.16768"><ele>317.0</ele><time>2026-05-01T14:14:39.97Z</time></trkpt><trkpt lat="42.2620783" lon="14.16773"><ele>317.0</ele><time>2026-05-01T14:14:41.97Z</time></trkpt><trkpt lat="42.262145" lon="14.167725"><ele>317.0</ele><time>2026-05-01T14:14:42.97Z</time></trkpt><trkpt lat="42.2622167" lon="14.1677017"><ele>317.0</ele><time>2026-05-01T14:14:43.97Z</time></trkpt><trkpt lat="42.2622917" lon="14.1676783"><ele>317.0</ele><time>2026-05-01T14:14:44.97Z</time></trkpt><trkpt lat="42.2623683" lon="14.1676567"><ele>317.0</ele><time>2026-05-01T14:14:45.97Z</time></trkpt><trkpt lat="42.26244" lon="14.16763"><ele>312.5</ele><time>2026-05-01T14:14:46.97Z</time></trkpt><trkpt lat="42.262515" lon="14.167615"><ele>308.0</ele><time>2026-05-01T14:14:47.97Z</time></trkpt><trkpt lat="42.2625867" lon="14.1676283"><ele>303.5</ele><time>2026-05-01T14:14:48.97Z</time></trkpt><trkpt lat="42.262655" lon="14.16766"><ele>299.0</ele><time>2026-05-01T14:14:49.97Z</time></trkpt><trkpt lat="42.2627267" lon="14.1677133"><ele>294.5</ele><time>2026-05-01T14:14:50.97Z</time></trkpt><trkpt lat="42.2628067" lon="14.1677717"><ele>290.0</ele><time>2026-05-01T14:14:51.97Z</time></trkpt><trkpt lat="42.2628883" lon="14.16783"><ele>290.0</ele><time>2026-05-01T14:14:52.97Z</time></trkpt><trkpt lat="42.2629767" lon="14.1679"><ele>290.0</ele><time>2026-05-01T14:14:53.969Z</time></trkpt><trkpt lat="42.26307" lon="14.1679583"><ele>290.0</ele><time>2026-05-01T14:14:54.97Z</time></trkpt><trkpt lat="42.2631633" lon="14.1680217"><ele>290.0</ele><time>2026-05-01T14:14:55.97Z</time></trkpt><trkpt lat="42.2632533" lon="14.168085"><ele>290.0</ele><time>2026-05-01T14:14:56.97Z</time></trkpt><trkpt lat="42.26333" lon="14.1681417"><ele>288.1666666666667</ele><time>2026-05-01T14:14:57.969Z</time></trkpt><trkpt lat="42.2633967" lon="14.168205"><ele>286.33333333333337</ele><time>2026-05-01T14:14:58.97Z</time></trkpt><trkpt lat="42.26347" lon="14.1682617"><ele>284.5</ele><time>2026-05-01T14:14:59.97Z</time></trkpt><trkpt lat="42.2635483" lon="14.1683167"><ele>282.6666666666667</ele><time>2026-05-01T14:15:00.97Z</time></trkpt><trkpt lat="42.2636283" lon="14.1683633"><ele>280.8333333333333</ele><time>2026-05-01T14:15:01.97Z</time></trkpt><trkpt lat="42.2637117" lon="14.168395"><ele>279.0</ele><time>2026-05-01T14:15:02.97Z</time></trkpt><trkpt lat="42.2637983" lon="14.16842"><ele>279.0</ele><time>2026-05-01T14:15:03.969Z</time></trkpt><trkpt lat="42.2638867" lon="14.1684317"><ele>279.0</ele><time>2026-05-01T14:15:04.969Z</time></trkpt><trkpt lat="42.263965" lon="14.1684233"><ele>279.0</ele><time>2026-05-01T14:15:05.969Z</time></trkpt><trkpt lat="42.2640367" lon="14.168415"><ele>279.0</ele><time>2026-05-01T14:15:06.97Z</time></trkpt><trkpt lat="42.2641017" lon="14.1684"><ele>279.0</ele><time>2026-05-01T14:15:07.969Z</time></trkpt><trkpt lat="42.2641833" lon="14.1683683"><ele>279.0</ele><time>2026-05-01T14:15:09.97Z</time></trkpt><trkpt lat="42.2642483" lon="14.1683217"><ele>276.1666666666667</ele><time>2026-05-01T14:15:12.97Z</time></trkpt><trkpt lat="42.2643133" lon="14.16825"><ele>273.3333333333333</ele><time>2026-05-01T14:15:15.97Z</time></trkpt><trkpt lat="42.2643483" lon="14.1681717"><ele>270.5</ele><time>2026-05-01T14:15:18.97Z</time></trkpt><trkpt lat="42.264385" lon="14.168075"><ele>267.66666666666663</ele><time>2026-05-01T14:16:42.969Z</time></trkpt><trkpt lat="42.2644233" lon="14.1679767"><ele>264.8333333333333</ele><time>2026-05-01T14:16:44.97Z</time></trkpt><trkpt lat="42.2644817" lon="14.1678417"><ele>262.0</ele><time>2026-05-01T14:16:46.97Z</time></trkpt><trkpt lat="42.2645133" lon="14.1677533"><ele>260.5</ele><time>2026-05-01T14:16:47.97Z</time></trkpt><trkpt lat="42.2645483" lon="14.1676633"><ele>259.0</ele><time>2026-05-01T14:16:48.97Z</time></trkpt><trkpt lat="42.2645867" lon="14.1675783"><ele>257.5</ele><time>2026-05-01T14:16:49.969Z</time></trkpt><trkpt lat="42.2646317" lon="14.167495"><ele>256.0</ele><time>2026-05-01T14:16:50.97Z</time></trkpt><trkpt lat="42.2646817" lon="14.1674217"><ele>254.49999999999997</ele><time>2026-05-01T14:16:51.97Z</time></trkpt><trkpt lat="42.26474" lon="14.1673683"><ele>253.0</ele><time>2026-05-01T14:16:52.97Z</time></trkpt><trkpt lat="42.264845" lon="14.1673233"><ele>248.33333333333331</ele><time>2026-05-01T14:16:54.969Z</time></trkpt><trkpt lat="42.2649067" lon="14.1673033"><ele>243.66666666666666</ele><time>2026-05-01T14:16:56.969Z</time></trkpt><trkpt lat="42.26498" lon="14.1672583"><ele>239.0</ele><time>2026-05-01T14:17:00.969Z</time></trkpt><trkpt lat="42.265045" lon="14.1672033"><ele>234.33333333333331</ele><time>2026-05-01T14:17:04.969Z</time></trkpt><trkpt lat="42.2651167" lon="14.1671167"><ele>229.66666666666666</ele><time>2026-05-01T14:17:07.969Z</time></trkpt><trkpt lat="42.26517" lon="14.1670533"><ele>225.0</ele><time>2026-05-01T14:17:09.969Z</time></trkpt><trkpt lat="42.2652267" lon="14.1669833"><ele>225.0</ele><time>2026-05-01T14:17:11.969Z</time></trkpt><trkpt lat="42.2652833" lon="14.1668983"><ele>225.0</ele><time>2026-05-01T14:17:13.969Z</time></trkpt><trkpt lat="42.2653433" lon="14.1668017"><ele>225.0</ele><time>2026-05-01T14:17:15.968Z</time></trkpt><trkpt lat="42.26542" lon="14.1666867"><ele>225.0</ele><time>2026-05-01T14:17:17.968Z</time></trkpt><trkpt lat="42.2654983" lon="14.1665783"><ele>225.0</ele><time>2026-05-01T14:17:19.969Z</time></trkpt><trkpt lat="42.2655833" lon="14.1664683"><ele>221.6</ele><time>2026-05-01T14:17:21.968Z</time></trkpt><trkpt lat="42.265665" lon="14.16637"><ele>218.2</ele><time>2026-05-01T14:17:23.969Z</time></trkpt><trkpt lat="42.2657467" lon="14.1662733"><ele>214.8</ele><time>2026-05-01T14:17:25.969Z</time></trkpt><trkpt lat="42.2658067" lon="14.1661867"><ele>211.4</ele><time>2026-05-01T14:17:27.969Z</time></trkpt><trkpt lat="42.26585" lon="14.166115"><ele>208.0</ele><time>2026-05-01T14:17:29.969Z</time></trkpt><trkpt lat="42.265895" lon="14.166005"><ele>207.99999999999997</ele><time>2026-05-01T14:17:44.969Z</time></trkpt><trkpt lat="42.2659267" lon="14.165905"><ele>208.0</ele><time>2026-05-01T14:17:46.968Z</time></trkpt><trkpt lat="42.2659467" lon="14.1657967"><ele>208.0</ele><time>2026-05-01T14:17:48.969Z</time></trkpt><trkpt lat="42.2659833" lon="14.1656767"><ele>208.0</ele><time>2026-05-01T14:17:50.969Z</time></trkpt><trkpt lat="42.266025" lon="14.1656"><ele>207.99999999999997</ele><time>2026-05-01T14:17:52.969Z</time></trkpt><trkpt lat="42.2660883" lon="14.165595"><ele>208.0</ele><time>2026-05-01T14:17:54.968Z</time></trkpt><trkpt lat="42.2661433" lon="14.16567"><ele>208.0</ele><time>2026-05-01T14:17:56.969Z</time></trkpt><trkpt lat="42.26619" lon="14.1657917"><ele>208.0</ele><time>2026-05-01T14:17:58.969Z</time></trkpt><trkpt lat="42.2662233" lon="14.1659383"><ele>208.0</ele><time>2026-05-01T14:18:00.969Z</time></trkpt><trkpt lat="42.266255" lon="14.16608"><ele>208.0</ele><time>2026-05-01T14:18:02.969Z</time></trkpt><trkpt lat="42.266285" lon="14.1662167"><ele>208.0</ele><time>2026-05-01T14:18:04.969Z</time></trkpt><trkpt lat="42.2663217" lon="14.1663617"><ele>207.99999999999997</ele><time>2026-05-01T14:18:06.969Z</time></trkpt><trkpt lat="42.266355" lon="14.1665217"><ele>208.0</ele><time>2026-05-01T14:18:08.969Z</time></trkpt><trkpt lat="42.26638" lon="14.16661"><ele>208.0</ele><time>2026-05-01T14:18:09.969Z</time></trkpt><trkpt lat="42.2664133" lon="14.1666883"><ele>208.0</ele><time>2026-05-01T14:18:10.969Z</time></trkpt><trkpt lat="42.2664517" lon="14.166765"><ele>207.99999999999997</ele><time>2026-05-01T14:18:11.969Z</time></trkpt><trkpt lat="42.26649" lon="14.1668517"><ele>208.0</ele><time>2026-05-01T14:18:12.969Z</time></trkpt><trkpt lat="42.2665283" lon="14.16694"><ele>207.7142857142857</ele><time>2026-05-01T14:18:13.968Z</time></trkpt><trkpt lat="42.266565" lon="14.1670267"><ele>207.42857142857144</ele><time>2026-05-01T14:18:14.969Z</time></trkpt><trkpt lat="42.2665983" lon="14.1671167"><ele>207.14285714285714</ele><time>2026-05-01T14:18:15.968Z</time></trkpt><trkpt lat="42.2666333" lon="14.1671967"><ele>206.85714285714283</ele><time>2026-05-01T14:18:16.969Z</time></trkpt><trkpt lat="42.2666717" lon="14.1672683"><ele>206.57142857142856</ele><time>2026-05-01T14:18:17.968Z</time></trkpt><trkpt lat="42.2667083" lon="14.167345"><ele>206.28571428571428</ele><time>2026-05-01T14:18:18.968Z</time></trkpt><trkpt lat="42.266735" lon="14.167425"><ele>206.0</ele><time>2026-05-01T14:18:19.969Z</time></trkpt><trkpt lat="42.26676" lon="14.1675033"><ele>205.99999999999997</ele><time>2026-05-01T14:18:20.969Z</time></trkpt><trkpt lat="42.2667917" lon="14.1675833"><ele>206.0</ele><time>2026-05-01T14:18:21.969Z</time></trkpt><trkpt lat="42.2668283" lon="14.16766"><ele>206.0</ele><time>2026-05-01T14:18:22.969Z</time></trkpt><trkpt lat="42.2668717" lon="14.167745"><ele>206.0</ele><time>2026-05-01T14:18:23.969Z</time></trkpt><trkpt lat="42.266915" lon="14.16783"><ele>206.0</ele><time>2026-05-01T14:18:24.969Z</time></trkpt><trkpt lat="42.2669583" lon="14.16791"><ele>205.99999999999997</ele><time>2026-05-01T14:18:25.969Z</time></trkpt><trkpt lat="42.267" lon="14.16799"><ele>206.0</ele><time>2026-05-01T14:18:26.969Z</time></trkpt><trkpt lat="42.267075" lon="14.168115"><ele>205.4</ele><time>2026-05-01T14:18:28.968Z</time></trkpt><trkpt lat="42.2671733" lon="14.1682317"><ele>204.8</ele><time>2026-05-01T14:18:30.968Z</time></trkpt><trkpt lat="42.2672317" lon="14.16829"><ele>204.20000000000002</ele><time>2026-05-01T14:18:31.969Z</time></trkpt><trkpt lat="42.2672867" lon="14.1683533"><ele>203.60000000000002</ele><time>2026-05-01T14:18:32.969Z</time></trkpt><trkpt lat="42.267335" lon="14.1684133"><ele>203.0</ele><time>2026-05-01T14:18:33.968Z</time></trkpt><trkpt lat="42.2674083" lon="14.1685267"><ele>200.16666666666669</ele><time>2026-05-01T14:18:35.969Z</time></trkpt><trkpt lat="42.267485" lon="14.168635"><ele>197.33333333333334</ele><time>2026-05-01T14:18:37.968Z</time></trkpt><trkpt lat="42.2675683" lon="14.168725"><ele>194.5</ele><time>2026-05-01T14:18:39.968Z</time></trkpt><trkpt lat="42.2676417" lon="14.1687217"><ele>191.66666666666669</ele><time>2026-05-01T14:18:41.969Z</time></trkpt><trkpt lat="42.2676667" lon="14.1686383"><ele>188.83333333333334</ele><time>2026-05-01T14:18:44.969Z</time></trkpt><trkpt lat="42.26766" lon="14.1685517"><ele>186.0</ele><time>2026-05-01T14:18:46.968Z</time></trkpt><trkpt lat="42.2676683" lon="14.1684117"><ele>186.0</ele><time>2026-05-01T14:18:48.969Z</time></trkpt><trkpt lat="42.26769" lon="14.16827"><ele>186.0</ele><time>2026-05-01T14:18:50.969Z</time></trkpt><trkpt lat="42.2677133" lon="14.168135"><ele>186.0</ele><time>2026-05-01T14:18:52.968Z</time></trkpt><trkpt lat="42.2677133" lon="14.168135"><ele>186.0</ele><time>2026-05-01T14:18:52.968Z</time></trkpt><trkpt lat="42.2677133" lon="14.168135"><ele>186.0</ele><time>2026-05-01T14:18:52.968Z</time></trkpt><trkpt lat="42.2678433" lon="14.16605"><ele>183.8</ele><time>2026-05-01T14:19:39.969Z</time></trkpt><trkpt lat="42.26792" lon="14.1659967"><ele>181.60000000000002</ele><time>2026-05-01T14:19:43.969Z</time></trkpt><trkpt lat="42.267985" lon="14.1659333"><ele>179.4</ele><time>2026-05-01T14:19:52.969Z</time></trkpt><trkpt lat="42.268055" lon="14.1658233"><ele>177.2</ele><time>2026-05-01T14:19:54.969Z</time></trkpt><trkpt lat="42.2680967" lon="14.1656917"><ele>175.0</ele><time>2026-05-01T14:19:56.969Z</time></trkpt><trkpt lat="42.268105" lon="14.16558"><ele>174.28571428571428</ele><time>2026-05-01T14:19:58.969Z</time></trkpt><trkpt lat="42.2681033" lon="14.1654783"><ele>173.57142857142856</ele><time>2026-05-01T14:20:01.969Z</time></trkpt><trkpt lat="42.2681067" lon="14.1653933"><ele>172.85714285714286</ele><time>2026-05-01T14:20:03.968Z</time></trkpt><trkpt lat="42.2680967" lon="14.165305"><ele>172.14285714285714</ele><time>2026-05-01T14:20:05.969Z</time></trkpt><trkpt lat="42.2680833" lon="14.1652083"><ele>171.42857142857142</ele><time>2026-05-01T14:20:09.968Z</time></trkpt><trkpt lat="42.26808" lon="14.16509"><ele>170.71428571428572</ele><time>2026-05-01T14:20:20.967Z</time></trkpt><trkpt lat="42.2680733" lon="14.1649867"><ele>170.0</ele><time>2026-05-01T14:20:22.968Z</time></trkpt><trkpt lat="42.2680717" lon="14.1648567"><ele>167.8</ele><time>2026-05-01T14:20:24.967Z</time></trkpt><trkpt lat="42.2680717" lon="14.1647017"><ele>165.6</ele><time>2026-05-01T14:20:26.968Z</time></trkpt><trkpt lat="42.2680633" lon="14.1645533"><ele>163.4</ele><time>2026-05-01T14:20:28.968Z</time></trkpt><trkpt lat="42.2680583" lon="14.1644117"><ele>161.2</ele><time>2026-05-01T14:20:30.968Z</time></trkpt><trkpt lat="42.2680533" lon="14.1642617"><ele>159.0</ele><time>2026-05-01T14:20:32.968Z</time></trkpt><trkpt lat="42.2680483" lon="14.164115"><ele>156.16666666666666</ele><time>2026-05-01T14:20:34.967Z</time></trkpt><trkpt lat="42.2680367" lon="14.1639783"><ele>153.33333333333334</ele><time>2026-05-01T14:20:36.968Z</time></trkpt><trkpt lat="42.268025" lon="14.1638567"><ele>150.5</ele><time>2026-05-01T14:20:38.968Z</time></trkpt><trkpt lat="42.2680317" lon="14.1637667"><ele>147.66666666666669</ele><time>2026-05-01T14:20:40.968Z</time></trkpt><trkpt lat="42.2680583" lon="14.1636567"><ele>144.83333333333334</ele><time>2026-05-01T14:20:43.968Z</time></trkpt><trkpt lat="42.2680817" lon="14.1635567"><ele>142.0</ele><time>2026-05-01T14:20:45.968Z</time></trkpt><trkpt lat="42.2681133" lon="14.163455"><ele>142.66666666666669</ele><time>2026-05-01T14:20:47.968Z</time></trkpt><trkpt lat="42.2681483" lon="14.1633517"><ele>143.33333333333334</ele><time>2026-05-01T14:20:49.968Z</time></trkpt><trkpt lat="42.2681783" lon="14.163235"><ele>144.0</ele><time>2026-05-01T14:20:51.968Z</time></trkpt><trkpt lat="42.2682183" lon="14.1631267"><ele>144.66666666666666</ele><time>2026-05-01T14:20:53.968Z</time></trkpt><trkpt lat="42.2682717" lon="14.1630183"><ele>145.33333333333331</ele><time>2026-05-01T14:20:55.968Z</time></trkpt><trkpt lat="42.26831" lon="14.1629467"><ele>146.0</ele><time>2026-05-01T14:20:56.968Z</time></trkpt><trkpt lat="42.268345" lon="14.1628617"><ele>146.0</ele><time>2026-05-01T14:20:57.968Z</time></trkpt><trkpt lat="42.2683833" lon="14.1627717"><ele>146.0</ele><time>2026-05-01T14:20:58.968Z</time></trkpt><trkpt lat="42.268425" lon="14.1626767"><ele>146.0</ele><time>2026-05-01T14:20:59.968Z</time></trkpt><trkpt lat="42.2684667" lon="14.1625867"><ele>146.0</ele><time>2026-05-01T14:21:00.968Z</time></trkpt><trkpt lat="42.2685183" lon="14.162495"><ele>146.0</ele><time>2026-05-01T14:21:01.968Z</time></trkpt><trkpt lat="42.2685683" lon="14.1624167"><ele>146.0</ele><time>2026-05-01T14:21:02.968Z</time></trkpt><trkpt lat="42.26862" lon="14.1623533"><ele>147.42857142857142</ele><time>2026-05-01T14:21:03.968Z</time></trkpt><trkpt lat="42.2686767" lon="14.16231"><ele>148.85714285714286</ele><time>2026-05-01T14:21:04.968Z</time></trkpt><trkpt lat="42.2687417" lon="14.162285"><ele>150.28571428571428</ele><time>2026-05-01T14:21:05.968Z</time></trkpt><trkpt lat="42.268815" lon="14.1622733"><ele>151.71428571428572</ele><time>2026-05-01T14:21:06.967Z</time></trkpt><trkpt lat="42.2688867" lon="14.1622683"><ele>153.14285714285714</ele><time>2026-05-01T14:21:07.967Z</time></trkpt><trkpt lat="42.2689533" lon="14.1622767"><ele>154.57142857142858</ele><time>2026-05-01T14:21:08.967Z</time></trkpt><trkpt lat="42.2690533" lon="14.1622767"><ele>156.0</ele><time>2026-05-01T14:21:10.968Z</time></trkpt><trkpt lat="42.2691267" lon="14.1622633"><ele>156.0</ele><time>2026-05-01T14:21:12.968Z</time></trkpt><trkpt lat="42.2691933" lon="14.1621917"><ele>156.0</ele><time>2026-05-01T14:21:14.968Z</time></trkpt><trkpt lat="42.26924" lon="14.1620283"><ele>156.0</ele><time>2026-05-01T14:21:16.968Z</time></trkpt><trkpt lat="42.2692467" lon="14.1619267"><ele>156.0</ele><time>2026-05-01T14:21:17.968Z</time></trkpt><trkpt lat="42.26924" lon="14.1618183"><ele>156.0</ele><time>2026-05-01T14:21:18.968Z</time></trkpt><trkpt lat="42.2692217" lon="14.1617217"><ele>156.0</ele><time>2026-05-01T14:21:19.968Z</time></trkpt><trkpt lat="42.26921" lon="14.16163"><ele>156.0</ele><time>2026-05-01T14:21:20.967Z</time></trkpt><trkpt lat="42.2692033" lon="14.16154"><ele>156.0</ele><time>2026-05-01T14:21:21.968Z</time></trkpt><trkpt lat="42.269195" lon="14.1614517"><ele>156.0</ele><time>2026-05-01T14:21:22.968Z</time></trkpt><trkpt lat="42.2691833" lon="14.1613583"><ele>156.0</ele><time>2026-05-01T14:21:23.968Z</time></trkpt><trkpt lat="42.2691717" lon="14.16127"><ele>156.0</ele><time>2026-05-01T14:21:24.968Z</time></trkpt><trkpt lat="42.2691583" lon="14.16111"><ele>156.0</ele><time>2026-05-01T14:21:26.968Z</time></trkpt><trkpt lat="42.269125" lon="14.1609583"><ele>157.16666666666666</ele><time>2026-05-01T14:21:28.967Z</time></trkpt><trkpt lat="42.269095" lon="14.1608817"><ele>158.33333333333334</ele><time>2026-05-01T14:21:29.968Z</time></trkpt><trkpt lat="42.2690033" lon="14.160795"><ele>159.5</ele><time>2026-05-01T14:21:31.968Z</time></trkpt><trkpt lat="42.2689317" lon="14.160775"><ele>160.66666666666669</ele><time>2026-05-01T14:21:32.967Z</time></trkpt><trkpt lat="42.2688517" lon="14.1607717"><ele>161.83333333333334</ele><time>2026-05-01T14:21:33.968Z</time></trkpt><trkpt lat="42.2687683" lon="14.16078"><ele>163.0</ele><time>2026-05-01T14:21:34.968Z</time></trkpt><trkpt lat="42.2686967" lon="14.16078"><ele>164.5</ele><time>2026-05-01T14:21:35.968Z</time></trkpt><trkpt lat="42.2686317" lon="14.1607917"><ele>166.0</ele><time>2026-05-01T14:21:36.968Z</time></trkpt><trkpt lat="42.2685667" lon="14.16081"><ele>167.5</ele><time>2026-05-01T14:21:37.967Z</time></trkpt><trkpt lat="42.2685" lon="14.1608233"><ele>169.0</ele><time>2026-05-01T14:21:38.968Z</time></trkpt><trkpt lat="42.26843" lon="14.1608333"><ele>170.5</ele><time>2026-05-01T14:21:39.968Z</time></trkpt><trkpt lat="42.268355" lon="14.1608417"><ele>172.0</ele><time>2026-05-01T14:21:40.968Z</time></trkpt><trkpt lat="42.268235" lon="14.160875"><ele>172.0</ele><time>2026-05-01T14:21:42.968Z</time></trkpt><trkpt lat="42.2681183" lon="14.1609317"><ele>172.0</ele><time>2026-05-01T14:21:44.967Z</time></trkpt><trkpt lat="42.26805" lon="14.1609517"><ele>172.0</ele><time>2026-05-01T14:21:45.967Z</time></trkpt><trkpt lat="42.267975" lon="14.1609567"><ele>172.0</ele><time>2026-05-01T14:21:46.968Z</time></trkpt><trkpt lat="42.2679033" lon="14.1609617"><ele>172.0</ele><time>2026-05-01T14:21:47.968Z</time></trkpt><trkpt lat="42.2678267" lon="14.1609667"><ele>172.0</ele><time>2026-05-01T14:21:48.968Z</time></trkpt><trkpt lat="42.267755" lon="14.1609583"><ele>172.0</ele><time>2026-05-01T14:21:49.968Z</time></trkpt><trkpt lat="42.2676867" lon="14.1609433"><ele>172.0</ele><time>2026-05-01T14:21:50.967Z</time></trkpt><trkpt lat="42.2676033" lon="14.1608933"><ele>172.0</ele><time>2026-05-01T14:21:52.968Z</time></trkpt><trkpt lat="42.2676" lon="14.1607867"><ele>172.0</ele><time>2026-05-01T14:21:54.968Z</time></trkpt><trkpt lat="42.2676533" lon="14.1606717"><ele>172.0</ele><time>2026-05-01T14:21:56.967Z</time></trkpt><trkpt lat="42.2677533" lon="14.16058"><ele>174.83333333333334</ele><time>2026-05-01T14:21:58.968Z</time></trkpt><trkpt lat="42.2678133" lon="14.16052"><ele>177.66666666666669</ele><time>2026-05-01T14:21:59.968Z</time></trkpt><trkpt lat="42.2678667" lon="14.1604533"><ele>180.5</ele><time>2026-05-01T14:22:00.968Z</time></trkpt><trkpt lat="42.267915" lon="14.160375"><ele>183.33333333333334</ele><time>2026-05-01T14:22:01.967Z</time></trkpt><trkpt lat="42.2679667" lon="14.1602967"><ele>186.16666666666666</ele><time>2026-05-01T14:22:02.967Z</time></trkpt><trkpt lat="42.2680533" lon="14.1601717"><ele>189.0</ele><time>2026-05-01T14:22:04.968Z</time></trkpt><trkpt lat="42.2680983" lon="14.1600917"><ele>188.79999999999998</ele><time>2026-05-01T14:22:05.967Z</time></trkpt><trkpt lat="42.2681533" lon="14.15999"><ele>188.6</ele><time>2026-05-01T14:22:06.967Z</time></trkpt><trkpt lat="42.26821" lon="14.1598883"><ele>188.4</ele><time>2026-05-01T14:22:07.968Z</time></trkpt><trkpt lat="42.268255" lon="14.1597933"><ele>188.2</ele><time>2026-05-01T14:22:08.967Z</time></trkpt><trkpt lat="42.2683167" lon="14.1596583"><ele>188.0</ele><time>2026-05-01T14:22:10.968Z</time></trkpt><trkpt lat="42.2683717" lon="14.1595183"><ele>190.0</ele><time>2026-05-01T14:22:12.968Z</time></trkpt><trkpt lat="42.2683883" lon="14.159435"><ele>192.0</ele><time>2026-05-01T14:22:13.968Z</time></trkpt><trkpt lat="42.2683917" lon="14.1593433"><ele>194.0</ele><time>2026-05-01T14:22:14.967Z</time></trkpt><trkpt lat="42.2683917" lon="14.159245"><ele>196.0</ele><time>2026-05-01T14:22:15.967Z</time></trkpt><trkpt lat="42.2683817" lon="14.159145"><ele>198.0</ele><time>2026-05-01T14:22:16.967Z</time></trkpt><trkpt lat="42.2683667" lon="14.159035"><ele>200.0</ele><time>2026-05-01T14:22:17.968Z</time></trkpt><trkpt lat="42.2683467" lon="14.1589233"><ele>202.0</ele><time>2026-05-01T14:22:18.968Z</time></trkpt><trkpt lat="42.2683317" lon="14.158785"><ele>203.83333333333331</ele><time>2026-05-01T14:22:19.967Z</time></trkpt><trkpt lat="42.26832" lon="14.1586483"><ele>205.66666666666666</ele><time>2026-05-01T14:22:20.967Z</time></trkpt><trkpt lat="42.26831" lon="14.158535"><ele>207.5</ele><time>2026-05-01T14:22:21.968Z</time></trkpt><trkpt lat="42.2683017" lon="14.158415"><ele>209.33333333333331</ele><time>2026-05-01T14:22:22.968Z</time></trkpt><trkpt lat="42.2682983" lon="14.1583033"><ele>211.16666666666666</ele><time>2026-05-01T14:22:23.968Z</time></trkpt><trkpt lat="42.2683017" lon="14.1581983"><ele>213.0</ele><time>2026-05-01T14:22:24.968Z</time></trkpt><trkpt lat="42.2683033" lon="14.1580983"><ele>214.28571428571428</ele><time>2026-05-01T14:22:25.968Z</time></trkpt><trkpt lat="42.2683117" lon="14.1579917"><ele>215.57142857142856</ele><time>2026-05-01T14:22:26.968Z</time></trkpt><trkpt lat="42.2683167" lon="14.1578867"><ele>216.85714285714283</ele><time>2026-05-01T14:22:27.968Z</time></trkpt><trkpt lat="42.2683367" lon="14.157785"><ele>218.14285714285714</ele><time>2026-05-01T14:22:28.968Z</time></trkpt><trkpt lat="42.2683617" lon="14.1576867"><ele>219.42857142857144</ele><time>2026-05-01T14:22:29.968Z</time></trkpt><trkpt lat="42.268385" lon="14.1575933"><ele>220.7142857142857</ele><time>2026-05-01T14:22:30.967Z</time></trkpt><trkpt lat="42.26841" lon="14.157515"><ele>222.0</ele><time>2026-05-01T14:22:31.968Z</time></trkpt><trkpt lat="42.26844" lon="14.15743"><ele>224.66666666666666</ele><time>2026-05-01T14:22:32.968Z</time></trkpt><trkpt lat="42.2684717" lon="14.15735"><ele>227.33333333333331</ele><time>2026-05-01T14:22:33.968Z</time></trkpt><trkpt lat="42.2685483" lon="14.1572467"><ele>230.0</ele><time>2026-05-01T14:22:35.968Z</time></trkpt><trkpt lat="42.2686433" lon="14.1572"><ele>232.66666666666666</ele><time>2026-05-01T14:22:37.968Z</time></trkpt><trkpt lat="42.26871" lon="14.15719"><ele>235.33333333333331</ele><time>2026-05-01T14:22:38.967Z</time></trkpt><trkpt lat="42.2687967" lon="14.1571867"><ele>238.0</ele><time>2026-05-01T14:22:39.967Z</time></trkpt><trkpt lat="42.2688867" lon="14.1571933"><ele>238.16666666666666</ele><time>2026-05-01T14:22:40.968Z</time></trkpt><trkpt lat="42.2689817" lon="14.1572083"><ele>238.33333333333331</ele><time>2026-05-01T14:22:41.968Z</time></trkpt><trkpt lat="42.2690667" lon="14.1572417"><ele>238.5</ele><time>2026-05-01T14:22:42.968Z</time></trkpt><trkpt lat="42.2691367" lon="14.1572667"><ele>238.66666666666669</ele><time>2026-05-01T14:22:43.968Z</time></trkpt><trkpt lat="42.2692033" lon="14.1572783"><ele>238.83333333333334</ele><time>2026-05-01T14:22:44.968Z</time></trkpt><trkpt lat="42.26931" lon="14.1573033"><ele>239.0</ele><time>2026-05-01T14:22:46.968Z</time></trkpt><trkpt lat="42.26942" lon="14.1573333"><ele>239.0</ele><time>2026-05-01T14:22:48.968Z</time></trkpt><trkpt lat="42.269525" lon="14.1573267"><ele>238.99999999999997</ele><time>2026-05-01T14:22:50.967Z</time></trkpt><trkpt lat="42.2695883" lon="14.1572917"><ele>238.99999999999997</ele><time>2026-05-01T14:22:51.968Z</time></trkpt><trkpt lat="42.269665" lon="14.1572433"><ele>239.0</ele><time>2026-05-01T14:22:52.967Z</time></trkpt><trkpt lat="42.2697467" lon="14.1571633"><ele>239.0</ele><time>2026-05-01T14:22:53.967Z</time></trkpt><trkpt lat="42.26982" lon="14.1570817"><ele>238.39999999999998</ele><time>2026-05-01T14:22:54.968Z</time></trkpt><trkpt lat="42.2698833" lon="14.1569867"><ele>237.79999999999998</ele><time>2026-05-01T14:22:55.968Z</time></trkpt><trkpt lat="42.2699333" lon="14.1568933"><ele>237.20000000000002</ele><time>2026-05-01T14:22:56.968Z</time></trkpt><trkpt lat="42.269975" lon="14.15679"><ele>236.60000000000002</ele><time>2026-05-01T14:22:57.968Z</time></trkpt><trkpt lat="42.27001" lon="14.1566817"><ele>236.0</ele><time>2026-05-01T14:22:58.967Z</time></trkpt><trkpt lat="42.2700383" lon="14.156555"><ele>238.25</ele><time>2026-05-01T14:22:59.968Z</time></trkpt><trkpt lat="42.270065" lon="14.1564017"><ele>240.5</ele><time>2026-05-01T14:23:00.968Z</time></trkpt><trkpt lat="42.2701033" lon="14.1562467"><ele>242.75</ele><time>2026-05-01T14:23:01.968Z</time></trkpt><trkpt lat="42.2701467" lon="14.156105"><ele>245.0</ele><time>2026-05-01T14:23:02.968Z</time></trkpt><trkpt lat="42.270195" lon="14.1559767"><ele>245.00000000000003</ele><time>2026-05-01T14:23:03.968Z</time></trkpt><trkpt lat="42.2702417" lon="14.1558633"><ele>245.0</ele><time>2026-05-01T14:23:04.967Z</time></trkpt><trkpt lat="42.270275" lon="14.155765"><ele>245.0</ele><time>2026-05-01T14:23:05.968Z</time></trkpt><trkpt lat="42.2702867" lon="14.155665"><ele>245.0</ele><time>2026-05-01T14:23:06.968Z</time></trkpt><trkpt lat="42.2702883" lon="14.1555683"><ele>245.00000000000003</ele><time>2026-05-01T14:23:07.968Z</time></trkpt><trkpt lat="42.270255" lon="14.15547"><ele>245.0</ele><time>2026-05-01T14:23:09.968Z</time></trkpt><trkpt lat="42.270175" lon="14.155495"><ele>246.4</ele><time>2026-05-01T14:23:31.967Z</time></trkpt><trkpt lat="42.27007" lon="14.1555183"><ele>247.8</ele><time>2026-05-01T14:23:33.966Z</time></trkpt><trkpt lat="42.2699767" lon="14.1555467"><ele>249.2</ele><time>2026-05-01T14:23:35.967Z</time></trkpt><trkpt lat="42.2699017" lon="14.1555667"><ele>250.6</ele><time>2026-05-01T14:23:37.966Z</time></trkpt><trkpt lat="42.2698167" lon="14.155575"><ele>252.0</ele><time>2026-05-01T14:23:39.967Z</time></trkpt><trkpt lat="42.26974" lon="14.1555033"><ele>252.0</ele><time>2026-05-01T14:23:41.966Z</time></trkpt><trkpt lat="42.2697167" lon="14.1553533"><ele>252.0</ele><time>2026-05-01T14:23:43.967Z</time></trkpt><trkpt lat="42.2697717" lon="14.1551817"><ele>252.0</ele><time>2026-05-01T14:23:45.966Z</time></trkpt><trkpt lat="42.2698133" lon="14.1551"><ele>252.0</ele><time>2026-05-01T14:23:46.966Z</time></trkpt><trkpt lat="42.2698567" lon="14.1550317"><ele>252.0</ele><time>2026-05-01T14:23:47.967Z</time></trkpt><trkpt lat="42.2699017" lon="14.1549567"><ele>252.0</ele><time>2026-05-01T14:23:48.966Z</time></trkpt><trkpt lat="42.2699467" lon="14.1548783"><ele>252.0</ele><time>2026-05-01T14:23:49.967Z</time></trkpt><trkpt lat="42.2699917" lon="14.15479"><ele>252.0</ele><time>2026-05-01T14:23:50.967Z</time></trkpt><trkpt lat="42.2700367" lon="14.1547"><ele>252.0</ele><time>2026-05-01T14:23:51.966Z</time></trkpt><trkpt lat="42.2700783" lon="14.1546167"><ele>252.0</ele><time>2026-05-01T14:23:52.967Z</time></trkpt><trkpt lat="42.2701183" lon="14.1545367"><ele>252.0</ele><time>2026-05-01T14:23:53.967Z</time></trkpt><trkpt lat="42.270155" lon="14.1544533"><ele>254.39999999999998</ele><time>2026-05-01T14:23:54.967Z</time></trkpt><trkpt lat="42.2701933" lon="14.1543767"><ele>256.79999999999995</ele><time>2026-05-01T14:23:55.967Z</time></trkpt><trkpt lat="42.27027" lon="14.154235"><ele>259.2</ele><time>2026-05-01T14:23:57.966Z</time></trkpt><trkpt lat="42.2703183" lon="14.1541467"><ele>261.59999999999997</ele><time>2026-05-01T14:23:58.967Z</time></trkpt><trkpt lat="42.2703733" lon="14.1540467"><ele>264.0</ele><time>2026-05-01T14:23:59.966Z</time></trkpt><trkpt lat="42.27044" lon="14.1539417"><ele>265.2</ele><time>2026-05-01T14:24:00.967Z</time></trkpt><trkpt lat="42.2705167" lon="14.15384"><ele>266.4</ele><time>2026-05-01T14:24:01.966Z</time></trkpt><trkpt lat="42.27059" lon="14.153745"><ele>267.6</ele><time>2026-05-01T14:24:02.966Z</time></trkpt><trkpt lat="42.2706533" lon="14.1536567"><ele>268.8</ele><time>2026-05-01T14:24:03.967Z</time></trkpt><trkpt lat="42.2707083" lon="14.1535883"><ele>270.0</ele><time>2026-05-01T14:24:04.967Z</time></trkpt><trkpt lat="42.2707617" lon="14.1535133"><ele>270.0</ele><time>2026-05-01T14:24:05.967Z</time></trkpt><trkpt lat="42.2708133" lon="14.1534383"><ele>270.0</ele><time>2026-05-01T14:24:06.967Z</time></trkpt><trkpt lat="42.27087" lon="14.153345"><ele>270.0</ele><time>2026-05-01T14:24:07.966Z</time></trkpt><trkpt lat="42.2709233" lon="14.153265"><ele>270.0</ele><time>2026-05-01T14:24:08.967Z</time></trkpt><trkpt lat="42.2709683" lon="14.153185"><ele>270.0</ele><time>2026-05-01T14:24:09.967Z</time></trkpt><trkpt lat="42.2710283" lon="14.1530483"><ele>270.0</ele><time>2026-05-01T14:24:11.966Z</time></trkpt><trkpt lat="42.2710667" lon="14.1529017"><ele>271.5</ele><time>2026-05-01T14:24:13.967Z</time></trkpt><trkpt lat="42.2710767" lon="14.152785"><ele>273.0</ele><time>2026-05-01T14:24:15.967Z</time></trkpt><trkpt lat="42.2710967" lon="14.152675"><ele>274.5</ele><time>2026-05-01T14:24:23.967Z</time></trkpt><trkpt lat="42.27118" lon="14.15262"><ele>276.0</ele><time>2026-05-01T14:24:25.967Z</time></trkpt><trkpt lat="42.27124" lon="14.15259"><ele>277.5</ele><time>2026-05-01T14:24:26.967Z</time></trkpt><trkpt lat="42.2713117" lon="14.1525533"><ele>279.0</ele><time>2026-05-01T14:24:27.966Z</time></trkpt><trkpt lat="42.27139" lon="14.1525117"><ele>276.2</ele><time>2026-05-01T14:24:28.967Z</time></trkpt><trkpt lat="42.2714783" lon="14.1524683"><ele>273.4</ele><time>2026-05-01T14:24:29.967Z</time></trkpt><trkpt lat="42.271565" lon="14.1524317"><ele>270.6</ele><time>2026-05-01T14:24:30.966Z</time></trkpt><trkpt lat="42.2716533" lon="14.1523967"><ele>267.8</ele><time>2026-05-01T14:24:31.966Z</time></trkpt><trkpt lat="42.2717417" lon="14.15237"><ele>265.0</ele><time>2026-05-01T14:24:32.967Z</time></trkpt><trkpt lat="42.271835" lon="14.15235"><ele>264.66666666666663</ele><time>2026-05-01T14:24:33.967Z</time></trkpt><trkpt lat="42.2719183" lon="14.1523483"><ele>264.3333333333333</ele><time>2026-05-01T14:24:34.967Z</time></trkpt><trkpt lat="42.2719933" lon="14.152345"><ele>264.0</ele><time>2026-05-01T14:24:35.967Z</time></trkpt><trkpt lat="42.2721183" lon="14.1523317"><ele>263.6666666666667</ele><time>2026-05-01T14:24:37.967Z</time></trkpt><trkpt lat="42.2721867" lon="14.1523167"><ele>263.33333333333337</ele><time>2026-05-01T14:24:38.966Z</time></trkpt><trkpt lat="42.27226" lon="14.1523033"><ele>263.0</ele><time>2026-05-01T14:24:39.967Z</time></trkpt><trkpt lat="42.2723417" lon="14.152285"><ele>261.85714285714283</ele><time>2026-05-01T14:24:40.967Z</time></trkpt><trkpt lat="42.2724233" lon="14.15226"><ele>260.71428571428567</ele><time>2026-05-01T14:24:41.966Z</time></trkpt><trkpt lat="42.2725" lon="14.1522417"><ele>259.57142857142856</ele><time>2026-05-01T14:24:42.967Z</time></trkpt><trkpt lat="42.272565" lon="14.1522233"><ele>258.42857142857144</ele><time>2026-05-01T14:24:43.967Z</time></trkpt><trkpt lat="42.272655" lon="14.1522067"><ele>257.28571428571433</ele><time>2026-05-01T14:24:45.967Z</time></trkpt><trkpt lat="42.27272" lon="14.1521983"><ele>256.14285714285717</ele><time>2026-05-01T14:24:47.967Z</time></trkpt><trkpt lat="42.272785" lon="14.1521883"><ele>255.0</ele><time>2026-05-01T14:24:49.966Z</time></trkpt><trkpt lat="42.27288" lon="14.1521833"><ele>255.0</ele><time>2026-05-01T14:24:52.967Z</time></trkpt><trkpt lat="42.27296" lon="14.1521683"><ele>255.0</ele><time>2026-05-01T14:24:55.967Z</time></trkpt><trkpt lat="42.272905" lon="14.1521033"><ele>255.0</ele><time>2026-05-01T14:25:00.967Z</time></trkpt><trkpt lat="42.2727883" lon="14.1521133"><ele>255.0</ele><time>2026-05-01T14:25:02.966Z</time></trkpt><trkpt lat="42.27272" lon="14.152125"><ele>255.0</ele><time>2026-05-01T14:25:03.967Z</time></trkpt><trkpt lat="42.272655" lon="14.15214"><ele>255.0</ele><time>2026-05-01T14:25:04.966Z</time></trkpt><trkpt lat="42.2725817" lon="14.1521617"><ele>255.0</ele><time>2026-05-01T14:25:05.967Z</time></trkpt><trkpt lat="42.272505" lon="14.1521833"><ele>255.0</ele><time>2026-05-01T14:25:06.967Z</time></trkpt><trkpt lat="42.2724267" lon="14.1522067"><ele>255.0</ele><time>2026-05-01T14:25:07.967Z</time></trkpt><trkpt lat="42.27235" lon="14.1522183"><ele>255.0</ele><time>2026-05-01T14:25:08.967Z</time></trkpt><trkpt lat="42.2722667" lon="14.1522417"><ele>255.0</ele><time>2026-05-01T14:25:09.967Z</time></trkpt><trkpt lat="42.2721917" lon="14.1522633"><ele>255.0</ele><time>2026-05-01T14:25:10.967Z</time></trkpt><trkpt lat="42.2721133" lon="14.1522883"><ele>256.6</ele><time>2026-05-01T14:25:11.967Z</time></trkpt><trkpt lat="42.27204" lon="14.152305"><ele>258.2</ele><time>2026-05-01T14:25:12.966Z</time></trkpt><trkpt lat="42.2719217" lon="14.1523333"><ele>259.8</ele><time>2026-05-01T14:25:14.967Z</time></trkpt><trkpt lat="42.2718467" lon="14.15234"><ele>261.4</ele><time>2026-05-01T14:25:15.967Z</time></trkpt><trkpt lat="42.27175" lon="14.1523583"><ele>263.0</ele><time>2026-05-01T14:25:16.967Z</time></trkpt><trkpt lat="42.2716367" lon="14.1523933"><ele>263.33333333333337</ele><time>2026-05-01T14:25:17.967Z</time></trkpt><trkpt lat="42.271525" lon="14.1524333"><ele>263.6666666666667</ele><time>2026-05-01T14:25:18.967Z</time></trkpt><trkpt lat="42.2714367" lon="14.15247"><ele>264.0</ele><time>2026-05-01T14:25:19.967Z</time></trkpt><trkpt lat="42.2713567" lon="14.1525033"><ele>264.3333333333333</ele><time>2026-05-01T14:25:20.966Z</time></trkpt><trkpt lat="42.2712967" lon="14.1525367"><ele>264.66666666666663</ele><time>2026-05-01T14:25:21.967Z</time></trkpt><trkpt lat="42.2712267" lon="14.152565"><ele>265.0</ele><time>2026-05-01T14:25:22.967Z</time></trkpt><trkpt lat="42.2711617" lon="14.1525883"><ele>266.99999999999994</ele><time>2026-05-01T14:25:23.967Z</time></trkpt><trkpt lat="42.2710717" lon="14.1526217"><ele>269.0</ele><time>2026-05-01T14:25:25.967Z</time></trkpt><trkpt lat="42.2710617" lon="14.1527183"><ele>271.0</ele><time>2026-05-01T14:25:28.967Z</time></trkpt><trkpt lat="42.2711267" lon="14.1527433"><ele>273.0</ele><time>2026-05-01T14:25:31.967Z</time></trkpt><trkpt lat="42.2711967" lon="14.1527217"><ele>275.0</ele><time>2026-05-01T14:25:34.967Z</time></trkpt><trkpt lat="42.2712617" lon="14.1527167"><ele>276.99999999999994</ele><time>2026-05-01T14:25:37.967Z</time></trkpt><trkpt lat="42.2713317" lon="14.1527117"><ele>279.0</ele><time>2026-05-01T14:25:39.966Z</time></trkpt><trkpt lat="42.271425" lon="14.15271"><ele>276.6666666666667</ele><time>2026-05-01T14:25:41.967Z</time></trkpt><trkpt lat="42.271525" lon="14.1527033"><ele>274.3333333333333</ele><time>2026-05-01T14:25:43.967Z</time></trkpt><trkpt lat="42.271625" lon="14.15268"><ele>272.0</ele><time>2026-05-01T14:25:45.966Z</time></trkpt><trkpt lat="42.2717083" lon="14.1526617"><ele>269.66666666666663</ele><time>2026-05-01T14:25:47.967Z</time></trkpt><trkpt lat="42.2717883" lon="14.152685"><ele>267.3333333333333</ele><time>2026-05-01T14:25:49.967Z</time></trkpt><trkpt lat="42.27186" lon="14.1527317"><ele>265.0</ele><time>2026-05-01T14:25:51.967Z</time></trkpt><trkpt lat="42.2719233" lon="14.1527983"><ele>265.0</ele><time>2026-05-01T14:25:53.967Z</time></trkpt><trkpt lat="42.2719733" lon="14.152875"><ele>265.0</ele><time>2026-05-01T14:25:55.967Z</time></trkpt><trkpt lat="42.27202" lon="14.15294"><ele>265.0</ele><time>2026-05-01T14:25:57.967Z</time></trkpt><trkpt lat="42.2720817" lon="14.153025"><ele>265.0</ele><time>2026-05-01T14:26:00.967Z</time></trkpt><trkpt lat="42.2721367" lon="14.1531317"><ele>265.0</ele><time>2026-05-01T14:26:03.966Z</time></trkpt><trkpt lat="42.2721917" lon="14.1532333"><ele>265.0</ele><time>2026-05-01T14:26:05.966Z</time></trkpt><trkpt lat="42.2722583" lon="14.15333"><ele>261.16666666666663</ele><time>2026-05-01T14:26:07.966Z</time></trkpt><trkpt lat="42.27233" lon="14.1534117"><ele>257.3333333333333</ele><time>2026-05-01T14:26:09.967Z</time></trkpt><trkpt lat="42.2723933" lon="14.1534933"><ele>253.5</ele><time>2026-05-01T14:26:11.966Z</time></trkpt><trkpt lat="42.2724467" lon="14.1535817"><ele>249.66666666666669</ele><time>2026-05-01T14:26:13.966Z</time></trkpt><trkpt lat="42.2724817" lon="14.1536783"><ele>245.83333333333334</ele><time>2026-05-01T14:26:15.967Z</time></trkpt><trkpt lat="42.2725417" lon="14.1537667"><ele>242.0</ele><time>2026-05-01T14:26:17.967Z</time></trkpt><trkpt lat="42.27259" lon="14.15385"><ele>242.00000000000003</ele><time>2026-05-01T14:26:19.966Z</time></trkpt><trkpt lat="42.27266" lon="14.1539233"><ele>242.0</ele><time>2026-05-01T14:26:21.967Z</time></trkpt><trkpt lat="42.2727217" lon="14.153985"><ele>242.0</ele><time>2026-05-01T14:26:23.967Z</time></trkpt><trkpt lat="42.272795" lon="14.15406"><ele>242.0</ele><time>2026-05-01T14:26:25.967Z</time></trkpt><trkpt lat="42.2728683" lon="14.154125"><ele>242.00000000000003</ele><time>2026-05-01T14:26:27.967Z</time></trkpt><trkpt lat="42.2729383" lon="14.1541783"><ele>242.0</ele><time>2026-05-01T14:26:29.967Z</time></trkpt><trkpt lat="42.2730183" lon="14.1542267"><ele>239.83333333333334</ele><time>2026-05-01T14:26:31.967Z</time></trkpt><trkpt lat="42.2731" lon="14.154265"><ele>237.66666666666669</ele><time>2026-05-01T14:26:33.967Z</time></trkpt><trkpt lat="42.27317" lon="14.1543133"><ele>235.5</ele><time>2026-05-01T14:26:35.967Z</time></trkpt><trkpt lat="42.2732367" lon="14.1543533"><ele>233.33333333333331</ele><time>2026-05-01T14:26:37.967Z</time></trkpt><trkpt lat="42.2732917" lon="14.1544"><ele>231.16666666666666</ele><time>2026-05-01T14:26:39.966Z</time></trkpt><trkpt lat="42.2733333" lon="14.154485"><ele>229.0</ele><time>2026-05-01T14:26:41.966Z</time></trkpt><trkpt lat="42.273365" lon="14.1545817"><ele>226.85714285714286</ele><time>2026-05-01T14:26:43.965Z</time></trkpt><trkpt lat="42.273395" lon="14.1546667"><ele>224.71428571428572</ele><time>2026-05-01T14:26:45.966Z</time></trkpt><trkpt lat="42.273415" lon="14.1547533"><ele>222.57142857142858</ele><time>2026-05-01T14:26:47.966Z</time></trkpt><trkpt lat="42.2734283" lon="14.154845"><ele>220.42857142857144</ele><time>2026-05-01T14:26:49.965Z</time></trkpt><trkpt lat="42.2734567" lon="14.1549467"><ele>218.28571428571428</ele><time>2026-05-01T14:26:52.966Z</time></trkpt><trkpt lat="42.2734883" lon="14.1550217"><ele>216.14285714285717</ele><time>2026-05-01T14:26:54.966Z</time></trkpt><trkpt lat="42.2735467" lon="14.1550817"><ele>214.0</ele><time>2026-05-01T14:26:56.966Z</time></trkpt><trkpt lat="42.2736217" lon="14.1551367"><ele>211.0</ele><time>2026-05-01T14:26:58.966Z</time></trkpt><trkpt lat="42.273715" lon="14.1551983"><ele>207.99999999999997</ele><time>2026-05-01T14:27:00.966Z</time></trkpt><trkpt lat="42.273795" lon="14.1552367"><ele>205.0</ele><time>2026-05-01T14:27:02.966Z</time></trkpt><trkpt lat="42.2738483" lon="14.15533"><ele>202.0</ele><time>2026-05-01T14:27:04.966Z</time></trkpt><trkpt lat="42.2738967" lon="14.1554367"><ele>199.0</ele><time>2026-05-01T14:27:06.966Z</time></trkpt><trkpt lat="42.2739433" lon="14.15554"><ele>197.83333333333331</ele><time>2026-05-01T14:27:08.966Z</time></trkpt><trkpt lat="42.27401" lon="14.1556117"><ele>196.66666666666666</ele><time>2026-05-01T14:27:10.966Z</time></trkpt><trkpt lat="42.2740917" lon="14.15564"><ele>195.5</ele><time>2026-05-01T14:27:12.965Z</time></trkpt><trkpt lat="42.2741617" lon="14.15569"><ele>194.33333333333331</ele><time>2026-05-01T14:27:14.966Z</time></trkpt><trkpt lat="42.2742083" lon="14.155795"><ele>193.16666666666666</ele><time>2026-05-01T14:27:16.966Z</time></trkpt><trkpt lat="42.2742267" lon="14.155905"><ele>192.0</ele><time>2026-05-01T14:27:18.966Z</time></trkpt><trkpt lat="42.2742567" lon="14.1560217"><ele>191.0</ele><time>2026-05-01T14:27:20.965Z</time></trkpt><trkpt lat="42.2742867" lon="14.156125"><ele>190.0</ele><time>2026-05-01T14:27:22.966Z</time></trkpt><trkpt lat="42.2743283" lon="14.156225"><ele>189.0</ele><time>2026-05-01T14:27:25.966Z</time></trkpt><trkpt lat="42.274365" lon="14.156305"><ele>188.0</ele><time>2026-05-01T14:27:27.966Z</time></trkpt><trkpt lat="42.274395" lon="14.156415"><ele>187.0</ele><time>2026-05-01T14:27:30.966Z</time></trkpt><trkpt lat="42.2744433" lon="14.1565183"><ele>186.0</ele><time>2026-05-01T14:27:33.966Z</time></trkpt><trkpt lat="42.2745067" lon="14.1565833"><ele>183.57142857142858</ele><time>2026-05-01T14:27:36.966Z</time></trkpt><trkpt lat="42.2745717" lon="14.15665"><ele>181.14285714285714</ele><time>2026-05-01T14:27:39.966Z</time></trkpt><trkpt lat="42.27464" lon="14.1566867"><ele>178.71428571428572</ele><time>2026-05-01T14:27:43.966Z</time></trkpt><trkpt lat="42.2747033" lon="14.1566767"><ele>176.28571428571428</ele><time>2026-05-01T14:27:47.965Z</time></trkpt><trkpt lat="42.2747683" lon="14.15665"><ele>173.85714285714286</ele><time>2026-05-01T14:27:51.966Z</time></trkpt><trkpt lat="42.2748283" lon="14.15662"><ele>171.42857142857144</ele><time>2026-05-01T14:27:54.966Z</time></trkpt><trkpt lat="42.2748933" lon="14.1566133"><ele>169.0</ele><time>2026-05-01T14:27:57.966Z</time></trkpt><trkpt lat="42.2749733" lon="14.156615"><ele>169.83333333333334</ele><time>2026-05-01T14:28:01.966Z</time></trkpt><trkpt lat="42.2750467" lon="14.1566167"><ele>170.66666666666669</ele><time>2026-05-01T14:28:06.966Z</time></trkpt><trkpt lat="42.2751083" lon="14.1565883"><ele>171.5</ele><time>2026-05-01T14:28:11.966Z</time></trkpt><trkpt lat="42.275175" lon="14.1565417"><ele>172.33333333333334</ele><time>2026-05-01T14:28:14.966Z</time></trkpt><trkpt lat="42.2752333" lon="14.1564933"><ele>173.16666666666666</ele><time>2026-05-01T14:28:17.966Z</time></trkpt><trkpt lat="42.2753" lon="14.1564517"><ele>174.0</ele><time>2026-05-01T14:28:21.966Z</time></trkpt><trkpt lat="42.2753967" lon="14.1564067"><ele>174.0</ele><time>2026-05-01T14:28:29.966Z</time></trkpt><trkpt lat="42.2754533" lon="14.1564617"><ele>174.0</ele><time>2026-05-01T14:28:32.966Z</time></trkpt><trkpt lat="42.2755083" lon="14.1565583"><ele>174.0</ele><time>2026-05-01T14:28:35.966Z</time></trkpt><trkpt lat="42.2755317" lon="14.1566383"><ele>174.0</ele><time>2026-05-01T14:28:36.966Z</time></trkpt><trkpt lat="42.27558" lon="14.1567683"><ele>174.0</ele><time>2026-05-01T14:28:38.966Z</time></trkpt><trkpt lat="42.2756567" lon="14.1567967"><ele>174.0</ele><time>2026-05-01T14:28:40.966Z</time></trkpt><trkpt lat="42.2757217" lon="14.156795"><ele>172.66666666666666</ele><time>2026-05-01T14:28:42.966Z</time></trkpt><trkpt lat="42.2757817" lon="14.156765"><ele>171.33333333333334</ele><time>2026-05-01T14:28:44.966Z</time></trkpt><trkpt lat="42.275845" lon="14.1567017"><ele>170.0</ele><time>2026-05-01T14:31:16.965Z</time></trkpt><trkpt lat="42.2759217" lon="14.1566133"><ele>168.66666666666669</ele><time>2026-05-01T14:31:18.965Z</time></trkpt><trkpt lat="42.2759883" lon="14.1565417"><ele>167.33333333333334</ele><time>2026-05-01T14:31:30.965Z</time></trkpt><trkpt lat="42.27608" lon="14.1564833"><ele>166.0</ele><time>2026-05-01T14:31:32.965Z</time></trkpt><trkpt lat="42.2761767" lon="14.156425"><ele>166.0</ele><time>2026-05-01T14:31:34.965Z</time></trkpt><trkpt lat="42.276275" lon="14.1563567"><ele>166.0</ele><time>2026-05-01T14:31:36.965Z</time></trkpt><trkpt lat="42.2763833" lon="14.1562783"><ele>166.0</ele><time>2026-05-01T14:31:38.965Z</time></trkpt><trkpt lat="42.2764883" lon="14.1561967"><ele>166.0</ele><time>2026-05-01T14:31:40.964Z</time></trkpt><trkpt lat="42.2765983" lon="14.1561183"><ele>164.33333333333334</ele><time>2026-05-01T14:31:42.965Z</time></trkpt><trkpt lat="42.2766583" lon="14.15608"><ele>162.66666666666669</ele><time>2026-05-01T14:31:43.965Z</time></trkpt><trkpt lat="42.2767233" lon="14.1560433"><ele>161.0</ele><time>2026-05-01T14:31:44.965Z</time></trkpt><trkpt lat="42.2767967" lon="14.156005"><ele>159.33333333333334</ele><time>2026-05-01T14:31:45.965Z</time></trkpt><trkpt lat="42.2768733" lon="14.1559667"><ele>157.66666666666666</ele><time>2026-05-01T14:31:46.964Z</time></trkpt><trkpt lat="42.2769483" lon="14.1559267"><ele>156.0</ele><time>2026-05-01T14:31:47.964Z</time></trkpt><trkpt lat="42.277015" lon="14.1558883"><ele>156.0</ele><time>2026-05-01T14:31:48.964Z</time></trkpt><trkpt lat="42.277075" lon="14.155855"><ele>156.0</ele><time>2026-05-01T14:31:49.965Z</time></trkpt><trkpt lat="42.277135" lon="14.1558167"><ele>156.0</ele><time>2026-05-01T14:31:50.965Z</time></trkpt><trkpt lat="42.2772417" lon="14.1557483"><ele>156.0</ele><time>2026-05-01T14:31:52.965Z</time></trkpt><trkpt lat="42.2773283" lon="14.1557033"><ele>156.0</ele><time>2026-05-01T14:31:54.964Z</time></trkpt><trkpt lat="42.2774217" lon="14.1556517"><ele>156.0</ele><time>2026-05-01T14:31:56.965Z</time></trkpt><trkpt lat="42.2775483" lon="14.1555817"><ele>156.0</ele><time>2026-05-01T14:31:58.964Z</time></trkpt><trkpt lat="42.2776283" lon="14.155535"><ele>156.0</ele><time>2026-05-01T14:31:59.965Z</time></trkpt><trkpt lat="42.2777133" lon="14.1554817"><ele>156.0</ele><time>2026-05-01T14:32:00.964Z</time></trkpt><trkpt lat="42.2777867" lon="14.1554367"><ele>156.0</ele><time>2026-05-01T14:32:01.964Z</time></trkpt><trkpt lat="42.277855" lon="14.1553867"><ele>156.0</ele><time>2026-05-01T14:32:02.965Z</time></trkpt><trkpt lat="42.2779267" lon="14.1553433"><ele>156.0</ele><time>2026-05-01T14:32:03.965Z</time></trkpt><trkpt lat="42.2779883" lon="14.155305"><ele>156.0</ele><time>2026-05-01T14:32:04.965Z</time></trkpt><trkpt lat="42.2780483" lon="14.155265"><ele>156.0</ele><time>2026-05-01T14:32:05.964Z</time></trkpt><trkpt lat="42.278115" lon="14.155225"><ele>156.0</ele><time>2026-05-01T14:32:06.965Z</time></trkpt><trkpt lat="42.2781833" lon="14.1551883"><ele>156.0</ele><time>2026-05-01T14:32:07.965Z</time></trkpt><trkpt lat="42.2782517" lon="14.15516"><ele>156.0</ele><time>2026-05-01T14:32:08.965Z</time></trkpt><trkpt lat="42.2783167" lon="14.1551317"><ele>156.0</ele><time>2026-05-01T14:32:09.965Z</time></trkpt><trkpt lat="42.27838" lon="14.1551033"><ele>156.0</ele><time>2026-05-01T14:32:10.965Z</time></trkpt><trkpt lat="42.278445" lon="14.1550683"><ele>155.14285714285714</ele><time>2026-05-01T14:32:11.964Z</time></trkpt><trkpt lat="42.2785117" lon="14.1550333"><ele>154.28571428571428</ele><time>2026-05-01T14:32:12.964Z</time></trkpt><trkpt lat="42.278575" lon="14.1549983"><ele>153.42857142857142</ele><time>2026-05-01T14:32:13.964Z</time></trkpt><trkpt lat="42.2786383" lon="14.1549517"><ele>152.57142857142856</ele><time>2026-05-01T14:32:14.965Z</time></trkpt><trkpt lat="42.2786933" lon="14.1549067"><ele>151.71428571428572</ele><time>2026-05-01T14:32:15.964Z</time></trkpt><trkpt lat="42.2787567" lon="14.1548617"><ele>150.85714285714283</ele><time>2026-05-01T14:32:16.965Z</time></trkpt><trkpt lat="42.27883" lon="14.1548067"><ele>150.0</ele><time>2026-05-01T14:32:17.965Z</time></trkpt><trkpt lat="42.2789117" lon="14.1547433"><ele>148.2</ele><time>2026-05-01T14:32:18.964Z</time></trkpt><trkpt lat="42.2790083" lon="14.1546817"><ele>146.4</ele><time>2026-05-01T14:32:19.965Z</time></trkpt><trkpt lat="42.2791133" lon="14.1546117"><ele>144.6</ele><time>2026-05-01T14:32:20.965Z</time></trkpt><trkpt lat="42.279215" lon="14.1545467"><ele>142.8</ele><time>2026-05-01T14:32:21.965Z</time></trkpt><trkpt lat="42.2793117" lon="14.1544883"><ele>141.0</ele><time>2026-05-01T14:32:22.964Z</time></trkpt><trkpt lat="42.2793967" lon="14.15443"><ele>141.0</ele><time>2026-05-01T14:32:23.965Z</time></trkpt><trkpt lat="42.279475" lon="14.1543783"><ele>141.0</ele><time>2026-05-01T14:32:24.964Z</time></trkpt><trkpt lat="42.27955" lon="14.15433"><ele>141.0</ele><time>2026-05-01T14:32:25.964Z</time></trkpt><trkpt lat="42.2796217" lon="14.1542833"><ele>141.0</ele><time>2026-05-01T14:32:26.964Z</time></trkpt><trkpt lat="42.2797017" lon="14.154245"><ele>141.0</ele><time>2026-05-01T14:32:27.964Z</time></trkpt><trkpt lat="42.279785" lon="14.1542"><ele>141.0</ele><time>2026-05-01T14:32:28.965Z</time></trkpt><trkpt lat="42.2798683" lon="14.1541617"><ele>141.33333333333334</ele><time>2026-05-01T14:32:29.965Z</time></trkpt><trkpt lat="42.2799517" lon="14.1541167"><ele>141.66666666666666</ele><time>2026-05-01T14:32:30.965Z</time></trkpt><trkpt lat="42.280035" lon="14.1540717"><ele>142.0</ele><time>2026-05-01T14:32:31.964Z</time></trkpt><trkpt lat="42.2801067" lon="14.1540233"><ele>142.33333333333331</ele><time>2026-05-01T14:32:32.965Z</time></trkpt><trkpt lat="42.280185" lon="14.1539833"><ele>142.66666666666666</ele><time>2026-05-01T14:32:33.965Z</time></trkpt><trkpt lat="42.2802583" lon="14.15394"><ele>143.0</ele><time>2026-05-01T14:32:34.965Z</time></trkpt><trkpt lat="42.28033" lon="14.153895"><ele>143.0</ele><time>2026-05-01T14:32:35.965Z</time></trkpt><trkpt lat="42.2803967" lon="14.1538483"><ele>143.0</ele><time>2026-05-01T14:32:36.965Z</time></trkpt><trkpt lat="42.280465" lon="14.1538083"><ele>143.0</ele><time>2026-05-01T14:32:37.965Z</time></trkpt><trkpt lat="42.2805333" lon="14.1537683"><ele>143.0</ele><time>2026-05-01T14:32:38.964Z</time></trkpt><trkpt lat="42.2806083" lon="14.1537333"><ele>143.0</ele><time>2026-05-01T14:32:39.964Z</time></trkpt><trkpt lat="42.280695" lon="14.153695"><ele>143.0</ele><time>2026-05-01T14:32:40.964Z</time></trkpt><trkpt lat="42.28078" lon="14.1536617"><ele>141.0</ele><time>2026-05-01T14:32:41.964Z</time></trkpt><trkpt lat="42.2808533" lon="14.1536383"><ele>139.0</ele><time>2026-05-01T14:32:42.965Z</time></trkpt><trkpt lat="42.2809217" lon="14.1536067"><ele>137.0</ele><time>2026-05-01T14:32:43.965Z</time></trkpt><trkpt lat="42.2810383" lon="14.1535667"><ele>135.0</ele><time>2026-05-01T14:32:45.964Z</time></trkpt><trkpt lat="42.28113" lon="14.1535583"><ele>133.0</ele><time>2026-05-01T14:32:47.964Z</time></trkpt><trkpt lat="42.2812233" lon="14.1535383"><ele>133.0</ele><time>2026-05-01T14:32:49.964Z</time></trkpt><trkpt lat="42.2813233" lon="14.153505"><ele>133.0</ele><time>2026-05-01T14:32:51.965Z</time></trkpt><trkpt lat="42.2814333" lon="14.153445"><ele>133.0</ele><time>2026-05-01T14:32:53.965Z</time></trkpt><trkpt lat="42.2814883" lon="14.15339"><ele>133.0</ele><time>2026-05-01T14:32:54.965Z</time></trkpt><trkpt lat="42.2815467" lon="14.1533333"><ele>133.0</ele><time>2026-05-01T14:32:55.964Z</time></trkpt><trkpt lat="42.2816083" lon="14.1532867"><ele>133.0</ele><time>2026-05-01T14:32:56.964Z</time></trkpt><trkpt lat="42.2816817" lon="14.1532383"><ele>130.4</ele><time>2026-05-01T14:32:57.964Z</time></trkpt><trkpt lat="42.2817533" lon="14.1531883"><ele>127.80000000000001</ele><time>2026-05-01T14:32:58.963Z</time></trkpt><trkpt lat="42.2818767" lon="14.1531483"><ele>125.2</ele><time>2026-05-01T14:33:00.963Z</time></trkpt><trkpt lat="42.2819433" lon="14.1531183"><ele>122.6</ele><time>2026-05-01T14:33:01.964Z</time></trkpt><trkpt lat="42.28203" lon="14.1530983"><ele>120.0</ele><time>2026-05-01T14:33:02.964Z</time></trkpt><trkpt lat="42.282115" lon="14.1530733"><ele>120.0</ele><time>2026-05-01T14:33:03.964Z</time></trkpt><trkpt lat="42.2822" lon="14.1530533"><ele>120.0</ele><time>2026-05-01T14:33:04.964Z</time></trkpt><trkpt lat="42.2822783" lon="14.153045"><ele>120.0</ele><time>2026-05-01T14:33:05.964Z</time></trkpt><trkpt lat="42.2823783" lon="14.15301"><ele>120.0</ele><time>2026-05-01T14:33:07.964Z</time></trkpt><trkpt lat="42.2824417" lon="14.15298"><ele>120.0</ele><time>2026-05-01T14:33:11.964Z</time></trkpt><trkpt lat="42.2824783" lon="14.1529"><ele>120.0</ele><time>2026-05-01T14:33:15.964Z</time></trkpt><trkpt lat="42.2824617" lon="14.15276"><ele>119.8</ele><time>2026-05-01T14:33:18.964Z</time></trkpt><trkpt lat="42.2824417" lon="14.1526167"><ele>119.6</ele><time>2026-05-01T14:33:20.963Z</time></trkpt><trkpt lat="42.2824267" lon="14.15253"><ele>119.4</ele><time>2026-05-01T14:33:21.963Z</time></trkpt><trkpt lat="42.2823733" lon="14.1523833"><ele>119.2</ele><time>2026-05-01T14:33:23.964Z</time></trkpt><trkpt lat="42.2823383" lon="14.1522633"><ele>119.0</ele><time>2026-05-01T14:33:25.964Z</time></trkpt><trkpt lat="42.2823033" lon="14.1521717"><ele>119.0</ele><time>2026-05-01T14:33:27.964Z</time></trkpt><trkpt lat="42.28236" lon="14.15211"><ele>119.0</ele><time>2026-05-01T14:33:30.963Z</time></trkpt><trkpt lat="42.2825083" lon="14.1521133"><ele>119.0</ele><time>2026-05-01T14:33:32.964Z</time></trkpt><trkpt lat="42.2826017" lon="14.1521167"><ele>119.0</ele><time>2026-05-01T14:33:33.963Z</time></trkpt><trkpt lat="42.2826967" lon="14.1521183"><ele>119.0</ele><time>2026-05-01T14:33:34.963Z</time></trkpt><trkpt lat="42.2827817" lon="14.1521283"><ele>118.99999999999999</ele><time>2026-05-01T14:33:35.964Z</time></trkpt><trkpt lat="42.2828633" lon="14.1521183"><ele>119.0</ele><time>2026-05-01T14:33:36.964Z</time></trkpt><trkpt lat="42.282935" lon="14.152095"><ele>119.0</ele><time>2026-05-01T14:33:37.964Z</time></trkpt><trkpt lat="42.2829967" lon="14.1520483"><ele>119.0</ele><time>2026-05-01T14:33:38.964Z</time></trkpt><trkpt lat="42.2830483" lon="14.1519633"><ele>118.99999999999999</ele><time>2026-05-01T14:33:39.964Z</time></trkpt><trkpt lat="42.2830783" lon="14.1518567"><ele>119.0</ele><time>2026-05-01T14:33:40.963Z</time></trkpt><trkpt lat="42.2830933" lon="14.1517333"><ele>120.33333333333333</ele><time>2026-05-01T14:33:41.964Z</time></trkpt><trkpt lat="42.2831033" lon="14.1516117"><ele>121.66666666666666</ele><time>2026-05-01T14:33:42.963Z</time></trkpt><trkpt lat="42.283115" lon="14.1515033"><ele>123.0</ele><time>2026-05-01T14:33:43.964Z</time></trkpt><trkpt lat="42.2831317" lon="14.1514117"><ele>124.33333333333334</ele><time>2026-05-01T14:33:44.964Z</time></trkpt><trkpt lat="42.2831633" lon="14.1512717"><ele>125.66666666666667</ele><time>2026-05-01T14:33:46.964Z</time></trkpt><trkpt lat="42.2831917" lon="14.1511783"><ele>127.0</ele><time>2026-05-01T14:33:48.964Z</time></trkpt><trkpt lat="42.283175" lon="14.1510633"><ele>126.19999999999999</ele><time>2026-05-01T14:33:51.964Z</time></trkpt><trkpt lat="42.2830767" lon="14.1509733"><ele>125.39999999999999</ele><time>2026-05-01T14:33:53.964Z</time></trkpt><trkpt lat="42.2829917" lon="14.1509333"><ele>124.60000000000001</ele><time>2026-05-01T14:33:54.963Z</time></trkpt><trkpt lat="42.2829" lon="14.150865"><ele>123.80000000000001</ele><time>2026-05-01T14:33:55.964Z</time></trkpt><trkpt lat="42.2828067" lon="14.1507833"><ele>123.0</ele><time>2026-05-01T14:33:56.964Z</time></trkpt><trkpt lat="42.2827083" lon="14.1506967"><ele>125.25</ele><time>2026-05-01T14:33:57.963Z</time></trkpt><trkpt lat="42.2826167" lon="14.1505967"><ele>127.5</ele><time>2026-05-01T14:33:58.964Z</time></trkpt><trkpt lat="42.2825383" lon="14.1504733"><ele>129.75</ele><time>2026-05-01T14:33:59.963Z</time></trkpt><trkpt lat="42.282455" lon="14.1503367"><ele>132.0</ele><time>2026-05-01T14:34:00.964Z</time></trkpt><trkpt lat="42.282375" lon="14.1501833"><ele>132.0</ele><time>2026-05-01T14:34:01.964Z</time></trkpt><trkpt lat="42.2822967" lon="14.1500133"><ele>132.0</ele><time>2026-05-01T14:34:02.963Z</time></trkpt><trkpt lat="42.2822117" lon="14.14984"><ele>132.0</ele><time>2026-05-01T14:34:03.964Z</time></trkpt><trkpt lat="42.2821133" lon="14.149655"><ele>129.33333333333334</ele><time>2026-05-01T14:34:04.964Z</time></trkpt><trkpt lat="42.2820217" lon="14.149465"><ele>126.66666666666667</ele><time>2026-05-01T14:34:05.964Z</time></trkpt><trkpt lat="42.2819283" lon="14.1492833"><ele>124.0</ele><time>2026-05-01T14:34:06.964Z</time></trkpt><trkpt lat="42.2818417" lon="14.1491083"><ele>125.33333333333334</ele><time>2026-05-01T14:34:07.964Z</time></trkpt><trkpt lat="42.281745" lon="14.14893"><ele>126.66666666666666</ele><time>2026-05-01T14:34:08.963Z</time></trkpt><trkpt lat="42.2816533" lon="14.1487433"><ele>128.0</ele><time>2026-05-01T14:34:09.963Z</time></trkpt><trkpt lat="42.2815667" lon="14.1485483"><ele>128.0</ele><time>2026-05-01T14:34:10.964Z</time></trkpt><trkpt lat="42.2814833" lon="14.1483517"><ele>128.0</ele><time>2026-05-01T14:34:11.964Z</time></trkpt><trkpt lat="42.2814033" lon="14.14818"><ele>128.0</ele><time>2026-05-01T14:34:12.963Z</time></trkpt><trkpt lat="42.2813317" lon="14.1480317"><ele>128.0</ele><time>2026-05-01T14:34:13.964Z</time></trkpt><trkpt lat="42.2812767" lon="14.14791"><ele>126.99999999999999</ele><time>2026-05-01T14:34:14.964Z</time></trkpt><trkpt lat="42.2812283" lon="14.1478183"><ele>126.0</ele><time>2026-05-01T14:34:15.963Z</time></trkpt><trkpt lat="42.2811767" lon="14.1477067"><ele>125.0</ele><time>2026-05-01T14:34:17.964Z</time></trkpt><trkpt lat="42.2812117" lon="14.1476067"><ele>124.0</ele><time>2026-05-01T14:34:21.963Z</time></trkpt><trkpt lat="42.2812767" lon="14.14755"><ele>122.99999999999999</ele><time>2026-05-01T14:34:24.964Z</time></trkpt><trkpt lat="42.28133" lon="14.1475033"><ele>122.0</ele><time>2026-05-01T14:34:26.964Z</time></trkpt><trkpt lat="42.281385" lon="14.1474417"><ele>123.8</ele><time>2026-05-01T14:34:29.963Z</time></trkpt><trkpt lat="42.281455" lon="14.1473667"><ele>125.6</ele><time>2026-05-01T14:34:31.964Z</time></trkpt><trkpt lat="42.2815133" lon="14.1472533"><ele>127.39999999999999</ele><time>2026-05-01T14:34:33.964Z</time></trkpt><trkpt lat="42.2815583" lon="14.1471283"><ele>129.2</ele><time>2026-05-01T14:34:35.964Z</time></trkpt><trkpt lat="42.2815967" lon="14.1469967"><ele>131.0</ele><time>2026-05-01T14:34:37.964Z</time></trkpt><trkpt lat="42.2815917" lon="14.1468733"><ele>131.0</ele><time>2026-05-01T14:34:39.964Z</time></trkpt><trkpt lat="42.281575" lon="14.14677"><ele>131.0</ele><time>2026-05-01T14:34:41.964Z</time></trkpt><trkpt lat="42.28156" lon="14.1466283"><ele>131.0</ele><time>2026-05-01T14:34:43.964Z</time></trkpt><trkpt lat="42.2815483" lon="14.146535"><ele>131.0</ele><time>2026-05-01T14:34:44.964Z</time></trkpt><trkpt lat="42.2815317" lon="14.1464333"><ele>131.0</ele><time>2026-05-01T14:34:45.964Z</time></trkpt><trkpt lat="42.28151" lon="14.1463333"><ele>131.0</ele><time>2026-05-01T14:34:46.964Z</time></trkpt><trkpt lat="42.28149" lon="14.1462383"><ele>131.16666666666666</ele><time>2026-05-01T14:34:47.964Z</time></trkpt><trkpt lat="42.2814717" lon="14.146135"><ele>131.33333333333331</ele><time>2026-05-01T14:34:48.964Z</time></trkpt><trkpt lat="42.281455" lon="14.1460433"><ele>131.5</ele><time>2026-05-01T14:34:49.964Z</time></trkpt><trkpt lat="42.2814233" lon="14.14591"><ele>131.66666666666666</ele><time>2026-05-01T14:34:51.963Z</time></trkpt><trkpt lat="42.2813733" lon="14.1457583"><ele>131.83333333333334</ele><time>2026-05-01T14:34:53.963Z</time></trkpt><trkpt lat="42.28134" lon="14.1456817"><ele>132.0</ele><time>2026-05-01T14:34:54.964Z</time></trkpt><trkpt lat="42.2812967" lon="14.14561"><ele>133.66666666666666</ele><time>2026-05-01T14:34:55.964Z</time></trkpt><trkpt lat="42.281255" lon="14.1455317"><ele>135.33333333333334</ele><time>2026-05-01T14:34:56.964Z</time></trkpt><trkpt lat="42.2811983" lon="14.145385"><ele>137.0</ele><time>2026-05-01T14:34:58.964Z</time></trkpt><trkpt lat="42.28119" lon="14.1453"><ele>138.66666666666669</ele><time>2026-05-01T14:34:59.964Z</time></trkpt><trkpt lat="42.281195" lon="14.1452"><ele>140.33333333333334</ele><time>2026-05-01T14:35:00.964Z</time></trkpt><trkpt lat="42.2812017" lon="14.1450967"><ele>142.0</ele><time>2026-05-01T14:35:01.964Z</time></trkpt><trkpt lat="42.2812133" lon="14.1449917"><ele>142.0</ele><time>2026-05-01T14:35:02.963Z</time></trkpt><trkpt lat="42.2812217" lon="14.1448933"><ele>142.0</ele><time>2026-05-01T14:35:03.964Z</time></trkpt><trkpt lat="42.2812317" lon="14.1447883"><ele>142.0</ele><time>2026-05-01T14:35:04.964Z</time></trkpt><trkpt lat="42.28124" lon="14.1446967"><ele>142.0</ele><time>2026-05-01T14:35:05.964Z</time></trkpt><trkpt lat="42.281255" lon="14.144535"><ele>142.0</ele><time>2026-05-01T14:35:07.964Z</time></trkpt><trkpt lat="42.28127" lon="14.1443667"><ele>143.6</ele><time>2026-05-01T14:35:09.964Z</time></trkpt><trkpt lat="42.2812783" lon="14.14428"><ele>145.2</ele><time>2026-05-01T14:35:10.963Z</time></trkpt><trkpt lat="42.2812933" lon="14.14412"><ele>146.8</ele><time>2026-05-01T14:35:12.964Z</time></trkpt><trkpt lat="42.281315" lon="14.1439683"><ele>148.4</ele><time>2026-05-01T14:35:14.964Z</time></trkpt><trkpt lat="42.2813317" lon="14.14385"><ele>150.0</ele><time>2026-05-01T14:35:16.963Z</time></trkpt><trkpt lat="42.28135" lon="14.1437067"><ele>152.2</ele><time>2026-05-01T14:35:18.964Z</time></trkpt><trkpt lat="42.281355" lon="14.1435667"><ele>154.4</ele><time>2026-05-01T14:35:20.963Z</time></trkpt><trkpt lat="42.2813483" lon="14.14345"><ele>156.60000000000002</ele><time>2026-05-01T14:35:22.963Z</time></trkpt><trkpt lat="42.2813117" lon="14.1433517"><ele>158.8</ele><time>2026-05-01T14:35:24.963Z</time></trkpt><trkpt lat="42.2812767" lon="14.1432217"><ele>161.0</ele><time>2026-05-01T14:35:26.963Z</time></trkpt><trkpt lat="42.28124" lon="14.1430967"><ele>162.8</ele><time>2026-05-01T14:35:28.964Z</time></trkpt><trkpt lat="42.281235" lon="14.1429783"><ele>164.60000000000002</ele><time>2026-05-01T14:35:30.963Z</time></trkpt><trkpt lat="42.2812833" lon="14.1428783"><ele>166.4</ele><time>2026-05-01T14:35:32.963Z</time></trkpt><trkpt lat="42.2813433" lon="14.1428167"><ele>168.2</ele><time>2026-05-01T14:35:34.964Z</time></trkpt><trkpt lat="42.2814067" lon="14.1427317"><ele>170.0</ele><time>2026-05-01T14:35:36.964Z</time></trkpt><trkpt lat="42.2814933" lon="14.14261"><ele>170.0</ele><time>2026-05-01T14:35:38.964Z</time></trkpt><trkpt lat="42.2815567" lon="14.1425083"><ele>170.0</ele><time>2026-05-01T14:35:40.964Z</time></trkpt><trkpt lat="42.2815617" lon="14.142415"><ele>170.0</ele><time>2026-05-01T14:35:42.963Z</time></trkpt><trkpt lat="42.2815033" lon="14.1423767"><ele>170.0</ele><time>2026-05-01T14:35:58.963Z</time></trkpt><trkpt lat="42.2814217" lon="14.1423583"><ele>170.0</ele><time>2026-05-01T14:36:00.964Z</time></trkpt><trkpt lat="42.28136" lon="14.142335"><ele>170.0</ele><time>2026-05-01T14:36:01.964Z</time></trkpt><trkpt lat="42.2812517" lon="14.1423083"><ele>173.66666666666666</ele><time>2026-05-01T14:36:03.964Z</time></trkpt><trkpt lat="42.28117" lon="14.142275"><ele>177.33333333333331</ele><time>2026-05-01T14:36:05.963Z</time></trkpt><trkpt lat="42.2810983" lon="14.1422233"><ele>181.0</ele><time>2026-05-01T14:36:07.963Z</time></trkpt><trkpt lat="42.2810333" lon="14.1421817"><ele>184.66666666666666</ele><time>2026-05-01T14:36:09.963Z</time></trkpt><trkpt lat="42.2809733" lon="14.1421267"><ele>188.33333333333334</ele><time>2026-05-01T14:36:11.963Z</time></trkpt><trkpt lat="42.28093" lon="14.1420333"><ele>192.0</ele><time>2026-05-01T14:36:16.963Z</time></trkpt><trkpt lat="42.280915" lon="14.141925"><ele>192.0</ele><time>2026-05-01T14:36:18.962Z</time></trkpt><trkpt lat="42.28089" lon="14.1417817"><ele>192.0</ele><time>2026-05-01T14:36:20.963Z</time></trkpt><trkpt lat="42.2808633" lon="14.1416533"><ele>192.0</ele><time>2026-05-01T14:36:22.963Z</time></trkpt><trkpt lat="42.2808317" lon="14.1415167"><ele>192.0</ele><time>2026-05-01T14:36:24.963Z</time></trkpt><trkpt lat="42.28082" lon="14.1413967"><ele>192.0</ele><time>2026-05-01T14:36:26.963Z</time></trkpt><trkpt lat="42.2808" lon="14.1412417"><ele>192.0</ele><time>2026-05-01T14:36:28.963Z</time></trkpt><trkpt lat="42.2807817" lon="14.14116"><ele>192.0</ele><time>2026-05-01T14:36:29.962Z</time></trkpt><trkpt lat="42.2807733" lon="14.141035"><ele>192.0</ele><time>2026-05-01T14:36:31.963Z</time></trkpt><trkpt lat="42.280835" lon="14.140945"><ele>192.0</ele><time>2026-05-01T14:36:34.962Z</time></trkpt><trkpt lat="42.280935" lon="14.140885"><ele>192.0</ele><time>2026-05-01T14:36:36.962Z</time></trkpt><trkpt lat="42.28105" lon="14.1408133"><ele>192.0</ele><time>2026-05-01T14:36:38.962Z</time></trkpt><trkpt lat="42.2811733" lon="14.1407333"><ele>192.0</ele><time>2026-05-01T14:36:40.963Z</time></trkpt><trkpt lat="42.281245" lon="14.1406967"><ele>192.0</ele><time>2026-05-01T14:36:41.962Z</time></trkpt><trkpt lat="42.281325" lon="14.1406583"><ele>192.0</ele><time>2026-05-01T14:36:42.962Z</time></trkpt><trkpt lat="42.2814017" lon="14.1406233"><ele>192.0</ele><time>2026-05-01T14:36:43.963Z</time></trkpt><trkpt lat="42.2814767" lon="14.1405867"><ele>194.42857142857142</ele><time>2026-05-01T14:36:44.963Z</time></trkpt><trkpt lat="42.2815467" lon="14.14055"><ele>196.85714285714286</ele><time>2026-05-01T14:36:45.962Z</time></trkpt><trkpt lat="42.2816117" lon="14.1405"><ele>199.28571428571428</ele><time>2026-05-01T14:36:46.963Z</time></trkpt><trkpt lat="42.2816717" lon="14.1404417"><ele>201.71428571428572</ele><time>2026-05-01T14:36:47.963Z</time></trkpt><trkpt lat="42.2817283" lon="14.1403767"><ele>204.14285714285714</ele><time>2026-05-01T14:36:48.963Z</time></trkpt><trkpt lat="42.281775" lon="14.1403183"><ele>206.57142857142856</ele><time>2026-05-01T14:36:49.963Z</time></trkpt><trkpt lat="42.281825" lon="14.1402567"><ele>209.0</ele><time>2026-05-01T14:36:50.962Z</time></trkpt><trkpt lat="42.2819117" lon="14.140135"><ele>209.0</ele><time>2026-05-01T14:36:52.963Z</time></trkpt><trkpt lat="42.2819767" lon="14.1400333"><ele>209.0</ele><time>2026-05-01T14:36:54.962Z</time></trkpt><trkpt lat="42.2820217" lon="14.13997"><ele>209.0</ele><time>2026-05-01T14:36:56.963Z</time></trkpt><trkpt lat="42.282085" lon="14.1398933"><ele>209.0</ele><time>2026-05-01T14:36:59.962Z</time></trkpt><trkpt lat="42.2821583" lon="14.139815"><ele>209.0</ele><time>2026-05-01T14:37:01.963Z</time></trkpt><trkpt lat="42.2822533" lon="14.1397117"><ele>209.66666666666669</ele><time>2026-05-01T14:37:03.963Z</time></trkpt><trkpt lat="42.28235" lon="14.13961"><ele>210.33333333333334</ele><time>2026-05-01T14:37:05.962Z</time></trkpt><trkpt lat="42.2824033" lon="14.139555"><ele>211.0</ele><time>2026-05-01T14:37:06.963Z</time></trkpt><trkpt lat="42.2824583" lon="14.1394817"><ele>211.66666666666669</ele><time>2026-05-01T14:37:07.962Z</time></trkpt><trkpt lat="42.2825217" lon="14.1393967"><ele>212.33333333333334</ele><time>2026-05-01T14:37:08.963Z</time></trkpt><trkpt lat="42.2825783" lon="14.139315"><ele>213.0</ele><time>2026-05-01T14:37:09.963Z</time></trkpt><trkpt lat="42.282645" lon="14.1392233"><ele>213.0</ele><time>2026-05-01T14:37:10.962Z</time></trkpt><trkpt lat="42.2827117" lon="14.13913"><ele>213.0</ele><time>2026-05-01T14:37:11.963Z</time></trkpt><trkpt lat="42.2827833" lon="14.139035"><ele>213.0</ele><time>2026-05-01T14:37:12.963Z</time></trkpt><trkpt lat="42.2828533" lon="14.1389283"><ele>213.0</ele><time>2026-05-01T14:37:13.963Z</time></trkpt><trkpt lat="42.2829183" lon="14.1388283"><ele>213.0</ele><time>2026-05-01T14:37:14.963Z</time></trkpt><trkpt lat="42.2829783" lon="14.1387367"><ele>213.66666666666666</ele><time>2026-05-01T14:37:15.963Z</time></trkpt><trkpt lat="42.2830433" lon="14.1386483"><ele>214.33333333333331</ele><time>2026-05-01T14:37:16.963Z</time></trkpt><trkpt lat="42.2831083" lon="14.13856"><ele>215.0</ele><time>2026-05-01T14:37:17.963Z</time></trkpt><trkpt lat="42.2831767" lon="14.1384767"><ele>215.66666666666666</ele><time>2026-05-01T14:37:18.963Z</time></trkpt><trkpt lat="42.2832433" lon="14.1384"><ele>216.33333333333331</ele><time>2026-05-01T14:37:19.962Z</time></trkpt><trkpt lat="42.2832983" lon="14.1383433"><ele>217.0</ele><time>2026-05-01T14:37:20.963Z</time></trkpt><trkpt lat="42.2833617" lon="14.1382667"><ele>216.99999999999997</ele><time>2026-05-01T14:37:22.963Z</time></trkpt><trkpt lat="42.2832783" lon="14.13822"><ele>217.0</ele><time>2026-05-01T14:37:25.963Z</time></trkpt><trkpt lat="42.2831533" lon="14.13818"><ele>217.0</ele><time>2026-05-01T14:37:27.962Z</time></trkpt><trkpt lat="42.2830833" lon="14.1381533"><ele>217.0</ele><time>2026-05-01T14:37:28.963Z</time></trkpt><trkpt lat="42.28301" lon="14.13813"><ele>216.99999999999997</ele><time>2026-05-01T14:37:29.963Z</time></trkpt><trkpt lat="42.2829433" lon="14.13812"><ele>217.0</ele><time>2026-05-01T14:37:30.963Z</time></trkpt><trkpt lat="42.2828417" lon="14.1381183"><ele>214.33333333333331</ele><time>2026-05-01T14:37:32.963Z</time></trkpt><trkpt lat="42.28277" lon="14.1381233"><ele>211.66666666666666</ele><time>2026-05-01T14:37:34.963Z</time></trkpt><trkpt lat="42.2827" lon="14.138065"><ele>209.0</ele><time>2026-05-01T14:37:37.963Z</time></trkpt><trkpt lat="42.282725" lon="14.137965"><ele>206.33333333333331</ele><time>2026-05-01T14:37:41.963Z</time></trkpt><trkpt lat="42.2827883" lon="14.1379067"><ele>203.66666666666666</ele><time>2026-05-01T14:37:43.962Z</time></trkpt><trkpt lat="42.282865" lon="14.1378217"><ele>201.0</ele><time>2026-05-01T14:37:45.963Z</time></trkpt><trkpt lat="42.2829083" lon="14.1377433"><ele>201.0</ele><time>2026-05-01T14:37:47.963Z</time></trkpt><trkpt lat="42.2829317" lon="14.1376383"><ele>201.0</ele><time>2026-05-01T14:37:49.962Z</time></trkpt><trkpt lat="42.28294" lon="14.1375333"><ele>201.0</ele><time>2026-05-01T14:37:51.963Z</time></trkpt><trkpt lat="42.2829217" lon="14.1374483"><ele>201.0</ele><time>2026-05-01T14:37:53.963Z</time></trkpt><trkpt lat="42.28288" lon="14.1373633"><ele>201.0</ele><time>2026-05-01T14:37:55.962Z</time></trkpt><trkpt lat="42.2828317" lon="14.1372667"><ele>201.0</ele><time>2026-05-01T14:37:57.963Z</time></trkpt><trkpt lat="42.2828" lon="14.137135"><ele>202.20000000000002</ele><time>2026-05-01T14:37:59.963Z</time></trkpt><trkpt lat="42.2827883" lon="14.1369983"><ele>203.4</ele><time>2026-05-01T14:38:01.963Z</time></trkpt><trkpt lat="42.2827783" lon="14.1368733"><ele>204.6</ele><time>2026-05-01T14:38:03.963Z</time></trkpt><trkpt lat="42.282775" lon="14.1367367"><ele>205.8</ele><time>2026-05-01T14:38:05.962Z</time></trkpt><trkpt lat="42.28276" lon="14.1366033"><ele>207.0</ele><time>2026-05-01T14:38:07.963Z</time></trkpt><trkpt lat="42.2827267" lon="14.1364533"><ele>208.16666666666666</ele><time>2026-05-01T14:38:09.962Z</time></trkpt><trkpt lat="42.2827017" lon="14.1363717"><ele>209.33333333333331</ele><time>2026-05-01T14:38:10.963Z</time></trkpt><trkpt lat="42.2826767" lon="14.13628"><ele>210.5</ele><time>2026-05-01T14:38:11.962Z</time></trkpt><trkpt lat="42.2826183" lon="14.13615"><ele>211.66666666666666</ele><time>2026-05-01T14:38:13.963Z</time></trkpt><trkpt lat="42.2825283" lon="14.1360433"><ele>212.83333333333331</ele><time>2026-05-01T14:38:15.963Z</time></trkpt><trkpt lat="42.28248" lon="14.13598"><ele>214.0</ele><time>2026-05-01T14:38:16.962Z</time></trkpt><trkpt lat="42.282405" lon="14.1358467"><ele>213.99999999999997</ele><time>2026-05-01T14:38:18.962Z</time></trkpt><trkpt lat="42.2823733" lon="14.1357717"><ele>214.0</ele><time>2026-05-01T14:38:19.963Z</time></trkpt><trkpt lat="42.2823417" lon="14.1356967"><ele>214.0</ele><time>2026-05-01T14:38:20.962Z</time></trkpt><trkpt lat="42.2822933" lon="14.13555"><ele>214.0</ele><time>2026-05-01T14:38:22.963Z</time></trkpt><trkpt lat="42.2822733" lon="14.13539"><ele>213.99999999999997</ele><time>2026-05-01T14:38:24.963Z</time></trkpt><trkpt lat="42.2822683" lon="14.1353017"><ele>214.0</ele><time>2026-05-01T14:38:25.962Z</time></trkpt><trkpt lat="42.2822583" lon="14.13521"><ele>214.14285714285717</ele><time>2026-05-01T14:38:26.963Z</time></trkpt><trkpt lat="42.2822483" lon="14.135125"><ele>214.28571428571428</ele><time>2026-05-01T14:38:27.963Z</time></trkpt><trkpt lat="42.2822383" lon="14.1350367"><ele>214.42857142857144</ele><time>2026-05-01T14:38:28.963Z</time></trkpt><trkpt lat="42.2822267" lon="14.1349467"><ele>214.57142857142858</ele><time>2026-05-01T14:38:29.963Z</time></trkpt><trkpt lat="42.2822117" lon="14.1348533"><ele>214.71428571428572</ele><time>2026-05-01T14:38:30.963Z</time></trkpt><trkpt lat="42.2821917" lon="14.13477"><ele>214.85714285714286</ele><time>2026-05-01T14:38:31.963Z</time></trkpt><trkpt lat="42.28218" lon="14.1346817"><ele>215.0</ele><time>2026-05-01T14:38:32.963Z</time></trkpt><trkpt lat="42.2821667" lon="14.1345983"><ele>215.0</ele><time>2026-05-01T14:38:33.963Z</time></trkpt><trkpt lat="42.28214" lon="14.1344317"><ele>215.0</ele><time>2026-05-01T14:38:35.963Z</time></trkpt><trkpt lat="42.28211" lon="14.1342717"><ele>215.0</ele><time>2026-05-01T14:38:37.963Z</time></trkpt><trkpt lat="42.282075" lon="14.1341167"><ele>215.0</ele><time>2026-05-01T14:38:39.963Z</time></trkpt><trkpt lat="42.2820583" lon="14.134025"><ele>215.0</ele><time>2026-05-01T14:38:40.963Z</time></trkpt><trkpt lat="42.2820433" lon="14.1339217"><ele>215.83333333333334</ele><time>2026-05-01T14:38:41.963Z</time></trkpt><trkpt lat="42.2820317" lon="14.1338167"><ele>216.66666666666669</ele><time>2026-05-01T14:38:42.963Z</time></trkpt><trkpt lat="42.2820217" lon="14.133715"><ele>217.5</ele><time>2026-05-01T14:38:43.962Z</time></trkpt><trkpt lat="42.282015" lon="14.1336217"><ele>218.33333333333331</ele><time>2026-05-01T14:38:44.963Z</time></trkpt><trkpt lat="42.2820067" lon="14.1335333"><ele>219.16666666666666</ele><time>2026-05-01T14:38:45.962Z</time></trkpt><trkpt lat="42.282" lon="14.1334483"><ele>220.0</ele><time>2026-05-01T14:38:46.962Z</time></trkpt><trkpt lat="42.28199" lon="14.133295"><ele>221.4</ele><time>2026-05-01T14:38:48.962Z</time></trkpt><trkpt lat="42.281935" lon="14.1332067"><ele>222.8</ele><time>2026-05-01T14:38:50.963Z</time></trkpt><trkpt lat="42.28184" lon="14.13316"><ele>224.2</ele><time>2026-05-01T14:38:52.963Z</time></trkpt><trkpt lat="42.281745" lon="14.1331"><ele>225.6</ele><time>2026-05-01T14:38:54.962Z</time></trkpt><trkpt lat="42.2816617" lon="14.1330233"><ele>227.0</ele><time>2026-05-01T14:38:56.962Z</time></trkpt><trkpt lat="42.2815683" lon="14.1329583"><ele>227.00000000000003</ele><time>2026-05-01T14:38:58.963Z</time></trkpt><trkpt lat="42.28146" lon="14.1329617"><ele>227.0</ele><time>2026-05-01T14:39:00.963Z</time></trkpt><trkpt lat="42.2813367" lon="14.13298"><ele>227.0</ele><time>2026-05-01T14:39:02.963Z</time></trkpt><trkpt lat="42.2812667" lon="14.1329933"><ele>227.0</ele><time>2026-05-01T14:39:03.963Z</time></trkpt><trkpt lat="42.2812033" lon="14.1330233"><ele>227.00000000000003</ele><time>2026-05-01T14:39:04.963Z</time></trkpt><trkpt lat="42.2811367" lon="14.13306"><ele>227.0</ele><time>2026-05-01T14:39:05.963Z</time></trkpt><trkpt lat="42.28103" lon="14.1331083"><ele>226.50000000000003</ele><time>2026-05-01T14:39:07.963Z</time></trkpt><trkpt lat="42.2809433" lon="14.1331033"><ele>226.0</ele><time>2026-05-01T14:39:09.963Z</time></trkpt><trkpt lat="42.2808383" lon="14.1330233"><ele>225.5</ele><time>2026-05-01T14:39:11.962Z</time></trkpt><trkpt lat="42.2807783" lon="14.1329517"><ele>225.0</ele><time>2026-05-01T14:39:12.962Z</time></trkpt><trkpt lat="42.2807183" lon="14.13288"><ele>224.50000000000003</ele><time>2026-05-01T14:39:13.962Z</time></trkpt><trkpt lat="42.2806533" lon="14.1328233"><ele>224.0</ele><time>2026-05-01T14:39:14.961Z</time></trkpt><trkpt lat="42.2805867" lon="14.1327717"><ele>222.83333333333334</ele><time>2026-05-01T14:39:15.962Z</time></trkpt><trkpt lat="42.2805133" lon="14.132735"><ele>221.66666666666669</ele><time>2026-05-01T14:39:16.962Z</time></trkpt><trkpt lat="42.2804367" lon="14.1326967"><ele>220.5</ele><time>2026-05-01T14:39:17.961Z</time></trkpt><trkpt lat="42.28037" lon="14.132655"><ele>219.33333333333331</ele><time>2026-05-01T14:39:18.962Z</time></trkpt><trkpt lat="42.2803017" lon="14.1326167"><ele>218.16666666666666</ele><time>2026-05-01T14:39:19.962Z</time></trkpt><trkpt lat="42.280225" lon="14.132585"><ele>217.0</ele><time>2026-05-01T14:39:20.962Z</time></trkpt><trkpt lat="42.2801483" lon="14.13254"><ele>217.0</ele><time>2026-05-01T14:39:21.962Z</time></trkpt><trkpt lat="42.2800717" lon="14.1324933"><ele>217.0</ele><time>2026-05-01T14:39:22.962Z</time></trkpt><trkpt lat="42.280005" lon="14.1324483"><ele>217.0</ele><time>2026-05-01T14:39:23.961Z</time></trkpt><trkpt lat="42.2799433" lon="14.1324117"><ele>217.0</ele><time>2026-05-01T14:39:24.961Z</time></trkpt><trkpt lat="42.27986" lon="14.1323183"><ele>217.0</ele><time>2026-05-01T14:39:26.962Z</time></trkpt><trkpt lat="42.2798283" lon="14.132135"><ele>218.2</ele><time>2026-05-01T14:39:28.962Z</time></trkpt><trkpt lat="42.279805" lon="14.1319867"><ele>219.39999999999998</ele><time>2026-05-01T14:39:29.961Z</time></trkpt><trkpt lat="42.2797683" lon="14.1318267"><ele>220.60000000000002</ele><time>2026-05-01T14:39:30.962Z</time></trkpt><trkpt lat="42.2797367" lon="14.131685"><ele>221.8</ele><time>2026-05-01T14:39:31.961Z</time></trkpt><trkpt lat="42.2797183" lon="14.1315817"><ele>223.0</ele><time>2026-05-01T14:39:32.961Z</time></trkpt><trkpt lat="42.2797083" lon="14.1314917"><ele>227.2</ele><time>2026-05-01T14:39:34.962Z</time></trkpt><trkpt lat="42.2797967" lon="14.1314583"><ele>231.4</ele><time>2026-05-01T14:39:38.962Z</time></trkpt><trkpt lat="42.279875" lon="14.1314733"><ele>235.59999999999997</ele><time>2026-05-01T14:39:39.962Z</time></trkpt><trkpt lat="42.279955" lon="14.1314917"><ele>239.79999999999998</ele><time>2026-05-01T14:39:40.962Z</time></trkpt><trkpt lat="42.2800533" lon="14.1315017"><ele>244.0</ele><time>2026-05-01T14:39:41.962Z</time></trkpt><trkpt lat="42.28016" lon="14.1315033"><ele>244.0</ele><time>2026-05-01T14:39:42.962Z</time></trkpt><trkpt lat="42.2802633" lon="14.131495"><ele>243.99999999999997</ele><time>2026-05-01T14:39:43.962Z</time></trkpt><trkpt lat="42.28037" lon="14.1314783"><ele>243.99999999999997</ele><time>2026-05-01T14:39:44.962Z</time></trkpt><trkpt lat="42.2804683" lon="14.1314617"><ele>244.0</ele><time>2026-05-01T14:39:45.962Z</time></trkpt><trkpt lat="42.2805583" lon="14.1314367"><ele>244.0</ele><time>2026-05-01T14:39:46.962Z</time></trkpt><trkpt lat="42.28064" lon="14.1313983"><ele>243.6</ele><time>2026-05-01T14:39:47.961Z</time></trkpt><trkpt lat="42.2807183" lon="14.1313417"><ele>243.2</ele><time>2026-05-01T14:39:48.962Z</time></trkpt><trkpt lat="42.280785" lon="14.1312717"><ele>242.79999999999998</ele><time>2026-05-01T14:39:49.961Z</time></trkpt><trkpt lat="42.2808433" lon="14.131175"><ele>242.39999999999998</ele><time>2026-05-01T14:39:50.961Z</time></trkpt><trkpt lat="42.280895" lon="14.1310567"><ele>242.0</ele><time>2026-05-01T14:39:51.962Z</time></trkpt><trkpt lat="42.2809317" lon="14.1309333"><ele>242.00000000000003</ele><time>2026-05-01T14:39:52.962Z</time></trkpt><trkpt lat="42.280965" lon="14.1308067"><ele>242.0</ele><time>2026-05-01T14:39:53.962Z</time></trkpt><trkpt lat="42.28099" lon="14.1306883"><ele>242.0</ele><time>2026-05-01T14:39:54.962Z</time></trkpt><trkpt lat="42.2810083" lon="14.1305817"><ele>242.0</ele><time>2026-05-01T14:39:55.962Z</time></trkpt><trkpt lat="42.2810217" lon="14.1304967"><ele>242.00000000000003</ele><time>2026-05-01T14:39:56.961Z</time></trkpt><trkpt lat="42.28104" lon="14.1304033"><ele>242.0</ele><time>2026-05-01T14:39:57.962Z</time></trkpt><trkpt lat="42.2810533" lon="14.1303"><ele>243.00000000000003</ele><time>2026-05-01T14:39:58.962Z</time></trkpt><trkpt lat="42.2810583" lon="14.1301883"><ele>244.0</ele><time>2026-05-01T14:39:59.962Z</time></trkpt><trkpt lat="42.28105" lon="14.130085"><ele>245.0</ele><time>2026-05-01T14:40:00.961Z</time></trkpt><trkpt lat="42.2810233" lon="14.1299917"><ele>246.0</ele><time>2026-05-01T14:40:01.962Z</time></trkpt><trkpt lat="42.28097" lon="14.129915"><ele>247.00000000000003</ele><time>2026-05-01T14:40:02.962Z</time></trkpt><trkpt lat="42.2808983" lon="14.129865"><ele>248.0</ele><time>2026-05-01T14:40:03.962Z</time></trkpt><trkpt lat="42.28082" lon="14.1298567"><ele>248.0</ele><time>2026-05-01T14:40:04.962Z</time></trkpt><trkpt lat="42.2807383" lon="14.1298783"><ele>248.0</ele><time>2026-05-01T14:40:05.962Z</time></trkpt><trkpt lat="42.28065" lon="14.129945"><ele>248.0</ele><time>2026-05-01T14:40:06.962Z</time></trkpt><trkpt lat="42.2805583" lon="14.130065"><ele>248.0</ele><time>2026-05-01T14:40:07.961Z</time></trkpt><trkpt lat="42.28048" lon="14.1301767"><ele>248.0</ele><time>2026-05-01T14:40:08.962Z</time></trkpt><trkpt lat="42.2804083" lon="14.130285"><ele>249.00000000000003</ele><time>2026-05-01T14:40:09.962Z</time></trkpt><trkpt lat="42.28034" lon="14.1303717"><ele>250.0</ele><time>2026-05-01T14:40:10.962Z</time></trkpt><trkpt lat="42.28027" lon="14.1304333"><ele>251.0</ele><time>2026-05-01T14:40:11.962Z</time></trkpt><trkpt lat="42.2801983" lon="14.1304767"><ele>252.0</ele><time>2026-05-01T14:40:12.961Z</time></trkpt><trkpt lat="42.2801183" lon="14.1304917"><ele>253.00000000000003</ele><time>2026-05-01T14:40:13.962Z</time></trkpt><trkpt lat="42.2800417" lon="14.13048"><ele>254.0</ele><time>2026-05-01T14:40:14.962Z</time></trkpt><trkpt lat="42.2799617" lon="14.13045"><ele>254.0</ele><time>2026-05-01T14:40:15.962Z</time></trkpt><trkpt lat="42.2798767" lon="14.1303983"><ele>253.99999999999997</ele><time>2026-05-01T14:40:16.962Z</time></trkpt><trkpt lat="42.2797917" lon="14.130345"><ele>253.99999999999997</ele><time>2026-05-01T14:40:17.962Z</time></trkpt><trkpt lat="42.27971" lon="14.13029"><ele>254.0</ele><time>2026-05-01T14:40:18.962Z</time></trkpt><trkpt lat="42.2796283" lon="14.1302417"><ele>254.0</ele><time>2026-05-01T14:40:19.961Z</time></trkpt><trkpt lat="42.27955" lon="14.1301933"><ele>253.66666666666669</ele><time>2026-05-01T14:40:20.961Z</time></trkpt><trkpt lat="42.2794783" lon="14.1301367"><ele>253.33333333333334</ele><time>2026-05-01T14:40:21.962Z</time></trkpt><trkpt lat="42.27941" lon="14.1300867"><ele>253.0</ele><time>2026-05-01T14:40:22.961Z</time></trkpt><trkpt lat="42.279355" lon="14.1300267"><ele>252.66666666666669</ele><time>2026-05-01T14:40:23.962Z</time></trkpt><trkpt lat="42.2793067" lon="14.1299517"><ele>252.33333333333334</ele><time>2026-05-01T14:40:24.962Z</time></trkpt><trkpt lat="42.2792883" lon="14.1298517"><ele>252.0</ele><time>2026-05-01T14:40:25.962Z</time></trkpt><trkpt lat="42.279305" lon="14.1297317"><ele>254.16666666666666</ele><time>2026-05-01T14:40:26.961Z</time></trkpt><trkpt lat="42.279345" lon="14.129645"><ele>256.3333333333333</ele><time>2026-05-01T14:40:27.961Z</time></trkpt><trkpt lat="42.279415" lon="14.1295917"><ele>258.5</ele><time>2026-05-01T14:40:28.961Z</time></trkpt><trkpt lat="42.2794933" lon="14.12957"><ele>260.66666666666663</ele><time>2026-05-01T14:40:29.962Z</time></trkpt><trkpt lat="42.2795833" lon="14.12957"><ele>262.8333333333333</ele><time>2026-05-01T14:40:30.962Z</time></trkpt><trkpt lat="42.2796667" lon="14.1295583"><ele>265.0</ele><time>2026-05-01T14:40:31.962Z</time></trkpt><trkpt lat="42.2797467" lon="14.1295333"><ele>264.16666666666663</ele><time>2026-05-01T14:40:32.961Z</time></trkpt><trkpt lat="42.2798217" lon="14.12949"><ele>263.3333333333333</ele><time>2026-05-01T14:40:33.962Z</time></trkpt><trkpt lat="42.2798867" lon="14.12943"><ele>262.5</ele><time>2026-05-01T14:40:34.962Z</time></trkpt><trkpt lat="42.2799317" lon="14.129355"><ele>261.6666666666667</ele><time>2026-05-01T14:40:35.962Z</time></trkpt><trkpt lat="42.2799683" lon="14.1292633"><ele>260.83333333333337</ele><time>2026-05-01T14:40:36.962Z</time></trkpt><trkpt lat="42.28" lon="14.1291733"><ele>260.0</ele><time>2026-05-01T14:40:37.961Z</time></trkpt><trkpt lat="42.2800383" lon="14.1290717"><ele>262.2</ele><time>2026-05-01T14:40:38.962Z</time></trkpt><trkpt lat="42.2800767" lon="14.12897"><ele>264.4</ele><time>2026-05-01T14:40:39.962Z</time></trkpt><trkpt lat="42.28012" lon="14.1288617"><ele>266.6</ele><time>2026-05-01T14:40:40.962Z</time></trkpt><trkpt lat="42.2801567" lon="14.1287433"><ele>268.8</ele><time>2026-05-01T14:40:41.962Z</time></trkpt><trkpt lat="42.2801983" lon="14.12863"><ele>271.0</ele><time>2026-05-01T14:40:42.962Z</time></trkpt><trkpt lat="42.2802383" lon="14.128525"><ele>271.0</ele><time>2026-05-01T14:40:43.962Z</time></trkpt><trkpt lat="42.280285" lon="14.1284283"><ele>271.0</ele><time>2026-05-01T14:40:44.962Z</time></trkpt><trkpt lat="42.2803417" lon="14.12833"><ele>271.0</ele><time>2026-05-01T14:40:45.962Z</time></trkpt><trkpt lat="42.280415" lon="14.1282633"><ele>271.0</ele><time>2026-05-01T14:40:46.962Z</time></trkpt><trkpt lat="42.2804983" lon="14.1282033"><ele>271.0</ele><time>2026-05-01T14:40:47.961Z</time></trkpt><trkpt lat="42.2805867" lon="14.1281467"><ele>272.0</ele><time>2026-05-01T14:40:48.961Z</time></trkpt><trkpt lat="42.2806733" lon="14.1280917"><ele>273.0</ele><time>2026-05-01T14:40:49.962Z</time></trkpt><trkpt lat="42.2807517" lon="14.128045"><ele>274.0</ele><time>2026-05-01T14:40:50.961Z</time></trkpt><trkpt lat="42.2808233" lon="14.128015"><ele>275.0</ele><time>2026-05-01T14:40:51.962Z</time></trkpt><trkpt lat="42.280895" lon="14.1279783"><ele>276.0</ele><time>2026-05-01T14:40:52.961Z</time></trkpt><trkpt lat="42.2809567" lon="14.1279333"><ele>277.0</ele><time>2026-05-01T14:40:53.962Z</time></trkpt><trkpt lat="42.2810133" lon="14.1278717"><ele>277.0</ele><time>2026-05-01T14:40:54.962Z</time></trkpt><trkpt lat="42.28105" lon="14.12779"><ele>277.0</ele><time>2026-05-01T14:40:55.962Z</time></trkpt><trkpt lat="42.2810733" lon="14.1276867"><ele>277.0</ele><time>2026-05-01T14:40:56.962Z</time></trkpt><trkpt lat="42.2810733" lon="14.1275717"><ele>277.0</ele><time>2026-05-01T14:40:57.961Z</time></trkpt><trkpt lat="42.2810533" lon="14.127465"><ele>277.0</ele><time>2026-05-01T14:40:58.962Z</time></trkpt><trkpt lat="42.2810067" lon="14.1273733"><ele>277.0</ele><time>2026-05-01T14:40:59.962Z</time></trkpt><trkpt lat="42.2809317" lon="14.1273033"><ele>279.75</ele><time>2026-05-01T14:41:00.961Z</time></trkpt><trkpt lat="42.2808567" lon="14.127265"><ele>282.5</ele><time>2026-05-01T14:41:01.962Z</time></trkpt><trkpt lat="42.280765" lon="14.1272483"><ele>285.25</ele><time>2026-05-01T14:41:02.962Z</time></trkpt><trkpt lat="42.2806333" lon="14.1272683"><ele>288.0</ele><time>2026-05-01T14:41:03.961Z</time></trkpt><trkpt lat="42.2804783" lon="14.1273"><ele>288.0</ele><time>2026-05-01T14:41:04.962Z</time></trkpt><trkpt lat="42.280295" lon="14.1273367"><ele>288.0</ele><time>2026-05-01T14:41:05.962Z</time></trkpt><trkpt lat="42.2801033" lon="14.1273617"><ele>288.0</ele><time>2026-05-01T14:41:06.961Z</time></trkpt><trkpt lat="42.279925" lon="14.1273867"><ele>286.0</ele><time>2026-05-01T14:41:07.962Z</time></trkpt><trkpt lat="42.2797583" lon="14.1274017"><ele>284.0</ele><time>2026-05-01T14:41:08.961Z</time></trkpt><trkpt lat="42.2795983" lon="14.12742"><ele>282.0</ele><time>2026-05-01T14:41:09.961Z</time></trkpt><trkpt lat="42.27944" lon="14.127435"><ele>282.0</ele><time>2026-05-01T14:41:10.962Z</time></trkpt><trkpt lat="42.2792883" lon="14.1274533"><ele>282.0</ele><time>2026-05-01T14:41:11.962Z</time></trkpt><trkpt lat="42.2791333" lon="14.1274717"><ele>282.0</ele><time>2026-05-01T14:41:12.962Z</time></trkpt><trkpt lat="42.2789767" lon="14.1274883"><ele>282.5</ele><time>2026-05-01T14:41:13.962Z</time></trkpt><trkpt lat="42.2788417" lon="14.1275117"><ele>283.0</ele><time>2026-05-01T14:41:14.962Z</time></trkpt><trkpt lat="42.278715" lon="14.1275067"><ele>283.5</ele><time>2026-05-01T14:41:15.962Z</time></trkpt><trkpt lat="42.2786" lon="14.12746"><ele>284.0</ele><time>2026-05-01T14:41:16.962Z</time></trkpt><trkpt lat="42.2785033" lon="14.127365"><ele>285.0</ele><time>2026-05-01T14:41:17.962Z</time></trkpt><trkpt lat="42.2784317" lon="14.1272333"><ele>286.0</ele><time>2026-05-01T14:41:18.962Z</time></trkpt><trkpt lat="42.2784067" lon="14.127075"><ele>287.0</ele><time>2026-05-01T14:41:19.962Z</time></trkpt><trkpt lat="42.2784217" lon="14.1269117"><ele>288.0</ele><time>2026-05-01T14:41:20.962Z</time></trkpt><trkpt lat="42.2784633" lon="14.1267683"><ele>288.0</ele><time>2026-05-01T14:41:21.961Z</time></trkpt><trkpt lat="42.2785433" lon="14.1266533"><ele>288.0</ele><time>2026-05-01T14:41:22.962Z</time></trkpt><trkpt lat="42.2786467" lon="14.1265767"><ele>288.0</ele><time>2026-05-01T14:41:23.962Z</time></trkpt><trkpt lat="42.2787683" lon="14.1265267"><ele>288.0</ele><time>2026-05-01T14:41:24.962Z</time></trkpt><trkpt lat="42.2788817" lon="14.126505"><ele>289.5</ele><time>2026-05-01T14:41:25.962Z</time></trkpt><trkpt lat="42.2789817" lon="14.1264917"><ele>291.0</ele><time>2026-05-01T14:41:26.961Z</time></trkpt><trkpt lat="42.279065" lon="14.1264767"><ele>292.5</ele><time>2026-05-01T14:41:27.962Z</time></trkpt><trkpt lat="42.2791367" lon="14.12646"><ele>294.0</ele><time>2026-05-01T14:41:28.961Z</time></trkpt><trkpt lat="42.2792067" lon="14.1264483"><ele>295.5</ele><time>2026-05-01T14:41:29.961Z</time></trkpt><trkpt lat="42.2792717" lon="14.1264367"><ele>297.0</ele><time>2026-05-01T14:41:30.962Z</time></trkpt><trkpt lat="42.2793817" lon="14.1264133"><ele>297.0</ele><time>2026-05-01T14:41:32.962Z</time></trkpt><trkpt lat="42.2794483" lon="14.1264017"><ele>297.0</ele><time>2026-05-01T14:41:34.961Z</time></trkpt><trkpt lat="42.279525" lon="14.1263883"><ele>297.0</ele><time>2026-05-01T14:41:37.961Z</time></trkpt><trkpt lat="42.2795883" lon="14.1263733"><ele>297.0</ele><time>2026-05-01T14:41:38.961Z</time></trkpt><trkpt lat="42.2796783" lon="14.1263567"><ele>297.0</ele><time>2026-05-01T14:41:39.961Z</time></trkpt><trkpt lat="42.2797633" lon="14.1263417"><ele>297.0</ele><time>2026-05-01T14:41:40.961Z</time></trkpt><trkpt lat="42.2798583" lon="14.1263417"><ele>297.0</ele><time>2026-05-01T14:41:42.962Z</time></trkpt><trkpt lat="42.2799217" lon="14.1262883"><ele>297.0</ele><time>2026-05-01T14:41:50.962Z</time></trkpt><trkpt lat="42.279835" lon="14.1262833"><ele>297.0</ele><time>2026-05-01T14:41:53.962Z</time></trkpt><trkpt lat="42.2797667" lon="14.1263"><ele>297.0</ele><time>2026-05-01T14:41:54.961Z</time></trkpt><trkpt lat="42.2796867" lon="14.1263183"><ele>297.0</ele><time>2026-05-01T14:41:55.962Z</time></trkpt><trkpt lat="42.2795883" lon="14.1263333"><ele>297.0</ele><time>2026-05-01T14:41:56.962Z</time></trkpt><trkpt lat="42.279475" lon="14.1263533"><ele>297.0</ele><time>2026-05-01T14:41:57.962Z</time></trkpt><trkpt lat="42.2793567" lon="14.12638"><ele>297.0</ele><time>2026-05-01T14:41:58.961Z</time></trkpt><trkpt lat="42.2792283" lon="14.1263983"><ele>297.0</ele><time>2026-05-01T14:41:59.962Z</time></trkpt><trkpt lat="42.2791117" lon="14.1264167"><ele>297.0</ele><time>2026-05-01T14:42:00.962Z</time></trkpt><trkpt lat="42.278995" lon="14.12644"><ele>296.8</ele><time>2026-05-01T14:42:01.961Z</time></trkpt><trkpt lat="42.2788817" lon="14.1264617"><ele>296.6</ele><time>2026-05-01T14:42:02.962Z</time></trkpt><trkpt lat="42.2787733" lon="14.1264817"><ele>296.40000000000003</ele><time>2026-05-01T14:42:03.962Z</time></trkpt><trkpt lat="42.2786733" lon="14.1265133"><ele>296.2</ele><time>2026-05-01T14:42:04.961Z</time></trkpt><trkpt lat="42.2785817" lon="14.126575"><ele>296.0</ele><time>2026-05-01T14:42:05.962Z</time></trkpt><trkpt lat="42.2784967" lon="14.1266733"><ele>294.40000000000003</ele><time>2026-05-01T14:42:06.962Z</time></trkpt><trkpt lat="42.2784317" lon="14.1267883"><ele>292.8</ele><time>2026-05-01T14:42:07.962Z</time></trkpt><trkpt lat="42.278395" lon="14.1269217"><ele>291.20000000000005</ele><time>2026-05-01T14:42:08.961Z</time></trkpt><trkpt lat="42.278385" lon="14.1270667"><ele>289.6</ele><time>2026-05-01T14:42:09.961Z</time></trkpt><trkpt lat="42.278405" lon="14.1272067"><ele>288.0</ele><time>2026-05-01T14:42:10.962Z</time></trkpt><trkpt lat="42.27846" lon="14.12733"><ele>287.0</ele><time>2026-05-01T14:42:11.961Z</time></trkpt><trkpt lat="42.2785417" lon="14.1274317"><ele>286.0</ele><time>2026-05-01T14:42:12.962Z</time></trkpt><trkpt lat="42.2786417" lon="14.1275017"><ele>285.0</ele><time>2026-05-01T14:42:13.962Z</time></trkpt><trkpt lat="42.2787583" lon="14.127525"><ele>284.0</ele><time>2026-05-01T14:42:14.962Z</time></trkpt><trkpt lat="42.2788817" lon="14.1275283"><ele>283.59999999999997</ele><time>2026-05-01T14:42:15.962Z</time></trkpt><trkpt lat="42.27901" lon="14.1275217"><ele>283.2</ele><time>2026-05-01T14:42:16.962Z</time></trkpt><trkpt lat="42.2791233" lon="14.1275033"><ele>282.79999999999995</ele><time>2026-05-01T14:42:17.962Z</time></trkpt><trkpt lat="42.279215" lon="14.1274783"><ele>282.4</ele><time>2026-05-01T14:42:18.961Z</time></trkpt><trkpt lat="42.2792833" lon="14.127465"><ele>282.0</ele><time>2026-05-01T14:42:19.961Z</time></trkpt><trkpt lat="42.2793317" lon="14.1275433"><ele>282.0</ele><time>2026-05-01T14:42:22.961Z</time></trkpt><trkpt lat="42.27925" lon="14.1275733"><ele>282.0</ele><time>2026-05-01T14:42:25.961Z</time></trkpt><trkpt lat="42.2791583" lon="14.1275867"><ele>282.0</ele><time>2026-05-01T14:42:28.961Z</time></trkpt><trkpt lat="42.2790917" lon="14.127615"><ele>282.0</ele><time>2026-05-01T14:42:31.96Z</time></trkpt><trkpt lat="42.2789417" lon="14.127625"><ele>282.0</ele><time>2026-05-01T14:42:46.961Z</time></trkpt><trkpt lat="42.2788733" lon="14.1276183"><ele>282.3333333333333</ele><time>2026-05-01T14:42:47.961Z</time></trkpt><trkpt lat="42.2787933" lon="14.12762"><ele>282.6666666666667</ele><time>2026-05-01T14:42:48.961Z</time></trkpt><trkpt lat="42.2787167" lon="14.1276183"><ele>283.0</ele><time>2026-05-01T14:42:49.961Z</time></trkpt><trkpt lat="42.2786383" lon="14.127615"><ele>283.33333333333337</ele><time>2026-05-01T14:42:50.961Z</time></trkpt><trkpt lat="42.2785567" lon="14.12761"><ele>283.6666666666667</ele><time>2026-05-01T14:42:51.961Z</time></trkpt><trkpt lat="42.278475" lon="14.1276"><ele>284.0</ele><time>2026-05-01T14:42:52.961Z</time></trkpt><trkpt lat="42.2783867" lon="14.1276"><ele>284.0</ele><time>2026-05-01T14:42:53.961Z</time></trkpt><trkpt lat="42.27829" lon="14.1275883"><ele>284.0</ele><time>2026-05-01T14:42:54.961Z</time></trkpt><trkpt lat="42.2781917" lon="14.1275817"><ele>284.0</ele><time>2026-05-01T14:42:55.961Z</time></trkpt><trkpt lat="42.2780933" lon="14.1275583"><ele>284.0</ele><time>2026-05-01T14:42:56.961Z</time></trkpt><trkpt lat="42.2779883" lon="14.1275317"><ele>284.0</ele><time>2026-05-01T14:42:57.961Z</time></trkpt><trkpt lat="42.2778833" lon="14.1274933"><ele>284.4</ele><time>2026-05-01T14:42:58.961Z</time></trkpt><trkpt lat="42.277775" lon="14.1274467"><ele>284.79999999999995</ele><time>2026-05-01T14:42:59.961Z</time></trkpt><trkpt lat="42.277675" lon="14.1274083"><ele>285.20000000000005</ele><time>2026-05-01T14:43:00.961Z</time></trkpt><trkpt lat="42.27758" lon="14.127385"><ele>285.6</ele><time>2026-05-01T14:43:01.961Z</time></trkpt><trkpt lat="42.2774867" lon="14.1273633"><ele>286.0</ele><time>2026-05-01T14:43:02.96Z</time></trkpt><trkpt lat="42.27739" lon="14.12736"><ele>287.3333333333333</ele><time>2026-05-01T14:43:03.96Z</time></trkpt><trkpt lat="42.2772967" lon="14.127355"><ele>288.66666666666663</ele><time>2026-05-01T14:43:04.961Z</time></trkpt><trkpt lat="42.277205" lon="14.127375"><ele>290.0</ele><time>2026-05-01T14:43:05.961Z</time></trkpt><trkpt lat="42.277115" lon="14.1273883"><ele>291.3333333333333</ele><time>2026-05-01T14:43:06.961Z</time></trkpt><trkpt lat="42.27704" lon="14.127375"><ele>292.6666666666667</ele><time>2026-05-01T14:43:07.961Z</time></trkpt><trkpt lat="42.27697" lon="14.12736"><ele>294.0</ele><time>2026-05-01T14:43:08.961Z</time></trkpt><trkpt lat="42.2768967" lon="14.1273233"><ele>294.59999999999997</ele><time>2026-05-01T14:43:09.961Z</time></trkpt><trkpt lat="42.27683" lon="14.127285"><ele>295.2</ele><time>2026-05-01T14:43:10.96Z</time></trkpt><trkpt lat="42.2767183" lon="14.12723"><ele>295.79999999999995</ele><time>2026-05-01T14:43:12.961Z</time></trkpt><trkpt lat="42.2766133" lon="14.127195"><ele>296.4</ele><time>2026-05-01T14:43:14.96Z</time></trkpt><trkpt lat="42.2765233" lon="14.1272383"><ele>297.0</ele><time>2026-05-01T14:43:16.961Z</time></trkpt><trkpt lat="42.2764283" lon="14.1273417"><ele>296.8</ele><time>2026-05-01T14:43:18.961Z</time></trkpt><trkpt lat="42.276375" lon="14.1274217"><ele>296.6</ele><time>2026-05-01T14:43:19.961Z</time></trkpt><trkpt lat="42.2763217" lon="14.1275183"><ele>296.40000000000003</ele><time>2026-05-01T14:43:20.961Z</time></trkpt><trkpt lat="42.2762583" lon="14.1276183"><ele>296.2</ele><time>2026-05-01T14:43:21.961Z</time></trkpt><trkpt lat="42.27619" lon="14.1277233"><ele>296.0</ele><time>2026-05-01T14:43:22.96Z</time></trkpt><trkpt lat="42.2761183" lon="14.12781"><ele>296.0</ele><time>2026-05-01T14:43:23.961Z</time></trkpt><trkpt lat="42.2760483" lon="14.1278717"><ele>296.0</ele><time>2026-05-01T14:43:24.96Z</time></trkpt><trkpt lat="42.2759717" lon="14.1279267"><ele>296.0</ele><time>2026-05-01T14:43:25.961Z</time></trkpt><trkpt lat="42.2758917" lon="14.1279517"><ele>296.0</ele><time>2026-05-01T14:43:26.961Z</time></trkpt><trkpt lat="42.2757967" lon="14.12797"><ele>296.0</ele><time>2026-05-01T14:43:27.961Z</time></trkpt><trkpt lat="42.2756983" lon="14.1279933"><ele>296.0</ele><time>2026-05-01T14:43:28.96Z</time></trkpt><trkpt lat="42.2756017" lon="14.1280217"><ele>296.6666666666667</ele><time>2026-05-01T14:43:29.961Z</time></trkpt><trkpt lat="42.2755117" lon="14.12807"><ele>297.33333333333337</ele><time>2026-05-01T14:43:30.961Z</time></trkpt><trkpt lat="42.2754333" lon="14.12812"><ele>298.0</ele><time>2026-05-01T14:43:31.96Z</time></trkpt><trkpt lat="42.27537" lon="14.1281767"><ele>298.6666666666667</ele><time>2026-05-01T14:43:32.96Z</time></trkpt><trkpt lat="42.275315" lon="14.12822"><ele>299.3333333333333</ele><time>2026-05-01T14:43:33.96Z</time></trkpt><trkpt lat="42.2752217" lon="14.1282733"><ele>300.0</ele><time>2026-05-01T14:43:35.961Z</time></trkpt><trkpt lat="42.2751467" lon="14.1282133"><ele>300.75</ele><time>2026-05-01T14:43:37.961Z</time></trkpt><trkpt lat="42.275115" lon="14.128095"><ele>301.5</ele><time>2026-05-01T14:43:38.961Z</time></trkpt><trkpt lat="42.2750717" lon="14.1279533"><ele>302.25</ele><time>2026-05-01T14:43:39.961Z</time></trkpt><trkpt lat="42.2750283" lon="14.1278017"><ele>303.0</ele><time>2026-05-01T14:43:40.961Z</time></trkpt><trkpt lat="42.2749783" lon="14.12764"><ele>303.0</ele><time>2026-05-01T14:43:41.961Z</time></trkpt><trkpt lat="42.2749217" lon="14.1274767"><ele>303.0</ele><time>2026-05-01T14:43:42.961Z</time></trkpt><trkpt lat="42.2748667" lon="14.1273267"><ele>303.0</ele><time>2026-05-01T14:43:43.961Z</time></trkpt><trkpt lat="42.2748133" lon="14.12717"><ele>303.0</ele><time>2026-05-01T14:43:44.961Z</time></trkpt><trkpt lat="42.2747667" lon="14.127015"><ele>302.0</ele><time>2026-05-01T14:43:45.961Z</time></trkpt><trkpt lat="42.2747233" lon="14.1268567"><ele>301.0</ele><time>2026-05-01T14:43:46.96Z</time></trkpt><trkpt lat="42.274685" lon="14.1266983"><ele>300.0</ele><time>2026-05-01T14:43:47.961Z</time></trkpt><trkpt lat="42.2746517" lon="14.1265483"><ele>299.0</ele><time>2026-05-01T14:43:48.961Z</time></trkpt><trkpt lat="42.2746183" lon="14.126405"><ele>297.25</ele><time>2026-05-01T14:43:49.96Z</time></trkpt><trkpt lat="42.2746033" lon="14.1262517"><ele>295.5</ele><time>2026-05-01T14:43:50.961Z</time></trkpt><trkpt lat="42.274615" lon="14.1260933"><ele>293.75</ele><time>2026-05-01T14:43:51.961Z</time></trkpt><trkpt lat="42.274645" lon="14.1259183"><ele>292.0</ele><time>2026-05-01T14:43:52.961Z</time></trkpt><trkpt lat="42.2746917" lon="14.125725"><ele>292.0</ele><time>2026-05-01T14:43:53.961Z</time></trkpt><trkpt lat="42.2747467" lon="14.1255383"><ele>292.0</ele><time>2026-05-01T14:43:54.961Z</time></trkpt><trkpt lat="42.2747983" lon="14.1253583"><ele>292.0</ele><time>2026-05-01T14:43:55.96Z</time></trkpt><trkpt lat="42.274845" lon="14.125205"><ele>292.0</ele><time>2026-05-01T14:43:56.961Z</time></trkpt><trkpt lat="42.274885" lon="14.1250617"><ele>297.4</ele><time>2026-05-01T14:43:57.961Z</time></trkpt><trkpt lat="42.274925" lon="14.12494"><ele>302.79999999999995</ele><time>2026-05-01T14:43:58.96Z</time></trkpt><trkpt lat="42.2749667" lon="14.1248267"><ele>308.2</ele><time>2026-05-01T14:43:59.961Z</time></trkpt><trkpt lat="42.2750183" lon="14.1247117"><ele>313.59999999999997</ele><time>2026-05-01T14:44:00.961Z</time></trkpt><trkpt lat="42.2750717" lon="14.124595"><ele>319.0</ele><time>2026-05-01T14:44:01.961Z</time></trkpt><trkpt lat="42.2751183" lon="14.1244867"><ele>320.6</ele><time>2026-05-01T14:44:02.961Z</time></trkpt><trkpt lat="42.27517" lon="14.12439"><ele>322.2</ele><time>2026-05-01T14:44:03.96Z</time></trkpt><trkpt lat="42.2752283" lon="14.1243083"><ele>323.8</ele><time>2026-05-01T14:44:04.961Z</time></trkpt><trkpt lat="42.2753033" lon="14.1242467"><ele>325.40000000000003</ele><time>2026-05-01T14:44:05.961Z</time></trkpt><trkpt lat="42.2754083" lon="14.1242267"><ele>327.0</ele><time>2026-05-01T14:44:06.961Z</time></trkpt><trkpt lat="42.27553" lon="14.124215"><ele>325.5</ele><time>2026-05-01T14:44:07.96Z</time></trkpt><trkpt lat="42.275655" lon="14.1242133"><ele>324.0</ele><time>2026-05-01T14:44:08.961Z</time></trkpt><trkpt lat="42.2757833" lon="14.124205"><ele>322.5</ele><time>2026-05-01T14:44:09.96Z</time></trkpt><trkpt lat="42.2759017" lon="14.1241967"><ele>321.0</ele><time>2026-05-01T14:44:10.96Z</time></trkpt><trkpt lat="42.2760267" lon="14.1241717"><ele>321.0</ele><time>2026-05-01T14:44:11.96Z</time></trkpt><trkpt lat="42.2761417" lon="14.124135"><ele>321.0</ele><time>2026-05-01T14:44:12.961Z</time></trkpt><trkpt lat="42.276255" lon="14.1241117"><ele>321.0</ele><time>2026-05-01T14:44:13.961Z</time></trkpt><trkpt lat="42.2763533" lon="14.1240933"><ele>321.0</ele><time>2026-05-01T14:44:14.961Z</time></trkpt><trkpt lat="42.2764317" lon="14.1240883"><ele>321.0</ele><time>2026-05-01T14:44:15.961Z</time></trkpt><trkpt lat="42.2765083" lon="14.1240933"><ele>320.4285714285714</ele><time>2026-05-01T14:44:17.961Z</time></trkpt><trkpt lat="42.276465" lon="14.1240133"><ele>319.85714285714283</ele><time>2026-05-01T14:44:26.96Z</time></trkpt><trkpt lat="42.2764083" lon="14.1239733"><ele>319.2857142857143</ele><time>2026-05-01T14:44:27.961Z</time></trkpt><trkpt lat="42.2763533" lon="14.1239117"><ele>318.71428571428567</ele><time>2026-05-01T14:44:28.961Z</time></trkpt><trkpt lat="42.2763033" lon="14.1238417"><ele>318.1428571428571</ele><time>2026-05-01T14:44:29.961Z</time></trkpt><trkpt lat="42.2762617" lon="14.1237617"><ele>317.57142857142856</ele><time>2026-05-01T14:44:30.961Z</time></trkpt><trkpt lat="42.276215" lon="14.12367"><ele>317.0</ele><time>2026-05-01T14:44:31.961Z</time></trkpt><trkpt lat="42.2761683" lon="14.1235733"><ele>317.0</ele><time>2026-05-01T14:44:32.961Z</time></trkpt><trkpt lat="42.27612" lon="14.123495"><ele>317.0</ele><time>2026-05-01T14:44:33.961Z</time></trkpt><trkpt lat="42.2760683" lon="14.123435"><ele>317.0</ele><time>2026-05-01T14:44:34.96Z</time></trkpt><trkpt lat="42.27599" lon="14.12339"><ele>317.0</ele><time>2026-05-01T14:44:35.96Z</time></trkpt><trkpt lat="42.2758917" lon="14.1233683"><ele>317.0</ele><time>2026-05-01T14:44:36.961Z</time></trkpt><trkpt lat="42.275805" lon="14.123345"><ele>317.0</ele><time>2026-05-01T14:44:37.961Z</time></trkpt><trkpt lat="42.275705" lon="14.123315"><ele>317.0</ele><time>2026-05-01T14:44:38.961Z</time></trkpt><trkpt lat="42.2756117" lon="14.1232883"><ele>317.0</ele><time>2026-05-01T14:44:39.96Z</time></trkpt><trkpt lat="42.275515" lon="14.1232567"><ele>317.0</ele><time>2026-05-01T14:44:40.961Z</time></trkpt><trkpt lat="42.275435" lon="14.1232317"><ele>317.0</ele><time>2026-05-01T14:44:41.961Z</time></trkpt><trkpt lat="42.27537" lon="14.1232067"><ele>317.0</ele><time>2026-05-01T14:44:42.961Z</time></trkpt><trkpt lat="42.2752933" lon="14.12317"><ele>317.0</ele><time>2026-05-01T14:44:44.961Z</time></trkpt><trkpt lat="42.2752017" lon="14.1231533"><ele>316.5</ele><time>2026-05-01T14:44:58.961Z</time></trkpt><trkpt lat="42.2751383" lon="14.12314"><ele>316.0</ele><time>2026-05-01T14:44:59.961Z</time></trkpt><trkpt lat="42.27507" lon="14.1231283"><ele>315.5</ele><time>2026-05-01T14:45:00.961Z</time></trkpt><trkpt lat="42.2749817" lon="14.1231117"><ele>315.0</ele><time>2026-05-01T14:45:02.961Z</time></trkpt><trkpt lat="42.2748717" lon="14.12312"><ele>314.5</ele><time>2026-05-01T14:45:12.961Z</time></trkpt><trkpt lat="42.2747983" lon="14.1231083"><ele>314.0</ele><time>2026-05-01T14:45:13.961Z</time></trkpt><trkpt lat="42.2747217" lon="14.1231"><ele>315.2</ele><time>2026-05-01T14:45:14.961Z</time></trkpt><trkpt lat="42.274655" lon="14.1230917"><ele>316.4</ele><time>2026-05-01T14:45:15.96Z</time></trkpt><trkpt lat="42.2745467" lon="14.123075"><ele>317.6</ele><time>2026-05-01T14:45:17.96Z</time></trkpt><trkpt lat="42.2744383" lon="14.12304"><ele>318.8</ele><time>2026-05-01T14:45:19.961Z</time></trkpt><trkpt lat="42.2743183" lon="14.122975"><ele>320.0</ele><time>2026-05-01T14:45:21.961Z</time></trkpt><trkpt lat="42.2742583" lon="14.12293"><ele>320.0</ele><time>2026-05-01T14:45:22.961Z</time></trkpt><trkpt lat="42.2742" lon="14.122885"><ele>320.0</ele><time>2026-05-01T14:45:23.961Z</time></trkpt><trkpt lat="42.274145" lon="14.1228433"><ele>320.0</ele><time>2026-05-01T14:45:24.961Z</time></trkpt><trkpt lat="42.2740667" lon="14.1227167"><ele>320.0</ele><time>2026-05-01T14:45:26.961Z</time></trkpt><trkpt lat="42.2740317" lon="14.1226433"><ele>320.0</ele><time>2026-05-01T14:45:27.961Z</time></trkpt><trkpt lat="42.2740033" lon="14.1225667"><ele>320.0</ele><time>2026-05-01T14:45:28.961Z</time></trkpt><trkpt lat="42.2739683" lon="14.1224567"><ele>316.83333333333337</ele><time>2026-05-01T14:45:30.959Z</time></trkpt><trkpt lat="42.2739083" lon="14.1223733"><ele>313.6666666666667</ele><time>2026-05-01T14:49:10.959Z</time></trkpt><trkpt lat="42.273835" lon="14.1223"><ele>310.5</ele><time>2026-05-01T14:49:13.958Z</time></trkpt><trkpt lat="42.273775" lon="14.1222433"><ele>307.3333333333333</ele><time>2026-05-01T14:49:15.958Z</time></trkpt><trkpt lat="42.2737117" lon="14.12217"><ele>304.16666666666663</ele><time>2026-05-01T14:49:17.958Z</time></trkpt><trkpt lat="42.27366" lon="14.1220467"><ele>301.0</ele><time>2026-05-01T14:49:19.958Z</time></trkpt><trkpt lat="42.27363" lon="14.1218783"><ele>301.0</ele><time>2026-05-01T14:49:21.959Z</time></trkpt><trkpt lat="42.2735817" lon="14.1217267"><ele>301.0</ele><time>2026-05-01T14:49:23.959Z</time></trkpt><trkpt lat="42.2735033" lon="14.1215917"><ele>301.0</ele><time>2026-05-01T14:49:25.959Z</time></trkpt><trkpt lat="42.2734267" lon="14.1214883"><ele>301.0</ele><time>2026-05-01T14:49:27.959Z</time></trkpt><trkpt lat="42.2733367" lon="14.1213967"><ele>300.40000000000003</ele><time>2026-05-01T14:49:29.959Z</time></trkpt><trkpt lat="42.2732717" lon="14.1212983"><ele>299.8</ele><time>2026-05-01T14:49:31.959Z</time></trkpt><trkpt lat="42.27323" lon="14.1211883"><ele>299.20000000000005</ele><time>2026-05-01T14:49:33.958Z</time></trkpt><trkpt lat="42.2731683" lon="14.1210933"><ele>298.6</ele><time>2026-05-01T14:49:35.959Z</time></trkpt><trkpt lat="42.2730683" lon="14.1210183"><ele>298.0</ele><time>2026-05-01T14:49:37.958Z</time></trkpt><trkpt lat="42.2729567" lon="14.12094"><ele>296.8</ele><time>2026-05-01T14:49:39.959Z</time></trkpt><trkpt lat="42.27286" lon="14.1208517"><ele>295.6</ele><time>2026-05-01T14:49:41.958Z</time></trkpt><trkpt lat="42.2727583" lon="14.1207767"><ele>294.4</ele><time>2026-05-01T14:49:43.958Z</time></trkpt><trkpt lat="42.27265" lon="14.1207183"><ele>293.2</ele><time>2026-05-01T14:49:45.959Z</time></trkpt><trkpt lat="42.2725667" lon="14.120655"><ele>292.0</ele><time>2026-05-01T14:49:47.959Z</time></trkpt><trkpt lat="42.27247" lon="14.1205733"><ele>290.2</ele><time>2026-05-01T14:49:49.959Z</time></trkpt><trkpt lat="42.272375" lon="14.1204817"><ele>288.4</ele><time>2026-05-01T14:49:51.959Z</time></trkpt><trkpt lat="42.2722833" lon="14.1203983"><ele>286.6</ele><time>2026-05-01T14:49:53.959Z</time></trkpt><trkpt lat="42.2721967" lon="14.1203367"><ele>284.8</ele><time>2026-05-01T14:49:55.959Z</time></trkpt><trkpt lat="42.27211" lon="14.1202583"><ele>283.0</ele><time>2026-05-01T14:49:57.958Z</time></trkpt><trkpt lat="42.27203" lon="14.12017"><ele>282.5</ele><time>2026-05-01T14:49:59.959Z</time></trkpt><trkpt lat="42.2719317" lon="14.120095"><ele>282.0</ele><time>2026-05-01T14:50:01.959Z</time></trkpt><trkpt lat="42.2718333" lon="14.1200217"><ele>281.5</ele><time>2026-05-01T14:50:03.959Z</time></trkpt><trkpt lat="42.2717283" lon="14.1199383"><ele>281.0</ele><time>2026-05-01T14:50:05.959Z</time></trkpt><trkpt lat="42.27163" lon="14.1198717"><ele>280.40000000000003</ele><time>2026-05-01T14:50:07.959Z</time></trkpt><trkpt lat="42.2715467" lon="14.1197917"><ele>279.8</ele><time>2026-05-01T14:50:09.959Z</time></trkpt><trkpt lat="42.2714717" lon="14.1196683"><ele>279.20000000000005</ele><time>2026-05-01T14:50:11.959Z</time></trkpt><trkpt lat="42.2714383" lon="14.119575"><ele>278.6</ele><time>2026-05-01T14:50:12.959Z</time></trkpt><trkpt lat="42.2714017" lon="14.1194717"><ele>278.0</ele><time>2026-05-01T14:50:13.959Z</time></trkpt><trkpt lat="42.2713617" lon="14.1193667"><ele>278.0</ele><time>2026-05-01T14:50:14.959Z</time></trkpt><trkpt lat="42.27133" lon="14.11928"><ele>278.0</ele><time>2026-05-01T14:50:15.959Z</time></trkpt><trkpt lat="42.2712967" lon="14.1191933"><ele>278.0</ele><time>2026-05-01T14:50:16.958Z</time></trkpt><trkpt lat="42.271265" lon="14.1191067"><ele>278.0</ele><time>2026-05-01T14:50:17.958Z</time></trkpt><trkpt lat="42.2712283" lon="14.1190267"><ele>278.0</ele><time>2026-05-01T14:50:18.959Z</time></trkpt><trkpt lat="42.271185" lon="14.1189433"><ele>278.0</ele><time>2026-05-01T14:50:19.959Z</time></trkpt><trkpt lat="42.2711333" lon="14.1188767"><ele>278.0</ele><time>2026-05-01T14:50:20.959Z</time></trkpt><trkpt lat="42.2710833" lon="14.1188233"><ele>277.2</ele><time>2026-05-01T14:50:21.959Z</time></trkpt><trkpt lat="42.2709617" lon="14.1187767"><ele>276.4</ele><time>2026-05-01T14:50:23.958Z</time></trkpt><trkpt lat="42.270895" lon="14.1187717"><ele>275.59999999999997</ele><time>2026-05-01T14:50:24.959Z</time></trkpt><trkpt lat="42.2708183" lon="14.1187683"><ele>274.8</ele><time>2026-05-01T14:50:25.958Z</time></trkpt><trkpt lat="42.2707217" lon="14.11876"><ele>274.0</ele><time>2026-05-01T14:50:26.959Z</time></trkpt><trkpt lat="42.2706333" lon="14.1187517"><ele>275.3333333333333</ele><time>2026-05-01T14:50:27.959Z</time></trkpt><trkpt lat="42.2705483" lon="14.1187367"><ele>276.66666666666663</ele><time>2026-05-01T14:50:28.959Z</time></trkpt><trkpt lat="42.27047" lon="14.1187267"><ele>278.0</ele><time>2026-05-01T14:50:29.959Z</time></trkpt><trkpt lat="42.2703967" lon="14.1187083"><ele>279.3333333333333</ele><time>2026-05-01T14:50:30.958Z</time></trkpt><trkpt lat="42.2703267" lon="14.118685"><ele>280.6666666666667</ele><time>2026-05-01T14:50:31.959Z</time></trkpt><trkpt lat="42.27025" lon="14.1186483"><ele>282.0</ele><time>2026-05-01T14:50:32.959Z</time></trkpt><trkpt lat="42.2701667" lon="14.118605"><ele>282.0</ele><time>2026-05-01T14:50:33.959Z</time></trkpt><trkpt lat="42.270075" lon="14.1185467"><ele>282.0</ele><time>2026-05-01T14:50:34.959Z</time></trkpt><trkpt lat="42.2699783" lon="14.1184933"><ele>282.0</ele><time>2026-05-01T14:50:35.959Z</time></trkpt><trkpt lat="42.2699017" lon="14.11845"><ele>282.0</ele><time>2026-05-01T14:50:36.958Z</time></trkpt><trkpt lat="42.2698417" lon="14.1184183"><ele>282.0</ele><time>2026-05-01T14:50:37.959Z</time></trkpt><trkpt lat="42.2697433" lon="14.118335"><ele>280.4</ele><time>2026-05-01T14:50:39.958Z</time></trkpt><trkpt lat="42.2696483" lon="14.1182433"><ele>278.79999999999995</ele><time>2026-05-01T14:50:41.959Z</time></trkpt><trkpt lat="42.2695717" lon="14.11814"><ele>277.2</ele><time>2026-05-01T14:50:43.958Z</time></trkpt><trkpt lat="42.2695017" lon="14.1180283"><ele>275.59999999999997</ele><time>2026-05-01T14:50:45.959Z</time></trkpt><trkpt lat="42.2694617" lon="14.11796"><ele>274.0</ele><time>2026-05-01T14:50:46.959Z</time></trkpt><trkpt lat="42.269405" lon="14.11781"><ele>273.28571428571433</ele><time>2026-05-01T14:50:48.959Z</time></trkpt><trkpt lat="42.2693867" lon="14.117725"><ele>272.57142857142856</ele><time>2026-05-01T14:50:49.958Z</time></trkpt><trkpt lat="42.2693817" lon="14.11764"><ele>271.8571428571429</ele><time>2026-05-01T14:50:50.959Z</time></trkpt><trkpt lat="42.2693817" lon="14.1175483"><ele>271.14285714285717</ele><time>2026-05-01T14:50:51.959Z</time></trkpt><trkpt lat="42.2693933" lon="14.117455"><ele>270.42857142857144</ele><time>2026-05-01T14:50:52.958Z</time></trkpt><trkpt lat="42.2694167" lon="14.1173667"><ele>269.7142857142857</ele><time>2026-05-01T14:50:53.959Z</time></trkpt><trkpt lat="42.269455" lon="14.1172867"><ele>269.0</ele><time>2026-05-01T14:50:54.959Z</time></trkpt><trkpt lat="42.2694933" lon="14.1172067"><ele>267.33333333333337</ele><time>2026-05-01T14:50:55.958Z</time></trkpt><trkpt lat="42.2695283" lon="14.1171283"><ele>265.6666666666667</ele><time>2026-05-01T14:50:56.959Z</time></trkpt><trkpt lat="42.26957" lon="14.1169683"><ele>264.0</ele><time>2026-05-01T14:50:58.959Z</time></trkpt><trkpt lat="42.2695817" lon="14.1168817"><ele>262.3333333333333</ele><time>2026-05-01T14:50:59.959Z</time></trkpt><trkpt lat="42.26958" lon="14.11679"><ele>260.66666666666663</ele><time>2026-05-01T14:51:00.958Z</time></trkpt><trkpt lat="42.2695767" lon="14.1166933"><ele>259.0</ele><time>2026-05-01T14:51:01.959Z</time></trkpt><trkpt lat="42.2695733" lon="14.1166033"><ele>258.0</ele><time>2026-05-01T14:51:02.959Z</time></trkpt><trkpt lat="42.2695717" lon="14.1164283"><ele>257.0</ele><time>2026-05-01T14:51:04.959Z</time></trkpt><trkpt lat="42.2695733" lon="14.1163417"><ele>256.0</ele><time>2026-05-01T14:51:05.959Z</time></trkpt><trkpt lat="42.2695733" lon="14.116255"><ele>255.0</ele><time>2026-05-01T14:51:06.959Z</time></trkpt><trkpt lat="42.2695667" lon="14.116165"><ele>253.99999999999997</ele><time>2026-05-01T14:51:07.958Z</time></trkpt><trkpt lat="42.26956" lon="14.1160767"><ele>253.0</ele><time>2026-05-01T14:51:08.958Z</time></trkpt><trkpt lat="42.2695383" lon="14.1159967"><ele>253.00000000000003</ele><time>2026-05-01T14:51:09.959Z</time></trkpt><trkpt lat="42.2695117" lon="14.115915"><ele>253.0</ele><time>2026-05-01T14:51:10.959Z</time></trkpt><trkpt lat="42.2694767" lon="14.1158367"><ele>253.00000000000003</ele><time>2026-05-01T14:51:11.958Z</time></trkpt><trkpt lat="42.2694333" lon="14.1157717"><ele>253.00000000000003</ele><time>2026-05-01T14:51:12.958Z</time></trkpt><trkpt lat="42.2693833" lon="14.11572"><ele>253.0</ele><time>2026-05-01T14:51:13.958Z</time></trkpt><trkpt lat="42.2693317" lon="14.11567"><ele>253.00000000000003</ele><time>2026-05-01T14:51:14.959Z</time></trkpt><trkpt lat="42.2692733" lon="14.1156267"><ele>253.00000000000003</ele><time>2026-05-01T14:51:15.959Z</time></trkpt><trkpt lat="42.2692167" lon="14.1155817"><ele>251.99999999999997</ele><time>2026-05-01T14:51:16.959Z</time></trkpt><trkpt lat="42.2691267" lon="14.1154767"><ele>251.0</ele><time>2026-05-01T14:51:18.958Z</time></trkpt><trkpt lat="42.2690883" lon="14.1154033"><ele>250.0</ele><time>2026-05-01T14:51:19.959Z</time></trkpt><trkpt lat="42.2690567" lon="14.1153217"><ele>249.0</ele><time>2026-05-01T14:51:20.959Z</time></trkpt><trkpt lat="42.2690083" lon="14.1152117"><ele>247.99999999999997</ele><time>2026-05-01T14:51:22.958Z</time></trkpt><trkpt lat="42.2689683" lon="14.1151167"><ele>247.0</ele><time>2026-05-01T14:52:02.958Z</time></trkpt><trkpt lat="42.2689583" lon="14.115015"><ele>245.0</ele><time>2026-05-01T14:52:05.958Z</time></trkpt><trkpt lat="42.2689167" lon="14.1149233"><ele>243.0</ele><time>2026-05-01T14:52:08.957Z</time></trkpt><trkpt lat="42.268875" lon="14.1148133"><ele>241.0</ele><time>2026-05-01T14:52:11.958Z</time></trkpt><trkpt lat="42.2688317" lon="14.1147"><ele>239.0</ele><time>2026-05-01T14:52:13.958Z</time></trkpt><trkpt lat="42.2688017" lon="14.1145733"><ele>237.0</ele><time>2026-05-01T14:52:15.958Z</time></trkpt><trkpt lat="42.26879" lon="14.114455"><ele>235.85714285714283</ele><time>2026-05-01T14:52:17.958Z</time></trkpt><trkpt lat="42.26876" lon="14.1143567"><ele>234.71428571428572</ele><time>2026-05-01T14:52:19.958Z</time></trkpt><trkpt lat="42.26874" lon="14.1142717"><ele>233.57142857142856</ele><time>2026-05-01T14:52:20.957Z</time></trkpt><trkpt lat="42.2687217" lon="14.1141733"><ele>232.42857142857142</ele><time>2026-05-01T14:52:21.958Z</time></trkpt><trkpt lat="42.2687" lon="14.114075"><ele>231.28571428571428</ele><time>2026-05-01T14:52:22.958Z</time></trkpt><trkpt lat="42.2686683" lon="14.1139917"><ele>230.14285714285714</ele><time>2026-05-01T14:52:23.957Z</time></trkpt><trkpt lat="42.2686267" lon="14.11392"><ele>229.0</ele><time>2026-05-01T14:52:24.957Z</time></trkpt><trkpt lat="42.26857" lon="14.1138683"><ele>228.99999999999997</ele><time>2026-05-01T14:52:25.958Z</time></trkpt><trkpt lat="42.2684967" lon="14.1138117"><ele>229.0</ele><time>2026-05-01T14:52:26.958Z</time></trkpt><trkpt lat="42.2684233" lon="14.11375"><ele>229.0</ele><time>2026-05-01T14:52:27.958Z</time></trkpt><trkpt lat="42.2683533" lon="14.1136883"><ele>229.0</ele><time>2026-05-01T14:52:28.957Z</time></trkpt><trkpt lat="42.268285" lon="14.11364"><ele>228.99999999999997</ele><time>2026-05-01T14:52:29.957Z</time></trkpt><trkpt lat="42.268215" lon="14.1135967"><ele>229.0</ele><time>2026-05-01T14:52:30.957Z</time></trkpt><trkpt lat="42.2681467" lon="14.1135483"><ele>228.6</ele><time>2026-05-01T14:52:31.958Z</time></trkpt><trkpt lat="42.2680767" lon="14.11349"><ele>228.2</ele><time>2026-05-01T14:52:32.958Z</time></trkpt><trkpt lat="42.2680083" lon="14.1134083"><ele>227.79999999999998</ele><time>2026-05-01T14:52:33.957Z</time></trkpt><trkpt lat="42.26794" lon="14.1133067"><ele>227.39999999999998</ele><time>2026-05-01T14:52:34.957Z</time></trkpt><trkpt lat="42.2678833" lon="14.1132"><ele>227.0</ele><time>2026-05-01T14:52:35.958Z</time></trkpt><trkpt lat="42.2678333" lon="14.1130983"><ele>228.2</ele><time>2026-05-01T14:52:36.958Z</time></trkpt><trkpt lat="42.2677867" lon="14.1129917"><ele>229.39999999999998</ele><time>2026-05-01T14:52:37.958Z</time></trkpt><trkpt lat="42.267745" lon="14.112895"><ele>230.60000000000002</ele><time>2026-05-01T14:52:38.958Z</time></trkpt><trkpt lat="42.26769" lon="14.11281"><ele>231.8</ele><time>2026-05-01T14:52:39.958Z</time></trkpt><trkpt lat="42.2676183" lon="14.1127217"><ele>233.0</ele><time>2026-05-01T14:52:40.958Z</time></trkpt><trkpt lat="42.2675433" lon="14.1126383"><ele>233.0</ele><time>2026-05-01T14:52:41.958Z</time></trkpt><trkpt lat="42.2674783" lon="14.1125683"><ele>233.0</ele><time>2026-05-01T14:52:42.958Z</time></trkpt><trkpt lat="42.2674283" lon="14.1124867"><ele>233.0</ele><time>2026-05-01T14:52:43.957Z</time></trkpt><trkpt lat="42.2673883" lon="14.1123917"><ele>233.0</ele><time>2026-05-01T14:52:44.958Z</time></trkpt><trkpt lat="42.2673567" lon="14.1122583"><ele>233.0</ele><time>2026-05-01T14:52:45.958Z</time></trkpt><trkpt lat="42.2673217" lon="14.1121033"><ele>232.2</ele><time>2026-05-01T14:52:46.958Z</time></trkpt><trkpt lat="42.2672917" lon="14.1119583"><ele>231.4</ele><time>2026-05-01T14:52:47.958Z</time></trkpt><trkpt lat="42.267265" lon="14.1118333"><ele>230.59999999999997</ele><time>2026-05-01T14:52:48.957Z</time></trkpt><trkpt lat="42.2672267" lon="14.1117217"><ele>229.79999999999998</ele><time>2026-05-01T14:52:49.958Z</time></trkpt><trkpt lat="42.2671933" lon="14.111605"><ele>229.0</ele><time>2026-05-01T14:52:50.957Z</time></trkpt><trkpt lat="42.26716" lon="14.11149"><ele>232.0</ele><time>2026-05-01T14:52:51.958Z</time></trkpt><trkpt lat="42.2671233" lon="14.1113783"><ele>234.99999999999997</ele><time>2026-05-01T14:52:52.958Z</time></trkpt><trkpt lat="42.267085" lon="14.1112567"><ele>237.99999999999997</ele><time>2026-05-01T14:52:53.958Z</time></trkpt><trkpt lat="42.2670417" lon="14.1111383"><ele>241.0</ele><time>2026-05-01T14:52:54.958Z</time></trkpt><trkpt lat="42.2669983" lon="14.1110167"><ele>244.0</ele><time>2026-05-01T14:52:55.957Z</time></trkpt><trkpt lat="42.2669483" lon="14.1108833"><ele>244.0</ele><time>2026-05-01T14:52:56.958Z</time></trkpt><trkpt lat="42.2669117" lon="14.1107567"><ele>243.99999999999997</ele><time>2026-05-01T14:52:57.958Z</time></trkpt><trkpt lat="42.2668867" lon="14.1106417"><ele>243.99999999999997</ele><time>2026-05-01T14:52:58.958Z</time></trkpt><trkpt lat="42.266855" lon="14.11052"><ele>244.0</ele><time>2026-05-01T14:52:59.958Z</time></trkpt><trkpt lat="42.2668317" lon="14.1103867"><ele>244.0</ele><time>2026-05-01T14:53:00.958Z</time></trkpt><trkpt lat="42.2668067" lon="14.110245"><ele>244.49999999999997</ele><time>2026-05-01T14:53:01.958Z</time></trkpt><trkpt lat="42.2667917" lon="14.110125"><ele>245.0</ele><time>2026-05-01T14:53:02.957Z</time></trkpt><trkpt lat="42.2667783" lon="14.110025"><ele>245.5</ele><time>2026-05-01T14:53:03.958Z</time></trkpt><trkpt lat="42.26676" lon="14.109925"><ele>246.0</ele><time>2026-05-01T14:53:04.957Z</time></trkpt><trkpt lat="42.2667333" lon="14.109835"><ele>246.49999999999997</ele><time>2026-05-01T14:53:05.958Z</time></trkpt><trkpt lat="42.2667017" lon="14.109755"><ele>247.0</ele><time>2026-05-01T14:53:06.958Z</time></trkpt><trkpt lat="42.2666417" lon="14.1096133"><ele>247.83333333333331</ele><time>2026-05-01T14:53:08.958Z</time></trkpt><trkpt lat="42.266605" lon="14.1095217"><ele>248.66666666666666</ele><time>2026-05-01T14:53:09.957Z</time></trkpt><trkpt lat="42.2665633" lon="14.1094183"><ele>249.5</ele><time>2026-05-01T14:53:10.957Z</time></trkpt><trkpt lat="42.26652" lon="14.1093267"><ele>250.33333333333331</ele><time>2026-05-01T14:53:11.958Z</time></trkpt><trkpt lat="42.26648" lon="14.1092433"><ele>251.16666666666666</ele><time>2026-05-01T14:53:12.958Z</time></trkpt><trkpt lat="42.2664367" lon="14.1091567"><ele>252.0</ele><time>2026-05-01T14:53:13.958Z</time></trkpt><trkpt lat="42.266395" lon="14.1090667"><ele>254.5</ele><time>2026-05-01T14:53:14.958Z</time></trkpt><trkpt lat="42.26635" lon="14.1089867"><ele>257.0</ele><time>2026-05-01T14:53:15.958Z</time></trkpt><trkpt lat="42.2663017" lon="14.1089067"><ele>259.5</ele><time>2026-05-01T14:53:16.957Z</time></trkpt><trkpt lat="42.2662483" lon="14.10882"><ele>262.0</ele><time>2026-05-01T14:53:17.958Z</time></trkpt><trkpt lat="42.2661917" lon="14.1087383"><ele>264.5</ele><time>2026-05-01T14:53:18.958Z</time></trkpt><trkpt lat="42.2661367" lon="14.1086417"><ele>267.0</ele><time>2026-05-01T14:53:19.958Z</time></trkpt><trkpt lat="42.2660767" lon="14.1085517"><ele>267.0</ele><time>2026-05-01T14:53:20.958Z</time></trkpt><trkpt lat="42.266015" lon="14.1084567"><ele>267.0</ele><time>2026-05-01T14:53:21.958Z</time></trkpt><trkpt lat="42.2659583" lon="14.108355"><ele>267.0</ele><time>2026-05-01T14:53:22.958Z</time></trkpt><trkpt lat="42.2659033" lon="14.1082633"><ele>267.0</ele><time>2026-05-01T14:53:23.958Z</time></trkpt><trkpt lat="42.2658467" lon="14.1081633"><ele>267.0</ele><time>2026-05-01T14:53:24.958Z</time></trkpt><trkpt lat="42.265795" lon="14.10805"><ele>267.3333333333333</ele><time>2026-05-01T14:53:25.958Z</time></trkpt><trkpt lat="42.2657533" lon="14.10793"><ele>267.6666666666667</ele><time>2026-05-01T14:53:26.958Z</time></trkpt><trkpt lat="42.2657117" lon="14.10784"><ele>268.0</ele><time>2026-05-01T14:53:27.957Z</time></trkpt><trkpt lat="42.2656783" lon="14.1077417"><ele>268.33333333333337</ele><time>2026-05-01T14:53:28.958Z</time></trkpt><trkpt lat="42.265645" lon="14.10764"><ele>268.6666666666667</ele><time>2026-05-01T14:53:29.958Z</time></trkpt><trkpt lat="42.26561" lon="14.10756"><ele>269.0</ele><time>2026-05-01T14:53:30.958Z</time></trkpt><trkpt lat="42.2655683" lon="14.10749"><ele>269.2</ele><time>2026-05-01T14:53:31.958Z</time></trkpt><trkpt lat="42.2654867" lon="14.10736"><ele>269.4</ele><time>2026-05-01T14:53:33.958Z</time></trkpt><trkpt lat="42.26542" lon="14.10724"><ele>269.6</ele><time>2026-05-01T14:53:35.958Z</time></trkpt><trkpt lat="42.2653767" lon="14.107155"><ele>269.8</ele><time>2026-05-01T14:53:37.958Z</time></trkpt><trkpt lat="42.2653367" lon="14.1070633"><ele>270.0</ele><time>2026-05-01T14:53:48.958Z</time></trkpt><trkpt lat="42.2653567" lon="14.1069567"><ele>270.0</ele><time>2026-05-01T14:53:51.958Z</time></trkpt><trkpt lat="42.2654133" lon="14.10688"><ele>270.0</ele><time>2026-05-01T14:53:54.958Z</time></trkpt><trkpt lat="42.265455" lon="14.1067933"><ele>270.0</ele><time>2026-05-01T14:53:57.957Z</time></trkpt><trkpt lat="42.2654917" lon="14.1067233"><ele>270.0</ele><time>2026-05-01T14:53:59.958Z</time></trkpt><trkpt lat="42.2655333" lon="14.1066433"><ele>270.0</ele><time>2026-05-01T14:54:01.958Z</time></trkpt><trkpt lat="42.2655767" lon="14.1065583"><ele>270.0</ele><time>2026-05-01T14:54:03.958Z</time></trkpt><trkpt lat="42.265625" lon="14.1064883"><ele>270.0</ele><time>2026-05-01T14:54:05.958Z</time></trkpt><trkpt lat="42.2656817" lon="14.1064333"><ele>265.8333333333333</ele><time>2026-05-01T14:54:08.957Z</time></trkpt><trkpt lat="42.2657467" lon="14.1063917"><ele>261.6666666666667</ele><time>2026-05-01T14:54:11.958Z</time></trkpt><trkpt lat="42.26582" lon="14.1063517"><ele>257.5</ele><time>2026-05-01T14:54:14.957Z</time></trkpt><trkpt lat="42.2658917" lon="14.1063017"><ele>253.33333333333334</ele><time>2026-05-01T14:54:17.957Z</time></trkpt><trkpt lat="42.265965" lon="14.1062283"><ele>249.16666666666669</ele><time>2026-05-01T14:54:20.958Z</time></trkpt><trkpt lat="42.2660367" lon="14.106145"><ele>245.0</ele><time>2026-05-01T14:54:23.957Z</time></trkpt><trkpt lat="42.2660817" lon="14.106065"><ele>245.0</ele><time>2026-05-01T14:54:26.958Z</time></trkpt><trkpt lat="42.2661383" lon="14.105945"><ele>245.0</ele><time>2026-05-01T14:54:47.957Z</time></trkpt><trkpt lat="42.2661817" lon="14.1058117"><ele>245.0</ele><time>2026-05-01T14:55:11.957Z</time></trkpt><trkpt lat="42.2662" lon="14.1057167"><ele>245.0</ele><time>2026-05-01T14:55:14.957Z</time></trkpt><trkpt lat="42.2662233" lon="14.105595"><ele>245.0</ele><time>2026-05-01T14:55:20.956Z</time></trkpt><trkpt lat="42.266245" lon="14.105485"><ele>242.0</ele><time>2026-05-01T14:55:24.957Z</time></trkpt><trkpt lat="42.266265" lon="14.1054"><ele>239.0</ele><time>2026-05-01T14:55:28.957Z</time></trkpt><trkpt lat="42.266285" lon="14.10531"><ele>236.0</ele><time>2026-05-01T14:55:32.957Z</time></trkpt><trkpt lat="42.2663083" lon="14.1052283"><ele>233.0</ele><time>2026-05-01T14:55:35.957Z</time></trkpt><trkpt lat="42.266335" lon="14.1051483"><ele>230.0</ele><time>2026-05-01T14:55:37.956Z</time></trkpt><trkpt lat="42.2663817" lon="14.1050533"><ele>227.0</ele><time>2026-05-01T14:55:39.957Z</time></trkpt><trkpt lat="42.2664483" lon="14.1049583"><ele>224.0</ele><time>2026-05-01T14:55:41.957Z</time></trkpt><trkpt lat="42.2665333" lon="14.1048683"><ele>221.00000000000003</ele><time>2026-05-01T14:55:43.957Z</time></trkpt><trkpt lat="42.2666333" lon="14.1047917"><ele>218.0</ele><time>2026-05-01T14:55:45.957Z</time></trkpt><trkpt lat="42.2667017" lon="14.104765"><ele>215.0</ele><time>2026-05-01T14:55:46.957Z</time></trkpt><trkpt lat="42.2667733" lon="14.10475"><ele>212.0</ele><time>2026-05-01T14:55:47.957Z</time></trkpt><trkpt lat="42.2668517" lon="14.1047433"><ele>209.00000000000003</ele><time>2026-05-01T14:55:48.956Z</time></trkpt><trkpt lat="42.2669333" lon="14.104735"><ele>206.0</ele><time>2026-05-01T14:55:49.956Z</time></trkpt><trkpt lat="42.2670183" lon="14.1047233"><ele>206.0</ele><time>2026-05-01T14:55:50.957Z</time></trkpt><trkpt lat="42.2671083" lon="14.1047067"><ele>206.0</ele><time>2026-05-01T14:55:51.957Z</time></trkpt><trkpt lat="42.2672" lon="14.104685"><ele>206.0</ele><time>2026-05-01T14:55:52.956Z</time></trkpt><trkpt lat="42.2672933" lon="14.10466"><ele>206.0</ele><time>2026-05-01T14:55:53.957Z</time></trkpt><trkpt lat="42.2673933" lon="14.1046333"><ele>206.0</ele><time>2026-05-01T14:55:54.957Z</time></trkpt><trkpt lat="42.2675033" lon="14.1046083"><ele>206.75</ele><time>2026-05-01T14:55:55.957Z</time></trkpt><trkpt lat="42.267635" lon="14.1045867"><ele>207.5</ele><time>2026-05-01T14:55:56.957Z</time></trkpt><trkpt lat="42.267765" lon="14.104575"><ele>208.25</ele><time>2026-05-01T14:55:57.957Z</time></trkpt><trkpt lat="42.2678933" lon="14.1045517"><ele>209.0</ele><time>2026-05-01T14:55:58.957Z</time></trkpt><trkpt lat="42.2680167" lon="14.10453"><ele>210.25</ele><time>2026-05-01T14:55:59.957Z</time></trkpt><trkpt lat="42.26814" lon="14.1045033"><ele>211.5</ele><time>2026-05-01T14:56:00.956Z</time></trkpt><trkpt lat="42.26826" lon="14.1044683"><ele>212.75</ele><time>2026-05-01T14:56:01.957Z</time></trkpt><trkpt lat="42.2683717" lon="14.104435"><ele>214.0</ele><time>2026-05-01T14:56:02.957Z</time></trkpt><trkpt lat="42.2684633" lon="14.10441"><ele>214.00000000000003</ele><time>2026-05-01T14:56:03.957Z</time></trkpt><trkpt lat="42.268535" lon="14.1043967"><ele>214.0</ele><time>2026-05-01T14:56:04.956Z</time></trkpt><trkpt lat="42.2686" lon="14.1043933"><ele>214.0</ele><time>2026-05-01T14:56:05.957Z</time></trkpt><trkpt lat="42.2686683" lon="14.1044017"><ele>214.0</ele><time>2026-05-01T14:56:06.957Z</time></trkpt><trkpt lat="42.2687317" lon="14.1044183"><ele>214.0</ele><time>2026-05-01T14:56:07.957Z</time></trkpt><trkpt lat="42.2688" lon="14.1044317"><ele>214.00000000000003</ele><time>2026-05-01T14:56:08.956Z</time></trkpt><trkpt lat="42.26887" lon="14.1044467"><ele>214.0</ele><time>2026-05-01T14:56:09.957Z</time></trkpt><trkpt lat="42.26894" lon="14.1044683"><ele>213.83333333333331</ele><time>2026-05-01T14:56:10.957Z</time></trkpt><trkpt lat="42.269015" lon="14.1044883"><ele>213.66666666666666</ele><time>2026-05-01T14:56:11.956Z</time></trkpt><trkpt lat="42.26909" lon="14.104505"><ele>213.5</ele><time>2026-05-01T14:56:12.956Z</time></trkpt><trkpt lat="42.26916" lon="14.10452"><ele>213.33333333333331</ele><time>2026-05-01T14:56:13.956Z</time></trkpt><trkpt lat="42.2692267" lon="14.1045417"><ele>213.16666666666666</ele><time>2026-05-01T14:56:14.957Z</time></trkpt><trkpt lat="42.2693117" lon="14.1045783"><ele>213.0</ele><time>2026-05-01T14:56:15.957Z</time></trkpt><trkpt lat="42.269405" lon="14.1046117"><ele>213.0</ele><time>2026-05-01T14:56:16.957Z</time></trkpt><trkpt lat="42.2694933" lon="14.10462"><ele>213.0</ele><time>2026-05-01T14:56:17.957Z</time></trkpt><trkpt lat="42.269605" lon="14.1046033"><ele>213.0</ele><time>2026-05-01T14:56:18.957Z</time></trkpt><trkpt lat="42.2697167" lon="14.1045833"><ele>213.0</ele><time>2026-05-01T14:56:19.957Z</time></trkpt><trkpt lat="42.26983" lon="14.1045667"><ele>213.0</ele><time>2026-05-01T14:56:20.957Z</time></trkpt><trkpt lat="42.26994" lon="14.10457"><ele>214.0</ele><time>2026-05-01T14:56:21.957Z</time></trkpt><trkpt lat="42.27005" lon="14.104585"><ele>215.0</ele><time>2026-05-01T14:56:22.957Z</time></trkpt><trkpt lat="42.270155" lon="14.104605"><ele>216.0</ele><time>2026-05-01T14:56:23.957Z</time></trkpt><trkpt lat="42.2702517" lon="14.1046133"><ele>217.0</ele><time>2026-05-01T14:56:24.957Z</time></trkpt><trkpt lat="42.2703333" lon="14.1046167"><ele>218.0</ele><time>2026-05-01T14:56:25.957Z</time></trkpt><trkpt lat="42.2704133" lon="14.1046083"><ele>218.00000000000003</ele><time>2026-05-01T14:56:26.956Z</time></trkpt><trkpt lat="42.2704883" lon="14.1046067"><ele>218.0</ele><time>2026-05-01T14:56:27.956Z</time></trkpt><trkpt lat="42.2705617" lon="14.1046033"><ele>218.0</ele><time>2026-05-01T14:56:28.957Z</time></trkpt><trkpt lat="42.270625" lon="14.1045983"><ele>218.0</ele><time>2026-05-01T14:56:29.957Z</time></trkpt><trkpt lat="42.27069" lon="14.1045833"><ele>218.00000000000003</ele><time>2026-05-01T14:56:30.957Z</time></trkpt><trkpt lat="42.270815" lon="14.10456"><ele>218.0</ele><time>2026-05-01T14:56:32.957Z</time></trkpt><trkpt lat="42.2708783" lon="14.10455"><ele>217.60000000000002</ele><time>2026-05-01T14:56:33.957Z</time></trkpt><trkpt lat="42.270995" lon="14.1045167"><ele>217.20000000000002</ele><time>2026-05-01T14:56:35.957Z</time></trkpt><trkpt lat="42.27111" lon="14.104475"><ele>216.8</ele><time>2026-05-01T14:56:37.957Z</time></trkpt><trkpt lat="42.2711883" lon="14.10445"><ele>216.4</ele><time>2026-05-01T14:56:38.956Z</time></trkpt><trkpt lat="42.2712683" lon="14.104435"><ele>216.0</ele><time>2026-05-01T14:56:39.956Z</time></trkpt><trkpt lat="42.2713517" lon="14.1044283"><ele>216.0</ele><time>2026-05-01T14:56:40.957Z</time></trkpt><trkpt lat="42.2714367" lon="14.1044217"><ele>216.0</ele><time>2026-05-01T14:56:41.957Z</time></trkpt><trkpt lat="42.27151" lon="14.104415"><ele>216.0</ele><time>2026-05-01T14:56:42.957Z</time></trkpt><trkpt lat="42.271575" lon="14.1044017"><ele>216.0</ele><time>2026-05-01T14:56:43.957Z</time></trkpt><trkpt lat="42.2716383" lon="14.1043617"><ele>216.0</ele><time>2026-05-01T14:56:44.957Z</time></trkpt><trkpt lat="42.2717117" lon="14.1043083"><ele>216.0</ele><time>2026-05-01T14:56:45.957Z</time></trkpt><trkpt lat="42.27179" lon="14.104225"><ele>214.83333333333334</ele><time>2026-05-01T14:56:46.957Z</time></trkpt><trkpt lat="42.27187" lon="14.104155"><ele>213.66666666666669</ele><time>2026-05-01T14:56:47.957Z</time></trkpt><trkpt lat="42.271925" lon="14.1040933"><ele>212.5</ele><time>2026-05-01T14:56:48.957Z</time></trkpt><trkpt lat="42.2719717" lon="14.1040117"><ele>211.33333333333334</ele><time>2026-05-01T14:56:49.957Z</time></trkpt><trkpt lat="42.2720083" lon="14.1039317"><ele>210.16666666666669</ele><time>2026-05-01T14:56:50.957Z</time></trkpt><trkpt lat="42.2720717" lon="14.10378"><ele>209.0</ele><time>2026-05-01T14:56:52.957Z</time></trkpt><trkpt lat="42.2721" lon="14.103685"><ele>206.66666666666669</ele><time>2026-05-01T14:56:53.957Z</time></trkpt><trkpt lat="42.2721267" lon="14.1035717"><ele>204.33333333333334</ele><time>2026-05-01T14:56:54.957Z</time></trkpt><trkpt lat="42.2721533" lon="14.1034617"><ele>202.0</ele><time>2026-05-01T14:56:55.957Z</time></trkpt><trkpt lat="42.2721717" lon="14.10336"><ele>199.66666666666669</ele><time>2026-05-01T14:56:56.957Z</time></trkpt><trkpt lat="42.272185" lon="14.1032617"><ele>197.33333333333334</ele><time>2026-05-01T14:56:57.957Z</time></trkpt><trkpt lat="42.27219" lon="14.1031517"><ele>195.0</ele><time>2026-05-01T14:56:58.957Z</time></trkpt><trkpt lat="42.2721967" lon="14.10304"><ele>193.16666666666666</ele><time>2026-05-01T14:56:59.957Z</time></trkpt><trkpt lat="42.2722067" lon="14.1029267"><ele>191.33333333333334</ele><time>2026-05-01T14:57:00.956Z</time></trkpt><trkpt lat="42.272225" lon="14.1028267"><ele>189.5</ele><time>2026-05-01T14:57:01.956Z</time></trkpt><trkpt lat="42.2722567" lon="14.1027383"><ele>187.66666666666669</ele><time>2026-05-01T14:57:02.957Z</time></trkpt><trkpt lat="42.272305" lon="14.1026717"><ele>185.83333333333334</ele><time>2026-05-01T14:57:03.957Z</time></trkpt><trkpt lat="42.272375" lon="14.102605"><ele>184.0</ele><time>2026-05-01T14:57:04.957Z</time></trkpt><trkpt lat="42.2724567" lon="14.10254"><ele>185.6</ele><time>2026-05-01T14:57:05.957Z</time></trkpt><trkpt lat="42.2725467" lon="14.1024667"><ele>187.2</ele><time>2026-05-01T14:57:06.957Z</time></trkpt><trkpt lat="42.27263" lon="14.1023883"><ele>188.79999999999998</ele><time>2026-05-01T14:57:07.956Z</time></trkpt><trkpt lat="42.2727067" lon="14.102305"><ele>190.39999999999998</ele><time>2026-05-01T14:57:08.956Z</time></trkpt><trkpt lat="42.27277" lon="14.1022133"><ele>192.0</ele><time>2026-05-01T14:57:09.956Z</time></trkpt><trkpt lat="42.272815" lon="14.1021183"><ele>192.0</ele><time>2026-05-01T14:57:10.956Z</time></trkpt><trkpt lat="42.2728483" lon="14.1020167"><ele>192.0</ele><time>2026-05-01T14:57:11.956Z</time></trkpt><trkpt lat="42.2728833" lon="14.1018983"><ele>192.0</ele><time>2026-05-01T14:57:12.957Z</time></trkpt><trkpt lat="42.2729183" lon="14.10178"><ele>192.0</ele><time>2026-05-01T14:57:13.957Z</time></trkpt><trkpt lat="42.2729567" lon="14.101665"><ele>192.0</ele><time>2026-05-01T14:57:14.957Z</time></trkpt><trkpt lat="42.2730067" lon="14.10157"><ele>191.83333333333334</ele><time>2026-05-01T14:57:15.957Z</time></trkpt><trkpt lat="42.2730667" lon="14.1015067"><ele>191.66666666666666</ele><time>2026-05-01T14:57:16.957Z</time></trkpt><trkpt lat="42.2731433" lon="14.10146"><ele>191.5</ele><time>2026-05-01T14:57:17.956Z</time></trkpt><trkpt lat="42.27323" lon="14.1014383"><ele>191.33333333333331</ele><time>2026-05-01T14:57:18.956Z</time></trkpt><trkpt lat="42.2733167" lon="14.101455"><ele>191.16666666666666</ele><time>2026-05-01T14:57:19.957Z</time></trkpt><trkpt lat="42.2734167" lon="14.1014867"><ele>191.0</ele><time>2026-05-01T14:57:20.956Z</time></trkpt><trkpt lat="42.273525" lon="14.101535"><ele>189.5</ele><time>2026-05-01T14:57:21.956Z</time></trkpt><trkpt lat="42.2736533" lon="14.1015833"><ele>188.0</ele><time>2026-05-01T14:57:22.957Z</time></trkpt><trkpt lat="42.273775" lon="14.1016317"><ele>186.5</ele><time>2026-05-01T14:57:23.956Z</time></trkpt><trkpt lat="42.273895" lon="14.10168"><ele>185.0</ele><time>2026-05-01T14:57:24.957Z</time></trkpt><trkpt lat="42.274005" lon="14.1017233"><ele>185.0</ele><time>2026-05-01T14:57:25.957Z</time></trkpt><trkpt lat="42.274105" lon="14.1017533"><ele>185.0</ele><time>2026-05-01T14:57:26.957Z</time></trkpt><trkpt lat="42.2741967" lon="14.1017617"><ele>185.0</ele><time>2026-05-01T14:57:27.957Z</time></trkpt><trkpt lat="42.274295" lon="14.1017467"><ele>185.0</ele><time>2026-05-01T14:57:28.957Z</time></trkpt><trkpt lat="42.2743917" lon="14.1017267"><ele>185.0</ele><time>2026-05-01T14:57:29.956Z</time></trkpt><trkpt lat="42.2744917" lon="14.1016883"><ele>185.0</ele><time>2026-05-01T14:57:30.957Z</time></trkpt><trkpt lat="42.2745883" lon="14.1016333"><ele>185.0</ele><time>2026-05-01T14:57:31.957Z</time></trkpt><trkpt lat="42.2746817" lon="14.1015533"><ele>185.0</ele><time>2026-05-01T14:57:32.956Z</time></trkpt><trkpt lat="42.2747683" lon="14.101455"><ele>185.0</ele><time>2026-05-01T14:57:33.956Z</time></trkpt><trkpt lat="42.2748383" lon="14.1013633"><ele>185.0</ele><time>2026-05-01T14:57:34.956Z</time></trkpt><trkpt lat="42.27489" lon="14.10126"><ele>183.5</ele><time>2026-05-01T14:57:35.957Z</time></trkpt><trkpt lat="42.2749383" lon="14.101145"><ele>182.0</ele><time>2026-05-01T14:57:36.957Z</time></trkpt><trkpt lat="42.2749817" lon="14.1010083"><ele>180.5</ele><time>2026-05-01T14:57:37.957Z</time></trkpt><trkpt lat="42.2750433" lon="14.1008517"><ele>179.0</ele><time>2026-05-01T14:57:38.957Z</time></trkpt><trkpt lat="42.2751083" lon="14.1006883"><ele>177.75</ele><time>2026-05-01T14:57:39.957Z</time></trkpt><trkpt lat="42.2751833" lon="14.1005183"><ele>176.5</ele><time>2026-05-01T14:57:40.957Z</time></trkpt><trkpt lat="42.2752533" lon="14.1003383"><ele>175.25</ele><time>2026-05-01T14:57:41.957Z</time></trkpt><trkpt lat="42.27532" lon="14.100165"><ele>174.0</ele><time>2026-05-01T14:57:42.956Z</time></trkpt><trkpt lat="42.2753833" lon="14.1000117"><ele>174.25</ele><time>2026-05-01T14:57:43.956Z</time></trkpt><trkpt lat="42.2754383" lon="14.099865"><ele>174.5</ele><time>2026-05-01T14:57:44.957Z</time></trkpt><trkpt lat="42.2754767" lon="14.0996967"><ele>174.75</ele><time>2026-05-01T14:57:45.957Z</time></trkpt><trkpt lat="42.2754933" lon="14.0995167"><ele>175.0</ele><time>2026-05-01T14:57:46.956Z</time></trkpt><trkpt lat="42.27549" lon="14.0993267"><ele>175.0</ele><time>2026-05-01T14:57:47.957Z</time></trkpt><trkpt lat="42.2754633" lon="14.0991317"><ele>175.0</ele><time>2026-05-01T14:57:48.956Z</time></trkpt><trkpt lat="42.2754333" lon="14.09895"><ele>175.0</ele><time>2026-05-01T14:57:49.957Z</time></trkpt><trkpt lat="42.2754083" lon="14.09878"><ele>175.0</ele><time>2026-05-01T14:57:50.956Z</time></trkpt><trkpt lat="42.2753833" lon="14.0986117"><ele>176.25</ele><time>2026-05-01T14:57:51.957Z</time></trkpt><trkpt lat="42.275355" lon="14.0984367"><ele>177.5</ele><time>2026-05-01T14:57:52.956Z</time></trkpt><trkpt lat="42.2753283" lon="14.098265"><ele>178.75</ele><time>2026-05-01T14:57:53.956Z</time></trkpt><trkpt lat="42.275315" lon="14.0980883"><ele>180.0</ele><time>2026-05-01T14:57:54.956Z</time></trkpt><trkpt lat="42.275305" lon="14.0979033"><ele>180.0</ele><time>2026-05-01T14:57:55.957Z</time></trkpt><trkpt lat="42.2753167" lon="14.0977267"><ele>180.0</ele><time>2026-05-01T14:57:56.956Z</time></trkpt><trkpt lat="42.27533" lon="14.097545"><ele>180.0</ele><time>2026-05-01T14:57:57.956Z</time></trkpt><trkpt lat="42.2753483" lon="14.09737"><ele>180.0</ele><time>2026-05-01T14:57:58.955Z</time></trkpt><trkpt lat="42.2753633" lon="14.0972017"><ele>178.75</ele><time>2026-05-01T14:57:59.955Z</time></trkpt><trkpt lat="42.27538" lon="14.09704"><ele>177.5</ele><time>2026-05-01T14:58:00.956Z</time></trkpt><trkpt lat="42.2753967" lon="14.0968767"><ele>176.25</ele><time>2026-05-01T14:58:01.955Z</time></trkpt><trkpt lat="42.2754117" lon="14.096715"><ele>175.0</ele><time>2026-05-01T14:58:02.956Z</time></trkpt><trkpt lat="42.2754317" lon="14.0965533"><ele>173.25</ele><time>2026-05-01T14:58:03.955Z</time></trkpt><trkpt lat="42.27545" lon="14.0963783"><ele>171.5</ele><time>2026-05-01T14:58:04.956Z</time></trkpt><trkpt lat="42.2754633" lon="14.0962117"><ele>169.75</ele><time>2026-05-01T14:58:05.956Z</time></trkpt><trkpt lat="42.2754833" lon="14.0960533"><ele>168.0</ele><time>2026-05-01T14:58:06.956Z</time></trkpt><trkpt lat="42.2755133" lon="14.0959"><ele>168.0</ele><time>2026-05-01T14:58:07.956Z</time></trkpt><trkpt lat="42.2755417" lon="14.0957583"><ele>168.0</ele><time>2026-05-01T14:58:08.956Z</time></trkpt><trkpt lat="42.27557" lon="14.0956383"><ele>168.0</ele><time>2026-05-01T14:58:09.956Z</time></trkpt><trkpt lat="42.2755883" lon="14.0955317"><ele>168.0</ele><time>2026-05-01T14:58:10.956Z</time></trkpt><trkpt lat="42.2755883" lon="14.0954267"><ele>168.0</ele><time>2026-05-01T14:58:11.956Z</time></trkpt><trkpt lat="42.2755917" lon="14.0953333"><ele>168.0</ele><time>2026-05-01T14:58:12.956Z</time></trkpt><trkpt lat="42.275605" lon="14.0952483"><ele>167.4</ele><time>2026-05-01T14:58:13.955Z</time></trkpt><trkpt lat="42.27569" lon="14.095125"><ele>166.8</ele><time>2026-05-01T14:58:15.955Z</time></trkpt><trkpt lat="42.2757683" lon="14.09508"><ele>166.2</ele><time>2026-05-01T14:58:16.955Z</time></trkpt><trkpt lat="42.2758767" lon="14.0950267"><ele>165.6</ele><time>2026-05-01T14:58:17.956Z</time></trkpt><trkpt lat="42.27599" lon="14.09497"><ele>165.0</ele><time>2026-05-01T14:58:18.956Z</time></trkpt><trkpt lat="42.276105" lon="14.094915"><ele>162.25</ele><time>2026-05-01T14:58:19.956Z</time></trkpt><trkpt lat="42.2762233" lon="14.09485"><ele>159.5</ele><time>2026-05-01T14:58:20.956Z</time></trkpt><trkpt lat="42.276335" lon="14.0947783"><ele>156.75</ele><time>2026-05-01T14:58:21.956Z</time></trkpt><trkpt lat="42.2764483" lon="14.09471"><ele>154.0</ele><time>2026-05-01T14:58:22.956Z</time></trkpt><trkpt lat="42.2765517" lon="14.0946417"><ele>154.0</ele><time>2026-05-01T14:58:23.956Z</time></trkpt><trkpt lat="42.2766417" lon="14.0945617"><ele>154.0</ele><time>2026-05-01T14:58:24.956Z</time></trkpt><trkpt lat="42.27673" lon="14.0944667"><ele>154.0</ele><time>2026-05-01T14:58:25.956Z</time></trkpt><trkpt lat="42.2768017" lon="14.0943517"><ele>154.0</ele><time>2026-05-01T14:58:26.956Z</time></trkpt><trkpt lat="42.276855" lon="14.0942"><ele>151.0</ele><time>2026-05-01T14:58:27.955Z</time></trkpt><trkpt lat="42.2769" lon="14.0940167"><ele>148.0</ele><time>2026-05-01T14:58:28.956Z</time></trkpt><trkpt lat="42.276935" lon="14.0938183"><ele>145.0</ele><time>2026-05-01T14:58:29.956Z</time></trkpt><trkpt lat="42.2769767" lon="14.0936117"><ele>145.0</ele><time>2026-05-01T14:58:30.956Z</time></trkpt><trkpt lat="42.2770133" lon="14.0934133"><ele>145.0</ele><time>2026-05-01T14:58:31.956Z</time></trkpt><trkpt lat="42.2770517" lon="14.0932333"><ele>145.0</ele><time>2026-05-01T14:58:32.955Z</time></trkpt><trkpt lat="42.277085" lon="14.0930583"><ele>145.0</ele><time>2026-05-01T14:58:33.956Z</time></trkpt><trkpt lat="42.2771117" lon="14.0928867"><ele>142.75</ele><time>2026-05-01T14:58:34.955Z</time></trkpt><trkpt lat="42.2771267" lon="14.0927167"><ele>140.5</ele><time>2026-05-01T14:58:35.955Z</time></trkpt><trkpt lat="42.2771333" lon="14.0925383"><ele>138.25</ele><time>2026-05-01T14:58:36.955Z</time></trkpt><trkpt lat="42.2771383" lon="14.0923517"><ele>136.0</ele><time>2026-05-01T14:58:37.956Z</time></trkpt><trkpt lat="42.277145" lon="14.0921733"><ele>133.75</ele><time>2026-05-01T14:58:38.955Z</time></trkpt><trkpt lat="42.277145" lon="14.0919983"><ele>131.5</ele><time>2026-05-01T14:58:39.955Z</time></trkpt><trkpt lat="42.277145" lon="14.0918417"><ele>129.25</ele><time>2026-05-01T14:58:40.956Z</time></trkpt><trkpt lat="42.2771533" lon="14.0916933"><ele>127.0</ele><time>2026-05-01T14:58:41.956Z</time></trkpt><trkpt lat="42.2771667" lon="14.09155"><ele>128.2</ele><time>2026-05-01T14:58:42.956Z</time></trkpt><trkpt lat="42.27719" lon="14.09141"><ele>129.39999999999998</ele><time>2026-05-01T14:58:43.956Z</time></trkpt><trkpt lat="42.277225" lon="14.09128"><ele>130.60000000000002</ele><time>2026-05-01T14:58:44.956Z</time></trkpt><trkpt lat="42.2772683" lon="14.0911633"><ele>131.8</ele><time>2026-05-01T14:58:45.956Z</time></trkpt><trkpt lat="42.277325" lon="14.091075"><ele>133.0</ele><time>2026-05-01T14:58:46.956Z</time></trkpt><trkpt lat="42.2773883" lon="14.091025"><ele>133.0</ele><time>2026-05-01T14:58:47.956Z</time></trkpt><trkpt lat="42.277455" lon="14.0910017"><ele>133.0</ele><time>2026-05-01T14:58:48.955Z</time></trkpt><trkpt lat="42.2775483" lon="14.0910417"><ele>133.0</ele><time>2026-05-01T14:58:49.956Z</time></trkpt><trkpt lat="42.277645" lon="14.0911083"><ele>133.0</ele><time>2026-05-01T14:58:50.956Z</time></trkpt><trkpt lat="42.2777417" lon="14.0911783"><ele>133.0</ele><time>2026-05-01T14:58:51.956Z</time></trkpt><trkpt lat="42.2778367" lon="14.0912317"><ele>133.0</ele><time>2026-05-01T14:58:52.955Z</time></trkpt><trkpt lat="42.2779067" lon="14.0912617"><ele>133.0</ele><time>2026-05-01T14:58:53.956Z</time></trkpt><trkpt lat="42.2779833" lon="14.0912617"><ele>133.0</ele><time>2026-05-01T14:58:54.956Z</time></trkpt><trkpt lat="42.27804" lon="14.0911383"><ele>133.0</ele><time>2026-05-01T14:58:56.956Z</time></trkpt><trkpt lat="42.27804" lon="14.0910167"><ele>133.0</ele><time>2026-05-01T14:58:57.955Z</time></trkpt><trkpt lat="42.27803" lon="14.0908833"><ele>133.0</ele><time>2026-05-01T14:58:58.956Z</time></trkpt><trkpt lat="42.2780133" lon="14.0907533"><ele>131.0</ele><time>2026-05-01T14:58:59.955Z</time></trkpt><trkpt lat="42.2779983" lon="14.0906683"><ele>129.0</ele><time>2026-05-01T14:59:00.955Z</time></trkpt><trkpt lat="42.27806" lon="14.0906033"><ele>127.0</ele><time>2026-05-01T14:59:03.956Z</time></trkpt><trkpt lat="42.2781133" lon="14.0906917"><ele>125.0</ele><time>2026-05-01T14:59:05.955Z</time></trkpt><trkpt lat="42.2781683" lon="14.09085"><ele>123.00000000000001</ele><time>2026-05-01T14:59:07.956Z</time></trkpt><trkpt lat="42.2782033" lon="14.0909517"><ele>121.0</ele><time>2026-05-01T14:59:08.956Z</time></trkpt><trkpt lat="42.2782467" lon="14.0910667"><ele>120.75</ele><time>2026-05-01T14:59:09.956Z</time></trkpt><trkpt lat="42.2782833" lon="14.0912"><ele>120.5</ele><time>2026-05-01T14:59:10.956Z</time></trkpt><trkpt lat="42.2783217" lon="14.091345"><ele>120.25</ele><time>2026-05-01T14:59:11.956Z</time></trkpt><trkpt lat="42.2783583" lon="14.0915067"><ele>120.0</ele><time>2026-05-01T14:59:12.956Z</time></trkpt><trkpt lat="42.2783933" lon="14.0916883"><ele>121.0</ele><time>2026-05-01T14:59:13.956Z</time></trkpt><trkpt lat="42.278425" lon="14.091875"><ele>122.0</ele><time>2026-05-01T14:59:14.956Z</time></trkpt><trkpt lat="42.2784617" lon="14.0920583"><ele>123.0</ele><time>2026-05-01T14:59:15.955Z</time></trkpt><trkpt lat="42.2784867" lon="14.0922333"><ele>124.0</ele><time>2026-05-01T14:59:16.956Z</time></trkpt><trkpt lat="42.2785067" lon="14.092395"><ele>124.25</ele><time>2026-05-01T14:59:17.955Z</time></trkpt><trkpt lat="42.2785217" lon="14.0925433"><ele>124.5</ele><time>2026-05-01T14:59:18.956Z</time></trkpt><trkpt lat="42.278545" lon="14.09269"><ele>124.75</ele><time>2026-05-01T14:59:19.956Z</time></trkpt><trkpt lat="42.2785883" lon="14.092835"><ele>125.0</ele><time>2026-05-01T14:59:20.955Z</time></trkpt><trkpt lat="42.2786417" lon="14.0929683"><ele>125.0</ele><time>2026-05-01T14:59:21.956Z</time></trkpt><trkpt lat="42.27871" lon="14.0930817"><ele>125.0</ele><time>2026-05-01T14:59:22.955Z</time></trkpt><trkpt lat="42.2787867" lon="14.0931633"><ele>125.0</ele><time>2026-05-01T14:59:23.956Z</time></trkpt><trkpt lat="42.2788667" lon="14.0932133"><ele>125.0</ele><time>2026-05-01T14:59:24.956Z</time></trkpt><trkpt lat="42.2789483" lon="14.0932217"><ele>125.0</ele><time>2026-05-01T14:59:25.956Z</time></trkpt><trkpt lat="42.2790367" lon="14.0931933"><ele>123.2</ele><time>2026-05-01T14:59:26.956Z</time></trkpt><trkpt lat="42.2791433" lon="14.09316"><ele>121.4</ele><time>2026-05-01T14:59:27.955Z</time></trkpt><trkpt lat="42.2792533" lon="14.0931517"><ele>119.6</ele><time>2026-05-01T14:59:28.955Z</time></trkpt><trkpt lat="42.2793533" lon="14.0931483"><ele>117.8</ele><time>2026-05-01T14:59:29.956Z</time></trkpt><trkpt lat="42.279445" lon="14.0931933"><ele>116.0</ele><time>2026-05-01T14:59:30.955Z</time></trkpt><trkpt lat="42.2795317" lon="14.0932817"><ele>116.0</ele><time>2026-05-01T14:59:31.955Z</time></trkpt><trkpt lat="42.27962" lon="14.0934"><ele>116.0</ele><time>2026-05-01T14:59:32.956Z</time></trkpt><trkpt lat="42.2797133" lon="14.093525"><ele>116.0</ele><time>2026-05-01T14:59:33.956Z</time></trkpt><trkpt lat="42.2798" lon="14.093635"><ele>116.0</ele><time>2026-05-01T14:59:34.956Z</time></trkpt><trkpt lat="42.2798833" lon="14.0937317"><ele>113.49999999999999</ele><time>2026-05-01T14:59:35.956Z</time></trkpt><trkpt lat="42.2799633" lon="14.0938083"><ele>111.0</ele><time>2026-05-01T14:59:36.956Z</time></trkpt><trkpt lat="42.280025" lon="14.09388"><ele>108.5</ele><time>2026-05-01T14:59:37.956Z</time></trkpt><trkpt lat="42.280075" lon="14.09396"><ele>106.0</ele><time>2026-05-01T14:59:38.955Z</time></trkpt><trkpt lat="42.280115" lon="14.0940517"><ele>103.49999999999999</ele><time>2026-05-01T14:59:39.956Z</time></trkpt><trkpt lat="42.280135" lon="14.0941817"><ele>101.0</ele><time>2026-05-01T14:59:40.956Z</time></trkpt><trkpt lat="42.2801417" lon="14.0943433"><ele>100.75</ele><time>2026-05-01T14:59:41.956Z</time></trkpt><trkpt lat="42.2801433" lon="14.0945283"><ele>100.5</ele><time>2026-05-01T14:59:42.955Z</time></trkpt><trkpt lat="42.2801517" lon="14.09472"><ele>100.25</ele><time>2026-05-01T14:59:43.955Z</time></trkpt><trkpt lat="42.28015" lon="14.0949217"><ele>100.0</ele><time>2026-05-01T14:59:44.956Z</time></trkpt><trkpt lat="42.280165" lon="14.0951217"><ele>100.0</ele><time>2026-05-01T14:59:45.956Z</time></trkpt><trkpt lat="42.2801767" lon="14.0953467"><ele>100.0</ele><time>2026-05-01T14:59:46.956Z</time></trkpt><trkpt lat="42.2801883" lon="14.0955583"><ele>100.0</ele><time>2026-05-01T14:59:47.956Z</time></trkpt><trkpt lat="42.2802" lon="14.0957583"><ele>100.0</ele><time>2026-05-01T14:59:48.956Z</time></trkpt><trkpt lat="42.2802167" lon="14.0959517"><ele>100.0</ele><time>2026-05-01T14:59:49.956Z</time></trkpt><trkpt lat="42.28024" lon="14.0961417"><ele>100.0</ele><time>2026-05-01T14:59:50.956Z</time></trkpt><trkpt lat="42.2802717" lon="14.09633"><ele>100.0</ele><time>2026-05-01T14:59:51.955Z</time></trkpt><trkpt lat="42.28031" lon="14.09651"><ele>100.75</ele><time>2026-05-01T14:59:52.955Z</time></trkpt><trkpt lat="42.2803517" lon="14.0966767"><ele>101.5</ele><time>2026-05-01T14:59:53.956Z</time></trkpt><trkpt lat="42.2803883" lon="14.09683"><ele>102.25</ele><time>2026-05-01T14:59:54.956Z</time></trkpt><trkpt lat="42.2804133" lon="14.0969867"><ele>103.0</ele><time>2026-05-01T14:59:55.956Z</time></trkpt><trkpt lat="42.2804283" lon="14.0971617"><ele>103.0</ele><time>2026-05-01T14:59:56.956Z</time></trkpt><trkpt lat="42.28044" lon="14.0973433"><ele>103.0</ele><time>2026-05-01T14:59:57.955Z</time></trkpt><trkpt lat="42.280495" lon="14.0977633"><ele>103.0</ele><time>2026-05-01T14:59:59.956Z</time></trkpt><trkpt lat="42.2805283" lon="14.0979733"><ele>103.0</ele><time>2026-05-01T15:00:00.955Z</time></trkpt><trkpt lat="42.2805667" lon="14.098195"><ele>103.0</ele><time>2026-05-01T15:00:01.956Z</time></trkpt><trkpt lat="42.2806083" lon="14.0984267"><ele>105.33333333333334</ele><time>2026-05-01T15:00:02.956Z</time></trkpt><trkpt lat="42.28065" lon="14.0986483"><ele>107.66666666666666</ele><time>2026-05-01T15:00:03.955Z</time></trkpt><trkpt lat="42.2806917" lon="14.0988633"><ele>110.0</ele><time>2026-05-01T15:00:04.956Z</time></trkpt><trkpt lat="42.2807433" lon="14.0990767"><ele>111.75</ele><time>2026-05-01T15:00:05.956Z</time></trkpt><trkpt lat="42.2807983" lon="14.099275"><ele>113.5</ele><time>2026-05-01T15:00:06.956Z</time></trkpt><trkpt lat="42.280845" lon="14.0994667"><ele>115.25</ele><time>2026-05-01T15:00:07.956Z</time></trkpt><trkpt lat="42.2808833" lon="14.0996317"><ele>117.0</ele><time>2026-05-01T15:00:08.956Z</time></trkpt><trkpt lat="42.2809117" lon="14.0997683"><ele>117.0</ele><time>2026-05-01T15:00:09.956Z</time></trkpt><trkpt lat="42.280935" lon="14.0998767"><ele>117.0</ele><time>2026-05-01T15:00:10.955Z</time></trkpt><trkpt lat="42.2809533" lon="14.0999683"><ele>117.0</ele><time>2026-05-01T15:00:11.956Z</time></trkpt><trkpt lat="42.28101" lon="14.1000883"><ele>117.0</ele><time>2026-05-01T15:00:13.956Z</time></trkpt><trkpt lat="42.2810717" lon="14.1001883"><ele>117.0</ele><time>2026-05-01T15:00:15.956Z</time></trkpt><trkpt lat="42.2811183" lon="14.1002883"><ele>117.0</ele><time>2026-05-01T15:00:17.955Z</time></trkpt><trkpt lat="42.28118" lon="14.1004133"><ele>118.0</ele><time>2026-05-01T15:00:19.955Z</time></trkpt><trkpt lat="42.2812217" lon="14.1004867"><ele>119.00000000000001</ele><time>2026-05-01T15:00:20.956Z</time></trkpt><trkpt lat="42.2812633" lon="14.100565"><ele>120.0</ele><time>2026-05-01T15:00:21.956Z</time></trkpt><trkpt lat="42.281305" lon="14.100645"><ele>121.0</ele><time>2026-05-01T15:00:22.955Z</time></trkpt><trkpt lat="42.2813467" lon="14.1007283"><ele>122.00000000000001</ele><time>2026-05-01T15:00:23.956Z</time></trkpt><trkpt lat="42.2813883" lon="14.1008083"><ele>123.0</ele><time>2026-05-01T15:00:24.955Z</time></trkpt><trkpt lat="42.2814267" lon="14.1008883"><ele>124.0</ele><time>2026-05-01T15:00:25.955Z</time></trkpt><trkpt lat="42.2814583" lon="14.1009633"><ele>124.0</ele><time>2026-05-01T15:00:26.956Z</time></trkpt><trkpt lat="42.2814917" lon="14.1010367"><ele>124.00000000000001</ele><time>2026-05-01T15:00:27.956Z</time></trkpt><trkpt lat="42.2815283" lon="14.1011117"><ele>124.0</ele><time>2026-05-01T15:00:28.956Z</time></trkpt><trkpt lat="42.2815633" lon="14.1011917"><ele>124.0</ele><time>2026-05-01T15:00:29.956Z</time></trkpt><trkpt lat="42.2816017" lon="14.101275"><ele>124.00000000000001</ele><time>2026-05-01T15:00:30.956Z</time></trkpt><trkpt lat="42.2816483" lon="14.1013633"><ele>124.0</ele><time>2026-05-01T15:00:31.956Z</time></trkpt><trkpt lat="42.2816867" lon="14.1014517"><ele>124.0</ele><time>2026-05-01T15:00:32.956Z</time></trkpt><trkpt lat="42.28173" lon="14.1015433"><ele>125.50000000000001</ele><time>2026-05-01T15:00:33.955Z</time></trkpt><trkpt lat="42.2817667" lon="14.1016217"><ele>127.0</ele><time>2026-05-01T15:00:34.956Z</time></trkpt><trkpt lat="42.281805" lon="14.1017117"><ele>128.5</ele><time>2026-05-01T15:00:35.956Z</time></trkpt><trkpt lat="42.2818383" lon="14.1018"><ele>130.0</ele><time>2026-05-01T15:00:36.956Z</time></trkpt><trkpt lat="42.2818783" lon="14.101885"><ele>131.5</ele><time>2026-05-01T15:00:37.956Z</time></trkpt><trkpt lat="42.2819183" lon="14.10198"><ele>133.0</ele><time>2026-05-01T15:00:38.956Z</time></trkpt><trkpt lat="42.28196" lon="14.1020667"><ele>133.0</ele><time>2026-05-01T15:00:39.956Z</time></trkpt><trkpt lat="42.2819933" lon="14.1021517"><ele>133.0</ele><time>2026-05-01T15:00:40.956Z</time></trkpt><trkpt lat="42.2820267" lon="14.1022367"><ele>133.0</ele><time>2026-05-01T15:00:41.956Z</time></trkpt><trkpt lat="42.2820617" lon="14.10232"><ele>133.0</ele><time>2026-05-01T15:00:42.956Z</time></trkpt><trkpt lat="42.2820983" lon="14.1024017"><ele>133.0</ele><time>2026-05-01T15:00:43.956Z</time></trkpt><trkpt lat="42.2821317" lon="14.1024867"><ele>133.0</ele><time>2026-05-01T15:00:44.956Z</time></trkpt><trkpt lat="42.28217" lon="14.1025683"><ele>133.0</ele><time>2026-05-01T15:00:45.956Z</time></trkpt><trkpt lat="42.2822067" lon="14.102655"><ele>134.8</ele><time>2026-05-01T15:00:46.955Z</time></trkpt><trkpt lat="42.2822533" lon="14.10276"><ele>136.60000000000002</ele><time>2026-05-01T15:00:47.956Z</time></trkpt><trkpt lat="42.2823083" lon="14.102875"><ele>138.39999999999998</ele><time>2026-05-01T15:00:48.956Z</time></trkpt><trkpt lat="42.282365" lon="14.1029933"><ele>140.2</ele><time>2026-05-01T15:00:49.956Z</time></trkpt><trkpt lat="42.282415" lon="14.1031183"><ele>142.0</ele><time>2026-05-01T15:00:50.956Z</time></trkpt><trkpt lat="42.2824683" lon="14.103245"><ele>139.4</ele><time>2026-05-01T15:00:51.956Z</time></trkpt><trkpt lat="42.282525" lon="14.1033683"><ele>136.79999999999998</ele><time>2026-05-01T15:00:52.956Z</time></trkpt><trkpt lat="42.2825733" lon="14.10349"><ele>134.2</ele><time>2026-05-01T15:00:53.955Z</time></trkpt><trkpt lat="42.2826233" lon="14.1036083"><ele>131.6</ele><time>2026-05-01T15:00:54.956Z</time></trkpt><trkpt lat="42.2826733" lon="14.1037183"><ele>129.0</ele><time>2026-05-01T15:00:55.955Z</time></trkpt><trkpt lat="42.2827133" lon="14.1038383"><ele>129.0</ele><time>2026-05-01T15:00:56.956Z</time></trkpt><trkpt lat="42.2827483" lon="14.103945"><ele>129.0</ele><time>2026-05-01T15:00:57.956Z</time></trkpt><trkpt lat="42.282785" lon="14.10404"><ele>129.0</ele><time>2026-05-01T15:00:58.955Z</time></trkpt><trkpt lat="42.2828117" lon="14.1041183"><ele>129.0</ele><time>2026-05-01T15:00:59.956Z</time></trkpt><trkpt lat="42.282855" lon="14.10425"><ele>129.0</ele><time>2026-05-01T15:01:01.955Z</time></trkpt><trkpt lat="42.282905" lon="14.1043867"><ele>129.0</ele><time>2026-05-01T15:01:03.956Z</time></trkpt><trkpt lat="42.28296" lon="14.1045317"><ele>130.4</ele><time>2026-05-01T15:01:05.956Z</time></trkpt><trkpt lat="42.28299" lon="14.1046083"><ele>131.8</ele><time>2026-05-01T15:01:06.956Z</time></trkpt><trkpt lat="42.28304" lon="14.1047467"><ele>133.2</ele><time>2026-05-01T15:01:08.955Z</time></trkpt><trkpt lat="42.2830967" lon="14.1048833"><ele>134.6</ele><time>2026-05-01T15:01:10.955Z</time></trkpt><trkpt lat="42.2831367" lon="14.1049833"><ele>136.0</ele><time>2026-05-01T15:01:11.954Z</time></trkpt><trkpt lat="42.2831867" lon="14.1051083"><ele>133.2</ele><time>2026-05-01T15:01:12.955Z</time></trkpt><trkpt lat="42.2832283" lon="14.1052433"><ele>130.39999999999998</ele><time>2026-05-01T15:01:13.955Z</time></trkpt><trkpt lat="42.283275" lon="14.10536"><ele>127.6</ele><time>2026-05-01T15:01:14.955Z</time></trkpt><trkpt lat="42.2833083" lon="14.1054733"><ele>124.8</ele><time>2026-05-01T15:01:15.955Z</time></trkpt><trkpt lat="42.2833467" lon="14.1055767"><ele>122.0</ele><time>2026-05-01T15:01:16.955Z</time></trkpt><trkpt lat="42.28338" lon="14.1056567"><ele>123.19999999999999</ele><time>2026-05-01T15:01:17.954Z</time></trkpt><trkpt lat="42.2834267" lon="14.1057983"><ele>124.39999999999999</ele><time>2026-05-01T15:01:19.955Z</time></trkpt><trkpt lat="42.2834767" lon="14.1059283"><ele>125.60000000000001</ele><time>2026-05-01T15:01:21.955Z</time></trkpt><trkpt lat="42.2835367" lon="14.1060717"><ele>126.80000000000001</ele><time>2026-05-01T15:01:23.954Z</time></trkpt><trkpt lat="42.2835683" lon="14.1061483"><ele>128.0</ele><time>2026-05-01T15:01:24.954Z</time></trkpt><trkpt lat="42.2835983" lon="14.1062383"><ele>127.99999999999999</ele><time>2026-05-01T15:01:25.955Z</time></trkpt><trkpt lat="42.2836267" lon="14.1063333"><ele>128.0</ele><time>2026-05-01T15:01:26.955Z</time></trkpt><trkpt lat="42.2836617" lon="14.1064317"><ele>128.0</ele><time>2026-05-01T15:01:27.955Z</time></trkpt><trkpt lat="42.2836883" lon="14.10652"><ele>128.0</ele><time>2026-05-01T15:01:28.955Z</time></trkpt><trkpt lat="42.2837233" lon="14.1066283"><ele>127.99999999999999</ele><time>2026-05-01T15:01:29.955Z</time></trkpt><trkpt lat="42.283755" lon="14.1067267"><ele>128.0</ele><time>2026-05-01T15:01:30.955Z</time></trkpt><trkpt lat="42.283785" lon="14.106835"><ele>128.16666666666666</ele><time>2026-05-01T15:01:31.955Z</time></trkpt><trkpt lat="42.2838167" lon="14.1069383"><ele>128.33333333333331</ele><time>2026-05-01T15:01:32.955Z</time></trkpt><trkpt lat="42.2838517" lon="14.107035"><ele>128.5</ele><time>2026-05-01T15:01:33.954Z</time></trkpt><trkpt lat="42.283885" lon="14.1071317"><ele>128.66666666666666</ele><time>2026-05-01T15:01:34.955Z</time></trkpt><trkpt lat="42.283915" lon="14.1072333"><ele>128.83333333333334</ele><time>2026-05-01T15:01:35.955Z</time></trkpt><trkpt lat="42.2839417" lon="14.1073217"><ele>129.0</ele><time>2026-05-01T15:01:36.955Z</time></trkpt><trkpt lat="42.28397" lon="14.1074133"><ele>129.0</ele><time>2026-05-01T15:01:37.955Z</time></trkpt><trkpt lat="42.28399" lon="14.1074983"><ele>129.0</ele><time>2026-05-01T15:01:38.955Z</time></trkpt><trkpt lat="42.2840367" lon="14.1076533"><ele>129.0</ele><time>2026-05-01T15:01:40.955Z</time></trkpt><trkpt lat="42.28406" lon="14.10774"><ele>129.0</ele><time>2026-05-01T15:01:41.955Z</time></trkpt><trkpt lat="42.28409" lon="14.107825"><ele>129.0</ele><time>2026-05-01T15:01:42.955Z</time></trkpt><trkpt lat="42.2841217" lon="14.10792"><ele>129.0</ele><time>2026-05-01T15:01:43.955Z</time></trkpt><trkpt lat="42.284155" lon="14.108015"><ele>129.0</ele><time>2026-05-01T15:01:44.955Z</time></trkpt><trkpt lat="42.28419" lon="14.10811"><ele>129.0</ele><time>2026-05-01T15:01:45.954Z</time></trkpt><trkpt lat="42.2842183" lon="14.1082017"><ele>129.0</ele><time>2026-05-01T15:01:46.954Z</time></trkpt><trkpt lat="42.2842633" lon="14.108345"><ele>129.0</ele><time>2026-05-01T15:01:48.954Z</time></trkpt><trkpt lat="42.2842967" lon="14.1084567"><ele>129.0</ele><time>2026-05-01T15:01:50.955Z</time></trkpt><trkpt lat="42.2843183" lon="14.108545"><ele>129.0</ele><time>2026-05-01T15:01:56.954Z</time></trkpt><trkpt lat="42.2843583" lon="14.1086367"><ele>129.5</ele><time>2026-05-01T15:02:00.954Z</time></trkpt><trkpt lat="42.2843917" lon="14.108725"><ele>130.0</ele><time>2026-05-01T15:02:02.954Z</time></trkpt><trkpt lat="42.2844217" lon="14.1088317"><ele>130.5</ele><time>2026-05-01T15:02:05.955Z</time></trkpt><trkpt lat="42.2844667" lon="14.1089333"><ele>131.0</ele><time>2026-05-01T15:07:36.953Z</time></trkpt><trkpt lat="42.2845083" lon="14.10905"><ele>131.5</ele><time>2026-05-01T15:07:45.953Z</time></trkpt><trkpt lat="42.284535" lon="14.10914"><ele>132.0</ele><time>2026-05-01T15:07:49.952Z</time></trkpt><trkpt lat="42.2845767" lon="14.109215"><ele>133.0</ele><time>2026-05-01T15:07:52.952Z</time></trkpt><trkpt lat="42.284605" lon="14.1093133"><ele>134.0</ele><time>2026-05-01T15:07:54.952Z</time></trkpt><trkpt lat="42.2846417" lon="14.1094333"><ele>135.0</ele><time>2026-05-01T15:07:56.953Z</time></trkpt><trkpt lat="42.2846933" lon="14.109555"><ele>136.0</ele><time>2026-05-01T15:07:58.953Z</time></trkpt><trkpt lat="42.2847267" lon="14.1096283"><ele>137.0</ele><time>2026-05-01T15:07:59.953Z</time></trkpt><trkpt lat="42.284785" lon="14.1097733"><ele>135.57142857142858</ele><time>2026-05-01T15:08:01.952Z</time></trkpt><trkpt lat="42.284815" lon="14.1098567"><ele>134.14285714285714</ele><time>2026-05-01T15:08:02.953Z</time></trkpt><trkpt lat="42.2848483" lon="14.1099417"><ele>132.71428571428572</ele><time>2026-05-01T15:08:03.953Z</time></trkpt><trkpt lat="42.28488" lon="14.110035"><ele>131.28571428571428</ele><time>2026-05-01T15:08:04.952Z</time></trkpt><trkpt lat="42.2849117" lon="14.1101233"><ele>129.85714285714286</ele><time>2026-05-01T15:08:05.953Z</time></trkpt><trkpt lat="42.2849433" lon="14.1102067"><ele>128.42857142857144</ele><time>2026-05-01T15:08:06.953Z</time></trkpt><trkpt lat="42.2849733" lon="14.1102967"><ele>127.0</ele><time>2026-05-01T15:08:07.953Z</time></trkpt><trkpt lat="42.2850033" lon="14.1103817"><ele>127.00000000000001</ele><time>2026-05-01T15:08:08.952Z</time></trkpt><trkpt lat="42.2850267" lon="14.1104633"><ele>127.0</ele><time>2026-05-01T15:08:09.953Z</time></trkpt><trkpt lat="42.2850683" lon="14.1106267"><ele>127.0</ele><time>2026-05-01T15:08:11.952Z</time></trkpt><trkpt lat="42.28509" lon="14.1107217"><ele>127.0</ele><time>2026-05-01T15:08:12.953Z</time></trkpt><trkpt lat="42.2851117" lon="14.1108267"><ele>127.00000000000001</ele><time>2026-05-01T15:08:13.953Z</time></trkpt><trkpt lat="42.2851383" lon="14.1109317"><ele>127.0</ele><time>2026-05-01T15:08:14.953Z</time></trkpt><trkpt lat="42.2851633" lon="14.1110317"><ele>128.33333333333334</ele><time>2026-05-01T15:08:15.953Z</time></trkpt><trkpt lat="42.2851833" lon="14.1111233"><ele>129.66666666666669</ele><time>2026-05-01T15:08:16.952Z</time></trkpt><trkpt lat="42.285225" lon="14.1112817"><ele>131.0</ele><time>2026-05-01T15:08:18.953Z</time></trkpt><trkpt lat="42.2852483" lon="14.1113667"><ele>132.33333333333334</ele><time>2026-05-01T15:08:19.953Z</time></trkpt><trkpt lat="42.2852733" lon="14.111455"><ele>133.66666666666666</ele><time>2026-05-01T15:08:20.953Z</time></trkpt><trkpt lat="42.2853" lon="14.1115367"><ele>135.0</ele><time>2026-05-01T15:08:21.953Z</time></trkpt><trkpt lat="42.28534" lon="14.1116617"><ele>135.8</ele><time>2026-05-01T15:08:23.953Z</time></trkpt><trkpt lat="42.2853683" lon="14.1117617"><ele>136.6</ele><time>2026-05-01T15:08:25.953Z</time></trkpt><trkpt lat="42.2853967" lon="14.1118833"><ele>137.4</ele><time>2026-05-01T15:08:27.953Z</time></trkpt><trkpt lat="42.2854433" lon="14.112"><ele>138.2</ele><time>2026-05-01T15:08:29.953Z</time></trkpt><trkpt lat="42.2855133" lon="14.11212"><ele>139.0</ele><time>2026-05-01T15:08:31.953Z</time></trkpt><trkpt lat="42.2855867" lon="14.1122333"><ele>137.2</ele><time>2026-05-01T15:08:33.953Z</time></trkpt><trkpt lat="42.28565" lon="14.1123283"><ele>135.4</ele><time>2026-05-01T15:08:35.953Z</time></trkpt><trkpt lat="42.2857333" lon="14.11245"><ele>133.6</ele><time>2026-05-01T15:08:37.952Z</time></trkpt><trkpt lat="42.285785" lon="14.1125217"><ele>131.8</ele><time>2026-05-01T15:08:38.953Z</time></trkpt><trkpt lat="42.285845" lon="14.112615"><ele>130.0</ele><time>2026-05-01T15:08:39.953Z</time></trkpt><trkpt lat="42.2859133" lon="14.11271"><ele>130.0</ele><time>2026-05-01T15:08:40.953Z</time></trkpt><trkpt lat="42.2859717" lon="14.112805"><ele>130.0</ele><time>2026-05-01T15:08:41.953Z</time></trkpt><trkpt lat="42.2860233" lon="14.112905"><ele>130.0</ele><time>2026-05-01T15:08:42.952Z</time></trkpt><trkpt lat="42.286075" lon="14.113"><ele>130.0</ele><time>2026-05-01T15:08:43.953Z</time></trkpt><trkpt lat="42.2861183" lon="14.113085"><ele>130.0</ele><time>2026-05-01T15:08:44.952Z</time></trkpt><trkpt lat="42.2861867" lon="14.1132183"><ele>131.8</ele><time>2026-05-01T15:08:46.953Z</time></trkpt><trkpt lat="42.2862217" lon="14.1134033"><ele>133.6</ele><time>2026-05-01T15:08:48.953Z</time></trkpt><trkpt lat="42.2862367" lon="14.1135233"><ele>135.4</ele><time>2026-05-01T15:08:49.953Z</time></trkpt><trkpt lat="42.28625" lon="14.113635"><ele>137.2</ele><time>2026-05-01T15:08:50.953Z</time></trkpt><trkpt lat="42.2862567" lon="14.1137433"><ele>139.0</ele><time>2026-05-01T15:08:51.953Z</time></trkpt><trkpt lat="42.2862583" lon="14.1138467"><ele>139.0</ele><time>2026-05-01T15:08:52.953Z</time></trkpt><trkpt lat="42.28627" lon="14.1139417"><ele>139.0</ele><time>2026-05-01T15:08:53.952Z</time></trkpt><trkpt lat="42.2862783" lon="14.11404"><ele>139.0</ele><time>2026-05-01T15:08:54.953Z</time></trkpt><trkpt lat="42.2862917" lon="14.1141383"><ele>139.0</ele><time>2026-05-01T15:08:55.952Z</time></trkpt><trkpt lat="42.2863017" lon="14.1142233"><ele>139.0</ele><time>2026-05-01T15:08:56.953Z</time></trkpt><trkpt lat="42.2863083" lon="14.1143083"><ele>139.0</ele><time>2026-05-01T15:08:57.953Z</time></trkpt><trkpt lat="42.2863183" lon="14.1144033"><ele>139.0</ele><time>2026-05-01T15:08:58.953Z</time></trkpt><trkpt lat="42.2863267" lon="14.1145"><ele>139.83333333333334</ele><time>2026-05-01T15:08:59.953Z</time></trkpt><trkpt lat="42.2863383" lon="14.1145883"><ele>140.66666666666669</ele><time>2026-05-01T15:09:00.953Z</time></trkpt><trkpt lat="42.2863467" lon="14.1146833"><ele>141.5</ele><time>2026-05-01T15:09:01.953Z</time></trkpt><trkpt lat="42.286355" lon="14.1147733"><ele>142.33333333333334</ele><time>2026-05-01T15:09:02.953Z</time></trkpt><trkpt lat="42.28637" lon="14.1149267"><ele>143.16666666666666</ele><time>2026-05-01T15:09:04.952Z</time></trkpt><trkpt lat="42.2863933" lon="14.1150817"><ele>144.0</ele><time>2026-05-01T15:09:06.953Z</time></trkpt><trkpt lat="42.2864233" lon="14.115255"><ele>142.83333333333334</ele><time>2026-05-01T15:09:08.953Z</time></trkpt><trkpt lat="42.28645" lon="14.1153433"><ele>141.66666666666666</ele><time>2026-05-01T15:09:09.952Z</time></trkpt><trkpt lat="42.28648" lon="14.1154333"><ele>140.5</ele><time>2026-05-01T15:09:10.953Z</time></trkpt><trkpt lat="42.28651" lon="14.1155317"><ele>139.33333333333331</ele><time>2026-05-01T15:09:11.952Z</time></trkpt><trkpt lat="42.2865317" lon="14.11562"><ele>138.16666666666666</ele><time>2026-05-01T15:09:12.953Z</time></trkpt><trkpt lat="42.28654" lon="14.11571"><ele>137.0</ele><time>2026-05-01T15:09:13.952Z</time></trkpt><trkpt lat="42.2865267" lon="14.11584"><ele>137.0</ele><time>2026-05-01T15:09:15.953Z</time></trkpt><trkpt lat="42.2864983" lon="14.1159783"><ele>137.0</ele><time>2026-05-01T15:09:17.953Z</time></trkpt><trkpt lat="42.2864433" lon="14.11611"><ele>137.0</ele><time>2026-05-01T15:09:19.953Z</time></trkpt><trkpt lat="42.2864083" lon="14.1161883"><ele>137.0</ele><time>2026-05-01T15:09:20.953Z</time></trkpt><trkpt lat="42.2863717" lon="14.1162633"><ele>137.0</ele><time>2026-05-01T15:09:21.953Z</time></trkpt><trkpt lat="42.2863333" lon="14.1163367"><ele>137.0</ele><time>2026-05-01T15:09:22.953Z</time></trkpt><trkpt lat="42.28629" lon="14.116405"><ele>139.0</ele><time>2026-05-01T15:09:23.952Z</time></trkpt><trkpt lat="42.2862483" lon="14.1164767"><ele>141.0</ele><time>2026-05-01T15:09:24.953Z</time></trkpt><trkpt lat="42.2862117" lon="14.1165483"><ele>143.0</ele><time>2026-05-01T15:09:25.953Z</time></trkpt><trkpt lat="42.286185" lon="14.11663"><ele>145.0</ele><time>2026-05-01T15:09:26.953Z</time></trkpt><trkpt lat="42.286155" lon="14.1167817"><ele>147.0</ele><time>2026-05-01T15:09:28.953Z</time></trkpt><trkpt lat="42.2861483" lon="14.1168767"><ele>149.0</ele><time>2026-05-01T15:09:29.953Z</time></trkpt><trkpt lat="42.2861417" lon="14.1169767"><ele>149.0</ele><time>2026-05-01T15:09:30.953Z</time></trkpt><trkpt lat="42.2861383" lon="14.1170833"><ele>149.0</ele><time>2026-05-01T15:09:31.953Z</time></trkpt><trkpt lat="42.2861333" lon="14.117195"><ele>149.0</ele><time>2026-05-01T15:09:32.952Z</time></trkpt><trkpt lat="42.2861283" lon="14.1173167"><ele>149.0</ele><time>2026-05-01T15:09:33.953Z</time></trkpt><trkpt lat="42.2861233" lon="14.1174367"><ele>149.0</ele><time>2026-05-01T15:09:34.952Z</time></trkpt><trkpt lat="42.2861167" lon="14.1175467"><ele>149.0</ele><time>2026-05-01T15:09:35.953Z</time></trkpt><trkpt lat="42.28611" lon="14.117655"><ele>149.33333333333331</ele><time>2026-05-01T15:09:36.953Z</time></trkpt><trkpt lat="42.2860967" lon="14.1177617"><ele>149.66666666666666</ele><time>2026-05-01T15:09:37.952Z</time></trkpt><trkpt lat="42.2860817" lon="14.1178617"><ele>150.0</ele><time>2026-05-01T15:09:38.953Z</time></trkpt><trkpt lat="42.28606" lon="14.1179633"><ele>150.33333333333334</ele><time>2026-05-01T15:09:39.953Z</time></trkpt><trkpt lat="42.2860317" lon="14.1180617"><ele>150.66666666666669</ele><time>2026-05-01T15:09:40.953Z</time></trkpt><trkpt lat="42.2859983" lon="14.1181617"><ele>151.0</ele><time>2026-05-01T15:09:41.953Z</time></trkpt><trkpt lat="42.2859683" lon="14.118255"><ele>151.57142857142858</ele><time>2026-05-01T15:09:42.953Z</time></trkpt><trkpt lat="42.2859433" lon="14.1183517"><ele>152.14285714285714</ele><time>2026-05-01T15:09:43.952Z</time></trkpt><trkpt lat="42.2859183" lon="14.1184517"><ele>152.71428571428572</ele><time>2026-05-01T15:09:44.953Z</time></trkpt><trkpt lat="42.285895" lon="14.11854"><ele>153.28571428571428</ele><time>2026-05-01T15:09:45.953Z</time></trkpt><trkpt lat="42.2858767" lon="14.1186233"><ele>153.85714285714286</ele><time>2026-05-01T15:09:46.953Z</time></trkpt><trkpt lat="42.2858683" lon="14.1187217"><ele>154.42857142857144</ele><time>2026-05-01T15:09:47.952Z</time></trkpt><trkpt lat="42.2858567" lon="14.11884"><ele>155.0</ele><time>2026-05-01T15:09:48.953Z</time></trkpt><trkpt lat="42.2858467" lon="14.118935"><ele>155.0</ele><time>2026-05-01T15:09:49.953Z</time></trkpt><trkpt lat="42.285815" lon="14.1190333"><ele>155.0</ele><time>2026-05-01T15:09:50.953Z</time></trkpt><trkpt lat="42.2857833" lon="14.1191233"><ele>155.0</ele><time>2026-05-01T15:09:51.953Z</time></trkpt><trkpt lat="42.285745" lon="14.1191967"><ele>155.0</ele><time>2026-05-01T15:09:52.953Z</time></trkpt><trkpt lat="42.2857" lon="14.1192633"><ele>155.0</ele><time>2026-05-01T15:09:53.953Z</time></trkpt><trkpt lat="42.2856583" lon="14.1193283"><ele>155.0</ele><time>2026-05-01T15:09:54.952Z</time></trkpt><trkpt lat="42.28561" lon="14.1193933"><ele>155.0</ele><time>2026-05-01T15:09:55.953Z</time></trkpt><trkpt lat="42.2855483" lon="14.1194583"><ele>157.83333333333331</ele><time>2026-05-01T15:09:56.952Z</time></trkpt><trkpt lat="42.28548" lon="14.119525"><ele>160.66666666666666</ele><time>2026-05-01T15:09:57.953Z</time></trkpt><trkpt lat="42.285415" lon="14.1195883"><ele>163.5</ele><time>2026-05-01T15:09:58.953Z</time></trkpt><trkpt lat="42.28535" lon="14.119655"><ele>166.33333333333334</ele><time>2026-05-01T15:09:59.953Z</time></trkpt><trkpt lat="42.285275" lon="14.1197233"><ele>169.16666666666669</ele><time>2026-05-01T15:10:00.953Z</time></trkpt><trkpt lat="42.2852067" lon="14.1197867"><ele>172.0</ele><time>2026-05-01T15:10:01.952Z</time></trkpt><trkpt lat="42.2851433" lon="14.1198417"><ele>172.0</ele><time>2026-05-01T15:10:02.953Z</time></trkpt><trkpt lat="42.2850767" lon="14.11989"><ele>172.0</ele><time>2026-05-01T15:10:03.953Z</time></trkpt><trkpt lat="42.285005" lon="14.1199433"><ele>172.0</ele><time>2026-05-01T15:10:04.952Z</time></trkpt><trkpt lat="42.2849333" lon="14.1200033"><ele>172.0</ele><time>2026-05-01T15:10:05.953Z</time></trkpt><trkpt lat="42.284865" lon="14.12006"><ele>172.0</ele><time>2026-05-01T15:10:06.953Z</time></trkpt><trkpt lat="42.2848" lon="14.12011"><ele>172.0</ele><time>2026-05-01T15:10:07.952Z</time></trkpt><trkpt lat="42.284745" lon="14.1201567"><ele>175.2</ele><time>2026-05-01T15:10:08.953Z</time></trkpt><trkpt lat="42.28466" lon="14.1202483"><ele>178.39999999999998</ele><time>2026-05-01T15:10:10.953Z</time></trkpt><trkpt lat="42.2846" lon="14.1203567"><ele>181.60000000000002</ele><time>2026-05-01T15:10:12.953Z</time></trkpt><trkpt lat="42.2845417" lon="14.1204967"><ele>184.8</ele><time>2026-05-01T15:10:14.953Z</time></trkpt><trkpt lat="42.2844983" lon="14.12065"><ele>188.0</ele><time>2026-05-01T15:10:16.953Z</time></trkpt><trkpt lat="42.284475" lon="14.1207383"><ele>188.0</ele><time>2026-05-01T15:10:17.952Z</time></trkpt><trkpt lat="42.2844517" lon="14.1208183"><ele>188.0</ele><time>2026-05-01T15:10:18.953Z</time></trkpt><trkpt lat="42.284425" lon="14.1209633"><ele>188.0</ele><time>2026-05-01T15:10:20.953Z</time></trkpt><trkpt lat="42.2844083" lon="14.12113"><ele>188.0</ele><time>2026-05-01T15:10:22.953Z</time></trkpt><trkpt lat="42.2844017" lon="14.1212333"><ele>188.0</ele><time>2026-05-01T15:10:23.952Z</time></trkpt><trkpt lat="42.284395" lon="14.12133"><ele>188.0</ele><time>2026-05-01T15:10:24.952Z</time></trkpt><trkpt lat="42.2843867" lon="14.1214267"><ele>188.0</ele><time>2026-05-01T15:10:25.951Z</time></trkpt><trkpt lat="42.284375" lon="14.1215217"><ele>188.0</ele><time>2026-05-01T15:10:26.952Z</time></trkpt><trkpt lat="42.2843583" lon="14.1216067"><ele>188.0</ele><time>2026-05-01T15:10:27.952Z</time></trkpt><trkpt lat="42.28433" lon="14.1216883"><ele>188.0</ele><time>2026-05-01T15:10:29.951Z</time></trkpt><trkpt lat="42.2843267" lon="14.1218033"><ele>188.0</ele><time>2026-05-01T15:10:59.952Z</time></trkpt><trkpt lat="42.2842917" lon="14.121905"><ele>188.0</ele><time>2026-05-01T15:11:02.951Z</time></trkpt><trkpt lat="42.2842467" lon="14.121995"><ele>188.16666666666666</ele><time>2026-05-01T15:11:04.952Z</time></trkpt><trkpt lat="42.2841833" lon="14.1220717"><ele>188.33333333333331</ele><time>2026-05-01T15:11:06.952Z</time></trkpt><trkpt lat="42.2840817" lon="14.1221083"><ele>188.5</ele><time>2026-05-01T15:11:08.952Z</time></trkpt><trkpt lat="42.2839917" lon="14.12212"><ele>188.66666666666666</ele><time>2026-05-01T15:11:10.952Z</time></trkpt><trkpt lat="42.283915" lon="14.1221017"><ele>188.83333333333334</ele><time>2026-05-01T15:11:12.952Z</time></trkpt><trkpt lat="42.283835" lon="14.1220533"><ele>189.0</ele><time>2026-05-01T15:11:14.952Z</time></trkpt><trkpt lat="42.2837667" lon="14.1219667"><ele>193.33333333333334</ele><time>2026-05-01T15:11:16.952Z</time></trkpt><trkpt lat="42.2837117" lon="14.1218717"><ele>197.66666666666669</ele><time>2026-05-01T15:11:18.951Z</time></trkpt><trkpt lat="42.2836483" lon="14.1217833"><ele>202.0</ele><time>2026-05-01T15:11:20.951Z</time></trkpt><trkpt lat="42.2836033" lon="14.1217183"><ele>206.33333333333334</ele><time>2026-05-01T15:11:21.952Z</time></trkpt><trkpt lat="42.2835567" lon="14.1216417"><ele>210.66666666666669</ele><time>2026-05-01T15:11:22.952Z</time></trkpt><trkpt lat="42.2835117" lon="14.121565"><ele>215.0</ele><time>2026-05-01T15:11:23.951Z</time></trkpt><trkpt lat="42.2834333" lon="14.1214233"><ele>215.00000000000003</ele><time>2026-05-01T15:11:25.951Z</time></trkpt><trkpt lat="42.283375" lon="14.1212783"><ele>215.0</ele><time>2026-05-01T15:11:27.952Z</time></trkpt><trkpt lat="42.2833433" lon="14.1212017"><ele>215.0</ele><time>2026-05-01T15:11:28.952Z</time></trkpt><trkpt lat="42.2833133" lon="14.121125"><ele>215.0</ele><time>2026-05-01T15:11:29.952Z</time></trkpt><trkpt lat="42.28326" lon="14.1209833"><ele>215.00000000000003</ele><time>2026-05-01T15:11:31.952Z</time></trkpt><trkpt lat="42.283235" lon="14.1209"><ele>215.0</ele><time>2026-05-01T15:11:32.952Z</time></trkpt><trkpt lat="42.2832083" lon="14.1208083"><ele>214.0</ele><time>2026-05-01T15:11:33.952Z</time></trkpt><trkpt lat="42.2831683" lon="14.1206783"><ele>213.0</ele><time>2026-05-01T15:11:34.951Z</time></trkpt><trkpt lat="42.2831233" lon="14.1205367"><ele>212.0</ele><time>2026-05-01T15:11:35.951Z</time></trkpt><trkpt lat="42.2830833" lon="14.1203917"><ele>211.0</ele><time>2026-05-01T15:11:36.951Z</time></trkpt><trkpt lat="42.2830383" lon="14.120235"><ele>215.75</ele><time>2026-05-01T15:11:37.952Z</time></trkpt><trkpt lat="42.2829917" lon="14.1200583"><ele>220.5</ele><time>2026-05-01T15:11:38.952Z</time></trkpt><trkpt lat="42.28294" lon="14.1198983"><ele>225.25</ele><time>2026-05-01T15:11:39.952Z</time></trkpt><trkpt lat="42.282895" lon="14.11975"><ele>230.0</ele><time>2026-05-01T15:11:40.952Z</time></trkpt><trkpt lat="42.2828517" lon="14.1196083"><ele>230.0</ele><time>2026-05-01T15:11:41.952Z</time></trkpt><trkpt lat="42.2828117" lon="14.1194617"><ele>230.0</ele><time>2026-05-01T15:11:42.952Z</time></trkpt><trkpt lat="42.2827767" lon="14.1193367"><ele>230.0</ele><time>2026-05-01T15:11:43.952Z</time></trkpt><trkpt lat="42.2827383" lon="14.1192133"><ele>230.0</ele><time>2026-05-01T15:11:44.952Z</time></trkpt><trkpt lat="42.2827033" lon="14.1191033"><ele>230.0</ele><time>2026-05-01T15:11:45.952Z</time></trkpt><trkpt lat="42.282665" lon="14.11898"><ele>229.2</ele><time>2026-05-01T15:11:46.952Z</time></trkpt><trkpt lat="42.282625" lon="14.1188517"><ele>228.4</ele><time>2026-05-01T15:11:47.951Z</time></trkpt><trkpt lat="42.2825933" lon="14.1187267"><ele>227.60000000000002</ele><time>2026-05-01T15:11:48.951Z</time></trkpt><trkpt lat="42.2825633" lon="14.11861"><ele>226.8</ele><time>2026-05-01T15:11:49.952Z</time></trkpt><trkpt lat="42.28253" lon="14.1184883"><ele>226.0</ele><time>2026-05-01T15:11:50.951Z</time></trkpt><trkpt lat="42.2824983" lon="14.1183717"><ele>225.99999999999997</ele><time>2026-05-01T15:11:51.951Z</time></trkpt><trkpt lat="42.2824617" lon="14.1182717"><ele>226.0</ele><time>2026-05-01T15:11:52.952Z</time></trkpt><trkpt lat="42.2824283" lon="14.11817"><ele>226.0</ele><time>2026-05-01T15:11:53.951Z</time></trkpt><trkpt lat="42.282385" lon="14.1180667"><ele>226.0</ele><time>2026-05-01T15:11:54.952Z</time></trkpt><trkpt lat="42.2823333" lon="14.11796"><ele>225.99999999999997</ele><time>2026-05-01T15:11:55.952Z</time></trkpt><trkpt lat="42.2822833" lon="14.1178683"><ele>226.0</ele><time>2026-05-01T15:11:56.952Z</time></trkpt><trkpt lat="42.28224" lon="14.11778"><ele>225.49999999999997</ele><time>2026-05-01T15:11:57.951Z</time></trkpt><trkpt lat="42.2821983" lon="14.117715"><ele>225.0</ele><time>2026-05-01T15:11:58.952Z</time></trkpt><trkpt lat="42.282125" lon="14.1176117"><ele>224.5</ele><time>2026-05-01T15:12:00.952Z</time></trkpt><trkpt lat="42.2820417" lon="14.1175867"><ele>224.0</ele><time>2026-05-01T15:12:03.951Z</time></trkpt><trkpt lat="42.2820133" lon="14.1176883"><ele>223.49999999999997</ele><time>2026-05-01T15:12:05.952Z</time></trkpt><trkpt lat="42.2820217" lon="14.1177833"><ele>223.0</ele><time>2026-05-01T15:12:06.951Z</time></trkpt><trkpt lat="42.2820283" lon="14.117895"><ele>222.99999999999997</ele><time>2026-05-01T15:12:07.952Z</time></trkpt><trkpt lat="42.2820333" lon="14.1179967"><ele>223.0</ele><time>2026-05-01T15:12:08.952Z</time></trkpt><trkpt lat="42.282035" lon="14.1181"><ele>223.0</ele><time>2026-05-01T15:12:09.952Z</time></trkpt><trkpt lat="42.2820267" lon="14.1182033"><ele>223.0</ele><time>2026-05-01T15:12:10.952Z</time></trkpt><trkpt lat="42.2820217" lon="14.1183217"><ele>222.99999999999997</ele><time>2026-05-01T15:12:11.951Z</time></trkpt><trkpt lat="42.282015" lon="14.11846"><ele>223.0</ele><time>2026-05-01T15:12:12.952Z</time></trkpt><trkpt lat="42.2820017" lon="14.11861"><ele>224.25</ele><time>2026-05-01T15:12:13.952Z</time></trkpt><trkpt lat="42.2819817" lon="14.1187733"><ele>225.5</ele><time>2026-05-01T15:12:14.952Z</time></trkpt><trkpt lat="42.2819567" lon="14.1189583"><ele>226.75</ele><time>2026-05-01T15:12:15.952Z</time></trkpt><trkpt lat="42.2819383" lon="14.1191483"><ele>228.0</ele><time>2026-05-01T15:12:16.952Z</time></trkpt><trkpt lat="42.28192" lon="14.1193117"><ele>230.0</ele><time>2026-05-01T15:12:17.952Z</time></trkpt><trkpt lat="42.281905" lon="14.11945"><ele>232.0</ele><time>2026-05-01T15:12:18.951Z</time></trkpt><trkpt lat="42.2818967" lon="14.1195867"><ele>234.0</ele><time>2026-05-01T15:12:19.952Z</time></trkpt><trkpt lat="42.2819067" lon="14.1197517"><ele>236.0</ele><time>2026-05-01T15:12:20.952Z</time></trkpt><trkpt lat="42.2819283" lon="14.1199283"><ele>237.5</ele><time>2026-05-01T15:12:21.952Z</time></trkpt><trkpt lat="42.2819667" lon="14.1201133"><ele>239.0</ele><time>2026-05-01T15:12:22.952Z</time></trkpt><trkpt lat="42.2820067" lon="14.1203"><ele>240.5</ele><time>2026-05-01T15:12:23.952Z</time></trkpt><trkpt lat="42.2820467" lon="14.1204783"><ele>242.0</ele><time>2026-05-01T15:12:24.952Z</time></trkpt><trkpt lat="42.2820733" lon="14.120655"><ele>243.5</ele><time>2026-05-01T15:12:25.952Z</time></trkpt><trkpt lat="42.2820933" lon="14.1208317"><ele>245.0</ele><time>2026-05-01T15:12:26.952Z</time></trkpt><trkpt lat="42.2820917" lon="14.1210117"><ele>246.5</ele><time>2026-05-01T15:12:27.952Z</time></trkpt><trkpt lat="42.28209" lon="14.1211967"><ele>248.0</ele><time>2026-05-01T15:12:28.951Z</time></trkpt><trkpt lat="42.2820583" lon="14.1213767"><ele>248.0</ele><time>2026-05-01T15:12:29.952Z</time></trkpt><trkpt lat="42.2820267" lon="14.1215333"><ele>248.0</ele><time>2026-05-01T15:12:30.951Z</time></trkpt><trkpt lat="42.282" lon="14.1216883"><ele>248.0</ele><time>2026-05-01T15:12:31.952Z</time></trkpt><trkpt lat="42.28199" lon="14.1218333"><ele>248.0</ele><time>2026-05-01T15:12:32.952Z</time></trkpt><trkpt lat="42.2819967" lon="14.1219983"><ele>249.0</ele><time>2026-05-01T15:12:33.952Z</time></trkpt><trkpt lat="42.2820083" lon="14.122155"><ele>250.0</ele><time>2026-05-01T15:12:34.952Z</time></trkpt><trkpt lat="42.2820383" lon="14.12233"><ele>251.0</ele><time>2026-05-01T15:12:35.952Z</time></trkpt><trkpt lat="42.2820733" lon="14.1225217"><ele>252.0</ele><time>2026-05-01T15:12:36.952Z</time></trkpt><trkpt lat="42.2821033" lon="14.1227267"><ele>253.75</ele><time>2026-05-01T15:12:37.952Z</time></trkpt><trkpt lat="42.28212" lon="14.1229217"><ele>255.5</ele><time>2026-05-01T15:12:38.951Z</time></trkpt><trkpt lat="42.282135" lon="14.1231183"><ele>257.25</ele><time>2026-05-01T15:12:39.952Z</time></trkpt><trkpt lat="42.2821283" lon="14.1233183"><ele>259.0</ele><time>2026-05-01T15:12:40.952Z</time></trkpt><trkpt lat="42.28213" lon="14.1235183"><ele>262.0</ele><time>2026-05-01T15:12:41.952Z</time></trkpt><trkpt lat="42.28213" lon="14.1236967"><ele>265.0</ele><time>2026-05-01T15:12:42.952Z</time></trkpt><trkpt lat="42.28214" lon="14.1238933"><ele>268.0</ele><time>2026-05-01T15:12:43.952Z</time></trkpt><trkpt lat="42.2821467" lon="14.1240967"><ele>271.0</ele><time>2026-05-01T15:12:44.952Z</time></trkpt><trkpt lat="42.28216" lon="14.124295"><ele>273.0</ele><time>2026-05-01T15:12:45.952Z</time></trkpt><trkpt lat="42.2821683" lon="14.1244883"><ele>275.0</ele><time>2026-05-01T15:12:46.951Z</time></trkpt><trkpt lat="42.2821817" lon="14.1246867"><ele>277.0</ele><time>2026-05-01T15:12:47.952Z</time></trkpt><trkpt lat="42.2822017" lon="14.1248767"><ele>279.0</ele><time>2026-05-01T15:12:48.952Z</time></trkpt><trkpt lat="42.2822183" lon="14.12506"><ele>279.5</ele><time>2026-05-01T15:12:49.951Z</time></trkpt><trkpt lat="42.2822417" lon="14.12524"><ele>280.0</ele><time>2026-05-01T15:12:50.952Z</time></trkpt><trkpt lat="42.2822567" lon="14.12542"><ele>280.5</ele><time>2026-05-01T15:12:51.952Z</time></trkpt><trkpt lat="42.2822683" lon="14.1255783"><ele>281.0</ele><time>2026-05-01T15:12:52.952Z</time></trkpt><trkpt lat="42.28228" lon="14.125725"><ele>283.0</ele><time>2026-05-01T15:12:53.952Z</time></trkpt><trkpt lat="42.2822933" lon="14.1258817"><ele>285.0</ele><time>2026-05-01T15:12:54.952Z</time></trkpt><trkpt lat="42.2823133" lon="14.1260517"><ele>287.0</ele><time>2026-05-01T15:12:55.952Z</time></trkpt><trkpt lat="42.2823417" lon="14.12622"><ele>289.0</ele><time>2026-05-01T15:12:56.952Z</time></trkpt><trkpt lat="42.2823867" lon="14.12638"><ele>289.0</ele><time>2026-05-01T15:12:57.952Z</time></trkpt><trkpt lat="42.2824333" lon="14.1265233"><ele>289.0</ele><time>2026-05-01T15:12:58.952Z</time></trkpt><trkpt lat="42.2824817" lon="14.1266417"><ele>289.0</ele><time>2026-05-01T15:12:59.951Z</time></trkpt><trkpt lat="42.28253" lon="14.126745"><ele>289.0</ele><time>2026-05-01T15:13:00.951Z</time></trkpt><trkpt lat="42.2825667" lon="14.1268233"><ele>289.0</ele><time>2026-05-01T15:13:01.952Z</time></trkpt><trkpt lat="42.28262" lon="14.12694"><ele>291.2</ele><time>2026-05-01T15:13:03.952Z</time></trkpt><trkpt lat="42.2826483" lon="14.1270383"><ele>293.4</ele><time>2026-05-01T15:13:05.952Z</time></trkpt><trkpt lat="42.2826767" lon="14.1271233"><ele>295.6</ele><time>2026-05-01T15:13:06.952Z</time></trkpt><trkpt lat="42.28273" lon="14.1272317"><ele>297.8</ele><time>2026-05-01T15:13:07.952Z</time></trkpt><trkpt lat="42.2828117" lon="14.1273717"><ele>300.0</ele><time>2026-05-01T15:13:08.952Z</time></trkpt><trkpt lat="42.2829" lon="14.1275217"><ele>300.25</ele><time>2026-05-01T15:13:09.951Z</time></trkpt><trkpt lat="42.283" lon="14.127665"><ele>300.5</ele><time>2026-05-01T15:13:10.952Z</time></trkpt><trkpt lat="42.2830817" lon="14.1278233"><ele>300.75</ele><time>2026-05-01T15:13:11.952Z</time></trkpt><trkpt lat="42.2831717" lon="14.1279717"><ele>301.0</ele><time>2026-05-01T15:13:12.952Z</time></trkpt><trkpt lat="42.2832433" lon="14.1281117"><ele>301.25</ele><time>2026-05-01T15:13:13.952Z</time></trkpt><trkpt lat="42.28332" lon="14.128245"><ele>301.5</ele><time>2026-05-01T15:13:14.951Z</time></trkpt><trkpt lat="42.28339" lon="14.1283667"><ele>301.75</ele><time>2026-05-01T15:13:15.951Z</time></trkpt><trkpt lat="42.28347" lon="14.1284967"><ele>302.0</ele><time>2026-05-01T15:13:16.951Z</time></trkpt><trkpt lat="42.2835583" lon="14.1285883"><ele>302.0</ele><time>2026-05-01T15:13:17.951Z</time></trkpt><trkpt lat="42.2836483" lon="14.1286567"><ele>302.0</ele><time>2026-05-01T15:13:18.95Z</time></trkpt><trkpt lat="42.2837483" lon="14.1286917"><ele>302.0</ele><time>2026-05-01T15:13:19.951Z</time></trkpt><trkpt lat="42.2838517" lon="14.1286883"><ele>302.0</ele><time>2026-05-01T15:13:20.951Z</time></trkpt><trkpt lat="42.28396" lon="14.1286833"><ele>302.0</ele><time>2026-05-01T15:13:21.95Z</time></trkpt><trkpt lat="42.2840633" lon="14.1287067"><ele>302.5</ele><time>2026-05-01T15:13:22.951Z</time></trkpt><trkpt lat="42.2841667" lon="14.12875"><ele>303.0</ele><time>2026-05-01T15:13:23.951Z</time></trkpt><trkpt lat="42.2842633" lon="14.1288117"><ele>303.5</ele><time>2026-05-01T15:13:24.95Z</time></trkpt><trkpt lat="42.2843667" lon="14.12891"><ele>304.0</ele><time>2026-05-01T15:13:25.951Z</time></trkpt><trkpt lat="42.2844667" lon="14.1289967"><ele>303.5</ele><time>2026-05-01T15:13:26.95Z</time></trkpt><trkpt lat="42.2845733" lon="14.129095"><ele>303.0</ele><time>2026-05-01T15:13:27.951Z</time></trkpt><trkpt lat="42.284675" lon="14.1291817"><ele>302.5</ele><time>2026-05-01T15:13:28.95Z</time></trkpt><trkpt lat="42.2847817" lon="14.12927"><ele>302.0</ele><time>2026-05-01T15:13:29.951Z</time></trkpt><trkpt lat="42.2848833" lon="14.1293633"><ele>302.0</ele><time>2026-05-01T15:13:30.951Z</time></trkpt><trkpt lat="42.2849933" lon="14.1294667"><ele>302.0</ele><time>2026-05-01T15:13:31.95Z</time></trkpt><trkpt lat="42.2850917" lon="14.1295883"><ele>302.0</ele><time>2026-05-01T15:13:32.95Z</time></trkpt><trkpt lat="42.2851833" lon="14.1297083"><ele>302.0</ele><time>2026-05-01T15:13:33.951Z</time></trkpt><trkpt lat="42.2852767" lon="14.129835"><ele>303.25</ele><time>2026-05-01T15:13:34.95Z</time></trkpt><trkpt lat="42.2853733" lon="14.1299617"><ele>304.5</ele><time>2026-05-01T15:13:35.951Z</time></trkpt><trkpt lat="42.2854633" lon="14.1301067"><ele>305.75</ele><time>2026-05-01T15:13:36.951Z</time></trkpt><trkpt lat="42.2855433" lon="14.130255"><ele>307.0</ele><time>2026-05-01T15:13:37.95Z</time></trkpt><trkpt lat="42.28563" lon="14.13041"><ele>304.75</ele><time>2026-05-01T15:13:38.951Z</time></trkpt><trkpt lat="42.2856983" lon="14.1305833"><ele>302.5</ele><time>2026-05-01T15:13:39.951Z</time></trkpt><trkpt lat="42.285765" lon="14.130755"><ele>300.25</ele><time>2026-05-01T15:13:40.951Z</time></trkpt><trkpt lat="42.285835" lon="14.1309117"><ele>298.0</ele><time>2026-05-01T15:13:41.951Z</time></trkpt><trkpt lat="42.2859133" lon="14.1310583"><ele>298.0</ele><time>2026-05-01T15:13:42.951Z</time></trkpt><trkpt lat="42.2860033" lon="14.131195"><ele>298.0</ele><time>2026-05-01T15:13:43.951Z</time></trkpt><trkpt lat="42.2860933" lon="14.1313433"><ele>298.0</ele><time>2026-05-01T15:13:44.951Z</time></trkpt><trkpt lat="42.2861917" lon="14.1314917"><ele>298.0</ele><time>2026-05-01T15:13:45.951Z</time></trkpt><trkpt lat="42.2862917" lon="14.1316483"><ele>299.0</ele><time>2026-05-01T15:13:46.951Z</time></trkpt><trkpt lat="42.2863767" lon="14.131805"><ele>300.0</ele><time>2026-05-01T15:13:47.95Z</time></trkpt><trkpt lat="42.2864683" lon="14.131955"><ele>301.0</ele><time>2026-05-01T15:13:48.951Z</time></trkpt><trkpt lat="42.2865467" lon="14.132085"><ele>302.0</ele><time>2026-05-01T15:13:49.951Z</time></trkpt><trkpt lat="42.2866217" lon="14.13223"><ele>300.0</ele><time>2026-05-01T15:13:50.95Z</time></trkpt><trkpt lat="42.286675" lon="14.1323583"><ele>298.0</ele><time>2026-05-01T15:13:51.951Z</time></trkpt><trkpt lat="42.28671" lon="14.1325"><ele>296.0</ele><time>2026-05-01T15:13:52.951Z</time></trkpt><trkpt lat="42.2867417" lon="14.1326483"><ele>294.0</ele><time>2026-05-01T15:13:53.951Z</time></trkpt><trkpt lat="42.28678" lon="14.132795"><ele>292.0</ele><time>2026-05-01T15:13:54.951Z</time></trkpt><trkpt lat="42.2868117" lon="14.1329683"><ele>292.0</ele><time>2026-05-01T15:13:55.951Z</time></trkpt><trkpt lat="42.2868567" lon="14.1331233"><ele>292.0</ele><time>2026-05-01T15:13:56.95Z</time></trkpt><trkpt lat="42.2868867" lon="14.1332633"><ele>292.0</ele><time>2026-05-01T15:13:57.95Z</time></trkpt><trkpt lat="42.2869583" lon="14.13335"><ele>292.0</ele><time>2026-05-01T15:13:58.951Z</time></trkpt><trkpt lat="42.287065" lon="14.13341"><ele>292.0</ele><time>2026-05-01T15:13:59.951Z</time></trkpt><trkpt lat="42.2871933" lon="14.133465"><ele>291.0</ele><time>2026-05-01T15:14:00.951Z</time></trkpt><trkpt lat="42.2873317" lon="14.133515"><ele>290.0</ele><time>2026-05-01T15:14:01.95Z</time></trkpt><trkpt lat="42.2874767" lon="14.13358"><ele>289.0</ele><time>2026-05-01T15:14:02.951Z</time></trkpt><trkpt lat="42.2876267" lon="14.1336317"><ele>289.0</ele><time>2026-05-01T15:14:03.951Z</time></trkpt><trkpt lat="42.2877617" lon="14.1336817"><ele>289.0</ele><time>2026-05-01T15:14:04.951Z</time></trkpt><trkpt lat="42.2878683" lon="14.1337367"><ele>289.0</ele><time>2026-05-01T15:14:05.951Z</time></trkpt><trkpt lat="42.2879717" lon="14.13383"><ele>289.0</ele><time>2026-05-01T15:14:06.95Z</time></trkpt><trkpt lat="42.2880667" lon="14.133965"><ele>291.25</ele><time>2026-05-01T15:14:07.951Z</time></trkpt><trkpt lat="42.28815" lon="14.1341117"><ele>293.5</ele><time>2026-05-01T15:14:08.951Z</time></trkpt><trkpt lat="42.2882333" lon="14.1342767"><ele>295.75</ele><time>2026-05-01T15:14:09.95Z</time></trkpt><trkpt lat="42.2883283" lon="14.134435"><ele>298.0</ele><time>2026-05-01T15:14:10.95Z</time></trkpt><trkpt lat="42.2884183" lon="14.13457"><ele>298.0</ele><time>2026-05-01T15:14:11.951Z</time></trkpt><trkpt lat="42.28851" lon="14.134695"><ele>298.0</ele><time>2026-05-01T15:14:12.95Z</time></trkpt><trkpt lat="42.2886233" lon="14.1347883"><ele>298.0</ele><time>2026-05-01T15:14:13.95Z</time></trkpt><trkpt lat="42.2887433" lon="14.13487"><ele>298.0</ele><time>2026-05-01T15:14:14.951Z</time></trkpt><trkpt lat="42.2888717" lon="14.1349633"><ele>301.0</ele><time>2026-05-01T15:14:15.951Z</time></trkpt><trkpt lat="42.2889917" lon="14.1350733"><ele>304.0</ele><time>2026-05-01T15:14:16.95Z</time></trkpt><trkpt lat="42.289095" lon="14.1351767"><ele>307.0</ele><time>2026-05-01T15:14:17.95Z</time></trkpt><trkpt lat="42.2891867" lon="14.1352917"><ele>310.0</ele><time>2026-05-01T15:14:18.951Z</time></trkpt><trkpt lat="42.289275" lon="14.135375"><ele>310.0</ele><time>2026-05-01T15:14:19.951Z</time></trkpt><trkpt lat="42.2893667" lon="14.1354733"><ele>310.0</ele><time>2026-05-01T15:14:20.951Z</time></trkpt><trkpt lat="42.2894667" lon="14.1355717"><ele>310.0</ele><time>2026-05-01T15:14:21.951Z</time></trkpt><trkpt lat="42.2895883" lon="14.1356567"><ele>310.0</ele><time>2026-05-01T15:14:22.95Z</time></trkpt><trkpt lat="42.2897033" lon="14.1357083"><ele>310.25</ele><time>2026-05-01T15:14:23.95Z</time></trkpt><trkpt lat="42.2898283" lon="14.1357583"><ele>310.5</ele><time>2026-05-01T15:14:24.951Z</time></trkpt><trkpt lat="42.2899533" lon="14.135795"><ele>310.75</ele><time>2026-05-01T15:14:25.951Z</time></trkpt><trkpt lat="42.290075" lon="14.1358217"><ele>311.0</ele><time>2026-05-01T15:14:26.951Z</time></trkpt><trkpt lat="42.2901883" lon="14.135855"><ele>311.0</ele><time>2026-05-01T15:14:27.95Z</time></trkpt><trkpt lat="42.2903017" lon="14.135885"><ele>311.0</ele><time>2026-05-01T15:14:28.951Z</time></trkpt><trkpt lat="42.2904067" lon="14.13592"><ele>311.0</ele><time>2026-05-01T15:14:29.951Z</time></trkpt><trkpt lat="42.2905117" lon="14.1359633"><ele>311.0</ele><time>2026-05-01T15:14:30.951Z</time></trkpt><trkpt lat="42.2906317" lon="14.136005"><ele>312.0</ele><time>2026-05-01T15:14:31.95Z</time></trkpt><trkpt lat="42.290745" lon="14.1360367"><ele>313.0</ele><time>2026-05-01T15:14:32.95Z</time></trkpt><trkpt lat="42.2908483" lon="14.1360683"><ele>314.0</ele><time>2026-05-01T15:14:33.95Z</time></trkpt><trkpt lat="42.2909333" lon="14.1360883"><ele>315.0</ele><time>2026-05-01T15:14:34.951Z</time></trkpt><trkpt lat="42.29101" lon="14.1360883"><ele>316.0</ele><time>2026-05-01T15:14:35.951Z</time></trkpt><trkpt lat="42.2910733" lon="14.136085"><ele>317.0</ele><time>2026-05-01T15:14:36.95Z</time></trkpt><trkpt lat="42.2911733" lon="14.1360583"><ele>317.0</ele><time>2026-05-01T15:14:38.95Z</time></trkpt><trkpt lat="42.291245" lon="14.13602"><ele>317.0</ele><time>2026-05-01T15:14:40.951Z</time></trkpt><trkpt lat="42.2913417" lon="14.1359933"><ele>317.0</ele><time>2026-05-01T15:14:42.951Z</time></trkpt><trkpt lat="42.2914217" lon="14.13593"><ele>317.0</ele><time>2026-05-01T15:14:44.95Z</time></trkpt><trkpt lat="42.2914133" lon="14.13581"><ele>317.0</ele><time>2026-05-01T15:14:47.951Z</time></trkpt><trkpt lat="42.291365" lon="14.135735"><ele>317.0</ele><time>2026-05-01T15:14:49.951Z</time></trkpt><trkpt lat="42.291325" lon="14.1356617"><ele>318.83333333333337</ele><time>2026-05-01T15:14:51.951Z</time></trkpt><trkpt lat="42.2912983" lon="14.1355617"><ele>320.6666666666667</ele><time>2026-05-01T15:14:53.951Z</time></trkpt><trkpt lat="42.291285" lon="14.135385"><ele>322.5</ele><time>2026-05-01T15:14:55.951Z</time></trkpt><trkpt lat="42.2912767" lon="14.13527"><ele>324.3333333333333</ele><time>2026-05-01T15:14:56.951Z</time></trkpt><trkpt lat="42.29125" lon="14.1351783"><ele>326.16666666666663</ele><time>2026-05-01T15:14:57.951Z</time></trkpt><trkpt lat="42.2912233" lon="14.1350833"><ele>328.0</ele><time>2026-05-01T15:14:58.951Z</time></trkpt><trkpt lat="42.2912" lon="14.1349817"><ele>326.99999999999994</ele><time>2026-05-01T15:14:59.951Z</time></trkpt><trkpt lat="42.2911767" lon="14.1348867"><ele>326.0</ele><time>2026-05-01T15:15:00.951Z</time></trkpt><trkpt lat="42.2911633" lon="14.1347933"><ele>325.0</ele><time>2026-05-01T15:15:01.951Z</time></trkpt><trkpt lat="42.291135" lon="14.1347133"><ele>324.0</ele><time>2026-05-01T15:15:02.951Z</time></trkpt><trkpt lat="42.2911017" lon="14.1346317"><ele>323.0</ele><time>2026-05-01T15:15:03.951Z</time></trkpt><trkpt lat="42.2910467" lon="14.13456"><ele>321.99999999999994</ele><time>2026-05-01T15:15:04.951Z</time></trkpt><trkpt lat="42.2909983" lon="14.1344833"><ele>321.0</ele><time>2026-05-01T15:15:05.951Z</time></trkpt><trkpt lat="42.2909583" lon="14.134415"><ele>321.0</ele><time>2026-05-01T15:15:06.95Z</time></trkpt><trkpt lat="42.290925" lon="14.1343383"><ele>321.0</ele><time>2026-05-01T15:15:07.951Z</time></trkpt><trkpt lat="42.2908533" lon="14.13421"><ele>321.0</ele><time>2026-05-01T15:15:09.95Z</time></trkpt><trkpt lat="42.2907967" lon="14.1341367"><ele>321.0</ele><time>2026-05-01T15:15:11.951Z</time></trkpt><trkpt lat="42.2907117" lon="14.1340783"><ele>321.0</ele><time>2026-05-01T15:15:13.95Z</time></trkpt><trkpt lat="42.2906467" lon="14.1340317"><ele>321.0</ele><time>2026-05-01T15:15:14.951Z</time></trkpt><trkpt lat="42.2905817" lon="14.1339917"><ele>320.6</ele><time>2026-05-01T15:15:15.95Z</time></trkpt><trkpt lat="42.2905" lon="14.1339517"><ele>320.20000000000005</ele><time>2026-05-01T15:15:16.951Z</time></trkpt><trkpt lat="42.2903983" lon="14.133915"><ele>319.79999999999995</ele><time>2026-05-01T15:15:17.951Z</time></trkpt><trkpt lat="42.290305" lon="14.133865"><ele>319.4</ele><time>2026-05-01T15:15:18.951Z</time></trkpt><trkpt lat="42.2901967" lon="14.1338133"><ele>319.0</ele><time>2026-05-01T15:15:19.95Z</time></trkpt><trkpt lat="42.2901067" lon="14.1337483"><ele>319.0</ele><time>2026-05-01T15:15:20.95Z</time></trkpt><trkpt lat="42.290035" lon="14.1336517"><ele>319.0</ele><time>2026-05-01T15:15:21.951Z</time></trkpt><trkpt lat="42.2899733" lon="14.1335433"><ele>319.0</ele><time>2026-05-01T15:15:22.95Z</time></trkpt><trkpt lat="42.28992" lon="14.13343"><ele>319.0</ele><time>2026-05-01T15:15:23.951Z</time></trkpt><trkpt lat="42.28987" lon="14.1333233"><ele>319.0</ele><time>2026-05-01T15:15:24.951Z</time></trkpt><trkpt lat="42.2898217" lon="14.13323"><ele>318.4</ele><time>2026-05-01T15:15:25.95Z</time></trkpt><trkpt lat="42.2897717" lon="14.133145"><ele>317.79999999999995</ele><time>2026-05-01T15:15:26.951Z</time></trkpt><trkpt lat="42.289715" lon="14.1330833"><ele>317.20000000000005</ele><time>2026-05-01T15:15:27.951Z</time></trkpt><trkpt lat="42.2896283" lon="14.1329867"><ele>316.6</ele><time>2026-05-01T15:15:29.951Z</time></trkpt><trkpt lat="42.2896033" lon="14.1328417"><ele>316.0</ele><time>2026-05-01T15:15:31.95Z</time></trkpt><trkpt lat="42.289615" lon="14.132735"><ele>315.6</ele><time>2026-05-01T15:15:32.95Z</time></trkpt><trkpt lat="42.2896283" lon="14.1326267"><ele>315.20000000000005</ele><time>2026-05-01T15:15:33.95Z</time></trkpt><trkpt lat="42.2896483" lon="14.1324533"><ele>314.79999999999995</ele><time>2026-05-01T15:15:35.951Z</time></trkpt><trkpt lat="42.28967" lon="14.1323733"><ele>314.4</ele><time>2026-05-01T15:15:36.951Z</time></trkpt><trkpt lat="42.2897033" lon="14.1322333"><ele>314.0</ele><time>2026-05-01T15:15:38.951Z</time></trkpt><trkpt lat="42.2897467" lon="14.13208"><ele>313.0</ele><time>2026-05-01T15:15:40.95Z</time></trkpt><trkpt lat="42.2897667" lon="14.1319983"><ele>312.0</ele><time>2026-05-01T15:15:41.95Z</time></trkpt><trkpt lat="42.28983" lon="14.1318667"><ele>311.0</ele><time>2026-05-01T15:15:43.951Z</time></trkpt><trkpt lat="42.2898867" lon="14.1317467"><ele>310.0</ele><time>2026-05-01T15:15:45.951Z</time></trkpt><trkpt lat="42.289945" lon="14.131605"><ele>309.0</ele><time>2026-05-01T15:15:47.951Z</time></trkpt><trkpt lat="42.2899983" lon="14.131505"><ele>306.3333333333333</ele><time>2026-05-01T15:15:49.95Z</time></trkpt><trkpt lat="42.2900467" lon="14.1314233"><ele>303.6666666666667</ele><time>2026-05-01T15:15:52.951Z</time></trkpt><trkpt lat="42.2900817" lon="14.1313433"><ele>301.0</ele><time>2026-05-01T15:15:56.951Z</time></trkpt><trkpt lat="42.290105" lon="14.131235"><ele>298.33333333333337</ele><time>2026-05-01T15:15:59.95Z</time></trkpt><trkpt lat="42.2901533" lon="14.131145"><ele>295.6666666666667</ele><time>2026-05-01T15:16:02.95Z</time></trkpt><trkpt lat="42.290185" lon="14.131045"><ele>293.0</ele><time>2026-05-01T15:16:05.951Z</time></trkpt><trkpt lat="42.290205" lon="14.1309433"><ele>293.0</ele><time>2026-05-01T15:16:08.95Z</time></trkpt><trkpt lat="42.2902383" lon="14.1308067"><ele>293.0</ele><time>2026-05-01T15:16:11.95Z</time></trkpt><trkpt lat="42.2902683" lon="14.130675"><ele>293.0</ele><time>2026-05-01T15:16:13.95Z</time></trkpt><trkpt lat="42.2903067" lon="14.1305467"><ele>293.0</ele><time>2026-05-01T15:16:15.95Z</time></trkpt><trkpt lat="42.2903317" lon="14.1304367"><ele>293.0</ele><time>2026-05-01T15:16:17.95Z</time></trkpt><trkpt lat="42.2903483" lon="14.1303233"><ele>289.0</ele><time>2026-05-01T15:16:19.949Z</time></trkpt><trkpt lat="42.2903733" lon="14.1301817"><ele>285.0</ele><time>2026-05-01T15:16:21.949Z</time></trkpt><trkpt lat="42.2903833" lon="14.1300333"><ele>281.0</ele><time>2026-05-01T15:16:23.95Z</time></trkpt><trkpt lat="42.2903833" lon="14.1298667"><ele>277.0</ele><time>2026-05-01T15:16:25.95Z</time></trkpt><trkpt lat="42.2903633" lon="14.1297017"><ele>275.4</ele><time>2026-05-01T15:16:27.949Z</time></trkpt><trkpt lat="42.2903533" lon="14.1295483"><ele>273.79999999999995</ele><time>2026-05-01T15:16:29.95Z</time></trkpt><trkpt lat="42.290345" lon="14.1293983"><ele>272.2</ele><time>2026-05-01T15:16:31.95Z</time></trkpt><trkpt lat="42.2903467" lon="14.1292433"><ele>270.59999999999997</ele><time>2026-05-01T15:16:33.95Z</time></trkpt><trkpt lat="42.2903533" lon="14.1291533"><ele>269.0</ele><time>2026-05-01T15:16:34.949Z</time></trkpt><trkpt lat="42.2903567" lon="14.129065"><ele>265.0</ele><time>2026-05-01T15:16:35.95Z</time></trkpt><trkpt lat="42.2903683" lon="14.128915"><ele>261.0</ele><time>2026-05-01T15:16:37.95Z</time></trkpt><trkpt lat="42.2903867" lon="14.1287667"><ele>257.0</ele><time>2026-05-01T15:16:39.95Z</time></trkpt><trkpt lat="42.2904" lon="14.128645"><ele>253.0</ele><time>2026-05-01T15:16:41.95Z</time></trkpt><trkpt lat="42.29042" lon="14.1285117"><ele>249.0</ele><time>2026-05-01T15:16:43.949Z</time></trkpt><trkpt lat="42.290435" lon="14.128365"><ele>249.0</ele><time>2026-05-01T15:16:45.95Z</time></trkpt><trkpt lat="42.2904417" lon="14.12828"><ele>248.99999999999997</ele><time>2026-05-01T15:16:46.95Z</time></trkpt><trkpt lat="42.29045" lon="14.1281933"><ele>248.99999999999997</ele><time>2026-05-01T15:16:47.95Z</time></trkpt><trkpt lat="42.2904683" lon="14.1280333"><ele>249.0</ele><time>2026-05-01T15:16:49.95Z</time></trkpt><trkpt lat="42.2904867" lon="14.1278867"><ele>249.0</ele><time>2026-05-01T15:16:51.949Z</time></trkpt><trkpt lat="42.2905033" lon="14.127745"><ele>244.79999999999998</ele><time>2026-05-01T15:16:53.95Z</time></trkpt><trkpt lat="42.2905167" lon="14.12762"><ele>240.59999999999997</ele><time>2026-05-01T15:16:55.949Z</time></trkpt><trkpt lat="42.29054" lon="14.1274983"><ele>236.4</ele><time>2026-05-01T15:16:57.95Z</time></trkpt><trkpt lat="42.290555" lon="14.12738"><ele>232.2</ele><time>2026-05-01T15:16:59.95Z</time></trkpt><trkpt lat="42.2905783" lon="14.1272467"><ele>228.0</ele><time>2026-05-01T15:17:01.95Z</time></trkpt><trkpt lat="42.2906017" lon="14.1270983"><ele>227.0</ele><time>2026-05-01T15:17:03.95Z</time></trkpt><trkpt lat="42.2906267" lon="14.1269433"><ele>226.0</ele><time>2026-05-01T15:17:05.95Z</time></trkpt><trkpt lat="42.2906367" lon="14.1267867"><ele>225.0</ele><time>2026-05-01T15:17:07.949Z</time></trkpt><trkpt lat="42.2906267" lon="14.126625"><ele>224.0</ele><time>2026-05-01T15:17:09.95Z</time></trkpt><trkpt lat="42.29061" lon="14.1264667"><ele>218.5</ele><time>2026-05-01T15:17:11.95Z</time></trkpt><trkpt lat="42.2905867" lon="14.1263083"><ele>213.0</ele><time>2026-05-01T15:17:13.95Z</time></trkpt><trkpt lat="42.29056" lon="14.1261517"><ele>207.5</ele><time>2026-05-01T15:17:15.95Z</time></trkpt><trkpt lat="42.2905433" lon="14.125995"><ele>202.0</ele><time>2026-05-01T15:17:17.95Z</time></trkpt><trkpt lat="42.2905283" lon="14.1258367"><ele>201.39999999999998</ele><time>2026-05-01T15:17:19.95Z</time></trkpt><trkpt lat="42.2905183" lon="14.1256967"><ele>200.79999999999998</ele><time>2026-05-01T15:17:21.95Z</time></trkpt><trkpt lat="42.2905067" lon="14.125555"><ele>200.2</ele><time>2026-05-01T15:17:23.949Z</time></trkpt><trkpt lat="42.2904983" lon="14.1254183"><ele>199.6</ele><time>2026-05-01T15:17:25.95Z</time></trkpt><trkpt lat="42.2905033" lon="14.1252867"><ele>199.0</ele><time>2026-05-01T15:17:27.95Z</time></trkpt><trkpt lat="42.290505" lon="14.1251367"><ele>198.99999999999997</ele><time>2026-05-01T15:17:29.95Z</time></trkpt><trkpt lat="42.29052" lon="14.1249967"><ele>199.0</ele><time>2026-05-01T15:17:31.95Z</time></trkpt><trkpt lat="42.2905317" lon="14.124905"><ele>199.0</ele><time>2026-05-01T15:17:33.949Z</time></trkpt><trkpt lat="42.2905717" lon="14.124825"><ele>199.0</ele><time>2026-05-01T15:17:36.949Z</time></trkpt><trkpt lat="42.290615" lon="14.1247433"><ele>198.99999999999997</ele><time>2026-05-01T15:17:39.95Z</time></trkpt><trkpt lat="42.2906567" lon="14.1246433"><ele>199.0</ele><time>2026-05-01T15:17:42.949Z</time></trkpt><trkpt lat="42.2907017" lon="14.124545"><ele>198.16666666666666</ele><time>2026-05-01T15:17:45.949Z</time></trkpt><trkpt lat="42.29075" lon="14.1244467"><ele>197.33333333333331</ele><time>2026-05-01T15:17:48.95Z</time></trkpt><trkpt lat="42.2908033" lon="14.1243483"><ele>196.5</ele><time>2026-05-01T15:17:51.95Z</time></trkpt><trkpt lat="42.2908417" lon="14.1242783"><ele>195.66666666666669</ele><time>2026-05-01T15:17:53.95Z</time></trkpt><trkpt lat="42.2908783" lon="14.1241683"><ele>194.83333333333334</ele><time>2026-05-01T15:17:55.949Z</time></trkpt><trkpt lat="42.2909183" lon="14.124035"><ele>194.0</ele><time>2026-05-01T15:17:57.95Z</time></trkpt><trkpt lat="42.2909467" lon="14.1239"><ele>191.00000000000003</ele><time>2026-05-01T15:17:59.949Z</time></trkpt><trkpt lat="42.2909767" lon="14.1237717"><ele>188.0</ele><time>2026-05-01T15:18:01.95Z</time></trkpt><trkpt lat="42.29099" lon="14.1236383"><ele>185.0</ele><time>2026-05-01T15:18:03.95Z</time></trkpt><trkpt lat="42.2909683" lon="14.1234967"><ele>182.0</ele><time>2026-05-01T15:18:05.95Z</time></trkpt><trkpt lat="42.2909433" lon="14.12341"><ele>179.0</ele><time>2026-05-01T15:18:06.95Z</time></trkpt><trkpt lat="42.290915" lon="14.1233283"><ele>176.0</ele><time>2026-05-01T15:18:07.949Z</time></trkpt><trkpt lat="42.2908867" lon="14.12325"><ele>173.5</ele><time>2026-05-01T15:18:08.95Z</time></trkpt><trkpt lat="42.290845" lon="14.1231083"><ele>171.0</ele><time>2026-05-01T15:18:10.95Z</time></trkpt><trkpt lat="42.2908117" lon="14.1230033"><ele>168.5</ele><time>2026-05-01T15:18:12.95Z</time></trkpt><trkpt lat="42.29079" lon="14.1229217"><ele>166.0</ele><time>2026-05-01T15:18:14.95Z</time></trkpt><trkpt lat="42.29076" lon="14.1228133"><ele>163.5</ele><time>2026-05-01T15:18:17.949Z</time></trkpt><trkpt lat="42.290725" lon="14.1227183"><ele>161.0</ele><time>2026-05-01T15:18:20.949Z</time></trkpt><trkpt lat="42.2906983" lon="14.1226083"><ele>161.0</ele><time>2026-05-01T15:18:23.95Z</time></trkpt><trkpt lat="42.29073" lon="14.1224983"><ele>161.0</ele><time>2026-05-01T15:18:25.95Z</time></trkpt><trkpt lat="42.2907917" lon="14.1224233"><ele>161.0</ele><time>2026-05-01T15:18:27.949Z</time></trkpt><trkpt lat="42.29085" lon="14.122355"><ele>161.0</ele><time>2026-05-01T15:18:29.949Z</time></trkpt><trkpt lat="42.290915" lon="14.1223083"><ele>161.0</ele><time>2026-05-01T15:18:31.949Z</time></trkpt><trkpt lat="42.2909717" lon="14.1222517"><ele>161.0</ele><time>2026-05-01T15:18:33.949Z</time></trkpt><trkpt lat="42.2909967" lon="14.1221183"><ele>161.0</ele><time>2026-05-01T15:18:36.95Z</time></trkpt><trkpt lat="42.290995" lon="14.1219633"><ele>161.0</ele><time>2026-05-01T15:18:38.949Z</time></trkpt><trkpt lat="42.2910083" lon="14.1218267"><ele>161.0</ele><time>2026-05-01T15:18:40.949Z</time></trkpt><trkpt lat="42.2910717" lon="14.1216717"><ele>161.0</ele><time>2026-05-01T15:18:42.949Z</time></trkpt><trkpt lat="42.291115" lon="14.1216083"><ele>161.0</ele><time>2026-05-01T15:18:43.95Z</time></trkpt><trkpt lat="42.2911567" lon="14.121535"><ele>162.42857142857142</ele><time>2026-05-01T15:18:44.95Z</time></trkpt><trkpt lat="42.2911917" lon="14.1214617"><ele>163.85714285714286</ele><time>2026-05-01T15:18:45.949Z</time></trkpt><trkpt lat="42.291235" lon="14.12138"><ele>165.28571428571428</ele><time>2026-05-01T15:18:46.95Z</time></trkpt><trkpt lat="42.29127" lon="14.1213"><ele>166.71428571428572</ele><time>2026-05-01T15:18:47.949Z</time></trkpt><trkpt lat="42.2913033" lon="14.1212233"><ele>168.14285714285714</ele><time>2026-05-01T15:18:48.95Z</time></trkpt><trkpt lat="42.29134" lon="14.12115"><ele>169.57142857142856</ele><time>2026-05-01T15:18:49.95Z</time></trkpt><trkpt lat="42.2913783" lon="14.1210667"><ele>171.0</ele><time>2026-05-01T15:18:50.95Z</time></trkpt><trkpt lat="42.29142" lon="14.1209733"><ele>172.5</ele><time>2026-05-01T15:18:51.95Z</time></trkpt><trkpt lat="42.2914667" lon="14.12088"><ele>174.0</ele><time>2026-05-01T15:18:52.95Z</time></trkpt><trkpt lat="42.2915117" lon="14.1207817"><ele>175.5</ele><time>2026-05-01T15:18:53.949Z</time></trkpt><trkpt lat="42.2915567" lon="14.12069"><ele>177.0</ele><time>2026-05-01T15:18:54.95Z</time></trkpt><trkpt lat="42.2916017" lon="14.1205967"><ele>178.5</ele><time>2026-05-01T15:18:55.95Z</time></trkpt><trkpt lat="42.291645" lon="14.1205183"><ele>180.0</ele><time>2026-05-01T15:18:56.949Z</time></trkpt><trkpt lat="42.2916833" lon="14.1204383"><ele>182.83333333333334</ele><time>2026-05-01T15:18:57.949Z</time></trkpt><trkpt lat="42.2917167" lon="14.1203583"><ele>185.66666666666669</ele><time>2026-05-01T15:18:58.95Z</time></trkpt><trkpt lat="42.2917517" lon="14.1202867"><ele>188.5</ele><time>2026-05-01T15:18:59.95Z</time></trkpt><trkpt lat="42.2918067" lon="14.12016"><ele>191.33333333333334</ele><time>2026-05-01T15:19:01.95Z</time></trkpt><trkpt lat="42.2918167" lon="14.1200083"><ele>194.16666666666669</ele><time>2026-05-01T15:19:03.95Z</time></trkpt><trkpt lat="42.2918117" lon="14.1199233"><ele>197.0</ele><time>2026-05-01T15:19:04.949Z</time></trkpt><trkpt lat="42.2918017" lon="14.1197633"><ele>200.6</ele><time>2026-05-01T15:19:06.95Z</time></trkpt><trkpt lat="42.29177" lon="14.119615"><ele>204.2</ele><time>2026-05-01T15:19:08.95Z</time></trkpt><trkpt lat="42.2917317" lon="14.1195233"><ele>207.8</ele><time>2026-05-01T15:19:10.95Z</time></trkpt><trkpt lat="42.2917983" lon="14.1194683"><ele>211.4</ele><time>2026-05-01T15:19:14.95Z</time></trkpt><trkpt lat="42.2918817" lon="14.1195083"><ele>215.0</ele><time>2026-05-01T15:19:16.949Z</time></trkpt><trkpt lat="42.2919833" lon="14.1195133"><ele>215.00000000000003</ele><time>2026-05-01T15:19:18.948Z</time></trkpt><trkpt lat="42.2920867" lon="14.1194783"><ele>215.0</ele><time>2026-05-01T15:19:20.949Z</time></trkpt><trkpt lat="42.292175" lon="14.119425"><ele>215.0</ele><time>2026-05-01T15:19:22.949Z</time></trkpt><trkpt lat="42.2922733" lon="14.1193717"><ele>215.0</ele><time>2026-05-01T15:19:24.948Z</time></trkpt><trkpt lat="42.2923317" lon="14.1193333"><ele>215.00000000000003</ele><time>2026-05-01T15:19:25.948Z</time></trkpt><trkpt lat="42.292395" lon="14.1192983"><ele>215.0</ele><time>2026-05-01T15:19:26.949Z</time></trkpt><trkpt lat="42.2924567" lon="14.1192533"><ele>218.0</ele><time>2026-05-01T15:19:27.949Z</time></trkpt><trkpt lat="42.29256" lon="14.1191733"><ele>221.0</ele><time>2026-05-01T15:19:29.948Z</time></trkpt><trkpt lat="42.2926533" lon="14.1190717"><ele>224.0</ele><time>2026-05-01T15:19:31.949Z</time></trkpt><trkpt lat="42.2926983" lon="14.1190117"><ele>227.0</ele><time>2026-05-01T15:19:32.948Z</time></trkpt><trkpt lat="42.292745" lon="14.1189517"><ele>230.0</ele><time>2026-05-01T15:19:33.949Z</time></trkpt><trkpt lat="42.2928367" lon="14.118855"><ele>232.83333333333334</ele><time>2026-05-01T15:19:35.949Z</time></trkpt><trkpt lat="42.2928867" lon="14.1187983"><ele>235.66666666666669</ele><time>2026-05-01T15:19:36.949Z</time></trkpt><trkpt lat="42.2929467" lon="14.1187433"><ele>238.5</ele><time>2026-05-01T15:19:37.949Z</time></trkpt><trkpt lat="42.29303" lon="14.1186667"><ele>241.33333333333331</ele><time>2026-05-01T15:19:39.949Z</time></trkpt><trkpt lat="42.293055" lon="14.118575"><ele>244.16666666666666</ele><time>2026-05-01T15:19:41.949Z</time></trkpt><trkpt lat="42.29302" lon="14.1184233"><ele>247.0</ele><time>2026-05-01T15:19:43.949Z</time></trkpt><trkpt lat="42.2930017" lon="14.1182933"><ele>246.16666666666666</ele><time>2026-05-01T15:19:45.949Z</time></trkpt><trkpt lat="42.292995" lon="14.1182"><ele>245.33333333333331</ele><time>2026-05-01T15:19:48.949Z</time></trkpt><trkpt lat="42.2929283" lon="14.11815"><ele>244.5</ele><time>2026-05-01T15:19:51.949Z</time></trkpt><trkpt lat="42.2928517" lon="14.1181117"><ele>243.66666666666669</ele><time>2026-05-01T15:19:53.949Z</time></trkpt><trkpt lat="42.2927917" lon="14.118085"><ele>242.83333333333334</ele><time>2026-05-01T15:19:54.948Z</time></trkpt><trkpt lat="42.2927117" lon="14.1180467"><ele>242.0</ele><time>2026-05-01T15:19:55.949Z</time></trkpt><trkpt lat="42.29263" lon="14.118015"><ele>242.0</ele><time>2026-05-01T15:19:56.948Z</time></trkpt><trkpt lat="42.2925517" lon="14.1179783"><ele>241.99999999999997</ele><time>2026-05-01T15:19:57.949Z</time></trkpt><trkpt lat="42.2924767" lon="14.117935"><ele>242.0</ele><time>2026-05-01T15:19:58.949Z</time></trkpt><trkpt lat="42.2924117" lon="14.1178783"><ele>242.0</ele><time>2026-05-01T15:19:59.948Z</time></trkpt><trkpt lat="42.2923733" lon="14.1178"><ele>241.99999999999997</ele><time>2026-05-01T15:20:00.949Z</time></trkpt><trkpt lat="42.2923633" lon="14.117715"><ele>242.0</ele><time>2026-05-01T15:20:01.948Z</time></trkpt><trkpt lat="42.2923817" lon="14.1176233"><ele>242.0</ele><time>2026-05-01T15:20:02.948Z</time></trkpt><trkpt lat="42.2924333" lon="14.1175517"><ele>242.00000000000003</ele><time>2026-05-01T15:20:03.949Z</time></trkpt><trkpt lat="42.2924917" lon="14.1175083"><ele>242.0</ele><time>2026-05-01T15:20:04.948Z</time></trkpt><trkpt lat="42.292575" lon="14.1175383"><ele>242.0</ele><time>2026-05-01T15:20:05.949Z</time></trkpt><trkpt lat="42.2926583" lon="14.1176"><ele>242.0</ele><time>2026-05-01T15:20:06.949Z</time></trkpt><trkpt lat="42.2927483" lon="14.11767"><ele>242.00000000000003</ele><time>2026-05-01T15:20:07.949Z</time></trkpt><trkpt lat="42.2928333" lon="14.11773"><ele>242.0</ele><time>2026-05-01T15:20:08.949Z</time></trkpt><trkpt lat="42.2929017" lon="14.1177817"><ele>242.0</ele><time>2026-05-01T15:20:09.949Z</time></trkpt><trkpt lat="42.2930033" lon="14.1178167"><ele>242.0</ele><time>2026-05-01T15:20:11.949Z</time></trkpt><trkpt lat="42.2930983" lon="14.1177733"><ele>242.0</ele><time>2026-05-01T15:20:13.949Z</time></trkpt><trkpt lat="42.2931483" lon="14.1176517"><ele>242.0</ele><time>2026-05-01T15:20:15.948Z</time></trkpt><trkpt lat="42.2930933" lon="14.1175133"><ele>242.0</ele><time>2026-05-01T15:20:17.948Z</time></trkpt><trkpt lat="42.29302" lon="14.11744"><ele>239.83333333333334</ele><time>2026-05-01T15:20:18.949Z</time></trkpt><trkpt lat="42.2929517" lon="14.1173733"><ele>237.66666666666669</ele><time>2026-05-01T15:20:19.949Z</time></trkpt><trkpt lat="42.29289" lon="14.1173017"><ele>235.5</ele><time>2026-05-01T15:20:20.948Z</time></trkpt><trkpt lat="42.2928283" lon="14.1172267"><ele>233.33333333333331</ele><time>2026-05-01T15:20:21.948Z</time></trkpt><trkpt lat="42.2927733" lon="14.117145"><ele>231.16666666666666</ele><time>2026-05-01T15:20:22.948Z</time></trkpt><trkpt lat="42.29272" lon="14.1170617"><ele>229.0</ele><time>2026-05-01T15:20:23.948Z</time></trkpt><trkpt lat="42.292665" lon="14.11697"><ele>229.0</ele><time>2026-05-01T15:20:24.948Z</time></trkpt><trkpt lat="42.2926017" lon="14.1168683"><ele>228.99999999999997</ele><time>2026-05-01T15:20:25.948Z</time></trkpt><trkpt lat="42.2925433" lon="14.11676"><ele>228.99999999999997</ele><time>2026-05-01T15:20:26.949Z</time></trkpt><trkpt lat="42.2924817" lon="14.1166433"><ele>229.0</ele><time>2026-05-01T15:20:27.949Z</time></trkpt><trkpt lat="42.29241" lon="14.1165233"><ele>229.0</ele><time>2026-05-01T15:20:28.949Z</time></trkpt><trkpt lat="42.2923283" lon="14.1164033"><ele>225.5</ele><time>2026-05-01T15:20:29.949Z</time></trkpt><trkpt lat="42.292245" lon="14.116285"><ele>222.0</ele><time>2026-05-01T15:20:30.949Z</time></trkpt><trkpt lat="42.2921567" lon="14.1161767"><ele>218.5</ele><time>2026-05-01T15:20:31.949Z</time></trkpt><trkpt lat="42.2920617" lon="14.116055"><ele>215.0</ele><time>2026-05-01T15:20:32.949Z</time></trkpt><trkpt lat="42.2919617" lon="14.1159383"><ele>215.0</ele><time>2026-05-01T15:20:33.949Z</time></trkpt><trkpt lat="42.2918517" lon="14.1158"><ele>215.0</ele><time>2026-05-01T15:20:34.948Z</time></trkpt><trkpt lat="42.291765" lon="14.1156633"><ele>215.0</ele><time>2026-05-01T15:20:35.949Z</time></trkpt><trkpt lat="42.29168" lon="14.1155267"><ele>215.0</ele><time>2026-05-01T15:20:36.949Z</time></trkpt><trkpt lat="42.2915983" lon="14.1154017"><ele>214.4</ele><time>2026-05-01T15:20:37.949Z</time></trkpt><trkpt lat="42.2915167" lon="14.1152867"><ele>213.8</ele><time>2026-05-01T15:20:38.948Z</time></trkpt><trkpt lat="42.291445" lon="14.1151767"><ele>213.2</ele><time>2026-05-01T15:20:39.949Z</time></trkpt><trkpt lat="42.29138" lon="14.1150633"><ele>212.6</ele><time>2026-05-01T15:20:40.949Z</time></trkpt><trkpt lat="42.291315" lon="14.1149467"><ele>212.0</ele><time>2026-05-01T15:20:41.948Z</time></trkpt><trkpt lat="42.2912517" lon="14.1148167"><ele>213.5</ele><time>2026-05-01T15:20:42.948Z</time></trkpt><trkpt lat="42.29119" lon="14.1146767"><ele>215.0</ele><time>2026-05-01T15:20:43.949Z</time></trkpt><trkpt lat="42.2911317" lon="14.1145267"><ele>216.5</ele><time>2026-05-01T15:20:44.949Z</time></trkpt><trkpt lat="42.2910583" lon="14.114375"><ele>218.0</ele><time>2026-05-01T15:20:45.949Z</time></trkpt><trkpt lat="42.2909767" lon="14.114225"><ele>217.0</ele><time>2026-05-01T15:20:46.949Z</time></trkpt><trkpt lat="42.2909017" lon="14.11406"><ele>216.0</ele><time>2026-05-01T15:20:47.948Z</time></trkpt><trkpt lat="42.2908167" lon="14.1138833"><ele>215.0</ele><time>2026-05-01T15:20:48.948Z</time></trkpt><trkpt lat="42.2907417" lon="14.1137083"><ele>214.0</ele><time>2026-05-01T15:20:49.949Z</time></trkpt><trkpt lat="42.2906683" lon="14.1135383"><ele>214.0</ele><time>2026-05-01T15:20:50.949Z</time></trkpt><trkpt lat="42.290595" lon="14.113375"><ele>214.0</ele><time>2026-05-01T15:20:51.949Z</time></trkpt><trkpt lat="42.2905383" lon="14.11321"><ele>214.0</ele><time>2026-05-01T15:20:52.949Z</time></trkpt><trkpt lat="42.2904883" lon="14.113045"><ele>214.0</ele><time>2026-05-01T15:20:53.949Z</time></trkpt><trkpt lat="42.2904433" lon="14.11287"><ele>215.25</ele><time>2026-05-01T15:20:54.949Z</time></trkpt><trkpt lat="42.2904017" lon="14.11269"><ele>216.5</ele><time>2026-05-01T15:20:55.948Z</time></trkpt><trkpt lat="42.29036" lon="14.1125183"><ele>217.75</ele><time>2026-05-01T15:20:56.949Z</time></trkpt><trkpt lat="42.2903267" lon="14.1123467"><ele>219.0</ele><time>2026-05-01T15:20:57.949Z</time></trkpt><trkpt lat="42.29029" lon="14.1121717"><ele>219.0</ele><time>2026-05-01T15:20:58.948Z</time></trkpt><trkpt lat="42.290255" lon="14.1120017"><ele>219.0</ele><time>2026-05-01T15:20:59.949Z</time></trkpt><trkpt lat="42.2902267" lon="14.1118383"><ele>219.0</ele><time>2026-05-01T15:21:00.949Z</time></trkpt><trkpt lat="42.2902" lon="14.1116817"><ele>219.0</ele><time>2026-05-01T15:21:01.949Z</time></trkpt><trkpt lat="42.2901767" lon="14.11152"><ele>217.25</ele><time>2026-05-01T15:21:02.948Z</time></trkpt><trkpt lat="42.2901567" lon="14.111365"><ele>215.5</ele><time>2026-05-01T15:21:03.948Z</time></trkpt><trkpt lat="42.2901483" lon="14.11122"><ele>213.75</ele><time>2026-05-01T15:21:04.948Z</time></trkpt><trkpt lat="42.29016" lon="14.1110717"><ele>212.0</ele><time>2026-05-01T15:21:05.948Z</time></trkpt><trkpt lat="42.2901867" lon="14.1109117"><ele>212.0</ele><time>2026-05-01T15:21:06.949Z</time></trkpt><trkpt lat="42.290225" lon="14.1107567"><ele>212.0</ele><time>2026-05-01T15:21:07.949Z</time></trkpt><trkpt lat="42.2902717" lon="14.110615"><ele>212.0</ele><time>2026-05-01T15:21:08.948Z</time></trkpt><trkpt lat="42.290325" lon="14.1104817"><ele>212.0</ele><time>2026-05-01T15:21:09.949Z</time></trkpt><trkpt lat="42.290395" lon="14.1103733"><ele>212.5</ele><time>2026-05-01T15:21:10.949Z</time></trkpt><trkpt lat="42.2904833" lon="14.1102783"><ele>213.0</ele><time>2026-05-01T15:21:11.948Z</time></trkpt><trkpt lat="42.2905883" lon="14.110195"><ele>213.5</ele><time>2026-05-01T15:21:12.949Z</time></trkpt><trkpt lat="42.2906983" lon="14.110105"><ele>214.0</ele><time>2026-05-01T15:21:13.948Z</time></trkpt><trkpt lat="42.2908167" lon="14.109995"><ele>212.25</ele><time>2026-05-01T15:21:14.949Z</time></trkpt><trkpt lat="42.29092" lon="14.10989"><ele>210.5</ele><time>2026-05-01T15:21:15.948Z</time></trkpt><trkpt lat="42.29102" lon="14.1097783"><ele>208.75</ele><time>2026-05-01T15:21:16.949Z</time></trkpt><trkpt lat="42.29112" lon="14.1096667"><ele>207.0</ele><time>2026-05-01T15:21:17.949Z</time></trkpt><trkpt lat="42.2912183" lon="14.1095517"><ele>207.0</ele><time>2026-05-01T15:21:18.948Z</time></trkpt><trkpt lat="42.291315" lon="14.10944"><ele>207.0</ele><time>2026-05-01T15:21:19.949Z</time></trkpt><trkpt lat="42.2914117" lon="14.10933"><ele>207.0</ele><time>2026-05-01T15:21:20.949Z</time></trkpt><trkpt lat="42.29152" lon="14.1092567"><ele>207.0</ele><time>2026-05-01T15:21:21.948Z</time></trkpt><trkpt lat="42.2916367" lon="14.1091867"><ele>211.25</ele><time>2026-05-01T15:21:22.949Z</time></trkpt><trkpt lat="42.2917483" lon="14.10911"><ele>215.5</ele><time>2026-05-01T15:21:23.948Z</time></trkpt><trkpt lat="42.2918583" lon="14.10904"><ele>219.75</ele><time>2026-05-01T15:21:24.949Z</time></trkpt><trkpt lat="42.291965" lon="14.1089567"><ele>224.0</ele><time>2026-05-01T15:21:25.948Z</time></trkpt><trkpt lat="42.2920683" lon="14.10887"><ele>223.5</ele><time>2026-05-01T15:21:26.949Z</time></trkpt><trkpt lat="42.2921617" lon="14.1087767"><ele>223.0</ele><time>2026-05-01T15:21:27.949Z</time></trkpt><trkpt lat="42.2922433" lon="14.1086767"><ele>222.5</ele><time>2026-05-01T15:21:28.949Z</time></trkpt><trkpt lat="42.2923233" lon="14.1085633"><ele>222.0</ele><time>2026-05-01T15:21:29.948Z</time></trkpt><trkpt lat="42.292395" lon="14.1084383"><ele>222.0</ele><time>2026-05-01T15:21:30.949Z</time></trkpt><trkpt lat="42.2924633" lon="14.1083033"><ele>222.0</ele><time>2026-05-01T15:21:31.949Z</time></trkpt><trkpt lat="42.2925183" lon="14.10814"><ele>222.0</ele><time>2026-05-01T15:21:32.949Z</time></trkpt><trkpt lat="42.2925883" lon="14.107985"><ele>222.0</ele><time>2026-05-01T15:21:33.949Z</time></trkpt><trkpt lat="42.292655" lon="14.1078367"><ele>223.25</ele><time>2026-05-01T15:21:34.948Z</time></trkpt><trkpt lat="42.2927117" lon="14.1076967"><ele>224.5</ele><time>2026-05-01T15:21:35.949Z</time></trkpt><trkpt lat="42.2927633" lon="14.107535"><ele>225.75</ele><time>2026-05-01T15:21:36.949Z</time></trkpt><trkpt lat="42.2928167" lon="14.1073767"><ele>227.0</ele><time>2026-05-01T15:21:37.948Z</time></trkpt><trkpt lat="42.2928817" lon="14.1072067"><ele>227.75</ele><time>2026-05-01T15:21:38.949Z</time></trkpt><trkpt lat="42.2929467" lon="14.1070367"><ele>228.5</ele><time>2026-05-01T15:21:39.949Z</time></trkpt><trkpt lat="42.293015" lon="14.1068717"><ele>229.25</ele><time>2026-05-01T15:21:40.949Z</time></trkpt><trkpt lat="42.29307" lon="14.1067033"><ele>230.0</ele><time>2026-05-01T15:21:41.949Z</time></trkpt><trkpt lat="42.29313" lon="14.1065383"><ele>225.66666666666669</ele><time>2026-05-01T15:21:42.949Z</time></trkpt><trkpt lat="42.2932033" lon="14.1063683"><ele>221.33333333333331</ele><time>2026-05-01T15:21:43.948Z</time></trkpt><trkpt lat="42.2932867" lon="14.106195"><ele>217.0</ele><time>2026-05-01T15:21:44.949Z</time></trkpt><trkpt lat="42.2933783" lon="14.1060217"><ele>217.0</ele><time>2026-05-01T15:21:45.949Z</time></trkpt><trkpt lat="42.2934817" lon="14.1058633"><ele>217.0</ele><time>2026-05-01T15:21:46.949Z</time></trkpt><trkpt lat="42.2935817" lon="14.1057033"><ele>217.0</ele><time>2026-05-01T15:21:47.948Z</time></trkpt><trkpt lat="42.2936883" lon="14.1055567"><ele>218.0</ele><time>2026-05-01T15:21:48.949Z</time></trkpt><trkpt lat="42.293795" lon="14.1054083"><ele>219.0</ele><time>2026-05-01T15:21:49.949Z</time></trkpt><trkpt lat="42.2938917" lon="14.105245"><ele>220.0</ele><time>2026-05-01T15:21:50.949Z</time></trkpt><trkpt lat="42.2939767" lon="14.1050833"><ele>217.25</ele><time>2026-05-01T15:21:51.949Z</time></trkpt><trkpt lat="42.29406" lon="14.1049217"><ele>214.5</ele><time>2026-05-01T15:21:52.949Z</time></trkpt><trkpt lat="42.29414" lon="14.10476"><ele>211.75</ele><time>2026-05-01T15:21:53.949Z</time></trkpt><trkpt lat="42.2942233" lon="14.1045983"><ele>209.0</ele><time>2026-05-01T15:21:54.949Z</time></trkpt><trkpt lat="42.2943117" lon="14.1044233"><ele>209.0</ele><time>2026-05-01T15:21:55.949Z</time></trkpt><trkpt lat="42.2943933" lon="14.1042583"><ele>209.0</ele><time>2026-05-01T15:21:56.948Z</time></trkpt><trkpt lat="42.294475" lon="14.1041033"><ele>209.0</ele><time>2026-05-01T15:21:57.949Z</time></trkpt><trkpt lat="42.2945567" lon="14.1039367"><ele>209.0</ele><time>2026-05-01T15:21:58.948Z</time></trkpt><trkpt lat="42.2946383" lon="14.103775"><ele>209.0</ele><time>2026-05-01T15:21:59.948Z</time></trkpt><trkpt lat="42.2947183" lon="14.103615"><ele>209.0</ele><time>2026-05-01T15:22:00.948Z</time></trkpt><trkpt lat="42.294795" lon="14.10345"><ele>209.0</ele><time>2026-05-01T15:22:01.949Z</time></trkpt><trkpt lat="42.2948683" lon="14.1032867"><ele>209.0</ele><time>2026-05-01T15:22:02.949Z</time></trkpt><trkpt lat="42.29494" lon="14.1031233"><ele>207.75</ele><time>2026-05-01T15:22:03.949Z</time></trkpt><trkpt lat="42.295015" lon="14.102965"><ele>206.5</ele><time>2026-05-01T15:22:04.949Z</time></trkpt><trkpt lat="42.2950967" lon="14.10282"><ele>205.25</ele><time>2026-05-01T15:22:05.949Z</time></trkpt><trkpt lat="42.2951867" lon="14.102665"><ele>204.0</ele><time>2026-05-01T15:22:06.949Z</time></trkpt><trkpt lat="42.2952733" lon="14.1025133"><ele>203.75</ele><time>2026-05-01T15:22:07.949Z</time></trkpt><trkpt lat="42.295365" lon="14.1023667"><ele>203.5</ele><time>2026-05-01T15:22:08.948Z</time></trkpt><trkpt lat="42.29547" lon="14.1022233"><ele>203.25</ele><time>2026-05-01T15:22:09.949Z</time></trkpt><trkpt lat="42.295575" lon="14.10208"><ele>203.0</ele><time>2026-05-01T15:22:10.949Z</time></trkpt><trkpt lat="42.2956817" lon="14.1019467"><ele>202.75</ele><time>2026-05-01T15:22:11.948Z</time></trkpt><trkpt lat="42.295785" lon="14.10182"><ele>202.5</ele><time>2026-05-01T15:22:12.949Z</time></trkpt><trkpt lat="42.295885" lon="14.1017033"><ele>202.25</ele><time>2026-05-01T15:22:13.949Z</time></trkpt><trkpt lat="42.29598" lon="14.10159"><ele>202.0</ele><time>2026-05-01T15:22:14.948Z</time></trkpt><trkpt lat="42.2960683" lon="14.1014667"><ele>202.75</ele><time>2026-05-01T15:22:15.949Z</time></trkpt><trkpt lat="42.2961567" lon="14.1013417"><ele>203.5</ele><time>2026-05-01T15:22:16.949Z</time></trkpt><trkpt lat="42.29625" lon="14.1012067"><ele>204.25</ele><time>2026-05-01T15:22:17.949Z</time></trkpt><trkpt lat="42.2963417" lon="14.101075"><ele>205.0</ele><time>2026-05-01T15:22:18.949Z</time></trkpt><trkpt lat="42.2964333" lon="14.10095"><ele>203.75</ele><time>2026-05-01T15:22:19.948Z</time></trkpt><trkpt lat="42.2965217" lon="14.1008233"><ele>202.5</ele><time>2026-05-01T15:22:20.948Z</time></trkpt><trkpt lat="42.296625" lon="14.1007133"><ele>201.25</ele><time>2026-05-01T15:22:21.948Z</time></trkpt><trkpt lat="42.2967367" lon="14.1006"><ele>200.0</ele><time>2026-05-01T15:22:22.948Z</time></trkpt><trkpt lat="42.29685" lon="14.100495"><ele>200.0</ele><time>2026-05-01T15:22:23.947Z</time></trkpt><trkpt lat="42.296965" lon="14.10038"><ele>200.0</ele><time>2026-05-01T15:22:24.948Z</time></trkpt><trkpt lat="42.297075" lon="14.10027"><ele>200.0</ele><time>2026-05-01T15:22:25.948Z</time></trkpt><trkpt lat="42.2971717" lon="14.100145"><ele>200.0</ele><time>2026-05-01T15:22:26.948Z</time></trkpt><trkpt lat="42.297265" lon="14.100015"><ele>196.0</ele><time>2026-05-01T15:22:27.948Z</time></trkpt><trkpt lat="42.2973567" lon="14.09988"><ele>192.0</ele><time>2026-05-01T15:22:28.948Z</time></trkpt><trkpt lat="42.2974367" lon="14.0997433"><ele>188.0</ele><time>2026-05-01T15:22:29.947Z</time></trkpt><trkpt lat="42.2975033" lon="14.0995867"><ele>184.0</ele><time>2026-05-01T15:22:30.948Z</time></trkpt><trkpt lat="42.2975583" lon="14.0994033"><ele>184.0</ele><time>2026-05-01T15:22:31.948Z</time></trkpt><trkpt lat="42.2976" lon="14.0992183"><ele>184.0</ele><time>2026-05-01T15:22:32.948Z</time></trkpt><trkpt lat="42.2976183" lon="14.099035"><ele>184.0</ele><time>2026-05-01T15:22:33.947Z</time></trkpt><trkpt lat="42.297625" lon="14.0988567"><ele>184.0</ele><time>2026-05-01T15:22:34.948Z</time></trkpt><trkpt lat="42.2976183" lon="14.0986783"><ele>183.2</ele><time>2026-05-01T15:22:35.948Z</time></trkpt><trkpt lat="42.297615" lon="14.0985167"><ele>182.39999999999998</ele><time>2026-05-01T15:22:36.948Z</time></trkpt><trkpt lat="42.2976133" lon="14.0983683"><ele>181.6</ele><time>2026-05-01T15:22:37.948Z</time></trkpt><trkpt lat="42.2976183" lon="14.0982333"><ele>180.8</ele><time>2026-05-01T15:22:38.948Z</time></trkpt><trkpt lat="42.2976217" lon="14.0981217"><ele>180.0</ele><time>2026-05-01T15:22:39.948Z</time></trkpt><trkpt lat="42.2976367" lon="14.098015"><ele>180.0</ele><time>2026-05-01T15:22:40.948Z</time></trkpt><trkpt lat="42.2976517" lon="14.0979167"><ele>180.0</ele><time>2026-05-01T15:22:41.948Z</time></trkpt><trkpt lat="42.297675" lon="14.0978183"><ele>180.0</ele><time>2026-05-01T15:22:42.948Z</time></trkpt><trkpt lat="42.297695" lon="14.0977367"><ele>180.0</ele><time>2026-05-01T15:22:43.947Z</time></trkpt><trkpt lat="42.29776" lon="14.0976417"><ele>180.0</ele><time>2026-05-01T15:22:45.947Z</time></trkpt><trkpt lat="42.2977883" lon="14.0977783"><ele>180.0</ele><time>2026-05-01T15:22:48.948Z</time></trkpt><trkpt lat="42.29779" lon="14.0978667"><ele>180.0</ele><time>2026-05-01T15:22:49.948Z</time></trkpt><trkpt lat="42.29782" lon="14.0979633"><ele>180.0</ele><time>2026-05-01T15:22:50.948Z</time></trkpt><trkpt lat="42.29788" lon="14.09805"><ele>180.0</ele><time>2026-05-01T15:22:51.948Z</time></trkpt><trkpt lat="42.297955" lon="14.0981017"><ele>180.0</ele><time>2026-05-01T15:22:52.948Z</time></trkpt><trkpt lat="42.2980367" lon="14.0981483"><ele>180.0</ele><time>2026-05-01T15:22:53.948Z</time></trkpt><trkpt lat="42.2981133" lon="14.0982067"><ele>180.0</ele><time>2026-05-01T15:22:54.948Z</time></trkpt><trkpt lat="42.2981817" lon="14.09827"><ele>176.66666666666666</ele><time>2026-05-01T15:22:55.947Z</time></trkpt><trkpt lat="42.2982383" lon="14.0983317"><ele>173.33333333333334</ele><time>2026-05-01T15:22:56.947Z</time></trkpt><trkpt lat="42.2982967" lon="14.098385"><ele>170.0</ele><time>2026-05-01T15:22:57.948Z</time></trkpt><trkpt lat="42.2983583" lon="14.0984417"><ele>166.66666666666669</ele><time>2026-05-01T15:22:58.948Z</time></trkpt><trkpt lat="42.2984217" lon="14.09849"><ele>163.33333333333334</ele><time>2026-05-01T15:22:59.947Z</time></trkpt><trkpt lat="42.2984933" lon="14.09854"><ele>160.0</ele><time>2026-05-01T15:23:00.948Z</time></trkpt><trkpt lat="42.2985667" lon="14.0985783"><ele>160.0</ele><time>2026-05-01T15:23:01.948Z</time></trkpt><trkpt lat="42.2986417" lon="14.098605"><ele>160.0</ele><time>2026-05-01T15:23:02.948Z</time></trkpt><trkpt lat="42.2987167" lon="14.09863"><ele>160.0</ele><time>2026-05-01T15:23:03.947Z</time></trkpt><trkpt lat="42.2988" lon="14.098645"><ele>160.0</ele><time>2026-05-01T15:23:04.948Z</time></trkpt><trkpt lat="42.2988867" lon="14.0986617"><ele>160.0</ele><time>2026-05-01T15:23:05.948Z</time></trkpt><trkpt lat="42.2989767" lon="14.0986833"><ele>160.0</ele><time>2026-05-01T15:23:06.948Z</time></trkpt><trkpt lat="42.2990683" lon="14.0987067"><ele>155.8</ele><time>2026-05-01T15:23:07.948Z</time></trkpt><trkpt lat="42.2991683" lon="14.09873"><ele>151.6</ele><time>2026-05-01T15:23:08.948Z</time></trkpt><trkpt lat="42.2992617" lon="14.098755"><ele>147.4</ele><time>2026-05-01T15:23:09.947Z</time></trkpt><trkpt lat="42.2993567" lon="14.0987767"><ele>143.2</ele><time>2026-05-01T15:23:10.948Z</time></trkpt><trkpt lat="42.299455" lon="14.09878"><ele>139.0</ele><time>2026-05-01T15:23:11.948Z</time></trkpt><trkpt lat="42.2995533" lon="14.09877"><ele>139.0</ele><time>2026-05-01T15:23:12.947Z</time></trkpt><trkpt lat="42.2996483" lon="14.0987567"><ele>139.0</ele><time>2026-05-01T15:23:13.947Z</time></trkpt><trkpt lat="42.29974" lon="14.098735"><ele>139.0</ele><time>2026-05-01T15:23:14.947Z</time></trkpt><trkpt lat="42.299835" lon="14.0987183"><ele>139.0</ele><time>2026-05-01T15:23:15.947Z</time></trkpt><trkpt lat="42.2999317" lon="14.0986883"><ele>139.0</ele><time>2026-05-01T15:23:16.948Z</time></trkpt><trkpt lat="42.3000267" lon="14.098665"><ele>136.4</ele><time>2026-05-01T15:23:17.947Z</time></trkpt><trkpt lat="42.3001233" lon="14.098625"><ele>133.8</ele><time>2026-05-01T15:23:18.948Z</time></trkpt><trkpt lat="42.30022" lon="14.0985783"><ele>131.2</ele><time>2026-05-01T15:23:19.948Z</time></trkpt><trkpt lat="42.3003133" lon="14.0985167"><ele>128.6</ele><time>2026-05-01T15:23:20.947Z</time></trkpt><trkpt lat="42.3004067" lon="14.09844"><ele>126.0</ele><time>2026-05-01T15:23:21.947Z</time></trkpt><trkpt lat="42.3004983" lon="14.0983617"><ele>126.0</ele><time>2026-05-01T15:23:22.948Z</time></trkpt><trkpt lat="42.3005817" lon="14.09827"><ele>126.0</ele><time>2026-05-01T15:23:23.947Z</time></trkpt><trkpt lat="42.3006667" lon="14.0981717"><ele>126.0</ele><time>2026-05-01T15:23:24.948Z</time></trkpt><trkpt lat="42.3007433" lon="14.0980833"><ele>126.0</ele><time>2026-05-01T15:23:25.947Z</time></trkpt><trkpt lat="42.3008217" lon="14.0980167"><ele>126.0</ele><time>2026-05-01T15:23:26.948Z</time></trkpt><trkpt lat="42.300905" lon="14.097955"><ele>123.0</ele><time>2026-05-01T15:23:27.948Z</time></trkpt><trkpt lat="42.3009983" lon="14.0979067"><ele>120.0</ele><time>2026-05-01T15:23:28.947Z</time></trkpt><trkpt lat="42.3010967" lon="14.097865"><ele>117.0</ele><time>2026-05-01T15:23:29.948Z</time></trkpt><trkpt lat="42.3011933" lon="14.0978333"><ele>114.0</ele><time>2026-05-01T15:23:30.947Z</time></trkpt><trkpt lat="42.30129" lon="14.0978133"><ele>111.0</ele><time>2026-05-01T15:23:31.947Z</time></trkpt><trkpt lat="42.3013817" lon="14.0978"><ele>110.0</ele><time>2026-05-01T15:23:32.948Z</time></trkpt><trkpt lat="42.301465" lon="14.0978017"><ele>109.0</ele><time>2026-05-01T15:23:33.947Z</time></trkpt><trkpt lat="42.3015367" lon="14.0978133"><ele>108.0</ele><time>2026-05-01T15:23:34.947Z</time></trkpt><trkpt lat="42.3016333" lon="14.0977833"><ele>107.0</ele><time>2026-05-01T15:23:36.947Z</time></trkpt><trkpt lat="42.3016833" lon="14.09765"><ele>106.0</ele><time>2026-05-01T15:23:38.948Z</time></trkpt><trkpt lat="42.30169" lon="14.0975283"><ele>105.8</ele><time>2026-05-01T15:23:39.947Z</time></trkpt><trkpt lat="42.301705" lon="14.0973883"><ele>105.6</ele><time>2026-05-01T15:23:40.947Z</time></trkpt><trkpt lat="42.3017317" lon="14.0972433"><ele>105.4</ele><time>2026-05-01T15:23:41.948Z</time></trkpt><trkpt lat="42.3017517" lon="14.0970967"><ele>105.2</ele><time>2026-05-01T15:23:42.948Z</time></trkpt><trkpt lat="42.3017717" lon="14.09695"><ele>105.0</ele><time>2026-05-01T15:23:43.948Z</time></trkpt><trkpt lat="42.3017967" lon="14.0967867"><ele>105.0</ele><time>2026-05-01T15:23:44.947Z</time></trkpt><trkpt lat="42.3018217" lon="14.0966183"><ele>105.0</ele><time>2026-05-01T15:23:45.948Z</time></trkpt><trkpt lat="42.30185" lon="14.09644"><ele>105.0</ele><time>2026-05-01T15:23:46.947Z</time></trkpt><trkpt lat="42.3018783" lon="14.0962483"><ele>105.0</ele><time>2026-05-01T15:23:47.948Z</time></trkpt><trkpt lat="42.3019083" lon="14.0960517"><ele>105.25</ele><time>2026-05-01T15:23:48.948Z</time></trkpt><trkpt lat="42.3019333" lon="14.095855"><ele>105.5</ele><time>2026-05-01T15:23:49.948Z</time></trkpt><trkpt lat="42.301955" lon="14.0956633"><ele>105.75</ele><time>2026-05-01T15:23:50.948Z</time></trkpt><trkpt lat="42.3019717" lon="14.0954833"><ele>106.0</ele><time>2026-05-01T15:23:51.948Z</time></trkpt><trkpt lat="42.3019933" lon="14.0953067"><ele>106.0</ele><time>2026-05-01T15:23:52.948Z</time></trkpt><trkpt lat="42.3020167" lon="14.0951317"><ele>106.0</ele><time>2026-05-01T15:23:53.948Z</time></trkpt><trkpt lat="42.30204" lon="14.09497"><ele>106.0</ele><time>2026-05-01T15:23:54.947Z</time></trkpt><trkpt lat="42.30206" lon="14.0948183"><ele>106.0</ele><time>2026-05-01T15:23:55.948Z</time></trkpt><trkpt lat="42.3020583" lon="14.0946967"><ele>106.0</ele><time>2026-05-01T15:23:56.948Z</time></trkpt><trkpt lat="42.3020417" lon="14.09456"><ele>106.0</ele><time>2026-05-01T15:23:57.948Z</time></trkpt><trkpt lat="42.3020017" lon="14.09442"><ele>106.0</ele><time>2026-05-01T15:23:58.948Z</time></trkpt><trkpt lat="42.30198" lon="14.0942733"><ele>106.0</ele><time>2026-05-01T15:23:59.947Z</time></trkpt><trkpt lat="42.3019583" lon="14.0941383"><ele>106.0</ele><time>2026-05-01T15:24:00.948Z</time></trkpt><trkpt lat="42.3019283" lon="14.0940067"><ele>106.0</ele><time>2026-05-01T15:24:01.948Z</time></trkpt><trkpt lat="42.30187" lon="14.0938733"><ele>106.0</ele><time>2026-05-01T15:24:02.948Z</time></trkpt><trkpt lat="42.301795" lon="14.0937517"><ele>106.0</ele><time>2026-05-01T15:24:03.948Z</time></trkpt><trkpt lat="42.3017217" lon="14.0936517"><ele>106.0</ele><time>2026-05-01T15:24:04.948Z</time></trkpt><trkpt lat="42.30167" lon="14.0935683"><ele>106.0</ele><time>2026-05-01T15:24:05.948Z</time></trkpt><trkpt lat="42.3016517" lon="14.09348"><ele>106.0</ele><time>2026-05-01T15:24:06.947Z</time></trkpt><trkpt lat="42.3016767" lon="14.09339"><ele>106.0</ele><time>2026-05-01T15:24:07.948Z</time></trkpt><trkpt lat="42.3017433" lon="14.0933217"><ele>106.0</ele><time>2026-05-01T15:24:08.947Z</time></trkpt><trkpt lat="42.3018417" lon="14.0932683"><ele>106.0</ele><time>2026-05-01T15:24:09.948Z</time></trkpt><trkpt lat="42.301965" lon="14.0932117"><ele>106.0</ele><time>2026-05-01T15:24:10.948Z</time></trkpt><trkpt lat="42.3021" lon="14.0931467"><ele>109.0</ele><time>2026-05-01T15:24:11.947Z</time></trkpt><trkpt lat="42.3022483" lon="14.0930667"><ele>112.0</ele><time>2026-05-01T15:24:12.948Z</time></trkpt><trkpt lat="42.3023967" lon="14.0929933"><ele>115.0</ele><time>2026-05-01T15:24:13.948Z</time></trkpt><trkpt lat="42.30253" lon="14.0929233"><ele>115.0</ele><time>2026-05-01T15:24:14.948Z</time></trkpt><trkpt lat="42.3026433" lon="14.0928583"><ele>115.0</ele><time>2026-05-01T15:24:15.948Z</time></trkpt><trkpt lat="42.3027383" lon="14.0928017"><ele>115.0</ele><time>2026-05-01T15:24:16.947Z</time></trkpt><trkpt lat="42.302825" lon="14.09274"><ele>115.0</ele><time>2026-05-01T15:24:17.948Z</time></trkpt><trkpt lat="42.302915" lon="14.0926667"><ele>115.0</ele><time>2026-05-01T15:24:18.948Z</time></trkpt><trkpt lat="42.3030033" lon="14.0925517"><ele>114.0</ele><time>2026-05-01T15:24:19.947Z</time></trkpt><trkpt lat="42.3030967" lon="14.0924217"><ele>113.0</ele><time>2026-05-01T15:24:20.947Z</time></trkpt><trkpt lat="42.3031833" lon="14.0922933"><ele>112.0</ele><time>2026-05-01T15:24:21.948Z</time></trkpt><trkpt lat="42.3032683" lon="14.092175"><ele>111.0</ele><time>2026-05-01T15:24:22.948Z</time></trkpt><trkpt lat="42.3033517" lon="14.0920683"><ele>111.0</ele><time>2026-05-01T15:24:23.948Z</time></trkpt><trkpt lat="42.3034367" lon="14.09197"><ele>111.0</ele><time>2026-05-01T15:24:24.948Z</time></trkpt><trkpt lat="42.3035283" lon="14.09188"><ele>111.0</ele><time>2026-05-01T15:24:25.948Z</time></trkpt><trkpt lat="42.3036183" lon="14.0918083"><ele>111.0</ele><time>2026-05-01T15:24:26.948Z</time></trkpt><trkpt lat="42.3037167" lon="14.0917417"><ele>111.0</ele><time>2026-05-01T15:24:27.948Z</time></trkpt><trkpt lat="42.303825" lon="14.0916833"><ele>111.25</ele><time>2026-05-01T15:24:28.948Z</time></trkpt><trkpt lat="42.3039333" lon="14.0916233"><ele>111.5</ele><time>2026-05-01T15:24:29.947Z</time></trkpt><trkpt lat="42.3040483" lon="14.0915583"><ele>111.75</ele><time>2026-05-01T15:24:30.947Z</time></trkpt><trkpt lat="42.3041667" lon="14.0914967"><ele>112.0</ele><time>2026-05-01T15:24:31.948Z</time></trkpt><trkpt lat="42.3042867" lon="14.0914333"><ele>112.0</ele><time>2026-05-01T15:24:32.948Z</time></trkpt><trkpt lat="42.3044033" lon="14.0913717"><ele>112.0</ele><time>2026-05-01T15:24:33.947Z</time></trkpt><trkpt lat="42.30452" lon="14.0913083"><ele>112.0</ele><time>2026-05-01T15:24:34.948Z</time></trkpt><trkpt lat="42.304635" lon="14.0912433"><ele>112.0</ele><time>2026-05-01T15:24:35.948Z</time></trkpt><trkpt lat="42.3047517" lon="14.0911733"><ele>109.0</ele><time>2026-05-01T15:24:36.948Z</time></trkpt><trkpt lat="42.3048717" lon="14.0911"><ele>106.0</ele><time>2026-05-01T15:24:37.948Z</time></trkpt><trkpt lat="42.3049867" lon="14.0910333"><ele>103.0</ele><time>2026-05-01T15:24:38.948Z</time></trkpt><trkpt lat="42.3051033" lon="14.090965"><ele>100.0</ele><time>2026-05-01T15:24:39.947Z</time></trkpt><trkpt lat="42.3052133" lon="14.0908933"><ele>100.0</ele><time>2026-05-01T15:24:40.948Z</time></trkpt><trkpt lat="42.3053167" lon="14.090825"><ele>100.0</ele><time>2026-05-01T15:24:41.948Z</time></trkpt><trkpt lat="42.3055317" lon="14.0906967"><ele>100.0</ele><time>2026-05-01T15:24:43.948Z</time></trkpt><trkpt lat="42.3056417" lon="14.0906333"><ele>99.0</ele><time>2026-05-01T15:24:44.947Z</time></trkpt><trkpt lat="42.3057483" lon="14.0905517"><ele>98.0</ele><time>2026-05-01T15:24:45.947Z</time></trkpt><trkpt lat="42.30585" lon="14.090475"><ele>97.0</ele><time>2026-05-01T15:24:46.948Z</time></trkpt><trkpt lat="42.305965" lon="14.09038"><ele>96.0</ele><time>2026-05-01T15:24:47.948Z</time></trkpt><trkpt lat="42.3060783" lon="14.0902967"><ele>96.0</ele><time>2026-05-01T15:24:48.948Z</time></trkpt><trkpt lat="42.30619" lon="14.0902017"><ele>96.0</ele><time>2026-05-01T15:24:49.948Z</time></trkpt><trkpt lat="42.306275" lon="14.0901"><ele>96.0</ele><time>2026-05-01T15:24:50.948Z</time></trkpt><trkpt lat="42.306355" lon="14.0899733"><ele>96.0</ele><time>2026-05-01T15:24:51.948Z</time></trkpt><trkpt lat="42.3064267" lon="14.08982"><ele>95.4</ele><time>2026-05-01T15:24:52.948Z</time></trkpt><trkpt lat="42.306485" lon="14.0896667"><ele>94.8</ele><time>2026-05-01T15:24:53.947Z</time></trkpt><trkpt lat="42.30654" lon="14.08955"><ele>94.2</ele><time>2026-05-01T15:24:54.948Z</time></trkpt><trkpt lat="42.306595" lon="14.0894533"><ele>93.60000000000001</ele><time>2026-05-01T15:24:55.948Z</time></trkpt><trkpt lat="42.3066567" lon="14.0893917"><ele>93.0</ele><time>2026-05-01T15:24:56.947Z</time></trkpt><trkpt lat="42.306735" lon="14.0893683"><ele>93.0</ele><time>2026-05-01T15:24:57.948Z</time></trkpt><trkpt lat="42.3068183" lon="14.0893817"><ele>93.0</ele><time>2026-05-01T15:24:58.948Z</time></trkpt><trkpt lat="42.3069083" lon="14.0894233"><ele>93.0</ele><time>2026-05-01T15:24:59.948Z</time></trkpt><trkpt lat="42.3070017" lon="14.0894767"><ele>93.0</ele><time>2026-05-01T15:25:00.948Z</time></trkpt><trkpt lat="42.3071017" lon="14.0895333"><ele>93.0</ele><time>2026-05-01T15:25:01.947Z</time></trkpt><trkpt lat="42.307195" lon="14.089595"><ele>92.85714285714286</ele><time>2026-05-01T15:25:02.948Z</time></trkpt><trkpt lat="42.3072867" lon="14.089625"><ele>92.71428571428572</ele><time>2026-05-01T15:25:03.947Z</time></trkpt><trkpt lat="42.3073633" lon="14.089635"><ele>92.57142857142858</ele><time>2026-05-01T15:25:04.948Z</time></trkpt><trkpt lat="42.3074383" lon="14.0896267"><ele>92.42857142857143</ele><time>2026-05-01T15:25:05.948Z</time></trkpt><trkpt lat="42.307505" lon="14.0896333"><ele>92.28571428571428</ele><time>2026-05-01T15:25:06.948Z</time></trkpt><trkpt lat="42.3075733" lon="14.0896517"><ele>92.14285714285715</ele><time>2026-05-01T15:25:07.948Z</time></trkpt><trkpt lat="42.3076367" lon="14.0896767"><ele>92.0</ele><time>2026-05-01T15:25:08.947Z</time></trkpt><trkpt lat="42.3077117" lon="14.0897117"><ele>92.0</ele><time>2026-05-01T15:25:09.948Z</time></trkpt><trkpt lat="42.3078067" lon="14.0897367"><ele>92.0</ele><time>2026-05-01T15:25:10.947Z</time></trkpt><trkpt lat="42.307905" lon="14.0897683"><ele>92.0</ele><time>2026-05-01T15:25:11.948Z</time></trkpt><trkpt lat="42.3079967" lon="14.0898033"><ele>92.0</ele><time>2026-05-01T15:25:12.948Z</time></trkpt><trkpt lat="42.3080983" lon="14.0898317"><ele>92.0</ele><time>2026-05-01T15:25:13.948Z</time></trkpt><trkpt lat="42.3081983" lon="14.0898617"><ele>91.16666666666667</ele><time>2026-05-01T15:25:14.948Z</time></trkpt><trkpt lat="42.30829" lon="14.089885"><ele>90.33333333333334</ele><time>2026-05-01T15:25:15.948Z</time></trkpt><trkpt lat="42.3083817" lon="14.0899083"><ele>89.5</ele><time>2026-05-01T15:25:16.947Z</time></trkpt><trkpt lat="42.3084733" lon="14.0899367"><ele>88.66666666666667</ele><time>2026-05-01T15:25:17.948Z</time></trkpt><trkpt lat="42.3085517" lon="14.0899633"><ele>87.83333333333333</ele><time>2026-05-01T15:25:18.948Z</time></trkpt><trkpt lat="42.3086283" lon="14.0899867"><ele>87.0</ele><time>2026-05-01T15:25:19.948Z</time></trkpt><trkpt lat="42.3087033" lon="14.0900167"><ele>86.16666666666667</ele><time>2026-05-01T15:25:20.948Z</time></trkpt><trkpt lat="42.3087667" lon="14.0900383"><ele>85.33333333333333</ele><time>2026-05-01T15:25:21.948Z</time></trkpt><trkpt lat="42.30886" lon="14.0900817"><ele>84.5</ele><time>2026-05-01T15:25:35.947Z</time></trkpt><trkpt lat="42.3089333" lon="14.0901117"><ele>83.66666666666666</ele><time>2026-05-01T15:25:40.947Z</time></trkpt><trkpt lat="42.3090133" lon="14.0901"><ele>82.83333333333333</ele><time>2026-05-01T15:25:43.946Z</time></trkpt><trkpt lat="42.309085" lon="14.0901483"><ele>82.0</ele><time>2026-05-01T15:25:46.946Z</time></trkpt><trkpt lat="42.3091467" lon="14.0902333"><ele>81.33333333333333</ele><time>2026-05-01T15:25:48.946Z</time></trkpt><trkpt lat="42.3092" lon="14.090325"><ele>80.66666666666666</ele><time>2026-05-01T15:25:50.947Z</time></trkpt><trkpt lat="42.309225" lon="14.090445"><ele>80.0</ele><time>2026-05-01T15:25:52.947Z</time></trkpt><trkpt lat="42.3092467" lon="14.09058"><ele>79.33333333333333</ele><time>2026-05-01T15:25:54.947Z</time></trkpt><trkpt lat="42.3092617" lon="14.0906633"><ele>78.66666666666667</ele><time>2026-05-01T15:25:55.947Z</time></trkpt><trkpt lat="42.3092933" lon="14.090795"><ele>78.0</ele><time>2026-05-01T15:25:57.947Z</time></trkpt><trkpt lat="42.309355" lon="14.0908933"><ele>77.6</ele><time>2026-05-01T15:25:59.946Z</time></trkpt><trkpt lat="42.3094267" lon="14.0909467"><ele>77.19999999999999</ele><time>2026-05-01T15:26:01.946Z</time></trkpt><trkpt lat="42.309505" lon="14.0910133"><ele>76.8</ele><time>2026-05-01T15:26:03.947Z</time></trkpt><trkpt lat="42.3095867" lon="14.091105"><ele>76.39999999999999</ele><time>2026-05-01T15:26:05.947Z</time></trkpt><trkpt lat="42.3096667" lon="14.0912117"><ele>76.0</ele><time>2026-05-01T15:26:07.947Z</time></trkpt><trkpt lat="42.3097183" lon="14.0912833"><ele>76.83333333333333</ele><time>2026-05-01T15:26:08.946Z</time></trkpt><trkpt lat="42.309775" lon="14.091355"><ele>77.66666666666666</ele><time>2026-05-01T15:26:09.947Z</time></trkpt><trkpt lat="42.30983" lon="14.0914267"><ele>78.5</ele><time>2026-05-01T15:26:10.947Z</time></trkpt><trkpt lat="42.3098767" lon="14.0914933"><ele>79.33333333333333</ele><time>2026-05-01T15:26:11.947Z</time></trkpt><trkpt lat="42.3099567" lon="14.0916333"><ele>80.16666666666667</ele><time>2026-05-01T15:26:13.947Z</time></trkpt><trkpt lat="42.309995" lon="14.0917067"><ele>81.0</ele><time>2026-05-01T15:26:14.946Z</time></trkpt><trkpt lat="42.310035" lon="14.0917817"><ele>81.83333333333333</ele><time>2026-05-01T15:26:15.946Z</time></trkpt><trkpt lat="42.310075" lon="14.0918533"><ele>82.66666666666667</ele><time>2026-05-01T15:26:16.947Z</time></trkpt><trkpt lat="42.3101167" lon="14.0919283"><ele>83.5</ele><time>2026-05-01T15:26:17.947Z</time></trkpt><trkpt lat="42.3101617" lon="14.09201"><ele>84.33333333333334</ele><time>2026-05-01T15:26:18.946Z</time></trkpt><trkpt lat="42.3102167" lon="14.0921"><ele>85.16666666666667</ele><time>2026-05-01T15:26:19.947Z</time></trkpt><trkpt lat="42.3102733" lon="14.092185"><ele>86.0</ele><time>2026-05-01T15:26:20.947Z</time></trkpt><trkpt lat="42.3103267" lon="14.0922617"><ele>86.0</ele><time>2026-05-01T15:26:21.947Z</time></trkpt><trkpt lat="42.310375" lon="14.0923233"><ele>86.0</ele><time>2026-05-01T15:26:22.947Z</time></trkpt><trkpt lat="42.310415" lon="14.092405"><ele>86.0</ele><time>2026-05-01T15:26:23.947Z</time></trkpt><trkpt lat="42.3104567" lon="14.0924933"><ele>86.0</ele><time>2026-05-01T15:26:24.946Z</time></trkpt><trkpt lat="42.3105067" lon="14.0925783"><ele>86.0</ele><time>2026-05-01T15:26:25.947Z</time></trkpt><trkpt lat="42.310565" lon="14.0926667"><ele>86.0</ele><time>2026-05-01T15:26:26.947Z</time></trkpt><trkpt lat="42.31062" lon="14.09275"><ele>87.0</ele><time>2026-05-01T15:26:27.946Z</time></trkpt><trkpt lat="42.31067" lon="14.09283"><ele>88.0</ele><time>2026-05-01T15:26:28.947Z</time></trkpt><trkpt lat="42.3107167" lon="14.0929083"><ele>89.0</ele><time>2026-05-01T15:26:29.947Z</time></trkpt><trkpt lat="42.31077" lon="14.09299"><ele>90.0</ele><time>2026-05-01T15:26:30.946Z</time></trkpt><trkpt lat="42.3108217" lon="14.0930667"><ele>91.0</ele><time>2026-05-01T15:26:31.947Z</time></trkpt><trkpt lat="42.3108733" lon="14.0931433"><ele>92.0</ele><time>2026-05-01T15:26:32.946Z</time></trkpt><trkpt lat="42.31092" lon="14.093215"><ele>93.0</ele><time>2026-05-01T15:26:33.947Z</time></trkpt><trkpt lat="42.3109633" lon="14.0932867"><ele>94.0</ele><time>2026-05-01T15:26:34.947Z</time></trkpt><trkpt lat="42.3110083" lon="14.0933533"><ele>95.0</ele><time>2026-05-01T15:26:35.946Z</time></trkpt><trkpt lat="42.3110967" lon="14.0934717"><ele>96.0</ele><time>2026-05-01T15:26:37.947Z</time></trkpt><trkpt lat="42.3111817" lon="14.0936183"><ele>97.0</ele><time>2026-05-01T15:26:39.947Z</time></trkpt><trkpt lat="42.3112283" lon="14.0937"><ele>97.00000000000001</ele><time>2026-05-01T15:26:40.946Z</time></trkpt><trkpt lat="42.3112767" lon="14.0937667"><ele>97.0</ele><time>2026-05-01T15:26:41.946Z</time></trkpt><trkpt lat="42.3113217" lon="14.0938283"><ele>97.0</ele><time>2026-05-01T15:26:42.947Z</time></trkpt><trkpt lat="42.3113933" lon="14.0939033"><ele>97.0</ele><time>2026-05-01T15:26:44.947Z</time></trkpt><trkpt lat="42.3114683" lon="14.0938433"><ele>97.00000000000001</ele><time>2026-05-01T15:26:47.947Z</time></trkpt><trkpt lat="42.3115" lon="14.0937133"><ele>97.0</ele><time>2026-05-01T15:26:49.946Z</time></trkpt><trkpt lat="42.31153" lon="14.0936267"><ele>96.83333333333334</ele><time>2026-05-01T15:26:50.947Z</time></trkpt><trkpt lat="42.31157" lon="14.09353"><ele>96.66666666666667</ele><time>2026-05-01T15:26:51.946Z</time></trkpt><trkpt lat="42.3116167" lon="14.0934317"><ele>96.5</ele><time>2026-05-01T15:26:52.946Z</time></trkpt><trkpt lat="42.3116667" lon="14.09333"><ele>96.33333333333334</ele><time>2026-05-01T15:26:53.947Z</time></trkpt><trkpt lat="42.31172" lon="14.09323"><ele>96.16666666666667</ele><time>2026-05-01T15:26:54.946Z</time></trkpt><trkpt lat="42.3117817" lon="14.093135"><ele>96.0</ele><time>2026-05-01T15:26:55.946Z</time></trkpt><trkpt lat="42.3118383" lon="14.0930417"><ele>95.19999999999999</ele><time>2026-05-01T15:26:56.947Z</time></trkpt><trkpt lat="42.3118967" lon="14.09294"><ele>94.39999999999999</ele><time>2026-05-01T15:26:57.947Z</time></trkpt><trkpt lat="42.3119567" lon="14.0928383"><ele>93.6</ele><time>2026-05-01T15:26:58.946Z</time></trkpt><trkpt lat="42.31201" lon="14.09274"><ele>92.8</ele><time>2026-05-01T15:26:59.947Z</time></trkpt><trkpt lat="42.312065" lon="14.0926367"><ele>92.0</ele><time>2026-05-01T15:27:00.946Z</time></trkpt><trkpt lat="42.3121217" lon="14.0925333"><ele>92.0</ele><time>2026-05-01T15:27:01.947Z</time></trkpt><trkpt lat="42.3121683" lon="14.0924317"><ele>92.0</ele><time>2026-05-01T15:27:02.946Z</time></trkpt><trkpt lat="42.3122217" lon="14.09233"><ele>92.0</ele><time>2026-05-01T15:27:03.947Z</time></trkpt><trkpt lat="42.3122783" lon="14.0922283"><ele>92.0</ele><time>2026-05-01T15:27:04.947Z</time></trkpt><trkpt lat="42.3123283" lon="14.0921617"><ele>92.0</ele><time>2026-05-01T15:27:05.946Z</time></trkpt><trkpt lat="42.3123817" lon="14.0920783"><ele>92.0</ele><time>2026-05-01T15:27:06.947Z</time></trkpt><trkpt lat="42.3124433" lon="14.092005"><ele>92.39999999999999</ele><time>2026-05-01T15:27:07.946Z</time></trkpt><trkpt lat="42.312515" lon="14.0919367"><ele>92.8</ele><time>2026-05-01T15:27:08.947Z</time></trkpt><trkpt lat="42.3125917" lon="14.091875"><ele>93.2</ele><time>2026-05-01T15:27:09.947Z</time></trkpt><trkpt lat="42.3126717" lon="14.0918083"><ele>93.6</ele><time>2026-05-01T15:27:10.947Z</time></trkpt><trkpt lat="42.3127567" lon="14.0917417"><ele>94.0</ele><time>2026-05-01T15:27:11.946Z</time></trkpt><trkpt lat="42.3128333" lon="14.0916667"><ele>94.0</ele><time>2026-05-01T15:27:12.947Z</time></trkpt><trkpt lat="42.3129033" lon="14.0915933"><ele>94.0</ele><time>2026-05-01T15:27:13.946Z</time></trkpt><trkpt lat="42.3129617" lon="14.091495"><ele>94.0</ele><time>2026-05-01T15:27:14.947Z</time></trkpt><trkpt lat="42.313015" lon="14.0913967"><ele>94.0</ele><time>2026-05-01T15:27:15.947Z</time></trkpt><trkpt lat="42.3130417" lon="14.091265"><ele>94.0</ele><time>2026-05-01T15:27:16.947Z</time></trkpt><trkpt lat="42.3130717" lon="14.0910933"><ele>94.0</ele><time>2026-05-01T15:27:17.947Z</time></trkpt><trkpt lat="42.3131067" lon="14.0909117"><ele>94.0</ele><time>2026-05-01T15:27:18.947Z</time></trkpt><trkpt lat="42.3131417" lon="14.0907283"><ele>94.0</ele><time>2026-05-01T15:27:19.946Z</time></trkpt><trkpt lat="42.3131733" lon="14.0905417"><ele>94.0</ele><time>2026-05-01T15:27:20.946Z</time></trkpt><trkpt lat="42.3131983" lon="14.0903717"><ele>94.0</ele><time>2026-05-01T15:27:21.947Z</time></trkpt><trkpt lat="42.3132167" lon="14.09021"><ele>94.0</ele><time>2026-05-01T15:27:22.947Z</time></trkpt><trkpt lat="42.3132317" lon="14.0900533"><ele>94.0</ele><time>2026-05-01T15:27:23.946Z</time></trkpt><trkpt lat="42.313255" lon="14.089895"><ele>94.0</ele><time>2026-05-01T15:27:24.947Z</time></trkpt><trkpt lat="42.3132817" lon="14.0897283"><ele>93.5</ele><time>2026-05-01T15:27:25.947Z</time></trkpt><trkpt lat="42.3133117" lon="14.0895667"><ele>93.0</ele><time>2026-05-01T15:27:26.947Z</time></trkpt><trkpt lat="42.3133517" lon="14.089405"><ele>92.5</ele><time>2026-05-01T15:27:27.946Z</time></trkpt><trkpt lat="42.3134017" lon="14.0892533"><ele>92.0</ele><time>2026-05-01T15:27:28.947Z</time></trkpt><trkpt lat="42.3134533" lon="14.0891033"><ele>91.5</ele><time>2026-05-01T15:27:29.947Z</time></trkpt><trkpt lat="42.3135" lon="14.0889483"><ele>91.0</ele><time>2026-05-01T15:27:30.947Z</time></trkpt><trkpt lat="42.3135433" lon="14.0888083"><ele>90.5</ele><time>2026-05-01T15:27:31.947Z</time></trkpt><trkpt lat="42.3135883" lon="14.0886783"><ele>90.0</ele><time>2026-05-01T15:27:32.947Z</time></trkpt><trkpt lat="42.3136433" lon="14.0885483"><ele>90.0</ele><time>2026-05-01T15:27:33.947Z</time></trkpt><trkpt lat="42.3137167" lon="14.088415"><ele>90.0</ele><time>2026-05-01T15:27:34.947Z</time></trkpt><trkpt lat="42.3138083" lon="14.08828"><ele>90.0</ele><time>2026-05-01T15:27:35.947Z</time></trkpt><trkpt lat="42.3139067" lon="14.0881467"><ele>90.0</ele><time>2026-05-01T15:27:36.946Z</time></trkpt><trkpt lat="42.3139983" lon="14.0880233"><ele>88.5</ele><time>2026-05-01T15:27:37.947Z</time></trkpt><trkpt lat="42.3140817" lon="14.08791"><ele>87.0</ele><time>2026-05-01T15:27:38.946Z</time></trkpt><trkpt lat="42.3141733" lon="14.0877917"><ele>85.5</ele><time>2026-05-01T15:27:39.946Z</time></trkpt><trkpt lat="42.31426" lon="14.08768"><ele>84.0</ele><time>2026-05-01T15:27:40.947Z</time></trkpt><trkpt lat="42.3143483" lon="14.08756"><ele>84.0</ele><time>2026-05-01T15:27:41.946Z</time></trkpt><trkpt lat="42.3144367" lon="14.0874417"><ele>84.0</ele><time>2026-05-01T15:27:42.947Z</time></trkpt><trkpt lat="42.31453" lon="14.087325"><ele>84.0</ele><time>2026-05-01T15:27:43.947Z</time></trkpt><trkpt lat="42.3146183" lon="14.0872167"><ele>84.0</ele><time>2026-05-01T15:27:44.946Z</time></trkpt><trkpt lat="42.31471" lon="14.0871083"><ele>83.0</ele><time>2026-05-01T15:27:45.946Z</time></trkpt><trkpt lat="42.3147967" lon="14.0870283"><ele>82.0</ele><time>2026-05-01T15:27:46.947Z</time></trkpt><trkpt lat="42.314885" lon="14.086955"><ele>81.0</ele><time>2026-05-01T15:27:47.947Z</time></trkpt><trkpt lat="42.3149717" lon="14.0868867"><ele>80.0</ele><time>2026-05-01T15:27:48.947Z</time></trkpt><trkpt lat="42.3150583" lon="14.086825"><ele>79.0</ele><time>2026-05-01T15:27:49.947Z</time></trkpt><trkpt lat="42.3151533" lon="14.086755"><ele>79.0</ele><time>2026-05-01T15:27:50.947Z</time></trkpt><trkpt lat="42.3152533" lon="14.0867133"><ele>79.0</ele><time>2026-05-01T15:27:51.947Z</time></trkpt><trkpt lat="42.315365" lon="14.0867017"><ele>79.0</ele><time>2026-05-01T15:27:52.947Z</time></trkpt><trkpt lat="42.31548" lon="14.086705"><ele>79.0</ele><time>2026-05-01T15:27:53.946Z</time></trkpt><trkpt lat="42.3156167" lon="14.0867217"><ele>79.25</ele><time>2026-05-01T15:27:54.947Z</time></trkpt><trkpt lat="42.31576" lon="14.0867433"><ele>79.5</ele><time>2026-05-01T15:27:55.947Z</time></trkpt><trkpt lat="42.315895" lon="14.086775"><ele>79.75</ele><time>2026-05-01T15:27:56.947Z</time></trkpt><trkpt lat="42.316015" lon="14.0867933"><ele>80.0</ele><time>2026-05-01T15:27:57.947Z</time></trkpt><trkpt lat="42.316135" lon="14.0868033"><ele>80.0</ele><time>2026-05-01T15:27:58.947Z</time></trkpt><trkpt lat="42.3162517" lon="14.0868267"><ele>80.0</ele><time>2026-05-01T15:27:59.947Z</time></trkpt><trkpt lat="42.3163617" lon="14.0868733"><ele>80.0</ele><time>2026-05-01T15:28:00.946Z</time></trkpt><trkpt lat="42.31647" lon="14.0869217"><ele>80.0</ele><time>2026-05-01T15:28:01.947Z</time></trkpt><trkpt lat="42.3165883" lon="14.0869983"><ele>79.25</ele><time>2026-05-01T15:28:02.947Z</time></trkpt><trkpt lat="42.3167133" lon="14.08708"><ele>78.5</ele><time>2026-05-01T15:28:03.947Z</time></trkpt><trkpt lat="42.3168367" lon="14.08716"><ele>77.75</ele><time>2026-05-01T15:28:04.946Z</time></trkpt><trkpt lat="42.3169633" lon="14.0872417"><ele>77.0</ele><time>2026-05-01T15:28:05.947Z</time></trkpt><trkpt lat="42.3170783" lon="14.0873083"><ele>77.0</ele><time>2026-05-01T15:28:06.946Z</time></trkpt><trkpt lat="42.3171883" lon="14.0873683"><ele>77.0</ele><time>2026-05-01T15:28:07.947Z</time></trkpt><trkpt lat="42.3172933" lon="14.08743"><ele>77.0</ele><time>2026-05-01T15:28:08.946Z</time></trkpt><trkpt lat="42.317395" lon="14.087505"><ele>77.0</ele><time>2026-05-01T15:28:09.946Z</time></trkpt><trkpt lat="42.3174917" lon="14.087565"><ele>75.0</ele><time>2026-05-01T15:28:10.947Z</time></trkpt><trkpt lat="42.317585" lon="14.08763"><ele>73.0</ele><time>2026-05-01T15:28:11.947Z</time></trkpt><trkpt lat="42.31767" lon="14.0876867"><ele>71.0</ele><time>2026-05-01T15:28:12.947Z</time></trkpt><trkpt lat="42.3177517" lon="14.08776"><ele>69.0</ele><time>2026-05-01T15:28:13.947Z</time></trkpt><trkpt lat="42.3178267" lon="14.0878433"><ele>67.0</ele><time>2026-05-01T15:28:14.946Z</time></trkpt><trkpt lat="42.3179033" lon="14.0879333"><ele>67.0</ele><time>2026-05-01T15:28:15.946Z</time></trkpt><trkpt lat="42.317975" lon="14.0880233"><ele>67.0</ele><time>2026-05-01T15:28:16.947Z</time></trkpt><trkpt lat="42.3180383" lon="14.08812"><ele>67.0</ele><time>2026-05-01T15:28:17.947Z</time></trkpt><trkpt lat="42.3181117" lon="14.0882183"><ele>67.0</ele><time>2026-05-01T15:28:18.947Z</time></trkpt><trkpt lat="42.318185" lon="14.0882783"><ele>67.0</ele><time>2026-05-01T15:28:19.947Z</time></trkpt><trkpt lat="42.318275" lon="14.088315"><ele>66.4</ele><time>2026-05-01T15:28:20.947Z</time></trkpt><trkpt lat="42.3183733" lon="14.0883383"><ele>65.80000000000001</ele><time>2026-05-01T15:28:21.947Z</time></trkpt><trkpt lat="42.3184717" lon="14.0883467"><ele>65.2</ele><time>2026-05-01T15:28:22.946Z</time></trkpt><trkpt lat="42.31857" lon="14.0883483"><ele>64.60000000000001</ele><time>2026-05-01T15:28:23.947Z</time></trkpt><trkpt lat="42.3186733" lon="14.08838"><ele>64.0</ele><time>2026-05-01T15:28:24.946Z</time></trkpt><trkpt lat="42.3187883" lon="14.08842"><ele>63.6</ele><time>2026-05-01T15:28:25.946Z</time></trkpt><trkpt lat="42.3189067" lon="14.08845"><ele>63.2</ele><time>2026-05-01T15:28:26.946Z</time></trkpt><trkpt lat="42.31901" lon="14.0885"><ele>62.800000000000004</ele><time>2026-05-01T15:28:27.947Z</time></trkpt><trkpt lat="42.3191117" lon="14.088545"><ele>62.400000000000006</ele><time>2026-05-01T15:28:28.947Z</time></trkpt><trkpt lat="42.3192117" lon="14.0885833"><ele>62.0</ele><time>2026-05-01T15:28:29.947Z</time></trkpt><trkpt lat="42.319305" lon="14.08859"><ele>62.0</ele><time>2026-05-01T15:28:30.946Z</time></trkpt><trkpt lat="42.31939" lon="14.0886217"><ele>62.0</ele><time>2026-05-01T15:28:31.947Z</time></trkpt><trkpt lat="42.3194567" lon="14.0886467"><ele>62.0</ele><time>2026-05-01T15:28:32.946Z</time></trkpt><trkpt lat="42.3195533" lon="14.088605"><ele>62.0</ele><time>2026-05-01T15:28:34.947Z</time></trkpt><trkpt lat="42.3196083" lon="14.0884683"><ele>62.0</ele><time>2026-05-01T15:28:36.947Z</time></trkpt><trkpt lat="42.3196567" lon="14.08838"><ele>62.0</ele><time>2026-05-01T15:28:37.947Z</time></trkpt><trkpt lat="42.3196983" lon="14.0882817"><ele>62.0</ele><time>2026-05-01T15:28:38.947Z</time></trkpt><trkpt lat="42.319755" lon="14.0881833"><ele>62.0</ele><time>2026-05-01T15:28:39.947Z</time></trkpt><trkpt lat="42.31981" lon="14.0880783"><ele>62.0</ele><time>2026-05-01T15:28:40.947Z</time></trkpt><trkpt lat="42.31987" lon="14.0879767"><ele>62.0</ele><time>2026-05-01T15:28:41.946Z</time></trkpt><trkpt lat="42.31993" lon="14.0878683"><ele>61.833333333333336</ele><time>2026-05-01T15:28:42.946Z</time></trkpt><trkpt lat="42.3199867" lon="14.087765"><ele>61.66666666666667</ele><time>2026-05-01T15:28:43.946Z</time></trkpt><trkpt lat="42.3200367" lon="14.0876683"><ele>61.5</ele><time>2026-05-01T15:28:44.946Z</time></trkpt><trkpt lat="42.3200833" lon="14.0875633"><ele>61.33333333333333</ele><time>2026-05-01T15:28:45.946Z</time></trkpt><trkpt lat="42.3201317" lon="14.0874833"><ele>61.166666666666664</ele><time>2026-05-01T15:28:46.946Z</time></trkpt><trkpt lat="42.3202017" lon="14.0874083"><ele>61.0</ele><time>2026-05-01T15:28:48.946Z</time></trkpt><trkpt lat="42.3202567" lon="14.087365"><ele>60.99999999999999</ele><time>2026-05-01T15:28:52.946Z</time></trkpt><trkpt lat="42.3203167" lon="14.0873317"><ele>61.0</ele><time>2026-05-01T15:29:00.945Z</time></trkpt><trkpt lat="42.3203783" lon="14.087385"><ele>61.0</ele><time>2026-05-01T15:29:02.946Z</time></trkpt><trkpt lat="42.3204183" lon="14.0874667"><ele>61.0</ele><time>2026-05-01T15:29:03.945Z</time></trkpt><trkpt lat="42.3204667" lon="14.0875717"><ele>60.99999999999999</ele><time>2026-05-01T15:29:04.946Z</time></trkpt><trkpt lat="42.3205233" lon="14.08769"><ele>61.0</ele><time>2026-05-01T15:29:05.946Z</time></trkpt><trkpt lat="42.3205783" lon="14.0878083"><ele>60.8</ele><time>2026-05-01T15:29:06.946Z</time></trkpt><trkpt lat="42.3206383" lon="14.08793"><ele>60.599999999999994</ele><time>2026-05-01T15:29:07.946Z</time></trkpt><trkpt lat="42.3207067" lon="14.088055"><ele>60.4</ele><time>2026-05-01T15:29:08.945Z</time></trkpt><trkpt lat="42.3207667" lon="14.0881783"><ele>60.2</ele><time>2026-05-01T15:29:09.946Z</time></trkpt><trkpt lat="42.32082" lon="14.0882983"><ele>60.0</ele><time>2026-05-01T15:29:10.946Z</time></trkpt><trkpt lat="42.3208683" lon="14.088405"><ele>60.0</ele><time>2026-05-01T15:29:11.945Z</time></trkpt><trkpt lat="42.3209167" lon="14.0885"><ele>60.0</ele><time>2026-05-01T15:29:12.945Z</time></trkpt><trkpt lat="42.3209633" lon="14.088595"><ele>60.0</ele><time>2026-05-01T15:29:13.946Z</time></trkpt><trkpt lat="42.3210083" lon="14.0886783"><ele>60.0</ele><time>2026-05-01T15:29:14.946Z</time></trkpt><trkpt lat="42.3210567" lon="14.0887633"><ele>60.0</ele><time>2026-05-01T15:29:15.945Z</time></trkpt><trkpt lat="42.32109" lon="14.0888367"><ele>60.0</ele><time>2026-05-01T15:29:16.946Z</time></trkpt><trkpt lat="42.3211233" lon="14.08891"><ele>60.0</ele><time>2026-05-01T15:29:17.946Z</time></trkpt><trkpt lat="42.3211717" lon="14.089025"><ele>60.0</ele><time>2026-05-01T15:29:19.946Z</time></trkpt><trkpt lat="42.32121" lon="14.0891233"><ele>60.0</ele><time>2026-05-01T15:29:22.946Z</time></trkpt><trkpt lat="42.32126" lon="14.0892167"><ele>60.0</ele><time>2026-05-01T15:29:24.946Z</time></trkpt><trkpt lat="42.3213217" lon="14.0893483"><ele>60.0</ele><time>2026-05-01T15:29:26.946Z</time></trkpt><trkpt lat="42.32138" lon="14.0894617"><ele>59.833333333333336</ele><time>2026-05-01T15:29:28.946Z</time></trkpt><trkpt lat="42.3214483" lon="14.089585"><ele>59.66666666666667</ele><time>2026-05-01T15:29:30.945Z</time></trkpt><trkpt lat="42.3214883" lon="14.0896583"><ele>59.5</ele><time>2026-05-01T15:29:31.946Z</time></trkpt><trkpt lat="42.3215267" lon="14.0897483"><ele>59.333333333333336</ele><time>2026-05-01T15:29:32.946Z</time></trkpt><trkpt lat="42.3215683" lon="14.0898417"><ele>59.16666666666667</ele><time>2026-05-01T15:29:33.946Z</time></trkpt><trkpt lat="42.3216133" lon="14.08994"><ele>59.0</ele><time>2026-05-01T15:29:34.945Z</time></trkpt><trkpt lat="42.321655" lon="14.0900333"><ele>58.857142857142854</ele><time>2026-05-01T15:29:35.946Z</time></trkpt><trkpt lat="42.3216967" lon="14.0901183"><ele>58.71428571428572</ele><time>2026-05-01T15:29:36.946Z</time></trkpt><trkpt lat="42.3217383" lon="14.0901967"><ele>58.57142857142858</ele><time>2026-05-01T15:29:37.946Z</time></trkpt><trkpt lat="42.3217767" lon="14.0902667"><ele>58.42857142857143</ele><time>2026-05-01T15:29:38.946Z</time></trkpt><trkpt lat="42.3218167" lon="14.0903467"><ele>58.28571428571429</ele><time>2026-05-01T15:29:39.946Z</time></trkpt><trkpt lat="42.3218633" lon="14.0904233"><ele>58.14285714285715</ele><time>2026-05-01T15:29:40.946Z</time></trkpt><trkpt lat="42.3219017" lon="14.090515"><ele>58.00000000000001</ele><time>2026-05-01T15:29:41.945Z</time></trkpt><trkpt lat="42.3219467" lon="14.0906083"><ele>58.0</ele><time>2026-05-01T15:29:42.945Z</time></trkpt><trkpt lat="42.3219917" lon="14.0907167"><ele>58.0</ele><time>2026-05-01T15:29:43.946Z</time></trkpt><trkpt lat="42.32204" lon="14.0908317"><ele>58.0</ele><time>2026-05-01T15:29:44.945Z</time></trkpt><trkpt lat="42.3220933" lon="14.0909483"><ele>58.0</ele><time>2026-05-01T15:29:45.946Z</time></trkpt><trkpt lat="42.3221483" lon="14.0910683"><ele>58.0</ele><time>2026-05-01T15:29:46.945Z</time></trkpt><trkpt lat="42.3222033" lon="14.09117"><ele>58.2</ele><time>2026-05-01T15:29:47.946Z</time></trkpt><trkpt lat="42.3222517" lon="14.0912783"><ele>58.4</ele><time>2026-05-01T15:29:48.946Z</time></trkpt><trkpt lat="42.3223017" lon="14.091375"><ele>58.60000000000001</ele><time>2026-05-01T15:29:49.946Z</time></trkpt><trkpt lat="42.3223533" lon="14.0914733"><ele>58.800000000000004</ele><time>2026-05-01T15:29:50.946Z</time></trkpt><trkpt lat="42.3224017" lon="14.0915817"><ele>59.0</ele><time>2026-05-01T15:29:51.945Z</time></trkpt><trkpt lat="42.32246" lon="14.0916867"><ele>59.0</ele><time>2026-05-01T15:29:52.946Z</time></trkpt><trkpt lat="42.3225233" lon="14.0918133"><ele>59.0</ele><time>2026-05-01T15:29:53.946Z</time></trkpt><trkpt lat="42.32259" lon="14.091945"><ele>59.0</ele><time>2026-05-01T15:29:54.945Z</time></trkpt><trkpt lat="42.3226467" lon="14.0921167"><ele>59.0</ele><time>2026-05-01T15:29:55.945Z</time></trkpt><trkpt lat="42.3227067" lon="14.0922517"><ele>59.0</ele><time>2026-05-01T15:29:56.946Z</time></trkpt><trkpt lat="42.3227767" lon="14.09239"><ele>59.0</ele><time>2026-05-01T15:29:57.946Z</time></trkpt><trkpt lat="42.3228517" lon="14.0925233"><ele>59.0</ele><time>2026-05-01T15:29:58.946Z</time></trkpt><trkpt lat="42.32293" lon="14.0926633"><ele>59.0</ele><time>2026-05-01T15:29:59.946Z</time></trkpt><trkpt lat="42.3230017" lon="14.0928267"><ele>58.75</ele><time>2026-05-01T15:30:00.946Z</time></trkpt><trkpt lat="42.3230667" lon="14.09298"><ele>58.5</ele><time>2026-05-01T15:30:01.946Z</time></trkpt><trkpt lat="42.32313" lon="14.0931217"><ele>58.25</ele><time>2026-05-01T15:30:02.946Z</time></trkpt><trkpt lat="42.3232017" lon="14.0932483"><ele>58.0</ele><time>2026-05-01T15:30:03.946Z</time></trkpt><trkpt lat="42.3232617" lon="14.09338"><ele>58.0</ele><time>2026-05-01T15:30:04.946Z</time></trkpt><trkpt lat="42.3233217" lon="14.0935183"><ele>58.0</ele><time>2026-05-01T15:30:05.946Z</time></trkpt><trkpt lat="42.3233817" lon="14.093655"><ele>58.0</ele><time>2026-05-01T15:30:06.945Z</time></trkpt><trkpt lat="42.3234367" lon="14.0937767"><ele>58.0</ele><time>2026-05-01T15:30:07.946Z</time></trkpt><trkpt lat="42.3234883" lon="14.0938833"><ele>58.0</ele><time>2026-05-01T15:30:08.945Z</time></trkpt><trkpt lat="42.3235317" lon="14.093995"><ele>58.0</ele><time>2026-05-01T15:30:09.946Z</time></trkpt><trkpt lat="42.3235583" lon="14.0941167"><ele>58.0</ele><time>2026-05-01T15:30:10.946Z</time></trkpt><trkpt lat="42.323595" lon="14.09424"><ele>58.0</ele><time>2026-05-01T15:30:11.946Z</time></trkpt><trkpt lat="42.3236417" lon="14.0943667"><ele>58.0</ele><time>2026-05-01T15:30:12.945Z</time></trkpt><trkpt lat="42.323675" lon="14.09451"><ele>58.0</ele><time>2026-05-01T15:30:13.945Z</time></trkpt><trkpt lat="42.323705" lon="14.0946467"><ele>58.0</ele><time>2026-05-01T15:30:14.945Z</time></trkpt><trkpt lat="42.3237317" lon="14.0947767"><ele>58.0</ele><time>2026-05-01T15:30:15.945Z</time></trkpt><trkpt lat="42.3237567" lon="14.0949"><ele>58.0</ele><time>2026-05-01T15:30:16.946Z</time></trkpt><trkpt lat="42.3237867" lon="14.095035"><ele>58.0</ele><time>2026-05-01T15:30:17.945Z</time></trkpt><trkpt lat="42.3238183" lon="14.095185"><ele>58.0</ele><time>2026-05-01T15:30:18.946Z</time></trkpt><trkpt lat="42.323855" lon="14.0953517"><ele>58.0</ele><time>2026-05-01T15:30:19.946Z</time></trkpt><trkpt lat="42.3238867" lon="14.095515"><ele>58.0</ele><time>2026-05-01T15:30:20.946Z</time></trkpt><trkpt lat="42.32392" lon="14.09567"><ele>58.0</ele><time>2026-05-01T15:30:21.945Z</time></trkpt><trkpt lat="42.3239483" lon="14.0958267"><ele>58.0</ele><time>2026-05-01T15:30:22.946Z</time></trkpt><trkpt lat="42.3239817" lon="14.09597"><ele>58.0</ele><time>2026-05-01T15:30:23.946Z</time></trkpt><trkpt lat="42.32401" lon="14.0961133"><ele>58.0</ele><time>2026-05-01T15:30:24.946Z</time></trkpt><trkpt lat="42.324045" lon="14.096255"><ele>58.0</ele><time>2026-05-01T15:30:25.946Z</time></trkpt><trkpt lat="42.324065" lon="14.09641"><ele>58.0</ele><time>2026-05-01T15:30:26.946Z</time></trkpt><trkpt lat="42.3240967" lon="14.09658"><ele>58.0</ele><time>2026-05-01T15:30:27.946Z</time></trkpt><trkpt lat="42.3241267" lon="14.0967433"><ele>58.0</ele><time>2026-05-01T15:30:28.946Z</time></trkpt><trkpt lat="42.32416" lon="14.0968983"><ele>58.0</ele><time>2026-05-01T15:30:29.945Z</time></trkpt><trkpt lat="42.324195" lon="14.0970567"><ele>58.0</ele><time>2026-05-01T15:30:30.945Z</time></trkpt><trkpt lat="42.3242333" lon="14.0972033"><ele>58.0</ele><time>2026-05-01T15:30:31.945Z</time></trkpt><trkpt lat="42.3242683" lon="14.0973533"><ele>58.0</ele><time>2026-05-01T15:30:32.945Z</time></trkpt><trkpt lat="42.3243067" lon="14.0975067"><ele>58.0</ele><time>2026-05-01T15:30:33.945Z</time></trkpt><trkpt lat="42.3243517" lon="14.0976633"><ele>58.0</ele><time>2026-05-01T15:30:34.946Z</time></trkpt><trkpt lat="42.324405" lon="14.0978283"><ele>57.75</ele><time>2026-05-01T15:30:35.946Z</time></trkpt><trkpt lat="42.3244683" lon="14.09799"><ele>57.5</ele><time>2026-05-01T15:30:36.946Z</time></trkpt><trkpt lat="42.3245433" lon="14.0981467"><ele>57.25</ele><time>2026-05-01T15:30:37.946Z</time></trkpt><trkpt lat="42.3246267" lon="14.0983033"><ele>57.0</ele><time>2026-05-01T15:30:38.945Z</time></trkpt><trkpt lat="42.3247117" lon="14.0984483"><ele>56.0</ele><time>2026-05-01T15:30:39.945Z</time></trkpt><trkpt lat="42.3247883" lon="14.098575"><ele>55.0</ele><time>2026-05-01T15:30:40.946Z</time></trkpt><trkpt lat="42.3248633" lon="14.0986983"><ele>54.0</ele><time>2026-05-01T15:30:41.946Z</time></trkpt><trkpt lat="42.3249367" lon="14.0988183"><ele>53.0</ele><time>2026-05-01T15:30:42.946Z</time></trkpt><trkpt lat="42.325" lon="14.09893"><ele>53.0</ele><time>2026-05-01T15:30:43.946Z</time></trkpt><trkpt lat="42.32507" lon="14.09904"><ele>53.0</ele><time>2026-05-01T15:30:44.946Z</time></trkpt><trkpt lat="42.3251383" lon="14.0991483"><ele>53.0</ele><time>2026-05-01T15:30:45.946Z</time></trkpt><trkpt lat="42.3252083" lon="14.0992617"><ele>53.0</ele><time>2026-05-01T15:30:46.945Z</time></trkpt><trkpt lat="42.325285" lon="14.0993817"><ele>53.0</ele><time>2026-05-01T15:30:47.945Z</time></trkpt><trkpt lat="42.3253667" lon="14.0995017"><ele>53.0</ele><time>2026-05-01T15:30:48.945Z</time></trkpt><trkpt lat="42.3254467" lon="14.099635"><ele>53.0</ele><time>2026-05-01T15:30:49.946Z</time></trkpt><trkpt lat="42.3255167" lon="14.0997483"><ele>53.0</ele><time>2026-05-01T15:30:50.946Z</time></trkpt><trkpt lat="42.3255867" lon="14.0998517"><ele>53.0</ele><time>2026-05-01T15:30:51.946Z</time></trkpt><trkpt lat="42.3256567" lon="14.0999583"><ele>53.0</ele><time>2026-05-01T15:30:52.946Z</time></trkpt><trkpt lat="42.3257233" lon="14.1000667"><ele>53.0</ele><time>2026-05-01T15:30:53.945Z</time></trkpt><trkpt lat="42.3257883" lon="14.100175"><ele>53.0</ele><time>2026-05-01T15:30:54.946Z</time></trkpt><trkpt lat="42.3258533" lon="14.100275"><ele>53.0</ele><time>2026-05-01T15:30:55.946Z</time></trkpt><trkpt lat="42.3259183" lon="14.1003783"><ele>53.0</ele><time>2026-05-01T15:30:56.945Z</time></trkpt><trkpt lat="42.3259767" lon="14.1004733"><ele>53.0</ele><time>2026-05-01T15:30:57.946Z</time></trkpt><trkpt lat="42.3260283" lon="14.10056"><ele>53.0</ele><time>2026-05-01T15:30:58.946Z</time></trkpt><trkpt lat="42.32607" lon="14.1006517"><ele>53.0</ele><time>2026-05-01T15:30:59.946Z</time></trkpt><trkpt lat="42.3260983" lon="14.1007367"><ele>53.0</ele><time>2026-05-01T15:31:00.946Z</time></trkpt><trkpt lat="42.3261217" lon="14.10082"><ele>53.0</ele><time>2026-05-01T15:31:01.946Z</time></trkpt><trkpt lat="42.3261317" lon="14.1009067"><ele>53.0</ele><time>2026-05-01T15:31:02.946Z</time></trkpt><trkpt lat="42.3261433" lon="14.1010017"><ele>53.0</ele><time>2026-05-01T15:31:03.945Z</time></trkpt><trkpt lat="42.3261633" lon="14.1010933"><ele>53.0</ele><time>2026-05-01T15:31:04.946Z</time></trkpt><trkpt lat="42.3262" lon="14.1011683"><ele>53.333333333333336</ele><time>2026-05-01T15:31:05.946Z</time></trkpt><trkpt lat="42.3262567" lon="14.10122"><ele>53.66666666666667</ele><time>2026-05-01T15:31:06.945Z</time></trkpt><trkpt lat="42.3263267" lon="14.1012433"><ele>54.0</ele><time>2026-05-01T15:31:07.946Z</time></trkpt><trkpt lat="42.3264" lon="14.1012717"><ele>54.33333333333333</ele><time>2026-05-01T15:31:08.946Z</time></trkpt><trkpt lat="42.3264733" lon="14.1013233"><ele>54.666666666666664</ele><time>2026-05-01T15:31:09.946Z</time></trkpt><trkpt lat="42.3265533" lon="14.101405"><ele>55.0</ele><time>2026-05-01T15:31:10.946Z</time></trkpt><trkpt lat="42.3266317" lon="14.101515"><ele>55.0</ele><time>2026-05-01T15:31:11.946Z</time></trkpt><trkpt lat="42.32671" lon="14.1016383"><ele>55.0</ele><time>2026-05-01T15:31:12.946Z</time></trkpt><trkpt lat="42.3267867" lon="14.10177"><ele>55.0</ele><time>2026-05-01T15:31:13.946Z</time></trkpt><trkpt lat="42.326865" lon="14.1019083"><ele>55.0</ele><time>2026-05-01T15:31:14.945Z</time></trkpt><trkpt lat="42.326945" lon="14.102035"><ele>55.0</ele><time>2026-05-01T15:31:15.946Z</time></trkpt><trkpt lat="42.3270167" lon="14.1021617"><ele>55.0</ele><time>2026-05-01T15:31:16.946Z</time></trkpt><trkpt lat="42.327085" lon="14.1022917"><ele>55.0</ele><time>2026-05-01T15:31:17.946Z</time></trkpt><trkpt lat="42.32715" lon="14.1024367"><ele>55.0</ele><time>2026-05-01T15:31:18.946Z</time></trkpt><trkpt lat="42.327215" lon="14.1025917"><ele>53.25</ele><time>2026-05-01T15:31:19.946Z</time></trkpt><trkpt lat="42.3272667" lon="14.10275"><ele>51.5</ele><time>2026-05-01T15:31:20.946Z</time></trkpt><trkpt lat="42.3273183" lon="14.1028933"><ele>49.75</ele><time>2026-05-01T15:31:21.946Z</time></trkpt><trkpt lat="42.3273683" lon="14.1030283"><ele>48.0</ele><time>2026-05-01T15:31:22.945Z</time></trkpt><trkpt lat="42.3274133" lon="14.1031633"><ele>48.2</ele><time>2026-05-01T15:31:23.945Z</time></trkpt><trkpt lat="42.327455" lon="14.1032917"><ele>48.4</ele><time>2026-05-01T15:31:24.946Z</time></trkpt><trkpt lat="42.3274983" lon="14.1034333"><ele>48.6</ele><time>2026-05-01T15:31:25.946Z</time></trkpt><trkpt lat="42.3275417" lon="14.1035717"><ele>48.800000000000004</ele><time>2026-05-01T15:31:26.945Z</time></trkpt><trkpt lat="42.3275833" lon="14.103715"><ele>49.0</ele><time>2026-05-01T15:31:27.946Z</time></trkpt><trkpt lat="42.3276267" lon="14.10386"><ele>49.0</ele><time>2026-05-01T15:31:28.946Z</time></trkpt><trkpt lat="42.3276717" lon="14.1039983"><ele>49.0</ele><time>2026-05-01T15:31:29.945Z</time></trkpt><trkpt lat="42.327715" lon="14.1041367"><ele>49.0</ele><time>2026-05-01T15:31:30.945Z</time></trkpt><trkpt lat="42.3277567" lon="14.104275"><ele>49.0</ele><time>2026-05-01T15:31:31.946Z</time></trkpt><trkpt lat="42.3278017" lon="14.1044083"><ele>49.0</ele><time>2026-05-01T15:31:32.946Z</time></trkpt><trkpt lat="42.3278467" lon="14.1045417"><ele>48.5</ele><time>2026-05-01T15:31:33.946Z</time></trkpt><trkpt lat="42.3278917" lon="14.1046883"><ele>48.0</ele><time>2026-05-01T15:31:34.946Z</time></trkpt><trkpt lat="42.3279367" lon="14.104835"><ele>47.5</ele><time>2026-05-01T15:31:35.945Z</time></trkpt><trkpt lat="42.3279767" lon="14.1049883"><ele>47.0</ele><time>2026-05-01T15:31:36.946Z</time></trkpt><trkpt lat="42.328015" lon="14.1051367"><ele>46.75</ele><time>2026-05-01T15:31:37.946Z</time></trkpt><trkpt lat="42.3280583" lon="14.105275"><ele>46.5</ele><time>2026-05-01T15:31:38.946Z</time></trkpt><trkpt lat="42.3281017" lon="14.1054183"><ele>46.25</ele><time>2026-05-01T15:31:39.946Z</time></trkpt><trkpt lat="42.3281483" lon="14.10556"><ele>46.0</ele><time>2026-05-01T15:31:40.946Z</time></trkpt><trkpt lat="42.32819" lon="14.1056983"><ele>46.0</ele><time>2026-05-01T15:31:41.946Z</time></trkpt><trkpt lat="42.3282367" lon="14.1058383"><ele>46.0</ele><time>2026-05-01T15:31:42.946Z</time></trkpt><trkpt lat="42.328275" lon="14.1059633"><ele>46.0</ele><time>2026-05-01T15:31:43.946Z</time></trkpt><trkpt lat="42.3283117" lon="14.1060833"><ele>46.0</ele><time>2026-05-01T15:31:44.945Z</time></trkpt><trkpt lat="42.3283483" lon="14.1062017"><ele>46.0</ele><time>2026-05-01T15:31:45.945Z</time></trkpt><trkpt lat="42.3283833" lon="14.1063167"><ele>46.0</ele><time>2026-05-01T15:31:46.944Z</time></trkpt><trkpt lat="42.328415" lon="14.1064233"><ele>46.0</ele><time>2026-05-01T15:31:47.944Z</time></trkpt><trkpt lat="42.32845" lon="14.1065267"><ele>46.0</ele><time>2026-05-01T15:31:48.944Z</time></trkpt><trkpt lat="42.3284817" lon="14.10663"><ele>46.0</ele><time>2026-05-01T15:31:49.945Z</time></trkpt><trkpt lat="42.3285267" lon="14.1067617"><ele>46.0</ele><time>2026-05-01T15:31:50.945Z</time></trkpt><trkpt lat="42.3285783" lon="14.1069167"><ele>46.0</ele><time>2026-05-01T15:31:51.944Z</time></trkpt><trkpt lat="42.3286283" lon="14.107075"><ele>46.0</ele><time>2026-05-01T15:31:52.945Z</time></trkpt><trkpt lat="42.3286767" lon="14.10724"><ele>46.0</ele><time>2026-05-01T15:31:53.944Z</time></trkpt><trkpt lat="42.3287333" lon="14.1073967"><ele>46.0</ele><time>2026-05-01T15:31:54.945Z</time></trkpt><trkpt lat="42.32878" lon="14.107545"><ele>46.0</ele><time>2026-05-01T15:31:55.945Z</time></trkpt><trkpt lat="42.3288217" lon="14.107685"><ele>46.0</ele><time>2026-05-01T15:31:56.945Z</time></trkpt><trkpt lat="42.3288617" lon="14.1078133"><ele>46.0</ele><time>2026-05-01T15:31:57.945Z</time></trkpt><trkpt lat="42.3289067" lon="14.107945"><ele>46.0</ele><time>2026-05-01T15:31:58.945Z</time></trkpt><trkpt lat="42.3289533" lon="14.1080867"><ele>46.0</ele><time>2026-05-01T15:31:59.945Z</time></trkpt><trkpt lat="42.3289983" lon="14.1082383"><ele>44.75</ele><time>2026-05-01T15:32:00.945Z</time></trkpt><trkpt lat="42.3290433" lon="14.10839"><ele>43.5</ele><time>2026-05-01T15:32:01.945Z</time></trkpt><trkpt lat="42.3290983" lon="14.1085383"><ele>42.25</ele><time>2026-05-01T15:32:02.945Z</time></trkpt><trkpt lat="42.3291317" lon="14.1086733"><ele>41.0</ele><time>2026-05-01T15:32:03.945Z</time></trkpt><trkpt lat="42.329175" lon="14.1088217"><ele>41.0</ele><time>2026-05-01T15:32:04.945Z</time></trkpt><trkpt lat="42.3292233" lon="14.1089617"><ele>41.0</ele><time>2026-05-01T15:32:05.945Z</time></trkpt><trkpt lat="42.329275" lon="14.109115"><ele>41.0</ele><time>2026-05-01T15:32:06.945Z</time></trkpt><trkpt lat="42.3293183" lon="14.1092617"><ele>41.0</ele><time>2026-05-01T15:32:07.945Z</time></trkpt><trkpt lat="42.329375" lon="14.1094383"><ele>41.5</ele><time>2026-05-01T15:32:08.944Z</time></trkpt><trkpt lat="42.3294167" lon="14.109595"><ele>42.0</ele><time>2026-05-01T15:32:09.945Z</time></trkpt><trkpt lat="42.329465" lon="14.1097667"><ele>42.5</ele><time>2026-05-01T15:32:10.945Z</time></trkpt><trkpt lat="42.3295117" lon="14.109935"><ele>43.0</ele><time>2026-05-01T15:32:11.945Z</time></trkpt><trkpt lat="42.3295567" lon="14.1100933"><ele>43.25</ele><time>2026-05-01T15:32:12.945Z</time></trkpt><trkpt lat="42.3295967" lon="14.110235"><ele>43.5</ele><time>2026-05-01T15:32:13.945Z</time></trkpt><trkpt lat="42.3296483" lon="14.1103767"><ele>43.75</ele><time>2026-05-01T15:32:14.945Z</time></trkpt><trkpt lat="42.3297" lon="14.110525"><ele>44.0</ele><time>2026-05-01T15:32:15.944Z</time></trkpt><trkpt lat="42.3297483" lon="14.110675"><ele>43.5</ele><time>2026-05-01T15:32:16.945Z</time></trkpt><trkpt lat="42.3297983" lon="14.1108217"><ele>43.0</ele><time>2026-05-01T15:32:17.945Z</time></trkpt><trkpt lat="42.3298467" lon="14.1109667"><ele>42.5</ele><time>2026-05-01T15:32:18.945Z</time></trkpt><trkpt lat="42.3298933" lon="14.11112"><ele>42.0</ele><time>2026-05-01T15:32:19.945Z</time></trkpt><trkpt lat="42.3299383" lon="14.11126"><ele>42.0</ele><time>2026-05-01T15:32:20.945Z</time></trkpt><trkpt lat="42.3299767" lon="14.111395"><ele>42.0</ele><time>2026-05-01T15:32:21.944Z</time></trkpt><trkpt lat="42.3300233" lon="14.111535"><ele>42.0</ele><time>2026-05-01T15:32:22.945Z</time></trkpt><trkpt lat="42.3300667" lon="14.1116783"><ele>42.0</ele><time>2026-05-01T15:32:23.945Z</time></trkpt><trkpt lat="42.3301167" lon="14.1118183"><ele>42.2</ele><time>2026-05-01T15:32:24.945Z</time></trkpt><trkpt lat="42.3301583" lon="14.1119617"><ele>42.400000000000006</ele><time>2026-05-01T15:32:25.945Z</time></trkpt><trkpt lat="42.330195" lon="14.112095"><ele>42.599999999999994</ele><time>2026-05-01T15:32:26.945Z</time></trkpt><trkpt lat="42.3302333" lon="14.1122167"><ele>42.8</ele><time>2026-05-01T15:32:27.945Z</time></trkpt><trkpt lat="42.3302783" lon="14.1123383"><ele>43.0</ele><time>2026-05-01T15:32:28.945Z</time></trkpt><trkpt lat="42.3303183" lon="14.112455"><ele>43.0</ele><time>2026-05-01T15:32:29.945Z</time></trkpt><trkpt lat="42.33036" lon="14.112585"><ele>43.0</ele><time>2026-05-01T15:32:30.945Z</time></trkpt><trkpt lat="42.3303983" lon="14.11272"><ele>43.0</ele><time>2026-05-01T15:32:31.945Z</time></trkpt><trkpt lat="42.3304283" lon="14.11285"><ele>43.0</ele><time>2026-05-01T15:32:32.945Z</time></trkpt><trkpt lat="42.3304433" lon="14.112995"><ele>43.0</ele><time>2026-05-01T15:32:33.945Z</time></trkpt><trkpt lat="42.3304583" lon="14.11312"><ele>43.0</ele><time>2026-05-01T15:32:34.945Z</time></trkpt><trkpt lat="42.3304817" lon="14.1132317"><ele>43.0</ele><time>2026-05-01T15:32:35.945Z</time></trkpt><trkpt lat="42.3305383" lon="14.113315"><ele>43.0</ele><time>2026-05-01T15:32:36.945Z</time></trkpt><trkpt lat="42.330605" lon="14.1134017"><ele>43.0</ele><time>2026-05-01T15:32:37.945Z</time></trkpt><trkpt lat="42.3306533" lon="14.1135117"><ele>43.0</ele><time>2026-05-01T15:32:38.945Z</time></trkpt><trkpt lat="42.3306933" lon="14.1136483"><ele>41.75</ele><time>2026-05-01T15:32:39.945Z</time></trkpt><trkpt lat="42.330735" lon="14.113795"><ele>40.5</ele><time>2026-05-01T15:32:40.945Z</time></trkpt><trkpt lat="42.3307817" lon="14.1139517"><ele>39.25</ele><time>2026-05-01T15:32:41.945Z</time></trkpt><trkpt lat="42.33084" lon="14.11411"><ele>38.0</ele><time>2026-05-01T15:32:42.945Z</time></trkpt><trkpt lat="42.3308933" lon="14.1142783"><ele>38.0</ele><time>2026-05-01T15:32:43.944Z</time></trkpt><trkpt lat="42.3309483" lon="14.114455"><ele>38.0</ele><time>2026-05-01T15:32:44.944Z</time></trkpt><trkpt lat="42.331" lon="14.114635"><ele>38.0</ele><time>2026-05-01T15:32:45.945Z</time></trkpt><trkpt lat="42.331055" lon="14.11481"><ele>38.0</ele><time>2026-05-01T15:32:46.945Z</time></trkpt><trkpt lat="42.33112" lon="14.1149933"><ele>38.0</ele><time>2026-05-01T15:32:47.945Z</time></trkpt><trkpt lat="42.3311783" lon="14.11517"><ele>38.0</ele><time>2026-05-01T15:32:48.945Z</time></trkpt><trkpt lat="42.3312317" lon="14.1153417"><ele>38.0</ele><time>2026-05-01T15:32:49.945Z</time></trkpt><trkpt lat="42.3312917" lon="14.1155117"><ele>38.0</ele><time>2026-05-01T15:32:50.945Z</time></trkpt><trkpt lat="42.3313417" lon="14.1157033"><ele>38.0</ele><time>2026-05-01T15:32:51.945Z</time></trkpt><trkpt lat="42.3314" lon="14.1159"><ele>38.0</ele><time>2026-05-01T15:32:52.945Z</time></trkpt><trkpt lat="42.3314567" lon="14.1160867"><ele>38.0</ele><time>2026-05-01T15:32:53.945Z</time></trkpt><trkpt lat="42.33152" lon="14.1162633"><ele>38.0</ele><time>2026-05-01T15:32:54.944Z</time></trkpt><trkpt lat="42.331585" lon="14.11645"><ele>38.0</ele><time>2026-05-01T15:32:55.944Z</time></trkpt><trkpt lat="42.3316367" lon="14.11662"><ele>38.0</ele><time>2026-05-01T15:32:56.944Z</time></trkpt><trkpt lat="42.3316833" lon="14.116775"><ele>38.0</ele><time>2026-05-01T15:32:57.945Z</time></trkpt><trkpt lat="42.33173" lon="14.116925"><ele>38.0</ele><time>2026-05-01T15:32:58.945Z</time></trkpt><trkpt lat="42.3317783" lon="14.11708"><ele>38.0</ele><time>2026-05-01T15:32:59.945Z</time></trkpt><trkpt lat="42.3318317" lon="14.11723"><ele>38.0</ele><time>2026-05-01T15:33:00.945Z</time></trkpt><trkpt lat="42.3318783" lon="14.117385"><ele>38.0</ele><time>2026-05-01T15:33:01.945Z</time></trkpt><trkpt lat="42.3319217" lon="14.11754"><ele>38.4</ele><time>2026-05-01T15:33:02.945Z</time></trkpt><trkpt lat="42.3319667" lon="14.1176833"><ele>38.8</ele><time>2026-05-01T15:33:03.944Z</time></trkpt><trkpt lat="42.3320017" lon="14.11782"><ele>39.2</ele><time>2026-05-01T15:33:04.945Z</time></trkpt><trkpt lat="42.3320433" lon="14.1179483"><ele>39.6</ele><time>2026-05-01T15:33:05.944Z</time></trkpt><trkpt lat="42.3320867" lon="14.1180717"><ele>40.0</ele><time>2026-05-01T15:33:06.945Z</time></trkpt><trkpt lat="42.3321233" lon="14.118185"><ele>40.0</ele><time>2026-05-01T15:33:07.944Z</time></trkpt><trkpt lat="42.3321633" lon="14.1183"><ele>40.0</ele><time>2026-05-01T15:33:08.945Z</time></trkpt><trkpt lat="42.3322033" lon="14.1184167"><ele>40.0</ele><time>2026-05-01T15:33:09.945Z</time></trkpt><trkpt lat="42.3322433" lon="14.1185467"><ele>40.0</ele><time>2026-05-01T15:33:10.945Z</time></trkpt><trkpt lat="42.332285" lon="14.1186867"><ele>40.0</ele><time>2026-05-01T15:33:11.944Z</time></trkpt><trkpt lat="42.33233" lon="14.1188167"><ele>39.6</ele><time>2026-05-01T15:33:12.945Z</time></trkpt><trkpt lat="42.3323633" lon="14.118945"><ele>39.2</ele><time>2026-05-01T15:33:13.944Z</time></trkpt><trkpt lat="42.3324" lon="14.119065"><ele>38.8</ele><time>2026-05-01T15:33:14.945Z</time></trkpt><trkpt lat="42.3324383" lon="14.1191867"><ele>38.4</ele><time>2026-05-01T15:33:15.945Z</time></trkpt><trkpt lat="42.3324783" lon="14.1193217"><ele>38.0</ele><time>2026-05-01T15:33:16.945Z</time></trkpt><trkpt lat="42.332525" lon="14.1194533"><ele>37.8</ele><time>2026-05-01T15:33:17.945Z</time></trkpt><trkpt lat="42.33257" lon="14.1195867"><ele>37.599999999999994</ele><time>2026-05-01T15:33:18.945Z</time></trkpt><trkpt lat="42.33261" lon="14.1197167"><ele>37.400000000000006</ele><time>2026-05-01T15:33:19.944Z</time></trkpt><trkpt lat="42.3326483" lon="14.119855"><ele>37.2</ele><time>2026-05-01T15:33:20.945Z</time></trkpt><trkpt lat="42.332695" lon="14.1199833"><ele>37.0</ele><time>2026-05-01T15:33:21.944Z</time></trkpt><trkpt lat="42.3327383" lon="14.12012"><ele>37.6</ele><time>2026-05-01T15:33:22.945Z</time></trkpt><trkpt lat="42.3327783" lon="14.1202533"><ele>38.2</ele><time>2026-05-01T15:33:23.945Z</time></trkpt><trkpt lat="42.3328133" lon="14.1203683"><ele>38.8</ele><time>2026-05-01T15:33:24.945Z</time></trkpt><trkpt lat="42.3328517" lon="14.1205067"><ele>39.4</ele><time>2026-05-01T15:33:25.944Z</time></trkpt><trkpt lat="42.3328967" lon="14.12064"><ele>40.0</ele><time>2026-05-01T15:33:26.945Z</time></trkpt><trkpt lat="42.3329383" lon="14.1207683"><ele>40.0</ele><time>2026-05-01T15:33:27.945Z</time></trkpt><trkpt lat="42.332975" lon="14.1208967"><ele>40.0</ele><time>2026-05-01T15:33:28.945Z</time></trkpt><trkpt lat="42.3330167" lon="14.1210233"><ele>40.0</ele><time>2026-05-01T15:33:29.944Z</time></trkpt><trkpt lat="42.3330583" lon="14.121155"><ele>40.0</ele><time>2026-05-01T15:33:30.944Z</time></trkpt><trkpt lat="42.333105" lon="14.12128"><ele>40.0</ele><time>2026-05-01T15:33:31.945Z</time></trkpt><trkpt lat="42.33315" lon="14.1214133"><ele>40.5</ele><time>2026-05-01T15:33:32.944Z</time></trkpt><trkpt lat="42.3331867" lon="14.121545"><ele>41.0</ele><time>2026-05-01T15:33:33.945Z</time></trkpt><trkpt lat="42.3332333" lon="14.12169"><ele>41.5</ele><time>2026-05-01T15:33:34.944Z</time></trkpt><trkpt lat="42.3332783" lon="14.1218367"><ele>42.0</ele><time>2026-05-01T15:33:35.944Z</time></trkpt><trkpt lat="42.3333267" lon="14.1219767"><ele>42.0</ele><time>2026-05-01T15:33:36.945Z</time></trkpt><trkpt lat="42.3333633" lon="14.122125"><ele>42.0</ele><time>2026-05-01T15:33:37.944Z</time></trkpt><trkpt lat="42.333405" lon="14.1222583"><ele>42.0</ele><time>2026-05-01T15:33:38.945Z</time></trkpt><trkpt lat="42.3334433" lon="14.1223867"><ele>42.0</ele><time>2026-05-01T15:33:39.945Z</time></trkpt><trkpt lat="42.333485" lon="14.1225017"><ele>42.0</ele><time>2026-05-01T15:33:40.945Z</time></trkpt><trkpt lat="42.33352" lon="14.1226183"><ele>42.5</ele><time>2026-05-01T15:33:41.944Z</time></trkpt><trkpt lat="42.3335633" lon="14.1227683"><ele>43.0</ele><time>2026-05-01T15:33:42.945Z</time></trkpt><trkpt lat="42.33361" lon="14.1229217"><ele>43.5</ele><time>2026-05-01T15:33:43.944Z</time></trkpt><trkpt lat="42.3336567" lon="14.1230733"><ele>44.0</ele><time>2026-05-01T15:33:44.945Z</time></trkpt><trkpt lat="42.333705" lon="14.1232183"><ele>43.800000000000004</ele><time>2026-05-01T15:33:45.945Z</time></trkpt><trkpt lat="42.3337483" lon="14.12335"><ele>43.6</ele><time>2026-05-01T15:33:46.944Z</time></trkpt><trkpt lat="42.3337933" lon="14.1234867"><ele>43.4</ele><time>2026-05-01T15:33:47.944Z</time></trkpt><trkpt lat="42.3338367" lon="14.1236217"><ele>43.2</ele><time>2026-05-01T15:33:48.945Z</time></trkpt><trkpt lat="42.3338833" lon="14.1237633"><ele>43.0</ele><time>2026-05-01T15:33:49.945Z</time></trkpt><trkpt lat="42.3339333" lon="14.1239067"><ele>42.75</ele><time>2026-05-01T15:33:50.945Z</time></trkpt><trkpt lat="42.3339717" lon="14.12406"><ele>42.5</ele><time>2026-05-01T15:33:51.945Z</time></trkpt><trkpt lat="42.334025" lon="14.1242233"><ele>42.25</ele><time>2026-05-01T15:33:52.945Z</time></trkpt><trkpt lat="42.3340767" lon="14.12438"><ele>42.0</ele><time>2026-05-01T15:33:53.945Z</time></trkpt><trkpt lat="42.334125" lon="14.124535"><ele>41.75</ele><time>2026-05-01T15:33:54.945Z</time></trkpt><trkpt lat="42.334175" lon="14.1246867"><ele>41.5</ele><time>2026-05-01T15:33:55.945Z</time></trkpt><trkpt lat="42.33422" lon="14.1248383"><ele>41.25</ele><time>2026-05-01T15:33:56.945Z</time></trkpt><trkpt lat="42.3342683" lon="14.1249883"><ele>41.0</ele><time>2026-05-01T15:33:57.945Z</time></trkpt><trkpt lat="42.3343183" lon="14.125125"><ele>41.5</ele><time>2026-05-01T15:33:58.944Z</time></trkpt><trkpt lat="42.33436" lon="14.1252633"><ele>42.0</ele><time>2026-05-01T15:33:59.945Z</time></trkpt><trkpt lat="42.3344067" lon="14.12541"><ele>42.5</ele><time>2026-05-01T15:34:00.945Z</time></trkpt><trkpt lat="42.3344483" lon="14.1255483"><ele>43.0</ele><time>2026-05-01T15:34:01.945Z</time></trkpt><trkpt lat="42.3344917" lon="14.12569"><ele>43.5</ele><time>2026-05-01T15:34:02.945Z</time></trkpt><trkpt lat="42.3345367" lon="14.125835"><ele>44.0</ele><time>2026-05-01T15:34:03.945Z</time></trkpt><trkpt lat="42.3345833" lon="14.125975"><ele>44.5</ele><time>2026-05-01T15:34:04.945Z</time></trkpt><trkpt lat="42.3346267" lon="14.126115"><ele>45.0</ele><time>2026-05-01T15:34:05.944Z</time></trkpt><trkpt lat="42.3346733" lon="14.1262533"><ele>45.0</ele><time>2026-05-01T15:34:06.945Z</time></trkpt><trkpt lat="42.3347167" lon="14.1263917"><ele>45.0</ele><time>2026-05-01T15:34:07.944Z</time></trkpt><trkpt lat="42.3347567" lon="14.12654"><ele>45.0</ele><time>2026-05-01T15:34:08.944Z</time></trkpt><trkpt lat="42.3348017" lon="14.1266817"><ele>45.0</ele><time>2026-05-01T15:34:09.944Z</time></trkpt><trkpt lat="42.33485" lon="14.12683"><ele>45.25</ele><time>2026-05-01T15:34:10.945Z</time></trkpt><trkpt lat="42.3348983" lon="14.1269867"><ele>45.5</ele><time>2026-05-01T15:34:11.945Z</time></trkpt><trkpt lat="42.3349467" lon="14.1271383"><ele>45.75</ele><time>2026-05-01T15:34:12.944Z</time></trkpt><trkpt lat="42.3349933" lon="14.1272883"><ele>46.0</ele><time>2026-05-01T15:34:13.945Z</time></trkpt><trkpt lat="42.3350367" lon="14.127445"><ele>46.5</ele><time>2026-05-01T15:34:14.945Z</time></trkpt><trkpt lat="42.335095" lon="14.1276"><ele>47.0</ele><time>2026-05-01T15:34:15.945Z</time></trkpt><trkpt lat="42.3351433" lon="14.1277667"><ele>47.5</ele><time>2026-05-01T15:34:16.945Z</time></trkpt><trkpt lat="42.3351917" lon="14.12793"><ele>48.0</ele><time>2026-05-01T15:34:17.945Z</time></trkpt><trkpt lat="42.335245" lon="14.1281033"><ele>48.25</ele><time>2026-05-01T15:34:18.944Z</time></trkpt><trkpt lat="42.3352967" lon="14.1282667"><ele>48.5</ele><time>2026-05-01T15:34:19.944Z</time></trkpt><trkpt lat="42.3353533" lon="14.1284217"><ele>48.75</ele><time>2026-05-01T15:34:20.945Z</time></trkpt><trkpt lat="42.3354117" lon="14.1285683"><ele>49.0</ele><time>2026-05-01T15:34:21.944Z</time></trkpt><trkpt lat="42.3354633" lon="14.1287267"><ele>49.0</ele><time>2026-05-01T15:34:22.944Z</time></trkpt><trkpt lat="42.3355117" lon="14.1288983"><ele>49.0</ele><time>2026-05-01T15:34:23.945Z</time></trkpt><trkpt lat="42.3355617" lon="14.1290783"><ele>49.0</ele><time>2026-05-01T15:34:24.945Z</time></trkpt><trkpt lat="42.33562" lon="14.1292467"><ele>49.0</ele><time>2026-05-01T15:34:25.944Z</time></trkpt><trkpt lat="42.3356733" lon="14.1294183"><ele>49.25</ele><time>2026-05-01T15:34:26.945Z</time></trkpt><trkpt lat="42.3357317" lon="14.1295867"><ele>49.5</ele><time>2026-05-01T15:34:27.945Z</time></trkpt><trkpt lat="42.3357867" lon="14.1297633"><ele>49.75</ele><time>2026-05-01T15:34:28.944Z</time></trkpt><trkpt lat="42.3358383" lon="14.129935"><ele>50.0</ele><time>2026-05-01T15:34:29.945Z</time></trkpt><trkpt lat="42.335885" lon="14.1300983"><ele>50.5</ele><time>2026-05-01T15:34:30.945Z</time></trkpt><trkpt lat="42.3359317" lon="14.1302533"><ele>51.0</ele><time>2026-05-01T15:34:31.945Z</time></trkpt><trkpt lat="42.3359867" lon="14.1304317"><ele>51.5</ele><time>2026-05-01T15:34:32.945Z</time></trkpt><trkpt lat="42.336055" lon="14.1306217"><ele>52.0</ele><time>2026-05-01T15:34:33.944Z</time></trkpt><trkpt lat="42.3361233" lon="14.1308433"><ele>52.0</ele><time>2026-05-01T15:34:34.945Z</time></trkpt><trkpt lat="42.3361883" lon="14.1310717"><ele>52.0</ele><time>2026-05-01T15:34:35.944Z</time></trkpt><trkpt lat="42.3362567" lon="14.1312917"><ele>52.0</ele><time>2026-05-01T15:34:36.945Z</time></trkpt><trkpt lat="42.3363183" lon="14.1315"><ele>52.0</ele><time>2026-05-01T15:34:37.944Z</time></trkpt><trkpt lat="42.33639" lon="14.131705"><ele>52.0</ele><time>2026-05-01T15:34:38.945Z</time></trkpt><trkpt lat="42.3364567" lon="14.1319067"><ele>52.0</ele><time>2026-05-01T15:34:39.944Z</time></trkpt><trkpt lat="42.3365483" lon="14.1320917"><ele>52.0</ele><time>2026-05-01T15:34:40.945Z</time></trkpt><trkpt lat="42.336645" lon="14.1322767"><ele>52.0</ele><time>2026-05-01T15:34:41.945Z</time></trkpt><trkpt lat="42.3367617" lon="14.1324567"><ele>52.0</ele><time>2026-05-01T15:34:42.945Z</time></trkpt><trkpt lat="42.3369" lon="14.1325917"><ele>52.666666666666664</ele><time>2026-05-01T15:34:43.945Z</time></trkpt><trkpt lat="42.3370483" lon="14.1327117"><ele>53.33333333333333</ele><time>2026-05-01T15:34:44.945Z</time></trkpt><trkpt lat="42.3371883" lon="14.1328117"><ele>54.0</ele><time>2026-05-01T15:34:45.944Z</time></trkpt><trkpt lat="42.3373267" lon="14.13289"><ele>54.25</ele><time>2026-05-01T15:34:46.945Z</time></trkpt><trkpt lat="42.337465" lon="14.1329433"><ele>54.5</ele><time>2026-05-01T15:34:47.944Z</time></trkpt><trkpt lat="42.3376083" lon="14.133"><ele>54.75</ele><time>2026-05-01T15:34:48.943Z</time></trkpt><trkpt lat="42.3377583" lon="14.133025"><ele>55.0</ele><time>2026-05-01T15:34:49.944Z</time></trkpt><trkpt lat="42.3379133" lon="14.1330533"><ele>55.0</ele><time>2026-05-01T15:34:50.944Z</time></trkpt><trkpt lat="42.338075" lon="14.1331017"><ele>55.0</ele><time>2026-05-01T15:34:51.944Z</time></trkpt><trkpt lat="42.3382183" lon="14.1331383"><ele>55.0</ele><time>2026-05-01T15:34:52.944Z</time></trkpt><trkpt lat="42.3383517" lon="14.1331883"><ele>55.0</ele><time>2026-05-01T15:34:53.944Z</time></trkpt><trkpt lat="42.338475" lon="14.1332217"><ele>55.0</ele><time>2026-05-01T15:34:54.943Z</time></trkpt><trkpt lat="42.3385917" lon="14.1332483"><ele>55.0</ele><time>2026-05-01T15:34:55.943Z</time></trkpt><trkpt lat="42.338705" lon="14.13329"><ele>55.0</ele><time>2026-05-01T15:34:56.944Z</time></trkpt><trkpt lat="42.3388317" lon="14.13332"><ele>55.25</ele><time>2026-05-01T15:34:57.944Z</time></trkpt><trkpt lat="42.33896" lon="14.13336"><ele>55.5</ele><time>2026-05-01T15:34:58.944Z</time></trkpt><trkpt lat="42.3390983" lon="14.1334133"><ele>55.75</ele><time>2026-05-01T15:34:59.944Z</time></trkpt><trkpt lat="42.3392483" lon="14.1334533"><ele>56.0</ele><time>2026-05-01T15:35:00.943Z</time></trkpt><trkpt lat="42.3393983" lon="14.1335033"><ele>56.0</ele><time>2026-05-01T15:35:01.943Z</time></trkpt><trkpt lat="42.3395417" lon="14.1335483"><ele>56.0</ele><time>2026-05-01T15:35:02.944Z</time></trkpt><trkpt lat="42.3396783" lon="14.133585"><ele>56.0</ele><time>2026-05-01T15:35:03.943Z</time></trkpt><trkpt lat="42.33981" lon="14.1336317"><ele>56.0</ele><time>2026-05-01T15:35:04.944Z</time></trkpt><trkpt lat="42.3399317" lon="14.13367"><ele>55.8</ele><time>2026-05-01T15:35:05.944Z</time></trkpt><trkpt lat="42.340035" lon="14.1337083"><ele>55.599999999999994</ele><time>2026-05-01T15:35:06.943Z</time></trkpt><trkpt lat="42.3401383" lon="14.1337383"><ele>55.4</ele><time>2026-05-01T15:35:07.943Z</time></trkpt><trkpt lat="42.3402233" lon="14.1337633"><ele>55.2</ele><time>2026-05-01T15:35:08.944Z</time></trkpt><trkpt lat="42.3403" lon="14.133795"><ele>55.0</ele><time>2026-05-01T15:35:09.943Z</time></trkpt><trkpt lat="42.3403667" lon="14.1338233"><ele>55.0</ele><time>2026-05-01T15:35:11.943Z</time></trkpt><trkpt lat="42.3404383" lon="14.1338933"><ele>55.0</ele><time>2026-05-01T15:35:15.943Z</time></trkpt><trkpt lat="42.340505" lon="14.1339767"><ele>55.0</ele><time>2026-05-01T15:35:17.944Z</time></trkpt><trkpt lat="42.3405767" lon="14.1340167"><ele>55.0</ele><time>2026-05-01T15:35:19.943Z</time></trkpt><trkpt lat="42.3406633" lon="14.1339583"><ele>55.0</ele><time>2026-05-01T15:35:21.944Z</time></trkpt><trkpt lat="42.3407017" lon="14.13382"><ele>54.5</ele><time>2026-05-01T15:35:23.943Z</time></trkpt><trkpt lat="42.340665" lon="14.1336617"><ele>54.0</ele><time>2026-05-01T15:35:25.943Z</time></trkpt><trkpt lat="42.3406733" lon="14.133475"><ele>53.5</ele><time>2026-05-01T15:35:27.944Z</time></trkpt><trkpt lat="42.3407117" lon="14.1333633"><ele>53.0</ele><time>2026-05-01T15:35:28.943Z</time></trkpt><trkpt lat="42.3407717" lon="14.133255"><ele>52.5</ele><time>2026-05-01T15:35:29.944Z</time></trkpt><trkpt lat="42.340835" lon="14.1331467"><ele>52.0</ele><time>2026-05-01T15:35:30.944Z</time></trkpt><trkpt lat="42.340905" lon="14.1330283"><ele>51.5</ele><time>2026-05-01T15:35:31.944Z</time></trkpt><trkpt lat="42.34098" lon="14.1329083"><ele>51.0</ele><time>2026-05-01T15:35:32.944Z</time></trkpt><trkpt lat="42.3410517" lon="14.13276"><ele>51.0</ele><time>2026-05-01T15:35:33.944Z</time></trkpt><trkpt lat="42.34113" lon="14.1326467"><ele>51.0</ele><time>2026-05-01T15:35:34.943Z</time></trkpt><trkpt lat="42.3412033" lon="14.13255"><ele>51.0</ele><time>2026-05-01T15:35:35.943Z</time></trkpt><trkpt lat="42.3412633" lon="14.1324517"><ele>51.0</ele><time>2026-05-01T15:35:36.944Z</time></trkpt><trkpt lat="42.3413217" lon="14.1323583"><ele>51.0</ele><time>2026-05-01T15:35:37.944Z</time></trkpt><trkpt lat="42.341375" lon="14.1322717"><ele>50.4</ele><time>2026-05-01T15:35:38.944Z</time></trkpt><trkpt lat="42.3414217" lon="14.13219"><ele>49.8</ele><time>2026-05-01T15:35:39.944Z</time></trkpt><trkpt lat="42.3414633" lon="14.1321083"><ele>49.199999999999996</ele><time>2026-05-01T15:35:40.944Z</time></trkpt><trkpt lat="42.3415217" lon="14.1319633"><ele>48.599999999999994</ele><time>2026-05-01T15:35:42.944Z</time></trkpt><trkpt lat="42.3415467" lon="14.13188"><ele>48.0</ele><time>2026-05-01T15:35:43.943Z</time></trkpt><trkpt lat="42.3415867" lon="14.131725"><ele>48.0</ele><time>2026-05-01T15:35:45.943Z</time></trkpt><trkpt lat="42.3416217" lon="14.1315667"><ele>48.0</ele><time>2026-05-01T15:35:47.944Z</time></trkpt><trkpt lat="42.3416883" lon="14.1314417"><ele>48.0</ele><time>2026-05-01T15:35:49.944Z</time></trkpt><trkpt lat="42.34174" lon="14.1313233"><ele>48.0</ele><time>2026-05-01T15:35:51.944Z</time></trkpt><trkpt lat="42.3417767" lon="14.1312367"><ele>48.0</ele><time>2026-05-01T15:35:52.943Z</time></trkpt><trkpt lat="42.3418133" lon="14.13115"><ele>47.833333333333336</ele><time>2026-05-01T15:35:53.943Z</time></trkpt><trkpt lat="42.3418417" lon="14.13104"><ele>47.666666666666664</ele><time>2026-05-01T15:35:54.944Z</time></trkpt><trkpt lat="42.3418583" lon="14.1309283"><ele>47.5</ele><time>2026-05-01T15:35:55.943Z</time></trkpt><trkpt lat="42.3418767" lon="14.1308083"><ele>47.33333333333333</ele><time>2026-05-01T15:35:56.944Z</time></trkpt><trkpt lat="42.3419033" lon="14.1306933"><ele>47.166666666666664</ele><time>2026-05-01T15:35:57.944Z</time></trkpt><trkpt lat="42.3419283" lon="14.1305683"><ele>47.0</ele><time>2026-05-01T15:35:58.943Z</time></trkpt><trkpt lat="42.341945" lon="14.1304517"><ele>46.83333333333333</ele><time>2026-05-01T15:35:59.943Z</time></trkpt><trkpt lat="42.3419717" lon="14.13035"><ele>46.666666666666664</ele><time>2026-05-01T15:36:00.944Z</time></trkpt><trkpt lat="42.342" lon="14.1302533"><ele>46.5</ele><time>2026-05-01T15:36:01.944Z</time></trkpt><trkpt lat="42.3420267" lon="14.1301683"><ele>46.333333333333336</ele><time>2026-05-01T15:36:02.944Z</time></trkpt><trkpt lat="42.342045" lon="14.1300783"><ele>46.16666666666667</ele><time>2026-05-01T15:36:03.944Z</time></trkpt><trkpt lat="42.3420683" lon="14.1299367"><ele>46.0</ele><time>2026-05-01T15:36:05.944Z</time></trkpt><trkpt lat="42.3420783" lon="14.1298083"><ele>45.66666666666667</ele><time>2026-05-01T15:36:07.944Z</time></trkpt><trkpt lat="42.3421483" lon="14.1296567"><ele>45.333333333333336</ele><time>2026-05-01T15:36:09.944Z</time></trkpt><trkpt lat="42.3421767" lon="14.1295633"><ele>45.0</ele><time>2026-05-01T15:36:10.944Z</time></trkpt><trkpt lat="42.3421883" lon="14.1294717"><ele>44.666666666666664</ele><time>2026-05-01T15:36:11.944Z</time></trkpt><trkpt lat="42.3421817" lon="14.12938"><ele>44.33333333333333</ele><time>2026-05-01T15:36:12.944Z</time></trkpt><trkpt lat="42.3421583" lon="14.1292967"><ele>44.0</ele><time>2026-05-01T15:36:13.943Z</time></trkpt><trkpt lat="42.3421067" lon="14.129215"><ele>44.0</ele><time>2026-05-01T15:36:14.944Z</time></trkpt><trkpt lat="42.3420417" lon="14.1291517"><ele>44.0</ele><time>2026-05-01T15:36:15.943Z</time></trkpt><trkpt lat="42.3419817" lon="14.1290833"><ele>44.0</ele><time>2026-05-01T15:36:16.944Z</time></trkpt><trkpt lat="42.34193" lon="14.1290033"><ele>44.0</ele><time>2026-05-01T15:36:17.943Z</time></trkpt><trkpt lat="42.34189" lon="14.1288983"><ele>44.0</ele><time>2026-05-01T15:36:18.944Z</time></trkpt><trkpt lat="42.341855" lon="14.1287767"><ele>44.0</ele><time>2026-05-01T15:36:19.944Z</time></trkpt><trkpt lat="42.3418233" lon="14.128635"><ele>43.0</ele><time>2026-05-01T15:36:20.944Z</time></trkpt><trkpt lat="42.341795" lon="14.12849"><ele>42.0</ele><time>2026-05-01T15:36:21.943Z</time></trkpt><trkpt lat="42.34176" lon="14.1283633"><ele>41.0</ele><time>2026-05-01T15:36:22.943Z</time></trkpt><trkpt lat="42.341735" lon="14.1282267"><ele>40.0</ele><time>2026-05-01T15:36:23.944Z</time></trkpt><trkpt lat="42.3417117" lon="14.1280783"><ele>39.0</ele><time>2026-05-01T15:36:24.944Z</time></trkpt><trkpt lat="42.3416783" lon="14.12792"><ele>38.5</ele><time>2026-05-01T15:36:25.943Z</time></trkpt><trkpt lat="42.3416517" lon="14.1277633"><ele>38.0</ele><time>2026-05-01T15:36:26.944Z</time></trkpt><trkpt lat="42.3416233" lon="14.1276133"><ele>37.5</ele><time>2026-05-01T15:36:27.944Z</time></trkpt><trkpt lat="42.3415967" lon="14.12746"><ele>37.0</ele><time>2026-05-01T15:36:28.944Z</time></trkpt><trkpt lat="42.3415733" lon="14.1273033"><ele>36.5</ele><time>2026-05-01T15:36:29.943Z</time></trkpt><trkpt lat="42.3415517" lon="14.1271433"><ele>36.0</ele><time>2026-05-01T15:36:30.943Z</time></trkpt><trkpt lat="42.3415283" lon="14.1269917"><ele>35.5</ele><time>2026-05-01T15:36:31.944Z</time></trkpt><trkpt lat="42.3415067" lon="14.1268467"><ele>35.0</ele><time>2026-05-01T15:36:32.944Z</time></trkpt><trkpt lat="42.3414817" lon="14.1267067"><ele>35.0</ele><time>2026-05-01T15:36:33.944Z</time></trkpt><trkpt lat="42.34146" lon="14.1265683"><ele>35.0</ele><time>2026-05-01T15:36:34.943Z</time></trkpt><trkpt lat="42.3414367" lon="14.1264267"><ele>35.0</ele><time>2026-05-01T15:36:35.944Z</time></trkpt><trkpt lat="42.34141" lon="14.12628"><ele>35.0</ele><time>2026-05-01T15:36:36.944Z</time></trkpt><trkpt lat="42.3413833" lon="14.126125"><ele>35.0</ele><time>2026-05-01T15:36:37.944Z</time></trkpt><trkpt lat="42.34136" lon="14.125965"><ele>35.0</ele><time>2026-05-01T15:36:38.943Z</time></trkpt><trkpt lat="42.3413333" lon="14.1258133"><ele>35.0</ele><time>2026-05-01T15:36:39.943Z</time></trkpt><trkpt lat="42.3413033" lon="14.12566"><ele>35.0</ele><time>2026-05-01T15:36:40.943Z</time></trkpt><trkpt lat="42.3412767" lon="14.1255183"><ele>35.0</ele><time>2026-05-01T15:36:41.944Z</time></trkpt><trkpt lat="42.3412533" lon="14.1253833"><ele>35.0</ele><time>2026-05-01T15:36:42.944Z</time></trkpt><trkpt lat="42.341235" lon="14.12524"><ele>35.0</ele><time>2026-05-01T15:36:43.944Z</time></trkpt><trkpt lat="42.341205" lon="14.1250933"><ele>35.0</ele><time>2026-05-01T15:36:44.944Z</time></trkpt><trkpt lat="42.3411817" lon="14.124945"><ele>35.0</ele><time>2026-05-01T15:36:45.944Z</time></trkpt><trkpt lat="42.3411567" lon="14.1247983"><ele>35.0</ele><time>2026-05-01T15:36:46.944Z</time></trkpt><trkpt lat="42.341135" lon="14.1246483"><ele>35.0</ele><time>2026-05-01T15:36:47.943Z</time></trkpt><trkpt lat="42.34111" lon="14.1245017"><ele>35.0</ele><time>2026-05-01T15:36:48.944Z</time></trkpt><trkpt lat="42.3410867" lon="14.1243617"><ele>35.0</ele><time>2026-05-01T15:36:49.944Z</time></trkpt><trkpt lat="42.34107" lon="14.1242267"><ele>35.0</ele><time>2026-05-01T15:36:50.944Z</time></trkpt><trkpt lat="42.341055" lon="14.1240933"><ele>35.0</ele><time>2026-05-01T15:36:51.944Z</time></trkpt><trkpt lat="42.3410333" lon="14.1239567"><ele>35.0</ele><time>2026-05-01T15:36:52.944Z</time></trkpt><trkpt lat="42.34101" lon="14.123815"><ele>35.0</ele><time>2026-05-01T15:36:53.943Z</time></trkpt><trkpt lat="42.3409833" lon="14.123675"><ele>35.0</ele><time>2026-05-01T15:36:54.943Z</time></trkpt><trkpt lat="42.3409583" lon="14.12353"><ele>35.0</ele><time>2026-05-01T15:36:55.944Z</time></trkpt><trkpt lat="42.3409333" lon="14.1233817"><ele>35.0</ele><time>2026-05-01T15:36:56.944Z</time></trkpt><trkpt lat="42.3409117" lon="14.12323"><ele>35.0</ele><time>2026-05-01T15:36:57.944Z</time></trkpt><trkpt lat="42.34088" lon="14.123085"><ele>35.0</ele><time>2026-05-01T15:36:58.944Z</time></trkpt><trkpt lat="42.3408533" lon="14.1229467"><ele>35.0</ele><time>2026-05-01T15:36:59.944Z</time></trkpt><trkpt lat="42.3408367" lon="14.1228083"><ele>35.0</ele><time>2026-05-01T15:37:00.944Z</time></trkpt><trkpt lat="42.34082" lon="14.12268"><ele>35.0</ele><time>2026-05-01T15:37:01.943Z</time></trkpt><trkpt lat="42.3408067" lon="14.1225467"><ele>35.0</ele><time>2026-05-01T15:37:02.944Z</time></trkpt><trkpt lat="42.3408" lon="14.1224067"><ele>34.83333333333333</ele><time>2026-05-01T15:37:03.944Z</time></trkpt><trkpt lat="42.3407983" lon="14.1222783"><ele>34.666666666666664</ele><time>2026-05-01T15:37:04.944Z</time></trkpt><trkpt lat="42.3407967" lon="14.1221633"><ele>34.5</ele><time>2026-05-01T15:37:05.943Z</time></trkpt><trkpt lat="42.3408117" lon="14.12205"><ele>34.333333333333336</ele><time>2026-05-01T15:37:06.944Z</time></trkpt><trkpt lat="42.340825" lon="14.1219383"><ele>34.16666666666667</ele><time>2026-05-01T15:37:07.944Z</time></trkpt><trkpt lat="42.3408517" lon="14.1218333"><ele>34.0</ele><time>2026-05-01T15:37:08.943Z</time></trkpt><trkpt lat="42.3408917" lon="14.12173"><ele>34.0</ele><time>2026-05-01T15:37:09.944Z</time></trkpt><trkpt lat="42.3409517" lon="14.1216467"><ele>34.0</ele><time>2026-05-01T15:37:10.943Z</time></trkpt><trkpt lat="42.34103" lon="14.1215783"><ele>34.0</ele><time>2026-05-01T15:37:11.943Z</time></trkpt><trkpt lat="42.3411" lon="14.1215317"><ele>34.0</ele><time>2026-05-01T15:37:12.944Z</time></trkpt><trkpt lat="42.341155" lon="14.1214617"><ele>34.0</ele><time>2026-05-01T15:37:13.943Z</time></trkpt><trkpt lat="42.34119" lon="14.1213117"><ele>34.0</ele><time>2026-05-01T15:37:15.943Z</time></trkpt><trkpt lat="42.3411917" lon="14.121215"><ele>33.833333333333336</ele><time>2026-05-01T15:37:16.944Z</time></trkpt><trkpt lat="42.3411983" lon="14.12111"><ele>33.66666666666667</ele><time>2026-05-01T15:37:17.944Z</time></trkpt><trkpt lat="42.3412183" lon="14.1210083"><ele>33.5</ele><time>2026-05-01T15:37:18.944Z</time></trkpt><trkpt lat="42.341255" lon="14.1208967"><ele>33.333333333333336</ele><time>2026-05-01T15:37:19.944Z</time></trkpt><trkpt lat="42.3413067" lon="14.120785"><ele>33.166666666666664</ele><time>2026-05-01T15:37:20.943Z</time></trkpt><trkpt lat="42.3413683" lon="14.1206717"><ele>33.0</ele><time>2026-05-01T15:37:21.944Z</time></trkpt><trkpt lat="42.3414383" lon="14.1205517"><ele>33.0</ele><time>2026-05-01T15:37:22.944Z</time></trkpt><trkpt lat="42.3415083" lon="14.120425"><ele>33.0</ele><time>2026-05-01T15:37:23.944Z</time></trkpt><trkpt lat="42.3415783" lon="14.1203"><ele>33.0</ele><time>2026-05-01T15:37:24.943Z</time></trkpt><trkpt lat="42.3416467" lon="14.12017"><ele>33.0</ele><time>2026-05-01T15:37:25.944Z</time></trkpt><trkpt lat="42.34172" lon="14.120045"><ele>33.0</ele><time>2026-05-01T15:37:26.944Z</time></trkpt><trkpt lat="42.3417883" lon="14.119925"><ele>33.0</ele><time>2026-05-01T15:37:27.944Z</time></trkpt><trkpt lat="42.3418517" lon="14.1198167"><ele>33.0</ele><time>2026-05-01T15:37:28.944Z</time></trkpt><trkpt lat="42.341915" lon="14.1197017"><ele>33.0</ele><time>2026-05-01T15:37:29.944Z</time></trkpt><trkpt lat="42.34198" lon="14.1195933"><ele>33.0</ele><time>2026-05-01T15:37:30.944Z</time></trkpt><trkpt lat="42.3420433" lon="14.119465"><ele>33.0</ele><time>2026-05-01T15:37:31.944Z</time></trkpt><trkpt lat="42.3421117" lon="14.119355"><ele>33.0</ele><time>2026-05-01T15:37:32.944Z</time></trkpt><trkpt lat="42.342175" lon="14.1192467"><ele>33.0</ele><time>2026-05-01T15:37:33.944Z</time></trkpt><trkpt lat="42.3422433" lon="14.1191217"><ele>33.0</ele><time>2026-05-01T15:37:34.944Z</time></trkpt><trkpt lat="42.34231" lon="14.1189917"><ele>33.0</ele><time>2026-05-01T15:37:35.944Z</time></trkpt><trkpt lat="42.3423717" lon="14.11884"><ele>33.0</ele><time>2026-05-01T15:37:36.943Z</time></trkpt><trkpt lat="42.342425" lon="14.1186733"><ele>33.0</ele><time>2026-05-01T15:37:37.943Z</time></trkpt><trkpt lat="42.342475" lon="14.11851"><ele>33.0</ele><time>2026-05-01T15:37:38.944Z</time></trkpt><trkpt lat="42.3425183" lon="14.1183483"><ele>33.0</ele><time>2026-05-01T15:37:39.943Z</time></trkpt><trkpt lat="42.3425517" lon="14.1181933"><ele>34.5</ele><time>2026-05-01T15:37:40.944Z</time></trkpt><trkpt lat="42.3425767" lon="14.118035"><ele>36.0</ele><time>2026-05-01T15:37:41.944Z</time></trkpt><trkpt lat="42.3426083" lon="14.1178767"><ele>37.5</ele><time>2026-05-01T15:37:42.943Z</time></trkpt><trkpt lat="42.342635" lon="14.1177267"><ele>39.0</ele><time>2026-05-01T15:37:43.943Z</time></trkpt><trkpt lat="42.342665" lon="14.1175733"><ele>39.0</ele><time>2026-05-01T15:37:44.944Z</time></trkpt><trkpt lat="42.3426983" lon="14.1174167"><ele>39.0</ele><time>2026-05-01T15:37:45.944Z</time></trkpt><trkpt lat="42.3427233" lon="14.1172633"><ele>39.0</ele><time>2026-05-01T15:37:46.942Z</time></trkpt><trkpt lat="42.34275" lon="14.1171167"><ele>39.0</ele><time>2026-05-01T15:37:47.943Z</time></trkpt><trkpt lat="42.342785" lon="14.116985"><ele>40.5</ele><time>2026-05-01T15:37:48.943Z</time></trkpt><trkpt lat="42.342805" lon="14.1168267"><ele>42.0</ele><time>2026-05-01T15:37:49.943Z</time></trkpt><trkpt lat="42.3428433" lon="14.1166667"><ele>43.5</ele><time>2026-05-01T15:37:50.943Z</time></trkpt><trkpt lat="42.3428667" lon="14.11651"><ele>45.0</ele><time>2026-05-01T15:37:51.943Z</time></trkpt><trkpt lat="42.3428967" lon="14.1163383"><ele>45.25</ele><time>2026-05-01T15:37:52.942Z</time></trkpt><trkpt lat="42.342925" lon="14.1161667"><ele>45.5</ele><time>2026-05-01T15:37:53.943Z</time></trkpt><trkpt lat="42.3429633" lon="14.1160117"><ele>45.75</ele><time>2026-05-01T15:37:54.943Z</time></trkpt><trkpt lat="42.34299" lon="14.1158517"><ele>46.0</ele><time>2026-05-01T15:37:55.943Z</time></trkpt><trkpt lat="42.3430117" lon="14.1156917"><ele>46.5</ele><time>2026-05-01T15:37:56.943Z</time></trkpt><trkpt lat="42.3430367" lon="14.1155317"><ele>47.0</ele><time>2026-05-01T15:37:57.942Z</time></trkpt><trkpt lat="42.343065" lon="14.11537"><ele>47.5</ele><time>2026-05-01T15:37:58.943Z</time></trkpt><trkpt lat="42.3430933" lon="14.1151933"><ele>48.0</ele><time>2026-05-01T15:37:59.943Z</time></trkpt><trkpt lat="42.3431283" lon="14.11503"><ele>48.0</ele><time>2026-05-01T15:38:00.943Z</time></trkpt><trkpt lat="42.3431483" lon="14.11487"><ele>48.0</ele><time>2026-05-01T15:38:01.943Z</time></trkpt><trkpt lat="42.34317" lon="14.1147133"><ele>48.0</ele><time>2026-05-01T15:38:02.943Z</time></trkpt><trkpt lat="42.3431933" lon="14.1145583"><ele>48.0</ele><time>2026-05-01T15:38:03.943Z</time></trkpt><trkpt lat="42.3432117" lon="14.1144033"><ele>48.0</ele><time>2026-05-01T15:38:04.943Z</time></trkpt><trkpt lat="42.3432317" lon="14.1142533"><ele>48.0</ele><time>2026-05-01T15:38:05.943Z</time></trkpt><trkpt lat="42.3432533" lon="14.114095"><ele>48.0</ele><time>2026-05-01T15:38:06.943Z</time></trkpt><trkpt lat="42.3432717" lon="14.1139333"><ele>48.0</ele><time>2026-05-01T15:38:07.943Z</time></trkpt><trkpt lat="42.3432967" lon="14.113765"><ele>47.75</ele><time>2026-05-01T15:38:08.943Z</time></trkpt><trkpt lat="42.3433133" lon="14.113595"><ele>47.5</ele><time>2026-05-01T15:38:09.943Z</time></trkpt><trkpt lat="42.3433367" lon="14.113435"><ele>47.25</ele><time>2026-05-01T15:38:10.942Z</time></trkpt><trkpt lat="42.3433567" lon="14.113275"><ele>47.0</ele><time>2026-05-01T15:38:11.943Z</time></trkpt><trkpt lat="42.3433767" lon="14.1131117"><ele>47.0</ele><time>2026-05-01T15:38:12.942Z</time></trkpt><trkpt lat="42.3433967" lon="14.1129483"><ele>47.0</ele><time>2026-05-01T15:38:13.943Z</time></trkpt><trkpt lat="42.3434233" lon="14.112785"><ele>47.0</ele><time>2026-05-01T15:38:14.943Z</time></trkpt><trkpt lat="42.343435" lon="14.1126417"><ele>47.0</ele><time>2026-05-01T15:38:15.943Z</time></trkpt><trkpt lat="42.3434433" lon="14.1125017"><ele>47.0</ele><time>2026-05-01T15:38:16.942Z</time></trkpt><trkpt lat="42.3434583" lon="14.1123733"><ele>47.0</ele><time>2026-05-01T15:38:17.943Z</time></trkpt><trkpt lat="42.343475" lon="14.112245"><ele>47.0</ele><time>2026-05-01T15:38:18.943Z</time></trkpt><trkpt lat="42.3434967" lon="14.1121183"><ele>47.0</ele><time>2026-05-01T15:38:19.943Z</time></trkpt><trkpt lat="42.3435117" lon="14.1119933"><ele>47.0</ele><time>2026-05-01T15:38:20.943Z</time></trkpt><trkpt lat="42.3435333" lon="14.1118817"><ele>47.0</ele><time>2026-05-01T15:38:21.943Z</time></trkpt><trkpt lat="42.34355" lon="14.1117717"><ele>47.0</ele><time>2026-05-01T15:38:22.942Z</time></trkpt><trkpt lat="42.3435633" lon="14.111675"><ele>47.0</ele><time>2026-05-01T15:38:23.943Z</time></trkpt><trkpt lat="42.34358" lon="14.11159"><ele>47.0</ele><time>2026-05-01T15:38:24.943Z</time></trkpt><trkpt lat="42.3436033" lon="14.11151"><ele>47.0</ele><time>2026-05-01T15:38:25.943Z</time></trkpt><trkpt lat="42.343685" lon="14.1114383"><ele>47.0</ele><time>2026-05-01T15:38:27.943Z</time></trkpt><trkpt lat="42.3437983" lon="14.11148"><ele>47.2</ele><time>2026-05-01T15:38:29.942Z</time></trkpt><trkpt lat="42.3438667" lon="14.1115283"><ele>47.400000000000006</ele><time>2026-05-01T15:38:30.943Z</time></trkpt><trkpt lat="42.3439433" lon="14.11158"><ele>47.599999999999994</ele><time>2026-05-01T15:38:31.942Z</time></trkpt><trkpt lat="42.3440233" lon="14.1116333"><ele>47.8</ele><time>2026-05-01T15:38:32.942Z</time></trkpt><trkpt lat="42.344115" lon="14.1116883"><ele>48.0</ele><time>2026-05-01T15:38:33.943Z</time></trkpt><trkpt lat="42.3442083" lon="14.1117433"><ele>48.0</ele><time>2026-05-01T15:38:34.943Z</time></trkpt><trkpt lat="42.344315" lon="14.1118133"><ele>48.0</ele><time>2026-05-01T15:38:35.942Z</time></trkpt><trkpt lat="42.3444117" lon="14.111875"><ele>48.0</ele><time>2026-05-01T15:38:36.943Z</time></trkpt><trkpt lat="42.344505" lon="14.1119283"><ele>48.0</ele><time>2026-05-01T15:38:37.943Z</time></trkpt><trkpt lat="42.344595" lon="14.11199"><ele>48.0</ele><time>2026-05-01T15:38:38.942Z</time></trkpt><trkpt lat="42.3446917" lon="14.1120533"><ele>47.4</ele><time>2026-05-01T15:38:39.943Z</time></trkpt><trkpt lat="42.34479" lon="14.1121283"><ele>46.8</ele><time>2026-05-01T15:38:40.943Z</time></trkpt><trkpt lat="42.3448967" lon="14.1121833"><ele>46.2</ele><time>2026-05-01T15:38:41.943Z</time></trkpt><trkpt lat="42.3449917" lon="14.1122517"><ele>45.6</ele><time>2026-05-01T15:38:42.943Z</time></trkpt><trkpt lat="42.3450933" lon="14.11231"><ele>45.0</ele><time>2026-05-01T15:38:43.942Z</time></trkpt><trkpt lat="42.3452017" lon="14.1123533"><ele>45.0</ele><time>2026-05-01T15:38:44.943Z</time></trkpt><trkpt lat="42.3453083" lon="14.112405"><ele>45.0</ele><time>2026-05-01T15:38:45.942Z</time></trkpt><trkpt lat="42.3454167" lon="14.1124417"><ele>45.0</ele><time>2026-05-01T15:38:46.943Z</time></trkpt><trkpt lat="42.34552" lon="14.1124717"><ele>45.0</ele><time>2026-05-01T15:38:47.943Z</time></trkpt><trkpt lat="42.345625" lon="14.112495"><ele>45.0</ele><time>2026-05-01T15:38:48.943Z</time></trkpt><trkpt lat="42.345735" lon="14.1125217"><ele>45.25</ele><time>2026-05-01T15:38:49.942Z</time></trkpt><trkpt lat="42.3458617" lon="14.1125533"><ele>45.5</ele><time>2026-05-01T15:38:50.943Z</time></trkpt><trkpt lat="42.3459967" lon="14.1125867"><ele>45.75</ele><time>2026-05-01T15:38:51.943Z</time></trkpt><trkpt lat="42.3461583" lon="14.112625"><ele>46.0</ele><time>2026-05-01T15:38:52.943Z</time></trkpt><trkpt lat="42.3463467" lon="14.1126933"><ele>45.333333333333336</ele><time>2026-05-01T15:38:53.943Z</time></trkpt><trkpt lat="42.3465417" lon="14.112795"><ele>44.666666666666664</ele><time>2026-05-01T15:38:54.943Z</time></trkpt><trkpt lat="42.3467417" lon="14.11291"><ele>44.0</ele><time>2026-05-01T15:38:55.943Z</time></trkpt><trkpt lat="42.3469317" lon="14.1130133"><ele>44.0</ele><time>2026-05-01T15:38:56.943Z</time></trkpt><trkpt lat="42.3471067" lon="14.1131033"><ele>44.0</ele><time>2026-05-01T15:38:57.942Z</time></trkpt><trkpt lat="42.3472717" lon="14.113195"><ele>44.0</ele><time>2026-05-01T15:38:58.943Z</time></trkpt><trkpt lat="42.3474267" lon="14.1132717"><ele>44.25</ele><time>2026-05-01T15:38:59.943Z</time></trkpt><trkpt lat="42.3475717" lon="14.1133383"><ele>44.5</ele><time>2026-05-01T15:39:00.943Z</time></trkpt><trkpt lat="42.3477067" lon="14.113405"><ele>44.75</ele><time>2026-05-01T15:39:01.943Z</time></trkpt><trkpt lat="42.3478383" lon="14.1134767"><ele>45.0</ele><time>2026-05-01T15:39:02.942Z</time></trkpt><trkpt lat="42.3479633" lon="14.113545"><ele>45.0</ele><time>2026-05-01T15:39:03.943Z</time></trkpt><trkpt lat="42.3480867" lon="14.113605"><ele>45.0</ele><time>2026-05-01T15:39:04.942Z</time></trkpt><trkpt lat="42.3482083" lon="14.11363"><ele>45.0</ele><time>2026-05-01T15:39:05.943Z</time></trkpt><trkpt lat="42.3483267" lon="14.11364"><ele>45.0</ele><time>2026-05-01T15:39:06.943Z</time></trkpt><trkpt lat="42.3484433" lon="14.1136167"><ele>45.0</ele><time>2026-05-01T15:39:07.943Z</time></trkpt><trkpt lat="42.34857" lon="14.1135567"><ele>45.0</ele><time>2026-05-01T15:39:08.943Z</time></trkpt><trkpt lat="42.348705" lon="14.1134817"><ele>45.0</ele><time>2026-05-01T15:39:09.942Z</time></trkpt><trkpt lat="42.3488433" lon="14.11341"><ele>45.0</ele><time>2026-05-01T15:39:10.943Z</time></trkpt><trkpt lat="42.3489817" lon="14.1133183"><ele>44.0</ele><time>2026-05-01T15:39:11.943Z</time></trkpt><trkpt lat="42.349115" lon="14.11323"><ele>43.0</ele><time>2026-05-01T15:39:12.942Z</time></trkpt><trkpt lat="42.3492467" lon="14.113135"><ele>42.0</ele><time>2026-05-01T15:39:13.943Z</time></trkpt><trkpt lat="42.3493767" lon="14.1130467"><ele>41.0</ele><time>2026-05-01T15:39:14.943Z</time></trkpt><trkpt lat="42.3495033" lon="14.1129667"><ele>41.0</ele><time>2026-05-01T15:39:15.943Z</time></trkpt><trkpt lat="42.3496267" lon="14.112885"><ele>41.0</ele><time>2026-05-01T15:39:16.943Z</time></trkpt><trkpt lat="42.3497467" lon="14.1128067"><ele>41.0</ele><time>2026-05-01T15:39:17.943Z</time></trkpt><trkpt lat="42.349855" lon="14.1127317"><ele>41.0</ele><time>2026-05-01T15:39:18.942Z</time></trkpt><trkpt lat="42.3499633" lon="14.1126583"><ele>41.75</ele><time>2026-05-01T15:39:19.942Z</time></trkpt><trkpt lat="42.3500883" lon="14.1126033"><ele>42.5</ele><time>2026-05-01T15:39:20.943Z</time></trkpt><trkpt lat="42.3502267" lon="14.1125567"><ele>43.25</ele><time>2026-05-01T15:39:21.943Z</time></trkpt><trkpt lat="42.3503733" lon="14.11252"><ele>44.0</ele><time>2026-05-01T15:39:22.943Z</time></trkpt><trkpt lat="42.3505233" lon="14.1125083"><ele>44.0</ele><time>2026-05-01T15:39:23.943Z</time></trkpt><trkpt lat="42.3506733" lon="14.1125133"><ele>44.0</ele><time>2026-05-01T15:39:24.943Z</time></trkpt><trkpt lat="42.35082" lon="14.1125333"><ele>44.0</ele><time>2026-05-01T15:39:25.943Z</time></trkpt><trkpt lat="42.3509617" lon="14.1125683"><ele>44.0</ele><time>2026-05-01T15:39:26.943Z</time></trkpt><trkpt lat="42.35111" lon="14.112605"><ele>44.0</ele><time>2026-05-01T15:39:27.942Z</time></trkpt><trkpt lat="42.3512533" lon="14.1126583"><ele>44.0</ele><time>2026-05-01T15:39:28.943Z</time></trkpt><trkpt lat="42.3514067" lon="14.1127067"><ele>44.0</ele><time>2026-05-01T15:39:29.942Z</time></trkpt><trkpt lat="42.3515567" lon="14.1127717"><ele>42.666666666666664</ele><time>2026-05-01T15:39:30.943Z</time></trkpt><trkpt lat="42.3517033" lon="14.1128483"><ele>41.333333333333336</ele><time>2026-05-01T15:39:31.942Z</time></trkpt><trkpt lat="42.351855" lon="14.1129117"><ele>40.0</ele><time>2026-05-01T15:39:32.943Z</time></trkpt><trkpt lat="42.3520133" lon="14.1129733"><ele>40.0</ele><time>2026-05-01T15:39:33.943Z</time></trkpt><trkpt lat="42.3521633" lon="14.11303"><ele>40.0</ele><time>2026-05-01T15:39:34.943Z</time></trkpt><trkpt lat="42.3523217" lon="14.113085"><ele>40.0</ele><time>2026-05-01T15:39:35.943Z</time></trkpt><trkpt lat="42.3524683" lon="14.113145"><ele>38.66666666666667</ele><time>2026-05-01T15:39:36.943Z</time></trkpt><trkpt lat="42.3526117" lon="14.1132033"><ele>37.333333333333336</ele><time>2026-05-01T15:39:37.942Z</time></trkpt><trkpt lat="42.3527583" lon="14.11327"><ele>36.0</ele><time>2026-05-01T15:39:38.943Z</time></trkpt><trkpt lat="42.3529083" lon="14.1133317"><ele>35.666666666666664</ele><time>2026-05-01T15:39:39.943Z</time></trkpt><trkpt lat="42.35306" lon="14.1133983"><ele>35.33333333333333</ele><time>2026-05-01T15:39:40.942Z</time></trkpt><trkpt lat="42.353215" lon="14.11346"><ele>35.0</ele><time>2026-05-01T15:39:41.943Z</time></trkpt><trkpt lat="42.35337" lon="14.11352"><ele>35.0</ele><time>2026-05-01T15:39:42.942Z</time></trkpt><trkpt lat="42.3535217" lon="14.1135817"><ele>35.0</ele><time>2026-05-01T15:39:43.943Z</time></trkpt><trkpt lat="42.3536817" lon="14.1136383"><ele>35.0</ele><time>2026-05-01T15:39:44.943Z</time></trkpt><trkpt lat="42.3538383" lon="14.1136933"><ele>35.33333333333333</ele><time>2026-05-01T15:39:45.942Z</time></trkpt><trkpt lat="42.3539983" lon="14.1137583"><ele>35.666666666666664</ele><time>2026-05-01T15:39:46.943Z</time></trkpt><trkpt lat="42.3541617" lon="14.1138167"><ele>36.0</ele><time>2026-05-01T15:39:47.943Z</time></trkpt><trkpt lat="42.35432" lon="14.113875"><ele>36.0</ele><time>2026-05-01T15:39:48.943Z</time></trkpt><trkpt lat="42.3544667" lon="14.11393"><ele>36.0</ele><time>2026-05-01T15:39:49.943Z</time></trkpt><trkpt lat="42.3546083" lon="14.113995"><ele>36.0</ele><time>2026-05-01T15:39:50.943Z</time></trkpt><trkpt lat="42.3547517" lon="14.1140583"><ele>36.333333333333336</ele><time>2026-05-01T15:39:51.943Z</time></trkpt><trkpt lat="42.354905" lon="14.1141217"><ele>36.66666666666667</ele><time>2026-05-01T15:39:52.943Z</time></trkpt><trkpt lat="42.35506" lon="14.114185"><ele>37.0</ele><time>2026-05-01T15:39:53.943Z</time></trkpt><trkpt lat="42.3552183" lon="14.11425"><ele>37.0</ele><time>2026-05-01T15:39:54.943Z</time></trkpt><trkpt lat="42.3553733" lon="14.1143133"><ele>37.0</ele><time>2026-05-01T15:39:55.943Z</time></trkpt><trkpt lat="42.3555267" lon="14.1143633"><ele>37.0</ele><time>2026-05-01T15:39:56.942Z</time></trkpt><trkpt lat="42.3556817" lon="14.1144233"><ele>40.333333333333336</ele><time>2026-05-01T15:39:57.943Z</time></trkpt><trkpt lat="42.3558367" lon="14.114495"><ele>43.666666666666664</ele><time>2026-05-01T15:39:58.942Z</time></trkpt><trkpt lat="42.3559967" lon="14.11456"><ele>47.0</ele><time>2026-05-01T15:39:59.943Z</time></trkpt><trkpt lat="42.3561567" lon="14.1146183"><ele>47.0</ele><time>2026-05-01T15:40:00.942Z</time></trkpt><trkpt lat="42.3563133" lon="14.1146983"><ele>47.0</ele><time>2026-05-01T15:40:01.943Z</time></trkpt><trkpt lat="42.3564933" lon="14.1147633"><ele>47.0</ele><time>2026-05-01T15:40:02.943Z</time></trkpt><trkpt lat="42.356655" lon="14.11483"><ele>47.666666666666664</ele><time>2026-05-01T15:40:03.943Z</time></trkpt><trkpt lat="42.356815" lon="14.1148933"><ele>48.33333333333333</ele><time>2026-05-01T15:40:04.943Z</time></trkpt><trkpt lat="42.356985" lon="14.114955"><ele>49.0</ele><time>2026-05-01T15:40:05.943Z</time></trkpt><trkpt lat="42.357145" lon="14.1150233"><ele>46.33333333333333</ele><time>2026-05-01T15:40:06.943Z</time></trkpt><trkpt lat="42.357305" lon="14.1150833"><ele>43.666666666666664</ele><time>2026-05-01T15:40:07.943Z</time></trkpt><trkpt lat="42.3574667" lon="14.11515"><ele>41.0</ele><time>2026-05-01T15:40:08.943Z</time></trkpt><trkpt lat="42.3576317" lon="14.115215"><ele>41.0</ele><time>2026-05-01T15:40:09.943Z</time></trkpt><trkpt lat="42.3577967" lon="14.1152817"><ele>41.0</ele><time>2026-05-01T15:40:10.942Z</time></trkpt><trkpt lat="42.3579617" lon="14.1153467"><ele>41.0</ele><time>2026-05-01T15:40:11.942Z</time></trkpt><trkpt lat="42.358125" lon="14.1154217"><ele>41.0</ele><time>2026-05-01T15:40:12.943Z</time></trkpt><trkpt lat="42.358295" lon="14.1154917"><ele>41.0</ele><time>2026-05-01T15:40:13.942Z</time></trkpt><trkpt lat="42.35847" lon="14.115565"><ele>41.0</ele><time>2026-05-01T15:40:14.943Z</time></trkpt><trkpt lat="42.3586433" lon="14.11564"><ele>41.0</ele><time>2026-05-01T15:40:15.943Z</time></trkpt><trkpt lat="42.3588217" lon="14.1157"><ele>41.0</ele><time>2026-05-01T15:40:16.943Z</time></trkpt><trkpt lat="42.3589967" lon="14.1157667"><ele>41.0</ele><time>2026-05-01T15:40:17.943Z</time></trkpt><trkpt lat="42.3591717" lon="14.1158333"><ele>39.33333333333333</ele><time>2026-05-01T15:40:18.943Z</time></trkpt><trkpt lat="42.3593383" lon="14.1159033"><ele>37.666666666666664</ele><time>2026-05-01T15:40:19.943Z</time></trkpt><trkpt lat="42.3595" lon="14.11598"><ele>36.0</ele><time>2026-05-01T15:40:20.942Z</time></trkpt><trkpt lat="42.3596667" lon="14.1160583"><ele>36.333333333333336</ele><time>2026-05-01T15:40:21.943Z</time></trkpt><trkpt lat="42.3598433" lon="14.1161283"><ele>36.66666666666667</ele><time>2026-05-01T15:40:22.943Z</time></trkpt><trkpt lat="42.3600133" lon="14.1162033"><ele>37.0</ele><time>2026-05-01T15:40:23.943Z</time></trkpt><trkpt lat="42.3601867" lon="14.1162767"><ele>37.0</ele><time>2026-05-01T15:40:24.942Z</time></trkpt><trkpt lat="42.360365" lon="14.1163567"><ele>37.0</ele><time>2026-05-01T15:40:25.942Z</time></trkpt><trkpt lat="42.3605383" lon="14.1164267"><ele>37.0</ele><time>2026-05-01T15:40:26.943Z</time></trkpt><trkpt lat="42.36071" lon="14.1165017"><ele>34.66666666666667</ele><time>2026-05-01T15:40:27.943Z</time></trkpt><trkpt lat="42.36088" lon="14.1165767"><ele>32.333333333333336</ele><time>2026-05-01T15:40:28.942Z</time></trkpt><trkpt lat="42.361045" lon="14.1166433"><ele>30.0</ele><time>2026-05-01T15:40:29.942Z</time></trkpt><trkpt lat="42.3612067" lon="14.116725"><ele>32.0</ele><time>2026-05-01T15:40:30.943Z</time></trkpt><trkpt lat="42.3613717" lon="14.1168067"><ele>34.0</ele><time>2026-05-01T15:40:31.943Z</time></trkpt><trkpt lat="42.3615367" lon="14.1168883"><ele>36.0</ele><time>2026-05-01T15:40:32.942Z</time></trkpt><trkpt lat="42.361705" lon="14.1169567"><ele>36.0</ele><time>2026-05-01T15:40:33.943Z</time></trkpt><trkpt lat="42.3618733" lon="14.117045"><ele>36.0</ele><time>2026-05-01T15:40:34.943Z</time></trkpt><trkpt lat="42.3620467" lon="14.1171317"><ele>36.0</ele><time>2026-05-01T15:40:35.943Z</time></trkpt><trkpt lat="42.3622217" lon="14.1172067"><ele>39.0</ele><time>2026-05-01T15:40:36.943Z</time></trkpt><trkpt lat="42.3623917" lon="14.1172767"><ele>42.0</ele><time>2026-05-01T15:40:37.942Z</time></trkpt><trkpt lat="42.362565" lon="14.11734"><ele>45.0</ele><time>2026-05-01T15:40:38.943Z</time></trkpt><trkpt lat="42.3627517" lon="14.1174017"><ele>40.333333333333336</ele><time>2026-05-01T15:40:39.942Z</time></trkpt><trkpt lat="42.3629317" lon="14.1174467"><ele>35.66666666666667</ele><time>2026-05-01T15:40:40.943Z</time></trkpt><trkpt lat="42.363115" lon="14.1174517"><ele>31.0</ele><time>2026-05-01T15:40:41.943Z</time></trkpt><trkpt lat="42.3632983" lon="14.1174583"><ele>31.0</ele><time>2026-05-01T15:40:42.943Z</time></trkpt><trkpt lat="42.36347" lon="14.117455"><ele>31.0</ele><time>2026-05-01T15:40:43.943Z</time></trkpt><trkpt lat="42.36365" lon="14.117445"><ele>31.0</ele><time>2026-05-01T15:40:44.943Z</time></trkpt><trkpt lat="42.3638183" lon="14.1174433"><ele>31.666666666666668</ele><time>2026-05-01T15:40:45.943Z</time></trkpt><trkpt lat="42.3639917" lon="14.1174583"><ele>32.333333333333336</ele><time>2026-05-01T15:40:46.943Z</time></trkpt><trkpt lat="42.364155" lon="14.1174917"><ele>33.0</ele><time>2026-05-01T15:40:47.943Z</time></trkpt><trkpt lat="42.3643233" lon="14.1175383"><ele>33.0</ele><time>2026-05-01T15:40:48.943Z</time></trkpt><trkpt lat="42.36449" lon="14.11761"><ele>33.0</ele><time>2026-05-01T15:40:49.942Z</time></trkpt><trkpt lat="42.3646583" lon="14.1177033"><ele>33.0</ele><time>2026-05-01T15:40:50.942Z</time></trkpt><trkpt lat="42.3648217" lon="14.1178067"><ele>32.666666666666664</ele><time>2026-05-01T15:40:51.941Z</time></trkpt><trkpt lat="42.36499" lon="14.117925"><ele>32.33333333333333</ele><time>2026-05-01T15:40:52.941Z</time></trkpt><trkpt lat="42.3651617" lon="14.1180333"><ele>32.0</ele><time>2026-05-01T15:40:53.942Z</time></trkpt><trkpt lat="42.365325" lon="14.118145"><ele>31.0</ele><time>2026-05-01T15:40:54.942Z</time></trkpt><trkpt lat="42.365495" lon="14.118255"><ele>30.0</ele><time>2026-05-01T15:40:55.941Z</time></trkpt><trkpt lat="42.3656583" lon="14.1183683"><ele>29.0</ele><time>2026-05-01T15:40:56.942Z</time></trkpt><trkpt lat="42.3658267" lon="14.1184817"><ele>28.666666666666664</ele><time>2026-05-01T15:40:57.941Z</time></trkpt><trkpt lat="42.3659883" lon="14.1185933"><ele>28.333333333333336</ele><time>2026-05-01T15:40:58.942Z</time></trkpt><trkpt lat="42.3661467" lon="14.1187083"><ele>28.0</ele><time>2026-05-01T15:40:59.941Z</time></trkpt><trkpt lat="42.36632" lon="14.1188333"><ele>28.0</ele><time>2026-05-01T15:41:00.941Z</time></trkpt><trkpt lat="42.3664867" lon="14.1189567"><ele>28.0</ele><time>2026-05-01T15:41:01.942Z</time></trkpt><trkpt lat="42.366655" lon="14.1190717"><ele>28.0</ele><time>2026-05-01T15:41:02.941Z</time></trkpt><trkpt lat="42.3668233" lon="14.1192"><ele>28.0</ele><time>2026-05-01T15:41:03.942Z</time></trkpt><trkpt lat="42.3669917" lon="14.1193183"><ele>28.0</ele><time>2026-05-01T15:41:04.941Z</time></trkpt><trkpt lat="42.3671583" lon="14.119435"><ele>28.0</ele><time>2026-05-01T15:41:05.941Z</time></trkpt><trkpt lat="42.36732" lon="14.119555"><ele>28.0</ele><time>2026-05-01T15:41:06.942Z</time></trkpt><trkpt lat="42.3674817" lon="14.119665"><ele>28.0</ele><time>2026-05-01T15:41:07.942Z</time></trkpt><trkpt lat="42.3676433" lon="14.1197767"><ele>28.0</ele><time>2026-05-01T15:41:08.941Z</time></trkpt><trkpt lat="42.367805" lon="14.1198783"><ele>28.0</ele><time>2026-05-01T15:41:09.942Z</time></trkpt><trkpt lat="42.367955" lon="14.1199817"><ele>28.0</ele><time>2026-05-01T15:41:10.942Z</time></trkpt><trkpt lat="42.3680983" lon="14.1200767"><ele>28.0</ele><time>2026-05-01T15:41:11.942Z</time></trkpt><trkpt lat="42.368245" lon="14.1201567"><ele>28.333333333333336</ele><time>2026-05-01T15:41:12.942Z</time></trkpt><trkpt lat="42.3683917" lon="14.120225"><ele>28.666666666666664</ele><time>2026-05-01T15:41:13.942Z</time></trkpt><trkpt lat="42.368545" lon="14.1202733"><ele>29.0</ele><time>2026-05-01T15:41:14.942Z</time></trkpt><trkpt lat="42.3686983" lon="14.1202883"><ele>29.0</ele><time>2026-05-01T15:41:15.941Z</time></trkpt><trkpt lat="42.368855" lon="14.1203083"><ele>29.0</ele><time>2026-05-01T15:41:16.942Z</time></trkpt><trkpt lat="42.3690167" lon="14.1203333"><ele>29.0</ele><time>2026-05-01T15:41:17.941Z</time></trkpt><trkpt lat="42.3691733" lon="14.1203517"><ele>31.666666666666664</ele><time>2026-05-01T15:41:18.942Z</time></trkpt><trkpt lat="42.3693367" lon="14.1203683"><ele>34.333333333333336</ele><time>2026-05-01T15:41:19.942Z</time></trkpt><trkpt lat="42.369505" lon="14.1203883"><ele>37.0</ele><time>2026-05-01T15:41:20.942Z</time></trkpt><trkpt lat="42.3696683" lon="14.120415"><ele>37.0</ele><time>2026-05-01T15:41:21.942Z</time></trkpt><trkpt lat="42.3698383" lon="14.1204367"><ele>37.0</ele><time>2026-05-01T15:41:22.942Z</time></trkpt><trkpt lat="42.37" lon="14.12045"><ele>37.0</ele><time>2026-05-01T15:41:23.942Z</time></trkpt><trkpt lat="42.3701617" lon="14.1204733"><ele>37.0</ele><time>2026-05-01T15:41:24.941Z</time></trkpt><trkpt lat="42.3703067" lon="14.1204967"><ele>37.0</ele><time>2026-05-01T15:41:25.942Z</time></trkpt><trkpt lat="42.3704533" lon="14.1205133"><ele>37.0</ele><time>2026-05-01T15:41:26.941Z</time></trkpt><trkpt lat="42.370605" lon="14.120535"><ele>37.0</ele><time>2026-05-01T15:41:27.941Z</time></trkpt><trkpt lat="42.3707583" lon="14.1205617"><ele>37.25</ele><time>2026-05-01T15:41:28.941Z</time></trkpt><trkpt lat="42.3709117" lon="14.12059"><ele>37.5</ele><time>2026-05-01T15:41:29.942Z</time></trkpt><trkpt lat="42.3710533" lon="14.12064"><ele>37.75</ele><time>2026-05-01T15:41:30.941Z</time></trkpt><trkpt lat="42.3711883" lon="14.1206883"><ele>38.0</ele><time>2026-05-01T15:41:31.942Z</time></trkpt><trkpt lat="42.3713283" lon="14.1207317"><ele>36.75</ele><time>2026-05-01T15:41:32.941Z</time></trkpt><trkpt lat="42.3714767" lon="14.1207717"><ele>35.5</ele><time>2026-05-01T15:41:33.941Z</time></trkpt><trkpt lat="42.3716117" lon="14.1208333"><ele>34.25</ele><time>2026-05-01T15:41:34.942Z</time></trkpt><trkpt lat="42.3717417" lon="14.1209"><ele>33.0</ele><time>2026-05-01T15:41:35.942Z</time></trkpt><trkpt lat="42.371865" lon="14.12097"><ele>33.0</ele><time>2026-05-01T15:41:36.941Z</time></trkpt><trkpt lat="42.3719883" lon="14.121055"><ele>33.0</ele><time>2026-05-01T15:41:37.942Z</time></trkpt><trkpt lat="42.372115" lon="14.1211533"><ele>33.0</ele><time>2026-05-01T15:41:38.942Z</time></trkpt><trkpt lat="42.3722383" lon="14.1212433"><ele>33.0</ele><time>2026-05-01T15:41:39.941Z</time></trkpt><trkpt lat="42.3723467" lon="14.1213283"><ele>33.199999999999996</ele><time>2026-05-01T15:41:40.942Z</time></trkpt><trkpt lat="42.3724533" lon="14.1214033"><ele>33.4</ele><time>2026-05-01T15:41:41.941Z</time></trkpt><trkpt lat="42.37255" lon="14.1214833"><ele>33.599999999999994</ele><time>2026-05-01T15:41:42.941Z</time></trkpt><trkpt lat="42.3726383" lon="14.12156"><ele>33.8</ele><time>2026-05-01T15:41:43.941Z</time></trkpt><trkpt lat="42.37273" lon="14.1216317"><ele>34.0</ele><time>2026-05-01T15:41:44.942Z</time></trkpt><trkpt lat="42.3728183" lon="14.1217067"><ele>34.0</ele><time>2026-05-01T15:41:45.942Z</time></trkpt><trkpt lat="42.3729133" lon="14.121775"><ele>34.0</ele><time>2026-05-01T15:41:46.941Z</time></trkpt><trkpt lat="42.3730033" lon="14.1218417"><ele>34.0</ele><time>2026-05-01T15:41:47.942Z</time></trkpt><trkpt lat="42.3730883" lon="14.1219017"><ele>34.0</ele><time>2026-05-01T15:41:48.942Z</time></trkpt><trkpt lat="42.3731583" lon="14.1219667"><ele>34.0</ele><time>2026-05-01T15:41:49.942Z</time></trkpt><trkpt lat="42.3732233" lon="14.12202"><ele>35.16666666666667</ele><time>2026-05-01T15:41:50.942Z</time></trkpt><trkpt lat="42.3732917" lon="14.1220733"><ele>36.333333333333336</ele><time>2026-05-01T15:41:51.942Z</time></trkpt><trkpt lat="42.3733533" lon="14.1221133"><ele>37.5</ele><time>2026-05-01T15:41:52.941Z</time></trkpt><trkpt lat="42.3734167" lon="14.122165"><ele>38.666666666666664</ele><time>2026-05-01T15:41:53.941Z</time></trkpt><trkpt lat="42.37348" lon="14.1222217"><ele>39.83333333333333</ele><time>2026-05-01T15:41:54.942Z</time></trkpt><trkpt lat="42.3735467" lon="14.1222767"><ele>41.0</ele><time>2026-05-01T15:41:55.942Z</time></trkpt><trkpt lat="42.3736183" lon="14.1223383"><ele>41.0</ele><time>2026-05-01T15:41:56.942Z</time></trkpt><trkpt lat="42.373695" lon="14.12239"><ele>41.0</ele><time>2026-05-01T15:41:57.942Z</time></trkpt><trkpt lat="42.3737667" lon="14.122445"><ele>41.0</ele><time>2026-05-01T15:41:58.942Z</time></trkpt><trkpt lat="42.373825" lon="14.122485"><ele>41.0</ele><time>2026-05-01T15:41:59.941Z</time></trkpt><trkpt lat="42.3739333" lon="14.1225683"><ele>41.0</ele><time>2026-05-01T15:42:01.942Z</time></trkpt><trkpt lat="42.3740217" lon="14.122625"><ele>41.0</ele><time>2026-05-01T15:42:03.942Z</time></trkpt><trkpt lat="42.37411" lon="14.1226933"><ele>41.0</ele><time>2026-05-01T15:42:06.942Z</time></trkpt><trkpt lat="42.374235" lon="14.1228133"><ele>41.0</ele><time>2026-05-01T15:42:08.942Z</time></trkpt><trkpt lat="42.3743317" lon="14.1229"><ele>41.0</ele><time>2026-05-01T15:42:09.942Z</time></trkpt><trkpt lat="42.3744417" lon="14.123005"><ele>41.0</ele><time>2026-05-01T15:42:10.942Z</time></trkpt><trkpt lat="42.3745667" lon="14.1231"><ele>41.0</ele><time>2026-05-01T15:42:11.942Z</time></trkpt><trkpt lat="42.3747033" lon="14.1232"><ele>41.0</ele><time>2026-05-01T15:42:12.942Z</time></trkpt><trkpt lat="42.3748233" lon="14.1232933"><ele>41.0</ele><time>2026-05-01T15:42:13.942Z</time></trkpt><trkpt lat="42.37494" lon="14.1233867"><ele>40.5</ele><time>2026-05-01T15:42:14.942Z</time></trkpt><trkpt lat="42.375055" lon="14.1234767"><ele>40.0</ele><time>2026-05-01T15:42:15.942Z</time></trkpt><trkpt lat="42.3751817" lon="14.1235767"><ele>39.5</ele><time>2026-05-01T15:42:16.941Z</time></trkpt><trkpt lat="42.375305" lon="14.1236667"><ele>39.0</ele><time>2026-05-01T15:42:17.941Z</time></trkpt><trkpt lat="42.3754183" lon="14.12375"><ele>40.0</ele><time>2026-05-01T15:42:18.942Z</time></trkpt><trkpt lat="42.3755317" lon="14.1238317"><ele>41.0</ele><time>2026-05-01T15:42:19.941Z</time></trkpt><trkpt lat="42.3756517" lon="14.1238917"><ele>42.0</ele><time>2026-05-01T15:42:20.942Z</time></trkpt><trkpt lat="42.3757683" lon="14.1239633"><ele>43.0</ele><time>2026-05-01T15:42:21.941Z</time></trkpt><trkpt lat="42.375885" lon="14.12402"><ele>43.0</ele><time>2026-05-01T15:42:22.941Z</time></trkpt><trkpt lat="42.375995" lon="14.1240383"><ele>43.0</ele><time>2026-05-01T15:42:23.942Z</time></trkpt><trkpt lat="42.37609" lon="14.1240517"><ele>43.0</ele><time>2026-05-01T15:42:24.942Z</time></trkpt><trkpt lat="42.376185" lon="14.1240883"><ele>43.0</ele><time>2026-05-01T15:42:25.942Z</time></trkpt><trkpt lat="42.3762683" lon="14.124145"><ele>43.0</ele><time>2026-05-01T15:42:26.941Z</time></trkpt><trkpt lat="42.3763333" lon="14.1242267"><ele>42.0</ele><time>2026-05-01T15:42:27.942Z</time></trkpt><trkpt lat="42.37638" lon="14.1243267"><ele>41.0</ele><time>2026-05-01T15:42:28.942Z</time></trkpt><trkpt lat="42.3764267" lon="14.1244383"><ele>40.0</ele><time>2026-05-01T15:42:29.942Z</time></trkpt><trkpt lat="42.37648" lon="14.12451"><ele>39.0</ele><time>2026-05-01T15:42:30.942Z</time></trkpt><trkpt lat="42.3765833" lon="14.1245133"><ele>38.0</ele><time>2026-05-01T15:42:32.941Z</time></trkpt><trkpt lat="42.37664" lon="14.1244517"><ele>37.0</ele><time>2026-05-01T15:42:33.942Z</time></trkpt><trkpt lat="42.37668" lon="14.1243517"><ele>37.0</ele><time>2026-05-01T15:42:34.941Z</time></trkpt><trkpt lat="42.3767367" lon="14.1242233"><ele>37.0</ele><time>2026-05-01T15:42:35.942Z</time></trkpt><trkpt lat="42.3768217" lon="14.1240883"><ele>37.0</ele><time>2026-05-01T15:42:36.942Z</time></trkpt><trkpt lat="42.3769183" lon="14.123945"><ele>37.0</ele><time>2026-05-01T15:42:37.942Z</time></trkpt><trkpt lat="42.3770067" lon="14.123795"><ele>38.75</ele><time>2026-05-01T15:42:38.942Z</time></trkpt><trkpt lat="42.37709" lon="14.12364"><ele>40.5</ele><time>2026-05-01T15:42:39.942Z</time></trkpt><trkpt lat="42.3771733" lon="14.1235317"><ele>42.25</ele><time>2026-05-01T15:42:40.942Z</time></trkpt><trkpt lat="42.3772633" lon="14.1234567"><ele>44.0</ele><time>2026-05-01T15:42:41.942Z</time></trkpt><trkpt lat="42.3773633" lon="14.1233867"><ele>44.5</ele><time>2026-05-01T15:42:42.942Z</time></trkpt><trkpt lat="42.3774767" lon="14.12336"><ele>45.0</ele><time>2026-05-01T15:42:43.942Z</time></trkpt><trkpt lat="42.3775883" lon="14.12336"><ele>45.5</ele><time>2026-05-01T15:42:44.942Z</time></trkpt><trkpt lat="42.37772" lon="14.1233883"><ele>46.0</ele><time>2026-05-01T15:42:45.941Z</time></trkpt><trkpt lat="42.3778717" lon="14.1234317"><ele>49.0</ele><time>2026-05-01T15:42:46.941Z</time></trkpt><trkpt lat="42.3780267" lon="14.1234783"><ele>52.0</ele><time>2026-05-01T15:42:47.941Z</time></trkpt><trkpt lat="42.378185" lon="14.1235033"><ele>55.0</ele><time>2026-05-01T15:42:48.941Z</time></trkpt><trkpt lat="42.3783367" lon="14.1235283"><ele>55.0</ele><time>2026-05-01T15:42:49.942Z</time></trkpt><trkpt lat="42.378485" lon="14.1235517"><ele>55.0</ele><time>2026-05-01T15:42:50.942Z</time></trkpt><trkpt lat="42.37863" lon="14.1235833"><ele>55.0</ele><time>2026-05-01T15:42:51.941Z</time></trkpt><trkpt lat="42.3787783" lon="14.1236"><ele>55.0</ele><time>2026-05-01T15:42:52.942Z</time></trkpt><trkpt lat="42.3789183" lon="14.1236117"><ele>56.0</ele><time>2026-05-01T15:42:53.942Z</time></trkpt><trkpt lat="42.3790467" lon="14.12363"><ele>57.0</ele><time>2026-05-01T15:42:54.941Z</time></trkpt><trkpt lat="42.3791583" lon="14.123665"><ele>58.0</ele><time>2026-05-01T15:42:55.942Z</time></trkpt><trkpt lat="42.379275" lon="14.1237067"><ele>59.0</ele><time>2026-05-01T15:42:56.942Z</time></trkpt><trkpt lat="42.3793767" lon="14.12376"><ele>59.0</ele><time>2026-05-01T15:42:57.942Z</time></trkpt><trkpt lat="42.3794817" lon="14.1238317"><ele>59.0</ele><time>2026-05-01T15:42:58.942Z</time></trkpt><trkpt lat="42.37958" lon="14.12393"><ele>59.0</ele><time>2026-05-01T15:42:59.942Z</time></trkpt><trkpt lat="42.37968" lon="14.1240433"><ele>59.0</ele><time>2026-05-01T15:43:00.942Z</time></trkpt><trkpt lat="42.379795" lon="14.1241483"><ele>56.66666666666667</ele><time>2026-05-01T15:43:01.942Z</time></trkpt><trkpt lat="42.3799217" lon="14.1242683"><ele>54.33333333333333</ele><time>2026-05-01T15:43:02.942Z</time></trkpt><trkpt lat="42.3800483" lon="14.12437"><ele>52.0</ele><time>2026-05-01T15:43:03.942Z</time></trkpt><trkpt lat="42.3801783" lon="14.12447"><ele>52.0</ele><time>2026-05-01T15:43:04.942Z</time></trkpt><trkpt lat="42.3803033" lon="14.12456"><ele>52.0</ele><time>2026-05-01T15:43:05.942Z</time></trkpt><trkpt lat="42.380435" lon="14.124655"><ele>52.0</ele><time>2026-05-01T15:43:06.942Z</time></trkpt><trkpt lat="42.3805583" lon="14.124755"><ele>52.0</ele><time>2026-05-01T15:43:07.941Z</time></trkpt><trkpt lat="42.38068" lon="14.12485"><ele>51.0</ele><time>2026-05-01T15:43:08.942Z</time></trkpt><trkpt lat="42.3808017" lon="14.124945"><ele>50.0</ele><time>2026-05-01T15:43:09.941Z</time></trkpt><trkpt lat="42.3809317" lon="14.1250267"><ele>49.0</ele><time>2026-05-01T15:43:10.942Z</time></trkpt><trkpt lat="42.3810667" lon="14.1251183"><ele>48.0</ele><time>2026-05-01T15:43:11.941Z</time></trkpt><trkpt lat="42.3812033" lon="14.1252017"><ele>49.66666666666667</ele><time>2026-05-01T15:43:12.941Z</time></trkpt><trkpt lat="42.3813517" lon="14.1252917"><ele>51.333333333333336</ele><time>2026-05-01T15:43:13.942Z</time></trkpt><trkpt lat="42.38149" lon="14.1254"><ele>53.0</ele><time>2026-05-01T15:43:14.942Z</time></trkpt><trkpt lat="42.3816317" lon="14.1255017"><ele>53.0</ele><time>2026-05-01T15:43:15.942Z</time></trkpt><trkpt lat="42.3817633" lon="14.1256133"><ele>53.0</ele><time>2026-05-01T15:43:16.942Z</time></trkpt><trkpt lat="42.3818983" lon="14.125725"><ele>53.0</ele><time>2026-05-01T15:43:17.942Z</time></trkpt><trkpt lat="42.3820283" lon="14.1258433"><ele>53.0</ele><time>2026-05-01T15:43:18.942Z</time></trkpt><trkpt lat="42.3821567" lon="14.1259567"><ele>53.0</ele><time>2026-05-01T15:43:19.942Z</time></trkpt><trkpt lat="42.3822883" lon="14.12608"><ele>53.0</ele><time>2026-05-01T15:43:20.942Z</time></trkpt><trkpt lat="42.38241" lon="14.126195"><ele>53.0</ele><time>2026-05-01T15:43:21.941Z</time></trkpt><trkpt lat="42.3825333" lon="14.1262867"><ele>53.0</ele><time>2026-05-01T15:43:22.942Z</time></trkpt><trkpt lat="42.38267" lon="14.12635"><ele>53.0</ele><time>2026-05-01T15:43:23.942Z</time></trkpt><trkpt lat="42.382815" lon="14.126395"><ele>53.0</ele><time>2026-05-01T15:43:24.942Z</time></trkpt><trkpt lat="42.3829483" lon="14.1264117"><ele>53.0</ele><time>2026-05-01T15:43:25.942Z</time></trkpt><trkpt lat="42.383085" lon="14.1264033"><ele>53.0</ele><time>2026-05-01T15:43:26.941Z</time></trkpt><trkpt lat="42.383215" lon="14.1263883"><ele>53.0</ele><time>2026-05-01T15:43:27.942Z</time></trkpt><trkpt lat="42.38334" lon="14.1264"><ele>53.0</ele><time>2026-05-01T15:43:28.941Z</time></trkpt><trkpt lat="42.3834567" lon="14.1264267"><ele>53.0</ele><time>2026-05-01T15:43:29.942Z</time></trkpt><trkpt lat="42.383575" lon="14.1264817"><ele>53.0</ele><time>2026-05-01T15:43:30.941Z</time></trkpt><trkpt lat="42.3836933" lon="14.126565"><ele>53.0</ele><time>2026-05-01T15:43:31.942Z</time></trkpt><trkpt lat="42.3838217" lon="14.1266467"><ele>53.0</ele><time>2026-05-01T15:43:32.942Z</time></trkpt><trkpt lat="42.38396" lon="14.12673"><ele>50.25</ele><time>2026-05-01T15:43:33.942Z</time></trkpt><trkpt lat="42.3840983" lon="14.126805"><ele>47.5</ele><time>2026-05-01T15:43:34.942Z</time></trkpt><trkpt lat="42.38424" lon="14.1268683"><ele>44.75</ele><time>2026-05-01T15:43:35.942Z</time></trkpt><trkpt lat="42.3843717" lon="14.1269267"><ele>42.0</ele><time>2026-05-01T15:43:36.941Z</time></trkpt><trkpt lat="42.3845067" lon="14.1269767"><ele>42.0</ele><time>2026-05-01T15:43:37.942Z</time></trkpt><trkpt lat="42.3846433" lon="14.12703"><ele>42.0</ele><time>2026-05-01T15:43:38.942Z</time></trkpt><trkpt lat="42.3847817" lon="14.1270817"><ele>42.0</ele><time>2026-05-01T15:43:39.942Z</time></trkpt><trkpt lat="42.3849083" lon="14.1271567"><ele>42.0</ele><time>2026-05-01T15:43:40.941Z</time></trkpt><trkpt lat="42.3850317" lon="14.127255"><ele>43.0</ele><time>2026-05-01T15:43:41.942Z</time></trkpt><trkpt lat="42.3851633" lon="14.1273817"><ele>44.0</ele><time>2026-05-01T15:43:42.942Z</time></trkpt><trkpt lat="42.385295" lon="14.127515"><ele>45.0</ele><time>2026-05-01T15:43:43.942Z</time></trkpt><trkpt lat="42.3854367" lon="14.1276767"><ele>42.0</ele><time>2026-05-01T15:43:44.942Z</time></trkpt><trkpt lat="42.3855833" lon="14.1278167"><ele>39.0</ele><time>2026-05-01T15:43:45.941Z</time></trkpt><trkpt lat="42.3857217" lon="14.1279533"><ele>36.0</ele><time>2026-05-01T15:43:46.942Z</time></trkpt><trkpt lat="42.385855" lon="14.1280933"><ele>36.0</ele><time>2026-05-01T15:43:47.942Z</time></trkpt><trkpt lat="42.385985" lon="14.1282183"><ele>36.0</ele><time>2026-05-01T15:43:48.941Z</time></trkpt><trkpt lat="42.3861083" lon="14.12832"><ele>36.0</ele><time>2026-05-01T15:43:49.942Z</time></trkpt><trkpt lat="42.3862333" lon="14.1284367"><ele>36.333333333333336</ele><time>2026-05-01T15:43:50.942Z</time></trkpt><trkpt lat="42.38635" lon="14.1285867"><ele>36.66666666666667</ele><time>2026-05-01T15:43:51.942Z</time></trkpt><trkpt lat="42.3864583" lon="14.1287567"><ele>37.0</ele><time>2026-05-01T15:43:52.942Z</time></trkpt><trkpt lat="42.3865567" lon="14.1289183"><ele>36.0</ele><time>2026-05-01T15:43:53.942Z</time></trkpt><trkpt lat="42.38666" lon="14.1290817"><ele>35.0</ele><time>2026-05-01T15:43:54.942Z</time></trkpt><trkpt lat="42.3867483" lon="14.1292283"><ele>34.0</ele><time>2026-05-01T15:43:55.942Z</time></trkpt><trkpt lat="42.3868417" lon="14.1293583"><ele>33.0</ele><time>2026-05-01T15:43:56.942Z</time></trkpt><trkpt lat="42.386925" lon="14.1294883"><ele>33.0</ele><time>2026-05-01T15:43:57.941Z</time></trkpt><trkpt lat="42.3870217" lon="14.1296017"><ele>33.0</ele><time>2026-05-01T15:43:58.942Z</time></trkpt><trkpt lat="42.38713" lon="14.12971"><ele>33.0</ele><time>2026-05-01T15:43:59.941Z</time></trkpt><trkpt lat="42.3872367" lon="14.1298133"><ele>33.0</ele><time>2026-05-01T15:44:00.942Z</time></trkpt><trkpt lat="42.3873433" lon="14.1299067"><ele>32.8</ele><time>2026-05-01T15:44:01.941Z</time></trkpt><trkpt lat="42.38744" lon="14.1300033"><ele>32.599999999999994</ele><time>2026-05-01T15:44:02.941Z</time></trkpt><trkpt lat="42.3875383" lon="14.1300833"><ele>32.400000000000006</ele><time>2026-05-01T15:44:03.94Z</time></trkpt><trkpt lat="42.38763" lon="14.1301633"><ele>32.2</ele><time>2026-05-01T15:44:04.941Z</time></trkpt><trkpt lat="42.38771" lon="14.1302367"><ele>32.0</ele><time>2026-05-01T15:44:05.941Z</time></trkpt><trkpt lat="42.387785" lon="14.1303033"><ele>31.999999999999996</ele><time>2026-05-01T15:44:06.94Z</time></trkpt><trkpt lat="42.3878583" lon="14.130375"><ele>32.0</ele><time>2026-05-01T15:44:07.941Z</time></trkpt><trkpt lat="42.3879233" lon="14.1304383"><ele>32.0</ele><time>2026-05-01T15:44:08.941Z</time></trkpt><trkpt lat="42.3879933" lon="14.1304783"><ele>32.0</ele><time>2026-05-01T15:44:09.941Z</time></trkpt><trkpt lat="42.388065" lon="14.13052"><ele>31.999999999999996</ele><time>2026-05-01T15:44:10.941Z</time></trkpt><trkpt lat="42.38816" lon="14.1305567"><ele>32.0</ele><time>2026-05-01T15:44:11.941Z</time></trkpt><trkpt lat="42.3882617" lon="14.1306133"><ele>32.0</ele><time>2026-05-01T15:44:12.94Z</time></trkpt><trkpt lat="42.3883717" lon="14.1306867"><ele>32.0</ele><time>2026-05-01T15:44:13.941Z</time></trkpt><trkpt lat="42.3884883" lon="14.1307583"><ele>32.0</ele><time>2026-05-01T15:44:14.94Z</time></trkpt><trkpt lat="42.3885933" lon="14.1308167"><ele>32.0</ele><time>2026-05-01T15:44:15.941Z</time></trkpt><trkpt lat="42.388705" lon="14.1308933"><ele>32.0</ele><time>2026-05-01T15:44:16.941Z</time></trkpt><trkpt lat="42.3888183" lon="14.1309717"><ele>32.0</ele><time>2026-05-01T15:44:17.941Z</time></trkpt><trkpt lat="42.38894" lon="14.1310383"><ele>32.0</ele><time>2026-05-01T15:44:18.941Z</time></trkpt><trkpt lat="42.389065" lon="14.1311133"><ele>32.0</ele><time>2026-05-01T15:44:19.941Z</time></trkpt><trkpt lat="42.3891917" lon="14.1312017"><ele>32.25</ele><time>2026-05-01T15:44:20.94Z</time></trkpt><trkpt lat="42.389315" lon="14.13129"><ele>32.5</ele><time>2026-05-01T15:44:21.941Z</time></trkpt><trkpt lat="42.389435" lon="14.1313917"><ele>32.75</ele><time>2026-05-01T15:44:22.941Z</time></trkpt><trkpt lat="42.38956" lon="14.1315033"><ele>33.0</ele><time>2026-05-01T15:44:23.94Z</time></trkpt><trkpt lat="42.38969" lon="14.13162"><ele>32.5</ele><time>2026-05-01T15:44:24.941Z</time></trkpt><trkpt lat="42.3898117" lon="14.1317217"><ele>32.0</ele><time>2026-05-01T15:44:25.941Z</time></trkpt><trkpt lat="42.3899367" lon="14.13183"><ele>31.5</ele><time>2026-05-01T15:44:26.941Z</time></trkpt><trkpt lat="42.39006" lon="14.1319383"><ele>31.0</ele><time>2026-05-01T15:44:27.941Z</time></trkpt><trkpt lat="42.3901867" lon="14.132055"><ele>31.0</ele><time>2026-05-01T15:44:28.941Z</time></trkpt><trkpt lat="42.3903133" lon="14.1321533"><ele>31.0</ele><time>2026-05-01T15:44:29.94Z</time></trkpt><trkpt lat="42.390435" lon="14.1322583"><ele>31.0</ele><time>2026-05-01T15:44:30.941Z</time></trkpt><trkpt lat="42.3905683" lon="14.132365"><ele>31.0</ele><time>2026-05-01T15:44:31.94Z</time></trkpt><trkpt lat="42.39069" lon="14.132485"><ele>30.75</ele><time>2026-05-01T15:44:32.941Z</time></trkpt><trkpt lat="42.3908117" lon="14.13259"><ele>30.5</ele><time>2026-05-01T15:44:33.941Z</time></trkpt><trkpt lat="42.39093" lon="14.1326967"><ele>30.25</ele><time>2026-05-01T15:44:34.941Z</time></trkpt><trkpt lat="42.3910433" lon="14.1327983"><ele>30.0</ele><time>2026-05-01T15:44:35.941Z</time></trkpt><trkpt lat="42.3911667" lon="14.1329033"><ele>30.0</ele><time>2026-05-01T15:44:36.941Z</time></trkpt><trkpt lat="42.3912883" lon="14.13302"><ele>30.0</ele><time>2026-05-01T15:44:37.941Z</time></trkpt><trkpt lat="42.391415" lon="14.13314"><ele>30.0</ele><time>2026-05-01T15:44:38.941Z</time></trkpt><trkpt lat="42.39154" lon="14.133255"><ele>30.0</ele><time>2026-05-01T15:44:39.941Z</time></trkpt><trkpt lat="42.39166" lon="14.1333667"><ele>30.0</ele><time>2026-05-01T15:44:40.941Z</time></trkpt><trkpt lat="42.391785" lon="14.133475"><ele>30.0</ele><time>2026-05-01T15:44:41.94Z</time></trkpt><trkpt lat="42.3919033" lon="14.1335783"><ele>30.0</ele><time>2026-05-01T15:44:42.94Z</time></trkpt><trkpt lat="42.3920167" lon="14.1336733"><ele>30.0</ele><time>2026-05-01T15:44:43.941Z</time></trkpt><trkpt lat="42.392135" lon="14.133775"><ele>30.0</ele><time>2026-05-01T15:44:44.94Z</time></trkpt><trkpt lat="42.3922667" lon="14.1338883"><ele>30.0</ele><time>2026-05-01T15:44:45.941Z</time></trkpt><trkpt lat="42.3923883" lon="14.1340333"><ele>29.75</ele><time>2026-05-01T15:44:46.941Z</time></trkpt><trkpt lat="42.3924917" lon="14.134175"><ele>29.5</ele><time>2026-05-01T15:44:47.94Z</time></trkpt><trkpt lat="42.3925517" lon="14.134325"><ele>29.25</ele><time>2026-05-01T15:44:48.941Z</time></trkpt><trkpt lat="42.39268" lon="14.134475"><ele>29.0</ele><time>2026-05-01T15:44:49.94Z</time></trkpt><trkpt lat="42.3928217" lon="14.1346283"><ele>29.5</ele><time>2026-05-01T15:44:50.94Z</time></trkpt><trkpt lat="42.393045" lon="14.1347067"><ele>30.0</ele><time>2026-05-01T15:44:51.941Z</time></trkpt><trkpt lat="42.393245" lon="14.134855"><ele>29.0</ele><time>2026-05-01T15:44:52.94Z</time></trkpt><trkpt lat="42.3934083" lon="14.134995"><ele>28.0</ele><time>2026-05-01T15:44:53.941Z</time></trkpt><trkpt lat="42.393555" lon="14.1351067"><ele>27.0</ele><time>2026-05-01T15:44:54.941Z</time></trkpt><trkpt lat="42.3936933" lon="14.1352167"><ele>27.0</ele><time>2026-05-01T15:44:55.941Z</time></trkpt><trkpt lat="42.3938233" lon="14.1353333"><ele>27.0</ele><time>2026-05-01T15:44:56.94Z</time></trkpt><trkpt lat="42.3939583" lon="14.1354483"><ele>27.0</ele><time>2026-05-01T15:44:57.941Z</time></trkpt><trkpt lat="42.394085" lon="14.1355733"><ele>26.75</ele><time>2026-05-01T15:44:58.941Z</time></trkpt><trkpt lat="42.3942067" lon="14.1356883"><ele>26.5</ele><time>2026-05-01T15:44:59.94Z</time></trkpt><trkpt lat="42.3943183" lon="14.13578"><ele>26.25</ele><time>2026-05-01T15:45:00.941Z</time></trkpt><trkpt lat="42.394425" lon="14.1358783"><ele>26.0</ele><time>2026-05-01T15:45:01.941Z</time></trkpt><trkpt lat="42.3945283" lon="14.1359633"><ele>26.0</ele><time>2026-05-01T15:45:02.94Z</time></trkpt><trkpt lat="42.394635" lon="14.1360533"><ele>26.0</ele><time>2026-05-01T15:45:03.941Z</time></trkpt><trkpt lat="42.3947517" lon="14.1361517"><ele>26.0</ele><time>2026-05-01T15:45:04.941Z</time></trkpt><trkpt lat="42.394865" lon="14.13625"><ele>26.0</ele><time>2026-05-01T15:45:05.94Z</time></trkpt><trkpt lat="42.3949717" lon="14.1363483"><ele>26.0</ele><time>2026-05-01T15:45:06.941Z</time></trkpt><trkpt lat="42.3950767" lon="14.136445"><ele>26.0</ele><time>2026-05-01T15:45:07.941Z</time></trkpt><trkpt lat="42.3951817" lon="14.1365417"><ele>26.0</ele><time>2026-05-01T15:45:08.941Z</time></trkpt><trkpt lat="42.3952933" lon="14.136635"><ele>26.0</ele><time>2026-05-01T15:45:09.94Z</time></trkpt><trkpt lat="42.3954067" lon="14.1367267"><ele>26.0</ele><time>2026-05-01T15:45:10.94Z</time></trkpt><trkpt lat="42.3955183" lon="14.1368233"><ele>26.0</ele><time>2026-05-01T15:45:11.941Z</time></trkpt><trkpt lat="42.3956283" lon="14.1369217"><ele>26.0</ele><time>2026-05-01T15:45:12.941Z</time></trkpt><trkpt lat="42.3957367" lon="14.1370167"><ele>26.0</ele><time>2026-05-01T15:45:13.941Z</time></trkpt><trkpt lat="42.3958417" lon="14.1371133"><ele>26.0</ele><time>2026-05-01T15:45:14.941Z</time></trkpt><trkpt lat="42.39595" lon="14.1372083"><ele>26.0</ele><time>2026-05-01T15:45:15.941Z</time></trkpt><trkpt lat="42.3960617" lon="14.1373083"><ele>26.0</ele><time>2026-05-01T15:45:16.941Z</time></trkpt><trkpt lat="42.3961733" lon="14.1374017"><ele>26.0</ele><time>2026-05-01T15:45:17.941Z</time></trkpt><trkpt lat="42.3962817" lon="14.1374983"><ele>26.25</ele><time>2026-05-01T15:45:18.941Z</time></trkpt><trkpt lat="42.3963917" lon="14.1375967"><ele>26.5</ele><time>2026-05-01T15:45:19.941Z</time></trkpt><trkpt lat="42.3965" lon="14.1376983"><ele>26.75</ele><time>2026-05-01T15:45:20.941Z</time></trkpt><trkpt lat="42.3966133" lon="14.1378017"><ele>27.0</ele><time>2026-05-01T15:45:21.941Z</time></trkpt><trkpt lat="42.39673" lon="14.1379017"><ele>27.0</ele><time>2026-05-01T15:45:22.94Z</time></trkpt><trkpt lat="42.396845" lon="14.1380033"><ele>27.0</ele><time>2026-05-01T15:45:23.94Z</time></trkpt><trkpt lat="42.3969617" lon="14.1381033"><ele>27.0</ele><time>2026-05-01T15:45:24.941Z</time></trkpt><trkpt lat="42.39708" lon="14.138205"><ele>27.0</ele><time>2026-05-01T15:45:25.941Z</time></trkpt><trkpt lat="42.3972033" lon="14.138305"><ele>26.75</ele><time>2026-05-01T15:45:26.94Z</time></trkpt><trkpt lat="42.39732" lon="14.1384133"><ele>26.5</ele><time>2026-05-01T15:45:27.941Z</time></trkpt><trkpt lat="42.3974383" lon="14.1385217"><ele>26.25</ele><time>2026-05-01T15:45:28.94Z</time></trkpt><trkpt lat="42.3975583" lon="14.1386283"><ele>26.0</ele><time>2026-05-01T15:45:29.94Z</time></trkpt><trkpt lat="42.397675" lon="14.1387367"><ele>26.0</ele><time>2026-05-01T15:45:30.94Z</time></trkpt><trkpt lat="42.3977917" lon="14.1388517"><ele>26.0</ele><time>2026-05-01T15:45:31.941Z</time></trkpt><trkpt lat="42.3979067" lon="14.138955"><ele>26.0</ele><time>2026-05-01T15:45:32.941Z</time></trkpt><trkpt lat="42.3980267" lon="14.13905"><ele>26.0</ele><time>2026-05-01T15:45:33.941Z</time></trkpt><trkpt lat="42.3981417" lon="14.1391417"><ele>26.0</ele><time>2026-05-01T15:45:34.941Z</time></trkpt><trkpt lat="42.3982467" lon="14.1392283"><ele>26.0</ele><time>2026-05-01T15:45:35.941Z</time></trkpt><trkpt lat="42.3983483" lon="14.13933"><ele>26.0</ele><time>2026-05-01T15:45:36.941Z</time></trkpt><trkpt lat="42.3984483" lon="14.1394217"><ele>26.0</ele><time>2026-05-01T15:45:37.94Z</time></trkpt><trkpt lat="42.3985533" lon="14.1395033"><ele>26.0</ele><time>2026-05-01T15:45:38.941Z</time></trkpt><trkpt lat="42.3986533" lon="14.1395983"><ele>26.0</ele><time>2026-05-01T15:45:39.941Z</time></trkpt><trkpt lat="42.3987467" lon="14.13969"><ele>26.0</ele><time>2026-05-01T15:45:40.941Z</time></trkpt><trkpt lat="42.3988467" lon="14.1397767"><ele>26.0</ele><time>2026-05-01T15:45:41.941Z</time></trkpt><trkpt lat="42.3989467" lon="14.1398717"><ele>25.75</ele><time>2026-05-01T15:45:42.941Z</time></trkpt><trkpt lat="42.399055" lon="14.1399567"><ele>25.5</ele><time>2026-05-01T15:45:43.94Z</time></trkpt><trkpt lat="42.3991583" lon="14.14005"><ele>25.25</ele><time>2026-05-01T15:45:44.941Z</time></trkpt><trkpt lat="42.3992717" lon="14.1401417"><ele>25.0</ele><time>2026-05-01T15:45:45.941Z</time></trkpt><trkpt lat="42.399385" lon="14.1402417"><ele>25.0</ele><time>2026-05-01T15:45:46.94Z</time></trkpt><trkpt lat="42.399495" lon="14.140335"><ele>25.0</ele><time>2026-05-01T15:45:47.941Z</time></trkpt><trkpt lat="42.3996" lon="14.1404233"><ele>25.0</ele><time>2026-05-01T15:45:48.94Z</time></trkpt><trkpt lat="42.3996983" lon="14.140525"><ele>25.0</ele><time>2026-05-01T15:45:49.94Z</time></trkpt><trkpt lat="42.3997983" lon="14.1406183"><ele>24.75</ele><time>2026-05-01T15:45:50.94Z</time></trkpt><trkpt lat="42.3998983" lon="14.1407083"><ele>24.5</ele><time>2026-05-01T15:45:51.941Z</time></trkpt><trkpt lat="42.4" lon="14.14081"><ele>24.25</ele><time>2026-05-01T15:45:52.941Z</time></trkpt><trkpt lat="42.40011" lon="14.1409083"><ele>24.0</ele><time>2026-05-01T15:45:53.941Z</time></trkpt><trkpt lat="42.400225" lon="14.1410033"><ele>24.25</ele><time>2026-05-01T15:45:54.941Z</time></trkpt><trkpt lat="42.4003283" lon="14.1410983"><ele>24.5</ele><time>2026-05-01T15:45:55.941Z</time></trkpt><trkpt lat="42.40044" lon="14.1411983"><ele>24.75</ele><time>2026-05-01T15:45:56.941Z</time></trkpt><trkpt lat="42.4005483" lon="14.141305"><ele>25.0</ele><time>2026-05-01T15:45:57.94Z</time></trkpt><trkpt lat="42.4006567" lon="14.14141"><ele>25.0</ele><time>2026-05-01T15:45:58.941Z</time></trkpt><trkpt lat="42.4007717" lon="14.14151"><ele>25.0</ele><time>2026-05-01T15:45:59.941Z</time></trkpt><trkpt lat="42.4008817" lon="14.1416067"><ele>25.0</ele><time>2026-05-01T15:46:00.94Z</time></trkpt><trkpt lat="42.4009933" lon="14.1417083"><ele>25.0</ele><time>2026-05-01T15:46:01.941Z</time></trkpt><trkpt lat="42.401105" lon="14.14181"><ele>25.0</ele><time>2026-05-01T15:46:02.94Z</time></trkpt><trkpt lat="42.4012117" lon="14.141905"><ele>25.0</ele><time>2026-05-01T15:46:03.94Z</time></trkpt><trkpt lat="42.40132" lon="14.1419967"><ele>25.0</ele><time>2026-05-01T15:46:04.94Z</time></trkpt><trkpt lat="42.40143" lon="14.1420867"><ele>25.0</ele><time>2026-05-01T15:46:05.94Z</time></trkpt><trkpt lat="42.4015283" lon="14.1421767"><ele>25.0</ele><time>2026-05-01T15:46:06.941Z</time></trkpt><trkpt lat="42.4016333" lon="14.1422733"><ele>25.0</ele><time>2026-05-01T15:46:07.941Z</time></trkpt><trkpt lat="42.40174" lon="14.1423617"><ele>25.0</ele><time>2026-05-01T15:46:08.941Z</time></trkpt><trkpt lat="42.40184" lon="14.1424533"><ele>25.0</ele><time>2026-05-01T15:46:09.94Z</time></trkpt><trkpt lat="42.4019533" lon="14.14255"><ele>24.75</ele><time>2026-05-01T15:46:10.941Z</time></trkpt><trkpt lat="42.4020683" lon="14.1426583"><ele>24.5</ele><time>2026-05-01T15:46:11.941Z</time></trkpt><trkpt lat="42.40218" lon="14.142765"><ele>24.25</ele><time>2026-05-01T15:46:12.941Z</time></trkpt><trkpt lat="42.4023" lon="14.14286"><ele>24.0</ele><time>2026-05-01T15:46:13.94Z</time></trkpt><trkpt lat="42.40242" lon="14.14297"><ele>24.0</ele><time>2026-05-01T15:46:14.941Z</time></trkpt><trkpt lat="42.4025417" lon="14.1430733"><ele>24.0</ele><time>2026-05-01T15:46:15.941Z</time></trkpt><trkpt lat="42.40266" lon="14.1431867"><ele>24.0</ele><time>2026-05-01T15:46:16.941Z</time></trkpt><trkpt lat="42.4027767" lon="14.1432933"><ele>24.0</ele><time>2026-05-01T15:46:17.941Z</time></trkpt><trkpt lat="42.4028883" lon="14.1433883"><ele>24.0</ele><time>2026-05-01T15:46:18.941Z</time></trkpt><trkpt lat="42.4029933" lon="14.1434833"><ele>24.0</ele><time>2026-05-01T15:46:19.941Z</time></trkpt><trkpt lat="42.4031067" lon="14.1435817"><ele>24.0</ele><time>2026-05-01T15:46:20.941Z</time></trkpt><trkpt lat="42.40323" lon="14.14368"><ele>24.0</ele><time>2026-05-01T15:46:21.94Z</time></trkpt><trkpt lat="42.4033533" lon="14.14379"><ele>24.0</ele><time>2026-05-01T15:46:22.941Z</time></trkpt><trkpt lat="42.403475" lon="14.143905"><ele>24.0</ele><time>2026-05-01T15:46:23.941Z</time></trkpt><trkpt lat="42.4036" lon="14.1440133"><ele>24.0</ele><time>2026-05-01T15:46:24.941Z</time></trkpt><trkpt lat="42.4037217" lon="14.1441233"><ele>24.0</ele><time>2026-05-01T15:46:25.94Z</time></trkpt><trkpt lat="42.40384" lon="14.1442317"><ele>24.25</ele><time>2026-05-01T15:46:26.94Z</time></trkpt><trkpt lat="42.4039533" lon="14.1443333"><ele>24.5</ele><time>2026-05-01T15:46:27.94Z</time></trkpt><trkpt lat="42.4040633" lon="14.14443"><ele>24.75</ele><time>2026-05-01T15:46:28.941Z</time></trkpt><trkpt lat="42.4041667" lon="14.1445233"><ele>25.0</ele><time>2026-05-01T15:46:29.94Z</time></trkpt><trkpt lat="42.404265" lon="14.1446183"><ele>25.0</ele><time>2026-05-01T15:46:30.941Z</time></trkpt><trkpt lat="42.4043667" lon="14.144715"><ele>25.0</ele><time>2026-05-01T15:46:31.941Z</time></trkpt><trkpt lat="42.40447" lon="14.1448133"><ele>25.0</ele><time>2026-05-01T15:46:32.941Z</time></trkpt><trkpt lat="42.40458" lon="14.1449117"><ele>25.0</ele><time>2026-05-01T15:46:33.941Z</time></trkpt><trkpt lat="42.40469" lon="14.1450133"><ele>24.5</ele><time>2026-05-01T15:46:34.941Z</time></trkpt><trkpt lat="42.4048" lon="14.1451017"><ele>24.0</ele><time>2026-05-01T15:46:35.941Z</time></trkpt><trkpt lat="42.40491" lon="14.1451983"><ele>23.5</ele><time>2026-05-01T15:46:36.941Z</time></trkpt><trkpt lat="42.405015" lon="14.145295"><ele>23.0</ele><time>2026-05-01T15:46:37.941Z</time></trkpt><trkpt lat="42.4051183" lon="14.14539"><ele>23.0</ele><time>2026-05-01T15:46:38.941Z</time></trkpt><trkpt lat="42.4052133" lon="14.1454833"><ele>23.0</ele><time>2026-05-01T15:46:39.94Z</time></trkpt><trkpt lat="42.4053017" lon="14.1455533"><ele>23.0</ele><time>2026-05-01T15:46:40.941Z</time></trkpt><trkpt lat="42.405375" lon="14.1456233"><ele>23.0</ele><time>2026-05-01T15:46:41.941Z</time></trkpt><trkpt lat="42.405425" lon="14.1456883"><ele>23.0</ele><time>2026-05-01T15:46:42.941Z</time></trkpt><trkpt lat="42.4054433" lon="14.14585"><ele>22.833333333333336</ele><time>2026-05-01T15:46:44.94Z</time></trkpt><trkpt lat="42.4054467" lon="14.1459383"><ele>22.666666666666668</ele><time>2026-05-01T15:46:45.941Z</time></trkpt><trkpt lat="42.4054617" lon="14.146025"><ele>22.5</ele><time>2026-05-01T15:46:46.94Z</time></trkpt><trkpt lat="42.4055033" lon="14.14609"><ele>22.333333333333332</ele><time>2026-05-01T15:46:47.941Z</time></trkpt><trkpt lat="42.405605" lon="14.1460983"><ele>22.166666666666664</ele><time>2026-05-01T15:46:49.941Z</time></trkpt><trkpt lat="42.4056817" lon="14.1460583"><ele>22.0</ele><time>2026-05-01T15:46:50.94Z</time></trkpt><trkpt lat="42.4057583" lon="14.14604"><ele>22.0</ele><time>2026-05-01T15:46:51.94Z</time></trkpt><trkpt lat="42.405835" lon="14.1460583"><ele>22.0</ele><time>2026-05-01T15:46:52.941Z</time></trkpt><trkpt lat="42.40593" lon="14.1461167"><ele>22.0</ele><time>2026-05-01T15:46:53.941Z</time></trkpt><trkpt lat="42.40603" lon="14.14621"><ele>22.0</ele><time>2026-05-01T15:46:54.94Z</time></trkpt><trkpt lat="42.406145" lon="14.1463117"><ele>22.0</ele><time>2026-05-01T15:46:55.94Z</time></trkpt><trkpt lat="42.4062633" lon="14.14642"><ele>22.0</ele><time>2026-05-01T15:46:56.941Z</time></trkpt><trkpt lat="42.4063817" lon="14.1465283"><ele>22.0</ele><time>2026-05-01T15:46:57.94Z</time></trkpt><trkpt lat="42.4065" lon="14.1466317"><ele>22.0</ele><time>2026-05-01T15:46:58.941Z</time></trkpt><trkpt lat="42.4066167" lon="14.1467283"><ele>22.0</ele><time>2026-05-01T15:46:59.941Z</time></trkpt><trkpt lat="42.4067283" lon="14.1468117"><ele>22.0</ele><time>2026-05-01T15:47:00.941Z</time></trkpt><trkpt lat="42.4068483" lon="14.1468833"><ele>22.0</ele><time>2026-05-01T15:47:01.941Z</time></trkpt><trkpt lat="42.4069833" lon="14.1469367"><ele>22.0</ele><time>2026-05-01T15:47:02.941Z</time></trkpt><trkpt lat="42.4071267" lon="14.146995"><ele>22.0</ele><time>2026-05-01T15:47:03.941Z</time></trkpt><trkpt lat="42.4072817" lon="14.147045"><ele>20.666666666666664</ele><time>2026-05-01T15:47:04.941Z</time></trkpt><trkpt lat="42.4074333" lon="14.147065"><ele>19.333333333333332</ele><time>2026-05-01T15:47:05.94Z</time></trkpt><trkpt lat="42.4075917" lon="14.1470833"><ele>18.0</ele><time>2026-05-01T15:47:06.94Z</time></trkpt><trkpt lat="42.4077517" lon="14.14711"><ele>18.0</ele><time>2026-05-01T15:47:07.94Z</time></trkpt><trkpt lat="42.4079083" lon="14.147145"><ele>18.0</ele><time>2026-05-01T15:47:08.941Z</time></trkpt><trkpt lat="42.4080633" lon="14.1471867"><ele>18.0</ele><time>2026-05-01T15:47:09.941Z</time></trkpt><trkpt lat="42.40821" lon="14.14723"><ele>17.666666666666668</ele><time>2026-05-01T15:47:10.941Z</time></trkpt><trkpt lat="42.408355" lon="14.1472867"><ele>17.333333333333336</ele><time>2026-05-01T15:47:11.941Z</time></trkpt><trkpt lat="42.4084983" lon="14.1473467"><ele>17.0</ele><time>2026-05-01T15:47:12.941Z</time></trkpt><trkpt lat="42.40864" lon="14.1474283"><ele>17.0</ele><time>2026-05-01T15:47:13.941Z</time></trkpt><trkpt lat="42.4087683" lon="14.14751"><ele>17.0</ele><time>2026-05-01T15:47:14.94Z</time></trkpt><trkpt lat="42.4089" lon="14.14761"><ele>17.0</ele><time>2026-05-01T15:47:15.941Z</time></trkpt><trkpt lat="42.4090333" lon="14.147715"><ele>17.0</ele><time>2026-05-01T15:47:16.941Z</time></trkpt><trkpt lat="42.4091683" lon="14.1478183"><ele>17.0</ele><time>2026-05-01T15:47:17.94Z</time></trkpt><trkpt lat="42.4093" lon="14.14792"><ele>17.0</ele><time>2026-05-01T15:47:18.94Z</time></trkpt><trkpt lat="42.4094383" lon="14.1480267"><ele>17.0</ele><time>2026-05-01T15:47:19.939Z</time></trkpt><trkpt lat="42.4095733" lon="14.148135"><ele>17.666666666666668</ele><time>2026-05-01T15:47:20.94Z</time></trkpt><trkpt lat="42.4097117" lon="14.1482333"><ele>18.333333333333332</ele><time>2026-05-01T15:47:21.94Z</time></trkpt><trkpt lat="42.4098417" lon="14.1483367"><ele>19.0</ele><time>2026-05-01T15:47:22.94Z</time></trkpt><trkpt lat="42.4099783" lon="14.1484433"><ele>19.0</ele><time>2026-05-01T15:47:23.94Z</time></trkpt><trkpt lat="42.410115" lon="14.1485517"><ele>19.0</ele><time>2026-05-01T15:47:24.94Z</time></trkpt><trkpt lat="42.4102583" lon="14.14866"><ele>19.0</ele><time>2026-05-01T15:47:25.939Z</time></trkpt><trkpt lat="42.4104017" lon="14.1487683"><ele>19.0</ele><time>2026-05-01T15:47:26.94Z</time></trkpt><trkpt lat="42.4105533" lon="14.14888"><ele>19.0</ele><time>2026-05-01T15:47:27.94Z</time></trkpt><trkpt lat="42.4107083" lon="14.1489983"><ele>19.0</ele><time>2026-05-01T15:47:28.94Z</time></trkpt><trkpt lat="42.410865" lon="14.14913"><ele>19.666666666666664</ele><time>2026-05-01T15:47:29.94Z</time></trkpt><trkpt lat="42.4110367" lon="14.14926"><ele>20.333333333333332</ele><time>2026-05-01T15:47:30.939Z</time></trkpt><trkpt lat="42.4112217" lon="14.1493983"><ele>21.0</ele><time>2026-05-01T15:47:31.94Z</time></trkpt><trkpt lat="42.4114033" lon="14.149535"><ele>21.0</ele><time>2026-05-01T15:47:32.94Z</time></trkpt><trkpt lat="42.4115817" lon="14.1496767"><ele>21.0</ele><time>2026-05-01T15:47:33.94Z</time></trkpt><trkpt lat="42.4117617" lon="14.1498233"><ele>21.0</ele><time>2026-05-01T15:47:34.94Z</time></trkpt><trkpt lat="42.4119283" lon="14.1499817"><ele>20.0</ele><time>2026-05-01T15:47:35.939Z</time></trkpt><trkpt lat="42.4120933" lon="14.1501183"><ele>19.0</ele><time>2026-05-01T15:47:36.939Z</time></trkpt><trkpt lat="42.4122483" lon="14.15025"><ele>18.0</ele><time>2026-05-01T15:47:37.939Z</time></trkpt><trkpt lat="42.4124083" lon="14.15038"><ele>17.0</ele><time>2026-05-01T15:47:38.94Z</time></trkpt><trkpt lat="42.4125567" lon="14.1505083"><ele>16.0</ele><time>2026-05-01T15:47:39.94Z</time></trkpt><trkpt lat="42.41271" lon="14.1506233"><ele>15.0</ele><time>2026-05-01T15:47:40.939Z</time></trkpt><trkpt lat="42.4128533" lon="14.1507433"><ele>15.0</ele><time>2026-05-01T15:47:41.939Z</time></trkpt><trkpt lat="42.41299" lon="14.1508767"><ele>15.0</ele><time>2026-05-01T15:47:42.94Z</time></trkpt><trkpt lat="42.41313" lon="14.1510183"><ele>15.0</ele><time>2026-05-01T15:47:43.94Z</time></trkpt><trkpt lat="42.413265" lon="14.1511667"><ele>15.0</ele><time>2026-05-01T15:47:44.939Z</time></trkpt><trkpt lat="42.4134" lon="14.1513167"><ele>15.0</ele><time>2026-05-01T15:47:45.939Z</time></trkpt><trkpt lat="42.413535" lon="14.1514517"><ele>15.0</ele><time>2026-05-01T15:47:46.94Z</time></trkpt><trkpt lat="42.4136717" lon="14.1515733"><ele>15.333333333333332</ele><time>2026-05-01T15:47:47.939Z</time></trkpt><trkpt lat="42.4138083" lon="14.1516733"><ele>15.666666666666666</ele><time>2026-05-01T15:47:48.94Z</time></trkpt><trkpt lat="42.4139617" lon="14.151765"><ele>16.0</ele><time>2026-05-01T15:47:49.94Z</time></trkpt><trkpt lat="42.4141083" lon="14.1518483"><ele>16.0</ele><time>2026-05-01T15:47:50.94Z</time></trkpt><trkpt lat="42.414255" lon="14.1519167"><ele>16.0</ele><time>2026-05-01T15:47:51.94Z</time></trkpt><trkpt lat="42.4144083" lon="14.1519767"><ele>16.0</ele><time>2026-05-01T15:47:52.94Z</time></trkpt><trkpt lat="42.4145633" lon="14.1520083"><ele>15.666666666666666</ele><time>2026-05-01T15:47:53.939Z</time></trkpt><trkpt lat="42.4147183" lon="14.15203"><ele>15.333333333333332</ele><time>2026-05-01T15:47:54.94Z</time></trkpt><trkpt lat="42.4148867" lon="14.1520417"><ele>15.0</ele><time>2026-05-01T15:47:55.939Z</time></trkpt><trkpt lat="42.4150417" lon="14.1520483"><ele>15.0</ele><time>2026-05-01T15:47:56.94Z</time></trkpt><trkpt lat="42.4152083" lon="14.15205"><ele>15.0</ele><time>2026-05-01T15:47:57.94Z</time></trkpt><trkpt lat="42.4153733" lon="14.1520617"><ele>15.0</ele><time>2026-05-01T15:47:58.94Z</time></trkpt><trkpt lat="42.4155267" lon="14.1520717"><ele>15.25</ele><time>2026-05-01T15:47:59.94Z</time></trkpt><trkpt lat="42.4156783" lon="14.152095"><ele>15.5</ele><time>2026-05-01T15:48:00.94Z</time></trkpt><trkpt lat="42.4158167" lon="14.1521283"><ele>15.75</ele><time>2026-05-01T15:48:01.94Z</time></trkpt><trkpt lat="42.41596" lon="14.1521933"><ele>16.0</ele><time>2026-05-01T15:48:02.94Z</time></trkpt><trkpt lat="42.41612" lon="14.152265"><ele>16.0</ele><time>2026-05-01T15:48:03.94Z</time></trkpt><trkpt lat="42.4162683" lon="14.152365"><ele>16.0</ele><time>2026-05-01T15:48:04.94Z</time></trkpt><trkpt lat="42.41641" lon="14.15251"><ele>16.0</ele><time>2026-05-01T15:48:05.939Z</time></trkpt><trkpt lat="42.4165367" lon="14.1526567"><ele>17.333333333333332</ele><time>2026-05-01T15:48:06.939Z</time></trkpt><trkpt lat="42.41665" lon="14.152815"><ele>18.666666666666668</ele><time>2026-05-01T15:48:07.939Z</time></trkpt><trkpt lat="42.41676" lon="14.1529833"><ele>20.0</ele><time>2026-05-01T15:48:08.939Z</time></trkpt><trkpt lat="42.41687" lon="14.1531483"><ele>19.666666666666668</ele><time>2026-05-01T15:48:09.939Z</time></trkpt><trkpt lat="42.416985" lon="14.1533067"><ele>19.333333333333332</ele><time>2026-05-01T15:48:10.94Z</time></trkpt><trkpt lat="42.4171017" lon="14.153465"><ele>19.0</ele><time>2026-05-01T15:48:11.939Z</time></trkpt><trkpt lat="42.41722" lon="14.1536383"><ele>19.0</ele><time>2026-05-01T15:48:12.94Z</time></trkpt><trkpt lat="42.41734" lon="14.153795"><ele>19.0</ele><time>2026-05-01T15:48:13.94Z</time></trkpt><trkpt lat="42.4174633" lon="14.1539467"><ele>19.0</ele><time>2026-05-01T15:48:14.94Z</time></trkpt><trkpt lat="42.41758" lon="14.15412"><ele>19.0</ele><time>2026-05-01T15:48:15.94Z</time></trkpt><trkpt lat="42.4177033" lon="14.1542817"><ele>19.0</ele><time>2026-05-01T15:48:16.94Z</time></trkpt><trkpt lat="42.4178267" lon="14.1544433"><ele>19.0</ele><time>2026-05-01T15:48:17.94Z</time></trkpt><trkpt lat="42.4179533" lon="14.154615"><ele>19.0</ele><time>2026-05-01T15:48:18.939Z</time></trkpt><trkpt lat="42.4180717" lon="14.15479"><ele>19.0</ele><time>2026-05-01T15:48:19.94Z</time></trkpt><trkpt lat="42.4181983" lon="14.154975"><ele>19.0</ele><time>2026-05-01T15:48:20.939Z</time></trkpt><trkpt lat="42.4183283" lon="14.1551483"><ele>18.333333333333332</ele><time>2026-05-01T15:48:21.939Z</time></trkpt><trkpt lat="42.41846" lon="14.1553167"><ele>17.666666666666668</ele><time>2026-05-01T15:48:22.94Z</time></trkpt><trkpt lat="42.4185883" lon="14.1554983"><ele>17.0</ele><time>2026-05-01T15:48:23.94Z</time></trkpt><trkpt lat="42.4187117" lon="14.1556583"><ele>19.0</ele><time>2026-05-01T15:48:24.939Z</time></trkpt><trkpt lat="42.4188317" lon="14.1558167"><ele>21.0</ele><time>2026-05-01T15:48:25.94Z</time></trkpt><trkpt lat="42.4189433" lon="14.15597"><ele>23.0</ele><time>2026-05-01T15:48:26.939Z</time></trkpt><trkpt lat="42.4190433" lon="14.15611"><ele>23.0</ele><time>2026-05-01T15:48:27.94Z</time></trkpt><trkpt lat="42.4191333" lon="14.156235"><ele>23.0</ele><time>2026-05-01T15:48:28.94Z</time></trkpt><trkpt lat="42.41923" lon="14.1563317"><ele>23.0</ele><time>2026-05-01T15:48:29.939Z</time></trkpt><trkpt lat="42.41934" lon="14.1563933"><ele>23.0</ele><time>2026-05-01T15:48:30.94Z</time></trkpt><trkpt lat="42.419465" lon="14.1564517"><ele>23.0</ele><time>2026-05-01T15:48:31.94Z</time></trkpt><trkpt lat="42.4196333" lon="14.1565183"><ele>23.0</ele><time>2026-05-01T15:48:32.94Z</time></trkpt><trkpt lat="42.4198083" lon="14.1565917"><ele>23.0</ele><time>2026-05-01T15:48:33.94Z</time></trkpt><trkpt lat="42.4199733" lon="14.1566517"><ele>22.0</ele><time>2026-05-01T15:48:34.94Z</time></trkpt><trkpt lat="42.420125" lon="14.1567067"><ele>21.0</ele><time>2026-05-01T15:48:35.94Z</time></trkpt><trkpt lat="42.4202717" lon="14.156785"><ele>20.0</ele><time>2026-05-01T15:48:36.94Z</time></trkpt><trkpt lat="42.4204167" lon="14.1568467"><ele>20.333333333333336</ele><time>2026-05-01T15:48:37.94Z</time></trkpt><trkpt lat="42.4205783" lon="14.15689"><ele>20.666666666666668</ele><time>2026-05-01T15:48:38.94Z</time></trkpt><trkpt lat="42.4207467" lon="14.156955"><ele>21.0</ele><time>2026-05-01T15:48:39.94Z</time></trkpt><trkpt lat="42.42092" lon="14.1570267"><ele>21.0</ele><time>2026-05-01T15:48:40.939Z</time></trkpt><trkpt lat="42.4210833" lon="14.1570917"><ele>21.0</ele><time>2026-05-01T15:48:41.94Z</time></trkpt><trkpt lat="42.4212333" lon="14.1571483"><ele>21.0</ele><time>2026-05-01T15:48:42.94Z</time></trkpt><trkpt lat="42.42136" lon="14.1572133"><ele>21.5</ele><time>2026-05-01T15:48:43.94Z</time></trkpt><trkpt lat="42.421485" lon="14.1572617"><ele>22.0</ele><time>2026-05-01T15:48:44.94Z</time></trkpt><trkpt lat="42.4216" lon="14.1573167"><ele>22.5</ele><time>2026-05-01T15:48:45.94Z</time></trkpt><trkpt lat="42.42171" lon="14.157355"><ele>23.0</ele><time>2026-05-01T15:48:46.94Z</time></trkpt><trkpt lat="42.42183" lon="14.1573967"><ele>22.4</ele><time>2026-05-01T15:48:47.94Z</time></trkpt><trkpt lat="42.42194" lon="14.1574117"><ele>21.799999999999997</ele><time>2026-05-01T15:48:48.94Z</time></trkpt><trkpt lat="42.422025" lon="14.157405"><ele>21.2</ele><time>2026-05-01T15:48:49.939Z</time></trkpt><trkpt lat="42.4220883" lon="14.1574"><ele>20.6</ele><time>2026-05-01T15:48:50.939Z</time></trkpt><trkpt lat="42.4221917" lon="14.1574133"><ele>20.0</ele><time>2026-05-01T15:48:57.94Z</time></trkpt><trkpt lat="42.422285" lon="14.1574683"><ele>20.0</ele><time>2026-05-01T15:48:59.939Z</time></trkpt><trkpt lat="42.4223417" lon="14.1575083"><ele>20.0</ele><time>2026-05-01T15:49:00.94Z</time></trkpt><trkpt lat="42.422405" lon="14.15753"><ele>20.0</ele><time>2026-05-01T15:49:01.939Z</time></trkpt><trkpt lat="42.4224733" lon="14.1575517"><ele>20.0</ele><time>2026-05-01T15:49:02.939Z</time></trkpt><trkpt lat="42.4225417" lon="14.1575867"><ele>20.0</ele><time>2026-05-01T15:49:03.939Z</time></trkpt><trkpt lat="42.4226167" lon="14.1576333"><ele>20.0</ele><time>2026-05-01T15:49:04.94Z</time></trkpt><trkpt lat="42.4226967" lon="14.157715"><ele>20.0</ele><time>2026-05-01T15:49:05.94Z</time></trkpt><trkpt lat="42.42278" lon="14.157785"><ele>20.0</ele><time>2026-05-01T15:49:06.94Z</time></trkpt><trkpt lat="42.4228733" lon="14.1578333"><ele>20.0</ele><time>2026-05-01T15:49:07.939Z</time></trkpt><trkpt lat="42.4229767" lon="14.1578833"><ele>20.0</ele><time>2026-05-01T15:49:08.94Z</time></trkpt><trkpt lat="42.4230717" lon="14.1579233"><ele>20.0</ele><time>2026-05-01T15:49:09.94Z</time></trkpt><trkpt lat="42.4231617" lon="14.15795"><ele>19.666666666666668</ele><time>2026-05-01T15:49:10.939Z</time></trkpt><trkpt lat="42.42324" lon="14.1579683"><ele>19.333333333333336</ele><time>2026-05-01T15:49:11.94Z</time></trkpt><trkpt lat="42.42332" lon="14.158"><ele>19.0</ele><time>2026-05-01T15:49:12.94Z</time></trkpt><trkpt lat="42.4233917" lon="14.1580333"><ele>18.666666666666668</ele><time>2026-05-01T15:49:13.94Z</time></trkpt><trkpt lat="42.4235017" lon="14.1580767"><ele>18.333333333333332</ele><time>2026-05-01T15:49:15.939Z</time></trkpt><trkpt lat="42.4235867" lon="14.1581033"><ele>18.0</ele><time>2026-05-01T15:49:17.94Z</time></trkpt><trkpt lat="42.4236733" lon="14.1581283"><ele>18.0</ele><time>2026-05-01T15:49:19.939Z</time></trkpt><trkpt lat="42.4237933" lon="14.1581633"><ele>18.0</ele><time>2026-05-01T15:49:21.94Z</time></trkpt><trkpt lat="42.4238617" lon="14.1581983"><ele>18.0</ele><time>2026-05-01T15:49:22.94Z</time></trkpt><trkpt lat="42.423935" lon="14.1582283"><ele>18.0</ele><time>2026-05-01T15:49:23.94Z</time></trkpt><trkpt lat="42.4240083" lon="14.1582583"><ele>18.0</ele><time>2026-05-01T15:49:24.939Z</time></trkpt><trkpt lat="42.4240767" lon="14.158285"><ele>18.0</ele><time>2026-05-01T15:49:25.939Z</time></trkpt><trkpt lat="42.42418" lon="14.1583367"><ele>17.833333333333332</ele><time>2026-05-01T15:49:27.94Z</time></trkpt><trkpt lat="42.4242417" lon="14.15838"><ele>17.666666666666668</ele><time>2026-05-01T15:49:29.94Z</time></trkpt><trkpt lat="42.4243083" lon="14.15841"><ele>17.5</ele><time>2026-05-01T15:49:32.94Z</time></trkpt><trkpt lat="42.4243883" lon="14.15843"><ele>17.333333333333336</ele><time>2026-05-01T15:49:37.94Z</time></trkpt><trkpt lat="42.4244567" lon="14.1584517"><ele>17.166666666666668</ele><time>2026-05-01T15:49:38.94Z</time></trkpt><trkpt lat="42.424545" lon="14.15848"><ele>17.0</ele><time>2026-05-01T15:49:39.94Z</time></trkpt><trkpt lat="42.4246433" lon="14.158515"><ele>17.25</ele><time>2026-05-01T15:49:40.94Z</time></trkpt><trkpt lat="42.424755" lon="14.1585783"><ele>17.5</ele><time>2026-05-01T15:49:41.94Z</time></trkpt><trkpt lat="42.4248717" lon="14.15863"><ele>17.75</ele><time>2026-05-01T15:49:42.94Z</time></trkpt><trkpt lat="42.4249967" lon="14.1586817"><ele>18.0</ele><time>2026-05-01T15:49:43.94Z</time></trkpt><trkpt lat="42.4251233" lon="14.158735"><ele>18.0</ele><time>2026-05-01T15:49:44.94Z</time></trkpt><trkpt lat="42.4252367" lon="14.15878"><ele>18.0</ele><time>2026-05-01T15:49:45.94Z</time></trkpt><trkpt lat="42.42534" lon="14.1588283"><ele>18.0</ele><time>2026-05-01T15:49:46.94Z</time></trkpt><trkpt lat="42.425435" lon="14.1588767"><ele>18.0</ele><time>2026-05-01T15:49:47.94Z</time></trkpt><trkpt lat="42.4255233" lon="14.1589217"><ele>18.0</ele><time>2026-05-01T15:49:48.939Z</time></trkpt><trkpt lat="42.4256067" lon="14.1589583"><ele>18.166666666666668</ele><time>2026-05-01T15:49:49.94Z</time></trkpt><trkpt lat="42.4256767" lon="14.159"><ele>18.333333333333332</ele><time>2026-05-01T15:49:50.94Z</time></trkpt><trkpt lat="42.4257517" lon="14.159035"><ele>18.5</ele><time>2026-05-01T15:49:51.94Z</time></trkpt><trkpt lat="42.425855" lon="14.1591183"><ele>18.666666666666664</ele><time>2026-05-01T15:49:53.94Z</time></trkpt><trkpt lat="42.4259133" lon="14.1591533"><ele>18.833333333333332</ele><time>2026-05-01T15:49:54.94Z</time></trkpt><trkpt lat="42.4259783" lon="14.1591933"><ele>19.0</ele><time>2026-05-01T15:49:55.94Z</time></trkpt><trkpt lat="42.4260467" lon="14.159245"><ele>19.0</ele><time>2026-05-01T15:49:56.94Z</time></trkpt><trkpt lat="42.4261183" lon="14.1592917"><ele>19.0</ele><time>2026-05-01T15:49:57.939Z</time></trkpt><trkpt lat="42.426195" lon="14.15933"><ele>19.0</ele><time>2026-05-01T15:49:58.94Z</time></trkpt><trkpt lat="42.4262633" lon="14.1593867"><ele>19.0</ele><time>2026-05-01T15:49:59.939Z</time></trkpt><trkpt lat="42.4263383" lon="14.1594333"><ele>19.0</ele><time>2026-05-01T15:50:00.94Z</time></trkpt><trkpt lat="42.4264083" lon="14.159485"><ele>19.0</ele><time>2026-05-01T15:50:01.939Z</time></trkpt><trkpt lat="42.4264817" lon="14.1595283"><ele>19.0</ele><time>2026-05-01T15:50:02.94Z</time></trkpt><trkpt lat="42.4265467" lon="14.159575"><ele>19.0</ele><time>2026-05-01T15:50:03.94Z</time></trkpt><trkpt lat="42.4266133" lon="14.159625"><ele>19.0</ele><time>2026-05-01T15:50:04.94Z</time></trkpt><trkpt lat="42.42668" lon="14.1596733"><ele>19.0</ele><time>2026-05-01T15:50:05.94Z</time></trkpt><trkpt lat="42.42674" lon="14.1597217"><ele>19.0</ele><time>2026-05-01T15:50:06.939Z</time></trkpt><trkpt lat="42.4267983" lon="14.159775"><ele>19.0</ele><time>2026-05-01T15:50:07.94Z</time></trkpt><trkpt lat="42.4268617" lon="14.1598267"><ele>19.0</ele><time>2026-05-01T15:50:08.94Z</time></trkpt><trkpt lat="42.4269317" lon="14.1598917"><ele>19.0</ele><time>2026-05-01T15:50:09.939Z</time></trkpt><trkpt lat="42.4270067" lon="14.1599483"><ele>19.0</ele><time>2026-05-01T15:50:10.94Z</time></trkpt><trkpt lat="42.42708" lon="14.16002"><ele>19.0</ele><time>2026-05-01T15:50:11.94Z</time></trkpt><trkpt lat="42.4271567" lon="14.16008"><ele>19.0</ele><time>2026-05-01T15:50:12.94Z</time></trkpt><trkpt lat="42.42724" lon="14.1601333"><ele>19.0</ele><time>2026-05-01T15:50:13.94Z</time></trkpt><trkpt lat="42.4273233" lon="14.1602017"><ele>18.75</ele><time>2026-05-01T15:50:14.94Z</time></trkpt><trkpt lat="42.42742" lon="14.160285"><ele>18.5</ele><time>2026-05-01T15:50:15.939Z</time></trkpt><trkpt lat="42.4275067" lon="14.1603733"><ele>18.25</ele><time>2026-05-01T15:50:16.94Z</time></trkpt><trkpt lat="42.4276067" lon="14.1604483"><ele>18.0</ele><time>2026-05-01T15:50:17.94Z</time></trkpt><trkpt lat="42.4277067" lon="14.1605333"><ele>18.0</ele><time>2026-05-01T15:50:18.939Z</time></trkpt><trkpt lat="42.4278067" lon="14.1606283"><ele>18.0</ele><time>2026-05-01T15:50:19.94Z</time></trkpt><trkpt lat="42.4279" lon="14.16071"><ele>18.0</ele><time>2026-05-01T15:50:20.94Z</time></trkpt><trkpt lat="42.4279933" lon="14.1607883"><ele>18.0</ele><time>2026-05-01T15:50:21.94Z</time></trkpt><trkpt lat="42.4280817" lon="14.16088"><ele>17.75</ele><time>2026-05-01T15:50:22.94Z</time></trkpt><trkpt lat="42.4281783" lon="14.1609733"><ele>17.5</ele><time>2026-05-01T15:50:23.94Z</time></trkpt><trkpt lat="42.42828" lon="14.1610717"><ele>17.25</ele><time>2026-05-01T15:50:24.94Z</time></trkpt><trkpt lat="42.42839" lon="14.16119"><ele>17.0</ele><time>2026-05-01T15:50:25.939Z</time></trkpt><trkpt lat="42.4285233" lon="14.1613083"><ele>17.0</ele><time>2026-05-01T15:50:26.939Z</time></trkpt><trkpt lat="42.42865" lon="14.1614467"><ele>17.0</ele><time>2026-05-01T15:50:27.939Z</time></trkpt><trkpt lat="42.428775" lon="14.161565"><ele>17.0</ele><time>2026-05-01T15:50:28.939Z</time></trkpt><trkpt lat="42.428895" lon="14.16168"><ele>19.5</ele><time>2026-05-01T15:50:29.938Z</time></trkpt><trkpt lat="42.4290017" lon="14.1618067"><ele>22.0</ele><time>2026-05-01T15:50:30.938Z</time></trkpt><trkpt lat="42.4291183" lon="14.161925"><ele>24.5</ele><time>2026-05-01T15:50:31.938Z</time></trkpt><trkpt lat="42.4292383" lon="14.1620433"><ele>27.0</ele><time>2026-05-01T15:50:32.939Z</time></trkpt><trkpt lat="42.4293583" lon="14.16215"><ele>27.0</ele><time>2026-05-01T15:50:33.939Z</time></trkpt><trkpt lat="42.429465" lon="14.162265"><ele>27.0</ele><time>2026-05-01T15:50:34.939Z</time></trkpt><trkpt lat="42.42957" lon="14.162385"><ele>27.0</ele><time>2026-05-01T15:50:35.939Z</time></trkpt><trkpt lat="42.4296717" lon="14.1624883"><ele>27.0</ele><time>2026-05-01T15:50:36.939Z</time></trkpt><trkpt lat="42.4297783" lon="14.1625867"><ele>25.5</ele><time>2026-05-01T15:50:37.939Z</time></trkpt><trkpt lat="42.4298883" lon="14.16267"><ele>24.0</ele><time>2026-05-01T15:50:38.938Z</time></trkpt><trkpt lat="42.4299917" lon="14.16272"><ele>22.5</ele><time>2026-05-01T15:50:39.938Z</time></trkpt><trkpt lat="42.4300983" lon="14.1627483"><ele>21.0</ele><time>2026-05-01T15:50:40.938Z</time></trkpt><trkpt lat="42.430205" lon="14.1627733"><ele>21.0</ele><time>2026-05-01T15:50:41.939Z</time></trkpt><trkpt lat="42.4303017" lon="14.16279"><ele>21.0</ele><time>2026-05-01T15:50:42.939Z</time></trkpt><trkpt lat="42.4303867" lon="14.16279"><ele>21.0</ele><time>2026-05-01T15:50:43.938Z</time></trkpt><trkpt lat="42.430495" lon="14.1627767"><ele>21.0</ele><time>2026-05-01T15:50:45.939Z</time></trkpt><trkpt lat="42.4305367" lon="14.1627033"><ele>21.0</ele><time>2026-05-01T15:50:47.939Z</time></trkpt><trkpt lat="42.4304883" lon="14.1626"><ele>21.0</ele><time>2026-05-01T15:50:50.939Z</time></trkpt><trkpt lat="42.4304167" lon="14.1625167"><ele>21.0</ele><time>2026-05-01T15:50:52.938Z</time></trkpt><trkpt lat="42.4303483" lon="14.162425"><ele>21.0</ele><time>2026-05-01T15:50:54.939Z</time></trkpt><trkpt lat="42.4303417" lon="14.1622967"><ele>21.0</ele><time>2026-05-01T15:50:56.939Z</time></trkpt><trkpt lat="42.4303767" lon="14.1622"><ele>21.0</ele><time>2026-05-01T15:50:57.939Z</time></trkpt><trkpt lat="42.4304233" lon="14.1621033"><ele>21.4</ele><time>2026-05-01T15:50:58.939Z</time></trkpt><trkpt lat="42.4304767" lon="14.1620017"><ele>21.8</ele><time>2026-05-01T15:50:59.939Z</time></trkpt><trkpt lat="42.43053" lon="14.1618817"><ele>22.2</ele><time>2026-05-01T15:51:00.939Z</time></trkpt><trkpt lat="42.4305833" lon="14.1617467"><ele>22.599999999999998</ele><time>2026-05-01T15:51:01.939Z</time></trkpt><trkpt lat="42.43064" lon="14.1616167"><ele>23.0</ele><time>2026-05-01T15:51:02.939Z</time></trkpt><trkpt lat="42.4306967" lon="14.1614817"><ele>23.799999999999997</ele><time>2026-05-01T15:51:03.939Z</time></trkpt><trkpt lat="42.4307417" lon="14.1613717"><ele>24.6</ele><time>2026-05-01T15:51:04.939Z</time></trkpt><trkpt lat="42.430785" lon="14.1612833"><ele>25.400000000000002</ele><time>2026-05-01T15:51:05.938Z</time></trkpt><trkpt lat="42.4308217" lon="14.1611933"><ele>26.200000000000003</ele><time>2026-05-01T15:51:06.939Z</time></trkpt><trkpt lat="42.4308567" lon="14.161105"><ele>27.0</ele><time>2026-05-01T15:51:08.939Z</time></trkpt><trkpt lat="42.4309267" lon="14.1609483"><ele>27.0</ele><time>2026-05-01T15:51:18.938Z</time></trkpt><trkpt lat="42.4309783" lon="14.16082"><ele>27.0</ele><time>2026-05-01T15:51:19.939Z</time></trkpt><trkpt lat="42.4310367" lon="14.16066"><ele>27.0</ele><time>2026-05-01T15:51:20.939Z</time></trkpt><trkpt lat="42.4311067" lon="14.1604683"><ele>27.0</ele><time>2026-05-01T15:51:21.939Z</time></trkpt><trkpt lat="42.4312083" lon="14.1602533"><ele>27.0</ele><time>2026-05-01T15:51:22.938Z</time></trkpt><trkpt lat="42.4313" lon="14.1600333"><ele>27.0</ele><time>2026-05-01T15:51:23.939Z</time></trkpt><trkpt lat="42.43139" lon="14.159795"><ele>27.0</ele><time>2026-05-01T15:51:24.939Z</time></trkpt><trkpt lat="42.4314717" lon="14.15958"><ele>28.666666666666664</ele><time>2026-05-01T15:51:25.939Z</time></trkpt><trkpt lat="42.4315517" lon="14.1593967"><ele>30.333333333333332</ele><time>2026-05-01T15:51:26.939Z</time></trkpt><trkpt lat="42.4316283" lon="14.1592233"><ele>32.0</ele><time>2026-05-01T15:51:27.939Z</time></trkpt><trkpt lat="42.4317" lon="14.159055"><ele>32.25</ele><time>2026-05-01T15:51:28.939Z</time></trkpt><trkpt lat="42.4317583" lon="14.1588983"><ele>32.5</ele><time>2026-05-01T15:51:29.939Z</time></trkpt><trkpt lat="42.4318283" lon="14.1587433"><ele>32.75</ele><time>2026-05-01T15:51:30.939Z</time></trkpt><trkpt lat="42.4318917" lon="14.1585933"><ele>33.0</ele><time>2026-05-01T15:51:31.939Z</time></trkpt><trkpt lat="42.4319517" lon="14.1584383"><ele>33.0</ele><time>2026-05-01T15:51:32.939Z</time></trkpt><trkpt lat="42.4320133" lon="14.1582967"><ele>33.0</ele><time>2026-05-01T15:51:33.938Z</time></trkpt><trkpt lat="42.4320683" lon="14.1581617"><ele>33.0</ele><time>2026-05-01T15:51:34.939Z</time></trkpt><trkpt lat="42.4321233" lon="14.1580183"><ele>33.0</ele><time>2026-05-01T15:51:35.939Z</time></trkpt><trkpt lat="42.43218" lon="14.1578833"><ele>35.0</ele><time>2026-05-01T15:51:36.939Z</time></trkpt><trkpt lat="42.4322417" lon="14.157745"><ele>37.0</ele><time>2026-05-01T15:51:37.939Z</time></trkpt><trkpt lat="42.43231" lon="14.1576083"><ele>39.0</ele><time>2026-05-01T15:51:38.938Z</time></trkpt><trkpt lat="42.4323783" lon="14.1574733"><ele>41.0</ele><time>2026-05-01T15:51:39.939Z</time></trkpt><trkpt lat="42.4324617" lon="14.15735"><ele>42.0</ele><time>2026-05-01T15:51:40.939Z</time></trkpt><trkpt lat="42.4325567" lon="14.1572283"><ele>43.0</ele><time>2026-05-01T15:51:41.938Z</time></trkpt><trkpt lat="42.4326667" lon="14.1571"><ele>44.0</ele><time>2026-05-01T15:51:42.939Z</time></trkpt><trkpt lat="42.4327917" lon="14.1569983"><ele>45.0</ele><time>2026-05-01T15:51:43.938Z</time></trkpt><trkpt lat="42.4329183" lon="14.1569"><ele>46.66666666666667</ele><time>2026-05-01T15:51:44.938Z</time></trkpt><trkpt lat="42.433045" lon="14.1567917"><ele>48.333333333333336</ele><time>2026-05-01T15:51:45.939Z</time></trkpt><trkpt lat="42.4331733" lon="14.1566917"><ele>50.0</ele><time>2026-05-01T15:51:46.939Z</time></trkpt><trkpt lat="42.43331" lon="14.156585"><ele>50.66666666666667</ele><time>2026-05-01T15:51:47.938Z</time></trkpt><trkpt lat="42.4334433" lon="14.1564717"><ele>51.33333333333333</ele><time>2026-05-01T15:51:48.938Z</time></trkpt><trkpt lat="42.4335783" lon="14.1563683"><ele>52.0</ele><time>2026-05-01T15:51:49.938Z</time></trkpt><trkpt lat="42.4337117" lon="14.156265"><ele>52.666666666666664</ele><time>2026-05-01T15:51:50.939Z</time></trkpt><trkpt lat="42.43385" lon="14.1561583"><ele>53.33333333333333</ele><time>2026-05-01T15:51:51.939Z</time></trkpt><trkpt lat="42.43399" lon="14.156055"><ele>54.0</ele><time>2026-05-01T15:51:52.939Z</time></trkpt><trkpt lat="42.4341283" lon="14.1559467"><ele>54.0</ele><time>2026-05-01T15:51:53.939Z</time></trkpt><trkpt lat="42.4342717" lon="14.1558417"><ele>54.0</ele><time>2026-05-01T15:51:54.939Z</time></trkpt><trkpt lat="42.434415" lon="14.1557383"><ele>54.0</ele><time>2026-05-01T15:51:55.939Z</time></trkpt><trkpt lat="42.43456" lon="14.1556367"><ele>55.66666666666667</ele><time>2026-05-01T15:51:56.938Z</time></trkpt><trkpt lat="42.4347067" lon="14.1555267"><ele>57.333333333333336</ele><time>2026-05-01T15:51:57.939Z</time></trkpt><trkpt lat="42.4348517" lon="14.1554117"><ele>59.0</ele><time>2026-05-01T15:51:58.938Z</time></trkpt><trkpt lat="42.4350017" lon="14.155305"><ele>59.0</ele><time>2026-05-01T15:51:59.939Z</time></trkpt><trkpt lat="42.4351483" lon="14.15519"><ele>59.0</ele><time>2026-05-01T15:52:00.939Z</time></trkpt><trkpt lat="42.43529" lon="14.155085"><ele>59.0</ele><time>2026-05-01T15:52:01.938Z</time></trkpt><trkpt lat="42.43543" lon="14.1549733"><ele>60.333333333333336</ele><time>2026-05-01T15:52:02.939Z</time></trkpt><trkpt lat="42.43557" lon="14.154865"><ele>61.66666666666667</ele><time>2026-05-01T15:52:03.939Z</time></trkpt><trkpt lat="42.4357133" lon="14.154765"><ele>63.0</ele><time>2026-05-01T15:52:04.939Z</time></trkpt><trkpt lat="42.4358567" lon="14.1546567"><ele>63.0</ele><time>2026-05-01T15:52:05.939Z</time></trkpt><trkpt lat="42.4360033" lon="14.1545433"><ele>63.0</ele><time>2026-05-01T15:52:06.939Z</time></trkpt><trkpt lat="42.4361483" lon="14.154425"><ele>63.0</ele><time>2026-05-01T15:52:07.938Z</time></trkpt><trkpt lat="42.4362917" lon="14.154305"><ele>63.33333333333333</ele><time>2026-05-01T15:52:08.938Z</time></trkpt><trkpt lat="42.4364317" lon="14.1541867"><ele>63.666666666666664</ele><time>2026-05-01T15:52:09.939Z</time></trkpt><trkpt lat="42.4365683" lon="14.1540733"><ele>64.0</ele><time>2026-05-01T15:52:10.938Z</time></trkpt><trkpt lat="42.436705" lon="14.1539567"><ele>65.25</ele><time>2026-05-01T15:52:11.939Z</time></trkpt><trkpt lat="42.4368317" lon="14.1538367"><ele>66.5</ele><time>2026-05-01T15:52:12.939Z</time></trkpt><trkpt lat="42.43695" lon="14.1537267"><ele>67.75</ele><time>2026-05-01T15:52:13.939Z</time></trkpt><trkpt lat="42.4370733" lon="14.1536183"><ele>69.0</ele><time>2026-05-01T15:52:14.939Z</time></trkpt><trkpt lat="42.4371967" lon="14.1535167"><ele>69.0</ele><time>2026-05-01T15:52:15.939Z</time></trkpt><trkpt lat="42.43731" lon="14.1534117"><ele>69.0</ele><time>2026-05-01T15:52:16.939Z</time></trkpt><trkpt lat="42.4374317" lon="14.153325"><ele>69.0</ele><time>2026-05-01T15:52:17.939Z</time></trkpt><trkpt lat="42.4375683" lon="14.1532733"><ele>69.0</ele><time>2026-05-01T15:52:18.939Z</time></trkpt><trkpt lat="42.4377083" lon="14.1532333"><ele>68.5</ele><time>2026-05-01T15:52:19.938Z</time></trkpt><trkpt lat="42.4378467" lon="14.1531967"><ele>68.0</ele><time>2026-05-01T15:52:20.938Z</time></trkpt><trkpt lat="42.437995" lon="14.1531583"><ele>67.5</ele><time>2026-05-01T15:52:21.939Z</time></trkpt><trkpt lat="42.438135" lon="14.153105"><ele>67.0</ele><time>2026-05-01T15:52:22.939Z</time></trkpt><trkpt lat="42.4382717" lon="14.15304"><ele>65.66666666666666</ele><time>2026-05-01T15:52:23.939Z</time></trkpt><trkpt lat="42.4384083" lon="14.1529533"><ele>64.33333333333333</ele><time>2026-05-01T15:52:24.939Z</time></trkpt><trkpt lat="42.4385367" lon="14.1528517"><ele>63.0</ele><time>2026-05-01T15:52:25.939Z</time></trkpt><trkpt lat="42.4386633" lon="14.15273"><ele>63.0</ele><time>2026-05-01T15:52:26.939Z</time></trkpt><trkpt lat="42.438785" lon="14.1525883"><ele>63.0</ele><time>2026-05-01T15:52:27.939Z</time></trkpt><trkpt lat="42.4388933" lon="14.152435"><ele>63.0</ele><time>2026-05-01T15:52:28.938Z</time></trkpt><trkpt lat="42.4390017" lon="14.1522817"><ele>66.33333333333333</ele><time>2026-05-01T15:52:29.938Z</time></trkpt><trkpt lat="42.4391017" lon="14.15212"><ele>69.66666666666666</ele><time>2026-05-01T15:52:30.939Z</time></trkpt><trkpt lat="42.4392017" lon="14.151965"><ele>73.0</ele><time>2026-05-01T15:52:31.939Z</time></trkpt><trkpt lat="42.4393067" lon="14.151835"><ele>73.0</ele><time>2026-05-01T15:52:32.939Z</time></trkpt><trkpt lat="42.439415" lon="14.15172"><ele>73.0</ele><time>2026-05-01T15:52:33.939Z</time></trkpt><trkpt lat="42.43953" lon="14.151625"><ele>73.0</ele><time>2026-05-01T15:52:34.938Z</time></trkpt><trkpt lat="42.4396567" lon="14.1515417"><ele>73.0</ele><time>2026-05-01T15:52:35.939Z</time></trkpt><trkpt lat="42.439795" lon="14.1514683"><ele>74.0</ele><time>2026-05-01T15:52:36.939Z</time></trkpt><trkpt lat="42.439935" lon="14.1514"><ele>75.0</ele><time>2026-05-01T15:52:37.939Z</time></trkpt><trkpt lat="42.4400733" lon="14.15132"><ele>76.0</ele><time>2026-05-01T15:52:38.939Z</time></trkpt><trkpt lat="42.4402133" lon="14.1512383"><ele>76.0</ele><time>2026-05-01T15:52:39.938Z</time></trkpt><trkpt lat="42.440355" lon="14.1511483"><ele>76.0</ele><time>2026-05-01T15:52:40.938Z</time></trkpt><trkpt lat="42.44049" lon="14.1510517"><ele>76.0</ele><time>2026-05-01T15:52:41.939Z</time></trkpt><trkpt lat="42.4406117" lon="14.15096"><ele>76.0</ele><time>2026-05-01T15:52:42.939Z</time></trkpt><trkpt lat="42.4407267" lon="14.15089"><ele>79.0</ele><time>2026-05-01T15:52:43.939Z</time></trkpt><trkpt lat="42.4408417" lon="14.1508417"><ele>82.0</ele><time>2026-05-01T15:52:44.939Z</time></trkpt><trkpt lat="42.4409617" lon="14.1508083"><ele>85.0</ele><time>2026-05-01T15:52:45.939Z</time></trkpt><trkpt lat="42.4410967" lon="14.150795"><ele>88.0</ele><time>2026-05-01T15:52:46.939Z</time></trkpt><trkpt lat="42.4412267" lon="14.150815"><ele>88.75</ele><time>2026-05-01T15:52:47.939Z</time></trkpt><trkpt lat="42.4413667" lon="14.15086"><ele>89.5</ele><time>2026-05-01T15:52:48.939Z</time></trkpt><trkpt lat="42.4414967" lon="14.150915"><ele>90.25</ele><time>2026-05-01T15:52:49.939Z</time></trkpt><trkpt lat="42.4416233" lon="14.1509583"><ele>91.0</ele><time>2026-05-01T15:52:50.939Z</time></trkpt><trkpt lat="42.44176" lon="14.1509733"><ele>91.0</ele><time>2026-05-01T15:52:51.939Z</time></trkpt><trkpt lat="42.4419017" lon="14.150945"><ele>91.0</ele><time>2026-05-01T15:52:52.939Z</time></trkpt><trkpt lat="42.4420333" lon="14.1508967"><ele>91.0</ele><time>2026-05-01T15:52:53.939Z</time></trkpt><trkpt lat="42.4421583" lon="14.150835"><ele>91.0</ele><time>2026-05-01T15:52:54.939Z</time></trkpt><trkpt lat="42.4422583" lon="14.150735"><ele>91.75</ele><time>2026-05-01T15:52:55.939Z</time></trkpt><trkpt lat="42.4423283" lon="14.15062"><ele>92.5</ele><time>2026-05-01T15:52:56.939Z</time></trkpt><trkpt lat="42.4423867" lon="14.15049"><ele>93.25</ele><time>2026-05-01T15:52:57.939Z</time></trkpt><trkpt lat="42.4424217" lon="14.15033"><ele>94.0</ele><time>2026-05-01T15:52:58.939Z</time></trkpt><trkpt lat="42.4424483" lon="14.1501567"><ele>94.0</ele><time>2026-05-01T15:52:59.939Z</time></trkpt><trkpt lat="42.44248" lon="14.149975"><ele>94.0</ele><time>2026-05-01T15:53:00.939Z</time></trkpt><trkpt lat="42.4425283" lon="14.149785"><ele>94.0</ele><time>2026-05-01T15:53:01.938Z</time></trkpt><trkpt lat="42.4425767" lon="14.1495933"><ele>94.0</ele><time>2026-05-01T15:53:02.939Z</time></trkpt><trkpt lat="42.4426267" lon="14.149415"><ele>95.0</ele><time>2026-05-01T15:53:03.939Z</time></trkpt><trkpt lat="42.4426783" lon="14.149245"><ele>96.0</ele><time>2026-05-01T15:53:04.939Z</time></trkpt><trkpt lat="42.4427367" lon="14.14907"><ele>97.0</ele><time>2026-05-01T15:53:05.939Z</time></trkpt><trkpt lat="42.4428" lon="14.1488983"><ele>98.0</ele><time>2026-05-01T15:53:06.939Z</time></trkpt><trkpt lat="42.44287" lon="14.1487383"><ele>100.0</ele><time>2026-05-01T15:53:07.939Z</time></trkpt><trkpt lat="42.4429633" lon="14.1485833"><ele>102.0</ele><time>2026-05-01T15:53:08.938Z</time></trkpt><trkpt lat="42.4430733" lon="14.1484317"><ele>104.0</ele><time>2026-05-01T15:53:09.939Z</time></trkpt><trkpt lat="42.4431883" lon="14.1482817"><ele>109.0</ele><time>2026-05-01T15:53:10.939Z</time></trkpt><trkpt lat="42.4433033" lon="14.1481317"><ele>114.0</ele><time>2026-05-01T15:53:11.939Z</time></trkpt><trkpt lat="42.4434117" lon="14.1479767"><ele>119.0</ele><time>2026-05-01T15:53:12.939Z</time></trkpt><trkpt lat="42.4435183" lon="14.14782"><ele>119.0</ele><time>2026-05-01T15:53:13.939Z</time></trkpt><trkpt lat="42.44363" lon="14.1476917"><ele>119.0</ele><time>2026-05-01T15:53:14.939Z</time></trkpt><trkpt lat="42.4437467" lon="14.1475783"><ele>119.0</ele><time>2026-05-01T15:53:15.939Z</time></trkpt><trkpt lat="42.4438733" lon="14.1475117"><ele>119.0</ele><time>2026-05-01T15:53:16.939Z</time></trkpt><trkpt lat="42.4440117" lon="14.1474567"><ele>117.75</ele><time>2026-05-01T15:53:17.938Z</time></trkpt><trkpt lat="42.444145" lon="14.1474133"><ele>116.5</ele><time>2026-05-01T15:53:18.938Z</time></trkpt><trkpt lat="42.4442633" lon="14.1473767"><ele>115.25</ele><time>2026-05-01T15:53:19.938Z</time></trkpt><trkpt lat="42.4443617" lon="14.1473417"><ele>114.0</ele><time>2026-05-01T15:53:20.939Z</time></trkpt><trkpt lat="42.4444433" lon="14.147265"><ele>115.16666666666667</ele><time>2026-05-01T15:53:21.939Z</time></trkpt><trkpt lat="42.4445" lon="14.1471767"><ele>116.33333333333334</ele><time>2026-05-01T15:53:22.939Z</time></trkpt><trkpt lat="42.4445283" lon="14.1470833"><ele>117.5</ele><time>2026-05-01T15:53:23.939Z</time></trkpt><trkpt lat="42.4445583" lon="14.1470033"><ele>118.66666666666667</ele><time>2026-05-01T15:53:24.938Z</time></trkpt><trkpt lat="42.4446033" lon="14.1468883"><ele>119.83333333333334</ele><time>2026-05-01T15:53:26.939Z</time></trkpt><trkpt lat="42.4446717" lon="14.1467567"><ele>121.0</ele><time>2026-05-01T15:53:28.939Z</time></trkpt><trkpt lat="42.444725" lon="14.14669"><ele>121.0</ele><time>2026-05-01T15:53:29.939Z</time></trkpt><trkpt lat="42.4447767" lon="14.1466083"><ele>121.0</ele><time>2026-05-01T15:53:30.939Z</time></trkpt><trkpt lat="42.44483" lon="14.146515"><ele>121.0</ele><time>2026-05-01T15:53:31.939Z</time></trkpt><trkpt lat="42.4448967" lon="14.1464033"><ele>121.0</ele><time>2026-05-01T15:53:32.939Z</time></trkpt><trkpt lat="42.444965" lon="14.14629"><ele>121.0</ele><time>2026-05-01T15:53:33.939Z</time></trkpt><trkpt lat="42.4450333" lon="14.1461683"><ele>122.0</ele><time>2026-05-01T15:53:34.938Z</time></trkpt><trkpt lat="42.4451" lon="14.146045"><ele>123.0</ele><time>2026-05-01T15:53:35.939Z</time></trkpt><trkpt lat="42.4451683" lon="14.145925"><ele>124.0</ele><time>2026-05-01T15:53:36.938Z</time></trkpt><trkpt lat="42.4452383" lon="14.145815"><ele>125.0</ele><time>2026-05-01T15:53:37.939Z</time></trkpt><trkpt lat="42.4453117" lon="14.1457017"><ele>126.0</ele><time>2026-05-01T15:53:38.939Z</time></trkpt><trkpt lat="42.44538" lon="14.1455867"><ele>124.5</ele><time>2026-05-01T15:53:39.938Z</time></trkpt><trkpt lat="42.44545" lon="14.14547"><ele>123.0</ele><time>2026-05-01T15:53:40.937Z</time></trkpt><trkpt lat="42.4455333" lon="14.1453517"><ele>121.5</ele><time>2026-05-01T15:53:41.938Z</time></trkpt><trkpt lat="42.4456267" lon="14.1452467"><ele>120.0</ele><time>2026-05-01T15:53:42.938Z</time></trkpt><trkpt lat="42.445735" lon="14.1451583"><ele>120.0</ele><time>2026-05-01T15:53:43.938Z</time></trkpt><trkpt lat="42.4458483" lon="14.1450617"><ele>120.0</ele><time>2026-05-01T15:53:44.937Z</time></trkpt><trkpt lat="42.4459733" lon="14.1449667"><ele>120.0</ele><time>2026-05-01T15:53:45.938Z</time></trkpt><trkpt lat="42.4460917" lon="14.1448883"><ele>120.0</ele><time>2026-05-01T15:53:46.938Z</time></trkpt><trkpt lat="42.4462067" lon="14.1448217"><ele>120.25</ele><time>2026-05-01T15:53:47.938Z</time></trkpt><trkpt lat="42.4463283" lon="14.1447717"><ele>120.5</ele><time>2026-05-01T15:53:48.938Z</time></trkpt><trkpt lat="42.44646" lon="14.1447"><ele>120.75</ele><time>2026-05-01T15:53:49.938Z</time></trkpt><trkpt lat="42.4466033" lon="14.1446517"><ele>121.0</ele><time>2026-05-01T15:53:50.937Z</time></trkpt><trkpt lat="42.4467367" lon="14.1446033"><ele>121.0</ele><time>2026-05-01T15:53:51.938Z</time></trkpt><trkpt lat="42.4468733" lon="14.1445683"><ele>121.0</ele><time>2026-05-01T15:53:52.938Z</time></trkpt><trkpt lat="42.4469917" lon="14.1445367"><ele>121.0</ele><time>2026-05-01T15:53:53.938Z</time></trkpt><trkpt lat="42.4471017" lon="14.1445083"><ele>121.0</ele><time>2026-05-01T15:53:54.938Z</time></trkpt><trkpt lat="42.447205" lon="14.1444917"><ele>121.83333333333334</ele><time>2026-05-01T15:53:55.938Z</time></trkpt><trkpt lat="42.4472933" lon="14.1444983"><ele>122.66666666666667</ele><time>2026-05-01T15:53:56.938Z</time></trkpt><trkpt lat="42.4473783" lon="14.14452"><ele>123.5</ele><time>2026-05-01T15:53:57.938Z</time></trkpt><trkpt lat="42.4474633" lon="14.1445833"><ele>124.33333333333334</ele><time>2026-05-01T15:53:58.938Z</time></trkpt><trkpt lat="42.4475267" lon="14.1446567"><ele>125.16666666666667</ele><time>2026-05-01T15:53:59.938Z</time></trkpt><trkpt lat="42.44756" lon="14.1447683"><ele>126.0</ele><time>2026-05-01T15:54:00.938Z</time></trkpt><trkpt lat="42.4475683" lon="14.1449267"><ele>126.25</ele><time>2026-05-01T15:54:01.938Z</time></trkpt><trkpt lat="42.4475767" lon="14.1451067"><ele>126.5</ele><time>2026-05-01T15:54:02.937Z</time></trkpt><trkpt lat="42.4475767" lon="14.1452967"><ele>126.75</ele><time>2026-05-01T15:54:03.938Z</time></trkpt><trkpt lat="42.4475883" lon="14.145475"><ele>127.0</ele><time>2026-05-01T15:54:04.937Z</time></trkpt><trkpt lat="42.447605" lon="14.1456333"><ele>127.5</ele><time>2026-05-01T15:54:05.938Z</time></trkpt><trkpt lat="42.4476333" lon="14.145765"><ele>128.0</ele><time>2026-05-01T15:54:06.938Z</time></trkpt><trkpt lat="42.4476917" lon="14.1458867"><ele>128.5</ele><time>2026-05-01T15:54:07.937Z</time></trkpt><trkpt lat="42.44778" lon="14.14601"><ele>129.0</ele><time>2026-05-01T15:54:08.938Z</time></trkpt><trkpt lat="42.4478767" lon="14.1461183"><ele>132.25</ele><time>2026-05-01T15:54:09.938Z</time></trkpt><trkpt lat="42.447985" lon="14.1462067"><ele>135.5</ele><time>2026-05-01T15:54:10.938Z</time></trkpt><trkpt lat="42.4480983" lon="14.1462717"><ele>138.75</ele><time>2026-05-01T15:54:11.938Z</time></trkpt><trkpt lat="42.4482017" lon="14.1463433"><ele>142.0</ele><time>2026-05-01T15:54:12.938Z</time></trkpt><trkpt lat="42.4483133" lon="14.146385"><ele>142.0</ele><time>2026-05-01T15:54:13.937Z</time></trkpt><trkpt lat="42.4484233" lon="14.14642"><ele>142.0</ele><time>2026-05-01T15:54:14.938Z</time></trkpt><trkpt lat="42.4485333" lon="14.146445"><ele>142.0</ele><time>2026-05-01T15:54:15.938Z</time></trkpt><trkpt lat="42.4486517" lon="14.1464433"><ele>142.0</ele><time>2026-05-01T15:54:16.938Z</time></trkpt><trkpt lat="42.4487717" lon="14.1464233"><ele>142.5</ele><time>2026-05-01T15:54:17.938Z</time></trkpt><trkpt lat="42.4488817" lon="14.1463733"><ele>143.0</ele><time>2026-05-01T15:54:18.937Z</time></trkpt><trkpt lat="42.4489817" lon="14.1463"><ele>143.5</ele><time>2026-05-01T15:54:19.938Z</time></trkpt><trkpt lat="42.4490833" lon="14.1462067"><ele>144.0</ele><time>2026-05-01T15:54:20.938Z</time></trkpt><trkpt lat="42.4491767" lon="14.1460867"><ele>144.0</ele><time>2026-05-01T15:54:21.938Z</time></trkpt><trkpt lat="42.4492633" lon="14.1459433"><ele>144.0</ele><time>2026-05-01T15:54:22.937Z</time></trkpt><trkpt lat="42.4493483" lon="14.1457883"><ele>144.0</ele><time>2026-05-01T15:54:23.938Z</time></trkpt><trkpt lat="42.44943" lon="14.1456417"><ele>144.0</ele><time>2026-05-01T15:54:24.938Z</time></trkpt><trkpt lat="42.4495033" lon="14.1455033"><ele>142.0</ele><time>2026-05-01T15:54:25.938Z</time></trkpt><trkpt lat="42.4495783" lon="14.1453833"><ele>140.0</ele><time>2026-05-01T15:54:26.938Z</time></trkpt><trkpt lat="42.4496417" lon="14.1452617"><ele>138.0</ele><time>2026-05-01T15:54:27.938Z</time></trkpt><trkpt lat="42.4496983" lon="14.1451283"><ele>136.0</ele><time>2026-05-01T15:54:28.938Z</time></trkpt><trkpt lat="42.449755" lon="14.144985"><ele>137.5</ele><time>2026-05-01T15:54:29.938Z</time></trkpt><trkpt lat="42.4498067" lon="14.144835"><ele>139.0</ele><time>2026-05-01T15:54:30.937Z</time></trkpt><trkpt lat="42.4498533" lon="14.144685"><ele>140.5</ele><time>2026-05-01T15:54:31.937Z</time></trkpt><trkpt lat="42.4498933" lon="14.1445417"><ele>142.0</ele><time>2026-05-01T15:54:32.938Z</time></trkpt><trkpt lat="42.4499217" lon="14.14438"><ele>142.0</ele><time>2026-05-01T15:54:33.938Z</time></trkpt><trkpt lat="42.44994" lon="14.1442"><ele>142.0</ele><time>2026-05-01T15:54:34.938Z</time></trkpt><trkpt lat="42.44995" lon="14.1440233"><ele>142.0</ele><time>2026-05-01T15:54:35.938Z</time></trkpt><trkpt lat="42.4499483" lon="14.143845"><ele>142.0</ele><time>2026-05-01T15:54:36.938Z</time></trkpt><trkpt lat="42.4499367" lon="14.1436717"><ele>141.0</ele><time>2026-05-01T15:54:37.938Z</time></trkpt><trkpt lat="42.4499233" lon="14.1435117"><ele>140.0</ele><time>2026-05-01T15:54:38.937Z</time></trkpt><trkpt lat="42.4499167" lon="14.1433533"><ele>139.0</ele><time>2026-05-01T15:54:39.938Z</time></trkpt><trkpt lat="42.4499033" lon="14.1431883"><ele>138.0</ele><time>2026-05-01T15:54:40.937Z</time></trkpt><trkpt lat="42.4498833" lon="14.14302"><ele>137.75</ele><time>2026-05-01T15:54:41.937Z</time></trkpt><trkpt lat="42.44984" lon="14.1428717"><ele>137.5</ele><time>2026-05-01T15:54:42.938Z</time></trkpt><trkpt lat="42.4497867" lon="14.1427283"><ele>137.25</ele><time>2026-05-01T15:54:43.938Z</time></trkpt><trkpt lat="42.4497317" lon="14.1425867"><ele>137.0</ele><time>2026-05-01T15:54:44.938Z</time></trkpt><trkpt lat="42.4496783" lon="14.1424483"><ele>137.5</ele><time>2026-05-01T15:54:45.937Z</time></trkpt><trkpt lat="42.4496367" lon="14.1423267"><ele>138.0</ele><time>2026-05-01T15:54:46.938Z</time></trkpt><trkpt lat="42.44959" lon="14.1422083"><ele>138.5</ele><time>2026-05-01T15:54:47.938Z</time></trkpt><trkpt lat="42.4495617" lon="14.1420933"><ele>139.0</ele><time>2026-05-01T15:54:48.937Z</time></trkpt><trkpt lat="42.44955" lon="14.141985"><ele>139.5</ele><time>2026-05-01T15:54:49.938Z</time></trkpt><trkpt lat="42.4495567" lon="14.1418783"><ele>140.0</ele><time>2026-05-01T15:54:50.937Z</time></trkpt><trkpt lat="42.449595" lon="14.141785"><ele>140.0</ele><time>2026-05-01T15:54:51.938Z</time></trkpt><trkpt lat="42.4496567" lon="14.1417067"><ele>140.0</ele><time>2026-05-01T15:54:52.938Z</time></trkpt><trkpt lat="42.4497317" lon="14.1416317"><ele>140.0</ele><time>2026-05-01T15:54:53.938Z</time></trkpt><trkpt lat="42.449835" lon="14.141545"><ele>140.0</ele><time>2026-05-01T15:54:54.938Z</time></trkpt><trkpt lat="42.4499467" lon="14.1414733"><ele>140.0</ele><time>2026-05-01T15:54:55.938Z</time></trkpt><trkpt lat="42.4500583" lon="14.14141"><ele>141.0</ele><time>2026-05-01T15:54:56.938Z</time></trkpt><trkpt lat="42.4501617" lon="14.141355"><ele>142.0</ele><time>2026-05-01T15:54:57.938Z</time></trkpt><trkpt lat="42.4502617" lon="14.1413083"><ele>143.0</ele><time>2026-05-01T15:54:58.938Z</time></trkpt><trkpt lat="42.4503583" lon="14.1412617"><ele>144.0</ele><time>2026-05-01T15:54:59.938Z</time></trkpt><trkpt lat="42.4504383" lon="14.141225"><ele>145.0</ele><time>2026-05-01T15:55:00.937Z</time></trkpt><trkpt lat="42.4505283" lon="14.1411817"><ele>146.66666666666669</ele><time>2026-05-01T15:55:01.938Z</time></trkpt><trkpt lat="42.4506583" lon="14.1411367"><ele>148.33333333333334</ele><time>2026-05-01T15:55:02.937Z</time></trkpt><trkpt lat="42.4508233" lon="14.141095"><ele>150.0</ele><time>2026-05-01T15:55:03.937Z</time></trkpt><trkpt lat="42.4510017" lon="14.1410533"><ele>150.0</ele><time>2026-05-01T15:55:04.937Z</time></trkpt><trkpt lat="42.451175" lon="14.1409967"><ele>150.0</ele><time>2026-05-01T15:55:05.938Z</time></trkpt><trkpt lat="42.4513267" lon="14.1409617"><ele>150.0</ele><time>2026-05-01T15:55:06.938Z</time></trkpt><trkpt lat="42.45147" lon="14.1409183"><ele>150.5</ele><time>2026-05-01T15:55:07.938Z</time></trkpt><trkpt lat="42.4516133" lon="14.1408783"><ele>151.0</ele><time>2026-05-01T15:55:08.937Z</time></trkpt><trkpt lat="42.4517433" lon="14.140855"><ele>151.5</ele><time>2026-05-01T15:55:09.938Z</time></trkpt><trkpt lat="42.4518633" lon="14.1408367"><ele>152.0</ele><time>2026-05-01T15:55:10.938Z</time></trkpt><trkpt lat="42.4519917" lon="14.1408033"><ele>152.0</ele><time>2026-05-01T15:55:11.937Z</time></trkpt><trkpt lat="42.452125" lon="14.1407783"><ele>152.0</ele><time>2026-05-01T15:55:12.938Z</time></trkpt><trkpt lat="42.4522483" lon="14.1407567"><ele>152.0</ele><time>2026-05-01T15:55:13.937Z</time></trkpt><trkpt lat="42.45236" lon="14.14073"><ele>152.0</ele><time>2026-05-01T15:55:14.938Z</time></trkpt><trkpt lat="42.4524583" lon="14.140705"><ele>152.0</ele><time>2026-05-01T15:55:15.938Z</time></trkpt><trkpt lat="42.45256" lon="14.1406783"><ele>152.0</ele><time>2026-05-01T15:55:16.938Z</time></trkpt><trkpt lat="42.45267" lon="14.1406517"><ele>152.0</ele><time>2026-05-01T15:55:17.938Z</time></trkpt><trkpt lat="42.4527783" lon="14.1406233"><ele>152.0</ele><time>2026-05-01T15:55:18.938Z</time></trkpt><trkpt lat="42.4528867" lon="14.1406117"><ele>152.0</ele><time>2026-05-01T15:55:19.938Z</time></trkpt><trkpt lat="42.452965" lon="14.1405833"><ele>154.83333333333331</ele><time>2026-05-01T15:55:20.938Z</time></trkpt><trkpt lat="42.4530317" lon="14.140565"><ele>157.66666666666666</ele><time>2026-05-01T15:55:22.938Z</time></trkpt><trkpt lat="42.4531017" lon="14.140535"><ele>160.5</ele><time>2026-05-01T15:55:30.938Z</time></trkpt><trkpt lat="42.4531683" lon="14.14049"><ele>163.33333333333334</ele><time>2026-05-01T15:55:31.937Z</time></trkpt><trkpt lat="42.4532433" lon="14.1404517"><ele>166.16666666666669</ele><time>2026-05-01T15:55:32.938Z</time></trkpt><trkpt lat="42.45332" lon="14.1404117"><ele>169.0</ele><time>2026-05-01T15:55:33.938Z</time></trkpt><trkpt lat="42.4534017" lon="14.1403717"><ele>169.0</ele><time>2026-05-01T15:55:34.937Z</time></trkpt><trkpt lat="42.45349" lon="14.1403183"><ele>169.0</ele><time>2026-05-01T15:55:35.938Z</time></trkpt><trkpt lat="42.453585" lon="14.14027"><ele>169.0</ele><time>2026-05-01T15:55:36.938Z</time></trkpt><trkpt lat="42.453685" lon="14.1402167"><ele>169.0</ele><time>2026-05-01T15:55:37.938Z</time></trkpt><trkpt lat="42.4537733" lon="14.1401483"><ele>169.0</ele><time>2026-05-01T15:55:38.938Z</time></trkpt><trkpt lat="42.4538517" lon="14.1400867"><ele>169.6</ele><time>2026-05-01T15:55:39.938Z</time></trkpt><trkpt lat="42.45391" lon="14.140005"><ele>170.2</ele><time>2026-05-01T15:55:40.938Z</time></trkpt><trkpt lat="42.453965" lon="14.1399067"><ele>170.79999999999998</ele><time>2026-05-01T15:55:41.938Z</time></trkpt><trkpt lat="42.4540267" lon="14.1397967"><ele>171.39999999999998</ele><time>2026-05-01T15:55:42.938Z</time></trkpt><trkpt lat="42.4540833" lon="14.1396783"><ele>172.0</ele><time>2026-05-01T15:55:43.938Z</time></trkpt><trkpt lat="42.4541467" lon="14.1395583"><ele>172.5</ele><time>2026-05-01T15:55:44.938Z</time></trkpt><trkpt lat="42.4542133" lon="14.1394383"><ele>173.0</ele><time>2026-05-01T15:55:45.938Z</time></trkpt><trkpt lat="42.454285" lon="14.13931"><ele>173.5</ele><time>2026-05-01T15:55:46.938Z</time></trkpt><trkpt lat="42.4543567" lon="14.1391583"><ele>174.0</ele><time>2026-05-01T15:55:47.938Z</time></trkpt><trkpt lat="42.4544283" lon="14.139015"><ele>173.79999999999998</ele><time>2026-05-01T15:55:48.938Z</time></trkpt><trkpt lat="42.4544983" lon="14.1388883"><ele>173.6</ele><time>2026-05-01T15:55:49.938Z</time></trkpt><trkpt lat="42.4545617" lon="14.1387683"><ele>173.4</ele><time>2026-05-01T15:55:50.938Z</time></trkpt><trkpt lat="42.4546267" lon="14.13865"><ele>173.2</ele><time>2026-05-01T15:55:51.938Z</time></trkpt><trkpt lat="42.45469" lon="14.13854"><ele>173.0</ele><time>2026-05-01T15:55:52.937Z</time></trkpt><trkpt lat="42.454755" lon="14.1384317"><ele>173.0</ele><time>2026-05-01T15:55:53.938Z</time></trkpt><trkpt lat="42.4548267" lon="14.138325"><ele>173.0</ele><time>2026-05-01T15:55:54.938Z</time></trkpt><trkpt lat="42.4548967" lon="14.138195"><ele>173.0</ele><time>2026-05-01T15:55:55.937Z</time></trkpt><trkpt lat="42.4549567" lon="14.1380633"><ele>173.0</ele><time>2026-05-01T15:55:56.938Z</time></trkpt><trkpt lat="42.45501" lon="14.13792"><ele>173.0</ele><time>2026-05-01T15:55:57.938Z</time></trkpt><trkpt lat="42.455045" lon="14.1377617"><ele>173.0</ele><time>2026-05-01T15:55:58.937Z</time></trkpt><trkpt lat="42.45506" lon="14.137615"><ele>173.0</ele><time>2026-05-01T15:55:59.938Z</time></trkpt><trkpt lat="42.4550583" lon="14.1374833"><ele>173.0</ele><time>2026-05-01T15:56:00.938Z</time></trkpt><trkpt lat="42.455055" lon="14.1373833"><ele>173.0</ele><time>2026-05-01T15:56:01.938Z</time></trkpt><trkpt lat="42.4550517" lon="14.137295"><ele>173.0</ele><time>2026-05-01T15:56:02.938Z</time></trkpt><trkpt lat="42.4550483" lon="14.13715"><ele>173.0</ele><time>2026-05-01T15:56:04.938Z</time></trkpt><trkpt lat="42.4550517" lon="14.1370417"><ele>173.0</ele><time>2026-05-01T15:56:06.938Z</time></trkpt><trkpt lat="42.4550417" lon="14.1369167"><ele>173.0</ele><time>2026-05-01T15:56:08.938Z</time></trkpt><trkpt lat="42.4550383" lon="14.1367717"><ele>173.0</ele><time>2026-05-01T15:56:10.938Z</time></trkpt><trkpt lat="42.4550333" lon="14.1366233"><ele>175.0</ele><time>2026-05-01T15:56:12.938Z</time></trkpt><trkpt lat="42.4550633" lon="14.1364833"><ele>177.0</ele><time>2026-05-01T15:56:14.938Z</time></trkpt><trkpt lat="42.4551283" lon="14.1363967"><ele>179.0</ele><time>2026-05-01T15:56:16.938Z</time></trkpt><trkpt lat="42.45524" lon="14.1363333"><ele>181.0</ele><time>2026-05-01T15:56:18.938Z</time></trkpt><trkpt lat="42.4553033" lon="14.1363133"><ele>183.0</ele><time>2026-05-01T15:56:19.938Z</time></trkpt><trkpt lat="42.45539" lon="14.1362683"><ele>182.5</ele><time>2026-05-01T15:56:20.937Z</time></trkpt><trkpt lat="42.455465" lon="14.1362233"><ele>182.0</ele><time>2026-05-01T15:56:21.938Z</time></trkpt><trkpt lat="42.4555383" lon="14.1361833"><ele>181.5</ele><time>2026-05-01T15:56:22.938Z</time></trkpt><trkpt lat="42.4556117" lon="14.1361367"><ele>181.0</ele><time>2026-05-01T15:56:23.938Z</time></trkpt><trkpt lat="42.4556867" lon="14.1360883"><ele>180.5</ele><time>2026-05-01T15:56:24.938Z</time></trkpt><trkpt lat="42.4557667" lon="14.1360367"><ele>180.0</ele><time>2026-05-01T15:56:25.937Z</time></trkpt><trkpt lat="42.4558467" lon="14.13597"><ele>180.0</ele><time>2026-05-01T15:56:26.937Z</time></trkpt><trkpt lat="42.45592" lon="14.1358883"><ele>180.0</ele><time>2026-05-01T15:56:27.938Z</time></trkpt><trkpt lat="42.4559883" lon="14.1357967"><ele>180.0</ele><time>2026-05-01T15:56:28.938Z</time></trkpt><trkpt lat="42.4560417" lon="14.1357367"><ele>180.0</ele><time>2026-05-01T15:56:29.938Z</time></trkpt><trkpt lat="42.4561167" lon="14.1355967"><ele>180.0</ele><time>2026-05-01T15:56:31.938Z</time></trkpt><trkpt lat="42.4561583" lon="14.135485"><ele>184.66666666666669</ele><time>2026-05-01T15:56:32.938Z</time></trkpt><trkpt lat="42.4562117" lon="14.13531"><ele>189.33333333333334</ele><time>2026-05-01T15:56:33.938Z</time></trkpt><trkpt lat="42.45628" lon="14.1351283"><ele>194.0</ele><time>2026-05-01T15:56:34.938Z</time></trkpt><trkpt lat="42.4563533" lon="14.1349"><ele>185.33333333333334</ele><time>2026-05-01T15:56:35.938Z</time></trkpt><trkpt lat="42.456435" lon="14.1346867"><ele>176.66666666666669</ele><time>2026-05-01T15:56:36.938Z</time></trkpt><trkpt lat="42.456505" lon="14.13447"><ele>168.0</ele><time>2026-05-01T15:56:37.938Z</time></trkpt><trkpt lat="42.45657" lon="14.1342633"><ele>168.0</ele><time>2026-05-01T15:56:38.938Z</time></trkpt><trkpt lat="42.4566333" lon="14.1340633"><ele>168.0</ele><time>2026-05-01T15:56:39.938Z</time></trkpt><trkpt lat="42.4566883" lon="14.1338767"><ele>168.0</ele><time>2026-05-01T15:56:40.937Z</time></trkpt><trkpt lat="42.4567333" lon="14.13369"><ele>168.0</ele><time>2026-05-01T15:56:41.938Z</time></trkpt><trkpt lat="42.45677" lon="14.133485"><ele>168.0</ele><time>2026-05-01T15:56:42.938Z</time></trkpt><trkpt lat="42.4567967" lon="14.1332867"><ele>168.0</ele><time>2026-05-01T15:56:43.938Z</time></trkpt><trkpt lat="42.45682" lon="14.13309"><ele>167.5</ele><time>2026-05-01T15:56:44.937Z</time></trkpt><trkpt lat="42.4568433" lon="14.1329083"><ele>167.0</ele><time>2026-05-01T15:56:45.938Z</time></trkpt><trkpt lat="42.4568733" lon="14.1327317"><ele>166.5</ele><time>2026-05-01T15:56:46.938Z</time></trkpt><trkpt lat="42.4569183" lon="14.132545"><ele>166.0</ele><time>2026-05-01T15:56:47.938Z</time></trkpt><trkpt lat="42.456975" lon="14.1323517"><ele>166.0</ele><time>2026-05-01T15:56:48.938Z</time></trkpt><trkpt lat="42.457045" lon="14.1321467"><ele>166.0</ele><time>2026-05-01T15:56:49.938Z</time></trkpt><trkpt lat="42.4571283" lon="14.131945"><ele>166.0</ele><time>2026-05-01T15:56:50.938Z</time></trkpt><trkpt lat="42.4572117" lon="14.1317533"><ele>164.0</ele><time>2026-05-01T15:56:51.938Z</time></trkpt><trkpt lat="42.4573617" lon="14.1314"><ele>162.0</ele><time>2026-05-01T15:56:53.938Z</time></trkpt><trkpt lat="42.457425" lon="14.1312367"><ele>160.0</ele><time>2026-05-01T15:56:54.938Z</time></trkpt><trkpt lat="42.4575017" lon="14.1310617"><ele>160.0</ele><time>2026-05-01T15:56:55.938Z</time></trkpt><trkpt lat="42.4575783" lon="14.1309"><ele>160.0</ele><time>2026-05-01T15:56:56.938Z</time></trkpt><trkpt lat="42.45766" lon="14.130755"><ele>160.0</ele><time>2026-05-01T15:56:57.938Z</time></trkpt><trkpt lat="42.4577533" lon="14.1306183"><ele>160.0</ele><time>2026-05-01T15:56:58.938Z</time></trkpt><trkpt lat="42.4578617" lon="14.130495"><ele>159.5</ele><time>2026-05-01T15:56:59.938Z</time></trkpt><trkpt lat="42.4579767" lon="14.1303733"><ele>159.0</ele><time>2026-05-01T15:57:00.937Z</time></trkpt><trkpt lat="42.4580917" lon="14.130255"><ele>158.5</ele><time>2026-05-01T15:57:01.937Z</time></trkpt><trkpt lat="42.458195" lon="14.1301433"><ele>158.0</ele><time>2026-05-01T15:57:02.938Z</time></trkpt><trkpt lat="42.45829" lon="14.1300167"><ele>158.5</ele><time>2026-05-01T15:57:03.938Z</time></trkpt><trkpt lat="42.4583817" lon="14.129875"><ele>159.0</ele><time>2026-05-01T15:57:04.938Z</time></trkpt><trkpt lat="42.4584617" lon="14.1297267"><ele>159.5</ele><time>2026-05-01T15:57:05.938Z</time></trkpt><trkpt lat="42.458535" lon="14.1295633"><ele>160.0</ele><time>2026-05-01T15:57:06.937Z</time></trkpt><trkpt lat="42.4586017" lon="14.1293833"><ele>160.0</ele><time>2026-05-01T15:57:07.938Z</time></trkpt><trkpt lat="42.4586567" lon="14.1292167"><ele>160.0</ele><time>2026-05-01T15:57:08.938Z</time></trkpt><trkpt lat="42.45869" lon="14.1290517"><ele>160.0</ele><time>2026-05-01T15:57:09.938Z</time></trkpt><trkpt lat="42.4587067" lon="14.1288717"><ele>160.0</ele><time>2026-05-01T15:57:10.938Z</time></trkpt><trkpt lat="42.4587033" lon="14.128695"><ele>161.0</ele><time>2026-05-01T15:57:11.938Z</time></trkpt><trkpt lat="42.4586833" lon="14.1285"><ele>162.0</ele><time>2026-05-01T15:57:12.938Z</time></trkpt><trkpt lat="42.4586483" lon="14.1283067"><ele>163.0</ele><time>2026-05-01T15:57:13.938Z</time></trkpt><trkpt lat="42.4585883" lon="14.1281033"><ele>163.0</ele><time>2026-05-01T15:57:14.938Z</time></trkpt><trkpt lat="42.458525" lon="14.1279067"><ele>163.0</ele><time>2026-05-01T15:57:15.937Z</time></trkpt><trkpt lat="42.4584667" lon="14.1277333"><ele>163.0</ele><time>2026-05-01T15:57:16.937Z</time></trkpt><trkpt lat="42.4584017" lon="14.1275783"><ele>163.0</ele><time>2026-05-01T15:57:17.937Z</time></trkpt><trkpt lat="42.45834" lon="14.12743"><ele>161.25</ele><time>2026-05-01T15:57:18.937Z</time></trkpt><trkpt lat="42.4582683" lon="14.1272883"><ele>159.5</ele><time>2026-05-01T15:57:19.937Z</time></trkpt><trkpt lat="42.458165" lon="14.1271583"><ele>157.75</ele><time>2026-05-01T15:57:20.936Z</time></trkpt><trkpt lat="42.458045" lon="14.1270417"><ele>156.0</ele><time>2026-05-01T15:57:21.937Z</time></trkpt><trkpt lat="42.4579417" lon="14.1269167"><ele>156.0</ele><time>2026-05-01T15:57:22.937Z</time></trkpt><trkpt lat="42.4578333" lon="14.1267767"><ele>156.0</ele><time>2026-05-01T15:57:23.937Z</time></trkpt><trkpt lat="42.457745" lon="14.126615"><ele>156.0</ele><time>2026-05-01T15:57:24.937Z</time></trkpt><trkpt lat="42.45766" lon="14.1264567"><ele>156.0</ele><time>2026-05-01T15:57:25.937Z</time></trkpt><trkpt lat="42.4575783" lon="14.1263067"><ele>158.75</ele><time>2026-05-01T15:57:26.937Z</time></trkpt><trkpt lat="42.457505" lon="14.1261517"><ele>161.5</ele><time>2026-05-01T15:57:27.937Z</time></trkpt><trkpt lat="42.45743" lon="14.12599"><ele>164.25</ele><time>2026-05-01T15:57:28.936Z</time></trkpt><trkpt lat="42.4573683" lon="14.1258317"><ele>167.0</ele><time>2026-05-01T15:57:29.937Z</time></trkpt><trkpt lat="42.457315" lon="14.1256717"><ele>168.75</ele><time>2026-05-01T15:57:30.937Z</time></trkpt><trkpt lat="42.4572767" lon="14.1255033"><ele>170.5</ele><time>2026-05-01T15:57:31.937Z</time></trkpt><trkpt lat="42.45724" lon="14.12532"><ele>172.25</ele><time>2026-05-01T15:57:32.937Z</time></trkpt><trkpt lat="42.4572183" lon="14.1251483"><ele>174.0</ele><time>2026-05-01T15:57:33.937Z</time></trkpt><trkpt lat="42.4572017" lon="14.124975"><ele>173.25</ele><time>2026-05-01T15:57:34.936Z</time></trkpt><trkpt lat="42.4572067" lon="14.12479"><ele>172.5</ele><time>2026-05-01T15:57:35.937Z</time></trkpt><trkpt lat="42.457225" lon="14.1245967"><ele>171.75</ele><time>2026-05-01T15:57:36.937Z</time></trkpt><trkpt lat="42.4572517" lon="14.1243967"><ele>171.0</ele><time>2026-05-01T15:57:37.936Z</time></trkpt><trkpt lat="42.4572967" lon="14.1241933"><ele>168.66666666666666</ele><time>2026-05-01T15:57:38.937Z</time></trkpt><trkpt lat="42.4573467" lon="14.1239967"><ele>166.33333333333331</ele><time>2026-05-01T15:57:39.937Z</time></trkpt><trkpt lat="42.457405" lon="14.1238"><ele>164.0</ele><time>2026-05-01T15:57:40.937Z</time></trkpt><trkpt lat="42.4574717" lon="14.1235933"><ele>164.0</ele><time>2026-05-01T15:57:41.937Z</time></trkpt><trkpt lat="42.457535" lon="14.12339"><ele>164.0</ele><time>2026-05-01T15:57:42.937Z</time></trkpt><trkpt lat="42.4575983" lon="14.1231883"><ele>164.0</ele><time>2026-05-01T15:57:43.937Z</time></trkpt><trkpt lat="42.4576583" lon="14.1230017"><ele>163.5</ele><time>2026-05-01T15:57:44.937Z</time></trkpt><trkpt lat="42.4577117" lon="14.1228233"><ele>163.0</ele><time>2026-05-01T15:57:45.937Z</time></trkpt><trkpt lat="42.4577633" lon="14.1226583"><ele>162.5</ele><time>2026-05-01T15:57:46.937Z</time></trkpt><trkpt lat="42.45782" lon="14.122495"><ele>162.0</ele><time>2026-05-01T15:57:47.937Z</time></trkpt><trkpt lat="42.4578783" lon="14.1223367"><ele>161.5</ele><time>2026-05-01T15:57:48.937Z</time></trkpt><trkpt lat="42.4579483" lon="14.1221717"><ele>161.0</ele><time>2026-05-01T15:57:49.937Z</time></trkpt><trkpt lat="42.4580333" lon="14.1220233"><ele>160.5</ele><time>2026-05-01T15:57:50.937Z</time></trkpt><trkpt lat="42.4581367" lon="14.12188"><ele>160.0</ele><time>2026-05-01T15:57:51.937Z</time></trkpt><trkpt lat="42.45824" lon="14.1217567"><ele>160.0</ele><time>2026-05-01T15:57:52.937Z</time></trkpt><trkpt lat="42.4583583" lon="14.1216083"><ele>160.0</ele><time>2026-05-01T15:57:53.937Z</time></trkpt><trkpt lat="42.4584867" lon="14.121485"><ele>160.0</ele><time>2026-05-01T15:57:54.936Z</time></trkpt><trkpt lat="42.4586083" lon="14.1213667"><ele>160.0</ele><time>2026-05-01T15:57:55.937Z</time></trkpt><trkpt lat="42.4587233" lon="14.12125"><ele>160.0</ele><time>2026-05-01T15:57:56.937Z</time></trkpt><trkpt lat="42.4588317" lon="14.1211367"><ele>160.0</ele><time>2026-05-01T15:57:57.937Z</time></trkpt><trkpt lat="42.45893" lon="14.1210233"><ele>160.0</ele><time>2026-05-01T15:57:58.937Z</time></trkpt><trkpt lat="42.4590283" lon="14.12092"><ele>160.0</ele><time>2026-05-01T15:57:59.937Z</time></trkpt><trkpt lat="42.4591233" lon="14.1208133"><ele>160.0</ele><time>2026-05-01T15:58:00.937Z</time></trkpt><trkpt lat="42.4592283" lon="14.1207033"><ele>160.0</ele><time>2026-05-01T15:58:01.937Z</time></trkpt><trkpt lat="42.4593433" lon="14.12059"><ele>160.0</ele><time>2026-05-01T15:58:02.937Z</time></trkpt><trkpt lat="42.4594567" lon="14.1204833"><ele>160.0</ele><time>2026-05-01T15:58:03.937Z</time></trkpt><trkpt lat="42.459565" lon="14.1203833"><ele>160.0</ele><time>2026-05-01T15:58:04.937Z</time></trkpt><trkpt lat="42.45966" lon="14.120285"><ele>160.0</ele><time>2026-05-01T15:58:05.937Z</time></trkpt><trkpt lat="42.4597467" lon="14.1202017"><ele>160.0</ele><time>2026-05-01T15:58:06.936Z</time></trkpt><trkpt lat="42.459825" lon="14.120135"><ele>160.0</ele><time>2026-05-01T15:58:07.937Z</time></trkpt><trkpt lat="42.4598967" lon="14.120085"><ele>160.0</ele><time>2026-05-01T15:58:08.936Z</time></trkpt><trkpt lat="42.4599833" lon="14.1200533"><ele>160.0</ele><time>2026-05-01T15:58:09.937Z</time></trkpt><trkpt lat="42.46008" lon="14.1200167"><ele>160.0</ele><time>2026-05-01T15:58:10.937Z</time></trkpt><trkpt lat="42.4601733" lon="14.11999"><ele>160.0</ele><time>2026-05-01T15:58:11.937Z</time></trkpt><trkpt lat="42.46027" lon="14.1199833"><ele>160.0</ele><time>2026-05-01T15:58:12.937Z</time></trkpt><trkpt lat="42.4603667" lon="14.1200133"><ele>160.5</ele><time>2026-05-01T15:58:13.937Z</time></trkpt><trkpt lat="42.4604867" lon="14.1200717"><ele>161.0</ele><time>2026-05-01T15:58:14.937Z</time></trkpt><trkpt lat="42.46062" lon="14.1201333"><ele>161.5</ele><time>2026-05-01T15:58:15.936Z</time></trkpt><trkpt lat="42.4607517" lon="14.1201867"><ele>162.0</ele><time>2026-05-01T15:58:16.937Z</time></trkpt><trkpt lat="42.4608817" lon="14.1202333"><ele>162.0</ele><time>2026-05-01T15:58:17.937Z</time></trkpt><trkpt lat="42.4610033" lon="14.1202717"><ele>162.0</ele><time>2026-05-01T15:58:18.937Z</time></trkpt><trkpt lat="42.46112" lon="14.1203183"><ele>162.0</ele><time>2026-05-01T15:58:19.936Z</time></trkpt><trkpt lat="42.4612383" lon="14.1203583"><ele>162.0</ele><time>2026-05-01T15:58:20.937Z</time></trkpt><trkpt lat="42.4613533" lon="14.1204067"><ele>163.75</ele><time>2026-05-01T15:58:21.937Z</time></trkpt><trkpt lat="42.4614717" lon="14.12049"><ele>165.5</ele><time>2026-05-01T15:58:22.936Z</time></trkpt><trkpt lat="42.461605" lon="14.1205917"><ele>167.25</ele><time>2026-05-01T15:58:23.937Z</time></trkpt><trkpt lat="42.4617267" lon="14.1206933"><ele>169.0</ele><time>2026-05-01T15:58:24.936Z</time></trkpt><trkpt lat="42.4618767" lon="14.1207983"><ele>168.0</ele><time>2026-05-01T15:58:25.937Z</time></trkpt><trkpt lat="42.462025" lon="14.1209"><ele>167.0</ele><time>2026-05-01T15:58:26.936Z</time></trkpt><trkpt lat="42.4621733" lon="14.12101"><ele>166.0</ele><time>2026-05-01T15:58:27.936Z</time></trkpt><trkpt lat="42.4623233" lon="14.1211133"><ele>166.0</ele><time>2026-05-01T15:58:28.937Z</time></trkpt><trkpt lat="42.46247" lon="14.1212067"><ele>166.0</ele><time>2026-05-01T15:58:29.936Z</time></trkpt><trkpt lat="42.4626067" lon="14.12131"><ele>166.0</ele><time>2026-05-01T15:58:30.937Z</time></trkpt><trkpt lat="42.4627417" lon="14.1214117"><ele>166.0</ele><time>2026-05-01T15:58:31.937Z</time></trkpt><trkpt lat="42.4628783" lon="14.1215267"><ele>166.0</ele><time>2026-05-01T15:58:32.937Z</time></trkpt><trkpt lat="42.4630233" lon="14.1216283"><ele>166.0</ele><time>2026-05-01T15:58:33.937Z</time></trkpt><trkpt lat="42.4631633" lon="14.1217167"><ele>163.25</ele><time>2026-05-01T15:58:34.937Z</time></trkpt><trkpt lat="42.4632933" lon="14.1218133"><ele>160.5</ele><time>2026-05-01T15:58:35.937Z</time></trkpt><trkpt lat="42.4634183" lon="14.1219067"><ele>157.75</ele><time>2026-05-01T15:58:36.936Z</time></trkpt><trkpt lat="42.46353" lon="14.122005"><ele>155.0</ele><time>2026-05-01T15:58:37.937Z</time></trkpt><trkpt lat="42.4636383" lon="14.1220933"><ele>155.0</ele><time>2026-05-01T15:58:38.937Z</time></trkpt><trkpt lat="42.46374" lon="14.1221817"><ele>155.0</ele><time>2026-05-01T15:58:39.937Z</time></trkpt><trkpt lat="42.4638317" lon="14.122285"><ele>155.0</ele><time>2026-05-01T15:58:40.937Z</time></trkpt><trkpt lat="42.46392" lon="14.1224117"><ele>155.0</ele><time>2026-05-01T15:58:41.937Z</time></trkpt><trkpt lat="42.464005" lon="14.1225617"><ele>153.5</ele><time>2026-05-01T15:58:42.936Z</time></trkpt><trkpt lat="42.46408" lon="14.1227217"><ele>152.0</ele><time>2026-05-01T15:58:43.937Z</time></trkpt><trkpt lat="42.4641567" lon="14.1228817"><ele>150.5</ele><time>2026-05-01T15:58:44.936Z</time></trkpt><trkpt lat="42.464225" lon="14.1230567"><ele>149.0</ele><time>2026-05-01T15:58:45.937Z</time></trkpt><trkpt lat="42.4642883" lon="14.1232383"><ele>149.0</ele><time>2026-05-01T15:58:46.936Z</time></trkpt><trkpt lat="42.4643433" lon="14.1234167"><ele>149.0</ele><time>2026-05-01T15:58:47.937Z</time></trkpt><trkpt lat="42.46439" lon="14.1235867"><ele>149.0</ele><time>2026-05-01T15:58:48.937Z</time></trkpt><trkpt lat="42.4644183" lon="14.12376"><ele>149.0</ele><time>2026-05-01T15:58:49.936Z</time></trkpt><trkpt lat="42.464465" lon="14.1239217"><ele>147.75</ele><time>2026-05-01T15:58:50.936Z</time></trkpt><trkpt lat="42.4645217" lon="14.1240733"><ele>146.5</ele><time>2026-05-01T15:58:51.937Z</time></trkpt><trkpt lat="42.464605" lon="14.124215"><ele>145.25</ele><time>2026-05-01T15:58:52.937Z</time></trkpt><trkpt lat="42.4647033" lon="14.1243467"><ele>144.0</ele><time>2026-05-01T15:58:53.936Z</time></trkpt><trkpt lat="42.4648033" lon="14.1244767"><ele>143.25</ele><time>2026-05-01T15:58:54.937Z</time></trkpt><trkpt lat="42.4649033" lon="14.1246017"><ele>142.5</ele><time>2026-05-01T15:58:55.937Z</time></trkpt><trkpt lat="42.4649983" lon="14.1247417"><ele>141.75</ele><time>2026-05-01T15:58:56.937Z</time></trkpt><trkpt lat="42.4650967" lon="14.1248933"><ele>141.0</ele><time>2026-05-01T15:58:57.937Z</time></trkpt><trkpt lat="42.46519" lon="14.12505"><ele>139.75</ele><time>2026-05-01T15:58:58.936Z</time></trkpt><trkpt lat="42.4652783" lon="14.1252117"><ele>138.5</ele><time>2026-05-01T15:58:59.937Z</time></trkpt><trkpt lat="42.4653733" lon="14.1253667"><ele>137.25</ele><time>2026-05-01T15:59:00.937Z</time></trkpt><trkpt lat="42.4654667" lon="14.125515"><ele>136.0</ele><time>2026-05-01T15:59:01.937Z</time></trkpt><trkpt lat="42.4655717" lon="14.1256533"><ele>137.75</ele><time>2026-05-01T15:59:02.937Z</time></trkpt><trkpt lat="42.465675" lon="14.125785"><ele>139.5</ele><time>2026-05-01T15:59:03.937Z</time></trkpt><trkpt lat="42.465775" lon="14.1258867"><ele>141.25</ele><time>2026-05-01T15:59:04.937Z</time></trkpt><trkpt lat="42.46588" lon="14.1259833"><ele>143.0</ele><time>2026-05-01T15:59:05.936Z</time></trkpt><trkpt lat="42.4659933" lon="14.12606"><ele>143.0</ele><time>2026-05-01T15:59:06.937Z</time></trkpt><trkpt lat="42.4661133" lon="14.1260983"><ele>143.0</ele><time>2026-05-01T15:59:07.937Z</time></trkpt><trkpt lat="42.4662367" lon="14.12611"><ele>143.0</ele><time>2026-05-01T15:59:08.937Z</time></trkpt><trkpt lat="42.4663667" lon="14.1261183"><ele>143.0</ele><time>2026-05-01T15:59:09.937Z</time></trkpt><trkpt lat="42.46649" lon="14.126145"><ele>140.75</ele><time>2026-05-01T15:59:10.937Z</time></trkpt><trkpt lat="42.4665983" lon="14.126185"><ele>138.5</ele><time>2026-05-01T15:59:11.937Z</time></trkpt><trkpt lat="42.4667" lon="14.12625"><ele>136.25</ele><time>2026-05-01T15:59:12.936Z</time></trkpt><trkpt lat="42.4667767" lon="14.1263583"><ele>134.0</ele><time>2026-05-01T15:59:13.937Z</time></trkpt><trkpt lat="42.466865" lon="14.1265067"><ele>134.33333333333331</ele><time>2026-05-01T15:59:14.937Z</time></trkpt><trkpt lat="42.466955" lon="14.12668"><ele>134.66666666666666</ele><time>2026-05-01T15:59:15.937Z</time></trkpt><trkpt lat="42.46705" lon="14.12686"><ele>135.0</ele><time>2026-05-01T15:59:16.937Z</time></trkpt><trkpt lat="42.4671467" lon="14.1270617"><ele>135.0</ele><time>2026-05-01T15:59:17.937Z</time></trkpt><trkpt lat="42.4672367" lon="14.1272733"><ele>135.0</ele><time>2026-05-01T15:59:18.937Z</time></trkpt><trkpt lat="42.4673283" lon="14.1274767"><ele>135.0</ele><time>2026-05-01T15:59:19.937Z</time></trkpt><trkpt lat="42.467415" lon="14.1276867"><ele>138.33333333333334</ele><time>2026-05-01T15:59:20.937Z</time></trkpt><trkpt lat="42.4674867" lon="14.1278933"><ele>141.66666666666669</ele><time>2026-05-01T15:59:21.936Z</time></trkpt><trkpt lat="42.467545" lon="14.1280883"><ele>145.0</ele><time>2026-05-01T15:59:22.936Z</time></trkpt><trkpt lat="42.467605" lon="14.1282617"><ele>145.5</ele><time>2026-05-01T15:59:23.937Z</time></trkpt><trkpt lat="42.4676667" lon="14.1284117"><ele>146.0</ele><time>2026-05-01T15:59:24.936Z</time></trkpt><trkpt lat="42.467725" lon="14.1285433"><ele>146.5</ele><time>2026-05-01T15:59:25.937Z</time></trkpt><trkpt lat="42.4678017" lon="14.1286633"><ele>147.0</ele><time>2026-05-01T15:59:26.937Z</time></trkpt><trkpt lat="42.4678983" lon="14.128745"><ele>149.5</ele><time>2026-05-01T15:59:27.936Z</time></trkpt><trkpt lat="42.468005" lon="14.1288067"><ele>152.0</ele><time>2026-05-01T15:59:28.937Z</time></trkpt><trkpt lat="42.46813" lon="14.1288433"><ele>154.5</ele><time>2026-05-01T15:59:29.937Z</time></trkpt><trkpt lat="42.4682683" lon="14.1288867"><ele>157.0</ele><time>2026-05-01T15:59:30.937Z</time></trkpt><trkpt lat="42.4684167" lon="14.1289367"><ele>157.0</ele><time>2026-05-01T15:59:31.936Z</time></trkpt><trkpt lat="42.4685633" lon="14.128975"><ele>157.0</ele><time>2026-05-01T15:59:32.937Z</time></trkpt><trkpt lat="42.4686983" lon="14.1290333"><ele>157.0</ele><time>2026-05-01T15:59:33.937Z</time></trkpt><trkpt lat="42.4688483" lon="14.12908"><ele>157.0</ele><time>2026-05-01T15:59:34.936Z</time></trkpt><trkpt lat="42.4689933" lon="14.129135"><ele>155.25</ele><time>2026-05-01T15:59:35.936Z</time></trkpt><trkpt lat="42.46913" lon="14.1292"><ele>153.5</ele><time>2026-05-01T15:59:36.936Z</time></trkpt><trkpt lat="42.46926" lon="14.1292833"><ele>151.75</ele><time>2026-05-01T15:59:37.937Z</time></trkpt><trkpt lat="42.4693883" lon="14.1293833"><ele>150.0</ele><time>2026-05-01T15:59:38.937Z</time></trkpt><trkpt lat="42.469515" lon="14.1295083"><ele>150.0</ele><time>2026-05-01T15:59:39.936Z</time></trkpt><trkpt lat="42.4696483" lon="14.12964"><ele>150.0</ele><time>2026-05-01T15:59:40.937Z</time></trkpt><trkpt lat="42.4697817" lon="14.1297817"><ele>150.0</ele><time>2026-05-01T15:59:41.936Z</time></trkpt><trkpt lat="42.4699117" lon="14.1299217"><ele>150.0</ele><time>2026-05-01T15:59:42.937Z</time></trkpt><trkpt lat="42.4700367" lon="14.1300767"><ele>150.0</ele><time>2026-05-01T15:59:43.937Z</time></trkpt><trkpt lat="42.4701583" lon="14.1302233"><ele>150.0</ele><time>2026-05-01T15:59:44.937Z</time></trkpt><trkpt lat="42.470275" lon="14.1303667"><ele>150.0</ele><time>2026-05-01T15:59:45.937Z</time></trkpt><trkpt lat="42.4703967" lon="14.1305133"><ele>150.0</ele><time>2026-05-01T15:59:46.936Z</time></trkpt><trkpt lat="42.4705133" lon="14.1306617"><ele>150.0</ele><time>2026-05-01T15:59:47.936Z</time></trkpt><trkpt lat="42.4706333" lon="14.1308117"><ele>148.0</ele><time>2026-05-01T15:59:48.937Z</time></trkpt><trkpt lat="42.4707567" lon="14.1309683"><ele>146.0</ele><time>2026-05-01T15:59:49.937Z</time></trkpt><trkpt lat="42.4708767" lon="14.1311167"><ele>144.0</ele><time>2026-05-01T15:59:50.937Z</time></trkpt><trkpt lat="42.470995" lon="14.1312667"><ele>144.0</ele><time>2026-05-01T15:59:51.937Z</time></trkpt><trkpt lat="42.47111" lon="14.131415"><ele>144.0</ele><time>2026-05-01T15:59:52.936Z</time></trkpt><trkpt lat="42.4712167" lon="14.13155"><ele>144.0</ele><time>2026-05-01T15:59:53.936Z</time></trkpt><trkpt lat="42.4713233" lon="14.1316783"><ele>144.0</ele><time>2026-05-01T15:59:54.937Z</time></trkpt><trkpt lat="42.47141" lon="14.1318"><ele>143.5</ele><time>2026-05-01T15:59:55.937Z</time></trkpt><trkpt lat="42.47147" lon="14.131935"><ele>143.0</ele><time>2026-05-01T15:59:56.937Z</time></trkpt><trkpt lat="42.471505" lon="14.1320867"><ele>142.5</ele><time>2026-05-01T15:59:57.937Z</time></trkpt><trkpt lat="42.4715183" lon="14.1322683"><ele>142.0</ele><time>2026-05-01T15:59:58.937Z</time></trkpt><trkpt lat="42.4715217" lon="14.13245"><ele>143.5</ele><time>2026-05-01T15:59:59.936Z</time></trkpt><trkpt lat="42.4715367" lon="14.1326317"><ele>145.0</ele><time>2026-05-01T16:00:00.937Z</time></trkpt><trkpt lat="42.4715583" lon="14.13281"><ele>146.5</ele><time>2026-05-01T16:00:01.936Z</time></trkpt><trkpt lat="42.4716067" lon="14.1329867"><ele>148.0</ele><time>2026-05-01T16:00:02.937Z</time></trkpt><trkpt lat="42.4716683" lon="14.133125"><ele>148.0</ele><time>2026-05-01T16:00:03.937Z</time></trkpt><trkpt lat="42.4717467" lon="14.133245"><ele>148.0</ele><time>2026-05-01T16:00:04.936Z</time></trkpt><trkpt lat="42.4718333" lon="14.1333233"><ele>148.0</ele><time>2026-05-01T16:00:05.937Z</time></trkpt><trkpt lat="42.4719417" lon="14.1333683"><ele>148.0</ele><time>2026-05-01T16:00:06.937Z</time></trkpt><trkpt lat="42.4720633" lon="14.133385"><ele>150.5</ele><time>2026-05-01T16:00:07.937Z</time></trkpt><trkpt lat="42.4721933" lon="14.133375"><ele>153.0</ele><time>2026-05-01T16:00:08.937Z</time></trkpt><trkpt lat="42.4723083" lon="14.133355"><ele>155.5</ele><time>2026-05-01T16:00:09.937Z</time></trkpt><trkpt lat="42.4724117" lon="14.1333783"><ele>158.0</ele><time>2026-05-01T16:00:10.937Z</time></trkpt><trkpt lat="42.4725133" lon="14.1334333"><ele>158.0</ele><time>2026-05-01T16:00:11.937Z</time></trkpt><trkpt lat="42.4726083" lon="14.133525"><ele>158.0</ele><time>2026-05-01T16:00:12.936Z</time></trkpt><trkpt lat="42.4727133" lon="14.133655"><ele>158.0</ele><time>2026-05-01T16:00:13.937Z</time></trkpt><trkpt lat="42.4728217" lon="14.1337867"><ele>158.0</ele><time>2026-05-01T16:00:14.937Z</time></trkpt><trkpt lat="42.47294" lon="14.1338883"><ele>160.0</ele><time>2026-05-01T16:00:15.937Z</time></trkpt><trkpt lat="42.4730767" lon="14.133985"><ele>162.0</ele><time>2026-05-01T16:00:16.937Z</time></trkpt><trkpt lat="42.4732" lon="14.1340733"><ele>164.0</ele><time>2026-05-01T16:00:17.936Z</time></trkpt><trkpt lat="42.47331" lon="14.1341817"><ele>166.0</ele><time>2026-05-01T16:00:18.937Z</time></trkpt><trkpt lat="42.473415" lon="14.134305"><ele>166.0</ele><time>2026-05-01T16:00:19.936Z</time></trkpt><trkpt lat="42.47349" lon="14.13443"><ele>166.0</ele><time>2026-05-01T16:00:20.937Z</time></trkpt><trkpt lat="42.4735367" lon="14.1345683"><ele>166.0</ele><time>2026-05-01T16:00:21.936Z</time></trkpt><trkpt lat="42.473565" lon="14.1347217"><ele>166.0</ele><time>2026-05-01T16:00:22.937Z</time></trkpt><trkpt lat="42.4735833" lon="14.1349017"><ele>164.0</ele><time>2026-05-01T16:00:23.937Z</time></trkpt><trkpt lat="42.4736117" lon="14.1350717"><ele>162.0</ele><time>2026-05-01T16:00:24.937Z</time></trkpt><trkpt lat="42.473645" lon="14.1352317"><ele>160.0</ele><time>2026-05-01T16:00:25.937Z</time></trkpt><trkpt lat="42.4737033" lon="14.1353583"><ele>158.0</ele><time>2026-05-01T16:00:26.937Z</time></trkpt><trkpt lat="42.4737817" lon="14.1354617"><ele>163.75</ele><time>2026-05-01T16:00:27.937Z</time></trkpt><trkpt lat="42.4738767" lon="14.1355317"><ele>169.5</ele><time>2026-05-01T16:00:28.937Z</time></trkpt><trkpt lat="42.4739883" lon="14.1355767"><ele>175.25</ele><time>2026-05-01T16:00:29.936Z</time></trkpt><trkpt lat="42.4741133" lon="14.1356317"><ele>181.0</ele><time>2026-05-01T16:00:30.937Z</time></trkpt><trkpt lat="42.47424" lon="14.135705"><ele>181.5</ele><time>2026-05-01T16:00:31.937Z</time></trkpt><trkpt lat="42.4743567" lon="14.135785"><ele>182.0</ele><time>2026-05-01T16:00:32.936Z</time></trkpt><trkpt lat="42.47447" lon="14.1358733"><ele>182.5</ele><time>2026-05-01T16:00:33.936Z</time></trkpt><trkpt lat="42.47457" lon="14.13596"><ele>183.0</ele><time>2026-05-01T16:00:34.937Z</time></trkpt><trkpt lat="42.4746667" lon="14.136045"><ele>183.0</ele><time>2026-05-01T16:00:35.937Z</time></trkpt><trkpt lat="42.4747867" lon="14.1361017"><ele>183.0</ele><time>2026-05-01T16:00:36.936Z</time></trkpt><trkpt lat="42.4749083" lon="14.13614"><ele>183.0</ele><time>2026-05-01T16:00:37.937Z</time></trkpt><trkpt lat="42.47501" lon="14.13618"><ele>183.0</ele><time>2026-05-01T16:00:38.937Z</time></trkpt><trkpt lat="42.47511" lon="14.1362383"><ele>183.0</ele><time>2026-05-01T16:00:39.937Z</time></trkpt><trkpt lat="42.475205" lon="14.136325"><ele>183.0</ele><time>2026-05-01T16:00:40.937Z</time></trkpt><trkpt lat="42.4752917" lon="14.136455"><ele>183.0</ele><time>2026-05-01T16:00:41.937Z</time></trkpt><trkpt lat="42.47538" lon="14.1365933"><ele>183.0</ele><time>2026-05-01T16:00:42.937Z</time></trkpt><trkpt lat="42.4754733" lon="14.136715"><ele>183.0</ele><time>2026-05-01T16:00:43.935Z</time></trkpt><trkpt lat="42.4755983" lon="14.13682"><ele>183.0</ele><time>2026-05-01T16:00:44.935Z</time></trkpt><trkpt lat="42.4757383" lon="14.13691"><ele>183.0</ele><time>2026-05-01T16:00:45.935Z</time></trkpt><trkpt lat="42.4758867" lon="14.1370067"><ele>183.0</ele><time>2026-05-01T16:00:46.935Z</time></trkpt><trkpt lat="42.476045" lon="14.1370983"><ele>183.0</ele><time>2026-05-01T16:00:47.936Z</time></trkpt><trkpt lat="42.4761967" lon="14.137185"><ele>183.0</ele><time>2026-05-01T16:00:48.936Z</time></trkpt><trkpt lat="42.4763317" lon="14.1372567"><ele>182.0</ele><time>2026-05-01T16:00:49.936Z</time></trkpt><trkpt lat="42.47646" lon="14.1373167"><ele>181.0</ele><time>2026-05-01T16:00:50.936Z</time></trkpt><trkpt lat="42.47659" lon="14.137365"><ele>180.0</ele><time>2026-05-01T16:00:51.935Z</time></trkpt><trkpt lat="42.4767133" lon="14.1374033"><ele>179.0</ele><time>2026-05-01T16:00:52.936Z</time></trkpt><trkpt lat="42.4768383" lon="14.13743"><ele>179.0</ele><time>2026-05-01T16:00:53.936Z</time></trkpt><trkpt lat="42.4769617" lon="14.1374533"><ele>179.0</ele><time>2026-05-01T16:00:54.936Z</time></trkpt><trkpt lat="42.4770883" lon="14.1374667"><ele>179.0</ele><time>2026-05-01T16:00:55.936Z</time></trkpt><trkpt lat="42.4772283" lon="14.1374617"><ele>179.0</ele><time>2026-05-01T16:00:56.936Z</time></trkpt><trkpt lat="42.4773633" lon="14.1374333"><ele>179.75</ele><time>2026-05-01T16:00:57.936Z</time></trkpt><trkpt lat="42.477495" lon="14.1373967"><ele>180.5</ele><time>2026-05-01T16:00:58.936Z</time></trkpt><trkpt lat="42.4776233" lon="14.1373433"><ele>181.25</ele><time>2026-05-01T16:00:59.936Z</time></trkpt><trkpt lat="42.477755" lon="14.1372983"><ele>182.0</ele><time>2026-05-01T16:01:00.936Z</time></trkpt><trkpt lat="42.47788" lon="14.1372483"><ele>178.5</ele><time>2026-05-01T16:01:01.936Z</time></trkpt><trkpt lat="42.4780017" lon="14.1372017"><ele>175.0</ele><time>2026-05-01T16:01:02.936Z</time></trkpt><trkpt lat="42.4781183" lon="14.1371767"><ele>171.5</ele><time>2026-05-01T16:01:03.936Z</time></trkpt><trkpt lat="42.4782367" lon="14.137175"><ele>168.0</ele><time>2026-05-01T16:01:04.935Z</time></trkpt><trkpt lat="42.4783483" lon="14.1372067"><ele>168.0</ele><time>2026-05-01T16:01:05.936Z</time></trkpt><trkpt lat="42.47846" lon="14.1372533"><ele>168.0</ele><time>2026-05-01T16:01:06.935Z</time></trkpt><trkpt lat="42.4785717" lon="14.1372917"><ele>168.0</ele><time>2026-05-01T16:01:07.936Z</time></trkpt><trkpt lat="42.4786817" lon="14.1373017"><ele>168.0</ele><time>2026-05-01T16:01:08.935Z</time></trkpt><trkpt lat="42.4788017" lon="14.13727"><ele>167.75</ele><time>2026-05-01T16:01:09.936Z</time></trkpt><trkpt lat="42.478925" lon="14.1372117"><ele>167.5</ele><time>2026-05-01T16:01:10.936Z</time></trkpt><trkpt lat="42.4790383" lon="14.1371417"><ele>167.25</ele><time>2026-05-01T16:01:11.935Z</time></trkpt><trkpt lat="42.4791533" lon="14.1370467"><ele>167.0</ele><time>2026-05-01T16:01:12.936Z</time></trkpt><trkpt lat="42.4792567" lon="14.1369233"><ele>167.0</ele><time>2026-05-01T16:01:13.936Z</time></trkpt><trkpt lat="42.479335" lon="14.1368"><ele>167.0</ele><time>2026-05-01T16:01:14.936Z</time></trkpt><trkpt lat="42.4794117" lon="14.1366633"><ele>167.0</ele><time>2026-05-01T16:01:15.936Z</time></trkpt><trkpt lat="42.47949" lon="14.1365367"><ele>167.0</ele><time>2026-05-01T16:01:16.936Z</time></trkpt><trkpt lat="42.479565" lon="14.13641"><ele>166.5</ele><time>2026-05-01T16:01:17.936Z</time></trkpt><trkpt lat="42.4796467" lon="14.1362917"><ele>166.0</ele><time>2026-05-01T16:01:18.936Z</time></trkpt><trkpt lat="42.47973" lon="14.136185"><ele>165.5</ele><time>2026-05-01T16:01:19.936Z</time></trkpt><trkpt lat="42.4798117" lon="14.1360783"><ele>165.0</ele><time>2026-05-01T16:01:20.936Z</time></trkpt><trkpt lat="42.4798767" lon="14.1359483"><ele>165.0</ele><time>2026-05-01T16:01:21.936Z</time></trkpt><trkpt lat="42.4799217" lon="14.1358067"><ele>165.0</ele><time>2026-05-01T16:01:22.936Z</time></trkpt><trkpt lat="42.4799567" lon="14.1356433"><ele>165.0</ele><time>2026-05-01T16:01:23.936Z</time></trkpt><trkpt lat="42.4799867" lon="14.1354817"><ele>165.0</ele><time>2026-05-01T16:01:24.936Z</time></trkpt><trkpt lat="42.4800217" lon="14.1353417"><ele>163.0</ele><time>2026-05-01T16:01:25.935Z</time></trkpt><trkpt lat="42.480085" lon="14.1352183"><ele>161.0</ele><time>2026-05-01T16:01:26.936Z</time></trkpt><trkpt lat="42.4801633" lon="14.1351033"><ele>159.0</ele><time>2026-05-01T16:01:27.935Z</time></trkpt><trkpt lat="42.4802567" lon="14.134995"><ele>157.0</ele><time>2026-05-01T16:01:28.936Z</time></trkpt><trkpt lat="42.4803533" lon="14.1349083"><ele>155.4</ele><time>2026-05-01T16:01:29.936Z</time></trkpt><trkpt lat="42.4804433" lon="14.134845"><ele>153.79999999999998</ele><time>2026-05-01T16:01:30.936Z</time></trkpt><trkpt lat="42.4805417" lon="14.1347817"><ele>152.2</ele><time>2026-05-01T16:01:31.936Z</time></trkpt><trkpt lat="42.4806383" lon="14.1347367"><ele>150.6</ele><time>2026-05-01T16:01:32.935Z</time></trkpt><trkpt lat="42.4807267" lon="14.1347517"><ele>149.0</ele><time>2026-05-01T16:01:33.936Z</time></trkpt><trkpt lat="42.48081" lon="14.1347867"><ele>149.0</ele><time>2026-05-01T16:01:34.935Z</time></trkpt><trkpt lat="42.4809" lon="14.134865"><ele>149.0</ele><time>2026-05-01T16:01:35.936Z</time></trkpt><trkpt lat="42.4809867" lon="14.1349767"><ele>149.0</ele><time>2026-05-01T16:01:36.936Z</time></trkpt><trkpt lat="42.48107" lon="14.1351"><ele>149.0</ele><time>2026-05-01T16:01:37.936Z</time></trkpt><trkpt lat="42.4811317" lon="14.1352283"><ele>148.5</ele><time>2026-05-01T16:01:38.936Z</time></trkpt><trkpt lat="42.481185" lon="14.1353883"><ele>148.0</ele><time>2026-05-01T16:01:39.936Z</time></trkpt><trkpt lat="42.4812433" lon="14.13557"><ele>147.5</ele><time>2026-05-01T16:01:40.936Z</time></trkpt><trkpt lat="42.4813067" lon="14.1357667"><ele>147.0</ele><time>2026-05-01T16:01:41.936Z</time></trkpt><trkpt lat="42.4813717" lon="14.135965"><ele>147.0</ele><time>2026-05-01T16:01:42.936Z</time></trkpt><trkpt lat="42.4814333" lon="14.1361417"><ele>147.0</ele><time>2026-05-01T16:01:43.935Z</time></trkpt><trkpt lat="42.481485" lon="14.1363067"><ele>147.0</ele><time>2026-05-01T16:01:44.936Z</time></trkpt><trkpt lat="42.4815433" lon="14.1364317"><ele>147.0</ele><time>2026-05-01T16:01:45.935Z</time></trkpt><trkpt lat="42.481615" lon="14.1365233"><ele>147.0</ele><time>2026-05-01T16:01:46.936Z</time></trkpt><trkpt lat="42.4817067" lon="14.1365717"><ele>147.0</ele><time>2026-05-01T16:01:47.936Z</time></trkpt><trkpt lat="42.4817983" lon="14.1365783"><ele>147.0</ele><time>2026-05-01T16:01:48.935Z</time></trkpt><trkpt lat="42.4819017" lon="14.1365383"><ele>147.0</ele><time>2026-05-01T16:01:49.935Z</time></trkpt><trkpt lat="42.482" lon="14.1364567"><ele>147.0</ele><time>2026-05-01T16:01:50.936Z</time></trkpt><trkpt lat="42.4820767" lon="14.1363567"><ele>145.75</ele><time>2026-05-01T16:01:51.936Z</time></trkpt><trkpt lat="42.482125" lon="14.1362117"><ele>144.5</ele><time>2026-05-01T16:01:52.936Z</time></trkpt><trkpt lat="42.4821667" lon="14.13603"><ele>143.25</ele><time>2026-05-01T16:01:53.935Z</time></trkpt><trkpt lat="42.482205" lon="14.13584"><ele>142.0</ele><time>2026-05-01T16:01:54.936Z</time></trkpt><trkpt lat="42.4822467" lon="14.135645"><ele>141.0</ele><time>2026-05-01T16:01:55.936Z</time></trkpt><trkpt lat="42.4822867" lon="14.1354483"><ele>140.0</ele><time>2026-05-01T16:01:56.936Z</time></trkpt><trkpt lat="42.4823233" lon="14.1352517"><ele>139.0</ele><time>2026-05-01T16:01:57.935Z</time></trkpt><trkpt lat="42.4823633" lon="14.1350533"><ele>138.5</ele><time>2026-05-01T16:01:58.935Z</time></trkpt><trkpt lat="42.48241" lon="14.1348633"><ele>138.0</ele><time>2026-05-01T16:01:59.935Z</time></trkpt><trkpt lat="42.48245" lon="14.134675"><ele>137.5</ele><time>2026-05-01T16:02:00.936Z</time></trkpt><trkpt lat="42.4824917" lon="14.1344817"><ele>137.0</ele><time>2026-05-01T16:02:01.936Z</time></trkpt><trkpt lat="42.4825267" lon="14.134305"><ele>137.0</ele><time>2026-05-01T16:02:02.935Z</time></trkpt><trkpt lat="42.4825583" lon="14.1341267"><ele>137.0</ele><time>2026-05-01T16:02:03.936Z</time></trkpt><trkpt lat="42.4825933" lon="14.1339583"><ele>137.0</ele><time>2026-05-01T16:02:04.935Z</time></trkpt><trkpt lat="42.4826283" lon="14.1337933"><ele>137.0</ele><time>2026-05-01T16:02:05.935Z</time></trkpt><trkpt lat="42.4826667" lon="14.1336383"><ele>136.0</ele><time>2026-05-01T16:02:06.936Z</time></trkpt><trkpt lat="42.482715" lon="14.1334817"><ele>135.0</ele><time>2026-05-01T16:02:07.936Z</time></trkpt><trkpt lat="42.4827817" lon="14.13334"><ele>134.0</ele><time>2026-05-01T16:02:08.936Z</time></trkpt><trkpt lat="42.48286" lon="14.1332433"><ele>133.0</ele><time>2026-05-01T16:02:09.936Z</time></trkpt><trkpt lat="42.4829567" lon="14.13317"><ele>132.0</ele><time>2026-05-01T16:02:10.935Z</time></trkpt><trkpt lat="42.4830717" lon="14.13311"><ele>131.0</ele><time>2026-05-01T16:02:11.936Z</time></trkpt><trkpt lat="42.4832083" lon="14.13305"><ele>130.0</ele><time>2026-05-01T16:02:12.936Z</time></trkpt><trkpt lat="42.483355" lon="14.1329883"><ele>129.0</ele><time>2026-05-01T16:02:13.935Z</time></trkpt><trkpt lat="42.4835083" lon="14.1329167"><ele>129.0</ele><time>2026-05-01T16:02:14.936Z</time></trkpt><trkpt lat="42.483655" lon="14.1328433"><ele>129.0</ele><time>2026-05-01T16:02:15.936Z</time></trkpt><trkpt lat="42.4838033" lon="14.1327717"><ele>129.0</ele><time>2026-05-01T16:02:16.935Z</time></trkpt><trkpt lat="42.48395" lon="14.1327067"><ele>128.0</ele><time>2026-05-01T16:02:17.935Z</time></trkpt><trkpt lat="42.4840867" lon="14.13264"><ele>127.0</ele><time>2026-05-01T16:02:18.936Z</time></trkpt><trkpt lat="42.48423" lon="14.1325683"><ele>126.0</ele><time>2026-05-01T16:02:19.936Z</time></trkpt><trkpt lat="42.4843683" lon="14.1325017"><ele>125.0</ele><time>2026-05-01T16:02:20.935Z</time></trkpt><trkpt lat="42.4845083" lon="14.13243"><ele>123.5</ele><time>2026-05-01T16:02:21.936Z</time></trkpt><trkpt lat="42.4846383" lon="14.1323683"><ele>122.0</ele><time>2026-05-01T16:02:22.936Z</time></trkpt><trkpt lat="42.4847567" lon="14.13231"><ele>120.5</ele><time>2026-05-01T16:02:23.936Z</time></trkpt><trkpt lat="42.484875" lon="14.13228"><ele>119.0</ele><time>2026-05-01T16:02:24.936Z</time></trkpt><trkpt lat="42.48499" lon="14.1322533"><ele>119.0</ele><time>2026-05-01T16:02:25.936Z</time></trkpt><trkpt lat="42.4850967" lon="14.1322767"><ele>119.0</ele><time>2026-05-01T16:02:26.936Z</time></trkpt><trkpt lat="42.485205" lon="14.1323167"><ele>119.0</ele><time>2026-05-01T16:02:27.936Z</time></trkpt><trkpt lat="42.48531" lon="14.132375"><ele>119.0</ele><time>2026-05-01T16:02:28.935Z</time></trkpt><trkpt lat="42.48541" lon="14.1324667"><ele>118.75</ele><time>2026-05-01T16:02:29.935Z</time></trkpt><trkpt lat="42.48551" lon="14.1325917"><ele>118.5</ele><time>2026-05-01T16:02:30.936Z</time></trkpt><trkpt lat="42.485605" lon="14.1327167"><ele>118.25</ele><time>2026-05-01T16:02:31.936Z</time></trkpt><trkpt lat="42.48571" lon="14.132845"><ele>118.0</ele><time>2026-05-01T16:02:32.936Z</time></trkpt><trkpt lat="42.48581" lon="14.13297"><ele>118.0</ele><time>2026-05-01T16:02:33.936Z</time></trkpt><trkpt lat="42.4859167" lon="14.1330917"><ele>118.0</ele><time>2026-05-01T16:02:34.936Z</time></trkpt><trkpt lat="42.4860267" lon="14.133215"><ele>118.0</ele><time>2026-05-01T16:02:35.936Z</time></trkpt><trkpt lat="42.4861183" lon="14.1333367"><ele>118.0</ele><time>2026-05-01T16:02:36.935Z</time></trkpt><trkpt lat="42.48621" lon="14.1334483"><ele>118.2</ele><time>2026-05-01T16:02:37.936Z</time></trkpt><trkpt lat="42.4862917" lon="14.13355"><ele>118.4</ele><time>2026-05-01T16:02:38.936Z</time></trkpt><trkpt lat="42.4863733" lon="14.1336383"><ele>118.60000000000001</ele><time>2026-05-01T16:02:39.936Z</time></trkpt><trkpt lat="42.4864483" lon="14.1337367"><ele>118.80000000000001</ele><time>2026-05-01T16:02:40.935Z</time></trkpt><trkpt lat="42.4865167" lon="14.1338283"><ele>119.0</ele><time>2026-05-01T16:02:41.936Z</time></trkpt><trkpt lat="42.48658" lon="14.1339183"><ele>119.0</ele><time>2026-05-01T16:02:42.936Z</time></trkpt><trkpt lat="42.4866267" lon="14.1340217"><ele>119.0</ele><time>2026-05-01T16:02:43.935Z</time></trkpt><trkpt lat="42.4866617" lon="14.1341517"><ele>119.0</ele><time>2026-05-01T16:02:44.936Z</time></trkpt><trkpt lat="42.4866933" lon="14.134305"><ele>119.0</ele><time>2026-05-01T16:02:45.936Z</time></trkpt><trkpt lat="42.48672" lon="14.1344683"><ele>119.0</ele><time>2026-05-01T16:02:46.935Z</time></trkpt><trkpt lat="42.4867517" lon="14.1346367"><ele>118.33333333333333</ele><time>2026-05-01T16:02:47.936Z</time></trkpt><trkpt lat="42.48679" lon="14.134825"><ele>117.66666666666666</ele><time>2026-05-01T16:02:48.935Z</time></trkpt><trkpt lat="42.4868283" lon="14.1350267"><ele>117.0</ele><time>2026-05-01T16:02:49.936Z</time></trkpt><trkpt lat="42.48686" lon="14.1352367"><ele>117.0</ele><time>2026-05-01T16:02:50.936Z</time></trkpt><trkpt lat="42.4869017" lon="14.1354417"><ele>117.0</ele><time>2026-05-01T16:02:51.936Z</time></trkpt><trkpt lat="42.486935" lon="14.13565"><ele>117.0</ele><time>2026-05-01T16:02:52.935Z</time></trkpt><trkpt lat="42.48698" lon="14.1358633"><ele>116.75</ele><time>2026-05-01T16:02:53.936Z</time></trkpt><trkpt lat="42.48704" lon="14.13606"><ele>116.5</ele><time>2026-05-01T16:02:54.936Z</time></trkpt><trkpt lat="42.487105" lon="14.13624"><ele>116.25</ele><time>2026-05-01T16:02:55.935Z</time></trkpt><trkpt lat="42.48717" lon="14.1364"><ele>116.0</ele><time>2026-05-01T16:02:56.936Z</time></trkpt><trkpt lat="42.4872383" lon="14.13655"><ele>118.0</ele><time>2026-05-01T16:02:57.936Z</time></trkpt><trkpt lat="42.4873" lon="14.1366967"><ele>120.0</ele><time>2026-05-01T16:02:58.936Z</time></trkpt><trkpt lat="42.48735" lon="14.1368317"><ele>122.0</ele><time>2026-05-01T16:02:59.936Z</time></trkpt><trkpt lat="42.4873983" lon="14.136965"><ele>124.0</ele><time>2026-05-01T16:03:00.936Z</time></trkpt><trkpt lat="42.487445" lon="14.1371067"><ele>124.0</ele><time>2026-05-01T16:03:01.936Z</time></trkpt><trkpt lat="42.4874917" lon="14.13725"><ele>124.0</ele><time>2026-05-01T16:03:02.935Z</time></trkpt><trkpt lat="42.4875367" lon="14.1374017"><ele>124.0</ele><time>2026-05-01T16:03:03.936Z</time></trkpt><trkpt lat="42.4875767" lon="14.13755"><ele>124.0</ele><time>2026-05-01T16:03:04.935Z</time></trkpt><trkpt lat="42.4876133" lon="14.137715"><ele>124.0</ele><time>2026-05-01T16:03:05.936Z</time></trkpt><trkpt lat="42.4876283" lon="14.1379"><ele>124.0</ele><time>2026-05-01T16:03:06.936Z</time></trkpt><trkpt lat="42.48763" lon="14.1380917"><ele>124.0</ele><time>2026-05-01T16:03:07.935Z</time></trkpt><trkpt lat="42.4876217" lon="14.1382767"><ele>124.0</ele><time>2026-05-01T16:03:08.936Z</time></trkpt><trkpt lat="42.48762" lon="14.1384417"><ele>124.25</ele><time>2026-05-01T16:03:09.936Z</time></trkpt><trkpt lat="42.4876333" lon="14.1386133"><ele>124.5</ele><time>2026-05-01T16:03:10.935Z</time></trkpt><trkpt lat="42.48767" lon="14.1387867"><ele>124.75</ele><time>2026-05-01T16:03:11.936Z</time></trkpt><trkpt lat="42.4877333" lon="14.1389333"><ele>125.0</ele><time>2026-05-01T16:03:12.936Z</time></trkpt><trkpt lat="42.4878133" lon="14.1390683"><ele>125.25</ele><time>2026-05-01T16:03:13.936Z</time></trkpt><trkpt lat="42.4879133" lon="14.1391883"><ele>125.5</ele><time>2026-05-01T16:03:14.936Z</time></trkpt><trkpt lat="42.4880233" lon="14.1392733"><ele>125.75</ele><time>2026-05-01T16:03:15.936Z</time></trkpt><trkpt lat="42.48815" lon="14.1393267"><ele>126.0</ele><time>2026-05-01T16:03:16.936Z</time></trkpt><trkpt lat="42.488265" lon="14.139365"><ele>127.6</ele><time>2026-05-01T16:03:17.936Z</time></trkpt><trkpt lat="42.488375" lon="14.1393683"><ele>129.2</ele><time>2026-05-01T16:03:18.936Z</time></trkpt><trkpt lat="42.4884733" lon="14.1393717"><ele>130.8</ele><time>2026-05-01T16:03:19.936Z</time></trkpt><trkpt lat="42.48856" lon="14.1393883"><ele>132.4</ele><time>2026-05-01T16:03:20.936Z</time></trkpt><trkpt lat="42.4886533" lon="14.1393917"><ele>134.0</ele><time>2026-05-01T16:03:21.936Z</time></trkpt><trkpt lat="42.4887533" lon="14.1393817"><ele>134.42857142857144</ele><time>2026-05-01T16:03:22.936Z</time></trkpt><trkpt lat="42.4888383" lon="14.1393867"><ele>134.85714285714286</ele><time>2026-05-01T16:03:23.935Z</time></trkpt><trkpt lat="42.4889133" lon="14.139405"><ele>135.28571428571428</ele><time>2026-05-01T16:03:24.936Z</time></trkpt><trkpt lat="42.4889717" lon="14.1394417"><ele>135.71428571428572</ele><time>2026-05-01T16:03:25.936Z</time></trkpt><trkpt lat="42.4890333" lon="14.1394817"><ele>136.14285714285714</ele><time>2026-05-01T16:03:26.936Z</time></trkpt><trkpt lat="42.48909" lon="14.1395333"><ele>136.57142857142858</ele><time>2026-05-01T16:03:27.936Z</time></trkpt><trkpt lat="42.4891483" lon="14.1395683"><ele>137.0</ele><time>2026-05-01T16:03:28.936Z</time></trkpt><trkpt lat="42.489255" lon="14.139605"><ele>137.0</ele><time>2026-05-01T16:03:30.936Z</time></trkpt><trkpt lat="42.4893783" lon="14.139535"><ele>137.0</ele><time>2026-05-01T16:03:32.936Z</time></trkpt><trkpt lat="42.489445" lon="14.1394733"><ele>137.0</ele><time>2026-05-01T16:03:33.936Z</time></trkpt><trkpt lat="42.4895317" lon="14.13942"><ele>137.0</ele><time>2026-05-01T16:03:34.936Z</time></trkpt><trkpt lat="42.4896183" lon="14.1394033"><ele>137.0</ele><time>2026-05-01T16:03:35.936Z</time></trkpt><trkpt lat="42.4897333" lon="14.1394067"><ele>138.33333333333331</ele><time>2026-05-01T16:03:36.936Z</time></trkpt><trkpt lat="42.4898767" lon="14.1394167"><ele>139.66666666666666</ele><time>2026-05-01T16:03:37.936Z</time></trkpt><trkpt lat="42.4900467" lon="14.1394083"><ele>141.0</ele><time>2026-05-01T16:03:38.935Z</time></trkpt><trkpt lat="42.4902133" lon="14.13943"><ele>141.0</ele><time>2026-05-01T16:03:39.936Z</time></trkpt><trkpt lat="42.490375" lon="14.1394433"><ele>141.0</ele><time>2026-05-01T16:03:40.936Z</time></trkpt><trkpt lat="42.4905133" lon="14.139455"><ele>141.0</ele><time>2026-05-01T16:03:41.936Z</time></trkpt><trkpt lat="42.49061" lon="14.1394567"><ele>141.0</ele><time>2026-05-01T16:03:42.936Z</time></trkpt><trkpt lat="42.4907017" lon="14.1394917"><ele>142.66666666666666</ele><time>2026-05-01T16:03:43.936Z</time></trkpt><trkpt lat="42.490775" lon="14.1395217"><ele>144.33333333333334</ele><time>2026-05-01T16:03:44.936Z</time></trkpt><trkpt lat="42.4908333" lon="14.13958"><ele>146.0</ele><time>2026-05-01T16:03:45.936Z</time></trkpt><trkpt lat="42.4908717" lon="14.1396617"><ele>147.66666666666669</ele><time>2026-05-01T16:03:46.936Z</time></trkpt><trkpt lat="42.4908867" lon="14.1397583"><ele>149.33333333333334</ele><time>2026-05-01T16:03:47.936Z</time></trkpt><trkpt lat="42.49089" lon="14.1398967"><ele>151.0</ele><time>2026-05-01T16:03:48.936Z</time></trkpt><trkpt lat="42.49089" lon="14.1400683"><ele>152.0</ele><time>2026-05-01T16:03:49.936Z</time></trkpt><trkpt lat="42.4908833" lon="14.1402583"><ele>153.0</ele><time>2026-05-01T16:03:50.936Z</time></trkpt><trkpt lat="42.4908767" lon="14.1404283"><ele>154.0</ele><time>2026-05-01T16:03:51.936Z</time></trkpt><trkpt lat="42.4908717" lon="14.1405833"><ele>155.0</ele><time>2026-05-01T16:03:52.935Z</time></trkpt><trkpt lat="42.4908683" lon="14.1407117"><ele>155.0</ele><time>2026-05-01T16:03:53.935Z</time></trkpt><trkpt lat="42.4908867" lon="14.1408083"><ele>155.0</ele><time>2026-05-01T16:03:54.936Z</time></trkpt><trkpt lat="42.4909383" lon="14.140885"><ele>155.0</ele><time>2026-05-01T16:03:55.936Z</time></trkpt><trkpt lat="42.491" lon="14.1409283"><ele>155.0</ele><time>2026-05-01T16:03:56.935Z</time></trkpt><trkpt lat="42.491125" lon="14.140855"><ele>155.0</ele><time>2026-05-01T16:03:58.936Z</time></trkpt><trkpt lat="42.4911817" lon="14.1407617"><ele>155.0</ele><time>2026-05-01T16:03:59.936Z</time></trkpt><trkpt lat="42.4912267" lon="14.1406683"><ele>156.0</ele><time>2026-05-01T16:04:00.936Z</time></trkpt><trkpt lat="42.4912717" lon="14.1405733"><ele>157.0</ele><time>2026-05-01T16:04:01.936Z</time></trkpt><trkpt lat="42.4913317" lon="14.140465"><ele>158.0</ele><time>2026-05-01T16:04:03.936Z</time></trkpt><trkpt lat="42.4913633" lon="14.1403617"><ele>159.0</ele><time>2026-05-01T16:04:06.936Z</time></trkpt><trkpt lat="42.491435" lon="14.1403"><ele>160.0</ele><time>2026-05-01T16:04:09.936Z</time></trkpt><trkpt lat="42.491515" lon="14.1403317"><ele>161.0</ele><time>2026-05-01T16:04:12.936Z</time></trkpt><trkpt lat="42.4915683" lon="14.1403917"><ele>161.0</ele><time>2026-05-01T16:04:14.935Z</time></trkpt><trkpt lat="42.4916167" lon="14.1404783"><ele>161.0</ele><time>2026-05-01T16:04:16.934Z</time></trkpt><trkpt lat="42.4916567" lon="14.1405733"><ele>161.0</ele><time>2026-05-01T16:04:18.934Z</time></trkpt><trkpt lat="42.4916917" lon="14.1407383"><ele>161.0</ele><time>2026-05-01T16:04:20.935Z</time></trkpt><trkpt lat="42.4917183" lon="14.1408467"><ele>161.0</ele><time>2026-05-01T16:04:21.935Z</time></trkpt><trkpt lat="42.4917467" lon="14.1409667"><ele>161.0</ele><time>2026-05-01T16:04:22.935Z</time></trkpt><trkpt lat="42.4917717" lon="14.1411033"><ele>161.0</ele><time>2026-05-01T16:04:23.935Z</time></trkpt><trkpt lat="42.4917867" lon="14.1412383"><ele>161.0</ele><time>2026-05-01T16:04:24.934Z</time></trkpt><trkpt lat="42.4917933" lon="14.14138"><ele>161.0</ele><time>2026-05-01T16:04:25.935Z</time></trkpt><trkpt lat="42.49178" lon="14.1415333"><ele>161.0</ele><time>2026-05-01T16:04:26.935Z</time></trkpt><trkpt lat="42.4917433" lon="14.14168"><ele>161.0</ele><time>2026-05-01T16:04:27.934Z</time></trkpt><trkpt lat="42.491705" lon="14.1418183"><ele>161.0</ele><time>2026-05-01T16:04:28.935Z</time></trkpt><trkpt lat="42.4916567" lon="14.141945"><ele>161.0</ele><time>2026-05-01T16:04:29.935Z</time></trkpt><trkpt lat="42.4916183" lon="14.142075"><ele>161.0</ele><time>2026-05-01T16:04:30.934Z</time></trkpt><trkpt lat="42.4916083" lon="14.1422"><ele>161.0</ele><time>2026-05-01T16:04:31.935Z</time></trkpt><trkpt lat="42.4916183" lon="14.1423233"><ele>160.20000000000002</ele><time>2026-05-01T16:04:32.935Z</time></trkpt><trkpt lat="42.4916583" lon="14.1424433"><ele>159.4</ele><time>2026-05-01T16:04:33.934Z</time></trkpt><trkpt lat="42.4917067" lon="14.1425483"><ele>158.6</ele><time>2026-05-01T16:04:34.935Z</time></trkpt><trkpt lat="42.4917633" lon="14.142655"><ele>157.8</ele><time>2026-05-01T16:04:35.935Z</time></trkpt><trkpt lat="42.491805" lon="14.1427567"><ele>157.0</ele><time>2026-05-01T16:04:36.935Z</time></trkpt><trkpt lat="42.4918233" lon="14.1428633"><ele>157.0</ele><time>2026-05-01T16:04:37.935Z</time></trkpt><trkpt lat="42.4918117" lon="14.1429717"><ele>157.0</ele><time>2026-05-01T16:04:38.935Z</time></trkpt><trkpt lat="42.4917633" lon="14.1430717"><ele>157.0</ele><time>2026-05-01T16:04:39.934Z</time></trkpt><trkpt lat="42.4916933" lon="14.1431467"><ele>157.0</ele><time>2026-05-01T16:04:40.935Z</time></trkpt><trkpt lat="42.49163" lon="14.143245"><ele>157.0</ele><time>2026-05-01T16:04:41.935Z</time></trkpt><trkpt lat="42.4915783" lon="14.1433483"><ele>157.0</ele><time>2026-05-01T16:04:42.934Z</time></trkpt><trkpt lat="42.4915383" lon="14.143455"><ele>157.0</ele><time>2026-05-01T16:04:43.935Z</time></trkpt><trkpt lat="42.49155" lon="14.14357"><ele>157.0</ele><time>2026-05-01T16:04:44.935Z</time></trkpt><trkpt lat="42.4915933" lon="14.1437"><ele>157.0</ele><time>2026-05-01T16:04:45.935Z</time></trkpt><trkpt lat="42.491655" lon="14.1438367"><ele>157.0</ele><time>2026-05-01T16:04:46.935Z</time></trkpt><trkpt lat="42.4917333" lon="14.1439683"><ele>157.0</ele><time>2026-05-01T16:04:47.934Z</time></trkpt><trkpt lat="42.4918417" lon="14.1440883"><ele>157.0</ele><time>2026-05-01T16:04:48.934Z</time></trkpt><trkpt lat="42.4919417" lon="14.1441767"><ele>157.0</ele><time>2026-05-01T16:04:49.935Z</time></trkpt><trkpt lat="42.4920617" lon="14.1442433"><ele>157.0</ele><time>2026-05-01T16:04:50.935Z</time></trkpt><trkpt lat="42.4921967" lon="14.1443033"><ele>157.0</ele><time>2026-05-01T16:04:51.935Z</time></trkpt><trkpt lat="42.4923217" lon="14.1443517"><ele>150.75</ele><time>2026-05-01T16:04:52.934Z</time></trkpt><trkpt lat="42.492445" lon="14.1444067"><ele>144.5</ele><time>2026-05-01T16:04:53.934Z</time></trkpt><trkpt lat="42.4925583" lon="14.144465"><ele>138.25</ele><time>2026-05-01T16:04:54.934Z</time></trkpt><trkpt lat="42.4926717" lon="14.1445267"><ele>132.0</ele><time>2026-05-01T16:04:55.935Z</time></trkpt><trkpt lat="42.49277" lon="14.1445717"><ele>132.0</ele><time>2026-05-01T16:04:56.935Z</time></trkpt><trkpt lat="42.492865" lon="14.14462"><ele>132.0</ele><time>2026-05-01T16:04:57.935Z</time></trkpt><trkpt lat="42.49294" lon="14.144695"><ele>132.0</ele><time>2026-05-01T16:04:58.934Z</time></trkpt><trkpt lat="42.4930167" lon="14.1447983"><ele>132.0</ele><time>2026-05-01T16:04:59.934Z</time></trkpt><trkpt lat="42.49309" lon="14.1449167"><ele>132.0</ele><time>2026-05-01T16:05:00.935Z</time></trkpt><trkpt lat="42.493175" lon="14.1450633"><ele>133.0</ele><time>2026-05-01T16:05:01.934Z</time></trkpt><trkpt lat="42.4932683" lon="14.1451733"><ele>134.0</ele><time>2026-05-01T16:05:02.935Z</time></trkpt><trkpt lat="42.4933683" lon="14.1452583"><ele>135.0</ele><time>2026-05-01T16:05:03.935Z</time></trkpt><trkpt lat="42.493465" lon="14.14532"><ele>136.0</ele><time>2026-05-01T16:05:04.935Z</time></trkpt><trkpt lat="42.4935633" lon="14.1453433"><ele>137.0</ele><time>2026-05-01T16:05:05.935Z</time></trkpt><trkpt lat="42.4936533" lon="14.1453267"><ele>137.0</ele><time>2026-05-01T16:05:06.935Z</time></trkpt><trkpt lat="42.4937417" lon="14.1452617"><ele>137.0</ele><time>2026-05-01T16:05:07.935Z</time></trkpt><trkpt lat="42.49382" lon="14.1451717"><ele>137.0</ele><time>2026-05-01T16:05:08.935Z</time></trkpt><trkpt lat="42.4938767" lon="14.14506"><ele>137.0</ele><time>2026-05-01T16:05:09.935Z</time></trkpt><trkpt lat="42.4939217" lon="14.1449333"><ele>137.0</ele><time>2026-05-01T16:05:10.934Z</time></trkpt><trkpt lat="42.493965" lon="14.1448"><ele>132.25</ele><time>2026-05-01T16:05:11.935Z</time></trkpt><trkpt lat="42.4939983" lon="14.1446367"><ele>127.5</ele><time>2026-05-01T16:05:12.935Z</time></trkpt><trkpt lat="42.4940267" lon="14.144475"><ele>122.75</ele><time>2026-05-01T16:05:13.934Z</time></trkpt><trkpt lat="42.494065" lon="14.1443167"><ele>118.0</ele><time>2026-05-01T16:05:14.934Z</time></trkpt><trkpt lat="42.49412" lon="14.1441683"><ele>118.0</ele><time>2026-05-01T16:05:15.934Z</time></trkpt><trkpt lat="42.4941883" lon="14.14406"><ele>118.00000000000001</ele><time>2026-05-01T16:05:16.935Z</time></trkpt><trkpt lat="42.49427" lon="14.1439817"><ele>118.00000000000001</ele><time>2026-05-01T16:05:17.935Z</time></trkpt><trkpt lat="42.4943617" lon="14.143915"><ele>118.0</ele><time>2026-05-01T16:05:18.935Z</time></trkpt><trkpt lat="42.4944617" lon="14.1438733"><ele>118.0</ele><time>2026-05-01T16:05:19.935Z</time></trkpt><trkpt lat="42.49457" lon="14.14384"><ele>114.5</ele><time>2026-05-01T16:05:20.935Z</time></trkpt><trkpt lat="42.49469" lon="14.14382"><ele>111.0</ele><time>2026-05-01T16:05:21.935Z</time></trkpt><trkpt lat="42.494815" lon="14.1438067"><ele>107.5</ele><time>2026-05-01T16:05:22.935Z</time></trkpt><trkpt lat="42.494935" lon="14.1437817"><ele>104.0</ele><time>2026-05-01T16:05:23.935Z</time></trkpt><trkpt lat="42.4950633" lon="14.1437717"><ele>104.0</ele><time>2026-05-01T16:05:24.935Z</time></trkpt><trkpt lat="42.4951917" lon="14.14374"><ele>104.0</ele><time>2026-05-01T16:05:25.934Z</time></trkpt><trkpt lat="42.495315" lon="14.1437033"><ele>104.0</ele><time>2026-05-01T16:05:26.934Z</time></trkpt><trkpt lat="42.4954317" lon="14.1436683"><ele>104.0</ele><time>2026-05-01T16:05:27.935Z</time></trkpt><trkpt lat="42.4955433" lon="14.1436333"><ele>105.75</ele><time>2026-05-01T16:05:28.935Z</time></trkpt><trkpt lat="42.4956483" lon="14.14358"><ele>107.5</ele><time>2026-05-01T16:05:29.934Z</time></trkpt><trkpt lat="42.4957683" lon="14.1434917"><ele>109.25</ele><time>2026-05-01T16:05:30.935Z</time></trkpt><trkpt lat="42.4958817" lon="14.1433883"><ele>111.0</ele><time>2026-05-01T16:05:31.935Z</time></trkpt><trkpt lat="42.496" lon="14.1432733"><ele>108.75</ele><time>2026-05-01T16:05:32.935Z</time></trkpt><trkpt lat="42.4961233" lon="14.1431583"><ele>106.5</ele><time>2026-05-01T16:05:33.935Z</time></trkpt><trkpt lat="42.4962367" lon="14.143055"><ele>104.25</ele><time>2026-05-01T16:05:34.935Z</time></trkpt><trkpt lat="42.4963467" lon="14.142955"><ele>102.0</ele><time>2026-05-01T16:05:35.935Z</time></trkpt><trkpt lat="42.49646" lon="14.1428617"><ele>101.5</ele><time>2026-05-01T16:05:36.935Z</time></trkpt><trkpt lat="42.49657" lon="14.1427717"><ele>101.0</ele><time>2026-05-01T16:05:37.934Z</time></trkpt><trkpt lat="42.49668" lon="14.14268"><ele>100.5</ele><time>2026-05-01T16:05:38.935Z</time></trkpt><trkpt lat="42.4967917" lon="14.1425883"><ele>100.0</ele><time>2026-05-01T16:05:39.935Z</time></trkpt><trkpt lat="42.4969017" lon="14.1424817"><ele>96.25</ele><time>2026-05-01T16:05:40.935Z</time></trkpt><trkpt lat="42.4970083" lon="14.142375"><ele>92.5</ele><time>2026-05-01T16:05:41.935Z</time></trkpt><trkpt lat="42.497105" lon="14.1422617"><ele>88.75</ele><time>2026-05-01T16:05:42.935Z</time></trkpt><trkpt lat="42.497205" lon="14.1421517"><ele>85.0</ele><time>2026-05-01T16:05:43.935Z</time></trkpt><trkpt lat="42.4973033" lon="14.1420433"><ele>85.0</ele><time>2026-05-01T16:05:44.935Z</time></trkpt><trkpt lat="42.4973733" lon="14.1419633"><ele>85.0</ele><time>2026-05-01T16:05:45.935Z</time></trkpt><trkpt lat="42.4974817" lon="14.14191"><ele>85.0</ele><time>2026-05-01T16:05:47.934Z</time></trkpt><trkpt lat="42.4975883" lon="14.1419933"><ele>85.0</ele><time>2026-05-01T16:05:49.934Z</time></trkpt><trkpt lat="42.497615" lon="14.1420783"><ele>85.0</ele><time>2026-05-01T16:05:50.934Z</time></trkpt><trkpt lat="42.4976133" lon="14.1421817"><ele>85.0</ele><time>2026-05-01T16:05:51.935Z</time></trkpt><trkpt lat="42.4975617" lon="14.1423117"><ele>85.0</ele><time>2026-05-01T16:05:52.935Z</time></trkpt><trkpt lat="42.4974883" lon="14.1424533"><ele>85.0</ele><time>2026-05-01T16:05:53.934Z</time></trkpt><trkpt lat="42.497405" lon="14.142595"><ele>85.0</ele><time>2026-05-01T16:05:54.934Z</time></trkpt><trkpt lat="42.4973233" lon="14.142735"><ele>85.25</ele><time>2026-05-01T16:05:55.934Z</time></trkpt><trkpt lat="42.497245" lon="14.1428767"><ele>85.5</ele><time>2026-05-01T16:05:56.935Z</time></trkpt><trkpt lat="42.4971583" lon="14.1430233"><ele>85.75</ele><time>2026-05-01T16:05:57.935Z</time></trkpt><trkpt lat="42.4970717" lon="14.14317"><ele>86.0</ele><time>2026-05-01T16:05:58.934Z</time></trkpt><trkpt lat="42.4969967" lon="14.143315"><ele>88.5</ele><time>2026-05-01T16:05:59.935Z</time></trkpt><trkpt lat="42.4969183" lon="14.1434567"><ele>91.0</ele><time>2026-05-01T16:06:00.935Z</time></trkpt><trkpt lat="42.4968367" lon="14.1435917"><ele>93.5</ele><time>2026-05-01T16:06:01.935Z</time></trkpt><trkpt lat="42.4967583" lon="14.1437133"><ele>96.0</ele><time>2026-05-01T16:06:02.935Z</time></trkpt><trkpt lat="42.4966817" lon="14.1438333"><ele>96.0</ele><time>2026-05-01T16:06:03.935Z</time></trkpt><trkpt lat="42.4966067" lon="14.1439417"><ele>96.0</ele><time>2026-05-01T16:06:04.935Z</time></trkpt><trkpt lat="42.4965333" lon="14.14405"><ele>96.0</ele><time>2026-05-01T16:06:05.935Z</time></trkpt><trkpt lat="42.496475" lon="14.144165"><ele>96.0</ele><time>2026-05-01T16:06:06.935Z</time></trkpt><trkpt lat="42.496435" lon="14.144295"><ele>96.0</ele><time>2026-05-01T16:06:07.935Z</time></trkpt><trkpt lat="42.4964167" lon="14.1444367"><ele>93.19999999999999</ele><time>2026-05-01T16:06:08.935Z</time></trkpt><trkpt lat="42.4964183" lon="14.1445833"><ele>90.39999999999999</ele><time>2026-05-01T16:06:09.934Z</time></trkpt><trkpt lat="42.4964217" lon="14.1447217"><ele>87.6</ele><time>2026-05-01T16:06:10.935Z</time></trkpt><trkpt lat="42.4964283" lon="14.1448533"><ele>84.8</ele><time>2026-05-01T16:06:11.935Z</time></trkpt><trkpt lat="42.4964067" lon="14.144985"><ele>82.0</ele><time>2026-05-01T16:06:12.935Z</time></trkpt><trkpt lat="42.49636" lon="14.145115"><ele>84.0</ele><time>2026-05-01T16:06:13.935Z</time></trkpt><trkpt lat="42.4963083" lon="14.1452317"><ele>86.0</ele><time>2026-05-01T16:06:14.934Z</time></trkpt><trkpt lat="42.4962467" lon="14.1453533"><ele>88.0</ele><time>2026-05-01T16:06:15.935Z</time></trkpt><trkpt lat="42.4961967" lon="14.1454617"><ele>90.0</ele><time>2026-05-01T16:06:16.935Z</time></trkpt><trkpt lat="42.4961767" lon="14.1455867"><ele>92.0</ele><time>2026-05-01T16:06:17.935Z</time></trkpt><trkpt lat="42.4961733" lon="14.14571"><ele>90.33333333333334</ele><time>2026-05-01T16:06:18.935Z</time></trkpt><trkpt lat="42.4961867" lon="14.145825"><ele>88.66666666666667</ele><time>2026-05-01T16:06:19.935Z</time></trkpt><trkpt lat="42.496245" lon="14.1459183"><ele>87.0</ele><time>2026-05-01T16:06:20.935Z</time></trkpt><trkpt lat="42.4963233" lon="14.1459883"><ele>85.33333333333333</ele><time>2026-05-01T16:06:21.934Z</time></trkpt><trkpt lat="42.496415" lon="14.1460233"><ele>83.66666666666666</ele><time>2026-05-01T16:06:22.935Z</time></trkpt><trkpt lat="42.4964967" lon="14.1460083"><ele>82.0</ele><time>2026-05-01T16:06:23.935Z</time></trkpt><trkpt lat="42.49658" lon="14.1459583"><ele>80.0</ele><time>2026-05-01T16:06:24.935Z</time></trkpt><trkpt lat="42.49665" lon="14.1458767"><ele>78.0</ele><time>2026-05-01T16:06:25.935Z</time></trkpt><trkpt lat="42.4967067" lon="14.1457667"><ele>76.0</ele><time>2026-05-01T16:06:26.935Z</time></trkpt><trkpt lat="42.4967233" lon="14.1456167"><ele>74.0</ele><time>2026-05-01T16:06:27.934Z</time></trkpt><trkpt lat="42.4967367" lon="14.1454517"><ele>72.0</ele><time>2026-05-01T16:06:28.935Z</time></trkpt><trkpt lat="42.4967467" lon="14.1452967"><ele>71.5</ele><time>2026-05-01T16:06:29.935Z</time></trkpt><trkpt lat="42.496775" lon="14.1451567"><ele>71.0</ele><time>2026-05-01T16:06:30.935Z</time></trkpt><trkpt lat="42.496815" lon="14.1450167"><ele>70.5</ele><time>2026-05-01T16:06:31.935Z</time></trkpt><trkpt lat="42.4968867" lon="14.1448817"><ele>70.0</ele><time>2026-05-01T16:06:32.935Z</time></trkpt><trkpt lat="42.496965" lon="14.1447667"><ele>67.5</ele><time>2026-05-01T16:06:33.935Z</time></trkpt><trkpt lat="42.4970517" lon="14.14466"><ele>65.0</ele><time>2026-05-01T16:06:34.934Z</time></trkpt><trkpt lat="42.4971417" lon="14.1445717"><ele>62.5</ele><time>2026-05-01T16:06:35.935Z</time></trkpt><trkpt lat="42.497245" lon="14.1444933"><ele>60.0</ele><time>2026-05-01T16:06:36.935Z</time></trkpt><trkpt lat="42.4973517" lon="14.1444233"><ele>60.0</ele><time>2026-05-01T16:06:37.935Z</time></trkpt><trkpt lat="42.497455" lon="14.1443633"><ele>60.0</ele><time>2026-05-01T16:06:38.935Z</time></trkpt><trkpt lat="42.49755" lon="14.14428"><ele>60.0</ele><time>2026-05-01T16:06:39.935Z</time></trkpt><trkpt lat="42.497645" lon="14.144185"><ele>60.0</ele><time>2026-05-01T16:06:40.935Z</time></trkpt><trkpt lat="42.4977433" lon="14.144065"><ele>57.75</ele><time>2026-05-01T16:06:41.934Z</time></trkpt><trkpt lat="42.4978383" lon="14.1439233"><ele>55.5</ele><time>2026-05-01T16:06:42.935Z</time></trkpt><trkpt lat="42.49793" lon="14.1437767"><ele>53.25</ele><time>2026-05-01T16:06:43.935Z</time></trkpt><trkpt lat="42.4980133" lon="14.14366"><ele>51.0</ele><time>2026-05-01T16:06:44.935Z</time></trkpt><trkpt lat="42.498095" lon="14.14354"><ele>51.0</ele><time>2026-05-01T16:06:45.935Z</time></trkpt><trkpt lat="42.49817" lon="14.143415"><ele>51.0</ele><time>2026-05-01T16:06:46.934Z</time></trkpt><trkpt lat="42.4982433" lon="14.1432933"><ele>51.0</ele><time>2026-05-01T16:06:47.934Z</time></trkpt><trkpt lat="42.4983117" lon="14.1431783"><ele>51.0</ele><time>2026-05-01T16:06:48.935Z</time></trkpt><trkpt lat="42.4983733" lon="14.143075"><ele>51.0</ele><time>2026-05-01T16:06:49.934Z</time></trkpt><trkpt lat="42.49843" lon="14.1429783"><ele>49.0</ele><time>2026-05-01T16:06:50.935Z</time></trkpt><trkpt lat="42.49848" lon="14.142895"><ele>47.0</ele><time>2026-05-01T16:06:51.935Z</time></trkpt><trkpt lat="42.498545" lon="14.1427767"><ele>45.0</ele><time>2026-05-01T16:06:53.935Z</time></trkpt><trkpt lat="42.49859" lon="14.1427033"><ele>43.0</ele><time>2026-05-01T16:06:55.935Z</time></trkpt><trkpt lat="42.49865" lon="14.1426667"><ele>41.0</ele><time>2026-05-01T16:07:00.934Z</time></trkpt><trkpt lat="42.49871" lon="14.142605"><ele>39.0</ele><time>2026-05-01T16:07:17.935Z</time></trkpt><trkpt lat="42.4987633" lon="14.142455"><ele>39.8</ele><time>2026-05-01T16:07:19.935Z</time></trkpt><trkpt lat="42.498785" lon="14.142345"><ele>40.599999999999994</ele><time>2026-05-01T16:07:20.935Z</time></trkpt><trkpt lat="42.49882" lon="14.142215"><ele>41.4</ele><time>2026-05-01T16:07:21.935Z</time></trkpt><trkpt lat="42.498865" lon="14.1420833"><ele>42.199999999999996</ele><time>2026-05-01T16:07:22.935Z</time></trkpt><trkpt lat="42.49892" lon="14.1419433"><ele>43.0</ele><time>2026-05-01T16:07:23.934Z</time></trkpt><trkpt lat="42.4989833" lon="14.141805"><ele>43.0</ele><time>2026-05-01T16:07:24.934Z</time></trkpt><trkpt lat="42.499055" lon="14.1416683"><ele>43.0</ele><time>2026-05-01T16:07:25.935Z</time></trkpt><trkpt lat="42.4991333" lon="14.1415417"><ele>43.0</ele><time>2026-05-01T16:07:26.935Z</time></trkpt><trkpt lat="42.499215" lon="14.1414217"><ele>43.0</ele><time>2026-05-01T16:07:27.935Z</time></trkpt><trkpt lat="42.4993" lon="14.1413117"><ele>45.25</ele><time>2026-05-01T16:07:28.935Z</time></trkpt><trkpt lat="42.49938" lon="14.1412133"><ele>47.5</ele><time>2026-05-01T16:07:29.934Z</time></trkpt><trkpt lat="42.4994633" lon="14.1411183"><ele>49.75</ele><time>2026-05-01T16:07:30.935Z</time></trkpt><trkpt lat="42.4995567" lon="14.1410233"><ele>52.0</ele><time>2026-05-01T16:07:31.935Z</time></trkpt><trkpt lat="42.4996533" lon="14.1409283"><ele>48.75</ele><time>2026-05-01T16:07:32.935Z</time></trkpt><trkpt lat="42.4997583" lon="14.1408283"><ele>45.5</ele><time>2026-05-01T16:07:33.935Z</time></trkpt><trkpt lat="42.4998633" lon="14.1407083"><ele>42.25</ele><time>2026-05-01T16:07:34.934Z</time></trkpt><trkpt lat="42.4999567" lon="14.1405833"><ele>39.0</ele><time>2026-05-01T16:07:35.935Z</time></trkpt><trkpt lat="42.50005" lon="14.1404617"><ele>39.0</ele><time>2026-05-01T16:07:36.935Z</time></trkpt><trkpt lat="42.5001367" lon="14.1403367"><ele>39.0</ele><time>2026-05-01T16:07:37.934Z</time></trkpt><trkpt lat="42.5002183" lon="14.1402117"><ele>39.0</ele><time>2026-05-01T16:07:38.933Z</time></trkpt><trkpt lat="42.5002983" lon="14.1400883"><ele>39.0</ele><time>2026-05-01T16:07:39.934Z</time></trkpt><trkpt lat="42.50037" lon="14.1399617"><ele>36.4</ele><time>2026-05-01T16:07:40.934Z</time></trkpt><trkpt lat="42.500445" lon="14.139835"><ele>33.8</ele><time>2026-05-01T16:07:41.934Z</time></trkpt><trkpt lat="42.5005183" lon="14.1397217"><ele>31.200000000000003</ele><time>2026-05-01T16:07:42.934Z</time></trkpt><trkpt lat="42.5005883" lon="14.13962"><ele>28.6</ele><time>2026-05-01T16:07:43.934Z</time></trkpt><trkpt lat="42.5006517" lon="14.1395117"><ele>26.0</ele><time>2026-05-01T16:07:44.934Z</time></trkpt><trkpt lat="42.500715" lon="14.1393883"><ele>26.0</ele><time>2026-05-01T16:07:45.934Z</time></trkpt><trkpt lat="42.5007733" lon="14.1392767"><ele>26.0</ele><time>2026-05-01T16:07:46.934Z</time></trkpt><trkpt lat="42.500825" lon="14.1391583"><ele>26.0</ele><time>2026-05-01T16:07:47.933Z</time></trkpt><trkpt lat="42.5008733" lon="14.1390367"><ele>26.0</ele><time>2026-05-01T16:07:48.933Z</time></trkpt><trkpt lat="42.5009317" lon="14.1389217"><ele>26.0</ele><time>2026-05-01T16:07:49.934Z</time></trkpt><trkpt lat="42.5009867" lon="14.1388033"><ele>25.166666666666664</ele><time>2026-05-01T16:07:50.933Z</time></trkpt><trkpt lat="42.5010433" lon="14.13869"><ele>24.333333333333332</ele><time>2026-05-01T16:07:51.934Z</time></trkpt><trkpt lat="42.50109" lon="14.1385883"><ele>23.5</ele><time>2026-05-01T16:07:52.934Z</time></trkpt><trkpt lat="42.501125" lon="14.13851"><ele>22.666666666666664</ele><time>2026-05-01T16:07:53.933Z</time></trkpt><trkpt lat="42.501165" lon="14.1384317"><ele>21.833333333333332</ele><time>2026-05-01T16:07:55.934Z</time></trkpt><trkpt lat="42.5011917" lon="14.1383367"><ele>21.0</ele><time>2026-05-01T16:07:58.934Z</time></trkpt><trkpt lat="42.5012233" lon="14.1382533"><ele>20.0</ele><time>2026-05-01T16:08:01.934Z</time></trkpt><trkpt lat="42.50126" lon="14.138085"><ele>19.0</ele><time>2026-05-01T16:08:04.934Z</time></trkpt><trkpt lat="42.5012817" lon="14.1379667"><ele>18.0</ele><time>2026-05-01T16:08:05.933Z</time></trkpt><trkpt lat="42.501305" lon="14.1378483"><ele>17.0</ele><time>2026-05-01T16:08:06.933Z</time></trkpt><trkpt lat="42.5013333" lon="14.1377383"><ele>16.0</ele><time>2026-05-01T16:08:07.934Z</time></trkpt><trkpt lat="42.5013617" lon="14.137625"><ele>15.999999999999998</ele><time>2026-05-01T16:08:08.934Z</time></trkpt><trkpt lat="42.5013917" lon="14.1375083"><ele>16.0</ele><time>2026-05-01T16:08:09.934Z</time></trkpt><trkpt lat="42.5014217" lon="14.1374"><ele>16.0</ele><time>2026-05-01T16:08:10.934Z</time></trkpt><trkpt lat="42.5014517" lon="14.1372833"><ele>16.0</ele><time>2026-05-01T16:08:11.933Z</time></trkpt><trkpt lat="42.50148" lon="14.1371767"><ele>15.999999999999998</ele><time>2026-05-01T16:08:12.933Z</time></trkpt><trkpt lat="42.501505" lon="14.1370817"><ele>16.0</ele><time>2026-05-01T16:08:13.934Z</time></trkpt><trkpt lat="42.5015267" lon="14.13699"><ele>15.666666666666666</ele><time>2026-05-01T16:08:14.934Z</time></trkpt><trkpt lat="42.50155" lon="14.1369033"><ele>15.333333333333332</ele><time>2026-05-01T16:08:15.934Z</time></trkpt><trkpt lat="42.501595" lon="14.1367717"><ele>15.0</ele><time>2026-05-01T16:08:17.933Z</time></trkpt><trkpt lat="42.5016533" lon="14.1367"><ele>14.666666666666668</ele><time>2026-05-01T16:08:20.933Z</time></trkpt><trkpt lat="42.5016867" lon="14.1367967"><ele>14.333333333333334</ele><time>2026-05-01T16:08:23.934Z</time></trkpt><trkpt lat="42.50169" lon="14.1368983"><ele>14.0</ele><time>2026-05-01T16:08:26.934Z</time></trkpt><trkpt lat="42.5016833" lon="14.1369967"><ele>14.000000000000002</ele><time>2026-05-01T16:08:29.934Z</time></trkpt><trkpt lat="42.501635" lon="14.137075"><ele>14.0</ele><time>2026-05-01T16:08:31.933Z</time></trkpt><trkpt lat="42.5016133" lon="14.13716"><ele>14.0</ele><time>2026-05-01T16:08:33.933Z</time></trkpt><trkpt lat="42.5016533" lon="14.13727"><ele>14.0</ele><time>2026-05-01T16:08:35.933Z</time></trkpt><trkpt lat="42.5017083" lon="14.1373417"><ele>14.000000000000002</ele><time>2026-05-01T16:08:37.934Z</time></trkpt><trkpt lat="42.5017933" lon="14.1373283"><ele>14.0</ele><time>2026-05-01T16:08:40.934Z</time></trkpt><trkpt lat="42.50183" lon="14.1372433"><ele>14.0</ele><time>2026-05-01T16:08:43.934Z</time></trkpt><trkpt lat="42.5017533" lon="14.1370317"><ele>13.999999999999998</ele><time>2026-05-01T16:12:54.933Z</time></trkpt><trkpt lat="42.5017017" lon="14.13694"><ele>13.999999999999998</ele><time>2026-05-01T16:12:56.932Z</time></trkpt><trkpt lat="42.5016583" lon="14.1368633"><ele>14.0</ele><time>2026-05-01T16:12:58.932Z</time></trkpt><trkpt lat="42.5016067" lon="14.1367567"><ele>14.0</ele><time>2026-05-01T16:13:10.933Z</time></trkpt><trkpt lat="42.5016267" lon="14.1366117"><ele>14.000000000000002</ele><time>2026-05-01T16:13:12.933Z</time></trkpt><trkpt lat="42.5016517" lon="14.1365217"><ele>14.0</ele><time>2026-05-01T16:13:13.933Z</time></trkpt><trkpt lat="42.501675" lon="14.1364367"><ele>14.0</ele><time>2026-05-01T16:13:14.933Z</time></trkpt><trkpt lat="42.5016967" lon="14.1363467"><ele>14.0</ele><time>2026-05-01T16:13:15.933Z</time></trkpt><trkpt lat="42.5017267" lon="14.136245"><ele>14.000000000000002</ele><time>2026-05-01T16:13:16.933Z</time></trkpt><trkpt lat="42.5017567" lon="14.136135"><ele>14.0</ele><time>2026-05-01T16:13:17.933Z</time></trkpt><trkpt lat="42.50179" lon="14.136015"><ele>14.000000000000002</ele><time>2026-05-01T16:13:18.932Z</time></trkpt><trkpt lat="42.501825" lon="14.135895"><ele>14.0</ele><time>2026-05-01T16:13:19.933Z</time></trkpt><trkpt lat="42.5018583" lon="14.1357767"><ele>14.0</ele><time>2026-05-01T16:13:20.932Z</time></trkpt><trkpt lat="42.50188" lon="14.135665"><ele>14.0</ele><time>2026-05-01T16:13:21.933Z</time></trkpt><trkpt lat="42.5019033" lon="14.1355633"><ele>14.000000000000002</ele><time>2026-05-01T16:13:22.933Z</time></trkpt><trkpt lat="42.5019283" lon="14.13546"><ele>14.0</ele><time>2026-05-01T16:13:23.933Z</time></trkpt><trkpt lat="42.5019533" lon="14.135355"><ele>14.000000000000002</ele><time>2026-05-01T16:13:24.933Z</time></trkpt><trkpt lat="42.5019817" lon="14.1352567"><ele>14.0</ele><time>2026-05-01T16:13:25.933Z</time></trkpt><trkpt lat="42.5020033" lon="14.1351617"><ele>14.0</ele><time>2026-05-01T16:13:26.933Z</time></trkpt><trkpt lat="42.5020317" lon="14.13508"><ele>14.0</ele><time>2026-05-01T16:13:27.933Z</time></trkpt><trkpt lat="42.5020717" lon="14.13494"><ele>14.000000000000002</ele><time>2026-05-01T16:13:29.933Z</time></trkpt><trkpt lat="42.5021217" lon="14.1348283"><ele>14.0</ele><time>2026-05-01T16:13:31.933Z</time></trkpt><trkpt lat="42.5021633" lon="14.1347617"><ele>14.0</ele><time>2026-05-01T16:13:33.933Z</time></trkpt><trkpt lat="42.5022533" lon="14.1347017"><ele>13.999999999999998</ele><time>2026-05-01T16:13:37.933Z</time></trkpt><trkpt lat="42.5023633" lon="14.1346983"><ele>13.999999999999998</ele><time>2026-05-01T16:13:39.933Z</time></trkpt><trkpt lat="42.5024683" lon="14.1347367"><ele>14.0</ele><time>2026-05-01T16:13:41.932Z</time></trkpt><trkpt lat="42.5025633" lon="14.1348283"><ele>14.0</ele><time>2026-05-01T16:13:43.933Z</time></trkpt><trkpt lat="42.502615" lon="14.1348783"><ele>14.0</ele><time>2026-05-01T16:13:44.932Z</time></trkpt><trkpt lat="42.5027017" lon="14.1349717"><ele>13.999999999999998</ele><time>2026-05-01T16:13:46.932Z</time></trkpt><trkpt lat="42.50277" lon="14.1350517"><ele>13.999999999999998</ele><time>2026-05-01T16:13:48.933Z</time></trkpt><trkpt lat="42.5028433" lon="14.1351383"><ele>14.0</ele><time>2026-05-01T16:13:50.933Z</time></trkpt><trkpt lat="42.5029133" lon="14.1352083"><ele>14.0</ele><time>2026-05-01T16:13:52.933Z</time></trkpt><trkpt lat="42.5029783" lon="14.13527"><ele>13.833333333333334</ele><time>2026-05-01T16:13:56.933Z</time></trkpt><trkpt lat="42.503055" lon="14.1352767"><ele>13.666666666666668</ele><time>2026-05-01T16:13:59.933Z</time></trkpt><trkpt lat="42.50311" lon="14.1351917"><ele>13.5</ele><time>2026-05-01T16:14:01.933Z</time></trkpt><trkpt lat="42.5031433" lon="14.135105"><ele>13.333333333333332</ele><time>2026-05-01T16:14:02.933Z</time></trkpt><trkpt lat="42.5031733" lon="14.135015"><ele>13.166666666666666</ele><time>2026-05-01T16:14:03.933Z</time></trkpt><trkpt lat="42.5032067" lon="14.134915"><ele>13.0</ele><time>2026-05-01T16:14:04.933Z</time></trkpt><trkpt lat="42.5032417" lon="14.13481"><ele>13.0</ele><time>2026-05-01T16:14:05.932Z</time></trkpt><trkpt lat="42.5032717" lon="14.134695"><ele>13.0</ele><time>2026-05-01T16:14:06.932Z</time></trkpt><trkpt lat="42.503305" lon="14.134575"><ele>13.0</ele><time>2026-05-01T16:14:07.933Z</time></trkpt><trkpt lat="42.5033417" lon="14.1344583"><ele>13.0</ele><time>2026-05-01T16:14:08.933Z</time></trkpt><trkpt lat="42.5033667" lon="14.1343317"><ele>13.0</ele><time>2026-05-01T16:14:09.932Z</time></trkpt><trkpt lat="42.503395" lon="14.1342033"><ele>12.999999999999998</ele><time>2026-05-01T16:14:10.933Z</time></trkpt><trkpt lat="42.50342" lon="14.1340883"><ele>13.0</ele><time>2026-05-01T16:14:11.933Z</time></trkpt><trkpt lat="42.5034517" lon="14.1339667"><ele>13.0</ele><time>2026-05-01T16:14:12.932Z</time></trkpt><trkpt lat="42.5034883" lon="14.1338667"><ele>13.0</ele><time>2026-05-01T16:14:13.932Z</time></trkpt><trkpt lat="42.5035267" lon="14.1337833"><ele>12.999999999999998</ele><time>2026-05-01T16:14:14.933Z</time></trkpt><trkpt lat="42.5035767" lon="14.133695"><ele>13.0</ele><time>2026-05-01T16:14:15.932Z</time></trkpt><trkpt lat="42.5036433" lon="14.1336133"><ele>13.0</ele><time>2026-05-01T16:14:16.932Z</time></trkpt><trkpt lat="42.5037233" lon="14.1335317"><ele>13.0</ele><time>2026-05-01T16:14:17.932Z</time></trkpt><trkpt lat="42.5038167" lon="14.1334417"><ele>13.0</ele><time>2026-05-01T16:14:18.931Z</time></trkpt><trkpt lat="42.5039133" lon="14.1333483"><ele>13.0</ele><time>2026-05-01T16:14:19.932Z</time></trkpt><trkpt lat="42.5040133" lon="14.133255"><ele>13.0</ele><time>2026-05-01T16:14:20.932Z</time></trkpt><trkpt lat="42.5041133" lon="14.1331517"><ele>13.0</ele><time>2026-05-01T16:14:21.932Z</time></trkpt><trkpt lat="42.5042233" lon="14.1330483"><ele>13.0</ele><time>2026-05-01T16:14:22.932Z</time></trkpt><trkpt lat="42.5043267" lon="14.1329483"><ele>13.0</ele><time>2026-05-01T16:14:23.932Z</time></trkpt><trkpt lat="42.5044233" lon="14.13285"><ele>13.0</ele><time>2026-05-01T16:14:24.931Z</time></trkpt><trkpt lat="42.5045183" lon="14.1327667"><ele>13.0</ele><time>2026-05-01T16:14:25.932Z</time></trkpt><trkpt lat="42.5046117" lon="14.132675"><ele>13.0</ele><time>2026-05-01T16:14:26.931Z</time></trkpt><trkpt lat="42.50471" lon="14.1325867"><ele>13.0</ele><time>2026-05-01T16:14:27.931Z</time></trkpt><trkpt lat="42.5048017" lon="14.1325033"><ele>12.200000000000001</ele><time>2026-05-01T16:14:28.932Z</time></trkpt><trkpt lat="42.504895" lon="14.1324217"><ele>11.4</ele><time>2026-05-01T16:14:29.932Z</time></trkpt><trkpt lat="42.5049783" lon="14.1323317"><ele>10.600000000000001</ele><time>2026-05-01T16:14:30.932Z</time></trkpt><trkpt lat="42.5050733" lon="14.1322533"><ele>9.8</ele><time>2026-05-01T16:14:31.931Z</time></trkpt><trkpt lat="42.5051667" lon="14.1321667"><ele>9.0</ele><time>2026-05-01T16:14:32.932Z</time></trkpt><trkpt lat="42.5052617" lon="14.1320767"><ele>9.0</ele><time>2026-05-01T16:14:33.932Z</time></trkpt><trkpt lat="42.505355" lon="14.131985"><ele>9.0</ele><time>2026-05-01T16:14:34.932Z</time></trkpt><trkpt lat="42.505455" lon="14.1318933"><ele>9.0</ele><time>2026-05-01T16:14:35.931Z</time></trkpt><trkpt lat="42.50555" lon="14.1318117"><ele>9.0</ele><time>2026-05-01T16:14:36.931Z</time></trkpt><trkpt lat="42.5056433" lon="14.13173"><ele>9.0</ele><time>2026-05-01T16:14:37.932Z</time></trkpt><trkpt lat="42.505735" lon="14.131645"><ele>9.0</ele><time>2026-05-01T16:14:38.931Z</time></trkpt><trkpt lat="42.5058283" lon="14.1315583"><ele>9.0</ele><time>2026-05-01T16:14:39.931Z</time></trkpt><trkpt lat="42.505915" lon="14.131465"><ele>9.0</ele><time>2026-05-01T16:14:40.931Z</time></trkpt><trkpt lat="42.5060067" lon="14.1313733"><ele>9.0</ele><time>2026-05-01T16:14:41.931Z</time></trkpt><trkpt lat="42.5061033" lon="14.1312867"><ele>9.0</ele><time>2026-05-01T16:14:42.932Z</time></trkpt><trkpt lat="42.5062033" lon="14.131205"><ele>9.0</ele><time>2026-05-01T16:14:43.932Z</time></trkpt><trkpt lat="42.5063067" lon="14.131135"><ele>9.0</ele><time>2026-05-01T16:14:44.932Z</time></trkpt><trkpt lat="42.506415" lon="14.1310633"><ele>9.0</ele><time>2026-05-01T16:14:45.931Z</time></trkpt><trkpt lat="42.506525" lon="14.131"><ele>9.0</ele><time>2026-05-01T16:14:46.932Z</time></trkpt><trkpt lat="42.5066367" lon="14.1309367"><ele>9.0</ele><time>2026-05-01T16:14:47.932Z</time></trkpt><trkpt lat="42.5067467" lon="14.1308833"><ele>9.0</ele><time>2026-05-01T16:14:48.932Z</time></trkpt><trkpt lat="42.5068533" lon="14.1308217"><ele>9.0</ele><time>2026-05-01T16:14:49.932Z</time></trkpt><trkpt lat="42.5069683" lon="14.1307667"><ele>9.5</ele><time>2026-05-01T16:14:50.932Z</time></trkpt><trkpt lat="42.507095" lon="14.130725"><ele>10.0</ele><time>2026-05-01T16:14:51.932Z</time></trkpt><trkpt lat="42.50722" lon="14.1306883"><ele>10.5</ele><time>2026-05-01T16:14:52.931Z</time></trkpt><trkpt lat="42.5073433" lon="14.1306467"><ele>11.0</ele><time>2026-05-01T16:14:53.932Z</time></trkpt><trkpt lat="42.5074633" lon="14.1306033"><ele>11.25</ele><time>2026-05-01T16:14:54.931Z</time></trkpt><trkpt lat="42.5075767" lon="14.1305583"><ele>11.5</ele><time>2026-05-01T16:14:55.932Z</time></trkpt><trkpt lat="42.5076833" lon="14.13051"><ele>11.75</ele><time>2026-05-01T16:14:56.932Z</time></trkpt><trkpt lat="42.507795" lon="14.13045"><ele>12.0</ele><time>2026-05-01T16:14:57.931Z</time></trkpt><trkpt lat="42.507905" lon="14.1303733"><ele>12.0</ele><time>2026-05-01T16:14:58.932Z</time></trkpt><trkpt lat="42.5080133" lon="14.1302883"><ele>12.0</ele><time>2026-05-01T16:14:59.931Z</time></trkpt><trkpt lat="42.5081167" lon="14.1301933"><ele>12.0</ele><time>2026-05-01T16:15:00.932Z</time></trkpt><trkpt lat="42.5082167" lon="14.13011"><ele>12.0</ele><time>2026-05-01T16:15:01.932Z</time></trkpt><trkpt lat="42.50831" lon="14.1300367"><ele>12.0</ele><time>2026-05-01T16:15:02.932Z</time></trkpt><trkpt lat="42.5084033" lon="14.1299617"><ele>12.0</ele><time>2026-05-01T16:15:03.932Z</time></trkpt><trkpt lat="42.50849" lon="14.1298867"><ele>12.0</ele><time>2026-05-01T16:15:04.931Z</time></trkpt><trkpt lat="42.5085717" lon="14.1298133"><ele>12.0</ele><time>2026-05-01T16:15:05.932Z</time></trkpt><trkpt lat="42.50865" lon="14.1297617"><ele>12.0</ele><time>2026-05-01T16:15:06.931Z</time></trkpt><trkpt lat="42.5087333" lon="14.1297267"><ele>11.0</ele><time>2026-05-01T16:15:07.932Z</time></trkpt><trkpt lat="42.5088183" lon="14.12972"><ele>10.0</ele><time>2026-05-01T16:15:08.931Z</time></trkpt><trkpt lat="42.508895" lon="14.12974"><ele>9.0</ele><time>2026-05-01T16:15:09.931Z</time></trkpt><trkpt lat="42.5089717" lon="14.1297817"><ele>8.0</ele><time>2026-05-01T16:15:10.931Z</time></trkpt><trkpt lat="42.509055" lon="14.1298517"><ele>7.0</ele><time>2026-05-01T16:15:11.932Z</time></trkpt><trkpt lat="42.5091517" lon="14.1299683"><ele>7.0</ele><time>2026-05-01T16:15:12.932Z</time></trkpt><trkpt lat="42.5092517" lon="14.13011"><ele>7.0</ele><time>2026-05-01T16:15:13.932Z</time></trkpt><trkpt lat="42.509355" lon="14.1302483"><ele>7.0</ele><time>2026-05-01T16:15:14.932Z</time></trkpt><trkpt lat="42.5094583" lon="14.1304"><ele>7.0</ele><time>2026-05-01T16:15:15.932Z</time></trkpt><trkpt lat="42.5095717" lon="14.1305617"><ele>6.333333333333334</ele><time>2026-05-01T16:15:16.932Z</time></trkpt><trkpt lat="42.5096867" lon="14.1307267"><ele>5.666666666666667</ele><time>2026-05-01T16:15:17.932Z</time></trkpt><trkpt lat="42.5098033" lon="14.1309117"><ele>5.0</ele><time>2026-05-01T16:15:18.931Z</time></trkpt><trkpt lat="42.50992" lon="14.13108"><ele>5.0</ele><time>2026-05-01T16:15:19.932Z</time></trkpt><trkpt lat="42.510045" lon="14.131255"><ele>5.0</ele><time>2026-05-01T16:15:20.932Z</time></trkpt><trkpt lat="42.5101567" lon="14.1314317"><ele>5.0</ele><time>2026-05-01T16:15:21.932Z</time></trkpt><trkpt lat="42.5102667" lon="14.13162"><ele>5.333333333333334</ele><time>2026-05-01T16:15:22.932Z</time></trkpt><trkpt lat="42.5103617" lon="14.1318067"><ele>5.666666666666667</ele><time>2026-05-01T16:15:23.931Z</time></trkpt><trkpt lat="42.5104583" lon="14.1319933"><ele>6.0</ele><time>2026-05-01T16:15:24.931Z</time></trkpt><trkpt lat="42.5105483" lon="14.1321817"><ele>6.0</ele><time>2026-05-01T16:15:25.932Z</time></trkpt><trkpt lat="42.51064" lon="14.1323717"><ele>6.0</ele><time>2026-05-01T16:15:26.931Z</time></trkpt><trkpt lat="42.5107383" lon="14.13256"><ele>6.0</ele><time>2026-05-01T16:15:27.932Z</time></trkpt><trkpt lat="42.510835" lon="14.13275"><ele>6.0</ele><time>2026-05-01T16:15:28.932Z</time></trkpt><trkpt lat="42.5109317" lon="14.1329317"><ele>6.0</ele><time>2026-05-01T16:15:29.932Z</time></trkpt><trkpt lat="42.5110283" lon="14.1331"><ele>6.0</ele><time>2026-05-01T16:15:30.932Z</time></trkpt><trkpt lat="42.5111383" lon="14.1332583"><ele>5.666666666666667</ele><time>2026-05-01T16:15:31.931Z</time></trkpt><trkpt lat="42.5112417" lon="14.1334233"><ele>5.333333333333334</ele><time>2026-05-01T16:15:32.932Z</time></trkpt><trkpt lat="42.5113333" lon="14.1336017"><ele>5.0</ele><time>2026-05-01T16:15:33.932Z</time></trkpt><trkpt lat="42.5114183" lon="14.1337917"><ele>5.0</ele><time>2026-05-01T16:15:34.932Z</time></trkpt><trkpt lat="42.5115033" lon="14.133985"><ele>5.0</ele><time>2026-05-01T16:15:35.932Z</time></trkpt><trkpt lat="42.511595" lon="14.13415"><ele>5.0</ele><time>2026-05-01T16:15:36.932Z</time></trkpt><trkpt lat="42.5117017" lon="14.1342983"><ele>5.0</ele><time>2026-05-01T16:15:37.932Z</time></trkpt><trkpt lat="42.5118233" lon="14.1344333"><ele>5.0</ele><time>2026-05-01T16:15:38.932Z</time></trkpt><trkpt lat="42.5119633" lon="14.1345567"><ele>5.0</ele><time>2026-05-01T16:15:39.932Z</time></trkpt><trkpt lat="42.5121133" lon="14.1346617"><ele>4.333333333333334</ele><time>2026-05-01T16:15:40.932Z</time></trkpt><trkpt lat="42.5122583" lon="14.13475"><ele>3.666666666666667</ele><time>2026-05-01T16:15:41.932Z</time></trkpt><trkpt lat="42.5124033" lon="14.134835"><ele>3.0</ele><time>2026-05-01T16:15:42.932Z</time></trkpt><trkpt lat="42.5125383" lon="14.1349267"><ele>3.0</ele><time>2026-05-01T16:15:43.932Z</time></trkpt><trkpt lat="42.5126767" lon="14.1350217"><ele>3.0</ele><time>2026-05-01T16:15:44.932Z</time></trkpt><trkpt lat="42.5127967" lon="14.1351333"><ele>3.0</ele><time>2026-05-01T16:15:45.932Z</time></trkpt><trkpt lat="42.5129067" lon="14.1352583"><ele>3.0</ele><time>2026-05-01T16:15:46.931Z</time></trkpt><trkpt lat="42.5130067" lon="14.13541"><ele>3.0</ele><time>2026-05-01T16:15:47.932Z</time></trkpt><trkpt lat="42.5130967" lon="14.135565"><ele>3.0</ele><time>2026-05-01T16:15:48.932Z</time></trkpt><trkpt lat="42.5131783" lon="14.1357333"><ele>3.0</ele><time>2026-05-01T16:15:49.931Z</time></trkpt><trkpt lat="42.5132433" lon="14.1359017"><ele>3.0</ele><time>2026-05-01T16:15:50.932Z</time></trkpt><trkpt lat="42.513295" lon="14.1360667"><ele>3.0</ele><time>2026-05-01T16:15:51.931Z</time></trkpt><trkpt lat="42.513335" lon="14.1362433"><ele>3.0</ele><time>2026-05-01T16:15:52.932Z</time></trkpt><trkpt lat="42.5133683" lon="14.136435"><ele>3.0</ele><time>2026-05-01T16:15:53.932Z</time></trkpt><trkpt lat="42.5134083" lon="14.1366083"><ele>3.0</ele><time>2026-05-01T16:15:54.932Z</time></trkpt><trkpt lat="42.513455" lon="14.1367733"><ele>3.2</ele><time>2026-05-01T16:15:55.932Z</time></trkpt><trkpt lat="42.5135" lon="14.1369317"><ele>3.4</ele><time>2026-05-01T16:15:56.932Z</time></trkpt><trkpt lat="42.5135433" lon="14.1370783"><ele>3.6000000000000005</ele><time>2026-05-01T16:15:57.932Z</time></trkpt><trkpt lat="42.51359" lon="14.137195"><ele>3.8000000000000003</ele><time>2026-05-01T16:15:58.932Z</time></trkpt><trkpt lat="42.51363" lon="14.137295"><ele>4.0</ele><time>2026-05-01T16:15:59.932Z</time></trkpt><trkpt lat="42.5136683" lon="14.1373683"><ele>4.4</ele><time>2026-05-01T16:16:00.932Z</time></trkpt><trkpt lat="42.5137117" lon="14.1375117"><ele>4.800000000000001</ele><time>2026-05-01T16:16:02.932Z</time></trkpt><trkpt lat="42.513725" lon="14.13761"><ele>5.199999999999999</ele><time>2026-05-01T16:16:03.932Z</time></trkpt><trkpt lat="42.5137267" lon="14.1377283"><ele>5.6</ele><time>2026-05-01T16:16:04.931Z</time></trkpt><trkpt lat="42.513705" lon="14.1378417"><ele>6.0</ele><time>2026-05-01T16:16:05.932Z</time></trkpt><trkpt lat="42.513665" lon="14.1379583"><ele>6.0</ele><time>2026-05-01T16:16:06.932Z</time></trkpt><trkpt lat="42.5136183" lon="14.1380767"><ele>6.0</ele><time>2026-05-01T16:16:07.932Z</time></trkpt><trkpt lat="42.5135767" lon="14.138195"><ele>6.0</ele><time>2026-05-01T16:16:08.932Z</time></trkpt><trkpt lat="42.5135283" lon="14.1383167"><ele>6.0</ele><time>2026-05-01T16:16:09.931Z</time></trkpt><trkpt lat="42.5134717" lon="14.1384367"><ele>6.0</ele><time>2026-05-01T16:16:10.932Z</time></trkpt><trkpt lat="42.5134217" lon="14.1385667"><ele>5.8</ele><time>2026-05-01T16:16:11.931Z</time></trkpt><trkpt lat="42.5133717" lon="14.1387017"><ele>5.6</ele><time>2026-05-01T16:16:12.932Z</time></trkpt><trkpt lat="42.513325" lon="14.1388283"><ele>5.4</ele><time>2026-05-01T16:16:13.932Z</time></trkpt><trkpt lat="42.5132783" lon="14.138955"><ele>5.2</ele><time>2026-05-01T16:16:14.932Z</time></trkpt><trkpt lat="42.5132267" lon="14.1390833"><ele>5.0</ele><time>2026-05-01T16:16:15.932Z</time></trkpt><trkpt lat="42.51318" lon="14.139205"><ele>5.333333333333334</ele><time>2026-05-01T16:16:16.932Z</time></trkpt><trkpt lat="42.5131367" lon="14.1393217"><ele>5.666666666666667</ele><time>2026-05-01T16:16:17.932Z</time></trkpt><trkpt lat="42.5130983" lon="14.1394267"><ele>6.0</ele><time>2026-05-01T16:16:18.932Z</time></trkpt><trkpt lat="42.513065" lon="14.13953"><ele>6.333333333333334</ele><time>2026-05-01T16:16:19.932Z</time></trkpt><trkpt lat="42.5130333" lon="14.1396183"><ele>6.666666666666667</ele><time>2026-05-01T16:16:20.932Z</time></trkpt><trkpt lat="42.5130033" lon="14.1397017"><ele>7.0</ele><time>2026-05-01T16:16:21.931Z</time></trkpt><trkpt lat="42.512945" lon="14.139855"><ele>6.833333333333334</ele><time>2026-05-01T16:16:23.932Z</time></trkpt><trkpt lat="42.5129183" lon="14.1399333"><ele>6.666666666666667</ele><time>2026-05-01T16:16:24.932Z</time></trkpt><trkpt lat="42.5128833" lon="14.14003"><ele>6.5</ele><time>2026-05-01T16:16:25.932Z</time></trkpt><trkpt lat="42.5128533" lon="14.1401283"><ele>6.333333333333334</ele><time>2026-05-01T16:16:26.932Z</time></trkpt><trkpt lat="42.512815" lon="14.1402333"><ele>6.166666666666667</ele><time>2026-05-01T16:16:27.932Z</time></trkpt><trkpt lat="42.5127817" lon="14.14034"><ele>6.0</ele><time>2026-05-01T16:16:28.932Z</time></trkpt><trkpt lat="42.512745" lon="14.140445"><ele>5.999999999999999</ele><time>2026-05-01T16:16:29.931Z</time></trkpt><trkpt lat="42.5127083" lon="14.140545"><ele>6.0</ele><time>2026-05-01T16:16:30.932Z</time></trkpt><trkpt lat="42.512675" lon="14.140635"><ele>6.0</ele><time>2026-05-01T16:16:31.932Z</time></trkpt><trkpt lat="42.51264" lon="14.1407267"><ele>6.0</ele><time>2026-05-01T16:16:32.932Z</time></trkpt><trkpt lat="42.5126017" lon="14.1408067"><ele>6.0</ele><time>2026-05-01T16:16:33.931Z</time></trkpt><trkpt lat="42.51257" lon="14.1408967"><ele>5.999999999999999</ele><time>2026-05-01T16:16:34.932Z</time></trkpt><trkpt lat="42.51254" lon="14.1409767"><ele>6.0</ele><time>2026-05-01T16:16:35.931Z</time></trkpt><trkpt lat="42.512485" lon="14.1411183"><ele>6.4</ele><time>2026-05-01T16:16:37.932Z</time></trkpt><trkpt lat="42.51244" lon="14.1412583"><ele>6.8</ele><time>2026-05-01T16:16:39.932Z</time></trkpt><trkpt lat="42.5124383" lon="14.1414017"><ele>7.200000000000001</ele><time>2026-05-01T16:16:41.932Z</time></trkpt><trkpt lat="42.512515" lon="14.1414867"><ele>7.6000000000000005</ele><time>2026-05-01T16:16:43.932Z</time></trkpt><trkpt lat="42.51264" lon="14.1414833"><ele>8.0</ele><time>2026-05-01T16:16:45.932Z</time></trkpt><trkpt lat="42.512725" lon="14.1414683"><ele>7.999999999999999</ele><time>2026-05-01T16:16:46.932Z</time></trkpt><trkpt lat="42.5128167" lon="14.1414433"><ele>8.0</ele><time>2026-05-01T16:16:47.932Z</time></trkpt><trkpt lat="42.5129017" lon="14.1414283"><ele>8.0</ele><time>2026-05-01T16:16:48.932Z</time></trkpt><trkpt lat="42.5129833" lon="14.141425"><ele>8.0</ele><time>2026-05-01T16:16:49.932Z</time></trkpt><trkpt lat="42.5130667" lon="14.1414233"><ele>7.999999999999999</ele><time>2026-05-01T16:16:50.932Z</time></trkpt><trkpt lat="42.5131417" lon="14.1414333"><ele>8.0</ele><time>2026-05-01T16:16:51.932Z</time></trkpt><trkpt lat="42.5132133" lon="14.14144"><ele>7.6000000000000005</ele><time>2026-05-01T16:16:52.932Z</time></trkpt><trkpt lat="42.51333" lon="14.141455"><ele>7.200000000000001</ele><time>2026-05-01T16:16:54.931Z</time></trkpt><trkpt lat="42.5134267" lon="14.1414883"><ele>6.8</ele><time>2026-05-01T16:16:56.931Z</time></trkpt><trkpt lat="42.5135217" lon="14.1415467"><ele>6.4</ele><time>2026-05-01T16:16:58.932Z</time></trkpt><trkpt lat="42.513625" lon="14.1416017"><ele>6.0</ele><time>2026-05-01T16:17:00.932Z</time></trkpt><trkpt lat="42.5137267" lon="14.1416667"><ele>5.5</ele><time>2026-05-01T16:17:02.932Z</time></trkpt><trkpt lat="42.5138" lon="14.1417233"><ele>5.0</ele><time>2026-05-01T16:17:03.932Z</time></trkpt><trkpt lat="42.5138867" lon="14.1417883"><ele>4.5</ele><time>2026-05-01T16:17:04.932Z</time></trkpt><trkpt lat="42.5139683" lon="14.1418483"><ele>4.0</ele><time>2026-05-01T16:17:05.931Z</time></trkpt><trkpt lat="42.514045" lon="14.141905"><ele>3.5</ele><time>2026-05-01T16:17:06.932Z</time></trkpt><trkpt lat="42.5141017" lon="14.1419633"><ele>3.0</ele><time>2026-05-01T16:17:07.932Z</time></trkpt><trkpt lat="42.5141917" lon="14.142045"><ele>3.0</ele><time>2026-05-01T16:17:09.931Z</time></trkpt><trkpt lat="42.5142333" lon="14.1421367"><ele>3.0</ele><time>2026-05-01T16:17:11.931Z</time></trkpt><trkpt lat="42.5142667" lon="14.1422333"><ele>3.0</ele><time>2026-05-01T16:17:13.931Z</time></trkpt><trkpt lat="42.514295" lon="14.1423667"><ele>3.0</ele><time>2026-05-01T16:17:15.932Z</time></trkpt><trkpt lat="42.5143733" lon="14.1424733"><ele>3.0</ele><time>2026-05-01T16:17:17.931Z</time></trkpt><trkpt lat="42.51448" lon="14.1424583"><ele>2.8333333333333335</ele><time>2026-05-01T16:17:19.932Z</time></trkpt><trkpt lat="42.514545" lon="14.1424233"><ele>2.6666666666666665</ele><time>2026-05-01T16:17:20.932Z</time></trkpt><trkpt lat="42.5146733" lon="14.1424217"><ele>2.5</ele><time>2026-05-01T16:17:22.932Z</time></trkpt><trkpt lat="42.5147467" lon="14.14246"><ele>2.333333333333333</ele><time>2026-05-01T16:17:23.932Z</time></trkpt><trkpt lat="42.5148183" lon="14.1425167"><ele>2.1666666666666665</ele><time>2026-05-01T16:17:24.931Z</time></trkpt><trkpt lat="42.5148933" lon="14.1425617"><ele>2.0</ele><time>2026-05-01T16:17:25.931Z</time></trkpt><trkpt lat="42.5149733" lon="14.142615"><ele>2.0</ele><time>2026-05-01T16:17:26.931Z</time></trkpt><trkpt lat="42.5150533" lon="14.1426817"><ele>2.0</ele><time>2026-05-01T16:17:27.931Z</time></trkpt><trkpt lat="42.515135" lon="14.1427483"><ele>2.0</ele><time>2026-05-01T16:17:28.931Z</time></trkpt><trkpt lat="42.5152217" lon="14.1428183"><ele>2.0</ele><time>2026-05-01T16:17:29.93Z</time></trkpt><trkpt lat="42.5153117" lon="14.1428933"><ele>2.0</ele><time>2026-05-01T16:17:30.931Z</time></trkpt><trkpt lat="42.515415" lon="14.1429667"><ele>2.25</ele><time>2026-05-01T16:17:31.93Z</time></trkpt><trkpt lat="42.5155383" lon="14.14304"><ele>2.5</ele><time>2026-05-01T16:17:32.931Z</time></trkpt><trkpt lat="42.515665" lon="14.1431217"><ele>2.75</ele><time>2026-05-01T16:17:33.93Z</time></trkpt><trkpt lat="42.51578" lon="14.1432083"><ele>3.0</ele><time>2026-05-01T16:17:34.931Z</time></trkpt><trkpt lat="42.5158917" lon="14.14328"><ele>3.25</ele><time>2026-05-01T16:17:35.93Z</time></trkpt><trkpt lat="42.516" lon="14.1433667"><ele>3.5</ele><time>2026-05-01T16:17:36.93Z</time></trkpt><trkpt lat="42.516125" lon="14.1434417"><ele>3.75</ele><time>2026-05-01T16:17:37.931Z</time></trkpt><trkpt lat="42.5162617" lon="14.1435183"><ele>4.0</ele><time>2026-05-01T16:17:38.931Z</time></trkpt><trkpt lat="42.5164017" lon="14.143615"><ele>4.666666666666666</ele><time>2026-05-01T16:17:39.931Z</time></trkpt><trkpt lat="42.5165367" lon="14.14372"><ele>5.333333333333333</ele><time>2026-05-01T16:17:40.931Z</time></trkpt><trkpt lat="42.5166783" lon="14.143845"><ele>6.0</ele><time>2026-05-01T16:17:41.931Z</time></trkpt><trkpt lat="42.516815" lon="14.1439567"><ele>5.333333333333333</ele><time>2026-05-01T16:17:42.93Z</time></trkpt><trkpt lat="42.5169483" lon="14.14406"><ele>4.666666666666666</ele><time>2026-05-01T16:17:43.931Z</time></trkpt><trkpt lat="42.517095" lon="14.1441633"><ele>4.0</ele><time>2026-05-01T16:17:44.931Z</time></trkpt><trkpt lat="42.5172417" lon="14.1442617"><ele>3.6666666666666665</ele><time>2026-05-01T16:17:45.93Z</time></trkpt><trkpt lat="42.5173833" lon="14.144365"><ele>3.333333333333333</ele><time>2026-05-01T16:17:46.931Z</time></trkpt><trkpt lat="42.5175167" lon="14.1444617"><ele>3.0</ele><time>2026-05-01T16:17:47.931Z</time></trkpt><trkpt lat="42.517645" lon="14.1445583"><ele>3.0</ele><time>2026-05-01T16:17:48.931Z</time></trkpt><trkpt lat="42.5177767" lon="14.14465"><ele>3.0</ele><time>2026-05-01T16:17:49.931Z</time></trkpt><trkpt lat="42.5178933" lon="14.1447383"><ele>3.0</ele><time>2026-05-01T16:17:50.931Z</time></trkpt><trkpt lat="42.5180167" lon="14.1448283"><ele>3.0</ele><time>2026-05-01T16:17:51.931Z</time></trkpt><trkpt lat="42.5181433" lon="14.144915"><ele>3.0</ele><time>2026-05-01T16:17:52.93Z</time></trkpt><trkpt lat="42.5182667" lon="14.1450017"><ele>3.0</ele><time>2026-05-01T16:17:53.931Z</time></trkpt><trkpt lat="42.5183817" lon="14.1450767"><ele>3.0</ele><time>2026-05-01T16:17:54.93Z</time></trkpt><trkpt lat="42.51848" lon="14.1451483"><ele>3.0</ele><time>2026-05-01T16:17:55.931Z</time></trkpt><trkpt lat="42.5185683" lon="14.1452183"><ele>3.0</ele><time>2026-05-01T16:17:56.931Z</time></trkpt><trkpt lat="42.5186367" lon="14.1452617"><ele>3.0</ele><time>2026-05-01T16:17:57.931Z</time></trkpt><trkpt lat="42.5187067" lon="14.1453117"><ele>3.0</ele><time>2026-05-01T16:17:59.93Z</time></trkpt><trkpt lat="42.518765" lon="14.145345"><ele>3.0</ele><time>2026-05-01T16:18:02.931Z</time></trkpt><trkpt lat="42.518845" lon="14.1453883"><ele>3.0</ele><time>2026-05-01T16:18:05.931Z</time></trkpt><trkpt lat="42.5189133" lon="14.14543"><ele>3.0</ele><time>2026-05-01T16:18:08.931Z</time></trkpt><trkpt lat="42.5189967" lon="14.1454633"><ele>3.0</ele><time>2026-05-01T16:18:11.931Z</time></trkpt><trkpt lat="42.5191067" lon="14.14554"><ele>3.0</ele><time>2026-05-01T16:18:13.931Z</time></trkpt><trkpt lat="42.5191733" lon="14.1455867"><ele>3.0</ele><time>2026-05-01T16:18:14.931Z</time></trkpt><trkpt lat="42.5192333" lon="14.145635"><ele>3.0</ele><time>2026-05-01T16:18:15.93Z</time></trkpt><trkpt lat="42.5193183" lon="14.1457017"><ele>3.0</ele><time>2026-05-01T16:18:17.931Z</time></trkpt><trkpt lat="42.5193733" lon="14.1457433"><ele>3.0</ele><time>2026-05-01T16:18:19.931Z</time></trkpt><trkpt lat="42.5194283" lon="14.1458033"><ele>3.3333333333333335</ele><time>2026-05-01T16:18:21.931Z</time></trkpt><trkpt lat="42.5194717" lon="14.1458817"><ele>3.666666666666667</ele><time>2026-05-01T16:18:24.931Z</time></trkpt><trkpt lat="42.5195167" lon="14.14595"><ele>4.0</ele><time>2026-05-01T16:18:39.931Z</time></trkpt><trkpt lat="42.5195467" lon="14.14608"><ele>4.333333333333334</ele><time>2026-05-01T16:18:43.931Z</time></trkpt><trkpt lat="42.5194983" lon="14.1462267"><ele>4.666666666666667</ele><time>2026-05-01T16:18:45.931Z</time></trkpt><trkpt lat="42.51944" lon="14.1463083"><ele>5.0</ele><time>2026-05-01T16:18:46.931Z</time></trkpt><trkpt lat="42.5193667" lon="14.146405"><ele>5.0</ele><time>2026-05-01T16:18:47.93Z</time></trkpt><trkpt lat="42.519275" lon="14.1465267"><ele>5.0</ele><time>2026-05-01T16:18:48.93Z</time></trkpt><trkpt lat="42.5191983" lon="14.146635"><ele>5.0</ele><time>2026-05-01T16:18:49.93Z</time></trkpt><trkpt lat="42.5191367" lon="14.1467367"><ele>5.0</ele><time>2026-05-01T16:18:50.93Z</time></trkpt><trkpt lat="42.5190833" lon="14.1468167"><ele>5.0</ele><time>2026-05-01T16:18:51.931Z</time></trkpt><trkpt lat="42.5190467" lon="14.1469667"><ele>4.666666666666667</ele><time>2026-05-01T16:18:53.931Z</time></trkpt><trkpt lat="42.519095" lon="14.1471267"><ele>4.333333333333334</ele><time>2026-05-01T16:18:55.931Z</time></trkpt><trkpt lat="42.5191483" lon="14.1471867"><ele>4.0</ele><time>2026-05-01T16:18:56.93Z</time></trkpt><trkpt lat="42.5192083" lon="14.14723"><ele>3.666666666666667</ele><time>2026-05-01T16:18:57.931Z</time></trkpt><trkpt lat="42.5192833" lon="14.147265"><ele>3.3333333333333335</ele><time>2026-05-01T16:18:58.931Z</time></trkpt><trkpt lat="42.5193717" lon="14.1473033"><ele>3.0</ele><time>2026-05-01T16:18:59.931Z</time></trkpt><trkpt lat="42.5194467" lon="14.1473567"><ele>3.0</ele><time>2026-05-01T16:19:00.93Z</time></trkpt><trkpt lat="42.5195167" lon="14.14744"><ele>3.0</ele><time>2026-05-01T16:19:01.931Z</time></trkpt><trkpt lat="42.5195817" lon="14.1475267"><ele>3.0</ele><time>2026-05-01T16:19:02.93Z</time></trkpt><trkpt lat="42.5196433" lon="14.1476183"><ele>3.0</ele><time>2026-05-01T16:19:03.931Z</time></trkpt><trkpt lat="42.5197017" lon="14.1477233"><ele>3.0</ele><time>2026-05-01T16:19:04.93Z</time></trkpt><trkpt lat="42.5197517" lon="14.1478117"><ele>2.8</ele><time>2026-05-01T16:19:05.931Z</time></trkpt><trkpt lat="42.5197933" lon="14.1478783"><ele>2.5999999999999996</ele><time>2026-05-01T16:19:06.931Z</time></trkpt><trkpt lat="42.5198583" lon="14.1479933"><ele>2.4000000000000004</ele><time>2026-05-01T16:19:08.931Z</time></trkpt><trkpt lat="42.5199033" lon="14.148125"><ele>2.2</ele><time>2026-05-01T16:19:10.93Z</time></trkpt><trkpt lat="42.5199533" lon="14.1482633"><ele>2.0</ele><time>2026-05-01T16:19:12.931Z</time></trkpt><trkpt lat="42.5199917" lon="14.1483483"><ele>1.9999999999999998</ele><time>2026-05-01T16:19:13.931Z</time></trkpt><trkpt lat="42.5200283" lon="14.1484367"><ele>2.0</ele><time>2026-05-01T16:19:14.93Z</time></trkpt><trkpt lat="42.5200633" lon="14.1485433"><ele>2.0</ele><time>2026-05-01T16:19:15.93Z</time></trkpt><trkpt lat="42.520105" lon="14.148645"><ele>2.0</ele><time>2026-05-01T16:19:16.931Z</time></trkpt><trkpt lat="42.5201467" lon="14.148745"><ele>1.9999999999999998</ele><time>2026-05-01T16:19:17.931Z</time></trkpt><trkpt lat="42.5201883" lon="14.14884"><ele>2.0</ele><time>2026-05-01T16:19:18.93Z</time></trkpt><trkpt lat="42.5202267" lon="14.1489417"><ele>1.9999999999999998</ele><time>2026-05-01T16:19:19.931Z</time></trkpt><trkpt lat="42.5202617" lon="14.1490367"><ele>2.0</ele><time>2026-05-01T16:19:20.931Z</time></trkpt><trkpt lat="42.5202867" lon="14.1491283"><ele>2.0</ele><time>2026-05-01T16:19:21.931Z</time></trkpt><trkpt lat="42.5203183" lon="14.1492133"><ele>2.0</ele><time>2026-05-01T16:19:22.931Z</time></trkpt><trkpt lat="42.5203467" lon="14.1492933"><ele>1.9999999999999998</ele><time>2026-05-01T16:19:23.931Z</time></trkpt><trkpt lat="42.520385" lon="14.1494383"><ele>2.0</ele><time>2026-05-01T16:19:25.931Z</time></trkpt><trkpt lat="42.52042" lon="14.1495483"><ele>2.0</ele><time>2026-05-01T16:19:26.931Z</time></trkpt><trkpt lat="42.5204667" lon="14.1496833"><ele>2.0</ele><time>2026-05-01T16:19:27.931Z</time></trkpt><trkpt lat="42.520525" lon="14.1498367"><ele>2.0</ele><time>2026-05-01T16:19:28.931Z</time></trkpt><trkpt lat="42.52058" lon="14.1499933"><ele>2.0</ele><time>2026-05-01T16:19:29.93Z</time></trkpt><trkpt lat="42.5206233" lon="14.15014"><ele>1.9999999999999998</ele><time>2026-05-01T16:19:30.931Z</time></trkpt><trkpt lat="42.5206683" lon="14.150265"><ele>2.0</ele><time>2026-05-01T16:19:31.93Z</time></trkpt><trkpt lat="42.5207" lon="14.150365"><ele>2.0</ele><time>2026-05-01T16:19:32.931Z</time></trkpt><trkpt lat="42.5207383" lon="14.1504467"><ele>2.0</ele><time>2026-05-01T16:19:33.931Z</time></trkpt><trkpt lat="42.5207733" lon="14.1505317"><ele>1.9999999999999998</ele><time>2026-05-01T16:19:34.93Z</time></trkpt><trkpt lat="42.5208133" lon="14.150635"><ele>2.0</ele><time>2026-05-01T16:19:35.93Z</time></trkpt><trkpt lat="42.5208567" lon="14.1507517"><ele>1.9999999999999998</ele><time>2026-05-01T16:19:36.93Z</time></trkpt><trkpt lat="42.5208967" lon="14.15087"><ele>2.0</ele><time>2026-05-01T16:19:37.931Z</time></trkpt><trkpt lat="42.5209317" lon="14.1509783"><ele>2.0</ele><time>2026-05-01T16:19:38.931Z</time></trkpt><trkpt lat="42.52096" lon="14.151075"><ele>2.0</ele><time>2026-05-01T16:19:39.931Z</time></trkpt><trkpt lat="42.52099" lon="14.1511617"><ele>1.9999999999999998</ele><time>2026-05-01T16:19:40.93Z</time></trkpt><trkpt lat="42.5210217" lon="14.1512467"><ele>2.0</ele><time>2026-05-01T16:19:41.931Z</time></trkpt><trkpt lat="42.5210717" lon="14.1513883"><ele>2.0</ele><time>2026-05-01T16:19:43.931Z</time></trkpt><trkpt lat="42.52111" lon="14.151525"><ele>2.0</ele><time>2026-05-01T16:19:45.93Z</time></trkpt><trkpt lat="42.52116" lon="14.1516917"><ele>2.0</ele><time>2026-05-01T16:19:47.931Z</time></trkpt><trkpt lat="42.5212067" lon="14.1518317"><ele>2.0</ele><time>2026-05-01T16:19:49.931Z</time></trkpt><trkpt lat="42.5212417" lon="14.151935"><ele>2.0</ele><time>2026-05-01T16:19:51.931Z</time></trkpt><trkpt lat="42.5212767" lon="14.1520233"><ele>1.5</ele><time>2026-05-01T16:19:53.93Z</time></trkpt><trkpt lat="42.5213283" lon="14.15217"><ele>1.0</ele><time>2026-05-01T16:19:55.931Z</time></trkpt><trkpt lat="42.5213883" lon="14.1523317"><ele>0.5</ele><time>2026-05-01T16:19:57.931Z</time></trkpt><trkpt lat="42.5214317" lon="14.152455"><ele>0.0</ele><time>2026-05-01T16:19:58.93Z</time></trkpt><trkpt lat="42.52148" lon="14.1525983"><ele>-0.2</ele><time>2026-05-01T16:19:59.931Z</time></trkpt><trkpt lat="42.5215283" lon="14.1527333"><ele>-0.4</ele><time>2026-05-01T16:20:00.93Z</time></trkpt><trkpt lat="42.5215583" lon="14.1528467"><ele>-0.6000000000000001</ele><time>2026-05-01T16:20:01.931Z</time></trkpt><trkpt lat="42.5215967" lon="14.152945"><ele>-0.8</ele><time>2026-05-01T16:20:02.931Z</time></trkpt><trkpt lat="42.521625" lon="14.1530283"><ele>-1.0</ele><time>2026-05-01T16:20:03.931Z</time></trkpt><trkpt lat="42.52167" lon="14.1531833"><ele>-0.8333333333333333</ele><time>2026-05-01T16:20:05.93Z</time></trkpt><trkpt lat="42.5217017" lon="14.1532633"><ele>-0.6666666666666666</ele><time>2026-05-01T16:20:06.931Z</time></trkpt><trkpt lat="42.52175" lon="14.1534183"><ele>-0.5</ele><time>2026-05-01T16:20:08.93Z</time></trkpt><trkpt lat="42.521795" lon="14.1535267"><ele>-0.3333333333333333</ele><time>2026-05-01T16:20:10.931Z</time></trkpt><trkpt lat="42.5218167" lon="14.1536167"><ele>-0.16666666666666666</ele><time>2026-05-01T16:20:13.931Z</time></trkpt><trkpt lat="42.5218583" lon="14.1537017"><ele>0.0</ele><time>2026-05-01T16:20:18.93Z</time></trkpt><trkpt lat="42.521925" lon="14.1536767"><ele>0.0</ele><time>2026-05-01T16:20:20.931Z</time></trkpt><trkpt lat="42.5219983" lon="14.1536067"><ele>0.0</ele><time>2026-05-01T16:20:22.931Z</time></trkpt><trkpt lat="42.522055" lon="14.1535533"><ele>0.0</ele><time>2026-05-01T16:20:24.931Z</time></trkpt><trkpt lat="42.5221133" lon="14.15349"><ele>0.0</ele><time>2026-05-01T16:20:27.931Z</time></trkpt><trkpt lat="42.5221783" lon="14.1534267"><ele>0.0</ele><time>2026-05-01T16:20:31.931Z</time></trkpt><trkpt lat="42.5222533" lon="14.1533667"><ele>0.0</ele><time>2026-05-01T16:20:34.93Z</time></trkpt><trkpt lat="42.5222867" lon="14.1532733"><ele>-0.14285714285714285</ele><time>2026-05-01T16:20:37.93Z</time></trkpt><trkpt lat="42.5222533" lon="14.153195"><ele>-0.2857142857142857</ele><time>2026-05-01T16:20:40.93Z</time></trkpt><trkpt lat="42.5222183" lon="14.1531167"><ele>-0.42857142857142855</ele><time>2026-05-01T16:20:46.93Z</time></trkpt><trkpt lat="42.5221783" lon="14.15303"><ele>-0.5714285714285714</ele><time>2026-05-01T16:20:49.929Z</time></trkpt><trkpt lat="42.5221383" lon="14.1529517"><ele>-0.7142857142857142</ele><time>2026-05-01T16:20:52.929Z</time></trkpt><trkpt lat="42.5221" lon="14.152865"><ele>-0.8571428571428571</ele><time>2026-05-01T16:20:55.929Z</time></trkpt><trkpt lat="42.5220533" lon="14.1527817"><ele>-1.0</ele><time>2026-05-01T16:20:58.93Z</time></trkpt><trkpt lat="42.5220133" lon="14.1526883"><ele>-0.9999999999999999</ele><time>2026-05-01T16:21:02.93Z</time></trkpt><trkpt lat="42.5219733" lon="14.15261"><ele>-1.0</ele><time>2026-05-01T16:21:06.93Z</time></trkpt><trkpt lat="42.5219317" lon="14.1525417"><ele>-1.0</ele><time>2026-05-01T16:21:09.929Z</time></trkpt><trkpt lat="42.52189" lon="14.1524333"><ele>-1.0</ele><time>2026-05-01T16:21:12.93Z</time></trkpt><trkpt lat="42.521835" lon="14.152365"><ele>-0.9999999999999999</ele><time>2026-05-01T16:21:16.93Z</time></trkpt><trkpt lat="42.5217967" lon="14.1522817"><ele>-1.0</ele><time>2026-05-01T16:21:19.93Z</time></trkpt><trkpt lat="42.5217567" lon="14.152165"><ele>0.0</ele><time>2026-05-01T16:21:21.93Z</time></trkpt><trkpt lat="42.5216733" lon="14.1521283"><ele>0.0</ele><time>2026-05-01T16:21:23.93Z</time></trkpt><trkpt lat="42.5215967" lon="14.15222"><ele>0.0</ele><time>2026-05-01T16:21:25.929Z</time></trkpt><trkpt lat="42.5216167" lon="14.1523417"><ele>0.0</ele><time>2026-05-01T16:21:27.93Z</time></trkpt><trkpt lat="42.52167" lon="14.1524267"><ele>-1.0</ele><time>2026-05-01T16:21:29.93Z</time></trkpt><trkpt lat="42.52173" lon="14.1524567"><ele>-1.0</ele><time>2026-05-01T16:21:31.929Z</time></trkpt></trkseg></trk></gpx>